<?xml version="1.0" encoding="UTF-8" standalone="no" ?>
<gpx xmlns="http://www.topografix.com/GPX/1/1" xmlns:xsi="http://www.w3.org/2001/XMLSchema-instance" xsi:schemaLocation="http://www.topografix.com/GPX/1/1 http://www.topografix.com/GPX/1/1/gpx.xsd" version="1.1" creator="VisuGPX - https://www.visugpx.com">
  <metadata>
    <name>Entrainement Lille Hardelot</name>
    <desc><![CDATA[entrainement Lille hardelot départ de la chapelle d'Armentières .
]]></desc>
  </metadata>
  <trk>
    <name><![CDATA[chapelle_hardelot_2016]]></name>
    <trkseg>
      <trkpt lat="50.67516" lon="2.89124">
        <ele>19.7</ele>
        <time>2016-05-06T07:18:22Z</time>
      </trkpt>
      <trkpt lat="50.67516" lon="2.89124">
        <ele>19.8</ele>
        <time>2016-05-06T07:18:23Z</time>
      </trkpt>
      <trkpt lat="50.67523" lon="2.89113">
        <ele>20.2</ele>
        <time>2016-05-06T07:18:29Z</time>
      </trkpt>
      <trkpt lat="50.67531" lon="2.891">
        <ele>20.4</ele>
        <time>2016-05-06T07:18:33Z</time>
      </trkpt>
      <trkpt lat="50.67538" lon="2.89088">
        <ele>20.5</ele>
        <time>2016-05-06T07:18:36Z</time>
      </trkpt>
      <trkpt lat="50.67545" lon="2.89074">
        <ele>20.6</ele>
        <time>2016-05-06T07:18:39Z</time>
      </trkpt>
      <trkpt lat="50.67552" lon="2.8906">
        <ele>17.2</ele>
        <time>2016-05-06T07:18:42Z</time>
      </trkpt>
      <trkpt lat="50.67561" lon="2.89047">
        <ele>18.2</ele>
        <time>2016-05-06T07:18:45Z</time>
      </trkpt>
      <trkpt lat="50.67569" lon="2.89031">
        <ele>18.7</ele>
        <time>2016-05-06T07:18:48Z</time>
      </trkpt>
      <trkpt lat="50.67578" lon="2.89016">
        <ele>19.1</ele>
        <time>2016-05-06T07:18:51Z</time>
      </trkpt>
      <trkpt lat="50.67584" lon="2.89005">
        <ele>19.3</ele>
        <time>2016-05-06T07:18:53Z</time>
      </trkpt>
      <trkpt lat="50.67591" lon="2.88993">
        <ele>19.5</ele>
        <time>2016-05-06T07:18:55Z</time>
      </trkpt>
      <trkpt lat="50.67597" lon="2.88981">
        <ele>19.6</ele>
        <time>2016-05-06T07:18:57Z</time>
      </trkpt>
      <trkpt lat="50.67603" lon="2.88968">
        <ele>19.7</ele>
        <time>2016-05-06T07:18:59Z</time>
      </trkpt>
      <trkpt lat="50.6761" lon="2.88957">
        <ele>19.8</ele>
        <time>2016-05-06T07:19:01Z</time>
      </trkpt>
      <trkpt lat="50.67617" lon="2.88946">
        <ele>19.9</ele>
        <time>2016-05-06T07:19:03Z</time>
      </trkpt>
      <trkpt lat="50.67623" lon="2.88934">
        <ele>20</ele>
        <time>2016-05-06T07:19:05Z</time>
      </trkpt>
      <trkpt lat="50.6763" lon="2.88924">
        <ele>20.1</ele>
        <time>2016-05-06T07:19:08Z</time>
      </trkpt>
      <trkpt lat="50.67639" lon="2.88921">
        <ele>20.2</ele>
        <time>2016-05-06T07:19:11Z</time>
      </trkpt>
      <trkpt lat="50.67651" lon="2.88922">
        <ele>20.3</ele>
        <time>2016-05-06T07:19:15Z</time>
      </trkpt>
      <trkpt lat="50.67659" lon="2.88913">
        <ele>20.3</ele>
        <time>2016-05-06T07:19:17Z</time>
      </trkpt>
      <trkpt lat="50.67663" lon="2.88897">
        <ele>20.4</ele>
        <time>2016-05-06T07:19:19Z</time>
      </trkpt>
      <trkpt lat="50.67663" lon="2.8888">
        <ele>20.4</ele>
        <time>2016-05-06T07:19:21Z</time>
      </trkpt>
      <trkpt lat="50.67662" lon="2.88865">
        <ele>20.5</ele>
        <time>2016-05-06T07:19:23Z</time>
      </trkpt>
      <trkpt lat="50.67666" lon="2.8885">
        <ele>20.6</ele>
        <time>2016-05-06T07:19:25Z</time>
      </trkpt>
      <trkpt lat="50.67672" lon="2.88837">
        <ele>20.7</ele>
        <time>2016-05-06T07:19:27Z</time>
      </trkpt>
      <trkpt lat="50.67679" lon="2.88823">
        <ele>20.7</ele>
        <time>2016-05-06T07:19:29Z</time>
      </trkpt>
      <trkpt lat="50.67687" lon="2.88809">
        <ele>20.8</ele>
        <time>2016-05-06T07:19:31Z</time>
      </trkpt>
      <trkpt lat="50.67695" lon="2.88795">
        <ele>20.8</ele>
        <time>2016-05-06T07:19:33Z</time>
      </trkpt>
      <trkpt lat="50.67704" lon="2.88782">
        <ele>20.9</ele>
        <time>2016-05-06T07:19:35Z</time>
      </trkpt>
      <trkpt lat="50.67712" lon="2.88768">
        <ele>20.9</ele>
        <time>2016-05-06T07:19:37Z</time>
      </trkpt>
      <trkpt lat="50.67717" lon="2.88752">
        <ele>20.9</ele>
        <time>2016-05-06T07:19:39Z</time>
      </trkpt>
      <trkpt lat="50.67718" lon="2.88733">
        <ele>21</ele>
        <time>2016-05-06T07:19:41Z</time>
      </trkpt>
      <trkpt lat="50.67719" lon="2.88714">
        <ele>21</ele>
        <time>2016-05-06T07:19:43Z</time>
      </trkpt>
      <trkpt lat="50.67722" lon="2.88694">
        <ele>21</ele>
        <time>2016-05-06T07:19:45Z</time>
      </trkpt>
      <trkpt lat="50.67724" lon="2.88675">
        <ele>21</ele>
        <time>2016-05-06T07:19:47Z</time>
      </trkpt>
      <trkpt lat="50.67726" lon="2.88655">
        <ele>21</ele>
        <time>2016-05-06T07:19:49Z</time>
      </trkpt>
      <trkpt lat="50.67729" lon="2.88636">
        <ele>20.9</ele>
        <time>2016-05-06T07:19:51Z</time>
      </trkpt>
      <trkpt lat="50.67732" lon="2.88615">
        <ele>20.9</ele>
        <time>2016-05-06T07:19:53Z</time>
      </trkpt>
      <trkpt lat="50.67734" lon="2.88595">
        <ele>20.8</ele>
        <time>2016-05-06T07:19:55Z</time>
      </trkpt>
      <trkpt lat="50.67736" lon="2.88574">
        <ele>20.8</ele>
        <time>2016-05-06T07:19:57Z</time>
      </trkpt>
      <trkpt lat="50.67739" lon="2.88551">
        <ele>20.8</ele>
        <time>2016-05-06T07:19:59Z</time>
      </trkpt>
      <trkpt lat="50.6774" lon="2.88529">
        <ele>20.7</ele>
        <time>2016-05-06T07:20:01Z</time>
      </trkpt>
      <trkpt lat="50.67743" lon="2.88508">
        <ele>20.5</ele>
        <time>2016-05-06T07:20:03Z</time>
      </trkpt>
      <trkpt lat="50.67746" lon="2.88486">
        <ele>20.5</ele>
        <time>2016-05-06T07:20:05Z</time>
      </trkpt>
      <trkpt lat="50.67748" lon="2.88465">
        <ele>20.5</ele>
        <time>2016-05-06T07:20:07Z</time>
      </trkpt>
      <trkpt lat="50.67752" lon="2.88444">
        <ele>20.5</ele>
        <time>2016-05-06T07:20:09Z</time>
      </trkpt>
      <trkpt lat="50.67755" lon="2.88422">
        <ele>20.5</ele>
        <time>2016-05-06T07:20:11Z</time>
      </trkpt>
      <trkpt lat="50.67757" lon="2.884">
        <ele>20.6</ele>
        <time>2016-05-06T07:20:13Z</time>
      </trkpt>
      <trkpt lat="50.67759" lon="2.88378">
        <ele>20.6</ele>
        <time>2016-05-06T07:20:15Z</time>
      </trkpt>
      <trkpt lat="50.67761" lon="2.88355">
        <ele>20.6</ele>
        <time>2016-05-06T07:20:17Z</time>
      </trkpt>
      <trkpt lat="50.67763" lon="2.88333">
        <ele>20.6</ele>
        <time>2016-05-06T07:20:19Z</time>
      </trkpt>
      <trkpt lat="50.67765" lon="2.8831">
        <ele>20.6</ele>
        <time>2016-05-06T07:20:21Z</time>
      </trkpt>
      <trkpt lat="50.67767" lon="2.88288">
        <ele>20.6</ele>
        <time>2016-05-06T07:20:23Z</time>
      </trkpt>
      <trkpt lat="50.6777" lon="2.88265">
        <ele>20.7</ele>
        <time>2016-05-06T07:20:25Z</time>
      </trkpt>
      <trkpt lat="50.67772" lon="2.88242">
        <ele>20.7</ele>
        <time>2016-05-06T07:20:27Z</time>
      </trkpt>
      <trkpt lat="50.67775" lon="2.88218">
        <ele>20.7</ele>
        <time>2016-05-06T07:20:29Z</time>
      </trkpt>
      <trkpt lat="50.67777" lon="2.88193">
        <ele>20.7</ele>
        <time>2016-05-06T07:20:31Z</time>
      </trkpt>
      <trkpt lat="50.67779" lon="2.88169">
        <ele>20.7</ele>
        <time>2016-05-06T07:20:33Z</time>
      </trkpt>
      <trkpt lat="50.67782" lon="2.88145">
        <ele>20.7</ele>
        <time>2016-05-06T07:20:35Z</time>
      </trkpt>
      <trkpt lat="50.67784" lon="2.88121">
        <ele>20.7</ele>
        <time>2016-05-06T07:20:37Z</time>
      </trkpt>
      <trkpt lat="50.67787" lon="2.88097">
        <ele>20.7</ele>
        <time>2016-05-06T07:20:39Z</time>
      </trkpt>
      <trkpt lat="50.6779" lon="2.88073">
        <ele>20.7</ele>
        <time>2016-05-06T07:20:41Z</time>
      </trkpt>
      <trkpt lat="50.67792" lon="2.8805">
        <ele>20.7</ele>
        <time>2016-05-06T07:20:43Z</time>
      </trkpt>
      <trkpt lat="50.67793" lon="2.88026">
        <ele>20.7</ele>
        <time>2016-05-06T07:20:45Z</time>
      </trkpt>
      <trkpt lat="50.67795" lon="2.88002">
        <ele>20.7</ele>
        <time>2016-05-06T07:20:47Z</time>
      </trkpt>
      <trkpt lat="50.67798" lon="2.87978">
        <ele>20.7</ele>
        <time>2016-05-06T07:20:49Z</time>
      </trkpt>
      <trkpt lat="50.67801" lon="2.87954">
        <ele>20.7</ele>
        <time>2016-05-06T07:20:51Z</time>
      </trkpt>
      <trkpt lat="50.67802" lon="2.87931">
        <ele>20.7</ele>
        <time>2016-05-06T07:20:53Z</time>
      </trkpt>
      <trkpt lat="50.67804" lon="2.87908">
        <ele>20.7</ele>
        <time>2016-05-06T07:20:55Z</time>
      </trkpt>
      <trkpt lat="50.67807" lon="2.87884">
        <ele>20.7</ele>
        <time>2016-05-06T07:20:57Z</time>
      </trkpt>
      <trkpt lat="50.6781" lon="2.87861">
        <ele>20.7</ele>
        <time>2016-05-06T07:20:59Z</time>
      </trkpt>
      <trkpt lat="50.67813" lon="2.87839">
        <ele>20.7</ele>
        <time>2016-05-06T07:21:01Z</time>
      </trkpt>
      <trkpt lat="50.67815" lon="2.87816">
        <ele>20.7</ele>
        <time>2016-05-06T07:21:03Z</time>
      </trkpt>
      <trkpt lat="50.67817" lon="2.87793">
        <ele>20.7</ele>
        <time>2016-05-06T07:21:05Z</time>
      </trkpt>
      <trkpt lat="50.67818" lon="2.87769">
        <ele>20.7</ele>
        <time>2016-05-06T07:21:07Z</time>
      </trkpt>
      <trkpt lat="50.67819" lon="2.87746">
        <ele>20.7</ele>
        <time>2016-05-06T07:21:09Z</time>
      </trkpt>
      <trkpt lat="50.67822" lon="2.87723">
        <ele>20.7</ele>
        <time>2016-05-06T07:21:11Z</time>
      </trkpt>
      <trkpt lat="50.67824" lon="2.87701">
        <ele>20.7</ele>
        <time>2016-05-06T07:21:13Z</time>
      </trkpt>
      <trkpt lat="50.67827" lon="2.87679">
        <ele>20.7</ele>
        <time>2016-05-06T07:21:15Z</time>
      </trkpt>
      <trkpt lat="50.67829" lon="2.87657">
        <ele>20.7</ele>
        <time>2016-05-06T07:21:17Z</time>
      </trkpt>
      <trkpt lat="50.67832" lon="2.87635">
        <ele>20.7</ele>
        <time>2016-05-06T07:21:19Z</time>
      </trkpt>
      <trkpt lat="50.67834" lon="2.87613">
        <ele>20.7</ele>
        <time>2016-05-06T07:21:21Z</time>
      </trkpt>
      <trkpt lat="50.67836" lon="2.87592">
        <ele>20.7</ele>
        <time>2016-05-06T07:21:23Z</time>
      </trkpt>
      <trkpt lat="50.67837" lon="2.87571">
        <ele>20.7</ele>
        <time>2016-05-06T07:21:25Z</time>
      </trkpt>
      <trkpt lat="50.6784" lon="2.87549">
        <ele>20.9</ele>
        <time>2016-05-06T07:21:27Z</time>
      </trkpt>
      <trkpt lat="50.67842" lon="2.87524">
        <ele>21</ele>
        <time>2016-05-06T07:21:29Z</time>
      </trkpt>
      <trkpt lat="50.67843" lon="2.875">
        <ele>21.1</ele>
        <time>2016-05-06T07:21:31Z</time>
      </trkpt>
      <trkpt lat="50.67847" lon="2.87481">
        <ele>21.1</ele>
        <time>2016-05-06T07:21:33Z</time>
      </trkpt>
      <trkpt lat="50.67852" lon="2.8746">
        <ele>21.1</ele>
        <time>2016-05-06T07:21:35Z</time>
      </trkpt>
      <trkpt lat="50.67855" lon="2.8744">
        <ele>21.1</ele>
        <time>2016-05-06T07:21:37Z</time>
      </trkpt>
      <trkpt lat="50.67857" lon="2.87421">
        <ele>21.1</ele>
        <time>2016-05-06T07:21:39Z</time>
      </trkpt>
      <trkpt lat="50.6786" lon="2.87404">
        <ele>21.1</ele>
        <time>2016-05-06T07:21:41Z</time>
      </trkpt>
      <trkpt lat="50.67865" lon="2.87392">
        <ele>21.1</ele>
        <time>2016-05-06T07:21:43Z</time>
      </trkpt>
      <trkpt lat="50.67876" lon="2.87386">
        <ele>21.1</ele>
        <time>2016-05-06T07:21:45Z</time>
      </trkpt>
      <trkpt lat="50.67885" lon="2.8738">
        <ele>21.1</ele>
        <time>2016-05-06T07:21:47Z</time>
      </trkpt>
      <trkpt lat="50.67896" lon="2.87373">
        <ele>21</ele>
        <time>2016-05-06T07:21:49Z</time>
      </trkpt>
      <trkpt lat="50.67907" lon="2.87366">
        <ele>21</ele>
        <time>2016-05-06T07:21:51Z</time>
      </trkpt>
      <trkpt lat="50.67919" lon="2.87358">
        <ele>21</ele>
        <time>2016-05-06T07:21:53Z</time>
      </trkpt>
      <trkpt lat="50.67929" lon="2.8735">
        <ele>21</ele>
        <time>2016-05-06T07:21:55Z</time>
      </trkpt>
      <trkpt lat="50.6794" lon="2.87343">
        <ele>20.9</ele>
        <time>2016-05-06T07:21:57Z</time>
      </trkpt>
      <trkpt lat="50.67951" lon="2.87342">
        <ele>20.9</ele>
        <time>2016-05-06T07:22:00Z</time>
      </trkpt>
      <trkpt lat="50.6796" lon="2.87342">
        <ele>20.9</ele>
        <time>2016-05-06T07:22:02Z</time>
      </trkpt>
      <trkpt lat="50.67971" lon="2.87334">
        <ele>20.8</ele>
        <time>2016-05-06T07:22:04Z</time>
      </trkpt>
      <trkpt lat="50.67972" lon="2.87317">
        <ele>20.8</ele>
        <time>2016-05-06T07:22:06Z</time>
      </trkpt>
      <trkpt lat="50.67966" lon="2.873">
        <ele>20.8</ele>
        <time>2016-05-06T07:22:08Z</time>
      </trkpt>
      <trkpt lat="50.67955" lon="2.87288">
        <ele>20.7</ele>
        <time>2016-05-06T07:22:10Z</time>
      </trkpt>
      <trkpt lat="50.67944" lon="2.87281">
        <ele>20.7</ele>
        <time>2016-05-06T07:22:12Z</time>
      </trkpt>
      <trkpt lat="50.67934" lon="2.8727">
        <ele>20.7</ele>
        <time>2016-05-06T07:22:14Z</time>
      </trkpt>
      <trkpt lat="50.67926" lon="2.87256">
        <ele>20.7</ele>
        <time>2016-05-06T07:22:16Z</time>
      </trkpt>
      <trkpt lat="50.67919" lon="2.8724">
        <ele>20.7</ele>
        <time>2016-05-06T07:22:18Z</time>
      </trkpt>
      <trkpt lat="50.67911" lon="2.87223">
        <ele>20.7</ele>
        <time>2016-05-06T07:22:20Z</time>
      </trkpt>
      <trkpt lat="50.67905" lon="2.87205">
        <ele>20.7</ele>
        <time>2016-05-06T07:22:22Z</time>
      </trkpt>
      <trkpt lat="50.67899" lon="2.87185">
        <ele>20.7</ele>
        <time>2016-05-06T07:22:24Z</time>
      </trkpt>
      <trkpt lat="50.67893" lon="2.87166">
        <ele>20.7</ele>
        <time>2016-05-06T07:22:26Z</time>
      </trkpt>
      <trkpt lat="50.67888" lon="2.87146">
        <ele>20.8</ele>
        <time>2016-05-06T07:22:28Z</time>
      </trkpt>
      <trkpt lat="50.67884" lon="2.87125">
        <ele>20.8</ele>
        <time>2016-05-06T07:22:30Z</time>
      </trkpt>
      <trkpt lat="50.6788" lon="2.87103">
        <ele>20.8</ele>
        <time>2016-05-06T07:22:32Z</time>
      </trkpt>
      <trkpt lat="50.67877" lon="2.8708">
        <ele>20.8</ele>
        <time>2016-05-06T07:22:34Z</time>
      </trkpt>
      <trkpt lat="50.67876" lon="2.87056">
        <ele>20.8</ele>
        <time>2016-05-06T07:22:36Z</time>
      </trkpt>
      <trkpt lat="50.67875" lon="2.87033">
        <ele>20.8</ele>
        <time>2016-05-06T07:22:38Z</time>
      </trkpt>
      <trkpt lat="50.67876" lon="2.87009">
        <ele>20.8</ele>
        <time>2016-05-06T07:22:40Z</time>
      </trkpt>
      <trkpt lat="50.67878" lon="2.86985">
        <ele>20.8</ele>
        <time>2016-05-06T07:22:42Z</time>
      </trkpt>
      <trkpt lat="50.67881" lon="2.86961">
        <ele>20.8</ele>
        <time>2016-05-06T07:22:44Z</time>
      </trkpt>
      <trkpt lat="50.67885" lon="2.86937">
        <ele>20.8</ele>
        <time>2016-05-06T07:22:46Z</time>
      </trkpt>
      <trkpt lat="50.6789" lon="2.86914">
        <ele>20.8</ele>
        <time>2016-05-06T07:22:48Z</time>
      </trkpt>
      <trkpt lat="50.67895" lon="2.86891">
        <ele>20.8</ele>
        <time>2016-05-06T07:22:50Z</time>
      </trkpt>
      <trkpt lat="50.679" lon="2.86869">
        <ele>20.8</ele>
        <time>2016-05-06T07:22:52Z</time>
      </trkpt>
      <trkpt lat="50.67906" lon="2.86846">
        <ele>20.8</ele>
        <time>2016-05-06T07:22:54Z</time>
      </trkpt>
      <trkpt lat="50.67911" lon="2.86824">
        <ele>20.8</ele>
        <time>2016-05-06T07:22:56Z</time>
      </trkpt>
      <trkpt lat="50.67916" lon="2.86803">
        <ele>20.8</ele>
        <time>2016-05-06T07:22:58Z</time>
      </trkpt>
      <trkpt lat="50.67922" lon="2.86782">
        <ele>20.8</ele>
        <time>2016-05-06T07:23:00Z</time>
      </trkpt>
      <trkpt lat="50.67927" lon="2.86763">
        <ele>20.9</ele>
        <time>2016-05-06T07:23:02Z</time>
      </trkpt>
      <trkpt lat="50.67932" lon="2.86743">
        <ele>21</ele>
        <time>2016-05-06T07:23:04Z</time>
      </trkpt>
      <trkpt lat="50.67937" lon="2.86723">
        <ele>21.2</ele>
        <time>2016-05-06T07:23:06Z</time>
      </trkpt>
      <trkpt lat="50.67943" lon="2.86705">
        <ele>21.4</ele>
        <time>2016-05-06T07:23:08Z</time>
      </trkpt>
      <trkpt lat="50.67949" lon="2.86687">
        <ele>21.6</ele>
        <time>2016-05-06T07:23:10Z</time>
      </trkpt>
      <trkpt lat="50.67955" lon="2.8667">
        <ele>21.8</ele>
        <time>2016-05-06T07:23:12Z</time>
      </trkpt>
      <trkpt lat="50.67961" lon="2.86653">
        <ele>22.1</ele>
        <time>2016-05-06T07:23:14Z</time>
      </trkpt>
      <trkpt lat="50.67967" lon="2.86636">
        <ele>22.5</ele>
        <time>2016-05-06T07:23:16Z</time>
      </trkpt>
      <trkpt lat="50.67973" lon="2.86618">
        <ele>22.8</ele>
        <time>2016-05-06T07:23:18Z</time>
      </trkpt>
      <trkpt lat="50.67979" lon="2.86601">
        <ele>23.2</ele>
        <time>2016-05-06T07:23:20Z</time>
      </trkpt>
      <trkpt lat="50.67986" lon="2.86584">
        <ele>23.5</ele>
        <time>2016-05-06T07:23:22Z</time>
      </trkpt>
      <trkpt lat="50.67993" lon="2.86567">
        <ele>23.8</ele>
        <time>2016-05-06T07:23:24Z</time>
      </trkpt>
      <trkpt lat="50.68001" lon="2.86549">
        <ele>24.1</ele>
        <time>2016-05-06T07:23:26Z</time>
      </trkpt>
      <trkpt lat="50.68008" lon="2.86529">
        <ele>24.4</ele>
        <time>2016-05-06T07:23:28Z</time>
      </trkpt>
      <trkpt lat="50.68015" lon="2.86508">
        <ele>24.6</ele>
        <time>2016-05-06T07:23:30Z</time>
      </trkpt>
      <trkpt lat="50.68022" lon="2.86487">
        <ele>24.8</ele>
        <time>2016-05-06T07:23:32Z</time>
      </trkpt>
      <trkpt lat="50.68029" lon="2.86465">
        <ele>25</ele>
        <time>2016-05-06T07:23:34Z</time>
      </trkpt>
      <trkpt lat="50.68036" lon="2.86442">
        <ele>25.1</ele>
        <time>2016-05-06T07:23:36Z</time>
      </trkpt>
      <trkpt lat="50.68044" lon="2.86417">
        <ele>25</ele>
        <time>2016-05-06T07:23:38Z</time>
      </trkpt>
      <trkpt lat="50.68048" lon="2.86404">
        <ele>25</ele>
        <time>2016-05-06T07:23:39Z</time>
      </trkpt>
      <trkpt lat="50.68052" lon="2.8639">
        <ele>24.9</ele>
        <time>2016-05-06T07:23:40Z</time>
      </trkpt>
      <trkpt lat="50.68055" lon="2.86376">
        <ele>24.9</ele>
        <time>2016-05-06T07:23:41Z</time>
      </trkpt>
      <trkpt lat="50.68059" lon="2.86361">
        <ele>24.8</ele>
        <time>2016-05-06T07:23:42Z</time>
      </trkpt>
      <trkpt lat="50.68062" lon="2.86347">
        <ele>24.7</ele>
        <time>2016-05-06T07:23:43Z</time>
      </trkpt>
      <trkpt lat="50.68066" lon="2.86332">
        <ele>24.6</ele>
        <time>2016-05-06T07:23:44Z</time>
      </trkpt>
      <trkpt lat="50.68069" lon="2.86318">
        <ele>24.5</ele>
        <time>2016-05-06T07:23:45Z</time>
      </trkpt>
      <trkpt lat="50.68072" lon="2.86304">
        <ele>24.3</ele>
        <time>2016-05-06T07:23:46Z</time>
      </trkpt>
      <trkpt lat="50.68075" lon="2.8629">
        <ele>24.2</ele>
        <time>2016-05-06T07:23:47Z</time>
      </trkpt>
      <trkpt lat="50.68077" lon="2.86276">
        <ele>24.1</ele>
        <time>2016-05-06T07:23:48Z</time>
      </trkpt>
      <trkpt lat="50.6808" lon="2.86262">
        <ele>23.9</ele>
        <time>2016-05-06T07:23:49Z</time>
      </trkpt>
      <trkpt lat="50.68084" lon="2.86235">
        <ele>23.6</ele>
        <time>2016-05-06T07:23:51Z</time>
      </trkpt>
      <trkpt lat="50.68088" lon="2.8621">
        <ele>23.2</ele>
        <time>2016-05-06T07:23:53Z</time>
      </trkpt>
      <trkpt lat="50.68092" lon="2.86186">
        <ele>23</ele>
        <time>2016-05-06T07:23:55Z</time>
      </trkpt>
      <trkpt lat="50.68095" lon="2.86163">
        <ele>22.7</ele>
        <time>2016-05-06T07:23:57Z</time>
      </trkpt>
      <trkpt lat="50.68098" lon="2.86141">
        <ele>22.5</ele>
        <time>2016-05-06T07:23:59Z</time>
      </trkpt>
      <trkpt lat="50.68101" lon="2.86121">
        <ele>22.3</ele>
        <time>2016-05-06T07:24:01Z</time>
      </trkpt>
      <trkpt lat="50.68105" lon="2.86102">
        <ele>22.1</ele>
        <time>2016-05-06T07:24:03Z</time>
      </trkpt>
      <trkpt lat="50.68113" lon="2.86087">
        <ele>21.9</ele>
        <time>2016-05-06T07:24:05Z</time>
      </trkpt>
      <trkpt lat="50.68121" lon="2.86071">
        <ele>21.8</ele>
        <time>2016-05-06T07:24:07Z</time>
      </trkpt>
      <trkpt lat="50.68123" lon="2.86051">
        <ele>21.7</ele>
        <time>2016-05-06T07:24:09Z</time>
      </trkpt>
      <trkpt lat="50.68117" lon="2.86033">
        <ele>21.5</ele>
        <time>2016-05-06T07:24:11Z</time>
      </trkpt>
      <trkpt lat="50.68106" lon="2.8602">
        <ele>21.3</ele>
        <time>2016-05-06T07:24:13Z</time>
      </trkpt>
      <trkpt lat="50.68097" lon="2.86007">
        <ele>21.1</ele>
        <time>2016-05-06T07:24:15Z</time>
      </trkpt>
      <trkpt lat="50.6809" lon="2.85989">
        <ele>20.9</ele>
        <time>2016-05-06T07:24:17Z</time>
      </trkpt>
      <trkpt lat="50.68081" lon="2.85971">
        <ele>20.8</ele>
        <time>2016-05-06T07:24:19Z</time>
      </trkpt>
      <trkpt lat="50.68071" lon="2.85954">
        <ele>20.7</ele>
        <time>2016-05-06T07:24:21Z</time>
      </trkpt>
      <trkpt lat="50.68062" lon="2.85938">
        <ele>20.6</ele>
        <time>2016-05-06T07:24:23Z</time>
      </trkpt>
      <trkpt lat="50.68052" lon="2.8592">
        <ele>20.5</ele>
        <time>2016-05-06T07:24:25Z</time>
      </trkpt>
      <trkpt lat="50.68042" lon="2.85901">
        <ele>20.4</ele>
        <time>2016-05-06T07:24:27Z</time>
      </trkpt>
      <trkpt lat="50.68031" lon="2.85884">
        <ele>20.3</ele>
        <time>2016-05-06T07:24:29Z</time>
      </trkpt>
      <trkpt lat="50.68019" lon="2.85868">
        <ele>20.3</ele>
        <time>2016-05-06T07:24:31Z</time>
      </trkpt>
      <trkpt lat="50.68007" lon="2.85853">
        <ele>20.2</ele>
        <time>2016-05-06T07:24:33Z</time>
      </trkpt>
      <trkpt lat="50.67995" lon="2.8584">
        <ele>20.2</ele>
        <time>2016-05-06T07:24:35Z</time>
      </trkpt>
      <trkpt lat="50.67984" lon="2.85827">
        <ele>20.2</ele>
        <time>2016-05-06T07:24:37Z</time>
      </trkpt>
      <trkpt lat="50.67972" lon="2.85813">
        <ele>20.2</ele>
        <time>2016-05-06T07:24:39Z</time>
      </trkpt>
      <trkpt lat="50.67959" lon="2.85799">
        <ele>20.2</ele>
        <time>2016-05-06T07:24:41Z</time>
      </trkpt>
      <trkpt lat="50.67945" lon="2.85785">
        <ele>20.2</ele>
        <time>2016-05-06T07:24:43Z</time>
      </trkpt>
      <trkpt lat="50.67932" lon="2.85771">
        <ele>20.2</ele>
        <time>2016-05-06T07:24:45Z</time>
      </trkpt>
      <trkpt lat="50.67921" lon="2.85754">
        <ele>20.1</ele>
        <time>2016-05-06T07:24:47Z</time>
      </trkpt>
      <trkpt lat="50.67912" lon="2.85734">
        <ele>20.1</ele>
        <time>2016-05-06T07:24:49Z</time>
      </trkpt>
      <trkpt lat="50.67902" lon="2.85714">
        <ele>20.1</ele>
        <time>2016-05-06T07:24:51Z</time>
      </trkpt>
      <trkpt lat="50.67893" lon="2.85694">
        <ele>20.1</ele>
        <time>2016-05-06T07:24:53Z</time>
      </trkpt>
      <trkpt lat="50.67884" lon="2.85674">
        <ele>20.1</ele>
        <time>2016-05-06T07:24:55Z</time>
      </trkpt>
      <trkpt lat="50.67875" lon="2.85655">
        <ele>20.1</ele>
        <time>2016-05-06T07:24:57Z</time>
      </trkpt>
      <trkpt lat="50.67866" lon="2.85637">
        <ele>20.2</ele>
        <time>2016-05-06T07:24:59Z</time>
      </trkpt>
      <trkpt lat="50.67857" lon="2.85619">
        <ele>20.2</ele>
        <time>2016-05-06T07:25:01Z</time>
      </trkpt>
      <trkpt lat="50.67849" lon="2.85601">
        <ele>20.2</ele>
        <time>2016-05-06T07:25:03Z</time>
      </trkpt>
      <trkpt lat="50.67841" lon="2.85582">
        <ele>20.2</ele>
        <time>2016-05-06T07:25:05Z</time>
      </trkpt>
      <trkpt lat="50.67833" lon="2.85561">
        <ele>20.2</ele>
        <time>2016-05-06T07:25:07Z</time>
      </trkpt>
      <trkpt lat="50.67827" lon="2.85539">
        <ele>20.2</ele>
        <time>2016-05-06T07:25:09Z</time>
      </trkpt>
      <trkpt lat="50.67823" lon="2.85516">
        <ele>20.3</ele>
        <time>2016-05-06T07:25:11Z</time>
      </trkpt>
      <trkpt lat="50.6782" lon="2.85492">
        <ele>20.3</ele>
        <time>2016-05-06T07:25:13Z</time>
      </trkpt>
      <trkpt lat="50.67818" lon="2.85468">
        <ele>20.3</ele>
        <time>2016-05-06T07:25:15Z</time>
      </trkpt>
      <trkpt lat="50.6782" lon="2.85444">
        <ele>20.2</ele>
        <time>2016-05-06T07:25:17Z</time>
      </trkpt>
      <trkpt lat="50.67821" lon="2.85419">
        <ele>20.2</ele>
        <time>2016-05-06T07:25:19Z</time>
      </trkpt>
      <trkpt lat="50.67823" lon="2.85394">
        <ele>20.2</ele>
        <time>2016-05-06T07:25:21Z</time>
      </trkpt>
      <trkpt lat="50.67826" lon="2.85369">
        <ele>20.2</ele>
        <time>2016-05-06T07:25:23Z</time>
      </trkpt>
      <trkpt lat="50.67829" lon="2.85344">
        <ele>20.2</ele>
        <time>2016-05-06T07:25:25Z</time>
      </trkpt>
      <trkpt lat="50.67832" lon="2.85318">
        <ele>20.2</ele>
        <time>2016-05-06T07:25:27Z</time>
      </trkpt>
      <trkpt lat="50.67834" lon="2.85292">
        <ele>20.2</ele>
        <time>2016-05-06T07:25:29Z</time>
      </trkpt>
      <trkpt lat="50.67837" lon="2.85266">
        <ele>20.1</ele>
        <time>2016-05-06T07:25:31Z</time>
      </trkpt>
      <trkpt lat="50.6784" lon="2.8524">
        <ele>20.1</ele>
        <time>2016-05-06T07:25:33Z</time>
      </trkpt>
      <trkpt lat="50.67843" lon="2.85214">
        <ele>20.1</ele>
        <time>2016-05-06T07:25:35Z</time>
      </trkpt>
      <trkpt lat="50.67846" lon="2.85189">
        <ele>20.1</ele>
        <time>2016-05-06T07:25:37Z</time>
      </trkpt>
      <trkpt lat="50.67849" lon="2.85164">
        <ele>20</ele>
        <time>2016-05-06T07:25:39Z</time>
      </trkpt>
      <trkpt lat="50.67851" lon="2.85139">
        <ele>20</ele>
        <time>2016-05-06T07:25:41Z</time>
      </trkpt>
      <trkpt lat="50.67854" lon="2.85114">
        <ele>20</ele>
        <time>2016-05-06T07:25:43Z</time>
      </trkpt>
      <trkpt lat="50.67857" lon="2.85089">
        <ele>19.9</ele>
        <time>2016-05-06T07:25:45Z</time>
      </trkpt>
      <trkpt lat="50.67859" lon="2.85064">
        <ele>19.7</ele>
        <time>2016-05-06T07:25:47Z</time>
      </trkpt>
      <trkpt lat="50.67861" lon="2.8504">
        <ele>19.6</ele>
        <time>2016-05-06T07:25:49Z</time>
      </trkpt>
      <trkpt lat="50.67863" lon="2.85015">
        <ele>19.6</ele>
        <time>2016-05-06T07:25:51Z</time>
      </trkpt>
      <trkpt lat="50.67864" lon="2.84993">
        <ele>19.5</ele>
        <time>2016-05-06T07:25:53Z</time>
      </trkpt>
      <trkpt lat="50.67865" lon="2.8497">
        <ele>19.4</ele>
        <time>2016-05-06T07:25:55Z</time>
      </trkpt>
      <trkpt lat="50.67865" lon="2.84948">
        <ele>19.4</ele>
        <time>2016-05-06T07:25:57Z</time>
      </trkpt>
      <trkpt lat="50.67863" lon="2.84926">
        <ele>19.3</ele>
        <time>2016-05-06T07:25:59Z</time>
      </trkpt>
      <trkpt lat="50.6786" lon="2.84904">
        <ele>19.3</ele>
        <time>2016-05-06T07:26:01Z</time>
      </trkpt>
      <trkpt lat="50.67858" lon="2.84881">
        <ele>19.3</ele>
        <time>2016-05-06T07:26:03Z</time>
      </trkpt>
      <trkpt lat="50.67855" lon="2.84859">
        <ele>19.3</ele>
        <time>2016-05-06T07:26:05Z</time>
      </trkpt>
      <trkpt lat="50.67852" lon="2.84837">
        <ele>19.3</ele>
        <time>2016-05-06T07:26:07Z</time>
      </trkpt>
      <trkpt lat="50.67849" lon="2.84814">
        <ele>19.3</ele>
        <time>2016-05-06T07:26:09Z</time>
      </trkpt>
      <trkpt lat="50.67845" lon="2.84793">
        <ele>19.3</ele>
        <time>2016-05-06T07:26:11Z</time>
      </trkpt>
      <trkpt lat="50.67841" lon="2.8477">
        <ele>19.4</ele>
        <time>2016-05-06T07:26:13Z</time>
      </trkpt>
      <trkpt lat="50.67837" lon="2.84749">
        <ele>19.4</ele>
        <time>2016-05-06T07:26:15Z</time>
      </trkpt>
      <trkpt lat="50.67834" lon="2.84727">
        <ele>19.5</ele>
        <time>2016-05-06T07:26:17Z</time>
      </trkpt>
      <trkpt lat="50.67831" lon="2.84704">
        <ele>19.6</ele>
        <time>2016-05-06T07:26:19Z</time>
      </trkpt>
      <trkpt lat="50.67828" lon="2.84682">
        <ele>19.6</ele>
        <time>2016-05-06T07:26:21Z</time>
      </trkpt>
      <trkpt lat="50.67823" lon="2.8466">
        <ele>19.7</ele>
        <time>2016-05-06T07:26:23Z</time>
      </trkpt>
      <trkpt lat="50.67818" lon="2.84638">
        <ele>19.8</ele>
        <time>2016-05-06T07:26:25Z</time>
      </trkpt>
      <trkpt lat="50.67811" lon="2.84618">
        <ele>19.8</ele>
        <time>2016-05-06T07:26:27Z</time>
      </trkpt>
      <trkpt lat="50.67804" lon="2.84597">
        <ele>19.9</ele>
        <time>2016-05-06T07:26:29Z</time>
      </trkpt>
      <trkpt lat="50.67797" lon="2.84577">
        <ele>20</ele>
        <time>2016-05-06T07:26:31Z</time>
      </trkpt>
      <trkpt lat="50.6779" lon="2.84557">
        <ele>20.1</ele>
        <time>2016-05-06T07:26:33Z</time>
      </trkpt>
      <trkpt lat="50.67783" lon="2.84535">
        <ele>20.1</ele>
        <time>2016-05-06T07:26:35Z</time>
      </trkpt>
      <trkpt lat="50.67775" lon="2.84515">
        <ele>20.2</ele>
        <time>2016-05-06T07:26:37Z</time>
      </trkpt>
      <trkpt lat="50.67768" lon="2.84495">
        <ele>20.3</ele>
        <time>2016-05-06T07:26:39Z</time>
      </trkpt>
      <trkpt lat="50.67761" lon="2.84474">
        <ele>20.3</ele>
        <time>2016-05-06T07:26:41Z</time>
      </trkpt>
      <trkpt lat="50.67754" lon="2.84454">
        <ele>20.4</ele>
        <time>2016-05-06T07:26:43Z</time>
      </trkpt>
      <trkpt lat="50.67749" lon="2.84433">
        <ele>20.4</ele>
        <time>2016-05-06T07:26:45Z</time>
      </trkpt>
      <trkpt lat="50.67744" lon="2.84411">
        <ele>20.4</ele>
        <time>2016-05-06T07:26:47Z</time>
      </trkpt>
      <trkpt lat="50.67736" lon="2.84391">
        <ele>20.4</ele>
        <time>2016-05-06T07:26:49Z</time>
      </trkpt>
      <trkpt lat="50.67729" lon="2.8437">
        <ele>20.4</ele>
        <time>2016-05-06T07:26:51Z</time>
      </trkpt>
      <trkpt lat="50.67723" lon="2.84348">
        <ele>20.4</ele>
        <time>2016-05-06T07:26:53Z</time>
      </trkpt>
      <trkpt lat="50.67718" lon="2.84326">
        <ele>20.4</ele>
        <time>2016-05-06T07:26:55Z</time>
      </trkpt>
      <trkpt lat="50.67712" lon="2.84303">
        <ele>20.4</ele>
        <time>2016-05-06T07:26:57Z</time>
      </trkpt>
      <trkpt lat="50.67705" lon="2.84282">
        <ele>20.3</ele>
        <time>2016-05-06T07:26:59Z</time>
      </trkpt>
      <trkpt lat="50.67698" lon="2.84259">
        <ele>20.2</ele>
        <time>2016-05-06T07:27:01Z</time>
      </trkpt>
      <trkpt lat="50.67692" lon="2.84236">
        <ele>20.1</ele>
        <time>2016-05-06T07:27:03Z</time>
      </trkpt>
      <trkpt lat="50.67686" lon="2.84212">
        <ele>20.1</ele>
        <time>2016-05-06T07:27:05Z</time>
      </trkpt>
      <trkpt lat="50.67681" lon="2.84188">
        <ele>20</ele>
        <time>2016-05-06T07:27:07Z</time>
      </trkpt>
      <trkpt lat="50.67675" lon="2.84165">
        <ele>19.9</ele>
        <time>2016-05-06T07:27:09Z</time>
      </trkpt>
      <trkpt lat="50.67669" lon="2.84144">
        <ele>19.9</ele>
        <time>2016-05-06T07:27:11Z</time>
      </trkpt>
      <trkpt lat="50.67664" lon="2.84121">
        <ele>19.9</ele>
        <time>2016-05-06T07:27:13Z</time>
      </trkpt>
      <trkpt lat="50.67657" lon="2.841">
        <ele>19.8</ele>
        <time>2016-05-06T07:27:15Z</time>
      </trkpt>
      <trkpt lat="50.67651" lon="2.84081">
        <ele>19.8</ele>
        <time>2016-05-06T07:27:17Z</time>
      </trkpt>
      <trkpt lat="50.67647" lon="2.84059">
        <ele>19.8</ele>
        <time>2016-05-06T07:27:19Z</time>
      </trkpt>
      <trkpt lat="50.67642" lon="2.84036">
        <ele>19.8</ele>
        <time>2016-05-06T07:27:21Z</time>
      </trkpt>
      <trkpt lat="50.67638" lon="2.84014">
        <ele>19.7</ele>
        <time>2016-05-06T07:27:23Z</time>
      </trkpt>
      <trkpt lat="50.67634" lon="2.83991">
        <ele>19.7</ele>
        <time>2016-05-06T07:27:25Z</time>
      </trkpt>
      <trkpt lat="50.6763" lon="2.83968">
        <ele>19.7</ele>
        <time>2016-05-06T07:27:27Z</time>
      </trkpt>
      <trkpt lat="50.67626" lon="2.83945">
        <ele>19.7</ele>
        <time>2016-05-06T07:27:29Z</time>
      </trkpt>
      <trkpt lat="50.67623" lon="2.83922">
        <ele>19.7</ele>
        <time>2016-05-06T07:27:31Z</time>
      </trkpt>
      <trkpt lat="50.6762" lon="2.83899">
        <ele>19.7</ele>
        <time>2016-05-06T07:27:33Z</time>
      </trkpt>
      <trkpt lat="50.67617" lon="2.83876">
        <ele>19.7</ele>
        <time>2016-05-06T07:27:35Z</time>
      </trkpt>
      <trkpt lat="50.67614" lon="2.83852">
        <ele>19.6</ele>
        <time>2016-05-06T07:27:37Z</time>
      </trkpt>
      <trkpt lat="50.67611" lon="2.83828">
        <ele>19.6</ele>
        <time>2016-05-06T07:27:39Z</time>
      </trkpt>
      <trkpt lat="50.67608" lon="2.83804">
        <ele>19.6</ele>
        <time>2016-05-06T07:27:41Z</time>
      </trkpt>
      <trkpt lat="50.67603" lon="2.83782">
        <ele>19.6</ele>
        <time>2016-05-06T07:27:43Z</time>
      </trkpt>
      <trkpt lat="50.67598" lon="2.83759">
        <ele>19.6</ele>
        <time>2016-05-06T07:27:45Z</time>
      </trkpt>
      <trkpt lat="50.67594" lon="2.83735">
        <ele>19.6</ele>
        <time>2016-05-06T07:27:47Z</time>
      </trkpt>
      <trkpt lat="50.67588" lon="2.83712">
        <ele>19.6</ele>
        <time>2016-05-06T07:27:49Z</time>
      </trkpt>
      <trkpt lat="50.67582" lon="2.83688">
        <ele>19.6</ele>
        <time>2016-05-06T07:27:51Z</time>
      </trkpt>
      <trkpt lat="50.67576" lon="2.83664">
        <ele>19.6</ele>
        <time>2016-05-06T07:27:53Z</time>
      </trkpt>
      <trkpt lat="50.6757" lon="2.8364">
        <ele>19.6</ele>
        <time>2016-05-06T07:27:55Z</time>
      </trkpt>
      <trkpt lat="50.67565" lon="2.83615">
        <ele>19.5</ele>
        <time>2016-05-06T07:27:57Z</time>
      </trkpt>
      <trkpt lat="50.6756" lon="2.8359">
        <ele>19.5</ele>
        <time>2016-05-06T07:27:59Z</time>
      </trkpt>
      <trkpt lat="50.67556" lon="2.83566">
        <ele>19.4</ele>
        <time>2016-05-06T07:28:01Z</time>
      </trkpt>
      <trkpt lat="50.67551" lon="2.83543">
        <ele>19.4</ele>
        <time>2016-05-06T07:28:03Z</time>
      </trkpt>
      <trkpt lat="50.67545" lon="2.83521">
        <ele>19.4</ele>
        <time>2016-05-06T07:28:05Z</time>
      </trkpt>
      <trkpt lat="50.67539" lon="2.83499">
        <ele>19.3</ele>
        <time>2016-05-06T07:28:07Z</time>
      </trkpt>
      <trkpt lat="50.67533" lon="2.83478">
        <ele>19.3</ele>
        <time>2016-05-06T07:28:09Z</time>
      </trkpt>
      <trkpt lat="50.6753" lon="2.83457">
        <ele>19.3</ele>
        <time>2016-05-06T07:28:11Z</time>
      </trkpt>
      <trkpt lat="50.67528" lon="2.83441">
        <ele>19.2</ele>
        <time>2016-05-06T07:28:13Z</time>
      </trkpt>
      <trkpt lat="50.67529" lon="2.83427">
        <ele>19.2</ele>
        <time>2016-05-06T07:28:16Z</time>
      </trkpt>
      <trkpt lat="50.67532" lon="2.83413">
        <ele>19.1</ele>
        <time>2016-05-06T07:28:24Z</time>
      </trkpt>
      <trkpt lat="50.67541" lon="2.83401">
        <ele>19.1</ele>
        <time>2016-05-06T07:28:27Z</time>
      </trkpt>
      <trkpt lat="50.67547" lon="2.83389">
        <ele>19.1</ele>
        <time>2016-05-06T07:28:29Z</time>
      </trkpt>
      <trkpt lat="50.6755" lon="2.83373">
        <ele>19.1</ele>
        <time>2016-05-06T07:28:31Z</time>
      </trkpt>
      <trkpt lat="50.67547" lon="2.83357">
        <ele>19.1</ele>
        <time>2016-05-06T07:28:33Z</time>
      </trkpt>
      <trkpt lat="50.67538" lon="2.83344">
        <ele>19.1</ele>
        <time>2016-05-06T07:28:35Z</time>
      </trkpt>
      <trkpt lat="50.67526" lon="2.83337">
        <ele>19.1</ele>
        <time>2016-05-06T07:28:37Z</time>
      </trkpt>
      <trkpt lat="50.67513" lon="2.83333">
        <ele>19.2</ele>
        <time>2016-05-06T07:28:39Z</time>
      </trkpt>
      <trkpt lat="50.67501" lon="2.83324">
        <ele>19.2</ele>
        <time>2016-05-06T07:28:41Z</time>
      </trkpt>
      <trkpt lat="50.6749" lon="2.83311">
        <ele>19.2</ele>
        <time>2016-05-06T07:28:43Z</time>
      </trkpt>
      <trkpt lat="50.67481" lon="2.83296">
        <ele>19.2</ele>
        <time>2016-05-06T07:28:45Z</time>
      </trkpt>
      <trkpt lat="50.67474" lon="2.83279">
        <ele>19.2</ele>
        <time>2016-05-06T07:28:47Z</time>
      </trkpt>
      <trkpt lat="50.67467" lon="2.83261">
        <ele>19.2</ele>
        <time>2016-05-06T07:28:49Z</time>
      </trkpt>
      <trkpt lat="50.67461" lon="2.83242">
        <ele>19.1</ele>
        <time>2016-05-06T07:28:51Z</time>
      </trkpt>
      <trkpt lat="50.67455" lon="2.83223">
        <ele>19.1</ele>
        <time>2016-05-06T07:28:53Z</time>
      </trkpt>
      <trkpt lat="50.67449" lon="2.83205">
        <ele>19.2</ele>
        <time>2016-05-06T07:28:55Z</time>
      </trkpt>
      <trkpt lat="50.67444" lon="2.83184">
        <ele>19.2</ele>
        <time>2016-05-06T07:28:57Z</time>
      </trkpt>
      <trkpt lat="50.67438" lon="2.83165">
        <ele>19.2</ele>
        <time>2016-05-06T07:28:59Z</time>
      </trkpt>
      <trkpt lat="50.67431" lon="2.83144">
        <ele>19.3</ele>
        <time>2016-05-06T07:29:01Z</time>
      </trkpt>
      <trkpt lat="50.67425" lon="2.83124">
        <ele>19.4</ele>
        <time>2016-05-06T07:29:03Z</time>
      </trkpt>
      <trkpt lat="50.67419" lon="2.83104">
        <ele>19.5</ele>
        <time>2016-05-06T07:29:05Z</time>
      </trkpt>
      <trkpt lat="50.67413" lon="2.83084">
        <ele>19.6</ele>
        <time>2016-05-06T07:29:07Z</time>
      </trkpt>
      <trkpt lat="50.67406" lon="2.83064">
        <ele>19.7</ele>
        <time>2016-05-06T07:29:09Z</time>
      </trkpt>
      <trkpt lat="50.674" lon="2.83044">
        <ele>19.8</ele>
        <time>2016-05-06T07:29:11Z</time>
      </trkpt>
      <trkpt lat="50.67394" lon="2.83024">
        <ele>19.8</ele>
        <time>2016-05-06T07:29:13Z</time>
      </trkpt>
      <trkpt lat="50.67388" lon="2.83003">
        <ele>19.9</ele>
        <time>2016-05-06T07:29:15Z</time>
      </trkpt>
      <trkpt lat="50.67383" lon="2.82983">
        <ele>20</ele>
        <time>2016-05-06T07:29:17Z</time>
      </trkpt>
      <trkpt lat="50.67376" lon="2.82961">
        <ele>20</ele>
        <time>2016-05-06T07:29:19Z</time>
      </trkpt>
      <trkpt lat="50.67371" lon="2.82942">
        <ele>20</ele>
        <time>2016-05-06T07:29:21Z</time>
      </trkpt>
      <trkpt lat="50.67366" lon="2.82921">
        <ele>20</ele>
        <time>2016-05-06T07:29:23Z</time>
      </trkpt>
      <trkpt lat="50.67361" lon="2.82899">
        <ele>20</ele>
        <time>2016-05-06T07:29:25Z</time>
      </trkpt>
      <trkpt lat="50.67355" lon="2.82877">
        <ele>20</ele>
        <time>2016-05-06T07:29:27Z</time>
      </trkpt>
      <trkpt lat="50.67349" lon="2.82857">
        <ele>20</ele>
        <time>2016-05-06T07:29:29Z</time>
      </trkpt>
      <trkpt lat="50.67342" lon="2.82835">
        <ele>19.9</ele>
        <time>2016-05-06T07:29:31Z</time>
      </trkpt>
      <trkpt lat="50.67335" lon="2.82814">
        <ele>19.9</ele>
        <time>2016-05-06T07:29:33Z</time>
      </trkpt>
      <trkpt lat="50.67327" lon="2.82791">
        <ele>19.9</ele>
        <time>2016-05-06T07:29:35Z</time>
      </trkpt>
      <trkpt lat="50.67322" lon="2.82771">
        <ele>19.8</ele>
        <time>2016-05-06T07:29:37Z</time>
      </trkpt>
      <trkpt lat="50.67315" lon="2.82749">
        <ele>19.8</ele>
        <time>2016-05-06T07:29:39Z</time>
      </trkpt>
      <trkpt lat="50.67308" lon="2.82727">
        <ele>19.8</ele>
        <time>2016-05-06T07:29:41Z</time>
      </trkpt>
      <trkpt lat="50.67301" lon="2.82704">
        <ele>19.8</ele>
        <time>2016-05-06T07:29:43Z</time>
      </trkpt>
      <trkpt lat="50.67294" lon="2.82681">
        <ele>19.8</ele>
        <time>2016-05-06T07:29:45Z</time>
      </trkpt>
      <trkpt lat="50.67287" lon="2.82659">
        <ele>19.8</ele>
        <time>2016-05-06T07:29:47Z</time>
      </trkpt>
      <trkpt lat="50.67279" lon="2.82636">
        <ele>19.8</ele>
        <time>2016-05-06T07:29:49Z</time>
      </trkpt>
      <trkpt lat="50.67272" lon="2.82613">
        <ele>19.8</ele>
        <time>2016-05-06T07:29:51Z</time>
      </trkpt>
      <trkpt lat="50.67266" lon="2.82592">
        <ele>19.9</ele>
        <time>2016-05-06T07:29:53Z</time>
      </trkpt>
      <trkpt lat="50.67259" lon="2.8257">
        <ele>19.9</ele>
        <time>2016-05-06T07:29:55Z</time>
      </trkpt>
      <trkpt lat="50.67251" lon="2.82548">
        <ele>19.9</ele>
        <time>2016-05-06T07:29:57Z</time>
      </trkpt>
      <trkpt lat="50.67245" lon="2.82526">
        <ele>20</ele>
        <time>2016-05-06T07:29:59Z</time>
      </trkpt>
      <trkpt lat="50.67238" lon="2.82504">
        <ele>19.9</ele>
        <time>2016-05-06T07:30:01Z</time>
      </trkpt>
      <trkpt lat="50.67231" lon="2.82482">
        <ele>19.9</ele>
        <time>2016-05-06T07:30:03Z</time>
      </trkpt>
      <trkpt lat="50.67224" lon="2.82459">
        <ele>19.9</ele>
        <time>2016-05-06T07:30:05Z</time>
      </trkpt>
      <trkpt lat="50.67217" lon="2.82437">
        <ele>19.9</ele>
        <time>2016-05-06T07:30:07Z</time>
      </trkpt>
      <trkpt lat="50.67211" lon="2.82413">
        <ele>19.9</ele>
        <time>2016-05-06T07:30:09Z</time>
      </trkpt>
      <trkpt lat="50.67206" lon="2.82388">
        <ele>19.8</ele>
        <time>2016-05-06T07:30:11Z</time>
      </trkpt>
      <trkpt lat="50.672" lon="2.82364">
        <ele>19.7</ele>
        <time>2016-05-06T07:30:13Z</time>
      </trkpt>
      <trkpt lat="50.67194" lon="2.82342">
        <ele>19.6</ele>
        <time>2016-05-06T07:30:15Z</time>
      </trkpt>
      <trkpt lat="50.67189" lon="2.82318">
        <ele>19.6</ele>
        <time>2016-05-06T07:30:17Z</time>
      </trkpt>
      <trkpt lat="50.67183" lon="2.82295">
        <ele>19.6</ele>
        <time>2016-05-06T07:30:19Z</time>
      </trkpt>
      <trkpt lat="50.67178" lon="2.82272">
        <ele>19.7</ele>
        <time>2016-05-06T07:30:21Z</time>
      </trkpt>
      <trkpt lat="50.67173" lon="2.82247">
        <ele>19.7</ele>
        <time>2016-05-06T07:30:23Z</time>
      </trkpt>
      <trkpt lat="50.67166" lon="2.82226">
        <ele>19.7</ele>
        <time>2016-05-06T07:30:25Z</time>
      </trkpt>
      <trkpt lat="50.6716" lon="2.82203">
        <ele>19.7</ele>
        <time>2016-05-06T07:30:27Z</time>
      </trkpt>
      <trkpt lat="50.67156" lon="2.8218">
        <ele>19.8</ele>
        <time>2016-05-06T07:30:29Z</time>
      </trkpt>
      <trkpt lat="50.6715" lon="2.82157">
        <ele>19.8</ele>
        <time>2016-05-06T07:30:31Z</time>
      </trkpt>
      <trkpt lat="50.67145" lon="2.82135">
        <ele>19.8</ele>
        <time>2016-05-06T07:30:33Z</time>
      </trkpt>
      <trkpt lat="50.67139" lon="2.82112">
        <ele>19.8</ele>
        <time>2016-05-06T07:30:35Z</time>
      </trkpt>
      <trkpt lat="50.67135" lon="2.8209">
        <ele>19.8</ele>
        <time>2016-05-06T07:30:37Z</time>
      </trkpt>
      <trkpt lat="50.6713" lon="2.82066">
        <ele>19.8</ele>
        <time>2016-05-06T07:30:39Z</time>
      </trkpt>
      <trkpt lat="50.67125" lon="2.82041">
        <ele>19.8</ele>
        <time>2016-05-06T07:30:41Z</time>
      </trkpt>
      <trkpt lat="50.6712" lon="2.82018">
        <ele>19.8</ele>
        <time>2016-05-06T07:30:43Z</time>
      </trkpt>
      <trkpt lat="50.67116" lon="2.81995">
        <ele>19.8</ele>
        <time>2016-05-06T07:30:45Z</time>
      </trkpt>
      <trkpt lat="50.67111" lon="2.81972">
        <ele>19.8</ele>
        <time>2016-05-06T07:30:47Z</time>
      </trkpt>
      <trkpt lat="50.67106" lon="2.81947">
        <ele>19.7</ele>
        <time>2016-05-06T07:30:49Z</time>
      </trkpt>
      <trkpt lat="50.67101" lon="2.81923">
        <ele>19.7</ele>
        <time>2016-05-06T07:30:51Z</time>
      </trkpt>
      <trkpt lat="50.67096" lon="2.81898">
        <ele>19.7</ele>
        <time>2016-05-06T07:30:53Z</time>
      </trkpt>
      <trkpt lat="50.67092" lon="2.81873">
        <ele>19.7</ele>
        <time>2016-05-06T07:30:55Z</time>
      </trkpt>
      <trkpt lat="50.67087" lon="2.81849">
        <ele>19.7</ele>
        <time>2016-05-06T07:30:57Z</time>
      </trkpt>
      <trkpt lat="50.67082" lon="2.81822">
        <ele>19.6</ele>
        <time>2016-05-06T07:30:59Z</time>
      </trkpt>
      <trkpt lat="50.67076" lon="2.81796">
        <ele>19.6</ele>
        <time>2016-05-06T07:31:01Z</time>
      </trkpt>
      <trkpt lat="50.67071" lon="2.81771">
        <ele>19.6</ele>
        <time>2016-05-06T07:31:03Z</time>
      </trkpt>
      <trkpt lat="50.67066" lon="2.81746">
        <ele>19.6</ele>
        <time>2016-05-06T07:31:05Z</time>
      </trkpt>
      <trkpt lat="50.67061" lon="2.8172">
        <ele>19.6</ele>
        <time>2016-05-06T07:31:07Z</time>
      </trkpt>
      <trkpt lat="50.67055" lon="2.81695">
        <ele>19.6</ele>
        <time>2016-05-06T07:31:09Z</time>
      </trkpt>
      <trkpt lat="50.67049" lon="2.81671">
        <ele>19.6</ele>
        <time>2016-05-06T07:31:11Z</time>
      </trkpt>
      <trkpt lat="50.67044" lon="2.81648">
        <ele>19.5</ele>
        <time>2016-05-06T07:31:13Z</time>
      </trkpt>
      <trkpt lat="50.67038" lon="2.81627">
        <ele>19.4</ele>
        <time>2016-05-06T07:31:15Z</time>
      </trkpt>
      <trkpt lat="50.67033" lon="2.81607">
        <ele>19.4</ele>
        <time>2016-05-06T07:31:17Z</time>
      </trkpt>
      <trkpt lat="50.67029" lon="2.81588">
        <ele>19.4</ele>
        <time>2016-05-06T07:31:19Z</time>
      </trkpt>
      <trkpt lat="50.67024" lon="2.81569">
        <ele>19.5</ele>
        <time>2016-05-06T07:31:21Z</time>
      </trkpt>
      <trkpt lat="50.67019" lon="2.81548">
        <ele>19.5</ele>
        <time>2016-05-06T07:31:23Z</time>
      </trkpt>
      <trkpt lat="50.67014" lon="2.81527">
        <ele>19.5</ele>
        <time>2016-05-06T07:31:25Z</time>
      </trkpt>
      <trkpt lat="50.67009" lon="2.81504">
        <ele>19.6</ele>
        <time>2016-05-06T07:31:27Z</time>
      </trkpt>
      <trkpt lat="50.67004" lon="2.81483">
        <ele>19.6</ele>
        <time>2016-05-06T07:31:29Z</time>
      </trkpt>
      <trkpt lat="50.66999" lon="2.81462">
        <ele>19.7</ele>
        <time>2016-05-06T07:31:31Z</time>
      </trkpt>
      <trkpt lat="50.66994" lon="2.8144">
        <ele>19.8</ele>
        <time>2016-05-06T07:31:33Z</time>
      </trkpt>
      <trkpt lat="50.66988" lon="2.81417">
        <ele>19.8</ele>
        <time>2016-05-06T07:31:35Z</time>
      </trkpt>
      <trkpt lat="50.66981" lon="2.81395">
        <ele>19.8</ele>
        <time>2016-05-06T07:31:37Z</time>
      </trkpt>
      <trkpt lat="50.66971" lon="2.81377">
        <ele>19.9</ele>
        <time>2016-05-06T07:31:39Z</time>
      </trkpt>
      <trkpt lat="50.66957" lon="2.81363">
        <ele>20.1</ele>
        <time>2016-05-06T07:31:41Z</time>
      </trkpt>
      <trkpt lat="50.66942" lon="2.8135">
        <ele>20.2</ele>
        <time>2016-05-06T07:31:43Z</time>
      </trkpt>
      <trkpt lat="50.66929" lon="2.81336">
        <ele>20.3</ele>
        <time>2016-05-06T07:31:45Z</time>
      </trkpt>
      <trkpt lat="50.66917" lon="2.8132">
        <ele>20.4</ele>
        <time>2016-05-06T07:31:47Z</time>
      </trkpt>
      <trkpt lat="50.66905" lon="2.81303">
        <ele>20.4</ele>
        <time>2016-05-06T07:31:49Z</time>
      </trkpt>
      <trkpt lat="50.66895" lon="2.81285">
        <ele>20.5</ele>
        <time>2016-05-06T07:31:51Z</time>
      </trkpt>
      <trkpt lat="50.66884" lon="2.81267">
        <ele>20.5</ele>
        <time>2016-05-06T07:31:53Z</time>
      </trkpt>
      <trkpt lat="50.66874" lon="2.81249">
        <ele>20.5</ele>
        <time>2016-05-06T07:31:55Z</time>
      </trkpt>
      <trkpt lat="50.66863" lon="2.8123">
        <ele>20.6</ele>
        <time>2016-05-06T07:31:57Z</time>
      </trkpt>
      <trkpt lat="50.66853" lon="2.81212">
        <ele>20.6</ele>
        <time>2016-05-06T07:31:59Z</time>
      </trkpt>
      <trkpt lat="50.66842" lon="2.81194">
        <ele>20.6</ele>
        <time>2016-05-06T07:32:01Z</time>
      </trkpt>
      <trkpt lat="50.66833" lon="2.81175">
        <ele>20.6</ele>
        <time>2016-05-06T07:32:03Z</time>
      </trkpt>
      <trkpt lat="50.66825" lon="2.81155">
        <ele>20.6</ele>
        <time>2016-05-06T07:32:05Z</time>
      </trkpt>
      <trkpt lat="50.66819" lon="2.81133">
        <ele>20.7</ele>
        <time>2016-05-06T07:32:07Z</time>
      </trkpt>
      <trkpt lat="50.66813" lon="2.8111">
        <ele>20.7</ele>
        <time>2016-05-06T07:32:09Z</time>
      </trkpt>
      <trkpt lat="50.66806" lon="2.81089">
        <ele>20.6</ele>
        <time>2016-05-06T07:32:11Z</time>
      </trkpt>
      <trkpt lat="50.66797" lon="2.8107">
        <ele>20.6</ele>
        <time>2016-05-06T07:32:13Z</time>
      </trkpt>
      <trkpt lat="50.66786" lon="2.81055">
        <ele>20.6</ele>
        <time>2016-05-06T07:32:15Z</time>
      </trkpt>
      <trkpt lat="50.66776" lon="2.8104">
        <ele>20.5</ele>
        <time>2016-05-06T07:32:17Z</time>
      </trkpt>
      <trkpt lat="50.66764" lon="2.81025">
        <ele>20.5</ele>
        <time>2016-05-06T07:32:19Z</time>
      </trkpt>
      <trkpt lat="50.66752" lon="2.81011">
        <ele>20.5</ele>
        <time>2016-05-06T07:32:21Z</time>
      </trkpt>
      <trkpt lat="50.6674" lon="2.80998">
        <ele>20.5</ele>
        <time>2016-05-06T07:32:23Z</time>
      </trkpt>
      <trkpt lat="50.66728" lon="2.80985">
        <ele>20.5</ele>
        <time>2016-05-06T07:32:25Z</time>
      </trkpt>
      <trkpt lat="50.66715" lon="2.80973">
        <ele>20.4</ele>
        <time>2016-05-06T07:32:27Z</time>
      </trkpt>
      <trkpt lat="50.66703" lon="2.80962">
        <ele>20.4</ele>
        <time>2016-05-06T07:32:29Z</time>
      </trkpt>
      <trkpt lat="50.66691" lon="2.80948">
        <ele>20.4</ele>
        <time>2016-05-06T07:32:31Z</time>
      </trkpt>
      <trkpt lat="50.66679" lon="2.80934">
        <ele>20.5</ele>
        <time>2016-05-06T07:32:33Z</time>
      </trkpt>
      <trkpt lat="50.66666" lon="2.80919">
        <ele>20.5</ele>
        <time>2016-05-06T07:32:35Z</time>
      </trkpt>
      <trkpt lat="50.66653" lon="2.80905">
        <ele>20.5</ele>
        <time>2016-05-06T07:32:37Z</time>
      </trkpt>
      <trkpt lat="50.6664" lon="2.80891">
        <ele>20.5</ele>
        <time>2016-05-06T07:32:39Z</time>
      </trkpt>
      <trkpt lat="50.66627" lon="2.80877">
        <ele>20.5</ele>
        <time>2016-05-06T07:32:41Z</time>
      </trkpt>
      <trkpt lat="50.66615" lon="2.80862">
        <ele>20.6</ele>
        <time>2016-05-06T07:32:43Z</time>
      </trkpt>
      <trkpt lat="50.66603" lon="2.80848">
        <ele>20.6</ele>
        <time>2016-05-06T07:32:45Z</time>
      </trkpt>
      <trkpt lat="50.6659" lon="2.80833">
        <ele>20.6</ele>
        <time>2016-05-06T07:32:47Z</time>
      </trkpt>
      <trkpt lat="50.66579" lon="2.80819">
        <ele>20.6</ele>
        <time>2016-05-06T07:32:49Z</time>
      </trkpt>
      <trkpt lat="50.66566" lon="2.80805">
        <ele>20.6</ele>
        <time>2016-05-06T07:32:51Z</time>
      </trkpt>
      <trkpt lat="50.66554" lon="2.8079">
        <ele>20.6</ele>
        <time>2016-05-06T07:32:53Z</time>
      </trkpt>
      <trkpt lat="50.66542" lon="2.80777">
        <ele>20.6</ele>
        <time>2016-05-06T07:32:55Z</time>
      </trkpt>
      <trkpt lat="50.66529" lon="2.80763">
        <ele>20.6</ele>
        <time>2016-05-06T07:32:57Z</time>
      </trkpt>
      <trkpt lat="50.66517" lon="2.8075">
        <ele>20.6</ele>
        <time>2016-05-06T07:32:59Z</time>
      </trkpt>
      <trkpt lat="50.66505" lon="2.80736">
        <ele>20.7</ele>
        <time>2016-05-06T07:33:01Z</time>
      </trkpt>
      <trkpt lat="50.66493" lon="2.80722">
        <ele>20.7</ele>
        <time>2016-05-06T07:33:03Z</time>
      </trkpt>
      <trkpt lat="50.66481" lon="2.80708">
        <ele>20.7</ele>
        <time>2016-05-06T07:33:05Z</time>
      </trkpt>
      <trkpt lat="50.66469" lon="2.80694">
        <ele>20.7</ele>
        <time>2016-05-06T07:33:07Z</time>
      </trkpt>
      <trkpt lat="50.66457" lon="2.8068">
        <ele>20.7</ele>
        <time>2016-05-06T07:33:09Z</time>
      </trkpt>
      <trkpt lat="50.66445" lon="2.80666">
        <ele>20.7</ele>
        <time>2016-05-06T07:33:11Z</time>
      </trkpt>
      <trkpt lat="50.66433" lon="2.8065">
        <ele>20.8</ele>
        <time>2016-05-06T07:33:13Z</time>
      </trkpt>
      <trkpt lat="50.66422" lon="2.80635">
        <ele>20.8</ele>
        <time>2016-05-06T07:33:15Z</time>
      </trkpt>
      <trkpt lat="50.6641" lon="2.80618">
        <ele>20.8</ele>
        <time>2016-05-06T07:33:17Z</time>
      </trkpt>
      <trkpt lat="50.66398" lon="2.80602">
        <ele>20.9</ele>
        <time>2016-05-06T07:33:19Z</time>
      </trkpt>
      <trkpt lat="50.66387" lon="2.80585">
        <ele>20.9</ele>
        <time>2016-05-06T07:33:21Z</time>
      </trkpt>
      <trkpt lat="50.66376" lon="2.80568">
        <ele>20.9</ele>
        <time>2016-05-06T07:33:23Z</time>
      </trkpt>
      <trkpt lat="50.66367" lon="2.8055">
        <ele>20.9</ele>
        <time>2016-05-06T07:33:25Z</time>
      </trkpt>
      <trkpt lat="50.66358" lon="2.8053">
        <ele>21</ele>
        <time>2016-05-06T07:33:27Z</time>
      </trkpt>
      <trkpt lat="50.66349" lon="2.8051">
        <ele>21</ele>
        <time>2016-05-06T07:33:29Z</time>
      </trkpt>
      <trkpt lat="50.66341" lon="2.80491">
        <ele>21</ele>
        <time>2016-05-06T07:33:31Z</time>
      </trkpt>
      <trkpt lat="50.66331" lon="2.8047">
        <ele>21</ele>
        <time>2016-05-06T07:33:33Z</time>
      </trkpt>
      <trkpt lat="50.66322" lon="2.8045">
        <ele>21</ele>
        <time>2016-05-06T07:33:35Z</time>
      </trkpt>
      <trkpt lat="50.66314" lon="2.8043">
        <ele>21</ele>
        <time>2016-05-06T07:33:37Z</time>
      </trkpt>
      <trkpt lat="50.66305" lon="2.80411">
        <ele>21</ele>
        <time>2016-05-06T07:33:39Z</time>
      </trkpt>
      <trkpt lat="50.66296" lon="2.80392">
        <ele>21</ele>
        <time>2016-05-06T07:33:41Z</time>
      </trkpt>
      <trkpt lat="50.66288" lon="2.80372">
        <ele>21</ele>
        <time>2016-05-06T07:33:43Z</time>
      </trkpt>
      <trkpt lat="50.66279" lon="2.80353">
        <ele>21</ele>
        <time>2016-05-06T07:33:45Z</time>
      </trkpt>
      <trkpt lat="50.6627" lon="2.80333">
        <ele>21</ele>
        <time>2016-05-06T07:33:47Z</time>
      </trkpt>
      <trkpt lat="50.66261" lon="2.80314">
        <ele>21.1</ele>
        <time>2016-05-06T07:33:49Z</time>
      </trkpt>
      <trkpt lat="50.66252" lon="2.80293">
        <ele>21</ele>
        <time>2016-05-06T07:33:51Z</time>
      </trkpt>
      <trkpt lat="50.66244" lon="2.80272">
        <ele>21</ele>
        <time>2016-05-06T07:33:53Z</time>
      </trkpt>
      <trkpt lat="50.66236" lon="2.80252">
        <ele>21</ele>
        <time>2016-05-06T07:33:55Z</time>
      </trkpt>
      <trkpt lat="50.6623" lon="2.80232">
        <ele>21</ele>
        <time>2016-05-06T07:33:57Z</time>
      </trkpt>
      <trkpt lat="50.66227" lon="2.80209">
        <ele>21</ele>
        <time>2016-05-06T07:33:59Z</time>
      </trkpt>
      <trkpt lat="50.66225" lon="2.80186">
        <ele>21</ele>
        <time>2016-05-06T07:34:01Z</time>
      </trkpt>
      <trkpt lat="50.66224" lon="2.80164">
        <ele>21</ele>
        <time>2016-05-06T07:34:03Z</time>
      </trkpt>
      <trkpt lat="50.66221" lon="2.80143">
        <ele>21</ele>
        <time>2016-05-06T07:34:05Z</time>
      </trkpt>
      <trkpt lat="50.66218" lon="2.80122">
        <ele>21</ele>
        <time>2016-05-06T07:34:07Z</time>
      </trkpt>
      <trkpt lat="50.66214" lon="2.80099">
        <ele>21</ele>
        <time>2016-05-06T07:34:09Z</time>
      </trkpt>
      <trkpt lat="50.6621" lon="2.80077">
        <ele>21</ele>
        <time>2016-05-06T07:34:11Z</time>
      </trkpt>
      <trkpt lat="50.66206" lon="2.80054">
        <ele>20.9</ele>
        <time>2016-05-06T07:34:13Z</time>
      </trkpt>
      <trkpt lat="50.66203" lon="2.80032">
        <ele>20.9</ele>
        <time>2016-05-06T07:34:15Z</time>
      </trkpt>
      <trkpt lat="50.66199" lon="2.80009">
        <ele>20.8</ele>
        <time>2016-05-06T07:34:17Z</time>
      </trkpt>
      <trkpt lat="50.66194" lon="2.79987">
        <ele>20.8</ele>
        <time>2016-05-06T07:34:19Z</time>
      </trkpt>
      <trkpt lat="50.6619" lon="2.79965">
        <ele>20.7</ele>
        <time>2016-05-06T07:34:21Z</time>
      </trkpt>
      <trkpt lat="50.66187" lon="2.79944">
        <ele>20.7</ele>
        <time>2016-05-06T07:34:23Z</time>
      </trkpt>
      <trkpt lat="50.66183" lon="2.79922">
        <ele>20.6</ele>
        <time>2016-05-06T07:34:25Z</time>
      </trkpt>
      <trkpt lat="50.66179" lon="2.799">
        <ele>20.6</ele>
        <time>2016-05-06T07:34:27Z</time>
      </trkpt>
      <trkpt lat="50.66175" lon="2.79877">
        <ele>20.5</ele>
        <time>2016-05-06T07:34:29Z</time>
      </trkpt>
      <trkpt lat="50.66171" lon="2.79855">
        <ele>20.5</ele>
        <time>2016-05-06T07:34:31Z</time>
      </trkpt>
      <trkpt lat="50.66167" lon="2.79831">
        <ele>20.5</ele>
        <time>2016-05-06T07:34:33Z</time>
      </trkpt>
      <trkpt lat="50.66164" lon="2.79809">
        <ele>20.4</ele>
        <time>2016-05-06T07:34:35Z</time>
      </trkpt>
      <trkpt lat="50.6616" lon="2.79786">
        <ele>20.4</ele>
        <time>2016-05-06T07:34:37Z</time>
      </trkpt>
      <trkpt lat="50.66157" lon="2.79762">
        <ele>20.4</ele>
        <time>2016-05-06T07:34:39Z</time>
      </trkpt>
      <trkpt lat="50.66154" lon="2.79738">
        <ele>20.4</ele>
        <time>2016-05-06T07:34:41Z</time>
      </trkpt>
      <trkpt lat="50.6615" lon="2.79714">
        <ele>20.4</ele>
        <time>2016-05-06T07:34:43Z</time>
      </trkpt>
      <trkpt lat="50.66147" lon="2.79691">
        <ele>20.3</ele>
        <time>2016-05-06T07:34:45Z</time>
      </trkpt>
      <trkpt lat="50.66143" lon="2.79668">
        <ele>20.3</ele>
        <time>2016-05-06T07:34:47Z</time>
      </trkpt>
      <trkpt lat="50.6614" lon="2.79644">
        <ele>20.3</ele>
        <time>2016-05-06T07:34:49Z</time>
      </trkpt>
      <trkpt lat="50.66138" lon="2.7962">
        <ele>20.2</ele>
        <time>2016-05-06T07:34:51Z</time>
      </trkpt>
      <trkpt lat="50.66136" lon="2.79597">
        <ele>20.2</ele>
        <time>2016-05-06T07:34:53Z</time>
      </trkpt>
      <trkpt lat="50.66135" lon="2.79574">
        <ele>20.2</ele>
        <time>2016-05-06T07:34:55Z</time>
      </trkpt>
      <trkpt lat="50.66133" lon="2.7955">
        <ele>20.2</ele>
        <time>2016-05-06T07:34:57Z</time>
      </trkpt>
      <trkpt lat="50.66132" lon="2.79526">
        <ele>20.1</ele>
        <time>2016-05-06T07:34:59Z</time>
      </trkpt>
      <trkpt lat="50.6613" lon="2.79501">
        <ele>19.7</ele>
        <time>2016-05-06T07:35:01Z</time>
      </trkpt>
      <trkpt lat="50.66128" lon="2.79477">
        <ele>19.5</ele>
        <time>2016-05-06T07:35:03Z</time>
      </trkpt>
      <trkpt lat="50.66127" lon="2.79452">
        <ele>19.4</ele>
        <time>2016-05-06T07:35:05Z</time>
      </trkpt>
      <trkpt lat="50.66127" lon="2.79429">
        <ele>19.4</ele>
        <time>2016-05-06T07:35:07Z</time>
      </trkpt>
      <trkpt lat="50.66126" lon="2.79405">
        <ele>19.4</ele>
        <time>2016-05-06T07:35:09Z</time>
      </trkpt>
      <trkpt lat="50.66127" lon="2.79382">
        <ele>19.3</ele>
        <time>2016-05-06T07:35:11Z</time>
      </trkpt>
      <trkpt lat="50.66128" lon="2.79361">
        <ele>19.3</ele>
        <time>2016-05-06T07:35:13Z</time>
      </trkpt>
      <trkpt lat="50.66129" lon="2.79341">
        <ele>19.3</ele>
        <time>2016-05-06T07:35:15Z</time>
      </trkpt>
      <trkpt lat="50.6613" lon="2.79324">
        <ele>19.3</ele>
        <time>2016-05-06T07:35:17Z</time>
      </trkpt>
      <trkpt lat="50.66132" lon="2.79308">
        <ele>19.3</ele>
        <time>2016-05-06T07:35:19Z</time>
      </trkpt>
      <trkpt lat="50.66134" lon="2.79294">
        <ele>19.3</ele>
        <time>2016-05-06T07:35:21Z</time>
      </trkpt>
      <trkpt lat="50.66135" lon="2.79273">
        <ele>19.2</ele>
        <time>2016-05-06T07:35:24Z</time>
      </trkpt>
      <trkpt lat="50.66137" lon="2.79259">
        <ele>19.2</ele>
        <time>2016-05-06T07:35:26Z</time>
      </trkpt>
      <trkpt lat="50.66138" lon="2.79244">
        <ele>19.2</ele>
        <time>2016-05-06T07:35:28Z</time>
      </trkpt>
      <trkpt lat="50.66139" lon="2.79228">
        <ele>19.2</ele>
        <time>2016-05-06T07:35:30Z</time>
      </trkpt>
      <trkpt lat="50.6614" lon="2.79212">
        <ele>19.2</ele>
        <time>2016-05-06T07:35:32Z</time>
      </trkpt>
      <trkpt lat="50.6614" lon="2.79197">
        <ele>19.2</ele>
        <time>2016-05-06T07:35:34Z</time>
      </trkpt>
      <trkpt lat="50.66141" lon="2.79177">
        <ele>19.2</ele>
        <time>2016-05-06T07:35:37Z</time>
      </trkpt>
      <trkpt lat="50.66141" lon="2.79161">
        <ele>19.2</ele>
        <time>2016-05-06T07:35:40Z</time>
      </trkpt>
      <trkpt lat="50.66139" lon="2.79146">
        <ele>19.2</ele>
        <time>2016-05-06T07:35:43Z</time>
      </trkpt>
      <trkpt lat="50.66138" lon="2.79128">
        <ele>19.2</ele>
        <time>2016-05-06T07:35:46Z</time>
      </trkpt>
      <trkpt lat="50.6614" lon="2.79107">
        <ele>19.2</ele>
        <time>2016-05-06T07:35:49Z</time>
      </trkpt>
      <trkpt lat="50.66142" lon="2.79092">
        <ele>19.3</ele>
        <time>2016-05-06T07:35:51Z</time>
      </trkpt>
      <trkpt lat="50.66143" lon="2.79077">
        <ele>19.3</ele>
        <time>2016-05-06T07:35:53Z</time>
      </trkpt>
      <trkpt lat="50.66144" lon="2.79062">
        <ele>19.3</ele>
        <time>2016-05-06T07:35:55Z</time>
      </trkpt>
      <trkpt lat="50.66145" lon="2.79046">
        <ele>19.4</ele>
        <time>2016-05-06T07:35:57Z</time>
      </trkpt>
      <trkpt lat="50.66146" lon="2.79029">
        <ele>19.4</ele>
        <time>2016-05-06T07:35:59Z</time>
      </trkpt>
      <trkpt lat="50.66147" lon="2.79009">
        <ele>19.4</ele>
        <time>2016-05-06T07:36:01Z</time>
      </trkpt>
      <trkpt lat="50.66149" lon="2.78989">
        <ele>19.4</ele>
        <time>2016-05-06T07:36:03Z</time>
      </trkpt>
      <trkpt lat="50.6615" lon="2.78968">
        <ele>19.4</ele>
        <time>2016-05-06T07:36:05Z</time>
      </trkpt>
      <trkpt lat="50.66152" lon="2.78945">
        <ele>19.5</ele>
        <time>2016-05-06T07:36:07Z</time>
      </trkpt>
      <trkpt lat="50.66155" lon="2.78922">
        <ele>19.5</ele>
        <time>2016-05-06T07:36:09Z</time>
      </trkpt>
      <trkpt lat="50.66157" lon="2.78898">
        <ele>19.5</ele>
        <time>2016-05-06T07:36:11Z</time>
      </trkpt>
      <trkpt lat="50.66159" lon="2.78874">
        <ele>19.5</ele>
        <time>2016-05-06T07:36:13Z</time>
      </trkpt>
      <trkpt lat="50.66161" lon="2.78851">
        <ele>19.5</ele>
        <time>2016-05-06T07:36:15Z</time>
      </trkpt>
      <trkpt lat="50.66163" lon="2.78828">
        <ele>19.5</ele>
        <time>2016-05-06T07:36:17Z</time>
      </trkpt>
      <trkpt lat="50.66166" lon="2.78806">
        <ele>19.5</ele>
        <time>2016-05-06T07:36:19Z</time>
      </trkpt>
      <trkpt lat="50.66167" lon="2.78783">
        <ele>19.5</ele>
        <time>2016-05-06T07:36:21Z</time>
      </trkpt>
      <trkpt lat="50.6617" lon="2.78761">
        <ele>19.5</ele>
        <time>2016-05-06T07:36:23Z</time>
      </trkpt>
      <trkpt lat="50.66173" lon="2.78738">
        <ele>19.5</ele>
        <time>2016-05-06T07:36:25Z</time>
      </trkpt>
      <trkpt lat="50.66176" lon="2.78715">
        <ele>19.5</ele>
        <time>2016-05-06T07:36:27Z</time>
      </trkpt>
      <trkpt lat="50.66179" lon="2.78692">
        <ele>19.6</ele>
        <time>2016-05-06T07:36:29Z</time>
      </trkpt>
      <trkpt lat="50.66183" lon="2.78668">
        <ele>19.6</ele>
        <time>2016-05-06T07:36:31Z</time>
      </trkpt>
      <trkpt lat="50.66188" lon="2.78644">
        <ele>19.6</ele>
        <time>2016-05-06T07:36:33Z</time>
      </trkpt>
      <trkpt lat="50.66194" lon="2.78621">
        <ele>19.6</ele>
        <time>2016-05-06T07:36:35Z</time>
      </trkpt>
      <trkpt lat="50.66199" lon="2.78597">
        <ele>19.6</ele>
        <time>2016-05-06T07:36:37Z</time>
      </trkpt>
      <trkpt lat="50.66205" lon="2.78573">
        <ele>19.7</ele>
        <time>2016-05-06T07:36:39Z</time>
      </trkpt>
      <trkpt lat="50.6621" lon="2.7855">
        <ele>19.7</ele>
        <time>2016-05-06T07:36:41Z</time>
      </trkpt>
      <trkpt lat="50.66214" lon="2.78526">
        <ele>19.7</ele>
        <time>2016-05-06T07:36:43Z</time>
      </trkpt>
      <trkpt lat="50.66218" lon="2.78502">
        <ele>19.7</ele>
        <time>2016-05-06T07:36:45Z</time>
      </trkpt>
      <trkpt lat="50.66221" lon="2.78478">
        <ele>19.8</ele>
        <time>2016-05-06T07:36:47Z</time>
      </trkpt>
      <trkpt lat="50.66223" lon="2.78453">
        <ele>19.8</ele>
        <time>2016-05-06T07:36:49Z</time>
      </trkpt>
      <trkpt lat="50.66225" lon="2.78428">
        <ele>19.8</ele>
        <time>2016-05-06T07:36:51Z</time>
      </trkpt>
      <trkpt lat="50.66226" lon="2.78402">
        <ele>19.8</ele>
        <time>2016-05-06T07:36:53Z</time>
      </trkpt>
      <trkpt lat="50.66227" lon="2.78376">
        <ele>19.8</ele>
        <time>2016-05-06T07:36:55Z</time>
      </trkpt>
      <trkpt lat="50.66227" lon="2.78348">
        <ele>19.8</ele>
        <time>2016-05-06T07:36:57Z</time>
      </trkpt>
      <trkpt lat="50.66226" lon="2.78321">
        <ele>19.8</ele>
        <time>2016-05-06T07:36:59Z</time>
      </trkpt>
      <trkpt lat="50.66226" lon="2.78294">
        <ele>19.9</ele>
        <time>2016-05-06T07:37:01Z</time>
      </trkpt>
      <trkpt lat="50.66226" lon="2.78268">
        <ele>19.9</ele>
        <time>2016-05-06T07:37:03Z</time>
      </trkpt>
      <trkpt lat="50.66225" lon="2.78243">
        <ele>19.8</ele>
        <time>2016-05-06T07:37:05Z</time>
      </trkpt>
      <trkpt lat="50.66225" lon="2.78218">
        <ele>19.8</ele>
        <time>2016-05-06T07:37:07Z</time>
      </trkpt>
      <trkpt lat="50.66225" lon="2.78194">
        <ele>19.8</ele>
        <time>2016-05-06T07:37:09Z</time>
      </trkpt>
      <trkpt lat="50.66225" lon="2.78169">
        <ele>19.7</ele>
        <time>2016-05-06T07:37:11Z</time>
      </trkpt>
      <trkpt lat="50.66224" lon="2.78144">
        <ele>19.6</ele>
        <time>2016-05-06T07:37:13Z</time>
      </trkpt>
      <trkpt lat="50.66223" lon="2.78119">
        <ele>19.4</ele>
        <time>2016-05-06T07:37:15Z</time>
      </trkpt>
      <trkpt lat="50.66222" lon="2.78095">
        <ele>19.3</ele>
        <time>2016-05-06T07:37:17Z</time>
      </trkpt>
      <trkpt lat="50.6622" lon="2.78071">
        <ele>19.3</ele>
        <time>2016-05-06T07:37:19Z</time>
      </trkpt>
      <trkpt lat="50.66217" lon="2.78047">
        <ele>19.2</ele>
        <time>2016-05-06T07:37:21Z</time>
      </trkpt>
      <trkpt lat="50.66214" lon="2.78023">
        <ele>19.2</ele>
        <time>2016-05-06T07:37:23Z</time>
      </trkpt>
      <trkpt lat="50.66211" lon="2.77999">
        <ele>19.1</ele>
        <time>2016-05-06T07:37:25Z</time>
      </trkpt>
      <trkpt lat="50.66208" lon="2.77976">
        <ele>19.1</ele>
        <time>2016-05-06T07:37:27Z</time>
      </trkpt>
      <trkpt lat="50.66206" lon="2.77954">
        <ele>19.1</ele>
        <time>2016-05-06T07:37:29Z</time>
      </trkpt>
      <trkpt lat="50.66203" lon="2.7793">
        <ele>19</ele>
        <time>2016-05-06T07:37:31Z</time>
      </trkpt>
      <trkpt lat="50.662" lon="2.77907">
        <ele>19</ele>
        <time>2016-05-06T07:37:33Z</time>
      </trkpt>
      <trkpt lat="50.66197" lon="2.77884">
        <ele>19</ele>
        <time>2016-05-06T07:37:35Z</time>
      </trkpt>
      <trkpt lat="50.66195" lon="2.77861">
        <ele>19</ele>
        <time>2016-05-06T07:37:37Z</time>
      </trkpt>
      <trkpt lat="50.66192" lon="2.77838">
        <ele>18.9</ele>
        <time>2016-05-06T07:37:39Z</time>
      </trkpt>
      <trkpt lat="50.6619" lon="2.77813">
        <ele>18.9</ele>
        <time>2016-05-06T07:37:41Z</time>
      </trkpt>
      <trkpt lat="50.66189" lon="2.77789">
        <ele>18.9</ele>
        <time>2016-05-06T07:37:43Z</time>
      </trkpt>
      <trkpt lat="50.66187" lon="2.77765">
        <ele>19</ele>
        <time>2016-05-06T07:37:45Z</time>
      </trkpt>
      <trkpt lat="50.66187" lon="2.77741">
        <ele>19</ele>
        <time>2016-05-06T07:37:47Z</time>
      </trkpt>
      <trkpt lat="50.66186" lon="2.77718">
        <ele>19</ele>
        <time>2016-05-06T07:37:49Z</time>
      </trkpt>
      <trkpt lat="50.66187" lon="2.77695">
        <ele>19</ele>
        <time>2016-05-06T07:37:51Z</time>
      </trkpt>
      <trkpt lat="50.66186" lon="2.77673">
        <ele>19</ele>
        <time>2016-05-06T07:37:53Z</time>
      </trkpt>
      <trkpt lat="50.66185" lon="2.77652">
        <ele>19</ele>
        <time>2016-05-06T07:37:55Z</time>
      </trkpt>
      <trkpt lat="50.66182" lon="2.77631">
        <ele>19</ele>
        <time>2016-05-06T07:37:57Z</time>
      </trkpt>
      <trkpt lat="50.66177" lon="2.7761">
        <ele>19.1</ele>
        <time>2016-05-06T07:37:59Z</time>
      </trkpt>
      <trkpt lat="50.6617" lon="2.77592">
        <ele>19.1</ele>
        <time>2016-05-06T07:38:01Z</time>
      </trkpt>
      <trkpt lat="50.66161" lon="2.77575">
        <ele>19.1</ele>
        <time>2016-05-06T07:38:03Z</time>
      </trkpt>
      <trkpt lat="50.66151" lon="2.77559">
        <ele>19.1</ele>
        <time>2016-05-06T07:38:05Z</time>
      </trkpt>
      <trkpt lat="50.66141" lon="2.77542">
        <ele>19.2</ele>
        <time>2016-05-06T07:38:07Z</time>
      </trkpt>
      <trkpt lat="50.66131" lon="2.77527">
        <ele>19.2</ele>
        <time>2016-05-06T07:38:09Z</time>
      </trkpt>
      <trkpt lat="50.6612" lon="2.77511">
        <ele>19.2</ele>
        <time>2016-05-06T07:38:11Z</time>
      </trkpt>
      <trkpt lat="50.66109" lon="2.77496">
        <ele>18.6</ele>
        <time>2016-05-06T07:38:13Z</time>
      </trkpt>
      <trkpt lat="50.66099" lon="2.77487">
        <ele>18.6</ele>
        <time>2016-05-06T07:38:15Z</time>
      </trkpt>
      <trkpt lat="50.66089" lon="2.77474">
        <ele>18.7</ele>
        <time>2016-05-06T07:38:17Z</time>
      </trkpt>
      <trkpt lat="50.66078" lon="2.77458">
        <ele>18.8</ele>
        <time>2016-05-06T07:38:19Z</time>
      </trkpt>
      <trkpt lat="50.66066" lon="2.77444">
        <ele>18.9</ele>
        <time>2016-05-06T07:38:21Z</time>
      </trkpt>
      <trkpt lat="50.66055" lon="2.77429">
        <ele>19</ele>
        <time>2016-05-06T07:38:23Z</time>
      </trkpt>
      <trkpt lat="50.66045" lon="2.77415">
        <ele>19</ele>
        <time>2016-05-06T07:38:25Z</time>
      </trkpt>
      <trkpt lat="50.66034" lon="2.77402">
        <ele>19.1</ele>
        <time>2016-05-06T07:38:27Z</time>
      </trkpt>
      <trkpt lat="50.66024" lon="2.77388">
        <ele>19.1</ele>
        <time>2016-05-06T07:38:29Z</time>
      </trkpt>
      <trkpt lat="50.66014" lon="2.77375">
        <ele>19.2</ele>
        <time>2016-05-06T07:38:31Z</time>
      </trkpt>
      <trkpt lat="50.66005" lon="2.7736">
        <ele>19.2</ele>
        <time>2016-05-06T07:38:33Z</time>
      </trkpt>
      <trkpt lat="50.65995" lon="2.77347">
        <ele>19.3</ele>
        <time>2016-05-06T07:38:35Z</time>
      </trkpt>
      <trkpt lat="50.65987" lon="2.77333">
        <ele>19.3</ele>
        <time>2016-05-06T07:38:37Z</time>
      </trkpt>
      <trkpt lat="50.65977" lon="2.77319">
        <ele>19.3</ele>
        <time>2016-05-06T07:38:39Z</time>
      </trkpt>
      <trkpt lat="50.65968" lon="2.77304">
        <ele>19.4</ele>
        <time>2016-05-06T07:38:41Z</time>
      </trkpt>
      <trkpt lat="50.65959" lon="2.77287">
        <ele>19.4</ele>
        <time>2016-05-06T07:38:43Z</time>
      </trkpt>
      <trkpt lat="50.65949" lon="2.77271">
        <ele>19.4</ele>
        <time>2016-05-06T07:38:45Z</time>
      </trkpt>
      <trkpt lat="50.6594" lon="2.77254">
        <ele>19.4</ele>
        <time>2016-05-06T07:38:47Z</time>
      </trkpt>
      <trkpt lat="50.65932" lon="2.77239">
        <ele>19.4</ele>
        <time>2016-05-06T07:38:49Z</time>
      </trkpt>
      <trkpt lat="50.65923" lon="2.77224">
        <ele>19.5</ele>
        <time>2016-05-06T07:38:51Z</time>
      </trkpt>
      <trkpt lat="50.65914" lon="2.77206">
        <ele>19.5</ele>
        <time>2016-05-06T07:38:53Z</time>
      </trkpt>
      <trkpt lat="50.65905" lon="2.77189">
        <ele>19.5</ele>
        <time>2016-05-06T07:38:55Z</time>
      </trkpt>
      <trkpt lat="50.65896" lon="2.77172">
        <ele>19.6</ele>
        <time>2016-05-06T07:38:57Z</time>
      </trkpt>
      <trkpt lat="50.65887" lon="2.77154">
        <ele>19.6</ele>
        <time>2016-05-06T07:38:59Z</time>
      </trkpt>
      <trkpt lat="50.65878" lon="2.77137">
        <ele>19.6</ele>
        <time>2016-05-06T07:39:01Z</time>
      </trkpt>
      <trkpt lat="50.65869" lon="2.77121">
        <ele>19.6</ele>
        <time>2016-05-06T07:39:03Z</time>
      </trkpt>
      <trkpt lat="50.6586" lon="2.77104">
        <ele>19.6</ele>
        <time>2016-05-06T07:39:05Z</time>
      </trkpt>
      <trkpt lat="50.65851" lon="2.77087">
        <ele>19.6</ele>
        <time>2016-05-06T07:39:07Z</time>
      </trkpt>
      <trkpt lat="50.65841" lon="2.7707">
        <ele>19.7</ele>
        <time>2016-05-06T07:39:09Z</time>
      </trkpt>
      <trkpt lat="50.65832" lon="2.77052">
        <ele>19.7</ele>
        <time>2016-05-06T07:39:11Z</time>
      </trkpt>
      <trkpt lat="50.65823" lon="2.77034">
        <ele>19.7</ele>
        <time>2016-05-06T07:39:13Z</time>
      </trkpt>
      <trkpt lat="50.65814" lon="2.77015">
        <ele>19.7</ele>
        <time>2016-05-06T07:39:15Z</time>
      </trkpt>
      <trkpt lat="50.65803" lon="2.77002">
        <ele>19.8</ele>
        <time>2016-05-06T07:39:17Z</time>
      </trkpt>
      <trkpt lat="50.65794" lon="2.76986">
        <ele>19.8</ele>
        <time>2016-05-06T07:39:19Z</time>
      </trkpt>
      <trkpt lat="50.65787" lon="2.76972">
        <ele>19.9</ele>
        <time>2016-05-06T07:39:21Z</time>
      </trkpt>
      <trkpt lat="50.65779" lon="2.76958">
        <ele>19.9</ele>
        <time>2016-05-06T07:39:23Z</time>
      </trkpt>
      <trkpt lat="50.65773" lon="2.76946">
        <ele>20</ele>
        <time>2016-05-06T07:39:25Z</time>
      </trkpt>
      <trkpt lat="50.65767" lon="2.76933">
        <ele>20.1</ele>
        <time>2016-05-06T07:39:28Z</time>
      </trkpt>
      <trkpt lat="50.65762" lon="2.7692">
        <ele>20.1</ele>
        <time>2016-05-06T07:39:32Z</time>
      </trkpt>
      <trkpt lat="50.65755" lon="2.76905">
        <ele>20.3</ele>
        <time>2016-05-06T07:39:49Z</time>
      </trkpt>
      <trkpt lat="50.65747" lon="2.76895">
        <ele>20.3</ele>
        <time>2016-05-06T07:39:51Z</time>
      </trkpt>
      <trkpt lat="50.65742" lon="2.76883">
        <ele>20.3</ele>
        <time>2016-05-06T07:39:53Z</time>
      </trkpt>
      <trkpt lat="50.65736" lon="2.7687">
        <ele>20.3</ele>
        <time>2016-05-06T07:39:55Z</time>
      </trkpt>
      <trkpt lat="50.65729" lon="2.76854">
        <ele>20.3</ele>
        <time>2016-05-06T07:39:57Z</time>
      </trkpt>
      <trkpt lat="50.65721" lon="2.76839">
        <ele>20.4</ele>
        <time>2016-05-06T07:39:59Z</time>
      </trkpt>
      <trkpt lat="50.65713" lon="2.76823">
        <ele>20.4</ele>
        <time>2016-05-06T07:40:01Z</time>
      </trkpt>
      <trkpt lat="50.65706" lon="2.76807">
        <ele>20.5</ele>
        <time>2016-05-06T07:40:03Z</time>
      </trkpt>
      <trkpt lat="50.65696" lon="2.76793">
        <ele>20.6</ele>
        <time>2016-05-06T07:40:05Z</time>
      </trkpt>
      <trkpt lat="50.65685" lon="2.7678">
        <ele>20.6</ele>
        <time>2016-05-06T07:40:07Z</time>
      </trkpt>
      <trkpt lat="50.65675" lon="2.76766">
        <ele>20.7</ele>
        <time>2016-05-06T07:40:09Z</time>
      </trkpt>
      <trkpt lat="50.65664" lon="2.76752">
        <ele>20.7</ele>
        <time>2016-05-06T07:40:11Z</time>
      </trkpt>
      <trkpt lat="50.65652" lon="2.76739">
        <ele>20.8</ele>
        <time>2016-05-06T07:40:13Z</time>
      </trkpt>
      <trkpt lat="50.65641" lon="2.76726">
        <ele>20.8</ele>
        <time>2016-05-06T07:40:15Z</time>
      </trkpt>
      <trkpt lat="50.65629" lon="2.76714">
        <ele>20.8</ele>
        <time>2016-05-06T07:40:17Z</time>
      </trkpt>
      <trkpt lat="50.65618" lon="2.76701">
        <ele>20.9</ele>
        <time>2016-05-06T07:40:19Z</time>
      </trkpt>
      <trkpt lat="50.65605" lon="2.76688">
        <ele>20.9</ele>
        <time>2016-05-06T07:40:21Z</time>
      </trkpt>
      <trkpt lat="50.65594" lon="2.76674">
        <ele>20.9</ele>
        <time>2016-05-06T07:40:23Z</time>
      </trkpt>
      <trkpt lat="50.65584" lon="2.7666">
        <ele>20.9</ele>
        <time>2016-05-06T07:40:25Z</time>
      </trkpt>
      <trkpt lat="50.65573" lon="2.76648">
        <ele>20.9</ele>
        <time>2016-05-06T07:40:27Z</time>
      </trkpt>
      <trkpt lat="50.65562" lon="2.76634">
        <ele>20.9</ele>
        <time>2016-05-06T07:40:29Z</time>
      </trkpt>
      <trkpt lat="50.65552" lon="2.7662">
        <ele>20.9</ele>
        <time>2016-05-06T07:40:31Z</time>
      </trkpt>
      <trkpt lat="50.65541" lon="2.76605">
        <ele>20.9</ele>
        <time>2016-05-06T07:40:33Z</time>
      </trkpt>
      <trkpt lat="50.65531" lon="2.76591">
        <ele>20.9</ele>
        <time>2016-05-06T07:40:35Z</time>
      </trkpt>
      <trkpt lat="50.6552" lon="2.76576">
        <ele>20.9</ele>
        <time>2016-05-06T07:40:37Z</time>
      </trkpt>
      <trkpt lat="50.65509" lon="2.7656">
        <ele>20.9</ele>
        <time>2016-05-06T07:40:39Z</time>
      </trkpt>
      <trkpt lat="50.65498" lon="2.76544">
        <ele>20.9</ele>
        <time>2016-05-06T07:40:41Z</time>
      </trkpt>
      <trkpt lat="50.65488" lon="2.76529">
        <ele>20.9</ele>
        <time>2016-05-06T07:40:43Z</time>
      </trkpt>
      <trkpt lat="50.65478" lon="2.76512">
        <ele>20.9</ele>
        <time>2016-05-06T07:40:45Z</time>
      </trkpt>
      <trkpt lat="50.65468" lon="2.76496">
        <ele>20.9</ele>
        <time>2016-05-06T07:40:47Z</time>
      </trkpt>
      <trkpt lat="50.65459" lon="2.7648">
        <ele>20.9</ele>
        <time>2016-05-06T07:40:49Z</time>
      </trkpt>
      <trkpt lat="50.65449" lon="2.76464">
        <ele>20.9</ele>
        <time>2016-05-06T07:40:51Z</time>
      </trkpt>
      <trkpt lat="50.65439" lon="2.76448">
        <ele>20.9</ele>
        <time>2016-05-06T07:40:53Z</time>
      </trkpt>
      <trkpt lat="50.65429" lon="2.76433">
        <ele>20.9</ele>
        <time>2016-05-06T07:40:55Z</time>
      </trkpt>
      <trkpt lat="50.6542" lon="2.76417">
        <ele>20.9</ele>
        <time>2016-05-06T07:40:57Z</time>
      </trkpt>
      <trkpt lat="50.65409" lon="2.76402">
        <ele>21</ele>
        <time>2016-05-06T07:40:59Z</time>
      </trkpt>
      <trkpt lat="50.65398" lon="2.76386">
        <ele>21</ele>
        <time>2016-05-06T07:41:01Z</time>
      </trkpt>
      <trkpt lat="50.65387" lon="2.7637">
        <ele>21</ele>
        <time>2016-05-06T07:41:03Z</time>
      </trkpt>
      <trkpt lat="50.65376" lon="2.76355">
        <ele>21</ele>
        <time>2016-05-06T07:41:05Z</time>
      </trkpt>
      <trkpt lat="50.65365" lon="2.76341">
        <ele>21</ele>
        <time>2016-05-06T07:41:07Z</time>
      </trkpt>
      <trkpt lat="50.65353" lon="2.76327">
        <ele>21</ele>
        <time>2016-05-06T07:41:09Z</time>
      </trkpt>
      <trkpt lat="50.6534" lon="2.76319">
        <ele>21</ele>
        <time>2016-05-06T07:41:11Z</time>
      </trkpt>
      <trkpt lat="50.65326" lon="2.76316">
        <ele>21</ele>
        <time>2016-05-06T07:41:13Z</time>
      </trkpt>
      <trkpt lat="50.65311" lon="2.76316">
        <ele>21</ele>
        <time>2016-05-06T07:41:15Z</time>
      </trkpt>
      <trkpt lat="50.65297" lon="2.76317">
        <ele>21</ele>
        <time>2016-05-06T07:41:17Z</time>
      </trkpt>
      <trkpt lat="50.65282" lon="2.76315">
        <ele>21</ele>
        <time>2016-05-06T07:41:19Z</time>
      </trkpt>
      <trkpt lat="50.65267" lon="2.76312">
        <ele>21.1</ele>
        <time>2016-05-06T07:41:21Z</time>
      </trkpt>
      <trkpt lat="50.65252" lon="2.76308">
        <ele>21.1</ele>
        <time>2016-05-06T07:41:23Z</time>
      </trkpt>
      <trkpt lat="50.65239" lon="2.76303">
        <ele>21.1</ele>
        <time>2016-05-06T07:41:25Z</time>
      </trkpt>
      <trkpt lat="50.65226" lon="2.76299">
        <ele>21.1</ele>
        <time>2016-05-06T07:41:27Z</time>
      </trkpt>
      <trkpt lat="50.65213" lon="2.76295">
        <ele>21</ele>
        <time>2016-05-06T07:41:29Z</time>
      </trkpt>
      <trkpt lat="50.65199" lon="2.7629">
        <ele>21</ele>
        <time>2016-05-06T07:41:31Z</time>
      </trkpt>
      <trkpt lat="50.65187" lon="2.76286">
        <ele>21</ele>
        <time>2016-05-06T07:41:33Z</time>
      </trkpt>
      <trkpt lat="50.65174" lon="2.76281">
        <ele>21</ele>
        <time>2016-05-06T07:41:35Z</time>
      </trkpt>
      <trkpt lat="50.6516" lon="2.76277">
        <ele>20.9</ele>
        <time>2016-05-06T07:41:37Z</time>
      </trkpt>
      <trkpt lat="50.65146" lon="2.76273">
        <ele>20.9</ele>
        <time>2016-05-06T07:41:39Z</time>
      </trkpt>
      <trkpt lat="50.65134" lon="2.76268">
        <ele>20.8</ele>
        <time>2016-05-06T07:41:41Z</time>
      </trkpt>
      <trkpt lat="50.65121" lon="2.76262">
        <ele>20.8</ele>
        <time>2016-05-06T07:41:43Z</time>
      </trkpt>
      <trkpt lat="50.65108" lon="2.76254">
        <ele>20.7</ele>
        <time>2016-05-06T07:41:45Z</time>
      </trkpt>
      <trkpt lat="50.65096" lon="2.76245">
        <ele>20.7</ele>
        <time>2016-05-06T07:41:47Z</time>
      </trkpt>
      <trkpt lat="50.65084" lon="2.76233">
        <ele>20.6</ele>
        <time>2016-05-06T07:41:49Z</time>
      </trkpt>
      <trkpt lat="50.65072" lon="2.76221">
        <ele>20.6</ele>
        <time>2016-05-06T07:41:51Z</time>
      </trkpt>
      <trkpt lat="50.6506" lon="2.7621">
        <ele>20.5</ele>
        <time>2016-05-06T07:41:53Z</time>
      </trkpt>
      <trkpt lat="50.65049" lon="2.76197">
        <ele>20.5</ele>
        <time>2016-05-06T07:41:55Z</time>
      </trkpt>
      <trkpt lat="50.65037" lon="2.76185">
        <ele>20.5</ele>
        <time>2016-05-06T07:41:57Z</time>
      </trkpt>
      <trkpt lat="50.65026" lon="2.76173">
        <ele>20.4</ele>
        <time>2016-05-06T07:41:59Z</time>
      </trkpt>
      <trkpt lat="50.65014" lon="2.76162">
        <ele>20.4</ele>
        <time>2016-05-06T07:42:01Z</time>
      </trkpt>
      <trkpt lat="50.65002" lon="2.7615">
        <ele>20.3</ele>
        <time>2016-05-06T07:42:03Z</time>
      </trkpt>
      <trkpt lat="50.64991" lon="2.76139">
        <ele>20.2</ele>
        <time>2016-05-06T07:42:05Z</time>
      </trkpt>
      <trkpt lat="50.64979" lon="2.76128">
        <ele>20.1</ele>
        <time>2016-05-06T07:42:07Z</time>
      </trkpt>
      <trkpt lat="50.64967" lon="2.76118">
        <ele>20</ele>
        <time>2016-05-06T07:42:09Z</time>
      </trkpt>
      <trkpt lat="50.64955" lon="2.76108">
        <ele>19.9</ele>
        <time>2016-05-06T07:42:11Z</time>
      </trkpt>
      <trkpt lat="50.64943" lon="2.761">
        <ele>19.9</ele>
        <time>2016-05-06T07:42:13Z</time>
      </trkpt>
      <trkpt lat="50.64931" lon="2.76092">
        <ele>19.9</ele>
        <time>2016-05-06T07:42:15Z</time>
      </trkpt>
      <trkpt lat="50.64918" lon="2.76085">
        <ele>19.9</ele>
        <time>2016-05-06T07:42:17Z</time>
      </trkpt>
      <trkpt lat="50.64906" lon="2.76077">
        <ele>19.9</ele>
        <time>2016-05-06T07:42:19Z</time>
      </trkpt>
      <trkpt lat="50.64894" lon="2.76068">
        <ele>19.9</ele>
        <time>2016-05-06T07:42:21Z</time>
      </trkpt>
      <trkpt lat="50.64882" lon="2.76057">
        <ele>19.9</ele>
        <time>2016-05-06T07:42:23Z</time>
      </trkpt>
      <trkpt lat="50.64872" lon="2.76042">
        <ele>19.9</ele>
        <time>2016-05-06T07:42:25Z</time>
      </trkpt>
      <trkpt lat="50.64863" lon="2.76025">
        <ele>19.9</ele>
        <time>2016-05-06T07:42:27Z</time>
      </trkpt>
      <trkpt lat="50.64855" lon="2.76008">
        <ele>20</ele>
        <time>2016-05-06T07:42:29Z</time>
      </trkpt>
      <trkpt lat="50.64845" lon="2.75992">
        <ele>20</ele>
        <time>2016-05-06T07:42:31Z</time>
      </trkpt>
      <trkpt lat="50.64833" lon="2.75977">
        <ele>20.1</ele>
        <time>2016-05-06T07:42:33Z</time>
      </trkpt>
      <trkpt lat="50.64821" lon="2.75963">
        <ele>20.2</ele>
        <time>2016-05-06T07:42:35Z</time>
      </trkpt>
      <trkpt lat="50.64807" lon="2.75949">
        <ele>20.3</ele>
        <time>2016-05-06T07:42:37Z</time>
      </trkpt>
      <trkpt lat="50.64794" lon="2.75935">
        <ele>20.4</ele>
        <time>2016-05-06T07:42:39Z</time>
      </trkpt>
      <trkpt lat="50.64781" lon="2.75922">
        <ele>20.5</ele>
        <time>2016-05-06T07:42:41Z</time>
      </trkpt>
      <trkpt lat="50.64768" lon="2.75909">
        <ele>20.5</ele>
        <time>2016-05-06T07:42:43Z</time>
      </trkpt>
      <trkpt lat="50.64754" lon="2.75897">
        <ele>20.6</ele>
        <time>2016-05-06T07:42:45Z</time>
      </trkpt>
      <trkpt lat="50.6474" lon="2.75885">
        <ele>20.6</ele>
        <time>2016-05-06T07:42:47Z</time>
      </trkpt>
      <trkpt lat="50.64725" lon="2.75873">
        <ele>20.7</ele>
        <time>2016-05-06T07:42:49Z</time>
      </trkpt>
      <trkpt lat="50.64711" lon="2.75859">
        <ele>20.7</ele>
        <time>2016-05-06T07:42:51Z</time>
      </trkpt>
      <trkpt lat="50.64696" lon="2.75844">
        <ele>20.8</ele>
        <time>2016-05-06T07:42:53Z</time>
      </trkpt>
      <trkpt lat="50.64681" lon="2.7583">
        <ele>20.8</ele>
        <time>2016-05-06T07:42:55Z</time>
      </trkpt>
      <trkpt lat="50.64666" lon="2.75815">
        <ele>20.8</ele>
        <time>2016-05-06T07:42:57Z</time>
      </trkpt>
      <trkpt lat="50.64651" lon="2.75801">
        <ele>20.8</ele>
        <time>2016-05-06T07:42:59Z</time>
      </trkpt>
      <trkpt lat="50.64637" lon="2.75787">
        <ele>20.9</ele>
        <time>2016-05-06T07:43:01Z</time>
      </trkpt>
      <trkpt lat="50.64623" lon="2.75773">
        <ele>20.9</ele>
        <time>2016-05-06T07:43:03Z</time>
      </trkpt>
      <trkpt lat="50.64609" lon="2.7576">
        <ele>20.9</ele>
        <time>2016-05-06T07:43:05Z</time>
      </trkpt>
      <trkpt lat="50.64595" lon="2.75746">
        <ele>20.9</ele>
        <time>2016-05-06T07:43:07Z</time>
      </trkpt>
      <trkpt lat="50.64581" lon="2.75732">
        <ele>20.9</ele>
        <time>2016-05-06T07:43:09Z</time>
      </trkpt>
      <trkpt lat="50.64568" lon="2.75719">
        <ele>20.9</ele>
        <time>2016-05-06T07:43:11Z</time>
      </trkpt>
      <trkpt lat="50.64556" lon="2.75705">
        <ele>20.9</ele>
        <time>2016-05-06T07:43:13Z</time>
      </trkpt>
      <trkpt lat="50.64543" lon="2.75692">
        <ele>20.9</ele>
        <time>2016-05-06T07:43:15Z</time>
      </trkpt>
      <trkpt lat="50.6453" lon="2.75678">
        <ele>20.8</ele>
        <time>2016-05-06T07:43:17Z</time>
      </trkpt>
      <trkpt lat="50.64517" lon="2.75664">
        <ele>20.7</ele>
        <time>2016-05-06T07:43:19Z</time>
      </trkpt>
      <trkpt lat="50.64505" lon="2.75651">
        <ele>20.6</ele>
        <time>2016-05-06T07:43:21Z</time>
      </trkpt>
      <trkpt lat="50.64492" lon="2.75638">
        <ele>20.5</ele>
        <time>2016-05-06T07:43:23Z</time>
      </trkpt>
      <trkpt lat="50.6448" lon="2.75625">
        <ele>20.5</ele>
        <time>2016-05-06T07:43:25Z</time>
      </trkpt>
      <trkpt lat="50.64468" lon="2.75611">
        <ele>20.4</ele>
        <time>2016-05-06T07:43:27Z</time>
      </trkpt>
      <trkpt lat="50.64456" lon="2.75598">
        <ele>20.4</ele>
        <time>2016-05-06T07:43:29Z</time>
      </trkpt>
      <trkpt lat="50.64444" lon="2.75585">
        <ele>20.4</ele>
        <time>2016-05-06T07:43:31Z</time>
      </trkpt>
      <trkpt lat="50.64432" lon="2.75572">
        <ele>20.3</ele>
        <time>2016-05-06T07:43:33Z</time>
      </trkpt>
      <trkpt lat="50.6442" lon="2.7556">
        <ele>20.3</ele>
        <time>2016-05-06T07:43:35Z</time>
      </trkpt>
      <trkpt lat="50.64408" lon="2.75547">
        <ele>20.3</ele>
        <time>2016-05-06T07:43:37Z</time>
      </trkpt>
      <trkpt lat="50.64396" lon="2.75535">
        <ele>20.2</ele>
        <time>2016-05-06T07:43:39Z</time>
      </trkpt>
      <trkpt lat="50.64385" lon="2.75522">
        <ele>20.2</ele>
        <time>2016-05-06T07:43:41Z</time>
      </trkpt>
      <trkpt lat="50.64373" lon="2.75509">
        <ele>20.2</ele>
        <time>2016-05-06T07:43:43Z</time>
      </trkpt>
      <trkpt lat="50.64363" lon="2.75495">
        <ele>20.3</ele>
        <time>2016-05-06T07:43:45Z</time>
      </trkpt>
      <trkpt lat="50.64354" lon="2.7548">
        <ele>20.3</ele>
        <time>2016-05-06T07:43:47Z</time>
      </trkpt>
      <trkpt lat="50.64345" lon="2.75464">
        <ele>20.3</ele>
        <time>2016-05-06T07:43:49Z</time>
      </trkpt>
      <trkpt lat="50.64337" lon="2.75447">
        <ele>20.4</ele>
        <time>2016-05-06T07:43:51Z</time>
      </trkpt>
      <trkpt lat="50.6433" lon="2.75429">
        <ele>20.4</ele>
        <time>2016-05-06T07:43:53Z</time>
      </trkpt>
      <trkpt lat="50.64323" lon="2.7541">
        <ele>20.5</ele>
        <time>2016-05-06T07:43:55Z</time>
      </trkpt>
      <trkpt lat="50.64315" lon="2.75392">
        <ele>20.5</ele>
        <time>2016-05-06T07:43:57Z</time>
      </trkpt>
      <trkpt lat="50.64309" lon="2.75374">
        <ele>20.5</ele>
        <time>2016-05-06T07:43:59Z</time>
      </trkpt>
      <trkpt lat="50.64302" lon="2.75356">
        <ele>20.6</ele>
        <time>2016-05-06T07:44:01Z</time>
      </trkpt>
      <trkpt lat="50.64295" lon="2.75338">
        <ele>20.6</ele>
        <time>2016-05-06T07:44:03Z</time>
      </trkpt>
      <trkpt lat="50.64288" lon="2.7532">
        <ele>20.6</ele>
        <time>2016-05-06T07:44:05Z</time>
      </trkpt>
      <trkpt lat="50.64282" lon="2.75302">
        <ele>20.6</ele>
        <time>2016-05-06T07:44:07Z</time>
      </trkpt>
      <trkpt lat="50.64275" lon="2.75284">
        <ele>20.6</ele>
        <time>2016-05-06T07:44:09Z</time>
      </trkpt>
      <trkpt lat="50.64269" lon="2.75267">
        <ele>20.7</ele>
        <time>2016-05-06T07:44:11Z</time>
      </trkpt>
      <trkpt lat="50.64263" lon="2.75251">
        <ele>20.7</ele>
        <time>2016-05-06T07:44:13Z</time>
      </trkpt>
      <trkpt lat="50.64257" lon="2.75234">
        <ele>20.7</ele>
        <time>2016-05-06T07:44:15Z</time>
      </trkpt>
      <trkpt lat="50.64251" lon="2.75218">
        <ele>20.7</ele>
        <time>2016-05-06T07:44:17Z</time>
      </trkpt>
      <trkpt lat="50.64244" lon="2.75202">
        <ele>20.7</ele>
        <time>2016-05-06T07:44:19Z</time>
      </trkpt>
      <trkpt lat="50.64237" lon="2.75185">
        <ele>20.7</ele>
        <time>2016-05-06T07:44:21Z</time>
      </trkpt>
      <trkpt lat="50.64229" lon="2.7517">
        <ele>20.7</ele>
        <time>2016-05-06T07:44:23Z</time>
      </trkpt>
      <trkpt lat="50.6422" lon="2.75154">
        <ele>20.7</ele>
        <time>2016-05-06T07:44:25Z</time>
      </trkpt>
      <trkpt lat="50.64211" lon="2.75138">
        <ele>20.7</ele>
        <time>2016-05-06T07:44:27Z</time>
      </trkpt>
      <trkpt lat="50.64201" lon="2.75124">
        <ele>20.7</ele>
        <time>2016-05-06T07:44:29Z</time>
      </trkpt>
      <trkpt lat="50.64192" lon="2.75109">
        <ele>20.7</ele>
        <time>2016-05-06T07:44:31Z</time>
      </trkpt>
      <trkpt lat="50.64184" lon="2.75094">
        <ele>20.7</ele>
        <time>2016-05-06T07:44:33Z</time>
      </trkpt>
      <trkpt lat="50.64175" lon="2.75078">
        <ele>20.7</ele>
        <time>2016-05-06T07:44:35Z</time>
      </trkpt>
      <trkpt lat="50.64167" lon="2.75061">
        <ele>20.7</ele>
        <time>2016-05-06T07:44:37Z</time>
      </trkpt>
      <trkpt lat="50.6416" lon="2.75042">
        <ele>20.7</ele>
        <time>2016-05-06T07:44:39Z</time>
      </trkpt>
      <trkpt lat="50.64155" lon="2.75023">
        <ele>20.7</ele>
        <time>2016-05-06T07:44:41Z</time>
      </trkpt>
      <trkpt lat="50.64152" lon="2.75002">
        <ele>20.7</ele>
        <time>2016-05-06T07:44:43Z</time>
      </trkpt>
      <trkpt lat="50.64149" lon="2.7498">
        <ele>20.7</ele>
        <time>2016-05-06T07:44:45Z</time>
      </trkpt>
      <trkpt lat="50.64146" lon="2.74959">
        <ele>20.6</ele>
        <time>2016-05-06T07:44:47Z</time>
      </trkpt>
      <trkpt lat="50.64143" lon="2.74938">
        <ele>20.6</ele>
        <time>2016-05-06T07:44:49Z</time>
      </trkpt>
      <trkpt lat="50.6414" lon="2.74918">
        <ele>20.6</ele>
        <time>2016-05-06T07:44:51Z</time>
      </trkpt>
      <trkpt lat="50.64137" lon="2.74896">
        <ele>20.6</ele>
        <time>2016-05-06T07:44:53Z</time>
      </trkpt>
      <trkpt lat="50.64136" lon="2.74874">
        <ele>20.5</ele>
        <time>2016-05-06T07:44:55Z</time>
      </trkpt>
      <trkpt lat="50.64135" lon="2.74853">
        <ele>20.5</ele>
        <time>2016-05-06T07:44:57Z</time>
      </trkpt>
      <trkpt lat="50.64136" lon="2.74831">
        <ele>20.5</ele>
        <time>2016-05-06T07:44:59Z</time>
      </trkpt>
      <trkpt lat="50.64137" lon="2.74808">
        <ele>20.5</ele>
        <time>2016-05-06T07:45:01Z</time>
      </trkpt>
      <trkpt lat="50.64138" lon="2.74786">
        <ele>20.5</ele>
        <time>2016-05-06T07:45:03Z</time>
      </trkpt>
      <trkpt lat="50.64138" lon="2.74763">
        <ele>20.5</ele>
        <time>2016-05-06T07:45:05Z</time>
      </trkpt>
      <trkpt lat="50.64137" lon="2.74739">
        <ele>20.5</ele>
        <time>2016-05-06T07:45:07Z</time>
      </trkpt>
      <trkpt lat="50.64135" lon="2.74716">
        <ele>20.5</ele>
        <time>2016-05-06T07:45:09Z</time>
      </trkpt>
      <trkpt lat="50.64132" lon="2.74693">
        <ele>20.5</ele>
        <time>2016-05-06T07:45:11Z</time>
      </trkpt>
      <trkpt lat="50.64129" lon="2.7467">
        <ele>20.5</ele>
        <time>2016-05-06T07:45:13Z</time>
      </trkpt>
      <trkpt lat="50.64126" lon="2.74649">
        <ele>20.5</ele>
        <time>2016-05-06T07:45:15Z</time>
      </trkpt>
      <trkpt lat="50.64123" lon="2.74627">
        <ele>20.4</ele>
        <time>2016-05-06T07:45:17Z</time>
      </trkpt>
      <trkpt lat="50.6412" lon="2.74606">
        <ele>20.4</ele>
        <time>2016-05-06T07:45:19Z</time>
      </trkpt>
      <trkpt lat="50.64117" lon="2.74584">
        <ele>20.4</ele>
        <time>2016-05-06T07:45:21Z</time>
      </trkpt>
      <trkpt lat="50.64114" lon="2.74562">
        <ele>20.4</ele>
        <time>2016-05-06T07:45:23Z</time>
      </trkpt>
      <trkpt lat="50.64112" lon="2.7454">
        <ele>20.4</ele>
        <time>2016-05-06T07:45:25Z</time>
      </trkpt>
      <trkpt lat="50.64109" lon="2.74518">
        <ele>20.4</ele>
        <time>2016-05-06T07:45:27Z</time>
      </trkpt>
      <trkpt lat="50.64107" lon="2.74497">
        <ele>20.4</ele>
        <time>2016-05-06T07:45:29Z</time>
      </trkpt>
      <trkpt lat="50.64104" lon="2.74475">
        <ele>20.4</ele>
        <time>2016-05-06T07:45:31Z</time>
      </trkpt>
      <trkpt lat="50.64102" lon="2.74453">
        <ele>20.4</ele>
        <time>2016-05-06T07:45:33Z</time>
      </trkpt>
      <trkpt lat="50.64099" lon="2.74432">
        <ele>20.4</ele>
        <time>2016-05-06T07:45:35Z</time>
      </trkpt>
      <trkpt lat="50.64096" lon="2.74411">
        <ele>20.4</ele>
        <time>2016-05-06T07:45:37Z</time>
      </trkpt>
      <trkpt lat="50.64094" lon="2.7439">
        <ele>20.4</ele>
        <time>2016-05-06T07:45:39Z</time>
      </trkpt>
      <trkpt lat="50.64091" lon="2.74368">
        <ele>20.4</ele>
        <time>2016-05-06T07:45:41Z</time>
      </trkpt>
      <trkpt lat="50.64089" lon="2.74347">
        <ele>20.4</ele>
        <time>2016-05-06T07:45:43Z</time>
      </trkpt>
      <trkpt lat="50.64087" lon="2.74326">
        <ele>20.4</ele>
        <time>2016-05-06T07:45:45Z</time>
      </trkpt>
      <trkpt lat="50.64085" lon="2.74304">
        <ele>20.4</ele>
        <time>2016-05-06T07:45:47Z</time>
      </trkpt>
      <trkpt lat="50.64085" lon="2.74282">
        <ele>20.4</ele>
        <time>2016-05-06T07:45:49Z</time>
      </trkpt>
      <trkpt lat="50.64086" lon="2.74259">
        <ele>20.4</ele>
        <time>2016-05-06T07:45:51Z</time>
      </trkpt>
      <trkpt lat="50.64089" lon="2.74237">
        <ele>20.4</ele>
        <time>2016-05-06T07:45:53Z</time>
      </trkpt>
      <trkpt lat="50.64094" lon="2.74216">
        <ele>20.4</ele>
        <time>2016-05-06T07:45:55Z</time>
      </trkpt>
      <trkpt lat="50.64098" lon="2.74195">
        <ele>20.4</ele>
        <time>2016-05-06T07:45:57Z</time>
      </trkpt>
      <trkpt lat="50.64102" lon="2.74174">
        <ele>20.4</ele>
        <time>2016-05-06T07:45:59Z</time>
      </trkpt>
      <trkpt lat="50.64107" lon="2.74154">
        <ele>20.4</ele>
        <time>2016-05-06T07:46:01Z</time>
      </trkpt>
      <trkpt lat="50.64112" lon="2.74133">
        <ele>20.4</ele>
        <time>2016-05-06T07:46:03Z</time>
      </trkpt>
      <trkpt lat="50.64117" lon="2.74111">
        <ele>20.4</ele>
        <time>2016-05-06T07:46:05Z</time>
      </trkpt>
      <trkpt lat="50.64121" lon="2.74089">
        <ele>20.4</ele>
        <time>2016-05-06T07:46:07Z</time>
      </trkpt>
      <trkpt lat="50.64126" lon="2.74067">
        <ele>20.4</ele>
        <time>2016-05-06T07:46:09Z</time>
      </trkpt>
      <trkpt lat="50.6413" lon="2.74045">
        <ele>20.4</ele>
        <time>2016-05-06T07:46:11Z</time>
      </trkpt>
      <trkpt lat="50.64135" lon="2.74023">
        <ele>20.4</ele>
        <time>2016-05-06T07:46:13Z</time>
      </trkpt>
      <trkpt lat="50.6414" lon="2.74002">
        <ele>20.4</ele>
        <time>2016-05-06T07:46:15Z</time>
      </trkpt>
      <trkpt lat="50.64145" lon="2.73981">
        <ele>20.4</ele>
        <time>2016-05-06T07:46:17Z</time>
      </trkpt>
      <trkpt lat="50.6415" lon="2.7396">
        <ele>20.4</ele>
        <time>2016-05-06T07:46:19Z</time>
      </trkpt>
      <trkpt lat="50.64154" lon="2.73939">
        <ele>20.4</ele>
        <time>2016-05-06T07:46:21Z</time>
      </trkpt>
      <trkpt lat="50.64157" lon="2.73918">
        <ele>20.4</ele>
        <time>2016-05-06T07:46:23Z</time>
      </trkpt>
      <trkpt lat="50.64161" lon="2.73899">
        <ele>20.4</ele>
        <time>2016-05-06T07:46:25Z</time>
      </trkpt>
      <trkpt lat="50.64165" lon="2.7388">
        <ele>20.4</ele>
        <time>2016-05-06T07:46:27Z</time>
      </trkpt>
      <trkpt lat="50.64168" lon="2.73861">
        <ele>20.4</ele>
        <time>2016-05-06T07:46:29Z</time>
      </trkpt>
      <trkpt lat="50.64173" lon="2.73841">
        <ele>20.4</ele>
        <time>2016-05-06T07:46:31Z</time>
      </trkpt>
      <trkpt lat="50.64177" lon="2.7382">
        <ele>20.4</ele>
        <time>2016-05-06T07:46:33Z</time>
      </trkpt>
      <trkpt lat="50.64182" lon="2.73799">
        <ele>20.4</ele>
        <time>2016-05-06T07:46:35Z</time>
      </trkpt>
      <trkpt lat="50.64187" lon="2.73778">
        <ele>20.4</ele>
        <time>2016-05-06T07:46:37Z</time>
      </trkpt>
      <trkpt lat="50.6419" lon="2.73757">
        <ele>20.4</ele>
        <time>2016-05-06T07:46:39Z</time>
      </trkpt>
      <trkpt lat="50.64193" lon="2.73737">
        <ele>20.4</ele>
        <time>2016-05-06T07:46:41Z</time>
      </trkpt>
      <trkpt lat="50.64194" lon="2.73717">
        <ele>20.4</ele>
        <time>2016-05-06T07:46:43Z</time>
      </trkpt>
      <trkpt lat="50.64197" lon="2.73697">
        <ele>20.4</ele>
        <time>2016-05-06T07:46:45Z</time>
      </trkpt>
      <trkpt lat="50.64202" lon="2.73678">
        <ele>20.7</ele>
        <time>2016-05-06T07:46:47Z</time>
      </trkpt>
      <trkpt lat="50.64205" lon="2.73661">
        <ele>20.7</ele>
        <time>2016-05-06T07:46:49Z</time>
      </trkpt>
      <trkpt lat="50.64202" lon="2.73643">
        <ele>20.8</ele>
        <time>2016-05-06T07:46:51Z</time>
      </trkpt>
      <trkpt lat="50.64194" lon="2.73628">
        <ele>20.8</ele>
        <time>2016-05-06T07:46:53Z</time>
      </trkpt>
      <trkpt lat="50.64182" lon="2.73621">
        <ele>20.8</ele>
        <time>2016-05-06T07:46:55Z</time>
      </trkpt>
      <trkpt lat="50.64169" lon="2.73624">
        <ele>20.8</ele>
        <time>2016-05-06T07:46:57Z</time>
      </trkpt>
      <trkpt lat="50.64157" lon="2.73636">
        <ele>20.8</ele>
        <time>2016-05-06T07:46:59Z</time>
      </trkpt>
      <trkpt lat="50.64145" lon="2.73648">
        <ele>20.8</ele>
        <time>2016-05-06T07:47:01Z</time>
      </trkpt>
      <trkpt lat="50.64131" lon="2.73652">
        <ele>20.8</ele>
        <time>2016-05-06T07:47:03Z</time>
      </trkpt>
      <trkpt lat="50.64116" lon="2.73652">
        <ele>20.8</ele>
        <time>2016-05-06T07:47:05Z</time>
      </trkpt>
      <trkpt lat="50.64102" lon="2.73652">
        <ele>20.7</ele>
        <time>2016-05-06T07:47:07Z</time>
      </trkpt>
      <trkpt lat="50.64087" lon="2.73653">
        <ele>20.7</ele>
        <time>2016-05-06T07:47:09Z</time>
      </trkpt>
      <trkpt lat="50.64072" lon="2.73653">
        <ele>20.6</ele>
        <time>2016-05-06T07:47:11Z</time>
      </trkpt>
      <trkpt lat="50.64058" lon="2.73653">
        <ele>20.6</ele>
        <time>2016-05-06T07:47:13Z</time>
      </trkpt>
      <trkpt lat="50.64043" lon="2.73654">
        <ele>20.6</ele>
        <time>2016-05-06T07:47:15Z</time>
      </trkpt>
      <trkpt lat="50.64028" lon="2.73654">
        <ele>20.6</ele>
        <time>2016-05-06T07:47:17Z</time>
      </trkpt>
      <trkpt lat="50.64013" lon="2.73655">
        <ele>20.6</ele>
        <time>2016-05-06T07:47:19Z</time>
      </trkpt>
      <trkpt lat="50.63998" lon="2.73655">
        <ele>20.5</ele>
        <time>2016-05-06T07:47:21Z</time>
      </trkpt>
      <trkpt lat="50.63983" lon="2.73655">
        <ele>20.5</ele>
        <time>2016-05-06T07:47:23Z</time>
      </trkpt>
      <trkpt lat="50.63968" lon="2.73656">
        <ele>20.5</ele>
        <time>2016-05-06T07:47:25Z</time>
      </trkpt>
      <trkpt lat="50.63954" lon="2.73656">
        <ele>20.5</ele>
        <time>2016-05-06T07:47:27Z</time>
      </trkpt>
      <trkpt lat="50.6394" lon="2.73656">
        <ele>20.5</ele>
        <time>2016-05-06T07:47:29Z</time>
      </trkpt>
      <trkpt lat="50.63925" lon="2.73657">
        <ele>20.4</ele>
        <time>2016-05-06T07:47:31Z</time>
      </trkpt>
      <trkpt lat="50.63912" lon="2.73657">
        <ele>20.4</ele>
        <time>2016-05-06T07:47:33Z</time>
      </trkpt>
      <trkpt lat="50.63898" lon="2.73657">
        <ele>20.4</ele>
        <time>2016-05-06T07:47:35Z</time>
      </trkpt>
      <trkpt lat="50.63884" lon="2.73658">
        <ele>20.4</ele>
        <time>2016-05-06T07:47:37Z</time>
      </trkpt>
      <trkpt lat="50.6387" lon="2.73658">
        <ele>20.4</ele>
        <time>2016-05-06T07:47:39Z</time>
      </trkpt>
      <trkpt lat="50.63856" lon="2.73659">
        <ele>20.4</ele>
        <time>2016-05-06T07:47:41Z</time>
      </trkpt>
      <trkpt lat="50.63843" lon="2.73659">
        <ele>20.5</ele>
        <time>2016-05-06T07:47:43Z</time>
      </trkpt>
      <trkpt lat="50.6383" lon="2.73659">
        <ele>20.5</ele>
        <time>2016-05-06T07:47:45Z</time>
      </trkpt>
      <trkpt lat="50.63816" lon="2.73659">
        <ele>20.5</ele>
        <time>2016-05-06T07:47:47Z</time>
      </trkpt>
      <trkpt lat="50.63804" lon="2.73658">
        <ele>20.5</ele>
        <time>2016-05-06T07:47:49Z</time>
      </trkpt>
      <trkpt lat="50.63791" lon="2.73658">
        <ele>20.5</ele>
        <time>2016-05-06T07:47:51Z</time>
      </trkpt>
      <trkpt lat="50.63777" lon="2.73658">
        <ele>20.7</ele>
        <time>2016-05-06T07:47:53Z</time>
      </trkpt>
      <trkpt lat="50.63764" lon="2.73659">
        <ele>20.9</ele>
        <time>2016-05-06T07:47:55Z</time>
      </trkpt>
      <trkpt lat="50.63751" lon="2.73661">
        <ele>21</ele>
        <time>2016-05-06T07:47:57Z</time>
      </trkpt>
      <trkpt lat="50.63738" lon="2.73665">
        <ele>21.1</ele>
        <time>2016-05-06T07:47:59Z</time>
      </trkpt>
      <trkpt lat="50.63725" lon="2.73669">
        <ele>21.2</ele>
        <time>2016-05-06T07:48:01Z</time>
      </trkpt>
      <trkpt lat="50.63713" lon="2.73673">
        <ele>21.3</ele>
        <time>2016-05-06T07:48:03Z</time>
      </trkpt>
      <trkpt lat="50.63701" lon="2.73678">
        <ele>21.3</ele>
        <time>2016-05-06T07:48:05Z</time>
      </trkpt>
      <trkpt lat="50.63689" lon="2.73684">
        <ele>21.4</ele>
        <time>2016-05-06T07:48:07Z</time>
      </trkpt>
      <trkpt lat="50.63678" lon="2.73689">
        <ele>21.4</ele>
        <time>2016-05-06T07:48:09Z</time>
      </trkpt>
      <trkpt lat="50.63666" lon="2.73695">
        <ele>21.3</ele>
        <time>2016-05-06T07:48:11Z</time>
      </trkpt>
      <trkpt lat="50.63653" lon="2.73701">
        <ele>21.3</ele>
        <time>2016-05-06T07:48:13Z</time>
      </trkpt>
      <trkpt lat="50.63641" lon="2.73706">
        <ele>21.2</ele>
        <time>2016-05-06T07:48:15Z</time>
      </trkpt>
      <trkpt lat="50.63628" lon="2.73712">
        <ele>21.2</ele>
        <time>2016-05-06T07:48:17Z</time>
      </trkpt>
      <trkpt lat="50.63616" lon="2.73719">
        <ele>21.1</ele>
        <time>2016-05-06T07:48:19Z</time>
      </trkpt>
      <trkpt lat="50.63603" lon="2.73725">
        <ele>21.1</ele>
        <time>2016-05-06T07:48:21Z</time>
      </trkpt>
      <trkpt lat="50.6359" lon="2.73732">
        <ele>21</ele>
        <time>2016-05-06T07:48:23Z</time>
      </trkpt>
      <trkpt lat="50.63578" lon="2.73738">
        <ele>21</ele>
        <time>2016-05-06T07:48:25Z</time>
      </trkpt>
      <trkpt lat="50.63566" lon="2.73743">
        <ele>21</ele>
        <time>2016-05-06T07:48:27Z</time>
      </trkpt>
      <trkpt lat="50.63554" lon="2.73749">
        <ele>21</ele>
        <time>2016-05-06T07:48:29Z</time>
      </trkpt>
      <trkpt lat="50.63542" lon="2.73754">
        <ele>21</ele>
        <time>2016-05-06T07:48:31Z</time>
      </trkpt>
      <trkpt lat="50.63531" lon="2.73759">
        <ele>21</ele>
        <time>2016-05-06T07:48:33Z</time>
      </trkpt>
      <trkpt lat="50.63519" lon="2.73763">
        <ele>21</ele>
        <time>2016-05-06T07:48:35Z</time>
      </trkpt>
      <trkpt lat="50.63507" lon="2.73765">
        <ele>21</ele>
        <time>2016-05-06T07:48:37Z</time>
      </trkpt>
      <trkpt lat="50.63494" lon="2.73763">
        <ele>20.9</ele>
        <time>2016-05-06T07:48:39Z</time>
      </trkpt>
      <trkpt lat="50.63481" lon="2.73757">
        <ele>20.9</ele>
        <time>2016-05-06T07:48:41Z</time>
      </trkpt>
      <trkpt lat="50.63472" lon="2.73743">
        <ele>20.9</ele>
        <time>2016-05-06T07:48:43Z</time>
      </trkpt>
      <trkpt lat="50.63465" lon="2.73727">
        <ele>20.9</ele>
        <time>2016-05-06T07:48:45Z</time>
      </trkpt>
      <trkpt lat="50.63457" lon="2.73713">
        <ele>20.9</ele>
        <time>2016-05-06T07:48:47Z</time>
      </trkpt>
      <trkpt lat="50.63448" lon="2.73698">
        <ele>21</ele>
        <time>2016-05-06T07:48:49Z</time>
      </trkpt>
      <trkpt lat="50.63444" lon="2.73678">
        <ele>21</ele>
        <time>2016-05-06T07:48:51Z</time>
      </trkpt>
      <trkpt lat="50.63442" lon="2.73656">
        <ele>21</ele>
        <time>2016-05-06T07:48:53Z</time>
      </trkpt>
      <trkpt lat="50.63441" lon="2.73634">
        <ele>21</ele>
        <time>2016-05-06T07:48:55Z</time>
      </trkpt>
      <trkpt lat="50.63439" lon="2.73611">
        <ele>21</ele>
        <time>2016-05-06T07:48:57Z</time>
      </trkpt>
      <trkpt lat="50.63437" lon="2.73586">
        <ele>21</ele>
        <time>2016-05-06T07:48:59Z</time>
      </trkpt>
      <trkpt lat="50.63437" lon="2.73561">
        <ele>21</ele>
        <time>2016-05-06T07:49:01Z</time>
      </trkpt>
      <trkpt lat="50.63437" lon="2.73535">
        <ele>21</ele>
        <time>2016-05-06T07:49:03Z</time>
      </trkpt>
      <trkpt lat="50.63437" lon="2.73509">
        <ele>21.1</ele>
        <time>2016-05-06T07:49:05Z</time>
      </trkpt>
      <trkpt lat="50.63438" lon="2.73484">
        <ele>21.1</ele>
        <time>2016-05-06T07:49:07Z</time>
      </trkpt>
      <trkpt lat="50.6344" lon="2.7346">
        <ele>21.1</ele>
        <time>2016-05-06T07:49:09Z</time>
      </trkpt>
      <trkpt lat="50.63442" lon="2.73434">
        <ele>21.1</ele>
        <time>2016-05-06T07:49:11Z</time>
      </trkpt>
      <trkpt lat="50.63444" lon="2.73408">
        <ele>21.1</ele>
        <time>2016-05-06T07:49:13Z</time>
      </trkpt>
      <trkpt lat="50.63447" lon="2.73383">
        <ele>21.1</ele>
        <time>2016-05-06T07:49:15Z</time>
      </trkpt>
      <trkpt lat="50.6345" lon="2.73358">
        <ele>21.1</ele>
        <time>2016-05-06T07:49:17Z</time>
      </trkpt>
      <trkpt lat="50.63454" lon="2.73333">
        <ele>21.2</ele>
        <time>2016-05-06T07:49:19Z</time>
      </trkpt>
      <trkpt lat="50.63458" lon="2.73309">
        <ele>21.2</ele>
        <time>2016-05-06T07:49:21Z</time>
      </trkpt>
      <trkpt lat="50.63463" lon="2.73284">
        <ele>21.3</ele>
        <time>2016-05-06T07:49:23Z</time>
      </trkpt>
      <trkpt lat="50.63468" lon="2.73259">
        <ele>21.3</ele>
        <time>2016-05-06T07:49:25Z</time>
      </trkpt>
      <trkpt lat="50.63473" lon="2.73234">
        <ele>21.4</ele>
        <time>2016-05-06T07:49:27Z</time>
      </trkpt>
      <trkpt lat="50.63478" lon="2.73208">
        <ele>21.4</ele>
        <time>2016-05-06T07:49:29Z</time>
      </trkpt>
      <trkpt lat="50.63481" lon="2.73194">
        <ele>21.4</ele>
        <time>2016-05-06T07:49:30Z</time>
      </trkpt>
      <trkpt lat="50.63487" lon="2.73167">
        <ele>21.5</ele>
        <time>2016-05-06T07:49:32Z</time>
      </trkpt>
      <trkpt lat="50.63492" lon="2.7314">
        <ele>21.5</ele>
        <time>2016-05-06T07:49:34Z</time>
      </trkpt>
      <trkpt lat="50.63498" lon="2.73113">
        <ele>21.6</ele>
        <time>2016-05-06T07:49:36Z</time>
      </trkpt>
      <trkpt lat="50.63501" lon="2.73099">
        <ele>21.6</ele>
        <time>2016-05-06T07:49:37Z</time>
      </trkpt>
      <trkpt lat="50.63504" lon="2.73085">
        <ele>21.6</ele>
        <time>2016-05-06T07:49:38Z</time>
      </trkpt>
      <trkpt lat="50.63507" lon="2.7307">
        <ele>21.6</ele>
        <time>2016-05-06T07:49:39Z</time>
      </trkpt>
      <trkpt lat="50.6351" lon="2.73056">
        <ele>21.7</ele>
        <time>2016-05-06T07:49:40Z</time>
      </trkpt>
      <trkpt lat="50.63513" lon="2.73041">
        <ele>21.7</ele>
        <time>2016-05-06T07:49:41Z</time>
      </trkpt>
      <trkpt lat="50.63516" lon="2.73026">
        <ele>21.7</ele>
        <time>2016-05-06T07:49:42Z</time>
      </trkpt>
      <trkpt lat="50.63519" lon="2.7301">
        <ele>21.7</ele>
        <time>2016-05-06T07:49:43Z</time>
      </trkpt>
      <trkpt lat="50.63522" lon="2.72994">
        <ele>21.7</ele>
        <time>2016-05-06T07:49:44Z</time>
      </trkpt>
      <trkpt lat="50.63525" lon="2.72979">
        <ele>21.7</ele>
        <time>2016-05-06T07:49:45Z</time>
      </trkpt>
      <trkpt lat="50.63527" lon="2.72963">
        <ele>21.8</ele>
        <time>2016-05-06T07:49:46Z</time>
      </trkpt>
      <trkpt lat="50.6353" lon="2.72947">
        <ele>21.8</ele>
        <time>2016-05-06T07:49:47Z</time>
      </trkpt>
      <trkpt lat="50.63532" lon="2.72931">
        <ele>21.8</ele>
        <time>2016-05-06T07:49:48Z</time>
      </trkpt>
      <trkpt lat="50.63534" lon="2.72915">
        <ele>21.8</ele>
        <time>2016-05-06T07:49:49Z</time>
      </trkpt>
      <trkpt lat="50.63536" lon="2.72898">
        <ele>21.8</ele>
        <time>2016-05-06T07:49:50Z</time>
      </trkpt>
      <trkpt lat="50.63538" lon="2.72882">
        <ele>21.8</ele>
        <time>2016-05-06T07:49:51Z</time>
      </trkpt>
      <trkpt lat="50.63539" lon="2.72866">
        <ele>21.8</ele>
        <time>2016-05-06T07:49:52Z</time>
      </trkpt>
      <trkpt lat="50.63541" lon="2.7285">
        <ele>21.9</ele>
        <time>2016-05-06T07:49:53Z</time>
      </trkpt>
      <trkpt lat="50.63542" lon="2.72834">
        <ele>21.9</ele>
        <time>2016-05-06T07:49:54Z</time>
      </trkpt>
      <trkpt lat="50.63543" lon="2.72818">
        <ele>21.9</ele>
        <time>2016-05-06T07:49:55Z</time>
      </trkpt>
      <trkpt lat="50.63544" lon="2.72801">
        <ele>21.9</ele>
        <time>2016-05-06T07:49:56Z</time>
      </trkpt>
      <trkpt lat="50.63544" lon="2.72785">
        <ele>21.9</ele>
        <time>2016-05-06T07:49:57Z</time>
      </trkpt>
      <trkpt lat="50.63545" lon="2.72769">
        <ele>21.9</ele>
        <time>2016-05-06T07:49:58Z</time>
      </trkpt>
      <trkpt lat="50.63545" lon="2.72754">
        <ele>21.9</ele>
        <time>2016-05-06T07:49:59Z</time>
      </trkpt>
      <trkpt lat="50.63545" lon="2.72739">
        <ele>21.9</ele>
        <time>2016-05-06T07:50:00Z</time>
      </trkpt>
      <trkpt lat="50.63545" lon="2.72723">
        <ele>21.9</ele>
        <time>2016-05-06T07:50:01Z</time>
      </trkpt>
      <trkpt lat="50.63545" lon="2.72708">
        <ele>22</ele>
        <time>2016-05-06T07:50:02Z</time>
      </trkpt>
      <trkpt lat="50.63544" lon="2.72693">
        <ele>22</ele>
        <time>2016-05-06T07:50:03Z</time>
      </trkpt>
      <trkpt lat="50.63544" lon="2.72678">
        <ele>22</ele>
        <time>2016-05-06T07:50:04Z</time>
      </trkpt>
      <trkpt lat="50.63543" lon="2.72663">
        <ele>22</ele>
        <time>2016-05-06T07:50:05Z</time>
      </trkpt>
      <trkpt lat="50.63542" lon="2.72648">
        <ele>22</ele>
        <time>2016-05-06T07:50:06Z</time>
      </trkpt>
      <trkpt lat="50.63541" lon="2.72633">
        <ele>22</ele>
        <time>2016-05-06T07:50:07Z</time>
      </trkpt>
      <trkpt lat="50.6354" lon="2.72619">
        <ele>22.1</ele>
        <time>2016-05-06T07:50:08Z</time>
      </trkpt>
      <trkpt lat="50.63539" lon="2.72604">
        <ele>22.1</ele>
        <time>2016-05-06T07:50:09Z</time>
      </trkpt>
      <trkpt lat="50.63537" lon="2.7259">
        <ele>22.1</ele>
        <time>2016-05-06T07:50:10Z</time>
      </trkpt>
      <trkpt lat="50.63536" lon="2.72576">
        <ele>22.1</ele>
        <time>2016-05-06T07:50:11Z</time>
      </trkpt>
      <trkpt lat="50.63534" lon="2.72561">
        <ele>22.1</ele>
        <time>2016-05-06T07:50:12Z</time>
      </trkpt>
      <trkpt lat="50.63532" lon="2.72547">
        <ele>22.1</ele>
        <time>2016-05-06T07:50:13Z</time>
      </trkpt>
      <trkpt lat="50.6353" lon="2.72533">
        <ele>22.2</ele>
        <time>2016-05-06T07:50:14Z</time>
      </trkpt>
      <trkpt lat="50.63526" lon="2.72506">
        <ele>22.2</ele>
        <time>2016-05-06T07:50:16Z</time>
      </trkpt>
      <trkpt lat="50.63521" lon="2.7248">
        <ele>22.2</ele>
        <time>2016-05-06T07:50:18Z</time>
      </trkpt>
      <trkpt lat="50.63516" lon="2.72453">
        <ele>22.2</ele>
        <time>2016-05-06T07:50:20Z</time>
      </trkpt>
      <trkpt lat="50.6351" lon="2.72427">
        <ele>22.3</ele>
        <time>2016-05-06T07:50:22Z</time>
      </trkpt>
      <trkpt lat="50.63504" lon="2.72402">
        <ele>22.3</ele>
        <time>2016-05-06T07:50:24Z</time>
      </trkpt>
      <trkpt lat="50.63497" lon="2.72377">
        <ele>22.3</ele>
        <time>2016-05-06T07:50:26Z</time>
      </trkpt>
      <trkpt lat="50.6349" lon="2.72351">
        <ele>22.3</ele>
        <time>2016-05-06T07:50:28Z</time>
      </trkpt>
      <trkpt lat="50.63482" lon="2.72327">
        <ele>22.3</ele>
        <time>2016-05-06T07:50:30Z</time>
      </trkpt>
      <trkpt lat="50.63474" lon="2.72303">
        <ele>22.3</ele>
        <time>2016-05-06T07:50:32Z</time>
      </trkpt>
      <trkpt lat="50.63466" lon="2.7228">
        <ele>22.3</ele>
        <time>2016-05-06T07:50:34Z</time>
      </trkpt>
      <trkpt lat="50.63458" lon="2.72258">
        <ele>22.4</ele>
        <time>2016-05-06T07:50:36Z</time>
      </trkpt>
      <trkpt lat="50.63449" lon="2.72236">
        <ele>22.4</ele>
        <time>2016-05-06T07:50:38Z</time>
      </trkpt>
      <trkpt lat="50.63441" lon="2.72214">
        <ele>22.4</ele>
        <time>2016-05-06T07:50:40Z</time>
      </trkpt>
      <trkpt lat="50.63432" lon="2.72192">
        <ele>22.5</ele>
        <time>2016-05-06T07:50:42Z</time>
      </trkpt>
      <trkpt lat="50.63423" lon="2.72169">
        <ele>22.6</ele>
        <time>2016-05-06T07:50:44Z</time>
      </trkpt>
      <trkpt lat="50.63414" lon="2.72146">
        <ele>22.7</ele>
        <time>2016-05-06T07:50:46Z</time>
      </trkpt>
      <trkpt lat="50.63406" lon="2.72122">
        <ele>22.6</ele>
        <time>2016-05-06T07:50:48Z</time>
      </trkpt>
      <trkpt lat="50.63397" lon="2.72098">
        <ele>22.6</ele>
        <time>2016-05-06T07:50:50Z</time>
      </trkpt>
      <trkpt lat="50.6339" lon="2.72074">
        <ele>22.6</ele>
        <time>2016-05-06T07:50:52Z</time>
      </trkpt>
      <trkpt lat="50.63383" lon="2.72052">
        <ele>22.5</ele>
        <time>2016-05-06T07:50:54Z</time>
      </trkpt>
      <trkpt lat="50.63381" lon="2.72029">
        <ele>22.5</ele>
        <time>2016-05-06T07:50:56Z</time>
      </trkpt>
      <trkpt lat="50.6338" lon="2.72006">
        <ele>22.4</ele>
        <time>2016-05-06T07:50:58Z</time>
      </trkpt>
      <trkpt lat="50.63375" lon="2.71987">
        <ele>22.4</ele>
        <time>2016-05-06T07:51:00Z</time>
      </trkpt>
      <trkpt lat="50.63364" lon="2.71972">
        <ele>22.3</ele>
        <time>2016-05-06T07:51:02Z</time>
      </trkpt>
      <trkpt lat="50.63351" lon="2.71961">
        <ele>22.3</ele>
        <time>2016-05-06T07:51:04Z</time>
      </trkpt>
      <trkpt lat="50.63339" lon="2.71947">
        <ele>22.3</ele>
        <time>2016-05-06T07:51:06Z</time>
      </trkpt>
      <trkpt lat="50.6333" lon="2.71927">
        <ele>22.3</ele>
        <time>2016-05-06T07:51:08Z</time>
      </trkpt>
      <trkpt lat="50.63322" lon="2.71907">
        <ele>22.2</ele>
        <time>2016-05-06T07:51:10Z</time>
      </trkpt>
      <trkpt lat="50.63314" lon="2.71886">
        <ele>22.2</ele>
        <time>2016-05-06T07:51:12Z</time>
      </trkpt>
      <trkpt lat="50.63306" lon="2.71866">
        <ele>22.2</ele>
        <time>2016-05-06T07:51:14Z</time>
      </trkpt>
      <trkpt lat="50.63299" lon="2.71845">
        <ele>22.2</ele>
        <time>2016-05-06T07:51:16Z</time>
      </trkpt>
      <trkpt lat="50.63291" lon="2.71823">
        <ele>22.2</ele>
        <time>2016-05-06T07:51:18Z</time>
      </trkpt>
      <trkpt lat="50.63284" lon="2.71801">
        <ele>22.2</ele>
        <time>2016-05-06T07:51:20Z</time>
      </trkpt>
      <trkpt lat="50.63277" lon="2.71779">
        <ele>22.2</ele>
        <time>2016-05-06T07:51:22Z</time>
      </trkpt>
      <trkpt lat="50.63269" lon="2.71756">
        <ele>22.1</ele>
        <time>2016-05-06T07:51:24Z</time>
      </trkpt>
      <trkpt lat="50.63262" lon="2.71732">
        <ele>22.1</ele>
        <time>2016-05-06T07:51:26Z</time>
      </trkpt>
      <trkpt lat="50.63255" lon="2.71707">
        <ele>22.1</ele>
        <time>2016-05-06T07:51:28Z</time>
      </trkpt>
      <trkpt lat="50.63248" lon="2.71684">
        <ele>22.2</ele>
        <time>2016-05-06T07:51:30Z</time>
      </trkpt>
      <trkpt lat="50.63241" lon="2.7166">
        <ele>22.2</ele>
        <time>2016-05-06T07:51:32Z</time>
      </trkpt>
      <trkpt lat="50.63234" lon="2.71635">
        <ele>22.2</ele>
        <time>2016-05-06T07:51:34Z</time>
      </trkpt>
      <trkpt lat="50.63227" lon="2.71611">
        <ele>22.3</ele>
        <time>2016-05-06T07:51:36Z</time>
      </trkpt>
      <trkpt lat="50.63221" lon="2.71587">
        <ele>22.3</ele>
        <time>2016-05-06T07:51:38Z</time>
      </trkpt>
      <trkpt lat="50.63214" lon="2.71563">
        <ele>22.3</ele>
        <time>2016-05-06T07:51:40Z</time>
      </trkpt>
      <trkpt lat="50.63207" lon="2.7154">
        <ele>22.3</ele>
        <time>2016-05-06T07:51:42Z</time>
      </trkpt>
      <trkpt lat="50.63201" lon="2.71517">
        <ele>22.4</ele>
        <time>2016-05-06T07:51:44Z</time>
      </trkpt>
      <trkpt lat="50.63194" lon="2.71494">
        <ele>22.4</ele>
        <time>2016-05-06T07:51:46Z</time>
      </trkpt>
      <trkpt lat="50.63188" lon="2.71471">
        <ele>22.4</ele>
        <time>2016-05-06T07:51:48Z</time>
      </trkpt>
      <trkpt lat="50.63181" lon="2.71447">
        <ele>22.4</ele>
        <time>2016-05-06T07:51:50Z</time>
      </trkpt>
      <trkpt lat="50.63174" lon="2.71423">
        <ele>22.4</ele>
        <time>2016-05-06T07:51:52Z</time>
      </trkpt>
      <trkpt lat="50.63167" lon="2.71398">
        <ele>22.4</ele>
        <time>2016-05-06T07:51:54Z</time>
      </trkpt>
      <trkpt lat="50.6316" lon="2.71373">
        <ele>22.4</ele>
        <time>2016-05-06T07:51:56Z</time>
      </trkpt>
      <trkpt lat="50.63152" lon="2.71348">
        <ele>22.4</ele>
        <time>2016-05-06T07:51:58Z</time>
      </trkpt>
      <trkpt lat="50.63145" lon="2.71322">
        <ele>22.5</ele>
        <time>2016-05-06T07:52:00Z</time>
      </trkpt>
      <trkpt lat="50.63138" lon="2.71297">
        <ele>22.5</ele>
        <time>2016-05-06T07:52:02Z</time>
      </trkpt>
      <trkpt lat="50.63134" lon="2.71284">
        <ele>22.4</ele>
        <time>2016-05-06T07:52:03Z</time>
      </trkpt>
      <trkpt lat="50.63127" lon="2.71258">
        <ele>22.4</ele>
        <time>2016-05-06T07:52:05Z</time>
      </trkpt>
      <trkpt lat="50.6312" lon="2.71233">
        <ele>22.5</ele>
        <time>2016-05-06T07:52:07Z</time>
      </trkpt>
      <trkpt lat="50.63113" lon="2.71209">
        <ele>22.6</ele>
        <time>2016-05-06T07:52:09Z</time>
      </trkpt>
      <trkpt lat="50.63106" lon="2.71185">
        <ele>22.7</ele>
        <time>2016-05-06T07:52:11Z</time>
      </trkpt>
      <trkpt lat="50.63099" lon="2.71162">
        <ele>22.7</ele>
        <time>2016-05-06T07:52:13Z</time>
      </trkpt>
      <trkpt lat="50.63092" lon="2.71138">
        <ele>22.8</ele>
        <time>2016-05-06T07:52:15Z</time>
      </trkpt>
      <trkpt lat="50.63085" lon="2.71116">
        <ele>22.8</ele>
        <time>2016-05-06T07:52:17Z</time>
      </trkpt>
      <trkpt lat="50.63079" lon="2.71094">
        <ele>22.9</ele>
        <time>2016-05-06T07:52:19Z</time>
      </trkpt>
      <trkpt lat="50.63073" lon="2.71072">
        <ele>22.9</ele>
        <time>2016-05-06T07:52:21Z</time>
      </trkpt>
      <trkpt lat="50.63066" lon="2.71049">
        <ele>22.9</ele>
        <time>2016-05-06T07:52:23Z</time>
      </trkpt>
      <trkpt lat="50.63059" lon="2.71027">
        <ele>22.9</ele>
        <time>2016-05-06T07:52:25Z</time>
      </trkpt>
      <trkpt lat="50.63053" lon="2.71004">
        <ele>22.9</ele>
        <time>2016-05-06T07:52:27Z</time>
      </trkpt>
      <trkpt lat="50.63047" lon="2.70981">
        <ele>22.9</ele>
        <time>2016-05-06T07:52:29Z</time>
      </trkpt>
      <trkpt lat="50.6304" lon="2.70959">
        <ele>22.9</ele>
        <time>2016-05-06T07:52:31Z</time>
      </trkpt>
      <trkpt lat="50.63034" lon="2.70937">
        <ele>22.9</ele>
        <time>2016-05-06T07:52:33Z</time>
      </trkpt>
      <trkpt lat="50.63027" lon="2.70914">
        <ele>22.9</ele>
        <time>2016-05-06T07:52:35Z</time>
      </trkpt>
      <trkpt lat="50.63021" lon="2.7089">
        <ele>22.9</ele>
        <time>2016-05-06T07:52:37Z</time>
      </trkpt>
      <trkpt lat="50.63014" lon="2.70867">
        <ele>22.9</ele>
        <time>2016-05-06T07:52:39Z</time>
      </trkpt>
      <trkpt lat="50.63008" lon="2.70844">
        <ele>22.8</ele>
        <time>2016-05-06T07:52:41Z</time>
      </trkpt>
      <trkpt lat="50.63001" lon="2.7082">
        <ele>22.8</ele>
        <time>2016-05-06T07:52:43Z</time>
      </trkpt>
      <trkpt lat="50.62994" lon="2.70797">
        <ele>22.8</ele>
        <time>2016-05-06T07:52:45Z</time>
      </trkpt>
      <trkpt lat="50.62988" lon="2.70774">
        <ele>22.8</ele>
        <time>2016-05-06T07:52:47Z</time>
      </trkpt>
      <trkpt lat="50.62981" lon="2.70751">
        <ele>22.8</ele>
        <time>2016-05-06T07:52:49Z</time>
      </trkpt>
      <trkpt lat="50.62975" lon="2.70727">
        <ele>22.8</ele>
        <time>2016-05-06T07:52:51Z</time>
      </trkpt>
      <trkpt lat="50.62968" lon="2.70705">
        <ele>22.7</ele>
        <time>2016-05-06T07:52:53Z</time>
      </trkpt>
      <trkpt lat="50.62962" lon="2.70682">
        <ele>22.7</ele>
        <time>2016-05-06T07:52:55Z</time>
      </trkpt>
      <trkpt lat="50.62956" lon="2.7066">
        <ele>22.7</ele>
        <time>2016-05-06T07:52:57Z</time>
      </trkpt>
      <trkpt lat="50.6295" lon="2.70636">
        <ele>22.7</ele>
        <time>2016-05-06T07:52:59Z</time>
      </trkpt>
      <trkpt lat="50.62944" lon="2.70613">
        <ele>22.6</ele>
        <time>2016-05-06T07:53:01Z</time>
      </trkpt>
      <trkpt lat="50.62938" lon="2.7059">
        <ele>22.6</ele>
        <time>2016-05-06T07:53:03Z</time>
      </trkpt>
      <trkpt lat="50.62933" lon="2.70567">
        <ele>22.6</ele>
        <time>2016-05-06T07:53:05Z</time>
      </trkpt>
      <trkpt lat="50.62929" lon="2.70544">
        <ele>22.6</ele>
        <time>2016-05-06T07:53:07Z</time>
      </trkpt>
      <trkpt lat="50.62925" lon="2.70521">
        <ele>22.6</ele>
        <time>2016-05-06T07:53:09Z</time>
      </trkpt>
      <trkpt lat="50.62921" lon="2.70498">
        <ele>22.6</ele>
        <time>2016-05-06T07:53:11Z</time>
      </trkpt>
      <trkpt lat="50.62918" lon="2.70475">
        <ele>22.6</ele>
        <time>2016-05-06T07:53:13Z</time>
      </trkpt>
      <trkpt lat="50.62915" lon="2.70451">
        <ele>22.6</ele>
        <time>2016-05-06T07:53:15Z</time>
      </trkpt>
      <trkpt lat="50.62912" lon="2.70428">
        <ele>22.6</ele>
        <time>2016-05-06T07:53:17Z</time>
      </trkpt>
      <trkpt lat="50.6291" lon="2.70405">
        <ele>22.3</ele>
        <time>2016-05-06T07:53:19Z</time>
      </trkpt>
      <trkpt lat="50.62909" lon="2.70382">
        <ele>22.4</ele>
        <time>2016-05-06T07:53:21Z</time>
      </trkpt>
      <trkpt lat="50.62907" lon="2.70358">
        <ele>22.5</ele>
        <time>2016-05-06T07:53:23Z</time>
      </trkpt>
      <trkpt lat="50.62907" lon="2.70334">
        <ele>22.5</ele>
        <time>2016-05-06T07:53:25Z</time>
      </trkpt>
      <trkpt lat="50.62906" lon="2.70311">
        <ele>22.6</ele>
        <time>2016-05-06T07:53:27Z</time>
      </trkpt>
      <trkpt lat="50.62906" lon="2.70288">
        <ele>22.6</ele>
        <time>2016-05-06T07:53:29Z</time>
      </trkpt>
      <trkpt lat="50.62907" lon="2.70264">
        <ele>22.7</ele>
        <time>2016-05-06T07:53:31Z</time>
      </trkpt>
      <trkpt lat="50.62908" lon="2.70239">
        <ele>22.7</ele>
        <time>2016-05-06T07:53:33Z</time>
      </trkpt>
      <trkpt lat="50.6291" lon="2.70215">
        <ele>22.7</ele>
        <time>2016-05-06T07:53:35Z</time>
      </trkpt>
      <trkpt lat="50.62913" lon="2.70191">
        <ele>22.7</ele>
        <time>2016-05-06T07:53:37Z</time>
      </trkpt>
      <trkpt lat="50.62918" lon="2.70169">
        <ele>22.7</ele>
        <time>2016-05-06T07:53:39Z</time>
      </trkpt>
      <trkpt lat="50.62927" lon="2.70152">
        <ele>22.7</ele>
        <time>2016-05-06T07:53:41Z</time>
      </trkpt>
      <trkpt lat="50.62937" lon="2.70137">
        <ele>22.7</ele>
        <time>2016-05-06T07:53:43Z</time>
      </trkpt>
      <trkpt lat="50.62942" lon="2.70116">
        <ele>22.6</ele>
        <time>2016-05-06T07:53:45Z</time>
      </trkpt>
      <trkpt lat="50.62941" lon="2.70094">
        <ele>22.6</ele>
        <time>2016-05-06T07:53:47Z</time>
      </trkpt>
      <trkpt lat="50.6294" lon="2.70072">
        <ele>22.6</ele>
        <time>2016-05-06T07:53:49Z</time>
      </trkpt>
      <trkpt lat="50.62945" lon="2.70051">
        <ele>22.6</ele>
        <time>2016-05-06T07:53:51Z</time>
      </trkpt>
      <trkpt lat="50.62953" lon="2.70031">
        <ele>22.6</ele>
        <time>2016-05-06T07:53:53Z</time>
      </trkpt>
      <trkpt lat="50.62961" lon="2.70009">
        <ele>22.6</ele>
        <time>2016-05-06T07:53:55Z</time>
      </trkpt>
      <trkpt lat="50.62969" lon="2.69986">
        <ele>22.6</ele>
        <time>2016-05-06T07:53:57Z</time>
      </trkpt>
      <trkpt lat="50.62976" lon="2.69964">
        <ele>22.6</ele>
        <time>2016-05-06T07:53:59Z</time>
      </trkpt>
      <trkpt lat="50.62984" lon="2.69941">
        <ele>22.6</ele>
        <time>2016-05-06T07:54:01Z</time>
      </trkpt>
      <trkpt lat="50.62988" lon="2.69928">
        <ele>22.5</ele>
        <time>2016-05-06T07:54:02Z</time>
      </trkpt>
      <trkpt lat="50.62996" lon="2.69904">
        <ele>22.5</ele>
        <time>2016-05-06T07:54:04Z</time>
      </trkpt>
      <trkpt lat="50.63003" lon="2.6988">
        <ele>22.5</ele>
        <time>2016-05-06T07:54:06Z</time>
      </trkpt>
      <trkpt lat="50.6301" lon="2.69856">
        <ele>22.6</ele>
        <time>2016-05-06T07:54:08Z</time>
      </trkpt>
      <trkpt lat="50.63017" lon="2.69832">
        <ele>22.7</ele>
        <time>2016-05-06T07:54:10Z</time>
      </trkpt>
      <trkpt lat="50.63024" lon="2.69807">
        <ele>22.7</ele>
        <time>2016-05-06T07:54:12Z</time>
      </trkpt>
      <trkpt lat="50.6303" lon="2.69783">
        <ele>22.8</ele>
        <time>2016-05-06T07:54:14Z</time>
      </trkpt>
      <trkpt lat="50.63036" lon="2.6976">
        <ele>22.8</ele>
        <time>2016-05-06T07:54:16Z</time>
      </trkpt>
      <trkpt lat="50.63041" lon="2.69735">
        <ele>22.8</ele>
        <time>2016-05-06T07:54:18Z</time>
      </trkpt>
      <trkpt lat="50.63046" lon="2.69711">
        <ele>22.9</ele>
        <time>2016-05-06T07:54:20Z</time>
      </trkpt>
      <trkpt lat="50.6305" lon="2.69686">
        <ele>22.9</ele>
        <time>2016-05-06T07:54:22Z</time>
      </trkpt>
      <trkpt lat="50.63054" lon="2.6966">
        <ele>22.9</ele>
        <time>2016-05-06T07:54:24Z</time>
      </trkpt>
      <trkpt lat="50.63058" lon="2.69635">
        <ele>23</ele>
        <time>2016-05-06T07:54:26Z</time>
      </trkpt>
      <trkpt lat="50.63062" lon="2.69609">
        <ele>23</ele>
        <time>2016-05-06T07:54:28Z</time>
      </trkpt>
      <trkpt lat="50.63066" lon="2.69583">
        <ele>23</ele>
        <time>2016-05-06T07:54:30Z</time>
      </trkpt>
      <trkpt lat="50.63069" lon="2.69557">
        <ele>23</ele>
        <time>2016-05-06T07:54:32Z</time>
      </trkpt>
      <trkpt lat="50.63072" lon="2.69531">
        <ele>23.1</ele>
        <time>2016-05-06T07:54:34Z</time>
      </trkpt>
      <trkpt lat="50.63074" lon="2.69504">
        <ele>23.1</ele>
        <time>2016-05-06T07:54:36Z</time>
      </trkpt>
      <trkpt lat="50.63076" lon="2.69477">
        <ele>23.1</ele>
        <time>2016-05-06T07:54:38Z</time>
      </trkpt>
      <trkpt lat="50.63078" lon="2.69451">
        <ele>23.1</ele>
        <time>2016-05-06T07:54:40Z</time>
      </trkpt>
      <trkpt lat="50.63081" lon="2.69425">
        <ele>23.1</ele>
        <time>2016-05-06T07:54:42Z</time>
      </trkpt>
      <trkpt lat="50.63083" lon="2.69399">
        <ele>23.1</ele>
        <time>2016-05-06T07:54:44Z</time>
      </trkpt>
      <trkpt lat="50.63085" lon="2.69373">
        <ele>23.1</ele>
        <time>2016-05-06T07:54:46Z</time>
      </trkpt>
      <trkpt lat="50.63087" lon="2.69348">
        <ele>23.1</ele>
        <time>2016-05-06T07:54:48Z</time>
      </trkpt>
      <trkpt lat="50.63089" lon="2.69324">
        <ele>23.1</ele>
        <time>2016-05-06T07:54:50Z</time>
      </trkpt>
      <trkpt lat="50.63091" lon="2.693">
        <ele>23.1</ele>
        <time>2016-05-06T07:54:52Z</time>
      </trkpt>
      <trkpt lat="50.63094" lon="2.69275">
        <ele>23.2</ele>
        <time>2016-05-06T07:54:54Z</time>
      </trkpt>
      <trkpt lat="50.63096" lon="2.69251">
        <ele>23.2</ele>
        <time>2016-05-06T07:54:56Z</time>
      </trkpt>
      <trkpt lat="50.63098" lon="2.69227">
        <ele>23.3</ele>
        <time>2016-05-06T07:54:58Z</time>
      </trkpt>
      <trkpt lat="50.63099" lon="2.69202">
        <ele>23.3</ele>
        <time>2016-05-06T07:55:00Z</time>
      </trkpt>
      <trkpt lat="50.63101" lon="2.69178">
        <ele>23.3</ele>
        <time>2016-05-06T07:55:02Z</time>
      </trkpt>
      <trkpt lat="50.63103" lon="2.69153">
        <ele>23.4</ele>
        <time>2016-05-06T07:55:04Z</time>
      </trkpt>
      <trkpt lat="50.63105" lon="2.69129">
        <ele>23.4</ele>
        <time>2016-05-06T07:55:06Z</time>
      </trkpt>
      <trkpt lat="50.63107" lon="2.69104">
        <ele>23.4</ele>
        <time>2016-05-06T07:55:08Z</time>
      </trkpt>
      <trkpt lat="50.63109" lon="2.69079">
        <ele>23.4</ele>
        <time>2016-05-06T07:55:10Z</time>
      </trkpt>
      <trkpt lat="50.63112" lon="2.69055">
        <ele>23.5</ele>
        <time>2016-05-06T07:55:12Z</time>
      </trkpt>
      <trkpt lat="50.63114" lon="2.6903">
        <ele>23.5</ele>
        <time>2016-05-06T07:55:14Z</time>
      </trkpt>
      <trkpt lat="50.63116" lon="2.69005">
        <ele>23.5</ele>
        <time>2016-05-06T07:55:16Z</time>
      </trkpt>
      <trkpt lat="50.63118" lon="2.68979">
        <ele>23.5</ele>
        <time>2016-05-06T07:55:18Z</time>
      </trkpt>
      <trkpt lat="50.6312" lon="2.68955">
        <ele>23.5</ele>
        <time>2016-05-06T07:55:20Z</time>
      </trkpt>
      <trkpt lat="50.63123" lon="2.68929">
        <ele>23.5</ele>
        <time>2016-05-06T07:55:22Z</time>
      </trkpt>
      <trkpt lat="50.63125" lon="2.68903">
        <ele>23.5</ele>
        <time>2016-05-06T07:55:24Z</time>
      </trkpt>
      <trkpt lat="50.63127" lon="2.68877">
        <ele>23.5</ele>
        <time>2016-05-06T07:55:26Z</time>
      </trkpt>
      <trkpt lat="50.63129" lon="2.68851">
        <ele>23.5</ele>
        <time>2016-05-06T07:55:28Z</time>
      </trkpt>
      <trkpt lat="50.63131" lon="2.68825">
        <ele>23.5</ele>
        <time>2016-05-06T07:55:30Z</time>
      </trkpt>
      <trkpt lat="50.63133" lon="2.68798">
        <ele>23.5</ele>
        <time>2016-05-06T07:55:32Z</time>
      </trkpt>
      <trkpt lat="50.63134" lon="2.6877">
        <ele>23.5</ele>
        <time>2016-05-06T07:55:34Z</time>
      </trkpt>
      <trkpt lat="50.63136" lon="2.68743">
        <ele>23.5</ele>
        <time>2016-05-06T07:55:36Z</time>
      </trkpt>
      <trkpt lat="50.63137" lon="2.68716">
        <ele>23.5</ele>
        <time>2016-05-06T07:55:38Z</time>
      </trkpt>
      <trkpt lat="50.63139" lon="2.68688">
        <ele>23.5</ele>
        <time>2016-05-06T07:55:40Z</time>
      </trkpt>
      <trkpt lat="50.6314" lon="2.68674">
        <ele>23.4</ele>
        <time>2016-05-06T07:55:41Z</time>
      </trkpt>
      <trkpt lat="50.63141" lon="2.68659">
        <ele>23.4</ele>
        <time>2016-05-06T07:55:42Z</time>
      </trkpt>
      <trkpt lat="50.63142" lon="2.68644">
        <ele>23.4</ele>
        <time>2016-05-06T07:55:43Z</time>
      </trkpt>
      <trkpt lat="50.63143" lon="2.68629">
        <ele>23.4</ele>
        <time>2016-05-06T07:55:44Z</time>
      </trkpt>
      <trkpt lat="50.63143" lon="2.68613">
        <ele>23.4</ele>
        <time>2016-05-06T07:55:45Z</time>
      </trkpt>
      <trkpt lat="50.63144" lon="2.68598">
        <ele>23.4</ele>
        <time>2016-05-06T07:55:46Z</time>
      </trkpt>
      <trkpt lat="50.63145" lon="2.68583">
        <ele>23.4</ele>
        <time>2016-05-06T07:55:47Z</time>
      </trkpt>
      <trkpt lat="50.63146" lon="2.68568">
        <ele>23.4</ele>
        <time>2016-05-06T07:55:48Z</time>
      </trkpt>
      <trkpt lat="50.63147" lon="2.68553">
        <ele>23.4</ele>
        <time>2016-05-06T07:55:49Z</time>
      </trkpt>
      <trkpt lat="50.63147" lon="2.68538">
        <ele>23.4</ele>
        <time>2016-05-06T07:55:50Z</time>
      </trkpt>
      <trkpt lat="50.63148" lon="2.68523">
        <ele>23.4</ele>
        <time>2016-05-06T07:55:51Z</time>
      </trkpt>
      <trkpt lat="50.63149" lon="2.68508">
        <ele>23.3</ele>
        <time>2016-05-06T07:55:52Z</time>
      </trkpt>
      <trkpt lat="50.6315" lon="2.68494">
        <ele>23.3</ele>
        <time>2016-05-06T07:55:53Z</time>
      </trkpt>
      <trkpt lat="50.63151" lon="2.6848">
        <ele>23.3</ele>
        <time>2016-05-06T07:55:54Z</time>
      </trkpt>
      <trkpt lat="50.63151" lon="2.68466">
        <ele>23.3</ele>
        <time>2016-05-06T07:55:55Z</time>
      </trkpt>
      <trkpt lat="50.63153" lon="2.68438">
        <ele>23.3</ele>
        <time>2016-05-06T07:55:57Z</time>
      </trkpt>
      <trkpt lat="50.63153" lon="2.68423">
        <ele>23.3</ele>
        <time>2016-05-06T07:55:58Z</time>
      </trkpt>
      <trkpt lat="50.63154" lon="2.68395">
        <ele>23.2</ele>
        <time>2016-05-06T07:56:00Z</time>
      </trkpt>
      <trkpt lat="50.63153" lon="2.68368">
        <ele>23.2</ele>
        <time>2016-05-06T07:56:02Z</time>
      </trkpt>
      <trkpt lat="50.63151" lon="2.68342">
        <ele>23.1</ele>
        <time>2016-05-06T07:56:04Z</time>
      </trkpt>
      <trkpt lat="50.63149" lon="2.68316">
        <ele>23</ele>
        <time>2016-05-06T07:56:06Z</time>
      </trkpt>
      <trkpt lat="50.63147" lon="2.6829">
        <ele>22.9</ele>
        <time>2016-05-06T07:56:08Z</time>
      </trkpt>
      <trkpt lat="50.63143" lon="2.68263">
        <ele>22.9</ele>
        <time>2016-05-06T07:56:10Z</time>
      </trkpt>
      <trkpt lat="50.63139" lon="2.68237">
        <ele>22.9</ele>
        <time>2016-05-06T07:56:12Z</time>
      </trkpt>
      <trkpt lat="50.63133" lon="2.68211">
        <ele>22.9</ele>
        <time>2016-05-06T07:56:14Z</time>
      </trkpt>
      <trkpt lat="50.6313" lon="2.68197">
        <ele>23.3</ele>
        <time>2016-05-06T07:56:15Z</time>
      </trkpt>
      <trkpt lat="50.63126" lon="2.68183">
        <ele>23.7</ele>
        <time>2016-05-06T07:56:16Z</time>
      </trkpt>
      <trkpt lat="50.63119" lon="2.68159">
        <ele>23.9</ele>
        <time>2016-05-06T07:56:18Z</time>
      </trkpt>
      <trkpt lat="50.63113" lon="2.68137">
        <ele>24</ele>
        <time>2016-05-06T07:56:20Z</time>
      </trkpt>
      <trkpt lat="50.63106" lon="2.68114">
        <ele>24</ele>
        <time>2016-05-06T07:56:22Z</time>
      </trkpt>
      <trkpt lat="50.63099" lon="2.6809">
        <ele>24</ele>
        <time>2016-05-06T07:56:24Z</time>
      </trkpt>
      <trkpt lat="50.63092" lon="2.68066">
        <ele>24</ele>
        <time>2016-05-06T07:56:26Z</time>
      </trkpt>
      <trkpt lat="50.63085" lon="2.68041">
        <ele>23.9</ele>
        <time>2016-05-06T07:56:28Z</time>
      </trkpt>
      <trkpt lat="50.63079" lon="2.68016">
        <ele>23.8</ele>
        <time>2016-05-06T07:56:30Z</time>
      </trkpt>
      <trkpt lat="50.63074" lon="2.67991">
        <ele>23.7</ele>
        <time>2016-05-06T07:56:32Z</time>
      </trkpt>
      <trkpt lat="50.6307" lon="2.67966">
        <ele>23.6</ele>
        <time>2016-05-06T07:56:34Z</time>
      </trkpt>
      <trkpt lat="50.63068" lon="2.67942">
        <ele>23.5</ele>
        <time>2016-05-06T07:56:36Z</time>
      </trkpt>
      <trkpt lat="50.63067" lon="2.6792">
        <ele>23.5</ele>
        <time>2016-05-06T07:56:38Z</time>
      </trkpt>
      <trkpt lat="50.6307" lon="2.679">
        <ele>23.4</ele>
        <time>2016-05-06T07:56:40Z</time>
      </trkpt>
      <trkpt lat="50.63077" lon="2.67884">
        <ele>23.3</ele>
        <time>2016-05-06T07:56:42Z</time>
      </trkpt>
      <trkpt lat="50.63084" lon="2.67866">
        <ele>23.2</ele>
        <time>2016-05-06T07:56:44Z</time>
      </trkpt>
      <trkpt lat="50.63084" lon="2.67845">
        <ele>23.2</ele>
        <time>2016-05-06T07:56:46Z</time>
      </trkpt>
      <trkpt lat="50.63079" lon="2.67826">
        <ele>23.2</ele>
        <time>2016-05-06T07:56:48Z</time>
      </trkpt>
      <trkpt lat="50.63069" lon="2.67811">
        <ele>23.2</ele>
        <time>2016-05-06T07:56:50Z</time>
      </trkpt>
      <trkpt lat="50.63057" lon="2.67799">
        <ele>23.3</ele>
        <time>2016-05-06T07:56:52Z</time>
      </trkpt>
      <trkpt lat="50.63047" lon="2.67782">
        <ele>23.3</ele>
        <time>2016-05-06T07:56:54Z</time>
      </trkpt>
      <trkpt lat="50.63041" lon="2.67762">
        <ele>23.3</ele>
        <time>2016-05-06T07:56:56Z</time>
      </trkpt>
      <trkpt lat="50.63036" lon="2.6774">
        <ele>23.4</ele>
        <time>2016-05-06T07:56:58Z</time>
      </trkpt>
      <trkpt lat="50.63032" lon="2.67718">
        <ele>23.4</ele>
        <time>2016-05-06T07:57:00Z</time>
      </trkpt>
      <trkpt lat="50.63027" lon="2.67697">
        <ele>23.4</ele>
        <time>2016-05-06T07:57:02Z</time>
      </trkpt>
      <trkpt lat="50.63023" lon="2.67674">
        <ele>23.4</ele>
        <time>2016-05-06T07:57:04Z</time>
      </trkpt>
      <trkpt lat="50.6302" lon="2.6765">
        <ele>23.5</ele>
        <time>2016-05-06T07:57:06Z</time>
      </trkpt>
      <trkpt lat="50.63016" lon="2.67626">
        <ele>23.5</ele>
        <time>2016-05-06T07:57:08Z</time>
      </trkpt>
      <trkpt lat="50.63013" lon="2.67602">
        <ele>23.5</ele>
        <time>2016-05-06T07:57:10Z</time>
      </trkpt>
      <trkpt lat="50.6301" lon="2.67578">
        <ele>23.5</ele>
        <time>2016-05-06T07:57:12Z</time>
      </trkpt>
      <trkpt lat="50.63007" lon="2.67554">
        <ele>23.4</ele>
        <time>2016-05-06T07:57:14Z</time>
      </trkpt>
      <trkpt lat="50.63004" lon="2.6753">
        <ele>23.4</ele>
        <time>2016-05-06T07:57:16Z</time>
      </trkpt>
      <trkpt lat="50.63001" lon="2.67505">
        <ele>23.4</ele>
        <time>2016-05-06T07:57:18Z</time>
      </trkpt>
      <trkpt lat="50.63" lon="2.67479">
        <ele>23.4</ele>
        <time>2016-05-06T07:57:20Z</time>
      </trkpt>
      <trkpt lat="50.62998" lon="2.67452">
        <ele>23.4</ele>
        <time>2016-05-06T07:57:22Z</time>
      </trkpt>
      <trkpt lat="50.62997" lon="2.67426">
        <ele>23.3</ele>
        <time>2016-05-06T07:57:24Z</time>
      </trkpt>
      <trkpt lat="50.62996" lon="2.67399">
        <ele>23.3</ele>
        <time>2016-05-06T07:57:26Z</time>
      </trkpt>
      <trkpt lat="50.62995" lon="2.67372">
        <ele>23.3</ele>
        <time>2016-05-06T07:57:28Z</time>
      </trkpt>
      <trkpt lat="50.62994" lon="2.67345">
        <ele>23.3</ele>
        <time>2016-05-06T07:57:30Z</time>
      </trkpt>
      <trkpt lat="50.62994" lon="2.67318">
        <ele>23.3</ele>
        <time>2016-05-06T07:57:32Z</time>
      </trkpt>
      <trkpt lat="50.62994" lon="2.67291">
        <ele>23.3</ele>
        <time>2016-05-06T07:57:34Z</time>
      </trkpt>
      <trkpt lat="50.62993" lon="2.67264">
        <ele>23.3</ele>
        <time>2016-05-06T07:57:36Z</time>
      </trkpt>
      <trkpt lat="50.62993" lon="2.67238">
        <ele>23.3</ele>
        <time>2016-05-06T07:57:38Z</time>
      </trkpt>
      <trkpt lat="50.62992" lon="2.67212">
        <ele>23.4</ele>
        <time>2016-05-06T07:57:40Z</time>
      </trkpt>
      <trkpt lat="50.62992" lon="2.67186">
        <ele>23.4</ele>
        <time>2016-05-06T07:57:42Z</time>
      </trkpt>
      <trkpt lat="50.62991" lon="2.6716">
        <ele>23.4</ele>
        <time>2016-05-06T07:57:44Z</time>
      </trkpt>
      <trkpt lat="50.62991" lon="2.67134">
        <ele>23.4</ele>
        <time>2016-05-06T07:57:46Z</time>
      </trkpt>
      <trkpt lat="50.62991" lon="2.67108">
        <ele>23.4</ele>
        <time>2016-05-06T07:57:48Z</time>
      </trkpt>
      <trkpt lat="50.6299" lon="2.67082">
        <ele>23.4</ele>
        <time>2016-05-06T07:57:50Z</time>
      </trkpt>
      <trkpt lat="50.6299" lon="2.67055">
        <ele>23.4</ele>
        <time>2016-05-06T07:57:52Z</time>
      </trkpt>
      <trkpt lat="50.62989" lon="2.67029">
        <ele>23.4</ele>
        <time>2016-05-06T07:57:54Z</time>
      </trkpt>
      <trkpt lat="50.62989" lon="2.67003">
        <ele>23.5</ele>
        <time>2016-05-06T07:57:56Z</time>
      </trkpt>
      <trkpt lat="50.62988" lon="2.66976">
        <ele>23.5</ele>
        <time>2016-05-06T07:57:58Z</time>
      </trkpt>
      <trkpt lat="50.62988" lon="2.6695">
        <ele>23.5</ele>
        <time>2016-05-06T07:58:00Z</time>
      </trkpt>
      <trkpt lat="50.62987" lon="2.66924">
        <ele>23.5</ele>
        <time>2016-05-06T07:58:02Z</time>
      </trkpt>
      <trkpt lat="50.62986" lon="2.66898">
        <ele>23.5</ele>
        <time>2016-05-06T07:58:04Z</time>
      </trkpt>
      <trkpt lat="50.62986" lon="2.66872">
        <ele>23.5</ele>
        <time>2016-05-06T07:58:06Z</time>
      </trkpt>
      <trkpt lat="50.62986" lon="2.66847">
        <ele>23.5</ele>
        <time>2016-05-06T07:58:08Z</time>
      </trkpt>
      <trkpt lat="50.62986" lon="2.66821">
        <ele>23.5</ele>
        <time>2016-05-06T07:58:10Z</time>
      </trkpt>
      <trkpt lat="50.62987" lon="2.66796">
        <ele>23.5</ele>
        <time>2016-05-06T07:58:12Z</time>
      </trkpt>
      <trkpt lat="50.62987" lon="2.66772">
        <ele>23.5</ele>
        <time>2016-05-06T07:58:14Z</time>
      </trkpt>
      <trkpt lat="50.62988" lon="2.66747">
        <ele>23.4</ele>
        <time>2016-05-06T07:58:16Z</time>
      </trkpt>
      <trkpt lat="50.62989" lon="2.66723">
        <ele>23.4</ele>
        <time>2016-05-06T07:58:18Z</time>
      </trkpt>
      <trkpt lat="50.6299" lon="2.66699">
        <ele>23.4</ele>
        <time>2016-05-06T07:58:20Z</time>
      </trkpt>
      <trkpt lat="50.62991" lon="2.66675">
        <ele>23.4</ele>
        <time>2016-05-06T07:58:22Z</time>
      </trkpt>
      <trkpt lat="50.62992" lon="2.6665">
        <ele>23.4</ele>
        <time>2016-05-06T07:58:24Z</time>
      </trkpt>
      <trkpt lat="50.62994" lon="2.66626">
        <ele>23.4</ele>
        <time>2016-05-06T07:58:26Z</time>
      </trkpt>
      <trkpt lat="50.62995" lon="2.66601">
        <ele>23.4</ele>
        <time>2016-05-06T07:58:28Z</time>
      </trkpt>
      <trkpt lat="50.62997" lon="2.66576">
        <ele>23.4</ele>
        <time>2016-05-06T07:58:30Z</time>
      </trkpt>
      <trkpt lat="50.63" lon="2.66548">
        <ele>23.5</ele>
        <time>2016-05-06T07:58:32Z</time>
      </trkpt>
      <trkpt lat="50.63003" lon="2.6652">
        <ele>23.5</ele>
        <time>2016-05-06T07:58:34Z</time>
      </trkpt>
      <trkpt lat="50.63006" lon="2.66496">
        <ele>23.5</ele>
        <time>2016-05-06T07:58:36Z</time>
      </trkpt>
      <trkpt lat="50.63009" lon="2.66471">
        <ele>23.5</ele>
        <time>2016-05-06T07:58:38Z</time>
      </trkpt>
      <trkpt lat="50.63016" lon="2.66452">
        <ele>23.5</ele>
        <time>2016-05-06T07:58:40Z</time>
      </trkpt>
      <trkpt lat="50.63025" lon="2.66437">
        <ele>23.5</ele>
        <time>2016-05-06T07:58:42Z</time>
      </trkpt>
      <trkpt lat="50.63031" lon="2.66417">
        <ele>23.5</ele>
        <time>2016-05-06T07:58:44Z</time>
      </trkpt>
      <trkpt lat="50.63029" lon="2.66394">
        <ele>23.4</ele>
        <time>2016-05-06T07:58:46Z</time>
      </trkpt>
      <trkpt lat="50.63021" lon="2.66375">
        <ele>23.5</ele>
        <time>2016-05-06T07:58:48Z</time>
      </trkpt>
      <trkpt lat="50.63015" lon="2.66353">
        <ele>23.5</ele>
        <time>2016-05-06T07:58:50Z</time>
      </trkpt>
      <trkpt lat="50.63014" lon="2.66328">
        <ele>23.5</ele>
        <time>2016-05-06T07:58:52Z</time>
      </trkpt>
      <trkpt lat="50.63015" lon="2.66304">
        <ele>23.5</ele>
        <time>2016-05-06T07:58:54Z</time>
      </trkpt>
      <trkpt lat="50.63016" lon="2.66279">
        <ele>23.5</ele>
        <time>2016-05-06T07:58:56Z</time>
      </trkpt>
      <trkpt lat="50.63018" lon="2.66254">
        <ele>23.5</ele>
        <time>2016-05-06T07:58:58Z</time>
      </trkpt>
      <trkpt lat="50.63019" lon="2.6623">
        <ele>23.5</ele>
        <time>2016-05-06T07:59:00Z</time>
      </trkpt>
      <trkpt lat="50.63021" lon="2.66207">
        <ele>23.5</ele>
        <time>2016-05-06T07:59:02Z</time>
      </trkpt>
      <trkpt lat="50.63023" lon="2.66183">
        <ele>23.5</ele>
        <time>2016-05-06T07:59:04Z</time>
      </trkpt>
      <trkpt lat="50.63025" lon="2.66159">
        <ele>23.5</ele>
        <time>2016-05-06T07:59:06Z</time>
      </trkpt>
      <trkpt lat="50.63027" lon="2.66135">
        <ele>23.5</ele>
        <time>2016-05-06T07:59:08Z</time>
      </trkpt>
      <trkpt lat="50.63028" lon="2.66112">
        <ele>23.5</ele>
        <time>2016-05-06T07:59:10Z</time>
      </trkpt>
      <trkpt lat="50.6303" lon="2.66089">
        <ele>23.5</ele>
        <time>2016-05-06T07:59:12Z</time>
      </trkpt>
      <trkpt lat="50.63032" lon="2.66067">
        <ele>23.5</ele>
        <time>2016-05-06T07:59:14Z</time>
      </trkpt>
      <trkpt lat="50.63034" lon="2.66044">
        <ele>23.4</ele>
        <time>2016-05-06T07:59:16Z</time>
      </trkpt>
      <trkpt lat="50.63036" lon="2.6602">
        <ele>23.4</ele>
        <time>2016-05-06T07:59:18Z</time>
      </trkpt>
      <trkpt lat="50.63037" lon="2.65996">
        <ele>23.4</ele>
        <time>2016-05-06T07:59:20Z</time>
      </trkpt>
      <trkpt lat="50.63039" lon="2.65972">
        <ele>23.4</ele>
        <time>2016-05-06T07:59:22Z</time>
      </trkpt>
      <trkpt lat="50.63041" lon="2.65948">
        <ele>23.4</ele>
        <time>2016-05-06T07:59:24Z</time>
      </trkpt>
      <trkpt lat="50.63042" lon="2.65924">
        <ele>23.4</ele>
        <time>2016-05-06T07:59:26Z</time>
      </trkpt>
      <trkpt lat="50.63044" lon="2.659">
        <ele>23.4</ele>
        <time>2016-05-06T07:59:28Z</time>
      </trkpt>
      <trkpt lat="50.63045" lon="2.65876">
        <ele>23.4</ele>
        <time>2016-05-06T07:59:30Z</time>
      </trkpt>
      <trkpt lat="50.63047" lon="2.65852">
        <ele>23.4</ele>
        <time>2016-05-06T07:59:32Z</time>
      </trkpt>
      <trkpt lat="50.63049" lon="2.65828">
        <ele>23.4</ele>
        <time>2016-05-06T07:59:34Z</time>
      </trkpt>
      <trkpt lat="50.63051" lon="2.65804">
        <ele>23.4</ele>
        <time>2016-05-06T07:59:36Z</time>
      </trkpt>
      <trkpt lat="50.63053" lon="2.6578">
        <ele>23.5</ele>
        <time>2016-05-06T07:59:38Z</time>
      </trkpt>
      <trkpt lat="50.63055" lon="2.65756">
        <ele>23.5</ele>
        <time>2016-05-06T07:59:40Z</time>
      </trkpt>
      <trkpt lat="50.63056" lon="2.65732">
        <ele>23.5</ele>
        <time>2016-05-06T07:59:42Z</time>
      </trkpt>
      <trkpt lat="50.63057" lon="2.65707">
        <ele>23.5</ele>
        <time>2016-05-06T07:59:44Z</time>
      </trkpt>
      <trkpt lat="50.63058" lon="2.65683">
        <ele>23.5</ele>
        <time>2016-05-06T07:59:46Z</time>
      </trkpt>
      <trkpt lat="50.63059" lon="2.65659">
        <ele>23.5</ele>
        <time>2016-05-06T07:59:48Z</time>
      </trkpt>
      <trkpt lat="50.6306" lon="2.65635">
        <ele>23.5</ele>
        <time>2016-05-06T07:59:50Z</time>
      </trkpt>
      <trkpt lat="50.6306" lon="2.65611">
        <ele>23.6</ele>
        <time>2016-05-06T07:59:52Z</time>
      </trkpt>
      <trkpt lat="50.6306" lon="2.65587">
        <ele>23.6</ele>
        <time>2016-05-06T07:59:54Z</time>
      </trkpt>
      <trkpt lat="50.6306" lon="2.65563">
        <ele>23.6</ele>
        <time>2016-05-06T07:59:56Z</time>
      </trkpt>
      <trkpt lat="50.6306" lon="2.6554">
        <ele>23.7</ele>
        <time>2016-05-06T07:59:58Z</time>
      </trkpt>
      <trkpt lat="50.6306" lon="2.65517">
        <ele>23.7</ele>
        <time>2016-05-06T08:00:00Z</time>
      </trkpt>
      <trkpt lat="50.63059" lon="2.65494">
        <ele>23.7</ele>
        <time>2016-05-06T08:00:02Z</time>
      </trkpt>
      <trkpt lat="50.63058" lon="2.65471">
        <ele>23.8</ele>
        <time>2016-05-06T08:00:04Z</time>
      </trkpt>
      <trkpt lat="50.63057" lon="2.65447">
        <ele>23.8</ele>
        <time>2016-05-06T08:00:06Z</time>
      </trkpt>
      <trkpt lat="50.63056" lon="2.65422">
        <ele>23.8</ele>
        <time>2016-05-06T08:00:08Z</time>
      </trkpt>
      <trkpt lat="50.63055" lon="2.65398">
        <ele>23.8</ele>
        <time>2016-05-06T08:00:10Z</time>
      </trkpt>
      <trkpt lat="50.63054" lon="2.65374">
        <ele>23.8</ele>
        <time>2016-05-06T08:00:12Z</time>
      </trkpt>
      <trkpt lat="50.63052" lon="2.6535">
        <ele>23.8</ele>
        <time>2016-05-06T08:00:14Z</time>
      </trkpt>
      <trkpt lat="50.63051" lon="2.65326">
        <ele>23.8</ele>
        <time>2016-05-06T08:00:16Z</time>
      </trkpt>
      <trkpt lat="50.6305" lon="2.65302">
        <ele>23.8</ele>
        <time>2016-05-06T08:00:18Z</time>
      </trkpt>
      <trkpt lat="50.63048" lon="2.65278">
        <ele>23.8</ele>
        <time>2016-05-06T08:00:20Z</time>
      </trkpt>
      <trkpt lat="50.63046" lon="2.65253">
        <ele>23.8</ele>
        <time>2016-05-06T08:00:22Z</time>
      </trkpt>
      <trkpt lat="50.63045" lon="2.65229">
        <ele>23.8</ele>
        <time>2016-05-06T08:00:24Z</time>
      </trkpt>
      <trkpt lat="50.63043" lon="2.65203">
        <ele>23.8</ele>
        <time>2016-05-06T08:00:26Z</time>
      </trkpt>
      <trkpt lat="50.63042" lon="2.65178">
        <ele>23.8</ele>
        <time>2016-05-06T08:00:28Z</time>
      </trkpt>
      <trkpt lat="50.6304" lon="2.65152">
        <ele>23.8</ele>
        <time>2016-05-06T08:00:30Z</time>
      </trkpt>
      <trkpt lat="50.63038" lon="2.65127">
        <ele>23.8</ele>
        <time>2016-05-06T08:00:32Z</time>
      </trkpt>
      <trkpt lat="50.63037" lon="2.65101">
        <ele>23.8</ele>
        <time>2016-05-06T08:00:34Z</time>
      </trkpt>
      <trkpt lat="50.63035" lon="2.65076">
        <ele>23.8</ele>
        <time>2016-05-06T08:00:36Z</time>
      </trkpt>
      <trkpt lat="50.63034" lon="2.65051">
        <ele>23.8</ele>
        <time>2016-05-06T08:00:38Z</time>
      </trkpt>
      <trkpt lat="50.63032" lon="2.65026">
        <ele>23.8</ele>
        <time>2016-05-06T08:00:40Z</time>
      </trkpt>
      <trkpt lat="50.6303" lon="2.65001">
        <ele>23.8</ele>
        <time>2016-05-06T08:00:42Z</time>
      </trkpt>
      <trkpt lat="50.63029" lon="2.64976">
        <ele>23.8</ele>
        <time>2016-05-06T08:00:44Z</time>
      </trkpt>
      <trkpt lat="50.63028" lon="2.64952">
        <ele>23.9</ele>
        <time>2016-05-06T08:00:46Z</time>
      </trkpt>
      <trkpt lat="50.63026" lon="2.64928">
        <ele>24</ele>
        <time>2016-05-06T08:00:48Z</time>
      </trkpt>
      <trkpt lat="50.63025" lon="2.64903">
        <ele>24</ele>
        <time>2016-05-06T08:00:50Z</time>
      </trkpt>
      <trkpt lat="50.63022" lon="2.64879">
        <ele>24.1</ele>
        <time>2016-05-06T08:00:52Z</time>
      </trkpt>
      <trkpt lat="50.6302" lon="2.64856">
        <ele>24.1</ele>
        <time>2016-05-06T08:00:54Z</time>
      </trkpt>
      <trkpt lat="50.63018" lon="2.64832">
        <ele>24.2</ele>
        <time>2016-05-06T08:00:56Z</time>
      </trkpt>
      <trkpt lat="50.63015" lon="2.64809">
        <ele>24.2</ele>
        <time>2016-05-06T08:00:58Z</time>
      </trkpt>
      <trkpt lat="50.63012" lon="2.64785">
        <ele>24.2</ele>
        <time>2016-05-06T08:01:00Z</time>
      </trkpt>
      <trkpt lat="50.63007" lon="2.6476">
        <ele>24.2</ele>
        <time>2016-05-06T08:01:02Z</time>
      </trkpt>
      <trkpt lat="50.63002" lon="2.64737">
        <ele>24.3</ele>
        <time>2016-05-06T08:01:04Z</time>
      </trkpt>
      <trkpt lat="50.62997" lon="2.64714">
        <ele>24.3</ele>
        <time>2016-05-06T08:01:06Z</time>
      </trkpt>
      <trkpt lat="50.62991" lon="2.64691">
        <ele>24.3</ele>
        <time>2016-05-06T08:01:08Z</time>
      </trkpt>
      <trkpt lat="50.62985" lon="2.64669">
        <ele>24.3</ele>
        <time>2016-05-06T08:01:10Z</time>
      </trkpt>
      <trkpt lat="50.62978" lon="2.64648">
        <ele>24.2</ele>
        <time>2016-05-06T08:01:12Z</time>
      </trkpt>
      <trkpt lat="50.62971" lon="2.64628">
        <ele>24.2</ele>
        <time>2016-05-06T08:01:14Z</time>
      </trkpt>
      <trkpt lat="50.62963" lon="2.64608">
        <ele>24.1</ele>
        <time>2016-05-06T08:01:16Z</time>
      </trkpt>
      <trkpt lat="50.62955" lon="2.64589">
        <ele>24.1</ele>
        <time>2016-05-06T08:01:18Z</time>
      </trkpt>
      <trkpt lat="50.62947" lon="2.64571">
        <ele>24</ele>
        <time>2016-05-06T08:01:20Z</time>
      </trkpt>
      <trkpt lat="50.62937" lon="2.64553">
        <ele>24</ele>
        <time>2016-05-06T08:01:22Z</time>
      </trkpt>
      <trkpt lat="50.62928" lon="2.64535">
        <ele>24</ele>
        <time>2016-05-06T08:01:24Z</time>
      </trkpt>
      <trkpt lat="50.62918" lon="2.64518">
        <ele>23.9</ele>
        <time>2016-05-06T08:01:26Z</time>
      </trkpt>
      <trkpt lat="50.62908" lon="2.64501">
        <ele>23.9</ele>
        <time>2016-05-06T08:01:28Z</time>
      </trkpt>
      <trkpt lat="50.62897" lon="2.64484">
        <ele>23.9</ele>
        <time>2016-05-06T08:01:30Z</time>
      </trkpt>
      <trkpt lat="50.62887" lon="2.64466">
        <ele>23.9</ele>
        <time>2016-05-06T08:01:32Z</time>
      </trkpt>
      <trkpt lat="50.62877" lon="2.64449">
        <ele>23.8</ele>
        <time>2016-05-06T08:01:34Z</time>
      </trkpt>
      <trkpt lat="50.62868" lon="2.6443">
        <ele>23.8</ele>
        <time>2016-05-06T08:01:36Z</time>
      </trkpt>
      <trkpt lat="50.62861" lon="2.6441">
        <ele>23.8</ele>
        <time>2016-05-06T08:01:38Z</time>
      </trkpt>
      <trkpt lat="50.62855" lon="2.64389">
        <ele>23.7</ele>
        <time>2016-05-06T08:01:40Z</time>
      </trkpt>
      <trkpt lat="50.6285" lon="2.64367">
        <ele>23.5</ele>
        <time>2016-05-06T08:01:42Z</time>
      </trkpt>
      <trkpt lat="50.62847" lon="2.64344">
        <ele>23.4</ele>
        <time>2016-05-06T08:01:44Z</time>
      </trkpt>
      <trkpt lat="50.62846" lon="2.64323">
        <ele>23.2</ele>
        <time>2016-05-06T08:01:46Z</time>
      </trkpt>
      <trkpt lat="50.62847" lon="2.643">
        <ele>23.1</ele>
        <time>2016-05-06T08:01:48Z</time>
      </trkpt>
      <trkpt lat="50.6285" lon="2.6428">
        <ele>23</ele>
        <time>2016-05-06T08:01:50Z</time>
      </trkpt>
      <trkpt lat="50.62853" lon="2.64259">
        <ele>23</ele>
        <time>2016-05-06T08:01:52Z</time>
      </trkpt>
      <trkpt lat="50.62848" lon="2.64238">
        <ele>22.9</ele>
        <time>2016-05-06T08:01:54Z</time>
      </trkpt>
      <trkpt lat="50.62837" lon="2.64222">
        <ele>22.8</ele>
        <time>2016-05-06T08:01:56Z</time>
      </trkpt>
      <trkpt lat="50.62829" lon="2.64203">
        <ele>22.8</ele>
        <time>2016-05-06T08:01:58Z</time>
      </trkpt>
      <trkpt lat="50.62825" lon="2.6418">
        <ele>22.8</ele>
        <time>2016-05-06T08:02:00Z</time>
      </trkpt>
      <trkpt lat="50.62822" lon="2.64156">
        <ele>22.8</ele>
        <time>2016-05-06T08:02:02Z</time>
      </trkpt>
      <trkpt lat="50.62818" lon="2.64133">
        <ele>22.7</ele>
        <time>2016-05-06T08:02:04Z</time>
      </trkpt>
      <trkpt lat="50.62815" lon="2.6411">
        <ele>22.7</ele>
        <time>2016-05-06T08:02:06Z</time>
      </trkpt>
      <trkpt lat="50.62813" lon="2.64087">
        <ele>22.7</ele>
        <time>2016-05-06T08:02:08Z</time>
      </trkpt>
      <trkpt lat="50.62811" lon="2.64064">
        <ele>22.7</ele>
        <time>2016-05-06T08:02:10Z</time>
      </trkpt>
      <trkpt lat="50.62808" lon="2.6404">
        <ele>22.7</ele>
        <time>2016-05-06T08:02:12Z</time>
      </trkpt>
      <trkpt lat="50.62805" lon="2.64016">
        <ele>22.7</ele>
        <time>2016-05-06T08:02:14Z</time>
      </trkpt>
      <trkpt lat="50.62801" lon="2.63992">
        <ele>22.7</ele>
        <time>2016-05-06T08:02:16Z</time>
      </trkpt>
      <trkpt lat="50.62798" lon="2.63967">
        <ele>22.6</ele>
        <time>2016-05-06T08:02:18Z</time>
      </trkpt>
      <trkpt lat="50.62794" lon="2.63942">
        <ele>22.6</ele>
        <time>2016-05-06T08:02:20Z</time>
      </trkpt>
      <trkpt lat="50.6279" lon="2.63917">
        <ele>22.7</ele>
        <time>2016-05-06T08:02:22Z</time>
      </trkpt>
      <trkpt lat="50.62786" lon="2.63893">
        <ele>22.7</ele>
        <time>2016-05-06T08:02:24Z</time>
      </trkpt>
      <trkpt lat="50.62782" lon="2.63869">
        <ele>22.7</ele>
        <time>2016-05-06T08:02:26Z</time>
      </trkpt>
      <trkpt lat="50.62778" lon="2.63846">
        <ele>22.7</ele>
        <time>2016-05-06T08:02:28Z</time>
      </trkpt>
      <trkpt lat="50.62773" lon="2.63823">
        <ele>22.6</ele>
        <time>2016-05-06T08:02:30Z</time>
      </trkpt>
      <trkpt lat="50.62767" lon="2.63801">
        <ele>22.5</ele>
        <time>2016-05-06T08:02:32Z</time>
      </trkpt>
      <trkpt lat="50.62762" lon="2.6378">
        <ele>22.4</ele>
        <time>2016-05-06T08:02:34Z</time>
      </trkpt>
      <trkpt lat="50.62756" lon="2.63758">
        <ele>22.3</ele>
        <time>2016-05-06T08:02:36Z</time>
      </trkpt>
      <trkpt lat="50.62751" lon="2.63737">
        <ele>22.3</ele>
        <time>2016-05-06T08:02:38Z</time>
      </trkpt>
      <trkpt lat="50.62745" lon="2.63715">
        <ele>22.2</ele>
        <time>2016-05-06T08:02:40Z</time>
      </trkpt>
      <trkpt lat="50.62739" lon="2.63694">
        <ele>22.2</ele>
        <time>2016-05-06T08:02:42Z</time>
      </trkpt>
      <trkpt lat="50.62734" lon="2.63672">
        <ele>22.1</ele>
        <time>2016-05-06T08:02:44Z</time>
      </trkpt>
      <trkpt lat="50.62729" lon="2.63651">
        <ele>22</ele>
        <time>2016-05-06T08:02:46Z</time>
      </trkpt>
      <trkpt lat="50.62723" lon="2.6363">
        <ele>22</ele>
        <time>2016-05-06T08:02:48Z</time>
      </trkpt>
      <trkpt lat="50.62718" lon="2.63608">
        <ele>21.9</ele>
        <time>2016-05-06T08:02:50Z</time>
      </trkpt>
      <trkpt lat="50.62712" lon="2.63587">
        <ele>21.9</ele>
        <time>2016-05-06T08:02:52Z</time>
      </trkpt>
      <trkpt lat="50.62706" lon="2.63566">
        <ele>21.9</ele>
        <time>2016-05-06T08:02:54Z</time>
      </trkpt>
      <trkpt lat="50.62699" lon="2.63545">
        <ele>21.8</ele>
        <time>2016-05-06T08:02:56Z</time>
      </trkpt>
      <trkpt lat="50.62692" lon="2.63524">
        <ele>21.8</ele>
        <time>2016-05-06T08:02:58Z</time>
      </trkpt>
      <trkpt lat="50.62685" lon="2.63503">
        <ele>21.8</ele>
        <time>2016-05-06T08:03:00Z</time>
      </trkpt>
      <trkpt lat="50.62677" lon="2.63482">
        <ele>21.7</ele>
        <time>2016-05-06T08:03:02Z</time>
      </trkpt>
      <trkpt lat="50.62669" lon="2.63461">
        <ele>21.7</ele>
        <time>2016-05-06T08:03:04Z</time>
      </trkpt>
      <trkpt lat="50.62661" lon="2.6344">
        <ele>21.7</ele>
        <time>2016-05-06T08:03:06Z</time>
      </trkpt>
      <trkpt lat="50.62653" lon="2.63418">
        <ele>21.7</ele>
        <time>2016-05-06T08:03:08Z</time>
      </trkpt>
      <trkpt lat="50.62645" lon="2.63396">
        <ele>21.7</ele>
        <time>2016-05-06T08:03:10Z</time>
      </trkpt>
      <trkpt lat="50.62638" lon="2.63374">
        <ele>21.7</ele>
        <time>2016-05-06T08:03:12Z</time>
      </trkpt>
      <trkpt lat="50.62631" lon="2.63352">
        <ele>21.7</ele>
        <time>2016-05-06T08:03:14Z</time>
      </trkpt>
      <trkpt lat="50.62624" lon="2.6333">
        <ele>21.7</ele>
        <time>2016-05-06T08:03:16Z</time>
      </trkpt>
      <trkpt lat="50.62617" lon="2.63307">
        <ele>21.6</ele>
        <time>2016-05-06T08:03:18Z</time>
      </trkpt>
      <trkpt lat="50.62611" lon="2.63285">
        <ele>21.6</ele>
        <time>2016-05-06T08:03:20Z</time>
      </trkpt>
      <trkpt lat="50.62606" lon="2.63262">
        <ele>21.6</ele>
        <time>2016-05-06T08:03:22Z</time>
      </trkpt>
      <trkpt lat="50.626" lon="2.6324">
        <ele>21.6</ele>
        <time>2016-05-06T08:03:24Z</time>
      </trkpt>
      <trkpt lat="50.62595" lon="2.63219">
        <ele>21.6</ele>
        <time>2016-05-06T08:03:26Z</time>
      </trkpt>
      <trkpt lat="50.62591" lon="2.63197">
        <ele>21.7</ele>
        <time>2016-05-06T08:03:28Z</time>
      </trkpt>
      <trkpt lat="50.62587" lon="2.63175">
        <ele>21.7</ele>
        <time>2016-05-06T08:03:30Z</time>
      </trkpt>
      <trkpt lat="50.62584" lon="2.63153">
        <ele>21.8</ele>
        <time>2016-05-06T08:03:32Z</time>
      </trkpt>
      <trkpt lat="50.62581" lon="2.63131">
        <ele>21.8</ele>
        <time>2016-05-06T08:03:34Z</time>
      </trkpt>
      <trkpt lat="50.62578" lon="2.63108">
        <ele>21.9</ele>
        <time>2016-05-06T08:03:36Z</time>
      </trkpt>
      <trkpt lat="50.62575" lon="2.63085">
        <ele>21.9</ele>
        <time>2016-05-06T08:03:38Z</time>
      </trkpt>
      <trkpt lat="50.62572" lon="2.63063">
        <ele>21.9</ele>
        <time>2016-05-06T08:03:40Z</time>
      </trkpt>
      <trkpt lat="50.62569" lon="2.6304">
        <ele>21.9</ele>
        <time>2016-05-06T08:03:42Z</time>
      </trkpt>
      <trkpt lat="50.62567" lon="2.63018">
        <ele>21.9</ele>
        <time>2016-05-06T08:03:44Z</time>
      </trkpt>
      <trkpt lat="50.62564" lon="2.62995">
        <ele>21.8</ele>
        <time>2016-05-06T08:03:46Z</time>
      </trkpt>
      <trkpt lat="50.62562" lon="2.62972">
        <ele>21.8</ele>
        <time>2016-05-06T08:03:48Z</time>
      </trkpt>
      <trkpt lat="50.6256" lon="2.62948">
        <ele>21.8</ele>
        <time>2016-05-06T08:03:50Z</time>
      </trkpt>
      <trkpt lat="50.62559" lon="2.62924">
        <ele>21.8</ele>
        <time>2016-05-06T08:03:52Z</time>
      </trkpt>
      <trkpt lat="50.62558" lon="2.62901">
        <ele>21.8</ele>
        <time>2016-05-06T08:03:54Z</time>
      </trkpt>
      <trkpt lat="50.62557" lon="2.62879">
        <ele>21.8</ele>
        <time>2016-05-06T08:03:56Z</time>
      </trkpt>
      <trkpt lat="50.62557" lon="2.62856">
        <ele>21.8</ele>
        <time>2016-05-06T08:03:58Z</time>
      </trkpt>
      <trkpt lat="50.62555" lon="2.62833">
        <ele>21.8</ele>
        <time>2016-05-06T08:04:00Z</time>
      </trkpt>
      <trkpt lat="50.62551" lon="2.6281">
        <ele>21.8</ele>
        <time>2016-05-06T08:04:02Z</time>
      </trkpt>
      <trkpt lat="50.62545" lon="2.62788">
        <ele>21.8</ele>
        <time>2016-05-06T08:04:04Z</time>
      </trkpt>
      <trkpt lat="50.62537" lon="2.62766">
        <ele>21.8</ele>
        <time>2016-05-06T08:04:06Z</time>
      </trkpt>
      <trkpt lat="50.62527" lon="2.62747">
        <ele>21.8</ele>
        <time>2016-05-06T08:04:08Z</time>
      </trkpt>
      <trkpt lat="50.62517" lon="2.6273">
        <ele>21.8</ele>
        <time>2016-05-06T08:04:10Z</time>
      </trkpt>
      <trkpt lat="50.62509" lon="2.62713">
        <ele>21.8</ele>
        <time>2016-05-06T08:04:12Z</time>
      </trkpt>
      <trkpt lat="50.62501" lon="2.62696">
        <ele>21.8</ele>
        <time>2016-05-06T08:04:14Z</time>
      </trkpt>
      <trkpt lat="50.62495" lon="2.62677">
        <ele>21.7</ele>
        <time>2016-05-06T08:04:16Z</time>
      </trkpt>
      <trkpt lat="50.62489" lon="2.62656">
        <ele>21.7</ele>
        <time>2016-05-06T08:04:18Z</time>
      </trkpt>
      <trkpt lat="50.62484" lon="2.62634">
        <ele>21.7</ele>
        <time>2016-05-06T08:04:20Z</time>
      </trkpt>
      <trkpt lat="50.62482" lon="2.6261">
        <ele>21.7</ele>
        <time>2016-05-06T08:04:22Z</time>
      </trkpt>
      <trkpt lat="50.62481" lon="2.62585">
        <ele>21.7</ele>
        <time>2016-05-06T08:04:24Z</time>
      </trkpt>
      <trkpt lat="50.62481" lon="2.62559">
        <ele>21.7</ele>
        <time>2016-05-06T08:04:26Z</time>
      </trkpt>
      <trkpt lat="50.6248" lon="2.62535">
        <ele>21.7</ele>
        <time>2016-05-06T08:04:28Z</time>
      </trkpt>
      <trkpt lat="50.6248" lon="2.62512">
        <ele>21.7</ele>
        <time>2016-05-06T08:04:30Z</time>
      </trkpt>
      <trkpt lat="50.62479" lon="2.62488">
        <ele>21.7</ele>
        <time>2016-05-06T08:04:32Z</time>
      </trkpt>
      <trkpt lat="50.62479" lon="2.62465">
        <ele>21.7</ele>
        <time>2016-05-06T08:04:34Z</time>
      </trkpt>
      <trkpt lat="50.62479" lon="2.62442">
        <ele>21.7</ele>
        <time>2016-05-06T08:04:36Z</time>
      </trkpt>
      <trkpt lat="50.62478" lon="2.62418">
        <ele>21.7</ele>
        <time>2016-05-06T08:04:38Z</time>
      </trkpt>
      <trkpt lat="50.62478" lon="2.62394">
        <ele>21.7</ele>
        <time>2016-05-06T08:04:40Z</time>
      </trkpt>
      <trkpt lat="50.62477" lon="2.62369">
        <ele>21.7</ele>
        <time>2016-05-06T08:04:42Z</time>
      </trkpt>
      <trkpt lat="50.62476" lon="2.62344">
        <ele>21.7</ele>
        <time>2016-05-06T08:04:44Z</time>
      </trkpt>
      <trkpt lat="50.62476" lon="2.6232">
        <ele>21.7</ele>
        <time>2016-05-06T08:04:46Z</time>
      </trkpt>
      <trkpt lat="50.62476" lon="2.62296">
        <ele>21.8</ele>
        <time>2016-05-06T08:04:48Z</time>
      </trkpt>
      <trkpt lat="50.62476" lon="2.62272">
        <ele>21.8</ele>
        <time>2016-05-06T08:04:50Z</time>
      </trkpt>
      <trkpt lat="50.62474" lon="2.62248">
        <ele>21.9</ele>
        <time>2016-05-06T08:04:52Z</time>
      </trkpt>
      <trkpt lat="50.62472" lon="2.62225">
        <ele>22.1</ele>
        <time>2016-05-06T08:04:54Z</time>
      </trkpt>
      <trkpt lat="50.62469" lon="2.62202">
        <ele>22.2</ele>
        <time>2016-05-06T08:04:56Z</time>
      </trkpt>
      <trkpt lat="50.62467" lon="2.62179">
        <ele>22.3</ele>
        <time>2016-05-06T08:04:58Z</time>
      </trkpt>
      <trkpt lat="50.62464" lon="2.62156">
        <ele>22.4</ele>
        <time>2016-05-06T08:05:00Z</time>
      </trkpt>
      <trkpt lat="50.62462" lon="2.62133">
        <ele>22.5</ele>
        <time>2016-05-06T08:05:02Z</time>
      </trkpt>
      <trkpt lat="50.62458" lon="2.6211">
        <ele>22.5</ele>
        <time>2016-05-06T08:05:04Z</time>
      </trkpt>
      <trkpt lat="50.62455" lon="2.62088">
        <ele>22.5</ele>
        <time>2016-05-06T08:05:06Z</time>
      </trkpt>
      <trkpt lat="50.62451" lon="2.62065">
        <ele>22.4</ele>
        <time>2016-05-06T08:05:08Z</time>
      </trkpt>
      <trkpt lat="50.62447" lon="2.62043">
        <ele>22.4</ele>
        <time>2016-05-06T08:05:10Z</time>
      </trkpt>
      <trkpt lat="50.62442" lon="2.62022">
        <ele>22.4</ele>
        <time>2016-05-06T08:05:12Z</time>
      </trkpt>
      <trkpt lat="50.62437" lon="2.62001">
        <ele>22.3</ele>
        <time>2016-05-06T08:05:14Z</time>
      </trkpt>
      <trkpt lat="50.62432" lon="2.6198">
        <ele>22.3</ele>
        <time>2016-05-06T08:05:16Z</time>
      </trkpt>
      <trkpt lat="50.62427" lon="2.6196">
        <ele>22.3</ele>
        <time>2016-05-06T08:05:18Z</time>
      </trkpt>
      <trkpt lat="50.62423" lon="2.61938">
        <ele>22.3</ele>
        <time>2016-05-06T08:05:20Z</time>
      </trkpt>
      <trkpt lat="50.6242" lon="2.61916">
        <ele>22.3</ele>
        <time>2016-05-06T08:05:22Z</time>
      </trkpt>
      <trkpt lat="50.62417" lon="2.61894">
        <ele>22.3</ele>
        <time>2016-05-06T08:05:24Z</time>
      </trkpt>
      <trkpt lat="50.62412" lon="2.61873">
        <ele>22.3</ele>
        <time>2016-05-06T08:05:26Z</time>
      </trkpt>
      <trkpt lat="50.62406" lon="2.61851">
        <ele>22.2</ele>
        <time>2016-05-06T08:05:28Z</time>
      </trkpt>
      <trkpt lat="50.62396" lon="2.61831">
        <ele>22.2</ele>
        <time>2016-05-06T08:05:30Z</time>
      </trkpt>
      <trkpt lat="50.62387" lon="2.61811">
        <ele>22.1</ele>
        <time>2016-05-06T08:05:32Z</time>
      </trkpt>
      <trkpt lat="50.62377" lon="2.61793">
        <ele>22.1</ele>
        <time>2016-05-06T08:05:34Z</time>
      </trkpt>
      <trkpt lat="50.62367" lon="2.61775">
        <ele>22</ele>
        <time>2016-05-06T08:05:36Z</time>
      </trkpt>
      <trkpt lat="50.62358" lon="2.61756">
        <ele>21.9</ele>
        <time>2016-05-06T08:05:38Z</time>
      </trkpt>
      <trkpt lat="50.62348" lon="2.61738">
        <ele>21.9</ele>
        <time>2016-05-06T08:05:40Z</time>
      </trkpt>
      <trkpt lat="50.62339" lon="2.61722">
        <ele>21.8</ele>
        <time>2016-05-06T08:05:42Z</time>
      </trkpt>
      <trkpt lat="50.62329" lon="2.61708">
        <ele>21.7</ele>
        <time>2016-05-06T08:05:44Z</time>
      </trkpt>
      <trkpt lat="50.6232" lon="2.61696">
        <ele>21.6</ele>
        <time>2016-05-06T08:05:46Z</time>
      </trkpt>
      <trkpt lat="50.62316" lon="2.61678">
        <ele>21.5</ele>
        <time>2016-05-06T08:05:48Z</time>
      </trkpt>
      <trkpt lat="50.62322" lon="2.61662">
        <ele>21.4</ele>
        <time>2016-05-06T08:05:50Z</time>
      </trkpt>
      <trkpt lat="50.62333" lon="2.61649">
        <ele>21.3</ele>
        <time>2016-05-06T08:05:52Z</time>
      </trkpt>
      <trkpt lat="50.62344" lon="2.61637">
        <ele>21.2</ele>
        <time>2016-05-06T08:05:54Z</time>
      </trkpt>
      <trkpt lat="50.62354" lon="2.61624">
        <ele>21.1</ele>
        <time>2016-05-06T08:05:56Z</time>
      </trkpt>
      <trkpt lat="50.62365" lon="2.6161">
        <ele>21</ele>
        <time>2016-05-06T08:05:58Z</time>
      </trkpt>
      <trkpt lat="50.62376" lon="2.61596">
        <ele>20.9</ele>
        <time>2016-05-06T08:06:00Z</time>
      </trkpt>
      <trkpt lat="50.62386" lon="2.61582">
        <ele>20.8</ele>
        <time>2016-05-06T08:06:02Z</time>
      </trkpt>
      <trkpt lat="50.62397" lon="2.61568">
        <ele>20.8</ele>
        <time>2016-05-06T08:06:04Z</time>
      </trkpt>
      <trkpt lat="50.62406" lon="2.61554">
        <ele>20.8</ele>
        <time>2016-05-06T08:06:06Z</time>
      </trkpt>
      <trkpt lat="50.6241" lon="2.61536">
        <ele>20.8</ele>
        <time>2016-05-06T08:06:08Z</time>
      </trkpt>
      <trkpt lat="50.62408" lon="2.61517">
        <ele>20.8</ele>
        <time>2016-05-06T08:06:10Z</time>
      </trkpt>
      <trkpt lat="50.62401" lon="2.615">
        <ele>20.8</ele>
        <time>2016-05-06T08:06:12Z</time>
      </trkpt>
      <trkpt lat="50.62392" lon="2.61483">
        <ele>20.9</ele>
        <time>2016-05-06T08:06:14Z</time>
      </trkpt>
      <trkpt lat="50.62382" lon="2.61466">
        <ele>20.9</ele>
        <time>2016-05-06T08:06:16Z</time>
      </trkpt>
      <trkpt lat="50.62373" lon="2.61449">
        <ele>20.9</ele>
        <time>2016-05-06T08:06:18Z</time>
      </trkpt>
      <trkpt lat="50.62363" lon="2.61431">
        <ele>20.9</ele>
        <time>2016-05-06T08:06:20Z</time>
      </trkpt>
      <trkpt lat="50.62354" lon="2.61415">
        <ele>21</ele>
        <time>2016-05-06T08:06:22Z</time>
      </trkpt>
      <trkpt lat="50.62345" lon="2.61398">
        <ele>21</ele>
        <time>2016-05-06T08:06:24Z</time>
      </trkpt>
      <trkpt lat="50.62335" lon="2.61381">
        <ele>21</ele>
        <time>2016-05-06T08:06:26Z</time>
      </trkpt>
      <trkpt lat="50.62325" lon="2.61364">
        <ele>21</ele>
        <time>2016-05-06T08:06:28Z</time>
      </trkpt>
      <trkpt lat="50.62316" lon="2.61347">
        <ele>21</ele>
        <time>2016-05-06T08:06:30Z</time>
      </trkpt>
      <trkpt lat="50.62308" lon="2.61329">
        <ele>21.1</ele>
        <time>2016-05-06T08:06:32Z</time>
      </trkpt>
      <trkpt lat="50.62301" lon="2.6131">
        <ele>21.1</ele>
        <time>2016-05-06T08:06:34Z</time>
      </trkpt>
      <trkpt lat="50.62294" lon="2.6129">
        <ele>21.1</ele>
        <time>2016-05-06T08:06:36Z</time>
      </trkpt>
      <trkpt lat="50.62289" lon="2.6127">
        <ele>21.1</ele>
        <time>2016-05-06T08:06:38Z</time>
      </trkpt>
      <trkpt lat="50.62282" lon="2.6125">
        <ele>21.1</ele>
        <time>2016-05-06T08:06:40Z</time>
      </trkpt>
      <trkpt lat="50.62274" lon="2.61231">
        <ele>21.1</ele>
        <time>2016-05-06T08:06:42Z</time>
      </trkpt>
      <trkpt lat="50.62265" lon="2.61214">
        <ele>21.2</ele>
        <time>2016-05-06T08:06:44Z</time>
      </trkpt>
      <trkpt lat="50.62256" lon="2.61198">
        <ele>21.2</ele>
        <time>2016-05-06T08:06:46Z</time>
      </trkpt>
      <trkpt lat="50.62246" lon="2.61182">
        <ele>21.4</ele>
        <time>2016-05-06T08:06:48Z</time>
      </trkpt>
      <trkpt lat="50.62238" lon="2.61163">
        <ele>21.5</ele>
        <time>2016-05-06T08:06:50Z</time>
      </trkpt>
      <trkpt lat="50.62237" lon="2.61143">
        <ele>21.4</ele>
        <time>2016-05-06T08:06:52Z</time>
      </trkpt>
      <trkpt lat="50.62239" lon="2.61123">
        <ele>21.6</ele>
        <time>2016-05-06T08:06:54Z</time>
      </trkpt>
      <trkpt lat="50.62244" lon="2.61105">
        <ele>21.9</ele>
        <time>2016-05-06T08:06:56Z</time>
      </trkpt>
      <trkpt lat="50.62252" lon="2.6109">
        <ele>22.1</ele>
        <time>2016-05-06T08:06:58Z</time>
      </trkpt>
      <trkpt lat="50.62262" lon="2.61076">
        <ele>22.2</ele>
        <time>2016-05-06T08:07:00Z</time>
      </trkpt>
      <trkpt lat="50.62272" lon="2.61061">
        <ele>22.3</ele>
        <time>2016-05-06T08:07:02Z</time>
      </trkpt>
      <trkpt lat="50.62282" lon="2.61045">
        <ele>22.3</ele>
        <time>2016-05-06T08:07:04Z</time>
      </trkpt>
      <trkpt lat="50.62293" lon="2.61029">
        <ele>22.4</ele>
        <time>2016-05-06T08:07:06Z</time>
      </trkpt>
      <trkpt lat="50.62304" lon="2.61013">
        <ele>22.4</ele>
        <time>2016-05-06T08:07:08Z</time>
      </trkpt>
      <trkpt lat="50.62314" lon="2.60997">
        <ele>22.5</ele>
        <time>2016-05-06T08:07:10Z</time>
      </trkpt>
      <trkpt lat="50.62325" lon="2.60981">
        <ele>22.5</ele>
        <time>2016-05-06T08:07:12Z</time>
      </trkpt>
      <trkpt lat="50.62336" lon="2.60964">
        <ele>22.5</ele>
        <time>2016-05-06T08:07:14Z</time>
      </trkpt>
      <trkpt lat="50.62346" lon="2.60949">
        <ele>22.6</ele>
        <time>2016-05-06T08:07:16Z</time>
      </trkpt>
      <trkpt lat="50.62357" lon="2.60934">
        <ele>22.6</ele>
        <time>2016-05-06T08:07:18Z</time>
      </trkpt>
      <trkpt lat="50.62368" lon="2.60918">
        <ele>22.6</ele>
        <time>2016-05-06T08:07:20Z</time>
      </trkpt>
      <trkpt lat="50.62379" lon="2.60901">
        <ele>22.7</ele>
        <time>2016-05-06T08:07:22Z</time>
      </trkpt>
      <trkpt lat="50.62391" lon="2.60885">
        <ele>22.7</ele>
        <time>2016-05-06T08:07:24Z</time>
      </trkpt>
      <trkpt lat="50.62403" lon="2.6087">
        <ele>22.7</ele>
        <time>2016-05-06T08:07:26Z</time>
      </trkpt>
      <trkpt lat="50.62415" lon="2.60856">
        <ele>22.7</ele>
        <time>2016-05-06T08:07:28Z</time>
      </trkpt>
      <trkpt lat="50.62428" lon="2.60843">
        <ele>22.7</ele>
        <time>2016-05-06T08:07:30Z</time>
      </trkpt>
      <trkpt lat="50.62441" lon="2.6083">
        <ele>22.7</ele>
        <time>2016-05-06T08:07:32Z</time>
      </trkpt>
      <trkpt lat="50.62453" lon="2.60817">
        <ele>22.8</ele>
        <time>2016-05-06T08:07:34Z</time>
      </trkpt>
      <trkpt lat="50.62466" lon="2.60804">
        <ele>22.8</ele>
        <time>2016-05-06T08:07:36Z</time>
      </trkpt>
      <trkpt lat="50.62479" lon="2.60791">
        <ele>22.8</ele>
        <time>2016-05-06T08:07:38Z</time>
      </trkpt>
      <trkpt lat="50.62492" lon="2.60778">
        <ele>22.8</ele>
        <time>2016-05-06T08:07:40Z</time>
      </trkpt>
      <trkpt lat="50.62505" lon="2.60766">
        <ele>22.8</ele>
        <time>2016-05-06T08:07:42Z</time>
      </trkpt>
      <trkpt lat="50.62518" lon="2.60753">
        <ele>22.8</ele>
        <time>2016-05-06T08:07:44Z</time>
      </trkpt>
      <trkpt lat="50.62531" lon="2.60741">
        <ele>22.8</ele>
        <time>2016-05-06T08:07:46Z</time>
      </trkpt>
      <trkpt lat="50.62544" lon="2.60728">
        <ele>22.8</ele>
        <time>2016-05-06T08:07:48Z</time>
      </trkpt>
      <trkpt lat="50.62557" lon="2.60716">
        <ele>22.8</ele>
        <time>2016-05-06T08:07:50Z</time>
      </trkpt>
      <trkpt lat="50.6257" lon="2.60704">
        <ele>22.9</ele>
        <time>2016-05-06T08:07:52Z</time>
      </trkpt>
      <trkpt lat="50.62583" lon="2.60691">
        <ele>22.9</ele>
        <time>2016-05-06T08:07:54Z</time>
      </trkpt>
      <trkpt lat="50.62598" lon="2.60679">
        <ele>22.9</ele>
        <time>2016-05-06T08:07:56Z</time>
      </trkpt>
      <trkpt lat="50.62611" lon="2.60666">
        <ele>22.9</ele>
        <time>2016-05-06T08:07:58Z</time>
      </trkpt>
      <trkpt lat="50.62622" lon="2.60654">
        <ele>23</ele>
        <time>2016-05-06T08:08:00Z</time>
      </trkpt>
      <trkpt lat="50.62634" lon="2.60642">
        <ele>23</ele>
        <time>2016-05-06T08:08:02Z</time>
      </trkpt>
      <trkpt lat="50.62646" lon="2.60628">
        <ele>23</ele>
        <time>2016-05-06T08:08:04Z</time>
      </trkpt>
      <trkpt lat="50.62659" lon="2.60615">
        <ele>23</ele>
        <time>2016-05-06T08:08:06Z</time>
      </trkpt>
      <trkpt lat="50.62671" lon="2.60602">
        <ele>23</ele>
        <time>2016-05-06T08:08:08Z</time>
      </trkpt>
      <trkpt lat="50.62684" lon="2.6059">
        <ele>23</ele>
        <time>2016-05-06T08:08:10Z</time>
      </trkpt>
      <trkpt lat="50.62697" lon="2.60577">
        <ele>23</ele>
        <time>2016-05-06T08:08:12Z</time>
      </trkpt>
      <trkpt lat="50.6271" lon="2.60565">
        <ele>23</ele>
        <time>2016-05-06T08:08:14Z</time>
      </trkpt>
      <trkpt lat="50.62723" lon="2.60553">
        <ele>23</ele>
        <time>2016-05-06T08:08:16Z</time>
      </trkpt>
      <trkpt lat="50.62737" lon="2.60541">
        <ele>23</ele>
        <time>2016-05-06T08:08:18Z</time>
      </trkpt>
      <trkpt lat="50.62752" lon="2.6053">
        <ele>22.9</ele>
        <time>2016-05-06T08:08:20Z</time>
      </trkpt>
      <trkpt lat="50.62767" lon="2.6052">
        <ele>22.9</ele>
        <time>2016-05-06T08:08:22Z</time>
      </trkpt>
      <trkpt lat="50.62782" lon="2.6051">
        <ele>22.9</ele>
        <time>2016-05-06T08:08:24Z</time>
      </trkpt>
      <trkpt lat="50.62797" lon="2.60501">
        <ele>22.8</ele>
        <time>2016-05-06T08:08:26Z</time>
      </trkpt>
      <trkpt lat="50.62812" lon="2.60492">
        <ele>22.8</ele>
        <time>2016-05-06T08:08:28Z</time>
      </trkpt>
      <trkpt lat="50.62825" lon="2.60483">
        <ele>22.8</ele>
        <time>2016-05-06T08:08:30Z</time>
      </trkpt>
      <trkpt lat="50.62839" lon="2.60473">
        <ele>22.8</ele>
        <time>2016-05-06T08:08:32Z</time>
      </trkpt>
      <trkpt lat="50.62853" lon="2.60463">
        <ele>22.8</ele>
        <time>2016-05-06T08:08:34Z</time>
      </trkpt>
      <trkpt lat="50.62867" lon="2.60451">
        <ele>22.8</ele>
        <time>2016-05-06T08:08:36Z</time>
      </trkpt>
      <trkpt lat="50.62882" lon="2.60439">
        <ele>22.8</ele>
        <time>2016-05-06T08:08:38Z</time>
      </trkpt>
      <trkpt lat="50.62897" lon="2.60426">
        <ele>22.8</ele>
        <time>2016-05-06T08:08:40Z</time>
      </trkpt>
      <trkpt lat="50.62912" lon="2.60411">
        <ele>22.8</ele>
        <time>2016-05-06T08:08:42Z</time>
      </trkpt>
      <trkpt lat="50.62925" lon="2.60392">
        <ele>22.8</ele>
        <time>2016-05-06T08:08:44Z</time>
      </trkpt>
      <trkpt lat="50.62937" lon="2.60372">
        <ele>22.8</ele>
        <time>2016-05-06T08:08:46Z</time>
      </trkpt>
      <trkpt lat="50.62948" lon="2.6035">
        <ele>22.8</ele>
        <time>2016-05-06T08:08:48Z</time>
      </trkpt>
      <trkpt lat="50.62958" lon="2.60328">
        <ele>22.7</ele>
        <time>2016-05-06T08:08:50Z</time>
      </trkpt>
      <trkpt lat="50.62968" lon="2.60307">
        <ele>22.7</ele>
        <time>2016-05-06T08:08:52Z</time>
      </trkpt>
      <trkpt lat="50.62977" lon="2.60286">
        <ele>22.7</ele>
        <time>2016-05-06T08:08:54Z</time>
      </trkpt>
      <trkpt lat="50.62987" lon="2.60265">
        <ele>22.7</ele>
        <time>2016-05-06T08:08:56Z</time>
      </trkpt>
      <trkpt lat="50.62996" lon="2.60243">
        <ele>22.7</ele>
        <time>2016-05-06T08:08:58Z</time>
      </trkpt>
      <trkpt lat="50.63005" lon="2.60219">
        <ele>22.7</ele>
        <time>2016-05-06T08:09:00Z</time>
      </trkpt>
      <trkpt lat="50.63012" lon="2.60194">
        <ele>22.7</ele>
        <time>2016-05-06T08:09:02Z</time>
      </trkpt>
      <trkpt lat="50.63016" lon="2.60168">
        <ele>22.7</ele>
        <time>2016-05-06T08:09:04Z</time>
      </trkpt>
      <trkpt lat="50.63017" lon="2.60141">
        <ele>22.6</ele>
        <time>2016-05-06T08:09:06Z</time>
      </trkpt>
      <trkpt lat="50.63016" lon="2.60115">
        <ele>22.6</ele>
        <time>2016-05-06T08:09:08Z</time>
      </trkpt>
      <trkpt lat="50.63015" lon="2.6009">
        <ele>22.6</ele>
        <time>2016-05-06T08:09:10Z</time>
      </trkpt>
      <trkpt lat="50.63014" lon="2.60064">
        <ele>22.6</ele>
        <time>2016-05-06T08:09:12Z</time>
      </trkpt>
      <trkpt lat="50.63014" lon="2.60038">
        <ele>22.6</ele>
        <time>2016-05-06T08:09:14Z</time>
      </trkpt>
      <trkpt lat="50.63014" lon="2.60013">
        <ele>22.6</ele>
        <time>2016-05-06T08:09:16Z</time>
      </trkpt>
      <trkpt lat="50.63015" lon="2.59988">
        <ele>22.6</ele>
        <time>2016-05-06T08:09:18Z</time>
      </trkpt>
      <trkpt lat="50.63016" lon="2.59963">
        <ele>22.6</ele>
        <time>2016-05-06T08:09:20Z</time>
      </trkpt>
      <trkpt lat="50.63016" lon="2.59937">
        <ele>22.7</ele>
        <time>2016-05-06T08:09:22Z</time>
      </trkpt>
      <trkpt lat="50.63017" lon="2.59913">
        <ele>22.7</ele>
        <time>2016-05-06T08:09:24Z</time>
      </trkpt>
      <trkpt lat="50.63018" lon="2.59887">
        <ele>22.7</ele>
        <time>2016-05-06T08:09:26Z</time>
      </trkpt>
      <trkpt lat="50.6302" lon="2.59862">
        <ele>22.7</ele>
        <time>2016-05-06T08:09:28Z</time>
      </trkpt>
      <trkpt lat="50.63023" lon="2.59836">
        <ele>22.7</ele>
        <time>2016-05-06T08:09:30Z</time>
      </trkpt>
      <trkpt lat="50.63027" lon="2.59811">
        <ele>22.7</ele>
        <time>2016-05-06T08:09:32Z</time>
      </trkpt>
      <trkpt lat="50.63031" lon="2.59787">
        <ele>22.6</ele>
        <time>2016-05-06T08:09:34Z</time>
      </trkpt>
      <trkpt lat="50.63034" lon="2.59762">
        <ele>22.5</ele>
        <time>2016-05-06T08:09:36Z</time>
      </trkpt>
      <trkpt lat="50.63036" lon="2.59738">
        <ele>22.5</ele>
        <time>2016-05-06T08:09:38Z</time>
      </trkpt>
      <trkpt lat="50.63037" lon="2.59714">
        <ele>22.4</ele>
        <time>2016-05-06T08:09:40Z</time>
      </trkpt>
      <trkpt lat="50.63037" lon="2.5969">
        <ele>22.4</ele>
        <time>2016-05-06T08:09:42Z</time>
      </trkpt>
      <trkpt lat="50.63038" lon="2.59665">
        <ele>22.4</ele>
        <time>2016-05-06T08:09:44Z</time>
      </trkpt>
      <trkpt lat="50.63041" lon="2.5964">
        <ele>22.3</ele>
        <time>2016-05-06T08:09:46Z</time>
      </trkpt>
      <trkpt lat="50.63047" lon="2.59617">
        <ele>22.3</ele>
        <time>2016-05-06T08:09:48Z</time>
      </trkpt>
      <trkpt lat="50.63056" lon="2.59596">
        <ele>22.3</ele>
        <time>2016-05-06T08:09:50Z</time>
      </trkpt>
      <trkpt lat="50.63065" lon="2.59576">
        <ele>22.2</ele>
        <time>2016-05-06T08:09:52Z</time>
      </trkpt>
      <trkpt lat="50.63073" lon="2.59556">
        <ele>22.2</ele>
        <time>2016-05-06T08:09:54Z</time>
      </trkpt>
      <trkpt lat="50.63079" lon="2.59535">
        <ele>22.2</ele>
        <time>2016-05-06T08:09:56Z</time>
      </trkpt>
      <trkpt lat="50.63082" lon="2.59513">
        <ele>22.2</ele>
        <time>2016-05-06T08:09:58Z</time>
      </trkpt>
      <trkpt lat="50.63084" lon="2.5949">
        <ele>22.2</ele>
        <time>2016-05-06T08:10:00Z</time>
      </trkpt>
      <trkpt lat="50.63086" lon="2.59468">
        <ele>22.2</ele>
        <time>2016-05-06T08:10:02Z</time>
      </trkpt>
      <trkpt lat="50.63089" lon="2.59448">
        <ele>22.2</ele>
        <time>2016-05-06T08:10:04Z</time>
      </trkpt>
      <trkpt lat="50.63095" lon="2.59427">
        <ele>22.2</ele>
        <time>2016-05-06T08:10:06Z</time>
      </trkpt>
      <trkpt lat="50.63102" lon="2.59408">
        <ele>22.2</ele>
        <time>2016-05-06T08:10:08Z</time>
      </trkpt>
      <trkpt lat="50.6311" lon="2.5939">
        <ele>22.2</ele>
        <time>2016-05-06T08:10:10Z</time>
      </trkpt>
      <trkpt lat="50.63121" lon="2.59372">
        <ele>22.2</ele>
        <time>2016-05-06T08:10:12Z</time>
      </trkpt>
      <trkpt lat="50.63133" lon="2.59354">
        <ele>22.2</ele>
        <time>2016-05-06T08:10:14Z</time>
      </trkpt>
      <trkpt lat="50.63144" lon="2.59336">
        <ele>22.1</ele>
        <time>2016-05-06T08:10:16Z</time>
      </trkpt>
      <trkpt lat="50.63155" lon="2.59319">
        <ele>22</ele>
        <time>2016-05-06T08:10:18Z</time>
      </trkpt>
      <trkpt lat="50.63165" lon="2.593">
        <ele>22</ele>
        <time>2016-05-06T08:10:20Z</time>
      </trkpt>
      <trkpt lat="50.63175" lon="2.5928">
        <ele>21.9</ele>
        <time>2016-05-06T08:10:22Z</time>
      </trkpt>
      <trkpt lat="50.63184" lon="2.5926">
        <ele>21.9</ele>
        <time>2016-05-06T08:10:24Z</time>
      </trkpt>
      <trkpt lat="50.63194" lon="2.59241">
        <ele>21.9</ele>
        <time>2016-05-06T08:10:26Z</time>
      </trkpt>
      <trkpt lat="50.63204" lon="2.59222">
        <ele>21.8</ele>
        <time>2016-05-06T08:10:28Z</time>
      </trkpt>
      <trkpt lat="50.63215" lon="2.59205">
        <ele>21.8</ele>
        <time>2016-05-06T08:10:30Z</time>
      </trkpt>
      <trkpt lat="50.63225" lon="2.59188">
        <ele>21.8</ele>
        <time>2016-05-06T08:10:32Z</time>
      </trkpt>
      <trkpt lat="50.63236" lon="2.59172">
        <ele>21.7</ele>
        <time>2016-05-06T08:10:34Z</time>
      </trkpt>
      <trkpt lat="50.63246" lon="2.59155">
        <ele>21.7</ele>
        <time>2016-05-06T08:10:36Z</time>
      </trkpt>
      <trkpt lat="50.63256" lon="2.59138">
        <ele>21.7</ele>
        <time>2016-05-06T08:10:38Z</time>
      </trkpt>
      <trkpt lat="50.63266" lon="2.5912">
        <ele>21.8</ele>
        <time>2016-05-06T08:10:40Z</time>
      </trkpt>
      <trkpt lat="50.63276" lon="2.59101">
        <ele>21.8</ele>
        <time>2016-05-06T08:10:42Z</time>
      </trkpt>
      <trkpt lat="50.63285" lon="2.5908">
        <ele>21.8</ele>
        <time>2016-05-06T08:10:44Z</time>
      </trkpt>
      <trkpt lat="50.63293" lon="2.5906">
        <ele>21.8</ele>
        <time>2016-05-06T08:10:46Z</time>
      </trkpt>
      <trkpt lat="50.63301" lon="2.59041">
        <ele>21.8</ele>
        <time>2016-05-06T08:10:48Z</time>
      </trkpt>
      <trkpt lat="50.63308" lon="2.59021">
        <ele>21.8</ele>
        <time>2016-05-06T08:10:50Z</time>
      </trkpt>
      <trkpt lat="50.63315" lon="2.58999">
        <ele>21.8</ele>
        <time>2016-05-06T08:10:52Z</time>
      </trkpt>
      <trkpt lat="50.63319" lon="2.58974">
        <ele>21.7</ele>
        <time>2016-05-06T08:10:54Z</time>
      </trkpt>
      <trkpt lat="50.6332" lon="2.58949">
        <ele>21.7</ele>
        <time>2016-05-06T08:10:56Z</time>
      </trkpt>
      <trkpt lat="50.63319" lon="2.58924">
        <ele>21.7</ele>
        <time>2016-05-06T08:10:58Z</time>
      </trkpt>
      <trkpt lat="50.63316" lon="2.589">
        <ele>21.7</ele>
        <time>2016-05-06T08:11:00Z</time>
      </trkpt>
      <trkpt lat="50.63312" lon="2.58875">
        <ele>21.7</ele>
        <time>2016-05-06T08:11:02Z</time>
      </trkpt>
      <trkpt lat="50.63308" lon="2.58851">
        <ele>21.7</ele>
        <time>2016-05-06T08:11:04Z</time>
      </trkpt>
      <trkpt lat="50.63304" lon="2.58828">
        <ele>21.7</ele>
        <time>2016-05-06T08:11:06Z</time>
      </trkpt>
      <trkpt lat="50.63301" lon="2.58804">
        <ele>21.7</ele>
        <time>2016-05-06T08:11:08Z</time>
      </trkpt>
      <trkpt lat="50.63299" lon="2.58781">
        <ele>21.7</ele>
        <time>2016-05-06T08:11:10Z</time>
      </trkpt>
      <trkpt lat="50.63296" lon="2.58757">
        <ele>21.7</ele>
        <time>2016-05-06T08:11:12Z</time>
      </trkpt>
      <trkpt lat="50.63293" lon="2.58734">
        <ele>21.7</ele>
        <time>2016-05-06T08:11:14Z</time>
      </trkpt>
      <trkpt lat="50.63289" lon="2.58711">
        <ele>21.7</ele>
        <time>2016-05-06T08:11:16Z</time>
      </trkpt>
      <trkpt lat="50.63286" lon="2.58688">
        <ele>21.7</ele>
        <time>2016-05-06T08:11:18Z</time>
      </trkpt>
      <trkpt lat="50.63284" lon="2.58665">
        <ele>21.7</ele>
        <time>2016-05-06T08:11:20Z</time>
      </trkpt>
      <trkpt lat="50.63281" lon="2.58642">
        <ele>21.7</ele>
        <time>2016-05-06T08:11:22Z</time>
      </trkpt>
      <trkpt lat="50.63279" lon="2.58619">
        <ele>21.7</ele>
        <time>2016-05-06T08:11:24Z</time>
      </trkpt>
      <trkpt lat="50.63278" lon="2.58596">
        <ele>21.7</ele>
        <time>2016-05-06T08:11:26Z</time>
      </trkpt>
      <trkpt lat="50.63277" lon="2.58573">
        <ele>21.8</ele>
        <time>2016-05-06T08:11:28Z</time>
      </trkpt>
      <trkpt lat="50.63276" lon="2.58549">
        <ele>21.8</ele>
        <time>2016-05-06T08:11:30Z</time>
      </trkpt>
      <trkpt lat="50.63276" lon="2.58526">
        <ele>21.8</ele>
        <time>2016-05-06T08:11:32Z</time>
      </trkpt>
      <trkpt lat="50.63275" lon="2.58503">
        <ele>21.8</ele>
        <time>2016-05-06T08:11:34Z</time>
      </trkpt>
      <trkpt lat="50.63274" lon="2.5848">
        <ele>21.9</ele>
        <time>2016-05-06T08:11:36Z</time>
      </trkpt>
      <trkpt lat="50.63273" lon="2.58457">
        <ele>21.9</ele>
        <time>2016-05-06T08:11:38Z</time>
      </trkpt>
      <trkpt lat="50.63273" lon="2.58434">
        <ele>22</ele>
        <time>2016-05-06T08:11:40Z</time>
      </trkpt>
      <trkpt lat="50.63271" lon="2.58411">
        <ele>22</ele>
        <time>2016-05-06T08:11:42Z</time>
      </trkpt>
      <trkpt lat="50.63269" lon="2.58387">
        <ele>22.1</ele>
        <time>2016-05-06T08:11:44Z</time>
      </trkpt>
      <trkpt lat="50.63264" lon="2.58363">
        <ele>22.1</ele>
        <time>2016-05-06T08:11:46Z</time>
      </trkpt>
      <trkpt lat="50.63258" lon="2.58341">
        <ele>22.1</ele>
        <time>2016-05-06T08:11:48Z</time>
      </trkpt>
      <trkpt lat="50.63251" lon="2.58319">
        <ele>22.1</ele>
        <time>2016-05-06T08:11:50Z</time>
      </trkpt>
      <trkpt lat="50.63243" lon="2.58298">
        <ele>22.1</ele>
        <time>2016-05-06T08:11:52Z</time>
      </trkpt>
      <trkpt lat="50.63235" lon="2.58278">
        <ele>22.2</ele>
        <time>2016-05-06T08:11:54Z</time>
      </trkpt>
      <trkpt lat="50.63227" lon="2.58257">
        <ele>22.2</ele>
        <time>2016-05-06T08:11:56Z</time>
      </trkpt>
      <trkpt lat="50.63219" lon="2.58237">
        <ele>22.2</ele>
        <time>2016-05-06T08:11:58Z</time>
      </trkpt>
      <trkpt lat="50.63211" lon="2.58218">
        <ele>22.2</ele>
        <time>2016-05-06T08:12:00Z</time>
      </trkpt>
      <trkpt lat="50.63204" lon="2.58198">
        <ele>22.2</ele>
        <time>2016-05-06T08:12:02Z</time>
      </trkpt>
      <trkpt lat="50.63196" lon="2.58178">
        <ele>22.2</ele>
        <time>2016-05-06T08:12:04Z</time>
      </trkpt>
      <trkpt lat="50.63187" lon="2.58159">
        <ele>22.2</ele>
        <time>2016-05-06T08:12:06Z</time>
      </trkpt>
      <trkpt lat="50.63178" lon="2.5814">
        <ele>22.2</ele>
        <time>2016-05-06T08:12:08Z</time>
      </trkpt>
      <trkpt lat="50.63168" lon="2.58122">
        <ele>22.2</ele>
        <time>2016-05-06T08:12:10Z</time>
      </trkpt>
      <trkpt lat="50.63158" lon="2.58104">
        <ele>22.2</ele>
        <time>2016-05-06T08:12:12Z</time>
      </trkpt>
      <trkpt lat="50.63148" lon="2.58087">
        <ele>22.2</ele>
        <time>2016-05-06T08:12:14Z</time>
      </trkpt>
      <trkpt lat="50.63137" lon="2.58071">
        <ele>22.2</ele>
        <time>2016-05-06T08:12:16Z</time>
      </trkpt>
      <trkpt lat="50.63128" lon="2.58054">
        <ele>22.2</ele>
        <time>2016-05-06T08:12:18Z</time>
      </trkpt>
      <trkpt lat="50.6312" lon="2.58037">
        <ele>22.2</ele>
        <time>2016-05-06T08:12:20Z</time>
      </trkpt>
      <trkpt lat="50.63112" lon="2.58019">
        <ele>22.2</ele>
        <time>2016-05-06T08:12:22Z</time>
      </trkpt>
      <trkpt lat="50.63105" lon="2.58001">
        <ele>22.2</ele>
        <time>2016-05-06T08:12:24Z</time>
      </trkpt>
      <trkpt lat="50.63098" lon="2.57982">
        <ele>22.2</ele>
        <time>2016-05-06T08:12:26Z</time>
      </trkpt>
      <trkpt lat="50.6309" lon="2.57963">
        <ele>22.2</ele>
        <time>2016-05-06T08:12:28Z</time>
      </trkpt>
      <trkpt lat="50.63082" lon="2.57944">
        <ele>22.2</ele>
        <time>2016-05-06T08:12:30Z</time>
      </trkpt>
      <trkpt lat="50.63073" lon="2.57926">
        <ele>22.2</ele>
        <time>2016-05-06T08:12:32Z</time>
      </trkpt>
      <trkpt lat="50.63065" lon="2.57909">
        <ele>22.2</ele>
        <time>2016-05-06T08:12:34Z</time>
      </trkpt>
      <trkpt lat="50.63056" lon="2.57893">
        <ele>22.2</ele>
        <time>2016-05-06T08:12:36Z</time>
      </trkpt>
      <trkpt lat="50.63047" lon="2.57876">
        <ele>22.2</ele>
        <time>2016-05-06T08:12:38Z</time>
      </trkpt>
      <trkpt lat="50.63038" lon="2.5786">
        <ele>22.1</ele>
        <time>2016-05-06T08:12:40Z</time>
      </trkpt>
      <trkpt lat="50.6303" lon="2.57843">
        <ele>22.1</ele>
        <time>2016-05-06T08:12:42Z</time>
      </trkpt>
      <trkpt lat="50.63022" lon="2.57826">
        <ele>22.1</ele>
        <time>2016-05-06T08:12:44Z</time>
      </trkpt>
      <trkpt lat="50.63014" lon="2.57807">
        <ele>22.1</ele>
        <time>2016-05-06T08:12:46Z</time>
      </trkpt>
      <trkpt lat="50.63007" lon="2.57789">
        <ele>22</ele>
        <time>2016-05-06T08:12:48Z</time>
      </trkpt>
      <trkpt lat="50.63" lon="2.5777">
        <ele>22</ele>
        <time>2016-05-06T08:12:50Z</time>
      </trkpt>
      <trkpt lat="50.62992" lon="2.57752">
        <ele>22</ele>
        <time>2016-05-06T08:12:52Z</time>
      </trkpt>
      <trkpt lat="50.62985" lon="2.57733">
        <ele>22</ele>
        <time>2016-05-06T08:12:54Z</time>
      </trkpt>
      <trkpt lat="50.62978" lon="2.57715">
        <ele>22</ele>
        <time>2016-05-06T08:12:56Z</time>
      </trkpt>
      <trkpt lat="50.6297" lon="2.57696">
        <ele>22</ele>
        <time>2016-05-06T08:12:58Z</time>
      </trkpt>
      <trkpt lat="50.62963" lon="2.57676">
        <ele>22</ele>
        <time>2016-05-06T08:13:00Z</time>
      </trkpt>
      <trkpt lat="50.62955" lon="2.57656">
        <ele>22</ele>
        <time>2016-05-06T08:13:02Z</time>
      </trkpt>
      <trkpt lat="50.62948" lon="2.57637">
        <ele>22</ele>
        <time>2016-05-06T08:13:04Z</time>
      </trkpt>
      <trkpt lat="50.62941" lon="2.57618">
        <ele>22</ele>
        <time>2016-05-06T08:13:06Z</time>
      </trkpt>
      <trkpt lat="50.62934" lon="2.57599">
        <ele>22</ele>
        <time>2016-05-06T08:13:08Z</time>
      </trkpt>
      <trkpt lat="50.62928" lon="2.57579">
        <ele>21.9</ele>
        <time>2016-05-06T08:13:10Z</time>
      </trkpt>
      <trkpt lat="50.62922" lon="2.57558">
        <ele>22</ele>
        <time>2016-05-06T08:13:12Z</time>
      </trkpt>
      <trkpt lat="50.62917" lon="2.57537">
        <ele>22</ele>
        <time>2016-05-06T08:13:14Z</time>
      </trkpt>
      <trkpt lat="50.62911" lon="2.57518">
        <ele>22</ele>
        <time>2016-05-06T08:13:16Z</time>
      </trkpt>
      <trkpt lat="50.62906" lon="2.57499">
        <ele>22</ele>
        <time>2016-05-06T08:13:18Z</time>
      </trkpt>
      <trkpt lat="50.62901" lon="2.5748">
        <ele>22</ele>
        <time>2016-05-06T08:13:20Z</time>
      </trkpt>
      <trkpt lat="50.62896" lon="2.5746">
        <ele>22</ele>
        <time>2016-05-06T08:13:22Z</time>
      </trkpt>
      <trkpt lat="50.62891" lon="2.57439">
        <ele>22</ele>
        <time>2016-05-06T08:13:24Z</time>
      </trkpt>
      <trkpt lat="50.62886" lon="2.5742">
        <ele>22</ele>
        <time>2016-05-06T08:13:26Z</time>
      </trkpt>
      <trkpt lat="50.62881" lon="2.574">
        <ele>22.1</ele>
        <time>2016-05-06T08:13:28Z</time>
      </trkpt>
      <trkpt lat="50.62876" lon="2.5738">
        <ele>22.1</ele>
        <time>2016-05-06T08:13:30Z</time>
      </trkpt>
      <trkpt lat="50.62871" lon="2.57359">
        <ele>22.1</ele>
        <time>2016-05-06T08:13:32Z</time>
      </trkpt>
      <trkpt lat="50.62866" lon="2.57339">
        <ele>22.1</ele>
        <time>2016-05-06T08:13:34Z</time>
      </trkpt>
      <trkpt lat="50.6286" lon="2.57318">
        <ele>22.2</ele>
        <time>2016-05-06T08:13:36Z</time>
      </trkpt>
      <trkpt lat="50.62855" lon="2.57298">
        <ele>22.3</ele>
        <time>2016-05-06T08:13:38Z</time>
      </trkpt>
      <trkpt lat="50.6285" lon="2.57279">
        <ele>22.3</ele>
        <time>2016-05-06T08:13:40Z</time>
      </trkpt>
      <trkpt lat="50.62844" lon="2.57258">
        <ele>22.4</ele>
        <time>2016-05-06T08:13:42Z</time>
      </trkpt>
      <trkpt lat="50.62839" lon="2.57239">
        <ele>22.4</ele>
        <time>2016-05-06T08:13:44Z</time>
      </trkpt>
      <trkpt lat="50.62834" lon="2.5722">
        <ele>22.5</ele>
        <time>2016-05-06T08:13:46Z</time>
      </trkpt>
      <trkpt lat="50.6283" lon="2.57202">
        <ele>22.5</ele>
        <time>2016-05-06T08:13:48Z</time>
      </trkpt>
      <trkpt lat="50.62825" lon="2.57184">
        <ele>22.6</ele>
        <time>2016-05-06T08:13:50Z</time>
      </trkpt>
      <trkpt lat="50.6282" lon="2.57167">
        <ele>22.6</ele>
        <time>2016-05-06T08:13:52Z</time>
      </trkpt>
      <trkpt lat="50.62815" lon="2.57148">
        <ele>22.6</ele>
        <time>2016-05-06T08:13:54Z</time>
      </trkpt>
      <trkpt lat="50.6281" lon="2.57129">
        <ele>22.6</ele>
        <time>2016-05-06T08:13:56Z</time>
      </trkpt>
      <trkpt lat="50.62805" lon="2.5711">
        <ele>22.6</ele>
        <time>2016-05-06T08:13:58Z</time>
      </trkpt>
      <trkpt lat="50.62801" lon="2.5709">
        <ele>22.6</ele>
        <time>2016-05-06T08:14:00Z</time>
      </trkpt>
      <trkpt lat="50.62796" lon="2.5707">
        <ele>22.6</ele>
        <time>2016-05-06T08:14:02Z</time>
      </trkpt>
      <trkpt lat="50.62791" lon="2.57049">
        <ele>22.6</ele>
        <time>2016-05-06T08:14:04Z</time>
      </trkpt>
      <trkpt lat="50.62785" lon="2.57029">
        <ele>22.6</ele>
        <time>2016-05-06T08:14:06Z</time>
      </trkpt>
      <trkpt lat="50.62779" lon="2.57009">
        <ele>22.6</ele>
        <time>2016-05-06T08:14:08Z</time>
      </trkpt>
      <trkpt lat="50.62772" lon="2.56989">
        <ele>22.6</ele>
        <time>2016-05-06T08:14:10Z</time>
      </trkpt>
      <trkpt lat="50.62765" lon="2.5697">
        <ele>22.6</ele>
        <time>2016-05-06T08:14:12Z</time>
      </trkpt>
      <trkpt lat="50.62757" lon="2.56951">
        <ele>22.7</ele>
        <time>2016-05-06T08:14:14Z</time>
      </trkpt>
      <trkpt lat="50.62748" lon="2.56934">
        <ele>22.7</ele>
        <time>2016-05-06T08:14:16Z</time>
      </trkpt>
      <trkpt lat="50.62738" lon="2.56918">
        <ele>22.7</ele>
        <time>2016-05-06T08:14:18Z</time>
      </trkpt>
      <trkpt lat="50.62728" lon="2.56903">
        <ele>22.7</ele>
        <time>2016-05-06T08:14:20Z</time>
      </trkpt>
      <trkpt lat="50.62718" lon="2.56888">
        <ele>22.8</ele>
        <time>2016-05-06T08:14:22Z</time>
      </trkpt>
      <trkpt lat="50.62707" lon="2.56876">
        <ele>22.8</ele>
        <time>2016-05-06T08:14:24Z</time>
      </trkpt>
      <trkpt lat="50.62694" lon="2.56868">
        <ele>22.8</ele>
        <time>2016-05-06T08:14:26Z</time>
      </trkpt>
      <trkpt lat="50.6268" lon="2.56865">
        <ele>22.9</ele>
        <time>2016-05-06T08:14:28Z</time>
      </trkpt>
      <trkpt lat="50.62666" lon="2.56862">
        <ele>22.9</ele>
        <time>2016-05-06T08:14:30Z</time>
      </trkpt>
      <trkpt lat="50.62651" lon="2.5686">
        <ele>22.9</ele>
        <time>2016-05-06T08:14:32Z</time>
      </trkpt>
      <trkpt lat="50.62636" lon="2.56858">
        <ele>22.9</ele>
        <time>2016-05-06T08:14:34Z</time>
      </trkpt>
      <trkpt lat="50.62622" lon="2.56855">
        <ele>23</ele>
        <time>2016-05-06T08:14:36Z</time>
      </trkpt>
      <trkpt lat="50.62607" lon="2.5685">
        <ele>23</ele>
        <time>2016-05-06T08:14:38Z</time>
      </trkpt>
      <trkpt lat="50.62593" lon="2.56843">
        <ele>23</ele>
        <time>2016-05-06T08:14:40Z</time>
      </trkpt>
      <trkpt lat="50.62579" lon="2.56835">
        <ele>23.1</ele>
        <time>2016-05-06T08:14:42Z</time>
      </trkpt>
      <trkpt lat="50.62566" lon="2.56826">
        <ele>23.1</ele>
        <time>2016-05-06T08:14:44Z</time>
      </trkpt>
      <trkpt lat="50.62554" lon="2.56816">
        <ele>23.1</ele>
        <time>2016-05-06T08:14:46Z</time>
      </trkpt>
      <trkpt lat="50.6254" lon="2.56806">
        <ele>23.2</ele>
        <time>2016-05-06T08:14:48Z</time>
      </trkpt>
      <trkpt lat="50.62527" lon="2.56796">
        <ele>23.2</ele>
        <time>2016-05-06T08:14:50Z</time>
      </trkpt>
      <trkpt lat="50.62513" lon="2.56787">
        <ele>23.3</ele>
        <time>2016-05-06T08:14:52Z</time>
      </trkpt>
      <trkpt lat="50.625" lon="2.56777">
        <ele>23.3</ele>
        <time>2016-05-06T08:14:54Z</time>
      </trkpt>
      <trkpt lat="50.62486" lon="2.56766">
        <ele>23.3</ele>
        <time>2016-05-06T08:14:56Z</time>
      </trkpt>
      <trkpt lat="50.62472" lon="2.56755">
        <ele>23.3</ele>
        <time>2016-05-06T08:14:58Z</time>
      </trkpt>
      <trkpt lat="50.62458" lon="2.56743">
        <ele>23.3</ele>
        <time>2016-05-06T08:15:00Z</time>
      </trkpt>
      <trkpt lat="50.62444" lon="2.56732">
        <ele>23.3</ele>
        <time>2016-05-06T08:15:02Z</time>
      </trkpt>
      <trkpt lat="50.62431" lon="2.56721">
        <ele>23.2</ele>
        <time>2016-05-06T08:15:04Z</time>
      </trkpt>
      <trkpt lat="50.62417" lon="2.5671">
        <ele>23.2</ele>
        <time>2016-05-06T08:15:06Z</time>
      </trkpt>
      <trkpt lat="50.62404" lon="2.56699">
        <ele>23.1</ele>
        <time>2016-05-06T08:15:08Z</time>
      </trkpt>
      <trkpt lat="50.62391" lon="2.56689">
        <ele>23</ele>
        <time>2016-05-06T08:15:10Z</time>
      </trkpt>
      <trkpt lat="50.62378" lon="2.56677">
        <ele>23</ele>
        <time>2016-05-06T08:15:12Z</time>
      </trkpt>
      <trkpt lat="50.62367" lon="2.56663">
        <ele>23</ele>
        <time>2016-05-06T08:15:14Z</time>
      </trkpt>
      <trkpt lat="50.62359" lon="2.56644">
        <ele>22.9</ele>
        <time>2016-05-06T08:15:16Z</time>
      </trkpt>
      <trkpt lat="50.62354" lon="2.56623">
        <ele>22.9</ele>
        <time>2016-05-06T08:15:18Z</time>
      </trkpt>
      <trkpt lat="50.62349" lon="2.56601">
        <ele>22.9</ele>
        <time>2016-05-06T08:15:20Z</time>
      </trkpt>
      <trkpt lat="50.62346" lon="2.56578">
        <ele>22.8</ele>
        <time>2016-05-06T08:15:22Z</time>
      </trkpt>
      <trkpt lat="50.62344" lon="2.56554">
        <ele>22.8</ele>
        <time>2016-05-06T08:15:24Z</time>
      </trkpt>
      <trkpt lat="50.62343" lon="2.5653">
        <ele>22.8</ele>
        <time>2016-05-06T08:15:26Z</time>
      </trkpt>
      <trkpt lat="50.62341" lon="2.56505">
        <ele>22.8</ele>
        <time>2016-05-06T08:15:28Z</time>
      </trkpt>
      <trkpt lat="50.6234" lon="2.56481">
        <ele>22.9</ele>
        <time>2016-05-06T08:15:30Z</time>
      </trkpt>
      <trkpt lat="50.62338" lon="2.56456">
        <ele>22.9</ele>
        <time>2016-05-06T08:15:32Z</time>
      </trkpt>
      <trkpt lat="50.62336" lon="2.56431">
        <ele>22.9</ele>
        <time>2016-05-06T08:15:34Z</time>
      </trkpt>
      <trkpt lat="50.62334" lon="2.56407">
        <ele>22.9</ele>
        <time>2016-05-06T08:15:36Z</time>
      </trkpt>
      <trkpt lat="50.62332" lon="2.56384">
        <ele>22.9</ele>
        <time>2016-05-06T08:15:38Z</time>
      </trkpt>
      <trkpt lat="50.6233" lon="2.56361">
        <ele>22.9</ele>
        <time>2016-05-06T08:15:40Z</time>
      </trkpt>
      <trkpt lat="50.62328" lon="2.56338">
        <ele>22.9</ele>
        <time>2016-05-06T08:15:42Z</time>
      </trkpt>
      <trkpt lat="50.62327" lon="2.56316">
        <ele>22.8</ele>
        <time>2016-05-06T08:15:44Z</time>
      </trkpt>
      <trkpt lat="50.62326" lon="2.56294">
        <ele>22.8</ele>
        <time>2016-05-06T08:15:46Z</time>
      </trkpt>
      <trkpt lat="50.62325" lon="2.56273">
        <ele>22.8</ele>
        <time>2016-05-06T08:15:48Z</time>
      </trkpt>
      <trkpt lat="50.62324" lon="2.56252">
        <ele>22.8</ele>
        <time>2016-05-06T08:15:50Z</time>
      </trkpt>
      <trkpt lat="50.62321" lon="2.56231">
        <ele>22.8</ele>
        <time>2016-05-06T08:15:52Z</time>
      </trkpt>
      <trkpt lat="50.62318" lon="2.5621">
        <ele>22.8</ele>
        <time>2016-05-06T08:15:54Z</time>
      </trkpt>
      <trkpt lat="50.62315" lon="2.56189">
        <ele>22.8</ele>
        <time>2016-05-06T08:15:56Z</time>
      </trkpt>
      <trkpt lat="50.62311" lon="2.56168">
        <ele>22.8</ele>
        <time>2016-05-06T08:15:58Z</time>
      </trkpt>
      <trkpt lat="50.62308" lon="2.56147">
        <ele>22.8</ele>
        <time>2016-05-06T08:16:00Z</time>
      </trkpt>
      <trkpt lat="50.62305" lon="2.56125">
        <ele>22.8</ele>
        <time>2016-05-06T08:16:02Z</time>
      </trkpt>
      <trkpt lat="50.62303" lon="2.56104">
        <ele>22.8</ele>
        <time>2016-05-06T08:16:04Z</time>
      </trkpt>
      <trkpt lat="50.62301" lon="2.56083">
        <ele>22.8</ele>
        <time>2016-05-06T08:16:06Z</time>
      </trkpt>
      <trkpt lat="50.62299" lon="2.56061">
        <ele>22.8</ele>
        <time>2016-05-06T08:16:08Z</time>
      </trkpt>
      <trkpt lat="50.62297" lon="2.5604">
        <ele>22.8</ele>
        <time>2016-05-06T08:16:10Z</time>
      </trkpt>
      <trkpt lat="50.62295" lon="2.56018">
        <ele>22.8</ele>
        <time>2016-05-06T08:16:12Z</time>
      </trkpt>
      <trkpt lat="50.62293" lon="2.55995">
        <ele>22.8</ele>
        <time>2016-05-06T08:16:14Z</time>
      </trkpt>
      <trkpt lat="50.6229" lon="2.55972">
        <ele>22.8</ele>
        <time>2016-05-06T08:16:16Z</time>
      </trkpt>
      <trkpt lat="50.62287" lon="2.55949">
        <ele>22.8</ele>
        <time>2016-05-06T08:16:18Z</time>
      </trkpt>
      <trkpt lat="50.62282" lon="2.55927">
        <ele>22.8</ele>
        <time>2016-05-06T08:16:20Z</time>
      </trkpt>
      <trkpt lat="50.62277" lon="2.55905">
        <ele>22.8</ele>
        <time>2016-05-06T08:16:22Z</time>
      </trkpt>
      <trkpt lat="50.62272" lon="2.55883">
        <ele>22.8</ele>
        <time>2016-05-06T08:16:24Z</time>
      </trkpt>
      <trkpt lat="50.62268" lon="2.55861">
        <ele>22.9</ele>
        <time>2016-05-06T08:16:26Z</time>
      </trkpt>
      <trkpt lat="50.62263" lon="2.55839">
        <ele>22.9</ele>
        <time>2016-05-06T08:16:28Z</time>
      </trkpt>
      <trkpt lat="50.62259" lon="2.55818">
        <ele>22.9</ele>
        <time>2016-05-06T08:16:30Z</time>
      </trkpt>
      <trkpt lat="50.62256" lon="2.55796">
        <ele>22.9</ele>
        <time>2016-05-06T08:16:32Z</time>
      </trkpt>
      <trkpt lat="50.62255" lon="2.55773">
        <ele>23</ele>
        <time>2016-05-06T08:16:34Z</time>
      </trkpt>
      <trkpt lat="50.62255" lon="2.55751">
        <ele>23</ele>
        <time>2016-05-06T08:16:36Z</time>
      </trkpt>
      <trkpt lat="50.62256" lon="2.55728">
        <ele>23</ele>
        <time>2016-05-06T08:16:38Z</time>
      </trkpt>
      <trkpt lat="50.6226" lon="2.55706">
        <ele>23</ele>
        <time>2016-05-06T08:16:40Z</time>
      </trkpt>
      <trkpt lat="50.62264" lon="2.55684">
        <ele>23.1</ele>
        <time>2016-05-06T08:16:42Z</time>
      </trkpt>
      <trkpt lat="50.62271" lon="2.55664">
        <ele>23.1</ele>
        <time>2016-05-06T08:16:44Z</time>
      </trkpt>
      <trkpt lat="50.62279" lon="2.55644">
        <ele>23.1</ele>
        <time>2016-05-06T08:16:46Z</time>
      </trkpt>
      <trkpt lat="50.62288" lon="2.55625">
        <ele>23.2</ele>
        <time>2016-05-06T08:16:48Z</time>
      </trkpt>
      <trkpt lat="50.62298" lon="2.55605">
        <ele>23.3</ele>
        <time>2016-05-06T08:16:50Z</time>
      </trkpt>
      <trkpt lat="50.62307" lon="2.55584">
        <ele>23.3</ele>
        <time>2016-05-06T08:16:52Z</time>
      </trkpt>
      <trkpt lat="50.62316" lon="2.55565">
        <ele>23.4</ele>
        <time>2016-05-06T08:16:54Z</time>
      </trkpt>
      <trkpt lat="50.62325" lon="2.55546">
        <ele>23.4</ele>
        <time>2016-05-06T08:16:56Z</time>
      </trkpt>
      <trkpt lat="50.62333" lon="2.55528">
        <ele>23.4</ele>
        <time>2016-05-06T08:16:58Z</time>
      </trkpt>
      <trkpt lat="50.62341" lon="2.55512">
        <ele>23.4</ele>
        <time>2016-05-06T08:17:00Z</time>
      </trkpt>
      <trkpt lat="50.62347" lon="2.555">
        <ele>23.3</ele>
        <time>2016-05-06T08:17:02Z</time>
      </trkpt>
      <trkpt lat="50.62353" lon="2.55486">
        <ele>23.3</ele>
        <time>2016-05-06T08:17:06Z</time>
      </trkpt>
      <trkpt lat="50.62344" lon="2.55496">
        <ele>23.3</ele>
        <time>2016-05-06T08:17:12Z</time>
      </trkpt>
      <trkpt lat="50.62337" lon="2.55512">
        <ele>23.3</ele>
        <time>2016-05-06T08:17:15Z</time>
      </trkpt>
      <trkpt lat="50.62331" lon="2.55524">
        <ele>23.3</ele>
        <time>2016-05-06T08:17:17Z</time>
      </trkpt>
      <trkpt lat="50.62325" lon="2.55538">
        <ele>23.3</ele>
        <time>2016-05-06T08:17:19Z</time>
      </trkpt>
      <trkpt lat="50.62318" lon="2.55552">
        <ele>23.3</ele>
        <time>2016-05-06T08:17:21Z</time>
      </trkpt>
      <trkpt lat="50.62311" lon="2.55567">
        <ele>23.3</ele>
        <time>2016-05-06T08:17:23Z</time>
      </trkpt>
      <trkpt lat="50.62303" lon="2.55582">
        <ele>23.3</ele>
        <time>2016-05-06T08:17:25Z</time>
      </trkpt>
      <trkpt lat="50.62295" lon="2.55598">
        <ele>23.3</ele>
        <time>2016-05-06T08:17:27Z</time>
      </trkpt>
      <trkpt lat="50.62288" lon="2.55614">
        <ele>23.3</ele>
        <time>2016-05-06T08:17:29Z</time>
      </trkpt>
      <trkpt lat="50.62282" lon="2.5563">
        <ele>23.3</ele>
        <time>2016-05-06T08:17:31Z</time>
      </trkpt>
      <trkpt lat="50.62275" lon="2.55647">
        <ele>23.4</ele>
        <time>2016-05-06T08:17:33Z</time>
      </trkpt>
      <trkpt lat="50.62268" lon="2.55664">
        <ele>23.5</ele>
        <time>2016-05-06T08:17:35Z</time>
      </trkpt>
      <trkpt lat="50.62263" lon="2.55682">
        <ele>23.6</ele>
        <time>2016-05-06T08:17:37Z</time>
      </trkpt>
      <trkpt lat="50.62258" lon="2.55701">
        <ele>23.7</ele>
        <time>2016-05-06T08:17:39Z</time>
      </trkpt>
      <trkpt lat="50.62255" lon="2.55722">
        <ele>23.8</ele>
        <time>2016-05-06T08:17:41Z</time>
      </trkpt>
      <trkpt lat="50.62252" lon="2.55743">
        <ele>23.8</ele>
        <time>2016-05-06T08:17:43Z</time>
      </trkpt>
      <trkpt lat="50.62251" lon="2.55765">
        <ele>23.9</ele>
        <time>2016-05-06T08:17:45Z</time>
      </trkpt>
      <trkpt lat="50.62251" lon="2.55786">
        <ele>23.9</ele>
        <time>2016-05-06T08:17:47Z</time>
      </trkpt>
      <trkpt lat="50.62253" lon="2.55807">
        <ele>23.8</ele>
        <time>2016-05-06T08:17:49Z</time>
      </trkpt>
      <trkpt lat="50.62257" lon="2.55827">
        <ele>23.8</ele>
        <time>2016-05-06T08:17:51Z</time>
      </trkpt>
      <trkpt lat="50.62261" lon="2.55844">
        <ele>23.7</ele>
        <time>2016-05-06T08:17:53Z</time>
      </trkpt>
      <trkpt lat="50.6227" lon="2.55854">
        <ele>23.7</ele>
        <time>2016-05-06T08:17:55Z</time>
      </trkpt>
      <trkpt lat="50.62282" lon="2.5585">
        <ele>23.6</ele>
        <time>2016-05-06T08:17:57Z</time>
      </trkpt>
      <trkpt lat="50.62294" lon="2.55841">
        <ele>23.6</ele>
        <time>2016-05-06T08:17:59Z</time>
      </trkpt>
      <trkpt lat="50.62307" lon="2.55832">
        <ele>23.5</ele>
        <time>2016-05-06T08:18:01Z</time>
      </trkpt>
      <trkpt lat="50.62319" lon="2.55823">
        <ele>23.5</ele>
        <time>2016-05-06T08:18:03Z</time>
      </trkpt>
      <trkpt lat="50.62332" lon="2.55814">
        <ele>23.5</ele>
        <time>2016-05-06T08:18:05Z</time>
      </trkpt>
      <trkpt lat="50.62345" lon="2.55805">
        <ele>23.4</ele>
        <time>2016-05-06T08:18:07Z</time>
      </trkpt>
      <trkpt lat="50.62358" lon="2.55796">
        <ele>23.4</ele>
        <time>2016-05-06T08:18:09Z</time>
      </trkpt>
      <trkpt lat="50.62371" lon="2.55786">
        <ele>23.4</ele>
        <time>2016-05-06T08:18:11Z</time>
      </trkpt>
      <trkpt lat="50.62385" lon="2.55777">
        <ele>23.4</ele>
        <time>2016-05-06T08:18:13Z</time>
      </trkpt>
      <trkpt lat="50.62399" lon="2.55768">
        <ele>23.4</ele>
        <time>2016-05-06T08:18:15Z</time>
      </trkpt>
      <trkpt lat="50.62412" lon="2.55759">
        <ele>23.4</ele>
        <time>2016-05-06T08:18:17Z</time>
      </trkpt>
      <trkpt lat="50.62426" lon="2.5575">
        <ele>23.3</ele>
        <time>2016-05-06T08:18:19Z</time>
      </trkpt>
      <trkpt lat="50.62439" lon="2.55741">
        <ele>23.3</ele>
        <time>2016-05-06T08:18:21Z</time>
      </trkpt>
      <trkpt lat="50.62453" lon="2.55732">
        <ele>23.3</ele>
        <time>2016-05-06T08:18:23Z</time>
      </trkpt>
      <trkpt lat="50.62467" lon="2.55724">
        <ele>23.3</ele>
        <time>2016-05-06T08:18:25Z</time>
      </trkpt>
      <trkpt lat="50.62481" lon="2.55717">
        <ele>23.3</ele>
        <time>2016-05-06T08:18:27Z</time>
      </trkpt>
      <trkpt lat="50.62495" lon="2.55709">
        <ele>23.3</ele>
        <time>2016-05-06T08:18:29Z</time>
      </trkpt>
      <trkpt lat="50.62509" lon="2.55702">
        <ele>23.3</ele>
        <time>2016-05-06T08:18:31Z</time>
      </trkpt>
      <trkpt lat="50.62524" lon="2.55695">
        <ele>23.3</ele>
        <time>2016-05-06T08:18:33Z</time>
      </trkpt>
      <trkpt lat="50.62538" lon="2.55689">
        <ele>23.3</ele>
        <time>2016-05-06T08:18:35Z</time>
      </trkpt>
      <trkpt lat="50.62552" lon="2.55683">
        <ele>23.3</ele>
        <time>2016-05-06T08:18:37Z</time>
      </trkpt>
      <trkpt lat="50.62566" lon="2.55677">
        <ele>23.3</ele>
        <time>2016-05-06T08:18:39Z</time>
      </trkpt>
      <trkpt lat="50.62579" lon="2.55671">
        <ele>23.3</ele>
        <time>2016-05-06T08:18:41Z</time>
      </trkpt>
      <trkpt lat="50.62593" lon="2.55665">
        <ele>23.3</ele>
        <time>2016-05-06T08:18:43Z</time>
      </trkpt>
      <trkpt lat="50.62605" lon="2.55658">
        <ele>23.3</ele>
        <time>2016-05-06T08:18:45Z</time>
      </trkpt>
      <trkpt lat="50.62611" lon="2.55641">
        <ele>23.3</ele>
        <time>2016-05-06T08:18:47Z</time>
      </trkpt>
      <trkpt lat="50.62606" lon="2.55623">
        <ele>23.3</ele>
        <time>2016-05-06T08:18:49Z</time>
      </trkpt>
      <trkpt lat="50.62599" lon="2.55606">
        <ele>23.3</ele>
        <time>2016-05-06T08:18:51Z</time>
      </trkpt>
      <trkpt lat="50.62591" lon="2.55588">
        <ele>23.3</ele>
        <time>2016-05-06T08:18:53Z</time>
      </trkpt>
      <trkpt lat="50.62584" lon="2.55569">
        <ele>23.3</ele>
        <time>2016-05-06T08:18:55Z</time>
      </trkpt>
      <trkpt lat="50.62577" lon="2.55549">
        <ele>23.3</ele>
        <time>2016-05-06T08:18:57Z</time>
      </trkpt>
      <trkpt lat="50.62573" lon="2.55528">
        <ele>23.3</ele>
        <time>2016-05-06T08:18:59Z</time>
      </trkpt>
      <trkpt lat="50.6257" lon="2.55506">
        <ele>23.3</ele>
        <time>2016-05-06T08:19:01Z</time>
      </trkpt>
      <trkpt lat="50.62568" lon="2.55485">
        <ele>23.3</ele>
        <time>2016-05-06T08:19:03Z</time>
      </trkpt>
      <trkpt lat="50.62566" lon="2.55464">
        <ele>23.3</ele>
        <time>2016-05-06T08:19:05Z</time>
      </trkpt>
      <trkpt lat="50.62566" lon="2.55442">
        <ele>23.3</ele>
        <time>2016-05-06T08:19:07Z</time>
      </trkpt>
      <trkpt lat="50.62567" lon="2.5542">
        <ele>23.3</ele>
        <time>2016-05-06T08:19:09Z</time>
      </trkpt>
      <trkpt lat="50.62567" lon="2.55397">
        <ele>23.3</ele>
        <time>2016-05-06T08:19:11Z</time>
      </trkpt>
      <trkpt lat="50.62568" lon="2.55374">
        <ele>23.3</ele>
        <time>2016-05-06T08:19:13Z</time>
      </trkpt>
      <trkpt lat="50.62569" lon="2.55352">
        <ele>23.3</ele>
        <time>2016-05-06T08:19:15Z</time>
      </trkpt>
      <trkpt lat="50.6257" lon="2.55329">
        <ele>23.3</ele>
        <time>2016-05-06T08:19:17Z</time>
      </trkpt>
      <trkpt lat="50.62571" lon="2.55307">
        <ele>23.3</ele>
        <time>2016-05-06T08:19:19Z</time>
      </trkpt>
      <trkpt lat="50.62572" lon="2.55286">
        <ele>23.3</ele>
        <time>2016-05-06T08:19:21Z</time>
      </trkpt>
      <trkpt lat="50.62573" lon="2.55267">
        <ele>23.3</ele>
        <time>2016-05-06T08:19:23Z</time>
      </trkpt>
      <trkpt lat="50.62573" lon="2.55248">
        <ele>23.3</ele>
        <time>2016-05-06T08:19:25Z</time>
      </trkpt>
      <trkpt lat="50.62574" lon="2.55229">
        <ele>23.4</ele>
        <time>2016-05-06T08:19:27Z</time>
      </trkpt>
      <trkpt lat="50.62574" lon="2.55211">
        <ele>23.4</ele>
        <time>2016-05-06T08:19:29Z</time>
      </trkpt>
      <trkpt lat="50.62574" lon="2.55192">
        <ele>23.5</ele>
        <time>2016-05-06T08:19:31Z</time>
      </trkpt>
      <trkpt lat="50.62574" lon="2.55173">
        <ele>23.5</ele>
        <time>2016-05-06T08:19:33Z</time>
      </trkpt>
      <trkpt lat="50.62575" lon="2.55154">
        <ele>23.5</ele>
        <time>2016-05-06T08:19:35Z</time>
      </trkpt>
      <trkpt lat="50.62576" lon="2.55134">
        <ele>23.6</ele>
        <time>2016-05-06T08:19:37Z</time>
      </trkpt>
      <trkpt lat="50.62577" lon="2.55113">
        <ele>23.6</ele>
        <time>2016-05-06T08:19:39Z</time>
      </trkpt>
      <trkpt lat="50.62578" lon="2.55091">
        <ele>23.6</ele>
        <time>2016-05-06T08:19:41Z</time>
      </trkpt>
      <trkpt lat="50.62579" lon="2.55071">
        <ele>23.7</ele>
        <time>2016-05-06T08:19:43Z</time>
      </trkpt>
      <trkpt lat="50.62579" lon="2.55051">
        <ele>23.7</ele>
        <time>2016-05-06T08:19:45Z</time>
      </trkpt>
      <trkpt lat="50.62581" lon="2.55031">
        <ele>23.7</ele>
        <time>2016-05-06T08:19:47Z</time>
      </trkpt>
      <trkpt lat="50.62583" lon="2.55011">
        <ele>23.7</ele>
        <time>2016-05-06T08:19:49Z</time>
      </trkpt>
      <trkpt lat="50.62582" lon="2.5499">
        <ele>23.7</ele>
        <time>2016-05-06T08:19:51Z</time>
      </trkpt>
      <trkpt lat="50.62576" lon="2.54972">
        <ele>23.7</ele>
        <time>2016-05-06T08:19:53Z</time>
      </trkpt>
      <trkpt lat="50.62566" lon="2.54959">
        <ele>23.8</ele>
        <time>2016-05-06T08:19:55Z</time>
      </trkpt>
      <trkpt lat="50.62554" lon="2.54946">
        <ele>23.8</ele>
        <time>2016-05-06T08:19:57Z</time>
      </trkpt>
      <trkpt lat="50.62543" lon="2.54933">
        <ele>23.8</ele>
        <time>2016-05-06T08:19:59Z</time>
      </trkpt>
      <trkpt lat="50.62533" lon="2.54919">
        <ele>23.8</ele>
        <time>2016-05-06T08:20:01Z</time>
      </trkpt>
      <trkpt lat="50.62522" lon="2.54905">
        <ele>23.8</ele>
        <time>2016-05-06T08:20:03Z</time>
      </trkpt>
      <trkpt lat="50.62513" lon="2.54892">
        <ele>23.8</ele>
        <time>2016-05-06T08:20:05Z</time>
      </trkpt>
      <trkpt lat="50.62502" lon="2.54881">
        <ele>23.8</ele>
        <time>2016-05-06T08:20:07Z</time>
      </trkpt>
      <trkpt lat="50.62491" lon="2.54875">
        <ele>24.2</ele>
        <time>2016-05-06T08:20:09Z</time>
      </trkpt>
      <trkpt lat="50.62479" lon="2.54874">
        <ele>24.2</ele>
        <time>2016-05-06T08:20:11Z</time>
      </trkpt>
      <trkpt lat="50.62479" lon="2.54856">
        <ele>24</ele>
        <time>2016-05-06T08:20:16Z</time>
      </trkpt>
      <trkpt lat="50.62482" lon="2.54836">
        <ele>24</ele>
        <time>2016-05-06T08:20:19Z</time>
      </trkpt>
      <trkpt lat="50.62484" lon="2.5482">
        <ele>23.9</ele>
        <time>2016-05-06T08:20:21Z</time>
      </trkpt>
      <trkpt lat="50.62485" lon="2.54803">
        <ele>23.9</ele>
        <time>2016-05-06T08:20:23Z</time>
      </trkpt>
      <trkpt lat="50.62485" lon="2.54786">
        <ele>23.8</ele>
        <time>2016-05-06T08:20:25Z</time>
      </trkpt>
      <trkpt lat="50.62485" lon="2.54768">
        <ele>23.7</ele>
        <time>2016-05-06T08:20:27Z</time>
      </trkpt>
      <trkpt lat="50.62481" lon="2.54749">
        <ele>23.7</ele>
        <time>2016-05-06T08:20:29Z</time>
      </trkpt>
      <trkpt lat="50.62476" lon="2.54731">
        <ele>23.6</ele>
        <time>2016-05-06T08:20:31Z</time>
      </trkpt>
      <trkpt lat="50.62469" lon="2.54713">
        <ele>23.6</ele>
        <time>2016-05-06T08:20:33Z</time>
      </trkpt>
      <trkpt lat="50.62462" lon="2.54698">
        <ele>23.6</ele>
        <time>2016-05-06T08:20:35Z</time>
      </trkpt>
      <trkpt lat="50.62453" lon="2.54686">
        <ele>23.5</ele>
        <time>2016-05-06T08:20:37Z</time>
      </trkpt>
      <trkpt lat="50.62444" lon="2.54675">
        <ele>23.5</ele>
        <time>2016-05-06T08:20:39Z</time>
      </trkpt>
      <trkpt lat="50.62433" lon="2.54665">
        <ele>23.5</ele>
        <time>2016-05-06T08:20:41Z</time>
      </trkpt>
      <trkpt lat="50.62424" lon="2.54654">
        <ele>23.5</ele>
        <time>2016-05-06T08:20:43Z</time>
      </trkpt>
      <trkpt lat="50.62414" lon="2.54641">
        <ele>23.5</ele>
        <time>2016-05-06T08:20:45Z</time>
      </trkpt>
      <trkpt lat="50.62405" lon="2.54628">
        <ele>23.4</ele>
        <time>2016-05-06T08:20:47Z</time>
      </trkpt>
      <trkpt lat="50.62396" lon="2.54613">
        <ele>23.4</ele>
        <time>2016-05-06T08:20:49Z</time>
      </trkpt>
      <trkpt lat="50.62387" lon="2.546">
        <ele>23.4</ele>
        <time>2016-05-06T08:20:51Z</time>
      </trkpt>
      <trkpt lat="50.62377" lon="2.54587">
        <ele>23.4</ele>
        <time>2016-05-06T08:20:53Z</time>
      </trkpt>
      <trkpt lat="50.62366" lon="2.5458">
        <ele>23.4</ele>
        <time>2016-05-06T08:20:55Z</time>
      </trkpt>
      <trkpt lat="50.62353" lon="2.54579">
        <ele>23.4</ele>
        <time>2016-05-06T08:20:57Z</time>
      </trkpt>
      <trkpt lat="50.62341" lon="2.54585">
        <ele>23.4</ele>
        <time>2016-05-06T08:20:59Z</time>
      </trkpt>
      <trkpt lat="50.6233" lon="2.54589">
        <ele>23.4</ele>
        <time>2016-05-06T08:21:01Z</time>
      </trkpt>
      <trkpt lat="50.6232" lon="2.54593">
        <ele>23.4</ele>
        <time>2016-05-06T08:21:03Z</time>
      </trkpt>
      <trkpt lat="50.6231" lon="2.54595">
        <ele>23.4</ele>
        <time>2016-05-06T08:21:05Z</time>
      </trkpt>
      <trkpt lat="50.62301" lon="2.54598">
        <ele>23.4</ele>
        <time>2016-05-06T08:21:07Z</time>
      </trkpt>
      <trkpt lat="50.62291" lon="2.54596">
        <ele>23.4</ele>
        <time>2016-05-06T08:21:10Z</time>
      </trkpt>
      <trkpt lat="50.62286" lon="2.54585">
        <ele>23.4</ele>
        <time>2016-05-06T08:21:13Z</time>
      </trkpt>
      <trkpt lat="50.62281" lon="2.54569">
        <ele>23.7</ele>
        <time>2016-05-06T08:21:16Z</time>
      </trkpt>
      <trkpt lat="50.6228" lon="2.54547">
        <ele>23.8</ele>
        <time>2016-05-06T08:21:20Z</time>
      </trkpt>
      <trkpt lat="50.62278" lon="2.54531">
        <ele>23.8</ele>
        <time>2016-05-06T08:21:22Z</time>
      </trkpt>
      <trkpt lat="50.62277" lon="2.54513">
        <ele>23.9</ele>
        <time>2016-05-06T08:21:24Z</time>
      </trkpt>
      <trkpt lat="50.62276" lon="2.54494">
        <ele>23.9</ele>
        <time>2016-05-06T08:21:26Z</time>
      </trkpt>
      <trkpt lat="50.6228" lon="2.54478">
        <ele>23.9</ele>
        <time>2016-05-06T08:21:28Z</time>
      </trkpt>
      <trkpt lat="50.62286" lon="2.54462">
        <ele>23.9</ele>
        <time>2016-05-06T08:21:30Z</time>
      </trkpt>
      <trkpt lat="50.62294" lon="2.54447">
        <ele>23.9</ele>
        <time>2016-05-06T08:21:32Z</time>
      </trkpt>
      <trkpt lat="50.623" lon="2.5443">
        <ele>23.9</ele>
        <time>2016-05-06T08:21:34Z</time>
      </trkpt>
      <trkpt lat="50.62308" lon="2.54411">
        <ele>23.9</ele>
        <time>2016-05-06T08:21:36Z</time>
      </trkpt>
      <trkpt lat="50.62317" lon="2.54396">
        <ele>23.9</ele>
        <time>2016-05-06T08:21:38Z</time>
      </trkpt>
      <trkpt lat="50.62326" lon="2.54382">
        <ele>23.9</ele>
        <time>2016-05-06T08:21:40Z</time>
      </trkpt>
      <trkpt lat="50.62336" lon="2.5437">
        <ele>23.8</ele>
        <time>2016-05-06T08:21:42Z</time>
      </trkpt>
      <trkpt lat="50.62345" lon="2.54358">
        <ele>23.8</ele>
        <time>2016-05-06T08:21:44Z</time>
      </trkpt>
      <trkpt lat="50.62355" lon="2.5435">
        <ele>23.8</ele>
        <time>2016-05-06T08:21:46Z</time>
      </trkpt>
      <trkpt lat="50.62366" lon="2.54343">
        <ele>23.7</ele>
        <time>2016-05-06T08:21:48Z</time>
      </trkpt>
      <trkpt lat="50.62377" lon="2.54335">
        <ele>23.7</ele>
        <time>2016-05-06T08:21:50Z</time>
      </trkpt>
      <trkpt lat="50.62388" lon="2.54326">
        <ele>23.7</ele>
        <time>2016-05-06T08:21:52Z</time>
      </trkpt>
      <trkpt lat="50.624" lon="2.54318">
        <ele>23.7</ele>
        <time>2016-05-06T08:21:54Z</time>
      </trkpt>
      <trkpt lat="50.62412" lon="2.54309">
        <ele>23.7</ele>
        <time>2016-05-06T08:21:56Z</time>
      </trkpt>
      <trkpt lat="50.62423" lon="2.543">
        <ele>23.7</ele>
        <time>2016-05-06T08:21:58Z</time>
      </trkpt>
      <trkpt lat="50.62434" lon="2.54291">
        <ele>23.8</ele>
        <time>2016-05-06T08:22:00Z</time>
      </trkpt>
      <trkpt lat="50.62445" lon="2.54282">
        <ele>23.8</ele>
        <time>2016-05-06T08:22:02Z</time>
      </trkpt>
      <trkpt lat="50.62456" lon="2.54273">
        <ele>23.8</ele>
        <time>2016-05-06T08:22:04Z</time>
      </trkpt>
      <trkpt lat="50.62468" lon="2.54265">
        <ele>23.8</ele>
        <time>2016-05-06T08:22:06Z</time>
      </trkpt>
      <trkpt lat="50.62481" lon="2.54255">
        <ele>23.8</ele>
        <time>2016-05-06T08:22:08Z</time>
      </trkpt>
      <trkpt lat="50.62495" lon="2.54245">
        <ele>23.7</ele>
        <time>2016-05-06T08:22:10Z</time>
      </trkpt>
      <trkpt lat="50.62507" lon="2.54234">
        <ele>23.6</ele>
        <time>2016-05-06T08:22:12Z</time>
      </trkpt>
      <trkpt lat="50.6252" lon="2.54223">
        <ele>23.6</ele>
        <time>2016-05-06T08:22:14Z</time>
      </trkpt>
      <trkpt lat="50.62532" lon="2.54212">
        <ele>23.4</ele>
        <time>2016-05-06T08:22:16Z</time>
      </trkpt>
      <trkpt lat="50.62545" lon="2.54201">
        <ele>23.2</ele>
        <time>2016-05-06T08:22:18Z</time>
      </trkpt>
      <trkpt lat="50.62558" lon="2.54188">
        <ele>23.1</ele>
        <time>2016-05-06T08:22:20Z</time>
      </trkpt>
      <trkpt lat="50.62572" lon="2.54175">
        <ele>23.1</ele>
        <time>2016-05-06T08:22:22Z</time>
      </trkpt>
      <trkpt lat="50.62585" lon="2.5416">
        <ele>23</ele>
        <time>2016-05-06T08:22:24Z</time>
      </trkpt>
      <trkpt lat="50.62597" lon="2.54143">
        <ele>23</ele>
        <time>2016-05-06T08:22:26Z</time>
      </trkpt>
      <trkpt lat="50.62608" lon="2.54125">
        <ele>22.9</ele>
        <time>2016-05-06T08:22:28Z</time>
      </trkpt>
      <trkpt lat="50.62619" lon="2.54106">
        <ele>22.9</ele>
        <time>2016-05-06T08:22:30Z</time>
      </trkpt>
      <trkpt lat="50.62629" lon="2.54088">
        <ele>22.9</ele>
        <time>2016-05-06T08:22:32Z</time>
      </trkpt>
      <trkpt lat="50.62637" lon="2.54069">
        <ele>22.9</ele>
        <time>2016-05-06T08:22:34Z</time>
      </trkpt>
      <trkpt lat="50.62646" lon="2.5405">
        <ele>22.8</ele>
        <time>2016-05-06T08:22:36Z</time>
      </trkpt>
      <trkpt lat="50.62657" lon="2.54032">
        <ele>22.8</ele>
        <time>2016-05-06T08:22:38Z</time>
      </trkpt>
      <trkpt lat="50.6267" lon="2.5402">
        <ele>22.8</ele>
        <time>2016-05-06T08:22:40Z</time>
      </trkpt>
      <trkpt lat="50.62681" lon="2.54004">
        <ele>22.8</ele>
        <time>2016-05-06T08:22:42Z</time>
      </trkpt>
      <trkpt lat="50.62685" lon="2.53983">
        <ele>22.8</ele>
        <time>2016-05-06T08:22:44Z</time>
      </trkpt>
      <trkpt lat="50.62685" lon="2.53959">
        <ele>22.8</ele>
        <time>2016-05-06T08:22:46Z</time>
      </trkpt>
      <trkpt lat="50.62686" lon="2.53936">
        <ele>22.8</ele>
        <time>2016-05-06T08:22:48Z</time>
      </trkpt>
      <trkpt lat="50.62686" lon="2.53912">
        <ele>22.9</ele>
        <time>2016-05-06T08:22:50Z</time>
      </trkpt>
      <trkpt lat="50.62686" lon="2.53889">
        <ele>23</ele>
        <time>2016-05-06T08:22:52Z</time>
      </trkpt>
      <trkpt lat="50.62687" lon="2.53866">
        <ele>23</ele>
        <time>2016-05-06T08:22:54Z</time>
      </trkpt>
      <trkpt lat="50.62688" lon="2.53842">
        <ele>23.1</ele>
        <time>2016-05-06T08:22:56Z</time>
      </trkpt>
      <trkpt lat="50.62689" lon="2.5382">
        <ele>23.1</ele>
        <time>2016-05-06T08:22:58Z</time>
      </trkpt>
      <trkpt lat="50.62688" lon="2.53798">
        <ele>23.2</ele>
        <time>2016-05-06T08:23:00Z</time>
      </trkpt>
      <trkpt lat="50.62683" lon="2.53776">
        <ele>23.2</ele>
        <time>2016-05-06T08:23:02Z</time>
      </trkpt>
      <trkpt lat="50.62674" lon="2.5376">
        <ele>23.3</ele>
        <time>2016-05-06T08:23:04Z</time>
      </trkpt>
      <trkpt lat="50.62664" lon="2.53745">
        <ele>23.3</ele>
        <time>2016-05-06T08:23:06Z</time>
      </trkpt>
      <trkpt lat="50.62659" lon="2.53725">
        <ele>23.3</ele>
        <time>2016-05-06T08:23:08Z</time>
      </trkpt>
      <trkpt lat="50.6266" lon="2.53702">
        <ele>23.3</ele>
        <time>2016-05-06T08:23:10Z</time>
      </trkpt>
      <trkpt lat="50.62662" lon="2.5368">
        <ele>23.3</ele>
        <time>2016-05-06T08:23:12Z</time>
      </trkpt>
      <trkpt lat="50.62664" lon="2.53657">
        <ele>23.4</ele>
        <time>2016-05-06T08:23:14Z</time>
      </trkpt>
      <trkpt lat="50.62666" lon="2.53635">
        <ele>23.4</ele>
        <time>2016-05-06T08:23:16Z</time>
      </trkpt>
      <trkpt lat="50.62667" lon="2.53613">
        <ele>23.3</ele>
        <time>2016-05-06T08:23:18Z</time>
      </trkpt>
      <trkpt lat="50.62669" lon="2.5359">
        <ele>23.3</ele>
        <time>2016-05-06T08:23:20Z</time>
      </trkpt>
      <trkpt lat="50.62671" lon="2.53568">
        <ele>23.4</ele>
        <time>2016-05-06T08:23:22Z</time>
      </trkpt>
      <trkpt lat="50.62673" lon="2.53546">
        <ele>23.3</ele>
        <time>2016-05-06T08:23:24Z</time>
      </trkpt>
      <trkpt lat="50.62675" lon="2.53523">
        <ele>23.3</ele>
        <time>2016-05-06T08:23:26Z</time>
      </trkpt>
      <trkpt lat="50.62677" lon="2.535">
        <ele>23.3</ele>
        <time>2016-05-06T08:23:28Z</time>
      </trkpt>
      <trkpt lat="50.62679" lon="2.53477">
        <ele>23.3</ele>
        <time>2016-05-06T08:23:30Z</time>
      </trkpt>
      <trkpt lat="50.62681" lon="2.53454">
        <ele>23.3</ele>
        <time>2016-05-06T08:23:32Z</time>
      </trkpt>
      <trkpt lat="50.62683" lon="2.53431">
        <ele>23.2</ele>
        <time>2016-05-06T08:23:34Z</time>
      </trkpt>
      <trkpt lat="50.62685" lon="2.53408">
        <ele>23.2</ele>
        <time>2016-05-06T08:23:36Z</time>
      </trkpt>
      <trkpt lat="50.62686" lon="2.53386">
        <ele>23.3</ele>
        <time>2016-05-06T08:23:38Z</time>
      </trkpt>
      <trkpt lat="50.62687" lon="2.53363">
        <ele>23.3</ele>
        <time>2016-05-06T08:23:40Z</time>
      </trkpt>
      <trkpt lat="50.62687" lon="2.5334">
        <ele>23.4</ele>
        <time>2016-05-06T08:23:42Z</time>
      </trkpt>
      <trkpt lat="50.62686" lon="2.53317">
        <ele>23.4</ele>
        <time>2016-05-06T08:23:44Z</time>
      </trkpt>
      <trkpt lat="50.62684" lon="2.53295">
        <ele>23.4</ele>
        <time>2016-05-06T08:23:46Z</time>
      </trkpt>
      <trkpt lat="50.62681" lon="2.53273">
        <ele>23.4</ele>
        <time>2016-05-06T08:23:48Z</time>
      </trkpt>
      <trkpt lat="50.62677" lon="2.53251">
        <ele>23.3</ele>
        <time>2016-05-06T08:23:50Z</time>
      </trkpt>
      <trkpt lat="50.62673" lon="2.53229">
        <ele>23.2</ele>
        <time>2016-05-06T08:23:52Z</time>
      </trkpt>
      <trkpt lat="50.6267" lon="2.53207">
        <ele>23.2</ele>
        <time>2016-05-06T08:23:54Z</time>
      </trkpt>
      <trkpt lat="50.62667" lon="2.53186">
        <ele>23.1</ele>
        <time>2016-05-06T08:23:56Z</time>
      </trkpt>
      <trkpt lat="50.62663" lon="2.53165">
        <ele>23.1</ele>
        <time>2016-05-06T08:23:58Z</time>
      </trkpt>
      <trkpt lat="50.6266" lon="2.53144">
        <ele>23.1</ele>
        <time>2016-05-06T08:24:00Z</time>
      </trkpt>
      <trkpt lat="50.62656" lon="2.53121">
        <ele>23.2</ele>
        <time>2016-05-06T08:24:02Z</time>
      </trkpt>
      <trkpt lat="50.62654" lon="2.53098">
        <ele>23.2</ele>
        <time>2016-05-06T08:24:04Z</time>
      </trkpt>
      <trkpt lat="50.62652" lon="2.53074">
        <ele>23.3</ele>
        <time>2016-05-06T08:24:06Z</time>
      </trkpt>
      <trkpt lat="50.62649" lon="2.53051">
        <ele>23.4</ele>
        <time>2016-05-06T08:24:08Z</time>
      </trkpt>
      <trkpt lat="50.62645" lon="2.53027">
        <ele>23.5</ele>
        <time>2016-05-06T08:24:10Z</time>
      </trkpt>
      <trkpt lat="50.62639" lon="2.53004">
        <ele>23.6</ele>
        <time>2016-05-06T08:24:12Z</time>
      </trkpt>
      <trkpt lat="50.62633" lon="2.52981">
        <ele>23.7</ele>
        <time>2016-05-06T08:24:14Z</time>
      </trkpt>
      <trkpt lat="50.62627" lon="2.52958">
        <ele>23.8</ele>
        <time>2016-05-06T08:24:16Z</time>
      </trkpt>
      <trkpt lat="50.62623" lon="2.52934">
        <ele>23.9</ele>
        <time>2016-05-06T08:24:18Z</time>
      </trkpt>
      <trkpt lat="50.62619" lon="2.52911">
        <ele>24</ele>
        <time>2016-05-06T08:24:20Z</time>
      </trkpt>
      <trkpt lat="50.62615" lon="2.52888">
        <ele>24</ele>
        <time>2016-05-06T08:24:22Z</time>
      </trkpt>
      <trkpt lat="50.62611" lon="2.52865">
        <ele>24</ele>
        <time>2016-05-06T08:24:24Z</time>
      </trkpt>
      <trkpt lat="50.62607" lon="2.52843">
        <ele>24.1</ele>
        <time>2016-05-06T08:24:26Z</time>
      </trkpt>
      <trkpt lat="50.62604" lon="2.5282">
        <ele>24.1</ele>
        <time>2016-05-06T08:24:28Z</time>
      </trkpt>
      <trkpt lat="50.62601" lon="2.52797">
        <ele>24.1</ele>
        <time>2016-05-06T08:24:30Z</time>
      </trkpt>
      <trkpt lat="50.62597" lon="2.52774">
        <ele>24.1</ele>
        <time>2016-05-06T08:24:32Z</time>
      </trkpt>
      <trkpt lat="50.62593" lon="2.52751">
        <ele>24.2</ele>
        <time>2016-05-06T08:24:34Z</time>
      </trkpt>
      <trkpt lat="50.62589" lon="2.52728">
        <ele>24.2</ele>
        <time>2016-05-06T08:24:36Z</time>
      </trkpt>
      <trkpt lat="50.62585" lon="2.52706">
        <ele>24.2</ele>
        <time>2016-05-06T08:24:38Z</time>
      </trkpt>
      <trkpt lat="50.6258" lon="2.52683">
        <ele>24.1</ele>
        <time>2016-05-06T08:24:40Z</time>
      </trkpt>
      <trkpt lat="50.62577" lon="2.52661">
        <ele>24.1</ele>
        <time>2016-05-06T08:24:42Z</time>
      </trkpt>
      <trkpt lat="50.62574" lon="2.52638">
        <ele>24</ele>
        <time>2016-05-06T08:24:44Z</time>
      </trkpt>
      <trkpt lat="50.62573" lon="2.52614">
        <ele>24</ele>
        <time>2016-05-06T08:24:46Z</time>
      </trkpt>
      <trkpt lat="50.62573" lon="2.52591">
        <ele>24</ele>
        <time>2016-05-06T08:24:48Z</time>
      </trkpt>
      <trkpt lat="50.62573" lon="2.52567">
        <ele>23.9</ele>
        <time>2016-05-06T08:24:50Z</time>
      </trkpt>
      <trkpt lat="50.62573" lon="2.52544">
        <ele>23.9</ele>
        <time>2016-05-06T08:24:52Z</time>
      </trkpt>
      <trkpt lat="50.62572" lon="2.5252">
        <ele>23.9</ele>
        <time>2016-05-06T08:24:54Z</time>
      </trkpt>
      <trkpt lat="50.62572" lon="2.52496">
        <ele>23.9</ele>
        <time>2016-05-06T08:24:56Z</time>
      </trkpt>
      <trkpt lat="50.62572" lon="2.52473">
        <ele>23.9</ele>
        <time>2016-05-06T08:24:58Z</time>
      </trkpt>
      <trkpt lat="50.62571" lon="2.52449">
        <ele>23.8</ele>
        <time>2016-05-06T08:25:00Z</time>
      </trkpt>
      <trkpt lat="50.62571" lon="2.52425">
        <ele>23.8</ele>
        <time>2016-05-06T08:25:02Z</time>
      </trkpt>
      <trkpt lat="50.62571" lon="2.52402">
        <ele>23.9</ele>
        <time>2016-05-06T08:25:04Z</time>
      </trkpt>
      <trkpt lat="50.62571" lon="2.52378">
        <ele>24</ele>
        <time>2016-05-06T08:25:06Z</time>
      </trkpt>
      <trkpt lat="50.62571" lon="2.52355">
        <ele>24</ele>
        <time>2016-05-06T08:25:08Z</time>
      </trkpt>
      <trkpt lat="50.62571" lon="2.52332">
        <ele>24</ele>
        <time>2016-05-06T08:25:10Z</time>
      </trkpt>
      <trkpt lat="50.6257" lon="2.52309">
        <ele>24.1</ele>
        <time>2016-05-06T08:25:12Z</time>
      </trkpt>
      <trkpt lat="50.6257" lon="2.52287">
        <ele>24.1</ele>
        <time>2016-05-06T08:25:14Z</time>
      </trkpt>
      <trkpt lat="50.6257" lon="2.52264">
        <ele>24.1</ele>
        <time>2016-05-06T08:25:16Z</time>
      </trkpt>
      <trkpt lat="50.6257" lon="2.52242">
        <ele>24.1</ele>
        <time>2016-05-06T08:25:18Z</time>
      </trkpt>
      <trkpt lat="50.6257" lon="2.52219">
        <ele>24.2</ele>
        <time>2016-05-06T08:25:20Z</time>
      </trkpt>
      <trkpt lat="50.62571" lon="2.52197">
        <ele>24.3</ele>
        <time>2016-05-06T08:25:22Z</time>
      </trkpt>
      <trkpt lat="50.62571" lon="2.52175">
        <ele>24.3</ele>
        <time>2016-05-06T08:25:24Z</time>
      </trkpt>
      <trkpt lat="50.6257" lon="2.52152">
        <ele>24.3</ele>
        <time>2016-05-06T08:25:26Z</time>
      </trkpt>
      <trkpt lat="50.62568" lon="2.52129">
        <ele>24.4</ele>
        <time>2016-05-06T08:25:28Z</time>
      </trkpt>
      <trkpt lat="50.62565" lon="2.52108">
        <ele>24.4</ele>
        <time>2016-05-06T08:25:30Z</time>
      </trkpt>
      <trkpt lat="50.62562" lon="2.52086">
        <ele>24.5</ele>
        <time>2016-05-06T08:25:32Z</time>
      </trkpt>
      <trkpt lat="50.6256" lon="2.52065">
        <ele>24.4</ele>
        <time>2016-05-06T08:25:34Z</time>
      </trkpt>
      <trkpt lat="50.62557" lon="2.52043">
        <ele>24.3</ele>
        <time>2016-05-06T08:25:36Z</time>
      </trkpt>
      <trkpt lat="50.62554" lon="2.5202">
        <ele>24.3</ele>
        <time>2016-05-06T08:25:38Z</time>
      </trkpt>
      <trkpt lat="50.62551" lon="2.51997">
        <ele>24.4</ele>
        <time>2016-05-06T08:25:40Z</time>
      </trkpt>
      <trkpt lat="50.62548" lon="2.51974">
        <ele>24.3</ele>
        <time>2016-05-06T08:25:42Z</time>
      </trkpt>
      <trkpt lat="50.62546" lon="2.5195">
        <ele>24.3</ele>
        <time>2016-05-06T08:25:44Z</time>
      </trkpt>
      <trkpt lat="50.62543" lon="2.51927">
        <ele>24.3</ele>
        <time>2016-05-06T08:25:46Z</time>
      </trkpt>
      <trkpt lat="50.62541" lon="2.51905">
        <ele>24.3</ele>
        <time>2016-05-06T08:25:48Z</time>
      </trkpt>
      <trkpt lat="50.62539" lon="2.51882">
        <ele>24.4</ele>
        <time>2016-05-06T08:25:50Z</time>
      </trkpt>
      <trkpt lat="50.62537" lon="2.51859">
        <ele>24.3</ele>
        <time>2016-05-06T08:25:52Z</time>
      </trkpt>
      <trkpt lat="50.62535" lon="2.51838">
        <ele>24.3</ele>
        <time>2016-05-06T08:25:54Z</time>
      </trkpt>
      <trkpt lat="50.62532" lon="2.51816">
        <ele>24.3</ele>
        <time>2016-05-06T08:25:56Z</time>
      </trkpt>
      <trkpt lat="50.6253" lon="2.51793">
        <ele>24.3</ele>
        <time>2016-05-06T08:25:58Z</time>
      </trkpt>
      <trkpt lat="50.62529" lon="2.51771">
        <ele>24.3</ele>
        <time>2016-05-06T08:26:00Z</time>
      </trkpt>
      <trkpt lat="50.62529" lon="2.51748">
        <ele>24.3</ele>
        <time>2016-05-06T08:26:02Z</time>
      </trkpt>
      <trkpt lat="50.6253" lon="2.51725">
        <ele>24.4</ele>
        <time>2016-05-06T08:26:04Z</time>
      </trkpt>
      <trkpt lat="50.62532" lon="2.51701">
        <ele>24.5</ele>
        <time>2016-05-06T08:26:06Z</time>
      </trkpt>
      <trkpt lat="50.62535" lon="2.51678">
        <ele>24.5</ele>
        <time>2016-05-06T08:26:08Z</time>
      </trkpt>
      <trkpt lat="50.62537" lon="2.51656">
        <ele>24.5</ele>
        <time>2016-05-06T08:26:10Z</time>
      </trkpt>
      <trkpt lat="50.6254" lon="2.51634">
        <ele>24.5</ele>
        <time>2016-05-06T08:26:12Z</time>
      </trkpt>
      <trkpt lat="50.62544" lon="2.51612">
        <ele>24.5</ele>
        <time>2016-05-06T08:26:14Z</time>
      </trkpt>
      <trkpt lat="50.62548" lon="2.5159">
        <ele>24.5</ele>
        <time>2016-05-06T08:26:16Z</time>
      </trkpt>
      <trkpt lat="50.62551" lon="2.51568">
        <ele>24.4</ele>
        <time>2016-05-06T08:26:18Z</time>
      </trkpt>
      <trkpt lat="50.62555" lon="2.51545">
        <ele>24.4</ele>
        <time>2016-05-06T08:26:20Z</time>
      </trkpt>
      <trkpt lat="50.62559" lon="2.51521">
        <ele>24.4</ele>
        <time>2016-05-06T08:26:22Z</time>
      </trkpt>
      <trkpt lat="50.62564" lon="2.51496">
        <ele>24.4</ele>
        <time>2016-05-06T08:26:24Z</time>
      </trkpt>
      <trkpt lat="50.62568" lon="2.51471">
        <ele>24.4</ele>
        <time>2016-05-06T08:26:26Z</time>
      </trkpt>
      <trkpt lat="50.62573" lon="2.51446">
        <ele>24.4</ele>
        <time>2016-05-06T08:26:28Z</time>
      </trkpt>
      <trkpt lat="50.62577" lon="2.51421">
        <ele>24.4</ele>
        <time>2016-05-06T08:26:30Z</time>
      </trkpt>
      <trkpt lat="50.62581" lon="2.51396">
        <ele>24.4</ele>
        <time>2016-05-06T08:26:32Z</time>
      </trkpt>
      <trkpt lat="50.62586" lon="2.5137">
        <ele>24.4</ele>
        <time>2016-05-06T08:26:34Z</time>
      </trkpt>
      <trkpt lat="50.62591" lon="2.51345">
        <ele>24.4</ele>
        <time>2016-05-06T08:26:36Z</time>
      </trkpt>
      <trkpt lat="50.62595" lon="2.51321">
        <ele>24.4</ele>
        <time>2016-05-06T08:26:38Z</time>
      </trkpt>
      <trkpt lat="50.626" lon="2.51297">
        <ele>24.4</ele>
        <time>2016-05-06T08:26:40Z</time>
      </trkpt>
      <trkpt lat="50.62604" lon="2.51274">
        <ele>24.4</ele>
        <time>2016-05-06T08:26:42Z</time>
      </trkpt>
      <trkpt lat="50.62609" lon="2.5125">
        <ele>24.4</ele>
        <time>2016-05-06T08:26:44Z</time>
      </trkpt>
      <trkpt lat="50.62613" lon="2.51228">
        <ele>24.4</ele>
        <time>2016-05-06T08:26:46Z</time>
      </trkpt>
      <trkpt lat="50.62616" lon="2.51205">
        <ele>24.4</ele>
        <time>2016-05-06T08:26:48Z</time>
      </trkpt>
      <trkpt lat="50.62618" lon="2.51181">
        <ele>24.4</ele>
        <time>2016-05-06T08:26:50Z</time>
      </trkpt>
      <trkpt lat="50.6262" lon="2.51158">
        <ele>24.4</ele>
        <time>2016-05-06T08:26:52Z</time>
      </trkpt>
      <trkpt lat="50.6262" lon="2.51134">
        <ele>24.4</ele>
        <time>2016-05-06T08:26:54Z</time>
      </trkpt>
      <trkpt lat="50.6262" lon="2.5111">
        <ele>24.5</ele>
        <time>2016-05-06T08:26:56Z</time>
      </trkpt>
      <trkpt lat="50.62618" lon="2.51086">
        <ele>24.5</ele>
        <time>2016-05-06T08:26:58Z</time>
      </trkpt>
      <trkpt lat="50.62616" lon="2.51062">
        <ele>24.6</ele>
        <time>2016-05-06T08:27:00Z</time>
      </trkpt>
      <trkpt lat="50.62613" lon="2.51038">
        <ele>24.6</ele>
        <time>2016-05-06T08:27:02Z</time>
      </trkpt>
      <trkpt lat="50.62609" lon="2.51014">
        <ele>24.5</ele>
        <time>2016-05-06T08:27:04Z</time>
      </trkpt>
      <trkpt lat="50.62604" lon="2.50991">
        <ele>24.4</ele>
        <time>2016-05-06T08:27:06Z</time>
      </trkpt>
      <trkpt lat="50.62599" lon="2.5097">
        <ele>24.4</ele>
        <time>2016-05-06T08:27:08Z</time>
      </trkpt>
      <trkpt lat="50.62594" lon="2.50948">
        <ele>24.3</ele>
        <time>2016-05-06T08:27:10Z</time>
      </trkpt>
      <trkpt lat="50.62589" lon="2.50926">
        <ele>24.3</ele>
        <time>2016-05-06T08:27:12Z</time>
      </trkpt>
      <trkpt lat="50.62584" lon="2.50904">
        <ele>24.3</ele>
        <time>2016-05-06T08:27:14Z</time>
      </trkpt>
      <trkpt lat="50.62579" lon="2.50883">
        <ele>24.3</ele>
        <time>2016-05-06T08:27:16Z</time>
      </trkpt>
      <trkpt lat="50.62576" lon="2.50861">
        <ele>24.2</ele>
        <time>2016-05-06T08:27:18Z</time>
      </trkpt>
      <trkpt lat="50.62574" lon="2.50838">
        <ele>24.2</ele>
        <time>2016-05-06T08:27:20Z</time>
      </trkpt>
      <trkpt lat="50.62574" lon="2.50814">
        <ele>24.2</ele>
        <time>2016-05-06T08:27:22Z</time>
      </trkpt>
      <trkpt lat="50.62575" lon="2.50791">
        <ele>24.2</ele>
        <time>2016-05-06T08:27:24Z</time>
      </trkpt>
      <trkpt lat="50.62576" lon="2.50767">
        <ele>24.2</ele>
        <time>2016-05-06T08:27:26Z</time>
      </trkpt>
      <trkpt lat="50.62577" lon="2.50744">
        <ele>24.2</ele>
        <time>2016-05-06T08:27:28Z</time>
      </trkpt>
      <trkpt lat="50.6258" lon="2.50721">
        <ele>24.2</ele>
        <time>2016-05-06T08:27:30Z</time>
      </trkpt>
      <trkpt lat="50.62582" lon="2.50697">
        <ele>24.1</ele>
        <time>2016-05-06T08:27:32Z</time>
      </trkpt>
      <trkpt lat="50.62585" lon="2.50673">
        <ele>24.1</ele>
        <time>2016-05-06T08:27:34Z</time>
      </trkpt>
      <trkpt lat="50.62588" lon="2.50649">
        <ele>24.2</ele>
        <time>2016-05-06T08:27:36Z</time>
      </trkpt>
      <trkpt lat="50.62591" lon="2.50625">
        <ele>24.3</ele>
        <time>2016-05-06T08:27:38Z</time>
      </trkpt>
      <trkpt lat="50.62595" lon="2.50601">
        <ele>24.3</ele>
        <time>2016-05-06T08:27:40Z</time>
      </trkpt>
      <trkpt lat="50.626" lon="2.50577">
        <ele>24.4</ele>
        <time>2016-05-06T08:27:42Z</time>
      </trkpt>
      <trkpt lat="50.62604" lon="2.50553">
        <ele>24.5</ele>
        <time>2016-05-06T08:27:44Z</time>
      </trkpt>
      <trkpt lat="50.62609" lon="2.50531">
        <ele>24.7</ele>
        <time>2016-05-06T08:27:46Z</time>
      </trkpt>
      <trkpt lat="50.62613" lon="2.50508">
        <ele>24.8</ele>
        <time>2016-05-06T08:27:48Z</time>
      </trkpt>
      <trkpt lat="50.62617" lon="2.50487">
        <ele>24.8</ele>
        <time>2016-05-06T08:27:50Z</time>
      </trkpt>
      <trkpt lat="50.62621" lon="2.50466">
        <ele>24.8</ele>
        <time>2016-05-06T08:27:52Z</time>
      </trkpt>
      <trkpt lat="50.62626" lon="2.50445">
        <ele>24.8</ele>
        <time>2016-05-06T08:27:54Z</time>
      </trkpt>
      <trkpt lat="50.62632" lon="2.50425">
        <ele>24.8</ele>
        <time>2016-05-06T08:27:56Z</time>
      </trkpt>
      <trkpt lat="50.62639" lon="2.50405">
        <ele>24.8</ele>
        <time>2016-05-06T08:27:58Z</time>
      </trkpt>
      <trkpt lat="50.62646" lon="2.50385">
        <ele>24.8</ele>
        <time>2016-05-06T08:28:00Z</time>
      </trkpt>
      <trkpt lat="50.62654" lon="2.50365">
        <ele>24.8</ele>
        <time>2016-05-06T08:28:02Z</time>
      </trkpt>
      <trkpt lat="50.62661" lon="2.50346">
        <ele>24.8</ele>
        <time>2016-05-06T08:28:04Z</time>
      </trkpt>
      <trkpt lat="50.6267" lon="2.50327">
        <ele>24.9</ele>
        <time>2016-05-06T08:28:06Z</time>
      </trkpt>
      <trkpt lat="50.62678" lon="2.50307">
        <ele>24.9</ele>
        <time>2016-05-06T08:28:08Z</time>
      </trkpt>
      <trkpt lat="50.62688" lon="2.50289">
        <ele>24.9</ele>
        <time>2016-05-06T08:28:10Z</time>
      </trkpt>
      <trkpt lat="50.62699" lon="2.50273">
        <ele>24.9</ele>
        <time>2016-05-06T08:28:12Z</time>
      </trkpt>
      <trkpt lat="50.62711" lon="2.5026">
        <ele>25</ele>
        <time>2016-05-06T08:28:14Z</time>
      </trkpt>
      <trkpt lat="50.62723" lon="2.50247">
        <ele>25</ele>
        <time>2016-05-06T08:28:16Z</time>
      </trkpt>
      <trkpt lat="50.62734" lon="2.50234">
        <ele>25</ele>
        <time>2016-05-06T08:28:18Z</time>
      </trkpt>
      <trkpt lat="50.62746" lon="2.5022">
        <ele>25</ele>
        <time>2016-05-06T08:28:20Z</time>
      </trkpt>
      <trkpt lat="50.62758" lon="2.50207">
        <ele>25</ele>
        <time>2016-05-06T08:28:22Z</time>
      </trkpt>
      <trkpt lat="50.6277" lon="2.50192">
        <ele>25</ele>
        <time>2016-05-06T08:28:24Z</time>
      </trkpt>
      <trkpt lat="50.6278" lon="2.50177">
        <ele>25</ele>
        <time>2016-05-06T08:28:26Z</time>
      </trkpt>
      <trkpt lat="50.6279" lon="2.50161">
        <ele>25</ele>
        <time>2016-05-06T08:28:28Z</time>
      </trkpt>
      <trkpt lat="50.628" lon="2.50144">
        <ele>25</ele>
        <time>2016-05-06T08:28:30Z</time>
      </trkpt>
      <trkpt lat="50.62811" lon="2.50126">
        <ele>25.1</ele>
        <time>2016-05-06T08:28:32Z</time>
      </trkpt>
      <trkpt lat="50.62822" lon="2.50106">
        <ele>25</ele>
        <time>2016-05-06T08:28:34Z</time>
      </trkpt>
      <trkpt lat="50.62831" lon="2.50085">
        <ele>25</ele>
        <time>2016-05-06T08:28:36Z</time>
      </trkpt>
      <trkpt lat="50.62841" lon="2.50065">
        <ele>24.9</ele>
        <time>2016-05-06T08:28:38Z</time>
      </trkpt>
      <trkpt lat="50.6285" lon="2.50044">
        <ele>24.9</ele>
        <time>2016-05-06T08:28:40Z</time>
      </trkpt>
      <trkpt lat="50.62859" lon="2.50023">
        <ele>24.8</ele>
        <time>2016-05-06T08:28:42Z</time>
      </trkpt>
      <trkpt lat="50.62868" lon="2.50003">
        <ele>24.8</ele>
        <time>2016-05-06T08:28:44Z</time>
      </trkpt>
      <trkpt lat="50.62878" lon="2.49982">
        <ele>24.8</ele>
        <time>2016-05-06T08:28:46Z</time>
      </trkpt>
      <trkpt lat="50.62887" lon="2.49962">
        <ele>24.8</ele>
        <time>2016-05-06T08:28:48Z</time>
      </trkpt>
      <trkpt lat="50.62896" lon="2.49941">
        <ele>24.7</ele>
        <time>2016-05-06T08:28:50Z</time>
      </trkpt>
      <trkpt lat="50.62906" lon="2.4992">
        <ele>24.7</ele>
        <time>2016-05-06T08:28:52Z</time>
      </trkpt>
      <trkpt lat="50.62916" lon="2.49899">
        <ele>24.7</ele>
        <time>2016-05-06T08:28:54Z</time>
      </trkpt>
      <trkpt lat="50.62925" lon="2.4988">
        <ele>24.8</ele>
        <time>2016-05-06T08:28:56Z</time>
      </trkpt>
      <trkpt lat="50.62935" lon="2.49862">
        <ele>25</ele>
        <time>2016-05-06T08:28:58Z</time>
      </trkpt>
      <trkpt lat="50.62942" lon="2.49842">
        <ele>25.1</ele>
        <time>2016-05-06T08:29:00Z</time>
      </trkpt>
      <trkpt lat="50.62945" lon="2.4982">
        <ele>25.1</ele>
        <time>2016-05-06T08:29:02Z</time>
      </trkpt>
      <trkpt lat="50.62944" lon="2.49798">
        <ele>25.2</ele>
        <time>2016-05-06T08:29:04Z</time>
      </trkpt>
      <trkpt lat="50.62939" lon="2.49775">
        <ele>25.2</ele>
        <time>2016-05-06T08:29:06Z</time>
      </trkpt>
      <trkpt lat="50.62934" lon="2.49752">
        <ele>25.3</ele>
        <time>2016-05-06T08:29:08Z</time>
      </trkpt>
      <trkpt lat="50.62929" lon="2.49729">
        <ele>25.3</ele>
        <time>2016-05-06T08:29:10Z</time>
      </trkpt>
      <trkpt lat="50.62924" lon="2.49705">
        <ele>25.4</ele>
        <time>2016-05-06T08:29:12Z</time>
      </trkpt>
      <trkpt lat="50.62919" lon="2.49682">
        <ele>25.3</ele>
        <time>2016-05-06T08:29:14Z</time>
      </trkpt>
      <trkpt lat="50.62914" lon="2.49658">
        <ele>25.3</ele>
        <time>2016-05-06T08:29:16Z</time>
      </trkpt>
      <trkpt lat="50.6291" lon="2.49632">
        <ele>25.3</ele>
        <time>2016-05-06T08:29:18Z</time>
      </trkpt>
      <trkpt lat="50.62907" lon="2.49606">
        <ele>25.3</ele>
        <time>2016-05-06T08:29:20Z</time>
      </trkpt>
      <trkpt lat="50.62905" lon="2.49582">
        <ele>25.3</ele>
        <time>2016-05-06T08:29:22Z</time>
      </trkpt>
      <trkpt lat="50.62903" lon="2.49558">
        <ele>25.2</ele>
        <time>2016-05-06T08:29:24Z</time>
      </trkpt>
      <trkpt lat="50.62901" lon="2.49533">
        <ele>25.2</ele>
        <time>2016-05-06T08:29:26Z</time>
      </trkpt>
      <trkpt lat="50.62901" lon="2.49509">
        <ele>25.2</ele>
        <time>2016-05-06T08:29:28Z</time>
      </trkpt>
      <trkpt lat="50.62899" lon="2.49485">
        <ele>25.1</ele>
        <time>2016-05-06T08:29:30Z</time>
      </trkpt>
      <trkpt lat="50.62898" lon="2.49461">
        <ele>25</ele>
        <time>2016-05-06T08:29:32Z</time>
      </trkpt>
      <trkpt lat="50.62896" lon="2.49437">
        <ele>25</ele>
        <time>2016-05-06T08:29:34Z</time>
      </trkpt>
      <trkpt lat="50.62894" lon="2.49413">
        <ele>25</ele>
        <time>2016-05-06T08:29:36Z</time>
      </trkpt>
      <trkpt lat="50.62892" lon="2.49389">
        <ele>25</ele>
        <time>2016-05-06T08:29:38Z</time>
      </trkpt>
      <trkpt lat="50.6289" lon="2.49364">
        <ele>25</ele>
        <time>2016-05-06T08:29:40Z</time>
      </trkpt>
      <trkpt lat="50.62889" lon="2.49338">
        <ele>25</ele>
        <time>2016-05-06T08:29:42Z</time>
      </trkpt>
      <trkpt lat="50.62889" lon="2.49312">
        <ele>25</ele>
        <time>2016-05-06T08:29:44Z</time>
      </trkpt>
      <trkpt lat="50.62889" lon="2.49286">
        <ele>25</ele>
        <time>2016-05-06T08:29:46Z</time>
      </trkpt>
      <trkpt lat="50.6289" lon="2.4926">
        <ele>24.9</ele>
        <time>2016-05-06T08:29:48Z</time>
      </trkpt>
      <trkpt lat="50.62891" lon="2.49234">
        <ele>24.9</ele>
        <time>2016-05-06T08:29:50Z</time>
      </trkpt>
      <trkpt lat="50.62892" lon="2.49208">
        <ele>24.9</ele>
        <time>2016-05-06T08:29:52Z</time>
      </trkpt>
      <trkpt lat="50.62893" lon="2.49183">
        <ele>24.9</ele>
        <time>2016-05-06T08:29:54Z</time>
      </trkpt>
      <trkpt lat="50.62894" lon="2.49158">
        <ele>24.9</ele>
        <time>2016-05-06T08:29:56Z</time>
      </trkpt>
      <trkpt lat="50.62895" lon="2.49133">
        <ele>24.9</ele>
        <time>2016-05-06T08:29:58Z</time>
      </trkpt>
      <trkpt lat="50.62895" lon="2.49106">
        <ele>24.9</ele>
        <time>2016-05-06T08:30:00Z</time>
      </trkpt>
      <trkpt lat="50.62896" lon="2.49079">
        <ele>24.9</ele>
        <time>2016-05-06T08:30:02Z</time>
      </trkpt>
      <trkpt lat="50.62897" lon="2.49053">
        <ele>24.9</ele>
        <time>2016-05-06T08:30:04Z</time>
      </trkpt>
      <trkpt lat="50.62897" lon="2.49026">
        <ele>24.9</ele>
        <time>2016-05-06T08:30:06Z</time>
      </trkpt>
      <trkpt lat="50.62896" lon="2.48999">
        <ele>24.9</ele>
        <time>2016-05-06T08:30:08Z</time>
      </trkpt>
      <trkpt lat="50.62894" lon="2.48972">
        <ele>24.9</ele>
        <time>2016-05-06T08:30:10Z</time>
      </trkpt>
      <trkpt lat="50.62892" lon="2.48945">
        <ele>24.9</ele>
        <time>2016-05-06T08:30:12Z</time>
      </trkpt>
      <trkpt lat="50.6289" lon="2.48919">
        <ele>24.9</ele>
        <time>2016-05-06T08:30:14Z</time>
      </trkpt>
      <trkpt lat="50.62888" lon="2.48893">
        <ele>24.9</ele>
        <time>2016-05-06T08:30:16Z</time>
      </trkpt>
      <trkpt lat="50.62888" lon="2.48867">
        <ele>24.9</ele>
        <time>2016-05-06T08:30:18Z</time>
      </trkpt>
      <trkpt lat="50.62891" lon="2.48842">
        <ele>24.9</ele>
        <time>2016-05-06T08:30:20Z</time>
      </trkpt>
      <trkpt lat="50.62897" lon="2.48819">
        <ele>24.9</ele>
        <time>2016-05-06T08:30:22Z</time>
      </trkpt>
      <trkpt lat="50.62904" lon="2.48795">
        <ele>24.9</ele>
        <time>2016-05-06T08:30:24Z</time>
      </trkpt>
      <trkpt lat="50.62912" lon="2.48772">
        <ele>24.9</ele>
        <time>2016-05-06T08:30:26Z</time>
      </trkpt>
      <trkpt lat="50.62919" lon="2.48749">
        <ele>24.9</ele>
        <time>2016-05-06T08:30:28Z</time>
      </trkpt>
      <trkpt lat="50.62926" lon="2.48725">
        <ele>24.9</ele>
        <time>2016-05-06T08:30:30Z</time>
      </trkpt>
      <trkpt lat="50.62933" lon="2.48702">
        <ele>24.9</ele>
        <time>2016-05-06T08:30:32Z</time>
      </trkpt>
      <trkpt lat="50.6294" lon="2.48679">
        <ele>24.9</ele>
        <time>2016-05-06T08:30:34Z</time>
      </trkpt>
      <trkpt lat="50.62946" lon="2.48656">
        <ele>24.9</ele>
        <time>2016-05-06T08:30:36Z</time>
      </trkpt>
      <trkpt lat="50.62951" lon="2.48633">
        <ele>24.9</ele>
        <time>2016-05-06T08:30:38Z</time>
      </trkpt>
      <trkpt lat="50.62957" lon="2.48611">
        <ele>24.9</ele>
        <time>2016-05-06T08:30:40Z</time>
      </trkpt>
      <trkpt lat="50.62963" lon="2.48589">
        <ele>24.9</ele>
        <time>2016-05-06T08:30:42Z</time>
      </trkpt>
      <trkpt lat="50.62968" lon="2.48567">
        <ele>24.9</ele>
        <time>2016-05-06T08:30:44Z</time>
      </trkpt>
      <trkpt lat="50.62975" lon="2.48546">
        <ele>24.9</ele>
        <time>2016-05-06T08:30:46Z</time>
      </trkpt>
      <trkpt lat="50.62987" lon="2.48533">
        <ele>24.9</ele>
        <time>2016-05-06T08:30:48Z</time>
      </trkpt>
      <trkpt lat="50.63001" lon="2.48521">
        <ele>24.9</ele>
        <time>2016-05-06T08:30:50Z</time>
      </trkpt>
      <trkpt lat="50.63014" lon="2.48507">
        <ele>24.9</ele>
        <time>2016-05-06T08:30:52Z</time>
      </trkpt>
      <trkpt lat="50.63025" lon="2.4849">
        <ele>24.9</ele>
        <time>2016-05-06T08:30:54Z</time>
      </trkpt>
      <trkpt lat="50.63036" lon="2.48473">
        <ele>24.9</ele>
        <time>2016-05-06T08:30:56Z</time>
      </trkpt>
      <trkpt lat="50.63046" lon="2.48454">
        <ele>24.9</ele>
        <time>2016-05-06T08:30:58Z</time>
      </trkpt>
      <trkpt lat="50.63054" lon="2.48433">
        <ele>24.9</ele>
        <time>2016-05-06T08:31:00Z</time>
      </trkpt>
      <trkpt lat="50.63062" lon="2.4841">
        <ele>24.9</ele>
        <time>2016-05-06T08:31:02Z</time>
      </trkpt>
      <trkpt lat="50.63068" lon="2.48386">
        <ele>24.9</ele>
        <time>2016-05-06T08:31:04Z</time>
      </trkpt>
      <trkpt lat="50.63075" lon="2.48362">
        <ele>24.9</ele>
        <time>2016-05-06T08:31:06Z</time>
      </trkpt>
      <trkpt lat="50.63082" lon="2.48337">
        <ele>24.9</ele>
        <time>2016-05-06T08:31:08Z</time>
      </trkpt>
      <trkpt lat="50.63088" lon="2.48312">
        <ele>24.9</ele>
        <time>2016-05-06T08:31:10Z</time>
      </trkpt>
      <trkpt lat="50.63093" lon="2.48285">
        <ele>24.9</ele>
        <time>2016-05-06T08:31:12Z</time>
      </trkpt>
      <trkpt lat="50.63096" lon="2.48257">
        <ele>24.9</ele>
        <time>2016-05-06T08:31:14Z</time>
      </trkpt>
      <trkpt lat="50.63098" lon="2.48231">
        <ele>24.9</ele>
        <time>2016-05-06T08:31:16Z</time>
      </trkpt>
      <trkpt lat="50.63098" lon="2.48204">
        <ele>24.9</ele>
        <time>2016-05-06T08:31:18Z</time>
      </trkpt>
      <trkpt lat="50.63099" lon="2.48177">
        <ele>24.9</ele>
        <time>2016-05-06T08:31:20Z</time>
      </trkpt>
      <trkpt lat="50.63099" lon="2.48149">
        <ele>24.9</ele>
        <time>2016-05-06T08:31:22Z</time>
      </trkpt>
      <trkpt lat="50.631" lon="2.48121">
        <ele>25</ele>
        <time>2016-05-06T08:31:24Z</time>
      </trkpt>
      <trkpt lat="50.63105" lon="2.48096">
        <ele>25</ele>
        <time>2016-05-06T08:31:26Z</time>
      </trkpt>
      <trkpt lat="50.63114" lon="2.48074">
        <ele>25.1</ele>
        <time>2016-05-06T08:31:28Z</time>
      </trkpt>
      <trkpt lat="50.63126" lon="2.48054">
        <ele>25.1</ele>
        <time>2016-05-06T08:31:30Z</time>
      </trkpt>
      <trkpt lat="50.63137" lon="2.48036">
        <ele>25.1</ele>
        <time>2016-05-06T08:31:32Z</time>
      </trkpt>
      <trkpt lat="50.63149" lon="2.48016">
        <ele>25.1</ele>
        <time>2016-05-06T08:31:34Z</time>
      </trkpt>
      <trkpt lat="50.63161" lon="2.47997">
        <ele>25.1</ele>
        <time>2016-05-06T08:31:36Z</time>
      </trkpt>
      <trkpt lat="50.63172" lon="2.47978">
        <ele>25.2</ele>
        <time>2016-05-06T08:31:38Z</time>
      </trkpt>
      <trkpt lat="50.63184" lon="2.47959">
        <ele>25.2</ele>
        <time>2016-05-06T08:31:40Z</time>
      </trkpt>
      <trkpt lat="50.63195" lon="2.47939">
        <ele>25.2</ele>
        <time>2016-05-06T08:31:42Z</time>
      </trkpt>
      <trkpt lat="50.63207" lon="2.4792">
        <ele>25.2</ele>
        <time>2016-05-06T08:31:44Z</time>
      </trkpt>
      <trkpt lat="50.63219" lon="2.47901">
        <ele>25.2</ele>
        <time>2016-05-06T08:31:46Z</time>
      </trkpt>
      <trkpt lat="50.63229" lon="2.4788">
        <ele>25.1</ele>
        <time>2016-05-06T08:31:48Z</time>
      </trkpt>
      <trkpt lat="50.63239" lon="2.47858">
        <ele>25.1</ele>
        <time>2016-05-06T08:31:50Z</time>
      </trkpt>
      <trkpt lat="50.63248" lon="2.47834">
        <ele>25.1</ele>
        <time>2016-05-06T08:31:52Z</time>
      </trkpt>
      <trkpt lat="50.63257" lon="2.47809">
        <ele>25.1</ele>
        <time>2016-05-06T08:31:54Z</time>
      </trkpt>
      <trkpt lat="50.63265" lon="2.47784">
        <ele>25.2</ele>
        <time>2016-05-06T08:31:56Z</time>
      </trkpt>
      <trkpt lat="50.63273" lon="2.4776">
        <ele>25.2</ele>
        <time>2016-05-06T08:31:58Z</time>
      </trkpt>
      <trkpt lat="50.6328" lon="2.47737">
        <ele>25.2</ele>
        <time>2016-05-06T08:32:00Z</time>
      </trkpt>
      <trkpt lat="50.63288" lon="2.47714">
        <ele>25.3</ele>
        <time>2016-05-06T08:32:02Z</time>
      </trkpt>
      <trkpt lat="50.63296" lon="2.47692">
        <ele>25.3</ele>
        <time>2016-05-06T08:32:04Z</time>
      </trkpt>
      <trkpt lat="50.63304" lon="2.4767">
        <ele>25.3</ele>
        <time>2016-05-06T08:32:06Z</time>
      </trkpt>
      <trkpt lat="50.6331" lon="2.47648">
        <ele>25.4</ele>
        <time>2016-05-06T08:32:08Z</time>
      </trkpt>
      <trkpt lat="50.63316" lon="2.47625">
        <ele>25.4</ele>
        <time>2016-05-06T08:32:10Z</time>
      </trkpt>
      <trkpt lat="50.6332" lon="2.47602">
        <ele>25.4</ele>
        <time>2016-05-06T08:32:12Z</time>
      </trkpt>
      <trkpt lat="50.63325" lon="2.47579">
        <ele>25.4</ele>
        <time>2016-05-06T08:32:14Z</time>
      </trkpt>
      <trkpt lat="50.6333" lon="2.47556">
        <ele>25.4</ele>
        <time>2016-05-06T08:32:16Z</time>
      </trkpt>
      <trkpt lat="50.63336" lon="2.47535">
        <ele>25.4</ele>
        <time>2016-05-06T08:32:18Z</time>
      </trkpt>
      <trkpt lat="50.63344" lon="2.47514">
        <ele>25.4</ele>
        <time>2016-05-06T08:32:20Z</time>
      </trkpt>
      <trkpt lat="50.63352" lon="2.47495">
        <ele>25.4</ele>
        <time>2016-05-06T08:32:22Z</time>
      </trkpt>
      <trkpt lat="50.63362" lon="2.47477">
        <ele>25.4</ele>
        <time>2016-05-06T08:32:24Z</time>
      </trkpt>
      <trkpt lat="50.63372" lon="2.47459">
        <ele>25.4</ele>
        <time>2016-05-06T08:32:26Z</time>
      </trkpt>
      <trkpt lat="50.63383" lon="2.47442">
        <ele>25.4</ele>
        <time>2016-05-06T08:32:28Z</time>
      </trkpt>
      <trkpt lat="50.63395" lon="2.47426">
        <ele>25.4</ele>
        <time>2016-05-06T08:32:30Z</time>
      </trkpt>
      <trkpt lat="50.63406" lon="2.47411">
        <ele>25.4</ele>
        <time>2016-05-06T08:32:32Z</time>
      </trkpt>
      <trkpt lat="50.63417" lon="2.47395">
        <ele>25.5</ele>
        <time>2016-05-06T08:32:34Z</time>
      </trkpt>
      <trkpt lat="50.63425" lon="2.47384">
        <ele>25.7</ele>
        <time>2016-05-06T08:32:35Z</time>
      </trkpt>
      <trkpt lat="50.63434" lon="2.47368">
        <ele>25.7</ele>
        <time>2016-05-06T08:32:37Z</time>
      </trkpt>
      <trkpt lat="50.63442" lon="2.47352">
        <ele>25.7</ele>
        <time>2016-05-06T08:32:39Z</time>
      </trkpt>
      <trkpt lat="50.63455" lon="2.47337">
        <ele>25.7</ele>
        <time>2016-05-06T08:32:41Z</time>
      </trkpt>
      <trkpt lat="50.63468" lon="2.47322">
        <ele>25.6</ele>
        <time>2016-05-06T08:32:43Z</time>
      </trkpt>
      <trkpt lat="50.63481" lon="2.47308">
        <ele>25.5</ele>
        <time>2016-05-06T08:32:45Z</time>
      </trkpt>
      <trkpt lat="50.63495" lon="2.47295">
        <ele>25.4</ele>
        <time>2016-05-06T08:32:47Z</time>
      </trkpt>
      <trkpt lat="50.63508" lon="2.47283">
        <ele>25.4</ele>
        <time>2016-05-06T08:32:49Z</time>
      </trkpt>
      <trkpt lat="50.63522" lon="2.4727">
        <ele>25.3</ele>
        <time>2016-05-06T08:32:51Z</time>
      </trkpt>
      <trkpt lat="50.63535" lon="2.47258">
        <ele>25.3</ele>
        <time>2016-05-06T08:32:53Z</time>
      </trkpt>
      <trkpt lat="50.63548" lon="2.47244">
        <ele>25.2</ele>
        <time>2016-05-06T08:32:55Z</time>
      </trkpt>
      <trkpt lat="50.63559" lon="2.4723">
        <ele>25.2</ele>
        <time>2016-05-06T08:32:57Z</time>
      </trkpt>
      <trkpt lat="50.6357" lon="2.47213">
        <ele>25.2</ele>
        <time>2016-05-06T08:32:59Z</time>
      </trkpt>
      <trkpt lat="50.63581" lon="2.47196">
        <ele>25.1</ele>
        <time>2016-05-06T08:33:01Z</time>
      </trkpt>
      <trkpt lat="50.63592" lon="2.47178">
        <ele>25.1</ele>
        <time>2016-05-06T08:33:03Z</time>
      </trkpt>
      <trkpt lat="50.63603" lon="2.4716">
        <ele>25.1</ele>
        <time>2016-05-06T08:33:05Z</time>
      </trkpt>
      <trkpt lat="50.63614" lon="2.47144">
        <ele>25.1</ele>
        <time>2016-05-06T08:33:07Z</time>
      </trkpt>
      <trkpt lat="50.63625" lon="2.47126">
        <ele>25</ele>
        <time>2016-05-06T08:33:09Z</time>
      </trkpt>
      <trkpt lat="50.63636" lon="2.47108">
        <ele>25</ele>
        <time>2016-05-06T08:33:11Z</time>
      </trkpt>
      <trkpt lat="50.63649" lon="2.47092">
        <ele>25</ele>
        <time>2016-05-06T08:33:13Z</time>
      </trkpt>
      <trkpt lat="50.63664" lon="2.47084">
        <ele>25</ele>
        <time>2016-05-06T08:33:15Z</time>
      </trkpt>
      <trkpt lat="50.63679" lon="2.47087">
        <ele>25</ele>
        <time>2016-05-06T08:33:17Z</time>
      </trkpt>
      <trkpt lat="50.63691" lon="2.47101">
        <ele>25</ele>
        <time>2016-05-06T08:33:19Z</time>
      </trkpt>
      <trkpt lat="50.637" lon="2.47117">
        <ele>25</ele>
        <time>2016-05-06T08:33:21Z</time>
      </trkpt>
      <trkpt lat="50.6371" lon="2.47134">
        <ele>25</ele>
        <time>2016-05-06T08:33:23Z</time>
      </trkpt>
      <trkpt lat="50.6372" lon="2.47147">
        <ele>25</ele>
        <time>2016-05-06T08:33:25Z</time>
      </trkpt>
      <trkpt lat="50.63733" lon="2.4715">
        <ele>25</ele>
        <time>2016-05-06T08:33:27Z</time>
      </trkpt>
      <trkpt lat="50.63745" lon="2.47144">
        <ele>25</ele>
        <time>2016-05-06T08:33:29Z</time>
      </trkpt>
      <trkpt lat="50.63758" lon="2.47144">
        <ele>25</ele>
        <time>2016-05-06T08:33:31Z</time>
      </trkpt>
      <trkpt lat="50.63774" lon="2.47146">
        <ele>25</ele>
        <time>2016-05-06T08:33:33Z</time>
      </trkpt>
      <trkpt lat="50.63788" lon="2.47145">
        <ele>25</ele>
        <time>2016-05-06T08:33:35Z</time>
      </trkpt>
      <trkpt lat="50.63801" lon="2.47142">
        <ele>25</ele>
        <time>2016-05-06T08:33:37Z</time>
      </trkpt>
      <trkpt lat="50.63814" lon="2.4714">
        <ele>25</ele>
        <time>2016-05-06T08:33:39Z</time>
      </trkpt>
      <trkpt lat="50.63827" lon="2.4714">
        <ele>25</ele>
        <time>2016-05-06T08:33:41Z</time>
      </trkpt>
      <trkpt lat="50.63841" lon="2.47138">
        <ele>25.1</ele>
        <time>2016-05-06T08:33:43Z</time>
      </trkpt>
      <trkpt lat="50.63854" lon="2.47131">
        <ele>25</ele>
        <time>2016-05-06T08:33:45Z</time>
      </trkpt>
      <trkpt lat="50.63866" lon="2.47118">
        <ele>24.9</ele>
        <time>2016-05-06T08:33:47Z</time>
      </trkpt>
      <trkpt lat="50.63874" lon="2.471">
        <ele>24.9</ele>
        <time>2016-05-06T08:33:49Z</time>
      </trkpt>
      <trkpt lat="50.63881" lon="2.4708">
        <ele>24.8</ele>
        <time>2016-05-06T08:33:51Z</time>
      </trkpt>
      <trkpt lat="50.63887" lon="2.47059">
        <ele>24.8</ele>
        <time>2016-05-06T08:33:53Z</time>
      </trkpt>
      <trkpt lat="50.63894" lon="2.47038">
        <ele>24.8</ele>
        <time>2016-05-06T08:33:55Z</time>
      </trkpt>
      <trkpt lat="50.63903" lon="2.47018">
        <ele>24.7</ele>
        <time>2016-05-06T08:33:57Z</time>
      </trkpt>
      <trkpt lat="50.63911" lon="2.46999">
        <ele>24.7</ele>
        <time>2016-05-06T08:33:59Z</time>
      </trkpt>
      <trkpt lat="50.63919" lon="2.46979">
        <ele>24.7</ele>
        <time>2016-05-06T08:34:01Z</time>
      </trkpt>
      <trkpt lat="50.63925" lon="2.46957">
        <ele>24.7</ele>
        <time>2016-05-06T08:34:03Z</time>
      </trkpt>
      <trkpt lat="50.6393" lon="2.46935">
        <ele>24.7</ele>
        <time>2016-05-06T08:34:05Z</time>
      </trkpt>
      <trkpt lat="50.63934" lon="2.46912">
        <ele>24.8</ele>
        <time>2016-05-06T08:34:07Z</time>
      </trkpt>
      <trkpt lat="50.63938" lon="2.46889">
        <ele>24.8</ele>
        <time>2016-05-06T08:34:09Z</time>
      </trkpt>
      <trkpt lat="50.63942" lon="2.46867">
        <ele>24.9</ele>
        <time>2016-05-06T08:34:11Z</time>
      </trkpt>
      <trkpt lat="50.63946" lon="2.46844">
        <ele>25</ele>
        <time>2016-05-06T08:34:13Z</time>
      </trkpt>
      <trkpt lat="50.6395" lon="2.4682">
        <ele>25</ele>
        <time>2016-05-06T08:34:15Z</time>
      </trkpt>
      <trkpt lat="50.63954" lon="2.46797">
        <ele>25</ele>
        <time>2016-05-06T08:34:17Z</time>
      </trkpt>
      <trkpt lat="50.63958" lon="2.46774">
        <ele>25.1</ele>
        <time>2016-05-06T08:34:19Z</time>
      </trkpt>
      <trkpt lat="50.6396" lon="2.46751">
        <ele>25.1</ele>
        <time>2016-05-06T08:34:21Z</time>
      </trkpt>
      <trkpt lat="50.63962" lon="2.46727">
        <ele>25.1</ele>
        <time>2016-05-06T08:34:23Z</time>
      </trkpt>
      <trkpt lat="50.63962" lon="2.46704">
        <ele>25.2</ele>
        <time>2016-05-06T08:34:25Z</time>
      </trkpt>
      <trkpt lat="50.6396" lon="2.46681">
        <ele>25.2</ele>
        <time>2016-05-06T08:34:27Z</time>
      </trkpt>
      <trkpt lat="50.63959" lon="2.46658">
        <ele>25.2</ele>
        <time>2016-05-06T08:34:29Z</time>
      </trkpt>
      <trkpt lat="50.63958" lon="2.46635">
        <ele>25.2</ele>
        <time>2016-05-06T08:34:31Z</time>
      </trkpt>
      <trkpt lat="50.63957" lon="2.46611">
        <ele>25.2</ele>
        <time>2016-05-06T08:34:33Z</time>
      </trkpt>
      <trkpt lat="50.63956" lon="2.46588">
        <ele>25.2</ele>
        <time>2016-05-06T08:34:35Z</time>
      </trkpt>
      <trkpt lat="50.63956" lon="2.46564">
        <ele>25.2</ele>
        <time>2016-05-06T08:34:37Z</time>
      </trkpt>
      <trkpt lat="50.63956" lon="2.46541">
        <ele>25.2</ele>
        <time>2016-05-06T08:34:39Z</time>
      </trkpt>
      <trkpt lat="50.63957" lon="2.46517">
        <ele>25.2</ele>
        <time>2016-05-06T08:34:41Z</time>
      </trkpt>
      <trkpt lat="50.63957" lon="2.46493">
        <ele>25.2</ele>
        <time>2016-05-06T08:34:43Z</time>
      </trkpt>
      <trkpt lat="50.63957" lon="2.46469">
        <ele>25.2</ele>
        <time>2016-05-06T08:34:45Z</time>
      </trkpt>
      <trkpt lat="50.63958" lon="2.46446">
        <ele>25.2</ele>
        <time>2016-05-06T08:34:47Z</time>
      </trkpt>
      <trkpt lat="50.63959" lon="2.46424">
        <ele>25.3</ele>
        <time>2016-05-06T08:34:49Z</time>
      </trkpt>
      <trkpt lat="50.63961" lon="2.46401">
        <ele>25.3</ele>
        <time>2016-05-06T08:34:51Z</time>
      </trkpt>
      <trkpt lat="50.63965" lon="2.46379">
        <ele>25.3</ele>
        <time>2016-05-06T08:34:53Z</time>
      </trkpt>
      <trkpt lat="50.63971" lon="2.46358">
        <ele>25.3</ele>
        <time>2016-05-06T08:34:55Z</time>
      </trkpt>
      <trkpt lat="50.63978" lon="2.46338">
        <ele>25.4</ele>
        <time>2016-05-06T08:34:57Z</time>
      </trkpt>
      <trkpt lat="50.63985" lon="2.46318">
        <ele>25.4</ele>
        <time>2016-05-06T08:34:59Z</time>
      </trkpt>
      <trkpt lat="50.63993" lon="2.46297">
        <ele>25.5</ele>
        <time>2016-05-06T08:35:01Z</time>
      </trkpt>
      <trkpt lat="50.64" lon="2.46276">
        <ele>25.5</ele>
        <time>2016-05-06T08:35:03Z</time>
      </trkpt>
      <trkpt lat="50.64007" lon="2.46256">
        <ele>25.5</ele>
        <time>2016-05-06T08:35:05Z</time>
      </trkpt>
      <trkpt lat="50.64013" lon="2.46238">
        <ele>25.7</ele>
        <time>2016-05-06T08:35:07Z</time>
      </trkpt>
      <trkpt lat="50.64018" lon="2.46222">
        <ele>26</ele>
        <time>2016-05-06T08:35:09Z</time>
      </trkpt>
      <trkpt lat="50.64023" lon="2.46205">
        <ele>26.1</ele>
        <time>2016-05-06T08:35:11Z</time>
      </trkpt>
      <trkpt lat="50.6403" lon="2.46185">
        <ele>26.2</ele>
        <time>2016-05-06T08:35:13Z</time>
      </trkpt>
      <trkpt lat="50.64037" lon="2.46164">
        <ele>26.2</ele>
        <time>2016-05-06T08:35:15Z</time>
      </trkpt>
      <trkpt lat="50.64045" lon="2.46142">
        <ele>26.2</ele>
        <time>2016-05-06T08:35:17Z</time>
      </trkpt>
      <trkpt lat="50.64052" lon="2.46121">
        <ele>26.2</ele>
        <time>2016-05-06T08:35:19Z</time>
      </trkpt>
      <trkpt lat="50.6406" lon="2.46099">
        <ele>26.2</ele>
        <time>2016-05-06T08:35:21Z</time>
      </trkpt>
      <trkpt lat="50.64069" lon="2.46078">
        <ele>26.2</ele>
        <time>2016-05-06T08:35:23Z</time>
      </trkpt>
      <trkpt lat="50.64077" lon="2.46057">
        <ele>26.1</ele>
        <time>2016-05-06T08:35:25Z</time>
      </trkpt>
      <trkpt lat="50.64085" lon="2.46037">
        <ele>26.1</ele>
        <time>2016-05-06T08:35:27Z</time>
      </trkpt>
      <trkpt lat="50.64094" lon="2.46015">
        <ele>26</ele>
        <time>2016-05-06T08:35:29Z</time>
      </trkpt>
      <trkpt lat="50.64103" lon="2.45993">
        <ele>25.9</ele>
        <time>2016-05-06T08:35:31Z</time>
      </trkpt>
      <trkpt lat="50.64112" lon="2.45971">
        <ele>25.8</ele>
        <time>2016-05-06T08:35:33Z</time>
      </trkpt>
      <trkpt lat="50.64121" lon="2.45949">
        <ele>25.8</ele>
        <time>2016-05-06T08:35:35Z</time>
      </trkpt>
      <trkpt lat="50.6413" lon="2.45927">
        <ele>25.8</ele>
        <time>2016-05-06T08:35:37Z</time>
      </trkpt>
      <trkpt lat="50.64138" lon="2.45905">
        <ele>25.8</ele>
        <time>2016-05-06T08:35:39Z</time>
      </trkpt>
      <trkpt lat="50.64146" lon="2.4588">
        <ele>25.8</ele>
        <time>2016-05-06T08:35:41Z</time>
      </trkpt>
      <trkpt lat="50.64154" lon="2.45856">
        <ele>25.8</ele>
        <time>2016-05-06T08:35:43Z</time>
      </trkpt>
      <trkpt lat="50.64162" lon="2.45832">
        <ele>25.8</ele>
        <time>2016-05-06T08:35:45Z</time>
      </trkpt>
      <trkpt lat="50.64169" lon="2.45809">
        <ele>25.8</ele>
        <time>2016-05-06T08:35:47Z</time>
      </trkpt>
      <trkpt lat="50.64176" lon="2.45785">
        <ele>25.8</ele>
        <time>2016-05-06T08:35:49Z</time>
      </trkpt>
      <trkpt lat="50.64183" lon="2.45762">
        <ele>25.8</ele>
        <time>2016-05-06T08:35:51Z</time>
      </trkpt>
      <trkpt lat="50.64191" lon="2.45739">
        <ele>25.8</ele>
        <time>2016-05-06T08:35:53Z</time>
      </trkpt>
      <trkpt lat="50.64198" lon="2.45716">
        <ele>25.8</ele>
        <time>2016-05-06T08:35:55Z</time>
      </trkpt>
      <trkpt lat="50.64206" lon="2.45694">
        <ele>25.8</ele>
        <time>2016-05-06T08:35:57Z</time>
      </trkpt>
      <trkpt lat="50.64213" lon="2.45671">
        <ele>25.8</ele>
        <time>2016-05-06T08:35:59Z</time>
      </trkpt>
      <trkpt lat="50.64221" lon="2.45648">
        <ele>25.8</ele>
        <time>2016-05-06T08:36:01Z</time>
      </trkpt>
      <trkpt lat="50.6423" lon="2.45625">
        <ele>25.8</ele>
        <time>2016-05-06T08:36:03Z</time>
      </trkpt>
      <trkpt lat="50.64238" lon="2.45601">
        <ele>25.7</ele>
        <time>2016-05-06T08:36:05Z</time>
      </trkpt>
      <trkpt lat="50.64246" lon="2.45576">
        <ele>25.7</ele>
        <time>2016-05-06T08:36:07Z</time>
      </trkpt>
      <trkpt lat="50.64254" lon="2.45551">
        <ele>25.7</ele>
        <time>2016-05-06T08:36:09Z</time>
      </trkpt>
      <trkpt lat="50.64259" lon="2.45538">
        <ele>25.7</ele>
        <time>2016-05-06T08:36:10Z</time>
      </trkpt>
      <trkpt lat="50.64263" lon="2.45525">
        <ele>25.8</ele>
        <time>2016-05-06T08:36:11Z</time>
      </trkpt>
      <trkpt lat="50.64267" lon="2.45512">
        <ele>25.8</ele>
        <time>2016-05-06T08:36:12Z</time>
      </trkpt>
      <trkpt lat="50.64274" lon="2.45486">
        <ele>25.8</ele>
        <time>2016-05-06T08:36:14Z</time>
      </trkpt>
      <trkpt lat="50.64277" lon="2.45473">
        <ele>25.8</ele>
        <time>2016-05-06T08:36:15Z</time>
      </trkpt>
      <trkpt lat="50.6428" lon="2.4546">
        <ele>25.8</ele>
        <time>2016-05-06T08:36:16Z</time>
      </trkpt>
      <trkpt lat="50.64285" lon="2.45433">
        <ele>25.9</ele>
        <time>2016-05-06T08:36:18Z</time>
      </trkpt>
      <trkpt lat="50.6429" lon="2.45407">
        <ele>25.9</ele>
        <time>2016-05-06T08:36:20Z</time>
      </trkpt>
      <trkpt lat="50.64295" lon="2.4538">
        <ele>25.9</ele>
        <time>2016-05-06T08:36:22Z</time>
      </trkpt>
      <trkpt lat="50.643" lon="2.45355">
        <ele>25.9</ele>
        <time>2016-05-06T08:36:24Z</time>
      </trkpt>
      <trkpt lat="50.64305" lon="2.4533">
        <ele>25.9</ele>
        <time>2016-05-06T08:36:26Z</time>
      </trkpt>
      <trkpt lat="50.6431" lon="2.45305">
        <ele>25.9</ele>
        <time>2016-05-06T08:36:28Z</time>
      </trkpt>
      <trkpt lat="50.64315" lon="2.45281">
        <ele>25.9</ele>
        <time>2016-05-06T08:36:30Z</time>
      </trkpt>
      <trkpt lat="50.64321" lon="2.45256">
        <ele>25.9</ele>
        <time>2016-05-06T08:36:32Z</time>
      </trkpt>
      <trkpt lat="50.64327" lon="2.45232">
        <ele>26</ele>
        <time>2016-05-06T08:36:34Z</time>
      </trkpt>
      <trkpt lat="50.64332" lon="2.45208">
        <ele>26</ele>
        <time>2016-05-06T08:36:36Z</time>
      </trkpt>
      <trkpt lat="50.64338" lon="2.45184">
        <ele>26</ele>
        <time>2016-05-06T08:36:38Z</time>
      </trkpt>
      <trkpt lat="50.64344" lon="2.4516">
        <ele>26</ele>
        <time>2016-05-06T08:36:40Z</time>
      </trkpt>
      <trkpt lat="50.6435" lon="2.45136">
        <ele>26</ele>
        <time>2016-05-06T08:36:42Z</time>
      </trkpt>
      <trkpt lat="50.64355" lon="2.45111">
        <ele>26</ele>
        <time>2016-05-06T08:36:44Z</time>
      </trkpt>
      <trkpt lat="50.6436" lon="2.45086">
        <ele>26</ele>
        <time>2016-05-06T08:36:46Z</time>
      </trkpt>
      <trkpt lat="50.64364" lon="2.45061">
        <ele>26</ele>
        <time>2016-05-06T08:36:48Z</time>
      </trkpt>
      <trkpt lat="50.64367" lon="2.45036">
        <ele>26</ele>
        <time>2016-05-06T08:36:50Z</time>
      </trkpt>
      <trkpt lat="50.6437" lon="2.45011">
        <ele>26</ele>
        <time>2016-05-06T08:36:52Z</time>
      </trkpt>
      <trkpt lat="50.64373" lon="2.44985">
        <ele>26</ele>
        <time>2016-05-06T08:36:54Z</time>
      </trkpt>
      <trkpt lat="50.64376" lon="2.44959">
        <ele>26</ele>
        <time>2016-05-06T08:36:56Z</time>
      </trkpt>
      <trkpt lat="50.64379" lon="2.44933">
        <ele>26</ele>
        <time>2016-05-06T08:36:58Z</time>
      </trkpt>
      <trkpt lat="50.64381" lon="2.44908">
        <ele>26</ele>
        <time>2016-05-06T08:37:00Z</time>
      </trkpt>
      <trkpt lat="50.64384" lon="2.44883">
        <ele>26.1</ele>
        <time>2016-05-06T08:37:02Z</time>
      </trkpt>
      <trkpt lat="50.64387" lon="2.44858">
        <ele>26.1</ele>
        <time>2016-05-06T08:37:04Z</time>
      </trkpt>
      <trkpt lat="50.6439" lon="2.44833">
        <ele>26.2</ele>
        <time>2016-05-06T08:37:06Z</time>
      </trkpt>
      <trkpt lat="50.64393" lon="2.44808">
        <ele>26.2</ele>
        <time>2016-05-06T08:37:08Z</time>
      </trkpt>
      <trkpt lat="50.64395" lon="2.44784">
        <ele>26.3</ele>
        <time>2016-05-06T08:37:10Z</time>
      </trkpt>
      <trkpt lat="50.64398" lon="2.44759">
        <ele>26.3</ele>
        <time>2016-05-06T08:37:12Z</time>
      </trkpt>
      <trkpt lat="50.644" lon="2.44734">
        <ele>26.4</ele>
        <time>2016-05-06T08:37:14Z</time>
      </trkpt>
      <trkpt lat="50.64403" lon="2.44709">
        <ele>26.5</ele>
        <time>2016-05-06T08:37:16Z</time>
      </trkpt>
      <trkpt lat="50.64406" lon="2.44684">
        <ele>26.6</ele>
        <time>2016-05-06T08:37:18Z</time>
      </trkpt>
      <trkpt lat="50.64408" lon="2.44659">
        <ele>26.5</ele>
        <time>2016-05-06T08:37:20Z</time>
      </trkpt>
      <trkpt lat="50.64409" lon="2.44634">
        <ele>26.5</ele>
        <time>2016-05-06T08:37:22Z</time>
      </trkpt>
      <trkpt lat="50.64409" lon="2.44609">
        <ele>26.4</ele>
        <time>2016-05-06T08:37:24Z</time>
      </trkpt>
      <trkpt lat="50.64408" lon="2.44584">
        <ele>26.4</ele>
        <time>2016-05-06T08:37:26Z</time>
      </trkpt>
      <trkpt lat="50.64407" lon="2.44559">
        <ele>26.4</ele>
        <time>2016-05-06T08:37:28Z</time>
      </trkpt>
      <trkpt lat="50.64407" lon="2.44534">
        <ele>26.5</ele>
        <time>2016-05-06T08:37:30Z</time>
      </trkpt>
      <trkpt lat="50.64408" lon="2.4451">
        <ele>26.4</ele>
        <time>2016-05-06T08:37:32Z</time>
      </trkpt>
      <trkpt lat="50.6441" lon="2.44487">
        <ele>26.4</ele>
        <time>2016-05-06T08:37:34Z</time>
      </trkpt>
      <trkpt lat="50.64413" lon="2.44464">
        <ele>26.4</ele>
        <time>2016-05-06T08:37:36Z</time>
      </trkpt>
      <trkpt lat="50.64418" lon="2.4444">
        <ele>26.4</ele>
        <time>2016-05-06T08:37:38Z</time>
      </trkpt>
      <trkpt lat="50.64422" lon="2.44417">
        <ele>26.4</ele>
        <time>2016-05-06T08:37:40Z</time>
      </trkpt>
      <trkpt lat="50.64426" lon="2.44394">
        <ele>26.4</ele>
        <time>2016-05-06T08:37:42Z</time>
      </trkpt>
      <trkpt lat="50.64429" lon="2.4437">
        <ele>26.3</ele>
        <time>2016-05-06T08:37:44Z</time>
      </trkpt>
      <trkpt lat="50.64433" lon="2.44347">
        <ele>26.3</ele>
        <time>2016-05-06T08:37:46Z</time>
      </trkpt>
      <trkpt lat="50.64437" lon="2.44325">
        <ele>26.3</ele>
        <time>2016-05-06T08:37:48Z</time>
      </trkpt>
      <trkpt lat="50.6444" lon="2.44303">
        <ele>26.3</ele>
        <time>2016-05-06T08:37:50Z</time>
      </trkpt>
      <trkpt lat="50.64444" lon="2.4428">
        <ele>26.3</ele>
        <time>2016-05-06T08:37:52Z</time>
      </trkpt>
      <trkpt lat="50.64447" lon="2.44258">
        <ele>26.3</ele>
        <time>2016-05-06T08:37:54Z</time>
      </trkpt>
      <trkpt lat="50.64451" lon="2.44237">
        <ele>26.3</ele>
        <time>2016-05-06T08:37:56Z</time>
      </trkpt>
      <trkpt lat="50.64455" lon="2.44216">
        <ele>26.3</ele>
        <time>2016-05-06T08:37:58Z</time>
      </trkpt>
      <trkpt lat="50.6446" lon="2.44194">
        <ele>26.3</ele>
        <time>2016-05-06T08:38:00Z</time>
      </trkpt>
      <trkpt lat="50.64464" lon="2.44172">
        <ele>26.3</ele>
        <time>2016-05-06T08:38:02Z</time>
      </trkpt>
      <trkpt lat="50.64469" lon="2.44149">
        <ele>26.5</ele>
        <time>2016-05-06T08:38:04Z</time>
      </trkpt>
      <trkpt lat="50.64474" lon="2.44125">
        <ele>26.7</ele>
        <time>2016-05-06T08:38:06Z</time>
      </trkpt>
      <trkpt lat="50.64478" lon="2.44104">
        <ele>26.7</ele>
        <time>2016-05-06T08:38:08Z</time>
      </trkpt>
      <trkpt lat="50.64483" lon="2.44083">
        <ele>26.8</ele>
        <time>2016-05-06T08:38:10Z</time>
      </trkpt>
      <trkpt lat="50.64488" lon="2.44063">
        <ele>26.8</ele>
        <time>2016-05-06T08:38:12Z</time>
      </trkpt>
      <trkpt lat="50.64492" lon="2.44047">
        <ele>26.8</ele>
        <time>2016-05-06T08:38:14Z</time>
      </trkpt>
      <trkpt lat="50.64501" lon="2.44035">
        <ele>26.8</ele>
        <time>2016-05-06T08:38:17Z</time>
      </trkpt>
      <trkpt lat="50.64505" lon="2.44018">
        <ele>26.7</ele>
        <time>2016-05-06T08:38:20Z</time>
      </trkpt>
      <trkpt lat="50.64504" lon="2.44003">
        <ele>26.7</ele>
        <time>2016-05-06T08:38:22Z</time>
      </trkpt>
      <trkpt lat="50.64502" lon="2.43987">
        <ele>26.7</ele>
        <time>2016-05-06T08:38:24Z</time>
      </trkpt>
      <trkpt lat="50.645" lon="2.43968">
        <ele>26.7</ele>
        <time>2016-05-06T08:38:26Z</time>
      </trkpt>
      <trkpt lat="50.64498" lon="2.43947">
        <ele>26.7</ele>
        <time>2016-05-06T08:38:28Z</time>
      </trkpt>
      <trkpt lat="50.64495" lon="2.43925">
        <ele>26.7</ele>
        <time>2016-05-06T08:38:30Z</time>
      </trkpt>
      <trkpt lat="50.64493" lon="2.43903">
        <ele>26.7</ele>
        <time>2016-05-06T08:38:32Z</time>
      </trkpt>
      <trkpt lat="50.6449" lon="2.43881">
        <ele>26.7</ele>
        <time>2016-05-06T08:38:34Z</time>
      </trkpt>
      <trkpt lat="50.64487" lon="2.43859">
        <ele>26.7</ele>
        <time>2016-05-06T08:38:36Z</time>
      </trkpt>
      <trkpt lat="50.64484" lon="2.43836">
        <ele>26.7</ele>
        <time>2016-05-06T08:38:38Z</time>
      </trkpt>
      <trkpt lat="50.64481" lon="2.43813">
        <ele>26.7</ele>
        <time>2016-05-06T08:38:40Z</time>
      </trkpt>
      <trkpt lat="50.64478" lon="2.4379">
        <ele>26.7</ele>
        <time>2016-05-06T08:38:42Z</time>
      </trkpt>
      <trkpt lat="50.64474" lon="2.43765">
        <ele>26.7</ele>
        <time>2016-05-06T08:38:44Z</time>
      </trkpt>
      <trkpt lat="50.64471" lon="2.43742">
        <ele>26.7</ele>
        <time>2016-05-06T08:38:46Z</time>
      </trkpt>
      <trkpt lat="50.64469" lon="2.43718">
        <ele>26.6</ele>
        <time>2016-05-06T08:38:48Z</time>
      </trkpt>
      <trkpt lat="50.64466" lon="2.43695">
        <ele>26.6</ele>
        <time>2016-05-06T08:38:50Z</time>
      </trkpt>
      <trkpt lat="50.64463" lon="2.43672">
        <ele>26.7</ele>
        <time>2016-05-06T08:38:52Z</time>
      </trkpt>
      <trkpt lat="50.6446" lon="2.4365">
        <ele>26.7</ele>
        <time>2016-05-06T08:38:54Z</time>
      </trkpt>
      <trkpt lat="50.64457" lon="2.43626">
        <ele>26.7</ele>
        <time>2016-05-06T08:38:56Z</time>
      </trkpt>
      <trkpt lat="50.64454" lon="2.43604">
        <ele>26.8</ele>
        <time>2016-05-06T08:38:58Z</time>
      </trkpt>
      <trkpt lat="50.64451" lon="2.43582">
        <ele>26.8</ele>
        <time>2016-05-06T08:39:00Z</time>
      </trkpt>
      <trkpt lat="50.64448" lon="2.4356">
        <ele>26.8</ele>
        <time>2016-05-06T08:39:02Z</time>
      </trkpt>
      <trkpt lat="50.64446" lon="2.43538">
        <ele>26.8</ele>
        <time>2016-05-06T08:39:04Z</time>
      </trkpt>
      <trkpt lat="50.64442" lon="2.43516">
        <ele>26.8</ele>
        <time>2016-05-06T08:39:06Z</time>
      </trkpt>
      <trkpt lat="50.64438" lon="2.43491">
        <ele>26.8</ele>
        <time>2016-05-06T08:39:08Z</time>
      </trkpt>
      <trkpt lat="50.64435" lon="2.43468">
        <ele>26.8</ele>
        <time>2016-05-06T08:39:10Z</time>
      </trkpt>
      <trkpt lat="50.64433" lon="2.43447">
        <ele>26.8</ele>
        <time>2016-05-06T08:39:12Z</time>
      </trkpt>
      <trkpt lat="50.6443" lon="2.43426">
        <ele>26.8</ele>
        <time>2016-05-06T08:39:14Z</time>
      </trkpt>
      <trkpt lat="50.64427" lon="2.43406">
        <ele>26.8</ele>
        <time>2016-05-06T08:39:16Z</time>
      </trkpt>
      <trkpt lat="50.64424" lon="2.43383">
        <ele>26.8</ele>
        <time>2016-05-06T08:39:18Z</time>
      </trkpt>
      <trkpt lat="50.64421" lon="2.43361">
        <ele>26.8</ele>
        <time>2016-05-06T08:39:20Z</time>
      </trkpt>
      <trkpt lat="50.64418" lon="2.43339">
        <ele>26.7</ele>
        <time>2016-05-06T08:39:22Z</time>
      </trkpt>
      <trkpt lat="50.64415" lon="2.43316">
        <ele>26.7</ele>
        <time>2016-05-06T08:39:24Z</time>
      </trkpt>
      <trkpt lat="50.64413" lon="2.43293">
        <ele>26.7</ele>
        <time>2016-05-06T08:39:26Z</time>
      </trkpt>
      <trkpt lat="50.64411" lon="2.43269">
        <ele>26.7</ele>
        <time>2016-05-06T08:39:28Z</time>
      </trkpt>
      <trkpt lat="50.64408" lon="2.43246">
        <ele>26.7</ele>
        <time>2016-05-06T08:39:30Z</time>
      </trkpt>
      <trkpt lat="50.64404" lon="2.43223">
        <ele>26.7</ele>
        <time>2016-05-06T08:39:32Z</time>
      </trkpt>
      <trkpt lat="50.64402" lon="2.432">
        <ele>26.7</ele>
        <time>2016-05-06T08:39:34Z</time>
      </trkpt>
      <trkpt lat="50.64399" lon="2.43178">
        <ele>26.7</ele>
        <time>2016-05-06T08:39:36Z</time>
      </trkpt>
      <trkpt lat="50.64396" lon="2.43156">
        <ele>26.8</ele>
        <time>2016-05-06T08:39:38Z</time>
      </trkpt>
      <trkpt lat="50.64392" lon="2.43135">
        <ele>26.8</ele>
        <time>2016-05-06T08:39:40Z</time>
      </trkpt>
      <trkpt lat="50.64389" lon="2.43114">
        <ele>26.9</ele>
        <time>2016-05-06T08:39:42Z</time>
      </trkpt>
      <trkpt lat="50.64387" lon="2.43092">
        <ele>26.9</ele>
        <time>2016-05-06T08:39:44Z</time>
      </trkpt>
      <trkpt lat="50.64386" lon="2.43069">
        <ele>27</ele>
        <time>2016-05-06T08:39:46Z</time>
      </trkpt>
      <trkpt lat="50.64384" lon="2.43047">
        <ele>27</ele>
        <time>2016-05-06T08:39:48Z</time>
      </trkpt>
      <trkpt lat="50.64383" lon="2.43024">
        <ele>27</ele>
        <time>2016-05-06T08:39:50Z</time>
      </trkpt>
      <trkpt lat="50.64382" lon="2.43002">
        <ele>27</ele>
        <time>2016-05-06T08:39:52Z</time>
      </trkpt>
      <trkpt lat="50.64382" lon="2.42979">
        <ele>27</ele>
        <time>2016-05-06T08:39:54Z</time>
      </trkpt>
      <trkpt lat="50.64381" lon="2.42955">
        <ele>27</ele>
        <time>2016-05-06T08:39:56Z</time>
      </trkpt>
      <trkpt lat="50.64382" lon="2.42933">
        <ele>26.9</ele>
        <time>2016-05-06T08:39:58Z</time>
      </trkpt>
      <trkpt lat="50.64383" lon="2.4291">
        <ele>26.8</ele>
        <time>2016-05-06T08:40:00Z</time>
      </trkpt>
      <trkpt lat="50.64385" lon="2.42888">
        <ele>26.7</ele>
        <time>2016-05-06T08:40:02Z</time>
      </trkpt>
      <trkpt lat="50.64386" lon="2.42866">
        <ele>26.6</ele>
        <time>2016-05-06T08:40:04Z</time>
      </trkpt>
      <trkpt lat="50.64387" lon="2.42843">
        <ele>26.6</ele>
        <time>2016-05-06T08:40:06Z</time>
      </trkpt>
      <trkpt lat="50.64389" lon="2.4282">
        <ele>26.6</ele>
        <time>2016-05-06T08:40:08Z</time>
      </trkpt>
      <trkpt lat="50.64391" lon="2.42797">
        <ele>26.6</ele>
        <time>2016-05-06T08:40:10Z</time>
      </trkpt>
      <trkpt lat="50.64393" lon="2.42773">
        <ele>26.6</ele>
        <time>2016-05-06T08:40:12Z</time>
      </trkpt>
      <trkpt lat="50.64394" lon="2.4275">
        <ele>26.6</ele>
        <time>2016-05-06T08:40:14Z</time>
      </trkpt>
      <trkpt lat="50.64396" lon="2.42726">
        <ele>26.6</ele>
        <time>2016-05-06T08:40:16Z</time>
      </trkpt>
      <trkpt lat="50.64398" lon="2.42703">
        <ele>26.6</ele>
        <time>2016-05-06T08:40:18Z</time>
      </trkpt>
      <trkpt lat="50.64399" lon="2.4268">
        <ele>26.6</ele>
        <time>2016-05-06T08:40:20Z</time>
      </trkpt>
      <trkpt lat="50.64401" lon="2.42657">
        <ele>26.7</ele>
        <time>2016-05-06T08:40:22Z</time>
      </trkpt>
      <trkpt lat="50.64402" lon="2.42635">
        <ele>26.9</ele>
        <time>2016-05-06T08:40:24Z</time>
      </trkpt>
      <trkpt lat="50.64404" lon="2.42611">
        <ele>26.9</ele>
        <time>2016-05-06T08:40:26Z</time>
      </trkpt>
      <trkpt lat="50.64405" lon="2.42587">
        <ele>26.9</ele>
        <time>2016-05-06T08:40:28Z</time>
      </trkpt>
      <trkpt lat="50.64405" lon="2.42563">
        <ele>27</ele>
        <time>2016-05-06T08:40:30Z</time>
      </trkpt>
      <trkpt lat="50.64404" lon="2.4254">
        <ele>27.1</ele>
        <time>2016-05-06T08:40:32Z</time>
      </trkpt>
      <trkpt lat="50.64403" lon="2.42515">
        <ele>27.1</ele>
        <time>2016-05-06T08:40:34Z</time>
      </trkpt>
      <trkpt lat="50.64402" lon="2.42491">
        <ele>27.2</ele>
        <time>2016-05-06T08:40:36Z</time>
      </trkpt>
      <trkpt lat="50.644" lon="2.42467">
        <ele>27.1</ele>
        <time>2016-05-06T08:40:38Z</time>
      </trkpt>
      <trkpt lat="50.64398" lon="2.42444">
        <ele>27.1</ele>
        <time>2016-05-06T08:40:40Z</time>
      </trkpt>
      <trkpt lat="50.64395" lon="2.42421">
        <ele>27.1</ele>
        <time>2016-05-06T08:40:42Z</time>
      </trkpt>
      <trkpt lat="50.64392" lon="2.42398">
        <ele>27.1</ele>
        <time>2016-05-06T08:40:44Z</time>
      </trkpt>
      <trkpt lat="50.64389" lon="2.42376">
        <ele>27.1</ele>
        <time>2016-05-06T08:40:46Z</time>
      </trkpt>
      <trkpt lat="50.64385" lon="2.42353">
        <ele>27.1</ele>
        <time>2016-05-06T08:40:48Z</time>
      </trkpt>
      <trkpt lat="50.64382" lon="2.4233">
        <ele>27.1</ele>
        <time>2016-05-06T08:40:50Z</time>
      </trkpt>
      <trkpt lat="50.64379" lon="2.42307">
        <ele>27.1</ele>
        <time>2016-05-06T08:40:52Z</time>
      </trkpt>
      <trkpt lat="50.64376" lon="2.42285">
        <ele>27.1</ele>
        <time>2016-05-06T08:40:54Z</time>
      </trkpt>
      <trkpt lat="50.64373" lon="2.42263">
        <ele>27.1</ele>
        <time>2016-05-06T08:40:56Z</time>
      </trkpt>
      <trkpt lat="50.6437" lon="2.42241">
        <ele>27.1</ele>
        <time>2016-05-06T08:40:58Z</time>
      </trkpt>
      <trkpt lat="50.64368" lon="2.42219">
        <ele>27.1</ele>
        <time>2016-05-06T08:41:00Z</time>
      </trkpt>
      <trkpt lat="50.64365" lon="2.42196">
        <ele>27.1</ele>
        <time>2016-05-06T08:41:02Z</time>
      </trkpt>
      <trkpt lat="50.64362" lon="2.42172">
        <ele>27.1</ele>
        <time>2016-05-06T08:41:04Z</time>
      </trkpt>
      <trkpt lat="50.64359" lon="2.42148">
        <ele>27.1</ele>
        <time>2016-05-06T08:41:06Z</time>
      </trkpt>
      <trkpt lat="50.64356" lon="2.42125">
        <ele>27</ele>
        <time>2016-05-06T08:41:08Z</time>
      </trkpt>
      <trkpt lat="50.64353" lon="2.42103">
        <ele>27</ele>
        <time>2016-05-06T08:41:10Z</time>
      </trkpt>
      <trkpt lat="50.6435" lon="2.4208">
        <ele>27</ele>
        <time>2016-05-06T08:41:12Z</time>
      </trkpt>
      <trkpt lat="50.64346" lon="2.42057">
        <ele>27</ele>
        <time>2016-05-06T08:41:14Z</time>
      </trkpt>
      <trkpt lat="50.64344" lon="2.42035">
        <ele>26.9</ele>
        <time>2016-05-06T08:41:16Z</time>
      </trkpt>
      <trkpt lat="50.64341" lon="2.42013">
        <ele>26.9</ele>
        <time>2016-05-06T08:41:18Z</time>
      </trkpt>
      <trkpt lat="50.6434" lon="2.41991">
        <ele>26.9</ele>
        <time>2016-05-06T08:41:20Z</time>
      </trkpt>
      <trkpt lat="50.64339" lon="2.41968">
        <ele>26.9</ele>
        <time>2016-05-06T08:41:22Z</time>
      </trkpt>
      <trkpt lat="50.64339" lon="2.41945">
        <ele>26.9</ele>
        <time>2016-05-06T08:41:24Z</time>
      </trkpt>
      <trkpt lat="50.64339" lon="2.41923">
        <ele>26.9</ele>
        <time>2016-05-06T08:41:26Z</time>
      </trkpt>
      <trkpt lat="50.6434" lon="2.41901">
        <ele>26.9</ele>
        <time>2016-05-06T08:41:28Z</time>
      </trkpt>
      <trkpt lat="50.64339" lon="2.41878">
        <ele>26.9</ele>
        <time>2016-05-06T08:41:30Z</time>
      </trkpt>
      <trkpt lat="50.64338" lon="2.41856">
        <ele>26.9</ele>
        <time>2016-05-06T08:41:32Z</time>
      </trkpt>
      <trkpt lat="50.64336" lon="2.41834">
        <ele>26.9</ele>
        <time>2016-05-06T08:41:34Z</time>
      </trkpt>
      <trkpt lat="50.64335" lon="2.41811">
        <ele>27</ele>
        <time>2016-05-06T08:41:36Z</time>
      </trkpt>
      <trkpt lat="50.64334" lon="2.41788">
        <ele>27</ele>
        <time>2016-05-06T08:41:38Z</time>
      </trkpt>
      <trkpt lat="50.64332" lon="2.41765">
        <ele>27</ele>
        <time>2016-05-06T08:41:40Z</time>
      </trkpt>
      <trkpt lat="50.6433" lon="2.41744">
        <ele>27</ele>
        <time>2016-05-06T08:41:42Z</time>
      </trkpt>
      <trkpt lat="50.64328" lon="2.41721">
        <ele>27.1</ele>
        <time>2016-05-06T08:41:44Z</time>
      </trkpt>
      <trkpt lat="50.64327" lon="2.41699">
        <ele>27.1</ele>
        <time>2016-05-06T08:41:46Z</time>
      </trkpt>
      <trkpt lat="50.64326" lon="2.41677">
        <ele>27.1</ele>
        <time>2016-05-06T08:41:48Z</time>
      </trkpt>
      <trkpt lat="50.64324" lon="2.41656">
        <ele>27.1</ele>
        <time>2016-05-06T08:41:50Z</time>
      </trkpt>
      <trkpt lat="50.64323" lon="2.41635">
        <ele>27.1</ele>
        <time>2016-05-06T08:41:52Z</time>
      </trkpt>
      <trkpt lat="50.64322" lon="2.41614">
        <ele>27.1</ele>
        <time>2016-05-06T08:41:54Z</time>
      </trkpt>
      <trkpt lat="50.6432" lon="2.41593">
        <ele>27.1</ele>
        <time>2016-05-06T08:41:56Z</time>
      </trkpt>
      <trkpt lat="50.64317" lon="2.41573">
        <ele>27.1</ele>
        <time>2016-05-06T08:41:58Z</time>
      </trkpt>
      <trkpt lat="50.64314" lon="2.41553">
        <ele>27.2</ele>
        <time>2016-05-06T08:42:00Z</time>
      </trkpt>
      <trkpt lat="50.6431" lon="2.41534">
        <ele>27.2</ele>
        <time>2016-05-06T08:42:02Z</time>
      </trkpt>
      <trkpt lat="50.64306" lon="2.41516">
        <ele>27.4</ele>
        <time>2016-05-06T08:42:04Z</time>
      </trkpt>
      <trkpt lat="50.64301" lon="2.41499">
        <ele>27.6</ele>
        <time>2016-05-06T08:42:06Z</time>
      </trkpt>
      <trkpt lat="50.64296" lon="2.41483">
        <ele>27.8</ele>
        <time>2016-05-06T08:42:08Z</time>
      </trkpt>
      <trkpt lat="50.6429" lon="2.41467">
        <ele>27.9</ele>
        <time>2016-05-06T08:42:10Z</time>
      </trkpt>
      <trkpt lat="50.64283" lon="2.41453">
        <ele>28.3</ele>
        <time>2016-05-06T08:42:12Z</time>
      </trkpt>
      <trkpt lat="50.64277" lon="2.41439">
        <ele>28.7</ele>
        <time>2016-05-06T08:42:14Z</time>
      </trkpt>
      <trkpt lat="50.6427" lon="2.41425">
        <ele>29</ele>
        <time>2016-05-06T08:42:16Z</time>
      </trkpt>
      <trkpt lat="50.64263" lon="2.41412">
        <ele>29.3</ele>
        <time>2016-05-06T08:42:18Z</time>
      </trkpt>
      <trkpt lat="50.64255" lon="2.41398">
        <ele>29.6</ele>
        <time>2016-05-06T08:42:20Z</time>
      </trkpt>
      <trkpt lat="50.64248" lon="2.41385">
        <ele>30</ele>
        <time>2016-05-06T08:42:22Z</time>
      </trkpt>
      <trkpt lat="50.6424" lon="2.41372">
        <ele>30.3</ele>
        <time>2016-05-06T08:42:24Z</time>
      </trkpt>
      <trkpt lat="50.64232" lon="2.41359">
        <ele>30.7</ele>
        <time>2016-05-06T08:42:26Z</time>
      </trkpt>
      <trkpt lat="50.64224" lon="2.41346">
        <ele>31</ele>
        <time>2016-05-06T08:42:28Z</time>
      </trkpt>
      <trkpt lat="50.64216" lon="2.41331">
        <ele>31.3</ele>
        <time>2016-05-06T08:42:30Z</time>
      </trkpt>
      <trkpt lat="50.64206" lon="2.41316">
        <ele>31.6</ele>
        <time>2016-05-06T08:42:32Z</time>
      </trkpt>
      <trkpt lat="50.64197" lon="2.413">
        <ele>31.9</ele>
        <time>2016-05-06T08:42:34Z</time>
      </trkpt>
      <trkpt lat="50.64187" lon="2.41284">
        <ele>32.1</ele>
        <time>2016-05-06T08:42:36Z</time>
      </trkpt>
      <trkpt lat="50.64176" lon="2.41269">
        <ele>32.3</ele>
        <time>2016-05-06T08:42:38Z</time>
      </trkpt>
      <trkpt lat="50.64163" lon="2.41256">
        <ele>32.5</ele>
        <time>2016-05-06T08:42:40Z</time>
      </trkpt>
      <trkpt lat="50.64149" lon="2.41245">
        <ele>32.6</ele>
        <time>2016-05-06T08:42:42Z</time>
      </trkpt>
      <trkpt lat="50.64135" lon="2.41236">
        <ele>32.8</ele>
        <time>2016-05-06T08:42:44Z</time>
      </trkpt>
      <trkpt lat="50.64121" lon="2.41229">
        <ele>33</ele>
        <time>2016-05-06T08:42:46Z</time>
      </trkpt>
      <trkpt lat="50.64107" lon="2.41222">
        <ele>33.1</ele>
        <time>2016-05-06T08:42:48Z</time>
      </trkpt>
      <trkpt lat="50.64091" lon="2.41218">
        <ele>33</ele>
        <time>2016-05-06T08:42:50Z</time>
      </trkpt>
      <trkpt lat="50.64074" lon="2.41217">
        <ele>32.9</ele>
        <time>2016-05-06T08:42:52Z</time>
      </trkpt>
      <trkpt lat="50.64057" lon="2.41219">
        <ele>32.8</ele>
        <time>2016-05-06T08:42:54Z</time>
      </trkpt>
      <trkpt lat="50.6404" lon="2.41222">
        <ele>32.5</ele>
        <time>2016-05-06T08:42:56Z</time>
      </trkpt>
      <trkpt lat="50.64024" lon="2.41221">
        <ele>32.3</ele>
        <time>2016-05-06T08:42:58Z</time>
      </trkpt>
      <trkpt lat="50.64009" lon="2.41216">
        <ele>32.1</ele>
        <time>2016-05-06T08:43:00Z</time>
      </trkpt>
      <trkpt lat="50.63995" lon="2.41209">
        <ele>32</ele>
        <time>2016-05-06T08:43:02Z</time>
      </trkpt>
      <trkpt lat="50.63983" lon="2.41199">
        <ele>31.8</ele>
        <time>2016-05-06T08:43:04Z</time>
      </trkpt>
      <trkpt lat="50.63974" lon="2.41187">
        <ele>31.7</ele>
        <time>2016-05-06T08:43:06Z</time>
      </trkpt>
      <trkpt lat="50.63965" lon="2.41173">
        <ele>31.6</ele>
        <time>2016-05-06T08:43:08Z</time>
      </trkpt>
      <trkpt lat="50.63958" lon="2.41157">
        <ele>31.6</ele>
        <time>2016-05-06T08:43:10Z</time>
      </trkpt>
      <trkpt lat="50.63954" lon="2.41139">
        <ele>31.5</ele>
        <time>2016-05-06T08:43:12Z</time>
      </trkpt>
      <trkpt lat="50.63951" lon="2.41121">
        <ele>31.4</ele>
        <time>2016-05-06T08:43:14Z</time>
      </trkpt>
      <trkpt lat="50.63949" lon="2.41101">
        <ele>31.4</ele>
        <time>2016-05-06T08:43:16Z</time>
      </trkpt>
      <trkpt lat="50.6395" lon="2.41082">
        <ele>31.3</ele>
        <time>2016-05-06T08:43:18Z</time>
      </trkpt>
      <trkpt lat="50.63951" lon="2.41059">
        <ele>31.3</ele>
        <time>2016-05-06T08:43:20Z</time>
      </trkpt>
      <trkpt lat="50.63955" lon="2.41039">
        <ele>31.3</ele>
        <time>2016-05-06T08:43:22Z</time>
      </trkpt>
      <trkpt lat="50.6396" lon="2.41019">
        <ele>31.2</ele>
        <time>2016-05-06T08:43:24Z</time>
      </trkpt>
      <trkpt lat="50.63965" lon="2.40998">
        <ele>31.2</ele>
        <time>2016-05-06T08:43:26Z</time>
      </trkpt>
      <trkpt lat="50.6397" lon="2.40976">
        <ele>31.2</ele>
        <time>2016-05-06T08:43:28Z</time>
      </trkpt>
      <trkpt lat="50.63976" lon="2.40955">
        <ele>31.2</ele>
        <time>2016-05-06T08:43:30Z</time>
      </trkpt>
      <trkpt lat="50.6398" lon="2.40934">
        <ele>31.2</ele>
        <time>2016-05-06T08:43:32Z</time>
      </trkpt>
      <trkpt lat="50.63985" lon="2.40913">
        <ele>31.2</ele>
        <time>2016-05-06T08:43:34Z</time>
      </trkpt>
      <trkpt lat="50.6399" lon="2.40893">
        <ele>31.2</ele>
        <time>2016-05-06T08:43:36Z</time>
      </trkpt>
      <trkpt lat="50.63995" lon="2.40873">
        <ele>31.2</ele>
        <time>2016-05-06T08:43:38Z</time>
      </trkpt>
      <trkpt lat="50.64" lon="2.40852">
        <ele>31.2</ele>
        <time>2016-05-06T08:43:40Z</time>
      </trkpt>
      <trkpt lat="50.64005" lon="2.40832">
        <ele>31.2</ele>
        <time>2016-05-06T08:43:42Z</time>
      </trkpt>
      <trkpt lat="50.64011" lon="2.40811">
        <ele>31.2</ele>
        <time>2016-05-06T08:43:44Z</time>
      </trkpt>
      <trkpt lat="50.64016" lon="2.4079">
        <ele>31.2</ele>
        <time>2016-05-06T08:43:46Z</time>
      </trkpt>
      <trkpt lat="50.64023" lon="2.40768">
        <ele>31.2</ele>
        <time>2016-05-06T08:43:48Z</time>
      </trkpt>
      <trkpt lat="50.64029" lon="2.40746">
        <ele>31.2</ele>
        <time>2016-05-06T08:43:50Z</time>
      </trkpt>
      <trkpt lat="50.64034" lon="2.40724">
        <ele>31.2</ele>
        <time>2016-05-06T08:43:52Z</time>
      </trkpt>
      <trkpt lat="50.64039" lon="2.40702">
        <ele>31.2</ele>
        <time>2016-05-06T08:43:54Z</time>
      </trkpt>
      <trkpt lat="50.64044" lon="2.40682">
        <ele>31.1</ele>
        <time>2016-05-06T08:43:56Z</time>
      </trkpt>
      <trkpt lat="50.64049" lon="2.40662">
        <ele>30.7</ele>
        <time>2016-05-06T08:43:58Z</time>
      </trkpt>
      <trkpt lat="50.64054" lon="2.40642">
        <ele>30.9</ele>
        <time>2016-05-06T08:44:00Z</time>
      </trkpt>
      <trkpt lat="50.64061" lon="2.40624">
        <ele>31</ele>
        <time>2016-05-06T08:44:02Z</time>
      </trkpt>
      <trkpt lat="50.64071" lon="2.40616">
        <ele>31.1</ele>
        <time>2016-05-06T08:44:04Z</time>
      </trkpt>
      <trkpt lat="50.64084" lon="2.40615">
        <ele>31.1</ele>
        <time>2016-05-06T08:44:06Z</time>
      </trkpt>
      <trkpt lat="50.64094" lon="2.40607">
        <ele>31.1</ele>
        <time>2016-05-06T08:44:08Z</time>
      </trkpt>
      <trkpt lat="50.64098" lon="2.40589">
        <ele>31.1</ele>
        <time>2016-05-06T08:44:10Z</time>
      </trkpt>
      <trkpt lat="50.64094" lon="2.40571">
        <ele>31.2</ele>
        <time>2016-05-06T08:44:12Z</time>
      </trkpt>
      <trkpt lat="50.64086" lon="2.40555">
        <ele>31.2</ele>
        <time>2016-05-06T08:44:14Z</time>
      </trkpt>
      <trkpt lat="50.64081" lon="2.40537">
        <ele>31.1</ele>
        <time>2016-05-06T08:44:16Z</time>
      </trkpt>
      <trkpt lat="50.64079" lon="2.40518">
        <ele>31.1</ele>
        <time>2016-05-06T08:44:18Z</time>
      </trkpt>
      <trkpt lat="50.64077" lon="2.40498">
        <ele>31.1</ele>
        <time>2016-05-06T08:44:20Z</time>
      </trkpt>
      <trkpt lat="50.64074" lon="2.40477">
        <ele>31.1</ele>
        <time>2016-05-06T08:44:22Z</time>
      </trkpt>
      <trkpt lat="50.64071" lon="2.40457">
        <ele>31.1</ele>
        <time>2016-05-06T08:44:24Z</time>
      </trkpt>
      <trkpt lat="50.64068" lon="2.40438">
        <ele>31</ele>
        <time>2016-05-06T08:44:26Z</time>
      </trkpt>
      <trkpt lat="50.64066" lon="2.4042">
        <ele>30.9</ele>
        <time>2016-05-06T08:44:28Z</time>
      </trkpt>
      <trkpt lat="50.64063" lon="2.40405">
        <ele>30.8</ele>
        <time>2016-05-06T08:44:30Z</time>
      </trkpt>
      <trkpt lat="50.64059" lon="2.40386">
        <ele>30.7</ele>
        <time>2016-05-06T08:44:33Z</time>
      </trkpt>
      <trkpt lat="50.64057" lon="2.40371">
        <ele>30.6</ele>
        <time>2016-05-06T08:44:36Z</time>
      </trkpt>
      <trkpt lat="50.64055" lon="2.40355">
        <ele>30.4</ele>
        <time>2016-05-06T08:44:41Z</time>
      </trkpt>
      <trkpt lat="50.64055" lon="2.40341">
        <ele>30.3</ele>
        <time>2016-05-06T08:44:45Z</time>
      </trkpt>
      <trkpt lat="50.64053" lon="2.40325">
        <ele>30.2</ele>
        <time>2016-05-06T08:44:48Z</time>
      </trkpt>
      <trkpt lat="50.64049" lon="2.40304">
        <ele>30.2</ele>
        <time>2016-05-06T08:44:51Z</time>
      </trkpt>
      <trkpt lat="50.64047" lon="2.40287">
        <ele>30.1</ele>
        <time>2016-05-06T08:44:53Z</time>
      </trkpt>
      <trkpt lat="50.64045" lon="2.4027">
        <ele>30.1</ele>
        <time>2016-05-06T08:44:55Z</time>
      </trkpt>
      <trkpt lat="50.64042" lon="2.40251">
        <ele>30.1</ele>
        <time>2016-05-06T08:44:57Z</time>
      </trkpt>
      <trkpt lat="50.6404" lon="2.40232">
        <ele>30</ele>
        <time>2016-05-06T08:44:59Z</time>
      </trkpt>
      <trkpt lat="50.64038" lon="2.40212">
        <ele>30</ele>
        <time>2016-05-06T08:45:01Z</time>
      </trkpt>
      <trkpt lat="50.64035" lon="2.40193">
        <ele>30</ele>
        <time>2016-05-06T08:45:03Z</time>
      </trkpt>
      <trkpt lat="50.64032" lon="2.40174">
        <ele>30</ele>
        <time>2016-05-06T08:45:05Z</time>
      </trkpt>
      <trkpt lat="50.64029" lon="2.40154">
        <ele>30</ele>
        <time>2016-05-06T08:45:07Z</time>
      </trkpt>
      <trkpt lat="50.64026" lon="2.40135">
        <ele>30</ele>
        <time>2016-05-06T08:45:09Z</time>
      </trkpt>
      <trkpt lat="50.64023" lon="2.40115">
        <ele>30</ele>
        <time>2016-05-06T08:45:11Z</time>
      </trkpt>
      <trkpt lat="50.64019" lon="2.40096">
        <ele>30.1</ele>
        <time>2016-05-06T08:45:13Z</time>
      </trkpt>
      <trkpt lat="50.64015" lon="2.40076">
        <ele>30.2</ele>
        <time>2016-05-06T08:45:15Z</time>
      </trkpt>
      <trkpt lat="50.6401" lon="2.40058">
        <ele>30.3</ele>
        <time>2016-05-06T08:45:17Z</time>
      </trkpt>
      <trkpt lat="50.64006" lon="2.40038">
        <ele>30.3</ele>
        <time>2016-05-06T08:45:19Z</time>
      </trkpt>
      <trkpt lat="50.64" lon="2.40018">
        <ele>30.3</ele>
        <time>2016-05-06T08:45:21Z</time>
      </trkpt>
      <trkpt lat="50.63994" lon="2.40001">
        <ele>30.5</ele>
        <time>2016-05-06T08:45:23Z</time>
      </trkpt>
      <trkpt lat="50.63984" lon="2.3999">
        <ele>30.6</ele>
        <time>2016-05-06T08:45:25Z</time>
      </trkpt>
      <trkpt lat="50.63973" lon="2.39986">
        <ele>30.7</ele>
        <time>2016-05-06T08:45:27Z</time>
      </trkpt>
      <trkpt lat="50.63962" lon="2.39979">
        <ele>30.7</ele>
        <time>2016-05-06T08:45:29Z</time>
      </trkpt>
      <trkpt lat="50.63952" lon="2.39971">
        <ele>30.6</ele>
        <time>2016-05-06T08:45:31Z</time>
      </trkpt>
      <trkpt lat="50.63941" lon="2.39963">
        <ele>30.6</ele>
        <time>2016-05-06T08:45:33Z</time>
      </trkpt>
      <trkpt lat="50.63931" lon="2.39953">
        <ele>30.8</ele>
        <time>2016-05-06T08:45:35Z</time>
      </trkpt>
      <trkpt lat="50.63921" lon="2.3994">
        <ele>30.9</ele>
        <time>2016-05-06T08:45:37Z</time>
      </trkpt>
      <trkpt lat="50.63912" lon="2.39926">
        <ele>30.9</ele>
        <time>2016-05-06T08:45:39Z</time>
      </trkpt>
      <trkpt lat="50.63902" lon="2.3991">
        <ele>30.9</ele>
        <time>2016-05-06T08:45:41Z</time>
      </trkpt>
      <trkpt lat="50.63893" lon="2.39894">
        <ele>30.9</ele>
        <time>2016-05-06T08:45:43Z</time>
      </trkpt>
      <trkpt lat="50.63884" lon="2.39879">
        <ele>30.8</ele>
        <time>2016-05-06T08:45:45Z</time>
      </trkpt>
      <trkpt lat="50.63877" lon="2.39863">
        <ele>30.7</ele>
        <time>2016-05-06T08:45:47Z</time>
      </trkpt>
      <trkpt lat="50.63869" lon="2.3985">
        <ele>30.6</ele>
        <time>2016-05-06T08:45:49Z</time>
      </trkpt>
      <trkpt lat="50.63861" lon="2.39841">
        <ele>30.5</ele>
        <time>2016-05-06T08:45:51Z</time>
      </trkpt>
      <trkpt lat="50.63851" lon="2.39831">
        <ele>30.4</ele>
        <time>2016-05-06T08:45:53Z</time>
      </trkpt>
      <trkpt lat="50.63843" lon="2.3982">
        <ele>30.3</ele>
        <time>2016-05-06T08:45:55Z</time>
      </trkpt>
      <trkpt lat="50.63836" lon="2.39805">
        <ele>30.2</ele>
        <time>2016-05-06T08:45:58Z</time>
      </trkpt>
      <trkpt lat="50.63832" lon="2.39792">
        <ele>30.1</ele>
        <time>2016-05-06T08:46:00Z</time>
      </trkpt>
      <trkpt lat="50.63827" lon="2.39777">
        <ele>30</ele>
        <time>2016-05-06T08:46:02Z</time>
      </trkpt>
      <trkpt lat="50.63824" lon="2.39762">
        <ele>29.9</ele>
        <time>2016-05-06T08:46:04Z</time>
      </trkpt>
      <trkpt lat="50.63822" lon="2.39745">
        <ele>29.8</ele>
        <time>2016-05-06T08:46:07Z</time>
      </trkpt>
      <trkpt lat="50.63824" lon="2.39729">
        <ele>29.8</ele>
        <time>2016-05-06T08:46:10Z</time>
      </trkpt>
      <trkpt lat="50.63833" lon="2.39717">
        <ele>29.7</ele>
        <time>2016-05-06T08:46:13Z</time>
      </trkpt>
      <trkpt lat="50.63842" lon="2.39715">
        <ele>29.7</ele>
        <time>2016-05-06T08:46:15Z</time>
      </trkpt>
      <trkpt lat="50.63853" lon="2.39715">
        <ele>29.6</ele>
        <time>2016-05-06T08:46:17Z</time>
      </trkpt>
      <trkpt lat="50.63864" lon="2.39714">
        <ele>29.6</ele>
        <time>2016-05-06T08:46:19Z</time>
      </trkpt>
      <trkpt lat="50.63876" lon="2.39715">
        <ele>29.6</ele>
        <time>2016-05-06T08:46:21Z</time>
      </trkpt>
      <trkpt lat="50.63888" lon="2.39715">
        <ele>29.6</ele>
        <time>2016-05-06T08:46:23Z</time>
      </trkpt>
      <trkpt lat="50.63898" lon="2.39716">
        <ele>29.6</ele>
        <time>2016-05-06T08:46:25Z</time>
      </trkpt>
      <trkpt lat="50.63889" lon="2.39712">
        <ele>29.5</ele>
        <time>2016-05-06T08:46:34Z</time>
      </trkpt>
      <trkpt lat="50.63877" lon="2.39713">
        <ele>29.5</ele>
        <time>2016-05-06T08:46:37Z</time>
      </trkpt>
      <trkpt lat="50.63864" lon="2.39712">
        <ele>29.5</ele>
        <time>2016-05-06T08:46:40Z</time>
      </trkpt>
      <trkpt lat="50.63854" lon="2.39713">
        <ele>29.5</ele>
        <time>2016-05-06T08:46:42Z</time>
      </trkpt>
      <trkpt lat="50.63845" lon="2.39713">
        <ele>29.5</ele>
        <time>2016-05-06T08:46:44Z</time>
      </trkpt>
      <trkpt lat="50.63836" lon="2.39714">
        <ele>29.5</ele>
        <time>2016-05-06T08:46:46Z</time>
      </trkpt>
      <trkpt lat="50.63826" lon="2.39713">
        <ele>29.5</ele>
        <time>2016-05-06T08:46:48Z</time>
      </trkpt>
      <trkpt lat="50.63819" lon="2.39699">
        <ele>29.5</ele>
        <time>2016-05-06T08:46:51Z</time>
      </trkpt>
      <trkpt lat="50.63821" lon="2.39685">
        <ele>29.5</ele>
        <time>2016-05-06T08:46:53Z</time>
      </trkpt>
      <trkpt lat="50.63819" lon="2.39665">
        <ele>29.5</ele>
        <time>2016-05-06T08:46:56Z</time>
      </trkpt>
      <trkpt lat="50.63815" lon="2.39648">
        <ele>29.5</ele>
        <time>2016-05-06T08:46:59Z</time>
      </trkpt>
      <trkpt lat="50.63812" lon="2.39634">
        <ele>29.6</ele>
        <time>2016-05-06T08:47:02Z</time>
      </trkpt>
      <trkpt lat="50.63807" lon="2.3962">
        <ele>29.7</ele>
        <time>2016-05-06T08:47:06Z</time>
      </trkpt>
      <trkpt lat="50.63801" lon="2.39605">
        <ele>29.8</ele>
        <time>2016-05-06T08:47:14Z</time>
      </trkpt>
      <trkpt lat="50.63801" lon="2.3959">
        <ele>29.9</ele>
        <time>2016-05-06T08:47:20Z</time>
      </trkpt>
      <trkpt lat="50.63807" lon="2.39578">
        <ele>29.9</ele>
        <time>2016-05-06T08:47:26Z</time>
      </trkpt>
      <trkpt lat="50.63811" lon="2.39563">
        <ele>29.7</ele>
        <time>2016-05-06T08:47:30Z</time>
      </trkpt>
      <trkpt lat="50.63814" lon="2.39545">
        <ele>29.4</ele>
        <time>2016-05-06T08:47:34Z</time>
      </trkpt>
      <trkpt lat="50.63815" lon="2.3953">
        <ele>29.3</ele>
        <time>2016-05-06T08:47:37Z</time>
      </trkpt>
      <trkpt lat="50.63817" lon="2.39512">
        <ele>29.1</ele>
        <time>2016-05-06T08:47:41Z</time>
      </trkpt>
      <trkpt lat="50.63817" lon="2.39493">
        <ele>29.1</ele>
        <time>2016-05-06T08:47:45Z</time>
      </trkpt>
      <trkpt lat="50.63818" lon="2.39475">
        <ele>29</ele>
        <time>2016-05-06T08:47:49Z</time>
      </trkpt>
      <trkpt lat="50.63817" lon="2.39459">
        <ele>29</ele>
        <time>2016-05-06T08:47:53Z</time>
      </trkpt>
      <trkpt lat="50.63818" lon="2.39444">
        <ele>28.9</ele>
        <time>2016-05-06T08:47:58Z</time>
      </trkpt>
      <trkpt lat="50.63821" lon="2.39427">
        <ele>28.7</ele>
        <time>2016-05-06T08:48:03Z</time>
      </trkpt>
      <trkpt lat="50.63822" lon="2.39408">
        <ele>28.6</ele>
        <time>2016-05-06T08:48:07Z</time>
      </trkpt>
      <trkpt lat="50.6383" lon="2.39421">
        <ele>28.4</ele>
        <time>2016-05-06T08:48:25Z</time>
      </trkpt>
      <trkpt lat="50.63834" lon="2.39433">
        <ele>28.5</ele>
        <time>2016-05-06T08:48:31Z</time>
      </trkpt>
      <trkpt lat="50.63843" lon="2.39441">
        <ele>28.6</ele>
        <time>2016-05-06T08:48:39Z</time>
      </trkpt>
      <trkpt lat="50.6385" lon="2.39434">
        <ele>28.6</ele>
        <time>2016-05-06T08:48:49Z</time>
      </trkpt>
      <trkpt lat="50.63856" lon="2.39422">
        <ele>28.6</ele>
        <time>2016-05-06T08:49:07Z</time>
      </trkpt>
      <trkpt lat="50.63866" lon="2.3942">
        <ele>28.5</ele>
        <time>2016-05-06T08:49:12Z</time>
      </trkpt>
      <trkpt lat="50.63876" lon="2.39416">
        <ele>28.6</ele>
        <time>2016-05-06T08:49:16Z</time>
      </trkpt>
      <trkpt lat="50.63886" lon="2.39419">
        <ele>28.6</ele>
        <time>2016-05-06T08:49:19Z</time>
      </trkpt>
      <trkpt lat="50.63904" lon="2.39419">
        <ele>28.6</ele>
        <time>2016-05-06T08:49:21Z</time>
      </trkpt>
      <trkpt lat="50.63917" lon="2.39416">
        <ele>28.6</ele>
        <time>2016-05-06T08:49:25Z</time>
      </trkpt>
      <trkpt lat="50.63929" lon="2.39412">
        <ele>28.7</ele>
        <time>2016-05-06T08:49:28Z</time>
      </trkpt>
      <trkpt lat="50.63941" lon="2.39409">
        <ele>28.1</ele>
        <time>2016-05-06T08:49:32Z</time>
      </trkpt>
      <trkpt lat="50.63951" lon="2.39409">
        <ele>28.3</ele>
        <time>2016-05-06T08:49:35Z</time>
      </trkpt>
      <trkpt lat="50.63959" lon="2.39396">
        <ele>28.4</ele>
        <time>2016-05-06T08:49:38Z</time>
      </trkpt>
      <trkpt lat="50.63961" lon="2.39381">
        <ele>28.5</ele>
        <time>2016-05-06T08:49:40Z</time>
      </trkpt>
      <trkpt lat="50.63962" lon="2.39366">
        <ele>28.5</ele>
        <time>2016-05-06T08:49:42Z</time>
      </trkpt>
      <trkpt lat="50.63962" lon="2.3935">
        <ele>28.6</ele>
        <time>2016-05-06T08:49:44Z</time>
      </trkpt>
      <trkpt lat="50.63961" lon="2.39333">
        <ele>28.6</ele>
        <time>2016-05-06T08:49:46Z</time>
      </trkpt>
      <trkpt lat="50.63962" lon="2.39315">
        <ele>28.7</ele>
        <time>2016-05-06T08:49:48Z</time>
      </trkpt>
      <trkpt lat="50.63962" lon="2.39296">
        <ele>28.7</ele>
        <time>2016-05-06T08:49:50Z</time>
      </trkpt>
      <trkpt lat="50.63963" lon="2.39277">
        <ele>28.7</ele>
        <time>2016-05-06T08:49:52Z</time>
      </trkpt>
      <trkpt lat="50.63964" lon="2.39257">
        <ele>28.8</ele>
        <time>2016-05-06T08:49:54Z</time>
      </trkpt>
      <trkpt lat="50.63963" lon="2.39236">
        <ele>28.8</ele>
        <time>2016-05-06T08:49:56Z</time>
      </trkpt>
      <trkpt lat="50.63963" lon="2.39216">
        <ele>28.8</ele>
        <time>2016-05-06T08:49:58Z</time>
      </trkpt>
      <trkpt lat="50.63963" lon="2.39196">
        <ele>28.9</ele>
        <time>2016-05-06T08:50:00Z</time>
      </trkpt>
      <trkpt lat="50.63962" lon="2.39177">
        <ele>28.9</ele>
        <time>2016-05-06T08:50:02Z</time>
      </trkpt>
      <trkpt lat="50.6396" lon="2.39158">
        <ele>29</ele>
        <time>2016-05-06T08:50:04Z</time>
      </trkpt>
      <trkpt lat="50.63959" lon="2.39138">
        <ele>29</ele>
        <time>2016-05-06T08:50:06Z</time>
      </trkpt>
      <trkpt lat="50.63962" lon="2.39117">
        <ele>29.1</ele>
        <time>2016-05-06T08:50:08Z</time>
      </trkpt>
      <trkpt lat="50.63963" lon="2.39099">
        <ele>29.1</ele>
        <time>2016-05-06T08:50:10Z</time>
      </trkpt>
      <trkpt lat="50.63963" lon="2.39081">
        <ele>29.1</ele>
        <time>2016-05-06T08:50:12Z</time>
      </trkpt>
      <trkpt lat="50.63964" lon="2.39065">
        <ele>29.2</ele>
        <time>2016-05-06T08:50:14Z</time>
      </trkpt>
      <trkpt lat="50.63963" lon="2.3905">
        <ele>29.2</ele>
        <time>2016-05-06T08:50:16Z</time>
      </trkpt>
      <trkpt lat="50.63963" lon="2.39032">
        <ele>29.2</ele>
        <time>2016-05-06T08:50:19Z</time>
      </trkpt>
      <trkpt lat="50.63976" lon="2.39028">
        <ele>29.2</ele>
        <time>2016-05-06T08:50:22Z</time>
      </trkpt>
      <trkpt lat="50.63988" lon="2.39029">
        <ele>29.3</ele>
        <time>2016-05-06T08:50:25Z</time>
      </trkpt>
      <trkpt lat="50.63978" lon="2.39024">
        <ele>29.3</ele>
        <time>2016-05-06T08:50:33Z</time>
      </trkpt>
      <trkpt lat="50.63969" lon="2.39025">
        <ele>29.4</ele>
        <time>2016-05-06T08:50:35Z</time>
      </trkpt>
      <trkpt lat="50.63958" lon="2.39019">
        <ele>29.8</ele>
        <time>2016-05-06T08:50:38Z</time>
      </trkpt>
      <trkpt lat="50.63955" lon="2.38998">
        <ele>29.9</ele>
        <time>2016-05-06T08:50:41Z</time>
      </trkpt>
      <trkpt lat="50.63953" lon="2.3898">
        <ele>30</ele>
        <time>2016-05-06T08:50:43Z</time>
      </trkpt>
      <trkpt lat="50.63952" lon="2.38963">
        <ele>30</ele>
        <time>2016-05-06T08:50:45Z</time>
      </trkpt>
      <trkpt lat="50.6395" lon="2.38945">
        <ele>30</ele>
        <time>2016-05-06T08:50:47Z</time>
      </trkpt>
      <trkpt lat="50.63949" lon="2.38929">
        <ele>30</ele>
        <time>2016-05-06T08:50:49Z</time>
      </trkpt>
      <trkpt lat="50.63949" lon="2.38913">
        <ele>30</ele>
        <time>2016-05-06T08:50:51Z</time>
      </trkpt>
      <trkpt lat="50.63955" lon="2.38903">
        <ele>30</ele>
        <time>2016-05-06T08:50:53Z</time>
      </trkpt>
      <trkpt lat="50.63964" lon="2.38901">
        <ele>30</ele>
        <time>2016-05-06T08:50:55Z</time>
      </trkpt>
      <trkpt lat="50.63975" lon="2.38903">
        <ele>30</ele>
        <time>2016-05-06T08:50:57Z</time>
      </trkpt>
      <trkpt lat="50.63987" lon="2.38905">
        <ele>30</ele>
        <time>2016-05-06T08:50:59Z</time>
      </trkpt>
      <trkpt lat="50.63999" lon="2.38907">
        <ele>30</ele>
        <time>2016-05-06T08:51:01Z</time>
      </trkpt>
      <trkpt lat="50.64013" lon="2.38909">
        <ele>30</ele>
        <time>2016-05-06T08:51:03Z</time>
      </trkpt>
      <trkpt lat="50.64026" lon="2.38912">
        <ele>30</ele>
        <time>2016-05-06T08:51:05Z</time>
      </trkpt>
      <trkpt lat="50.6404" lon="2.38914">
        <ele>30</ele>
        <time>2016-05-06T08:51:07Z</time>
      </trkpt>
      <trkpt lat="50.64055" lon="2.38918">
        <ele>30.1</ele>
        <time>2016-05-06T08:51:09Z</time>
      </trkpt>
      <trkpt lat="50.6407" lon="2.38922">
        <ele>30.2</ele>
        <time>2016-05-06T08:51:11Z</time>
      </trkpt>
      <trkpt lat="50.64084" lon="2.38926">
        <ele>30.2</ele>
        <time>2016-05-06T08:51:13Z</time>
      </trkpt>
      <trkpt lat="50.64098" lon="2.3893">
        <ele>30.2</ele>
        <time>2016-05-06T08:51:15Z</time>
      </trkpt>
      <trkpt lat="50.64113" lon="2.38935">
        <ele>30.3</ele>
        <time>2016-05-06T08:51:17Z</time>
      </trkpt>
      <trkpt lat="50.64126" lon="2.38939">
        <ele>30.3</ele>
        <time>2016-05-06T08:51:19Z</time>
      </trkpt>
      <trkpt lat="50.64139" lon="2.38943">
        <ele>30.3</ele>
        <time>2016-05-06T08:51:21Z</time>
      </trkpt>
      <trkpt lat="50.64153" lon="2.38948">
        <ele>30.3</ele>
        <time>2016-05-06T08:51:23Z</time>
      </trkpt>
      <trkpt lat="50.64167" lon="2.38954">
        <ele>30.2</ele>
        <time>2016-05-06T08:51:25Z</time>
      </trkpt>
      <trkpt lat="50.64181" lon="2.3896">
        <ele>30.2</ele>
        <time>2016-05-06T08:51:27Z</time>
      </trkpt>
      <trkpt lat="50.64196" lon="2.38966">
        <ele>30.1</ele>
        <time>2016-05-06T08:51:29Z</time>
      </trkpt>
      <trkpt lat="50.64211" lon="2.38972">
        <ele>30.1</ele>
        <time>2016-05-06T08:51:31Z</time>
      </trkpt>
      <trkpt lat="50.64225" lon="2.38979">
        <ele>30</ele>
        <time>2016-05-06T08:51:33Z</time>
      </trkpt>
      <trkpt lat="50.6424" lon="2.38987">
        <ele>30</ele>
        <time>2016-05-06T08:51:35Z</time>
      </trkpt>
      <trkpt lat="50.64254" lon="2.38994">
        <ele>30</ele>
        <time>2016-05-06T08:51:37Z</time>
      </trkpt>
      <trkpt lat="50.64269" lon="2.39002">
        <ele>29.9</ele>
        <time>2016-05-06T08:51:39Z</time>
      </trkpt>
      <trkpt lat="50.64283" lon="2.39011">
        <ele>29.9</ele>
        <time>2016-05-06T08:51:41Z</time>
      </trkpt>
      <trkpt lat="50.64297" lon="2.39017">
        <ele>29.9</ele>
        <time>2016-05-06T08:51:43Z</time>
      </trkpt>
      <trkpt lat="50.64311" lon="2.39024">
        <ele>29.9</ele>
        <time>2016-05-06T08:51:45Z</time>
      </trkpt>
      <trkpt lat="50.64325" lon="2.39031">
        <ele>29.9</ele>
        <time>2016-05-06T08:51:47Z</time>
      </trkpt>
      <trkpt lat="50.64339" lon="2.39038">
        <ele>29.9</ele>
        <time>2016-05-06T08:51:49Z</time>
      </trkpt>
      <trkpt lat="50.64353" lon="2.39046">
        <ele>29.9</ele>
        <time>2016-05-06T08:51:51Z</time>
      </trkpt>
      <trkpt lat="50.64367" lon="2.39054">
        <ele>29.8</ele>
        <time>2016-05-06T08:51:53Z</time>
      </trkpt>
      <trkpt lat="50.64381" lon="2.39061">
        <ele>29.8</ele>
        <time>2016-05-06T08:51:55Z</time>
      </trkpt>
      <trkpt lat="50.64395" lon="2.39068">
        <ele>29.8</ele>
        <time>2016-05-06T08:51:57Z</time>
      </trkpt>
      <trkpt lat="50.64409" lon="2.39075">
        <ele>29.8</ele>
        <time>2016-05-06T08:51:59Z</time>
      </trkpt>
      <trkpt lat="50.64422" lon="2.39083">
        <ele>29.8</ele>
        <time>2016-05-06T08:52:01Z</time>
      </trkpt>
      <trkpt lat="50.64437" lon="2.3909">
        <ele>29.8</ele>
        <time>2016-05-06T08:52:03Z</time>
      </trkpt>
      <trkpt lat="50.64451" lon="2.39098">
        <ele>29.8</ele>
        <time>2016-05-06T08:52:05Z</time>
      </trkpt>
      <trkpt lat="50.64465" lon="2.39105">
        <ele>29.7</ele>
        <time>2016-05-06T08:52:07Z</time>
      </trkpt>
      <trkpt lat="50.64479" lon="2.39113">
        <ele>29.7</ele>
        <time>2016-05-06T08:52:09Z</time>
      </trkpt>
      <trkpt lat="50.64493" lon="2.39121">
        <ele>29.7</ele>
        <time>2016-05-06T08:52:11Z</time>
      </trkpt>
      <trkpt lat="50.64507" lon="2.39128">
        <ele>29.7</ele>
        <time>2016-05-06T08:52:13Z</time>
      </trkpt>
      <trkpt lat="50.64521" lon="2.39136">
        <ele>29.7</ele>
        <time>2016-05-06T08:52:15Z</time>
      </trkpt>
      <trkpt lat="50.64536" lon="2.39144">
        <ele>29.7</ele>
        <time>2016-05-06T08:52:17Z</time>
      </trkpt>
      <trkpt lat="50.64549" lon="2.39151">
        <ele>29.7</ele>
        <time>2016-05-06T08:52:19Z</time>
      </trkpt>
      <trkpt lat="50.64562" lon="2.39159">
        <ele>29.8</ele>
        <time>2016-05-06T08:52:21Z</time>
      </trkpt>
      <trkpt lat="50.64576" lon="2.39167">
        <ele>29.8</ele>
        <time>2016-05-06T08:52:23Z</time>
      </trkpt>
      <trkpt lat="50.64589" lon="2.39174">
        <ele>29.8</ele>
        <time>2016-05-06T08:52:25Z</time>
      </trkpt>
      <trkpt lat="50.64603" lon="2.39183">
        <ele>29.8</ele>
        <time>2016-05-06T08:52:27Z</time>
      </trkpt>
      <trkpt lat="50.64616" lon="2.39191">
        <ele>29.8</ele>
        <time>2016-05-06T08:52:29Z</time>
      </trkpt>
      <trkpt lat="50.6463" lon="2.39199">
        <ele>29.8</ele>
        <time>2016-05-06T08:52:31Z</time>
      </trkpt>
      <trkpt lat="50.64643" lon="2.39207">
        <ele>29.8</ele>
        <time>2016-05-06T08:52:33Z</time>
      </trkpt>
      <trkpt lat="50.64657" lon="2.39215">
        <ele>29.8</ele>
        <time>2016-05-06T08:52:35Z</time>
      </trkpt>
      <trkpt lat="50.6467" lon="2.39222">
        <ele>29.8</ele>
        <time>2016-05-06T08:52:37Z</time>
      </trkpt>
      <trkpt lat="50.64683" lon="2.39228">
        <ele>29.9</ele>
        <time>2016-05-06T08:52:39Z</time>
      </trkpt>
      <trkpt lat="50.64697" lon="2.39233">
        <ele>29.9</ele>
        <time>2016-05-06T08:52:41Z</time>
      </trkpt>
      <trkpt lat="50.64711" lon="2.39236">
        <ele>30</ele>
        <time>2016-05-06T08:52:43Z</time>
      </trkpt>
      <trkpt lat="50.64725" lon="2.39238">
        <ele>30</ele>
        <time>2016-05-06T08:52:45Z</time>
      </trkpt>
      <trkpt lat="50.64738" lon="2.39241">
        <ele>30.2</ele>
        <time>2016-05-06T08:52:47Z</time>
      </trkpt>
      <trkpt lat="50.6475" lon="2.39247">
        <ele>30.4</ele>
        <time>2016-05-06T08:52:49Z</time>
      </trkpt>
      <trkpt lat="50.64759" lon="2.39259">
        <ele>30.5</ele>
        <time>2016-05-06T08:52:51Z</time>
      </trkpt>
      <trkpt lat="50.64769" lon="2.3927">
        <ele>30.5</ele>
        <time>2016-05-06T08:52:53Z</time>
      </trkpt>
      <trkpt lat="50.64781" lon="2.39272">
        <ele>30.6</ele>
        <time>2016-05-06T08:52:55Z</time>
      </trkpt>
      <trkpt lat="50.64789" lon="2.39261">
        <ele>30.7</ele>
        <time>2016-05-06T08:52:57Z</time>
      </trkpt>
      <trkpt lat="50.64794" lon="2.39243">
        <ele>30.8</ele>
        <time>2016-05-06T08:52:59Z</time>
      </trkpt>
      <trkpt lat="50.64799" lon="2.39223">
        <ele>30.8</ele>
        <time>2016-05-06T08:53:01Z</time>
      </trkpt>
      <trkpt lat="50.64807" lon="2.39204">
        <ele>30.8</ele>
        <time>2016-05-06T08:53:03Z</time>
      </trkpt>
      <trkpt lat="50.64815" lon="2.39186">
        <ele>30.7</ele>
        <time>2016-05-06T08:53:05Z</time>
      </trkpt>
      <trkpt lat="50.64823" lon="2.39167">
        <ele>30.6</ele>
        <time>2016-05-06T08:53:07Z</time>
      </trkpt>
      <trkpt lat="50.64828" lon="2.39154">
        <ele>30.6</ele>
        <time>2016-05-06T08:53:08Z</time>
      </trkpt>
      <trkpt lat="50.64836" lon="2.39132">
        <ele>30.5</ele>
        <time>2016-05-06T08:53:10Z</time>
      </trkpt>
      <trkpt lat="50.64844" lon="2.39112">
        <ele>30.5</ele>
        <time>2016-05-06T08:53:12Z</time>
      </trkpt>
      <trkpt lat="50.64853" lon="2.39092">
        <ele>30.4</ele>
        <time>2016-05-06T08:53:14Z</time>
      </trkpt>
      <trkpt lat="50.64861" lon="2.39073">
        <ele>30.3</ele>
        <time>2016-05-06T08:53:16Z</time>
      </trkpt>
      <trkpt lat="50.6487" lon="2.39055">
        <ele>30.3</ele>
        <time>2016-05-06T08:53:18Z</time>
      </trkpt>
      <trkpt lat="50.64878" lon="2.39037">
        <ele>30.2</ele>
        <time>2016-05-06T08:53:20Z</time>
      </trkpt>
      <trkpt lat="50.64885" lon="2.39021">
        <ele>30.2</ele>
        <time>2016-05-06T08:53:22Z</time>
      </trkpt>
      <trkpt lat="50.64893" lon="2.39007">
        <ele>30.1</ele>
        <time>2016-05-06T08:53:24Z</time>
      </trkpt>
      <trkpt lat="50.64901" lon="2.38994">
        <ele>30.1</ele>
        <time>2016-05-06T08:53:26Z</time>
      </trkpt>
      <trkpt lat="50.64911" lon="2.38983">
        <ele>30</ele>
        <time>2016-05-06T08:53:28Z</time>
      </trkpt>
      <trkpt lat="50.64921" lon="2.3897">
        <ele>30</ele>
        <time>2016-05-06T08:53:30Z</time>
      </trkpt>
      <trkpt lat="50.64931" lon="2.38956">
        <ele>30</ele>
        <time>2016-05-06T08:53:32Z</time>
      </trkpt>
      <trkpt lat="50.64941" lon="2.38942">
        <ele>29.9</ele>
        <time>2016-05-06T08:53:34Z</time>
      </trkpt>
      <trkpt lat="50.6495" lon="2.38927">
        <ele>29.9</ele>
        <time>2016-05-06T08:53:36Z</time>
      </trkpt>
      <trkpt lat="50.64959" lon="2.38911">
        <ele>29.9</ele>
        <time>2016-05-06T08:53:38Z</time>
      </trkpt>
      <trkpt lat="50.64967" lon="2.38895">
        <ele>29.9</ele>
        <time>2016-05-06T08:53:40Z</time>
      </trkpt>
      <trkpt lat="50.64976" lon="2.38879">
        <ele>29.9</ele>
        <time>2016-05-06T08:53:42Z</time>
      </trkpt>
      <trkpt lat="50.64985" lon="2.38863">
        <ele>29.9</ele>
        <time>2016-05-06T08:53:44Z</time>
      </trkpt>
      <trkpt lat="50.64993" lon="2.38848">
        <ele>29.9</ele>
        <time>2016-05-06T08:53:46Z</time>
      </trkpt>
      <trkpt lat="50.65002" lon="2.38833">
        <ele>30</ele>
        <time>2016-05-06T08:53:48Z</time>
      </trkpt>
      <trkpt lat="50.65012" lon="2.38819">
        <ele>30</ele>
        <time>2016-05-06T08:53:50Z</time>
      </trkpt>
      <trkpt lat="50.65022" lon="2.38806">
        <ele>30</ele>
        <time>2016-05-06T08:53:52Z</time>
      </trkpt>
      <trkpt lat="50.65033" lon="2.38793">
        <ele>30.1</ele>
        <time>2016-05-06T08:53:54Z</time>
      </trkpt>
      <trkpt lat="50.65044" lon="2.3878">
        <ele>30.2</ele>
        <time>2016-05-06T08:53:56Z</time>
      </trkpt>
      <trkpt lat="50.65055" lon="2.38767">
        <ele>30.2</ele>
        <time>2016-05-06T08:53:58Z</time>
      </trkpt>
      <trkpt lat="50.65066" lon="2.38753">
        <ele>30.3</ele>
        <time>2016-05-06T08:54:00Z</time>
      </trkpt>
      <trkpt lat="50.65077" lon="2.38739">
        <ele>30.3</ele>
        <time>2016-05-06T08:54:02Z</time>
      </trkpt>
      <trkpt lat="50.65088" lon="2.38725">
        <ele>30.4</ele>
        <time>2016-05-06T08:54:04Z</time>
      </trkpt>
      <trkpt lat="50.65099" lon="2.38711">
        <ele>30.4</ele>
        <time>2016-05-06T08:54:06Z</time>
      </trkpt>
      <trkpt lat="50.6511" lon="2.38698">
        <ele>30.5</ele>
        <time>2016-05-06T08:54:08Z</time>
      </trkpt>
      <trkpt lat="50.65121" lon="2.38685">
        <ele>30.6</ele>
        <time>2016-05-06T08:54:10Z</time>
      </trkpt>
      <trkpt lat="50.65132" lon="2.38671">
        <ele>30.7</ele>
        <time>2016-05-06T08:54:12Z</time>
      </trkpt>
      <trkpt lat="50.65143" lon="2.38657">
        <ele>30.8</ele>
        <time>2016-05-06T08:54:14Z</time>
      </trkpt>
      <trkpt lat="50.65153" lon="2.38641">
        <ele>30.8</ele>
        <time>2016-05-06T08:54:16Z</time>
      </trkpt>
      <trkpt lat="50.65162" lon="2.38626">
        <ele>30.9</ele>
        <time>2016-05-06T08:54:18Z</time>
      </trkpt>
      <trkpt lat="50.65172" lon="2.3861">
        <ele>30.9</ele>
        <time>2016-05-06T08:54:20Z</time>
      </trkpt>
      <trkpt lat="50.65181" lon="2.38593">
        <ele>31</ele>
        <time>2016-05-06T08:54:22Z</time>
      </trkpt>
      <trkpt lat="50.65191" lon="2.38576">
        <ele>31</ele>
        <time>2016-05-06T08:54:24Z</time>
      </trkpt>
      <trkpt lat="50.65201" lon="2.38559">
        <ele>31</ele>
        <time>2016-05-06T08:54:26Z</time>
      </trkpt>
      <trkpt lat="50.65211" lon="2.38542">
        <ele>31.1</ele>
        <time>2016-05-06T08:54:28Z</time>
      </trkpt>
      <trkpt lat="50.65221" lon="2.38525">
        <ele>31.1</ele>
        <time>2016-05-06T08:54:30Z</time>
      </trkpt>
      <trkpt lat="50.65232" lon="2.38508">
        <ele>31.2</ele>
        <time>2016-05-06T08:54:32Z</time>
      </trkpt>
      <trkpt lat="50.65242" lon="2.38491">
        <ele>31.3</ele>
        <time>2016-05-06T08:54:34Z</time>
      </trkpt>
      <trkpt lat="50.65252" lon="2.38474">
        <ele>31.3</ele>
        <time>2016-05-06T08:54:36Z</time>
      </trkpt>
      <trkpt lat="50.65262" lon="2.38457">
        <ele>31.4</ele>
        <time>2016-05-06T08:54:38Z</time>
      </trkpt>
      <trkpt lat="50.65272" lon="2.38441">
        <ele>31.8</ele>
        <time>2016-05-06T08:54:40Z</time>
      </trkpt>
      <trkpt lat="50.65283" lon="2.38426">
        <ele>31.9</ele>
        <time>2016-05-06T08:54:42Z</time>
      </trkpt>
      <trkpt lat="50.65295" lon="2.38412">
        <ele>32</ele>
        <time>2016-05-06T08:54:44Z</time>
      </trkpt>
      <trkpt lat="50.65307" lon="2.384">
        <ele>32.1</ele>
        <time>2016-05-06T08:54:46Z</time>
      </trkpt>
      <trkpt lat="50.6532" lon="2.38387">
        <ele>32.1</ele>
        <time>2016-05-06T08:54:48Z</time>
      </trkpt>
      <trkpt lat="50.65333" lon="2.38376">
        <ele>32.2</ele>
        <time>2016-05-06T08:54:50Z</time>
      </trkpt>
      <trkpt lat="50.65345" lon="2.38366">
        <ele>32.2</ele>
        <time>2016-05-06T08:54:52Z</time>
      </trkpt>
      <trkpt lat="50.65357" lon="2.38354">
        <ele>32.2</ele>
        <time>2016-05-06T08:54:54Z</time>
      </trkpt>
      <trkpt lat="50.65368" lon="2.38341">
        <ele>32.3</ele>
        <time>2016-05-06T08:54:56Z</time>
      </trkpt>
      <trkpt lat="50.65379" lon="2.38327">
        <ele>32.3</ele>
        <time>2016-05-06T08:54:58Z</time>
      </trkpt>
      <trkpt lat="50.65389" lon="2.38311">
        <ele>32.3</ele>
        <time>2016-05-06T08:55:00Z</time>
      </trkpt>
      <trkpt lat="50.65399" lon="2.38295">
        <ele>32.3</ele>
        <time>2016-05-06T08:55:02Z</time>
      </trkpt>
      <trkpt lat="50.65408" lon="2.38279">
        <ele>32.3</ele>
        <time>2016-05-06T08:55:04Z</time>
      </trkpt>
      <trkpt lat="50.65418" lon="2.38262">
        <ele>32.3</ele>
        <time>2016-05-06T08:55:06Z</time>
      </trkpt>
      <trkpt lat="50.65429" lon="2.38246">
        <ele>32.3</ele>
        <time>2016-05-06T08:55:08Z</time>
      </trkpt>
      <trkpt lat="50.6544" lon="2.38231">
        <ele>32.3</ele>
        <time>2016-05-06T08:55:10Z</time>
      </trkpt>
      <trkpt lat="50.65453" lon="2.38218">
        <ele>32.3</ele>
        <time>2016-05-06T08:55:12Z</time>
      </trkpt>
      <trkpt lat="50.65467" lon="2.38208">
        <ele>32.3</ele>
        <time>2016-05-06T08:55:14Z</time>
      </trkpt>
      <trkpt lat="50.65481" lon="2.38198">
        <ele>32.3</ele>
        <time>2016-05-06T08:55:16Z</time>
      </trkpt>
      <trkpt lat="50.65495" lon="2.3819">
        <ele>32.3</ele>
        <time>2016-05-06T08:55:18Z</time>
      </trkpt>
      <trkpt lat="50.65509" lon="2.38181">
        <ele>32.3</ele>
        <time>2016-05-06T08:55:20Z</time>
      </trkpt>
      <trkpt lat="50.65522" lon="2.38171">
        <ele>32.3</ele>
        <time>2016-05-06T08:55:22Z</time>
      </trkpt>
      <trkpt lat="50.65535" lon="2.38161">
        <ele>32.3</ele>
        <time>2016-05-06T08:55:24Z</time>
      </trkpt>
      <trkpt lat="50.65546" lon="2.38148">
        <ele>32.3</ele>
        <time>2016-05-06T08:55:26Z</time>
      </trkpt>
      <trkpt lat="50.65556" lon="2.38135">
        <ele>32.3</ele>
        <time>2016-05-06T08:55:28Z</time>
      </trkpt>
      <trkpt lat="50.65565" lon="2.38121">
        <ele>32.4</ele>
        <time>2016-05-06T08:55:30Z</time>
      </trkpt>
      <trkpt lat="50.65574" lon="2.38106">
        <ele>32.5</ele>
        <time>2016-05-06T08:55:32Z</time>
      </trkpt>
      <trkpt lat="50.65583" lon="2.38091">
        <ele>32.7</ele>
        <time>2016-05-06T08:55:34Z</time>
      </trkpt>
      <trkpt lat="50.65592" lon="2.38074">
        <ele>32.9</ele>
        <time>2016-05-06T08:55:36Z</time>
      </trkpt>
      <trkpt lat="50.656" lon="2.38057">
        <ele>33</ele>
        <time>2016-05-06T08:55:38Z</time>
      </trkpt>
      <trkpt lat="50.65608" lon="2.38041">
        <ele>33.1</ele>
        <time>2016-05-06T08:55:40Z</time>
      </trkpt>
      <trkpt lat="50.65614" lon="2.3803">
        <ele>33.2</ele>
        <time>2016-05-06T08:55:42Z</time>
      </trkpt>
      <trkpt lat="50.65621" lon="2.38014">
        <ele>33.1</ele>
        <time>2016-05-06T08:55:45Z</time>
      </trkpt>
      <trkpt lat="50.65627" lon="2.38005">
        <ele>33.1</ele>
        <time>2016-05-06T08:55:47Z</time>
      </trkpt>
      <trkpt lat="50.65636" lon="2.37997">
        <ele>33.1</ele>
        <time>2016-05-06T08:55:49Z</time>
      </trkpt>
      <trkpt lat="50.65646" lon="2.37989">
        <ele>33.1</ele>
        <time>2016-05-06T08:55:51Z</time>
      </trkpt>
      <trkpt lat="50.65657" lon="2.37982">
        <ele>33.1</ele>
        <time>2016-05-06T08:55:53Z</time>
      </trkpt>
      <trkpt lat="50.65669" lon="2.37975">
        <ele>33.1</ele>
        <time>2016-05-06T08:55:55Z</time>
      </trkpt>
      <trkpt lat="50.65681" lon="2.3797">
        <ele>33.1</ele>
        <time>2016-05-06T08:55:57Z</time>
      </trkpt>
      <trkpt lat="50.65696" lon="2.37964">
        <ele>33.1</ele>
        <time>2016-05-06T08:55:59Z</time>
      </trkpt>
      <trkpt lat="50.6571" lon="2.37958">
        <ele>33.1</ele>
        <time>2016-05-06T08:56:01Z</time>
      </trkpt>
      <trkpt lat="50.65724" lon="2.37952">
        <ele>33.1</ele>
        <time>2016-05-06T08:56:03Z</time>
      </trkpt>
      <trkpt lat="50.65738" lon="2.37946">
        <ele>33.1</ele>
        <time>2016-05-06T08:56:05Z</time>
      </trkpt>
      <trkpt lat="50.65751" lon="2.37938">
        <ele>33.1</ele>
        <time>2016-05-06T08:56:07Z</time>
      </trkpt>
      <trkpt lat="50.65764" lon="2.3793">
        <ele>33</ele>
        <time>2016-05-06T08:56:09Z</time>
      </trkpt>
      <trkpt lat="50.65776" lon="2.37921">
        <ele>33</ele>
        <time>2016-05-06T08:56:11Z</time>
      </trkpt>
      <trkpt lat="50.65789" lon="2.3791">
        <ele>33</ele>
        <time>2016-05-06T08:56:13Z</time>
      </trkpt>
      <trkpt lat="50.65802" lon="2.37898">
        <ele>33</ele>
        <time>2016-05-06T08:56:15Z</time>
      </trkpt>
      <trkpt lat="50.65814" lon="2.37887">
        <ele>33</ele>
        <time>2016-05-06T08:56:17Z</time>
      </trkpt>
      <trkpt lat="50.65828" lon="2.37877">
        <ele>33</ele>
        <time>2016-05-06T08:56:19Z</time>
      </trkpt>
      <trkpt lat="50.65841" lon="2.37867">
        <ele>33</ele>
        <time>2016-05-06T08:56:21Z</time>
      </trkpt>
      <trkpt lat="50.65855" lon="2.3786">
        <ele>33</ele>
        <time>2016-05-06T08:56:23Z</time>
      </trkpt>
      <trkpt lat="50.65869" lon="2.37852">
        <ele>33</ele>
        <time>2016-05-06T08:56:25Z</time>
      </trkpt>
      <trkpt lat="50.65883" lon="2.37845">
        <ele>33</ele>
        <time>2016-05-06T08:56:27Z</time>
      </trkpt>
      <trkpt lat="50.65898" lon="2.37838">
        <ele>33</ele>
        <time>2016-05-06T08:56:29Z</time>
      </trkpt>
      <trkpt lat="50.65912" lon="2.37831">
        <ele>33</ele>
        <time>2016-05-06T08:56:31Z</time>
      </trkpt>
      <trkpt lat="50.65927" lon="2.37823">
        <ele>33</ele>
        <time>2016-05-06T08:56:33Z</time>
      </trkpt>
      <trkpt lat="50.65942" lon="2.37815">
        <ele>33.1</ele>
        <time>2016-05-06T08:56:35Z</time>
      </trkpt>
      <trkpt lat="50.65956" lon="2.37807">
        <ele>33.3</ele>
        <time>2016-05-06T08:56:37Z</time>
      </trkpt>
      <trkpt lat="50.65971" lon="2.378">
        <ele>33.4</ele>
        <time>2016-05-06T08:56:39Z</time>
      </trkpt>
      <trkpt lat="50.65985" lon="2.37791">
        <ele>33.5</ele>
        <time>2016-05-06T08:56:41Z</time>
      </trkpt>
      <trkpt lat="50.65999" lon="2.37783">
        <ele>33.5</ele>
        <time>2016-05-06T08:56:43Z</time>
      </trkpt>
      <trkpt lat="50.66014" lon="2.37775">
        <ele>33.5</ele>
        <time>2016-05-06T08:56:45Z</time>
      </trkpt>
      <trkpt lat="50.66028" lon="2.37767">
        <ele>33.5</ele>
        <time>2016-05-06T08:56:47Z</time>
      </trkpt>
      <trkpt lat="50.66042" lon="2.37759">
        <ele>33.5</ele>
        <time>2016-05-06T08:56:49Z</time>
      </trkpt>
      <trkpt lat="50.66056" lon="2.37751">
        <ele>33.5</ele>
        <time>2016-05-06T08:56:51Z</time>
      </trkpt>
      <trkpt lat="50.6607" lon="2.37742">
        <ele>33.5</ele>
        <time>2016-05-06T08:56:53Z</time>
      </trkpt>
      <trkpt lat="50.66083" lon="2.37731">
        <ele>33.5</ele>
        <time>2016-05-06T08:56:55Z</time>
      </trkpt>
      <trkpt lat="50.66096" lon="2.37719">
        <ele>33.5</ele>
        <time>2016-05-06T08:56:57Z</time>
      </trkpt>
      <trkpt lat="50.66108" lon="2.37706">
        <ele>33.5</ele>
        <time>2016-05-06T08:56:59Z</time>
      </trkpt>
      <trkpt lat="50.6612" lon="2.37693">
        <ele>33.6</ele>
        <time>2016-05-06T08:57:01Z</time>
      </trkpt>
      <trkpt lat="50.66131" lon="2.3768">
        <ele>33.6</ele>
        <time>2016-05-06T08:57:03Z</time>
      </trkpt>
      <trkpt lat="50.66143" lon="2.37666">
        <ele>33.5</ele>
        <time>2016-05-06T08:57:05Z</time>
      </trkpt>
      <trkpt lat="50.66155" lon="2.37652">
        <ele>33.5</ele>
        <time>2016-05-06T08:57:07Z</time>
      </trkpt>
      <trkpt lat="50.66166" lon="2.37638">
        <ele>33.4</ele>
        <time>2016-05-06T08:57:09Z</time>
      </trkpt>
      <trkpt lat="50.66177" lon="2.37624">
        <ele>33.4</ele>
        <time>2016-05-06T08:57:11Z</time>
      </trkpt>
      <trkpt lat="50.66188" lon="2.37607">
        <ele>33.3</ele>
        <time>2016-05-06T08:57:13Z</time>
      </trkpt>
      <trkpt lat="50.66197" lon="2.3759">
        <ele>33.3</ele>
        <time>2016-05-06T08:57:15Z</time>
      </trkpt>
      <trkpt lat="50.66206" lon="2.37571">
        <ele>33.3</ele>
        <time>2016-05-06T08:57:17Z</time>
      </trkpt>
      <trkpt lat="50.66214" lon="2.37553">
        <ele>33.3</ele>
        <time>2016-05-06T08:57:19Z</time>
      </trkpt>
      <trkpt lat="50.66223" lon="2.37534">
        <ele>33.4</ele>
        <time>2016-05-06T08:57:21Z</time>
      </trkpt>
      <trkpt lat="50.66231" lon="2.37515">
        <ele>33.4</ele>
        <time>2016-05-06T08:57:23Z</time>
      </trkpt>
      <trkpt lat="50.6624" lon="2.37498">
        <ele>33.4</ele>
        <time>2016-05-06T08:57:25Z</time>
      </trkpt>
      <trkpt lat="50.66248" lon="2.37479">
        <ele>33.4</ele>
        <time>2016-05-06T08:57:27Z</time>
      </trkpt>
      <trkpt lat="50.66257" lon="2.37462">
        <ele>33.4</ele>
        <time>2016-05-06T08:57:29Z</time>
      </trkpt>
      <trkpt lat="50.66265" lon="2.37442">
        <ele>33.4</ele>
        <time>2016-05-06T08:57:31Z</time>
      </trkpt>
      <trkpt lat="50.66271" lon="2.37422">
        <ele>33.4</ele>
        <time>2016-05-06T08:57:33Z</time>
      </trkpt>
      <trkpt lat="50.66277" lon="2.374">
        <ele>33.4</ele>
        <time>2016-05-06T08:57:35Z</time>
      </trkpt>
      <trkpt lat="50.66282" lon="2.37378">
        <ele>33.4</ele>
        <time>2016-05-06T08:57:37Z</time>
      </trkpt>
      <trkpt lat="50.66288" lon="2.37355">
        <ele>33.4</ele>
        <time>2016-05-06T08:57:39Z</time>
      </trkpt>
      <trkpt lat="50.66293" lon="2.37334">
        <ele>33.4</ele>
        <time>2016-05-06T08:57:41Z</time>
      </trkpt>
      <trkpt lat="50.66299" lon="2.37312">
        <ele>33.4</ele>
        <time>2016-05-06T08:57:43Z</time>
      </trkpt>
      <trkpt lat="50.66303" lon="2.37291">
        <ele>33.4</ele>
        <time>2016-05-06T08:57:45Z</time>
      </trkpt>
      <trkpt lat="50.66307" lon="2.37269">
        <ele>33.4</ele>
        <time>2016-05-06T08:57:47Z</time>
      </trkpt>
      <trkpt lat="50.66309" lon="2.37246">
        <ele>33.4</ele>
        <time>2016-05-06T08:57:49Z</time>
      </trkpt>
      <trkpt lat="50.66311" lon="2.37223">
        <ele>33.4</ele>
        <time>2016-05-06T08:57:51Z</time>
      </trkpt>
      <trkpt lat="50.66313" lon="2.372">
        <ele>33.4</ele>
        <time>2016-05-06T08:57:53Z</time>
      </trkpt>
      <trkpt lat="50.66317" lon="2.37177">
        <ele>33.4</ele>
        <time>2016-05-06T08:57:55Z</time>
      </trkpt>
      <trkpt lat="50.66323" lon="2.37155">
        <ele>33.4</ele>
        <time>2016-05-06T08:57:57Z</time>
      </trkpt>
      <trkpt lat="50.66331" lon="2.37136">
        <ele>33.5</ele>
        <time>2016-05-06T08:57:59Z</time>
      </trkpt>
      <trkpt lat="50.66339" lon="2.37116">
        <ele>33.5</ele>
        <time>2016-05-06T08:58:01Z</time>
      </trkpt>
      <trkpt lat="50.66346" lon="2.37096">
        <ele>33.5</ele>
        <time>2016-05-06T08:58:03Z</time>
      </trkpt>
      <trkpt lat="50.66353" lon="2.37075">
        <ele>33.5</ele>
        <time>2016-05-06T08:58:05Z</time>
      </trkpt>
      <trkpt lat="50.6636" lon="2.37054">
        <ele>33.5</ele>
        <time>2016-05-06T08:58:07Z</time>
      </trkpt>
      <trkpt lat="50.66366" lon="2.37033">
        <ele>33.5</ele>
        <time>2016-05-06T08:58:09Z</time>
      </trkpt>
      <trkpt lat="50.66373" lon="2.37011">
        <ele>33.5</ele>
        <time>2016-05-06T08:58:11Z</time>
      </trkpt>
      <trkpt lat="50.6638" lon="2.36989">
        <ele>33.5</ele>
        <time>2016-05-06T08:58:13Z</time>
      </trkpt>
      <trkpt lat="50.66387" lon="2.36967">
        <ele>33.5</ele>
        <time>2016-05-06T08:58:15Z</time>
      </trkpt>
      <trkpt lat="50.66394" lon="2.36945">
        <ele>33.6</ele>
        <time>2016-05-06T08:58:17Z</time>
      </trkpt>
      <trkpt lat="50.664" lon="2.36924">
        <ele>33.7</ele>
        <time>2016-05-06T08:58:19Z</time>
      </trkpt>
      <trkpt lat="50.66406" lon="2.36903">
        <ele>33.7</ele>
        <time>2016-05-06T08:58:21Z</time>
      </trkpt>
      <trkpt lat="50.66411" lon="2.36881">
        <ele>33.8</ele>
        <time>2016-05-06T08:58:23Z</time>
      </trkpt>
      <trkpt lat="50.66415" lon="2.36859">
        <ele>33.8</ele>
        <time>2016-05-06T08:58:25Z</time>
      </trkpt>
      <trkpt lat="50.66418" lon="2.36837">
        <ele>33.9</ele>
        <time>2016-05-06T08:58:27Z</time>
      </trkpt>
      <trkpt lat="50.66422" lon="2.36814">
        <ele>33.9</ele>
        <time>2016-05-06T08:58:29Z</time>
      </trkpt>
      <trkpt lat="50.66425" lon="2.36791">
        <ele>34</ele>
        <time>2016-05-06T08:58:31Z</time>
      </trkpt>
      <trkpt lat="50.66428" lon="2.36769">
        <ele>34</ele>
        <time>2016-05-06T08:58:33Z</time>
      </trkpt>
      <trkpt lat="50.66431" lon="2.36746">
        <ele>34</ele>
        <time>2016-05-06T08:58:35Z</time>
      </trkpt>
      <trkpt lat="50.66435" lon="2.36723">
        <ele>34</ele>
        <time>2016-05-06T08:58:37Z</time>
      </trkpt>
      <trkpt lat="50.66438" lon="2.367">
        <ele>34.1</ele>
        <time>2016-05-06T08:58:39Z</time>
      </trkpt>
      <trkpt lat="50.66441" lon="2.36677">
        <ele>34.1</ele>
        <time>2016-05-06T08:58:41Z</time>
      </trkpt>
      <trkpt lat="50.66444" lon="2.36653">
        <ele>34.2</ele>
        <time>2016-05-06T08:58:43Z</time>
      </trkpt>
      <trkpt lat="50.66448" lon="2.3663">
        <ele>34.3</ele>
        <time>2016-05-06T08:58:45Z</time>
      </trkpt>
      <trkpt lat="50.66451" lon="2.36606">
        <ele>34.3</ele>
        <time>2016-05-06T08:58:47Z</time>
      </trkpt>
      <trkpt lat="50.66454" lon="2.36581">
        <ele>34.4</ele>
        <time>2016-05-06T08:58:49Z</time>
      </trkpt>
      <trkpt lat="50.66458" lon="2.36557">
        <ele>34.4</ele>
        <time>2016-05-06T08:58:51Z</time>
      </trkpt>
      <trkpt lat="50.66461" lon="2.36533">
        <ele>34.4</ele>
        <time>2016-05-06T08:58:53Z</time>
      </trkpt>
      <trkpt lat="50.66464" lon="2.3651">
        <ele>34.5</ele>
        <time>2016-05-06T08:58:55Z</time>
      </trkpt>
      <trkpt lat="50.66467" lon="2.36487">
        <ele>34.5</ele>
        <time>2016-05-06T08:58:57Z</time>
      </trkpt>
      <trkpt lat="50.6647" lon="2.36464">
        <ele>34.6</ele>
        <time>2016-05-06T08:58:59Z</time>
      </trkpt>
      <trkpt lat="50.66473" lon="2.36441">
        <ele>34.6</ele>
        <time>2016-05-06T08:59:01Z</time>
      </trkpt>
      <trkpt lat="50.66476" lon="2.36419">
        <ele>34.7</ele>
        <time>2016-05-06T08:59:03Z</time>
      </trkpt>
      <trkpt lat="50.6648" lon="2.36396">
        <ele>34.8</ele>
        <time>2016-05-06T08:59:05Z</time>
      </trkpt>
      <trkpt lat="50.66483" lon="2.36373">
        <ele>34.9</ele>
        <time>2016-05-06T08:59:07Z</time>
      </trkpt>
      <trkpt lat="50.66487" lon="2.3635">
        <ele>34.9</ele>
        <time>2016-05-06T08:59:09Z</time>
      </trkpt>
      <trkpt lat="50.6649" lon="2.36327">
        <ele>35</ele>
        <time>2016-05-06T08:59:11Z</time>
      </trkpt>
      <trkpt lat="50.66494" lon="2.36305">
        <ele>35</ele>
        <time>2016-05-06T08:59:13Z</time>
      </trkpt>
      <trkpt lat="50.66498" lon="2.36282">
        <ele>35.1</ele>
        <time>2016-05-06T08:59:15Z</time>
      </trkpt>
      <trkpt lat="50.66503" lon="2.3626">
        <ele>35.1</ele>
        <time>2016-05-06T08:59:17Z</time>
      </trkpt>
      <trkpt lat="50.66507" lon="2.36239">
        <ele>35.1</ele>
        <time>2016-05-06T08:59:19Z</time>
      </trkpt>
      <trkpt lat="50.66512" lon="2.36217">
        <ele>35.2</ele>
        <time>2016-05-06T08:59:21Z</time>
      </trkpt>
      <trkpt lat="50.66516" lon="2.36196">
        <ele>35.2</ele>
        <time>2016-05-06T08:59:23Z</time>
      </trkpt>
      <trkpt lat="50.66521" lon="2.36175">
        <ele>35.2</ele>
        <time>2016-05-06T08:59:25Z</time>
      </trkpt>
      <trkpt lat="50.66526" lon="2.36154">
        <ele>35.2</ele>
        <time>2016-05-06T08:59:27Z</time>
      </trkpt>
      <trkpt lat="50.6653" lon="2.36132">
        <ele>35.2</ele>
        <time>2016-05-06T08:59:29Z</time>
      </trkpt>
      <trkpt lat="50.66533" lon="2.36111">
        <ele>35.3</ele>
        <time>2016-05-06T08:59:31Z</time>
      </trkpt>
      <trkpt lat="50.66536" lon="2.36089">
        <ele>35.3</ele>
        <time>2016-05-06T08:59:33Z</time>
      </trkpt>
      <trkpt lat="50.66538" lon="2.36067">
        <ele>35.3</ele>
        <time>2016-05-06T08:59:35Z</time>
      </trkpt>
      <trkpt lat="50.66539" lon="2.36044">
        <ele>35.3</ele>
        <time>2016-05-06T08:59:37Z</time>
      </trkpt>
      <trkpt lat="50.66541" lon="2.36022">
        <ele>35.3</ele>
        <time>2016-05-06T08:59:39Z</time>
      </trkpt>
      <trkpt lat="50.66543" lon="2.36">
        <ele>35.3</ele>
        <time>2016-05-06T08:59:41Z</time>
      </trkpt>
      <trkpt lat="50.66544" lon="2.35978">
        <ele>35.4</ele>
        <time>2016-05-06T08:59:43Z</time>
      </trkpt>
      <trkpt lat="50.66545" lon="2.35956">
        <ele>35.4</ele>
        <time>2016-05-06T08:59:45Z</time>
      </trkpt>
      <trkpt lat="50.66546" lon="2.35934">
        <ele>35.4</ele>
        <time>2016-05-06T08:59:47Z</time>
      </trkpt>
      <trkpt lat="50.66547" lon="2.35912">
        <ele>35.4</ele>
        <time>2016-05-06T08:59:49Z</time>
      </trkpt>
      <trkpt lat="50.66547" lon="2.3589">
        <ele>35.4</ele>
        <time>2016-05-06T08:59:51Z</time>
      </trkpt>
      <trkpt lat="50.66547" lon="2.35869">
        <ele>35.4</ele>
        <time>2016-05-06T08:59:53Z</time>
      </trkpt>
      <trkpt lat="50.66548" lon="2.35847">
        <ele>35.5</ele>
        <time>2016-05-06T08:59:55Z</time>
      </trkpt>
      <trkpt lat="50.66548" lon="2.35826">
        <ele>35.5</ele>
        <time>2016-05-06T08:59:57Z</time>
      </trkpt>
      <trkpt lat="50.66548" lon="2.35804">
        <ele>35.5</ele>
        <time>2016-05-06T08:59:59Z</time>
      </trkpt>
      <trkpt lat="50.66549" lon="2.35783">
        <ele>35.5</ele>
        <time>2016-05-06T09:00:01Z</time>
      </trkpt>
      <trkpt lat="50.66549" lon="2.35761">
        <ele>35.5</ele>
        <time>2016-05-06T09:00:03Z</time>
      </trkpt>
      <trkpt lat="50.6655" lon="2.35739">
        <ele>35.5</ele>
        <time>2016-05-06T09:00:05Z</time>
      </trkpt>
      <trkpt lat="50.66551" lon="2.35716">
        <ele>35.5</ele>
        <time>2016-05-06T09:00:07Z</time>
      </trkpt>
      <trkpt lat="50.66552" lon="2.35693">
        <ele>35.5</ele>
        <time>2016-05-06T09:00:09Z</time>
      </trkpt>
      <trkpt lat="50.66554" lon="2.3567">
        <ele>35.5</ele>
        <time>2016-05-06T09:00:11Z</time>
      </trkpt>
      <trkpt lat="50.66557" lon="2.35648">
        <ele>35.6</ele>
        <time>2016-05-06T09:00:13Z</time>
      </trkpt>
      <trkpt lat="50.66559" lon="2.35626">
        <ele>35.6</ele>
        <time>2016-05-06T09:00:15Z</time>
      </trkpt>
      <trkpt lat="50.66561" lon="2.35604">
        <ele>35.6</ele>
        <time>2016-05-06T09:00:17Z</time>
      </trkpt>
      <trkpt lat="50.66564" lon="2.35582">
        <ele>35.6</ele>
        <time>2016-05-06T09:00:19Z</time>
      </trkpt>
      <trkpt lat="50.66566" lon="2.35561">
        <ele>35.7</ele>
        <time>2016-05-06T09:00:21Z</time>
      </trkpt>
      <trkpt lat="50.66569" lon="2.35539">
        <ele>35.7</ele>
        <time>2016-05-06T09:00:23Z</time>
      </trkpt>
      <trkpt lat="50.66572" lon="2.35518">
        <ele>35.7</ele>
        <time>2016-05-06T09:00:25Z</time>
      </trkpt>
      <trkpt lat="50.66575" lon="2.35496">
        <ele>35.8</ele>
        <time>2016-05-06T09:00:27Z</time>
      </trkpt>
      <trkpt lat="50.66577" lon="2.35473">
        <ele>35.8</ele>
        <time>2016-05-06T09:00:29Z</time>
      </trkpt>
      <trkpt lat="50.66579" lon="2.3545">
        <ele>35.8</ele>
        <time>2016-05-06T09:00:31Z</time>
      </trkpt>
      <trkpt lat="50.66582" lon="2.35426">
        <ele>35.9</ele>
        <time>2016-05-06T09:00:33Z</time>
      </trkpt>
      <trkpt lat="50.66584" lon="2.35402">
        <ele>36</ele>
        <time>2016-05-06T09:00:35Z</time>
      </trkpt>
      <trkpt lat="50.66587" lon="2.35379">
        <ele>36.1</ele>
        <time>2016-05-06T09:00:37Z</time>
      </trkpt>
      <trkpt lat="50.6659" lon="2.35357">
        <ele>36.3</ele>
        <time>2016-05-06T09:00:39Z</time>
      </trkpt>
      <trkpt lat="50.66592" lon="2.35335">
        <ele>36.5</ele>
        <time>2016-05-06T09:00:41Z</time>
      </trkpt>
      <trkpt lat="50.66596" lon="2.35313">
        <ele>36.6</ele>
        <time>2016-05-06T09:00:43Z</time>
      </trkpt>
      <trkpt lat="50.66599" lon="2.35291">
        <ele>36.8</ele>
        <time>2016-05-06T09:00:45Z</time>
      </trkpt>
      <trkpt lat="50.66604" lon="2.35271">
        <ele>36.9</ele>
        <time>2016-05-06T09:00:47Z</time>
      </trkpt>
      <trkpt lat="50.6661" lon="2.35251">
        <ele>37.1</ele>
        <time>2016-05-06T09:00:49Z</time>
      </trkpt>
      <trkpt lat="50.66615" lon="2.35232">
        <ele>37.2</ele>
        <time>2016-05-06T09:00:51Z</time>
      </trkpt>
      <trkpt lat="50.66621" lon="2.35213">
        <ele>37.3</ele>
        <time>2016-05-06T09:00:53Z</time>
      </trkpt>
      <trkpt lat="50.66626" lon="2.35194">
        <ele>37.4</ele>
        <time>2016-05-06T09:00:55Z</time>
      </trkpt>
      <trkpt lat="50.66631" lon="2.35176">
        <ele>37.5</ele>
        <time>2016-05-06T09:00:57Z</time>
      </trkpt>
      <trkpt lat="50.66635" lon="2.35157">
        <ele>37.6</ele>
        <time>2016-05-06T09:00:59Z</time>
      </trkpt>
      <trkpt lat="50.66639" lon="2.35139">
        <ele>37.7</ele>
        <time>2016-05-06T09:01:01Z</time>
      </trkpt>
      <trkpt lat="50.66642" lon="2.3512">
        <ele>37.8</ele>
        <time>2016-05-06T09:01:03Z</time>
      </trkpt>
      <trkpt lat="50.66644" lon="2.35102">
        <ele>37.9</ele>
        <time>2016-05-06T09:01:05Z</time>
      </trkpt>
      <trkpt lat="50.66645" lon="2.35083">
        <ele>38.1</ele>
        <time>2016-05-06T09:01:07Z</time>
      </trkpt>
      <trkpt lat="50.66647" lon="2.35064">
        <ele>38.2</ele>
        <time>2016-05-06T09:01:09Z</time>
      </trkpt>
      <trkpt lat="50.66648" lon="2.35044">
        <ele>38.4</ele>
        <time>2016-05-06T09:01:11Z</time>
      </trkpt>
      <trkpt lat="50.66649" lon="2.35024">
        <ele>38.5</ele>
        <time>2016-05-06T09:01:13Z</time>
      </trkpt>
      <trkpt lat="50.6665" lon="2.35004">
        <ele>38.6</ele>
        <time>2016-05-06T09:01:15Z</time>
      </trkpt>
      <trkpt lat="50.66651" lon="2.34984">
        <ele>38.9</ele>
        <time>2016-05-06T09:01:17Z</time>
      </trkpt>
      <trkpt lat="50.66653" lon="2.34964">
        <ele>39.1</ele>
        <time>2016-05-06T09:01:19Z</time>
      </trkpt>
      <trkpt lat="50.66657" lon="2.34946">
        <ele>39.3</ele>
        <time>2016-05-06T09:01:21Z</time>
      </trkpt>
      <trkpt lat="50.66663" lon="2.34928">
        <ele>39.5</ele>
        <time>2016-05-06T09:01:23Z</time>
      </trkpt>
      <trkpt lat="50.66672" lon="2.34911">
        <ele>39.7</ele>
        <time>2016-05-06T09:01:25Z</time>
      </trkpt>
      <trkpt lat="50.66684" lon="2.34897">
        <ele>39.9</ele>
        <time>2016-05-06T09:01:27Z</time>
      </trkpt>
      <trkpt lat="50.66696" lon="2.34885">
        <ele>40</ele>
        <time>2016-05-06T09:01:29Z</time>
      </trkpt>
      <trkpt lat="50.66707" lon="2.34873">
        <ele>40.1</ele>
        <time>2016-05-06T09:01:31Z</time>
      </trkpt>
      <trkpt lat="50.66717" lon="2.34858">
        <ele>40.2</ele>
        <time>2016-05-06T09:01:33Z</time>
      </trkpt>
      <trkpt lat="50.66726" lon="2.34841">
        <ele>40.3</ele>
        <time>2016-05-06T09:01:35Z</time>
      </trkpt>
      <trkpt lat="50.66734" lon="2.34824">
        <ele>40.4</ele>
        <time>2016-05-06T09:01:37Z</time>
      </trkpt>
      <trkpt lat="50.66742" lon="2.34808">
        <ele>40.5</ele>
        <time>2016-05-06T09:01:39Z</time>
      </trkpt>
      <trkpt lat="50.6675" lon="2.34791">
        <ele>40.6</ele>
        <time>2016-05-06T09:01:41Z</time>
      </trkpt>
      <trkpt lat="50.66758" lon="2.34776">
        <ele>40.7</ele>
        <time>2016-05-06T09:01:43Z</time>
      </trkpt>
      <trkpt lat="50.66767" lon="2.34761">
        <ele>40.9</ele>
        <time>2016-05-06T09:01:45Z</time>
      </trkpt>
      <trkpt lat="50.66776" lon="2.34748">
        <ele>41.1</ele>
        <time>2016-05-06T09:01:47Z</time>
      </trkpt>
      <trkpt lat="50.66784" lon="2.34736">
        <ele>41.3</ele>
        <time>2016-05-06T09:01:49Z</time>
      </trkpt>
      <trkpt lat="50.66794" lon="2.34725">
        <ele>41.5</ele>
        <time>2016-05-06T09:01:51Z</time>
      </trkpt>
      <trkpt lat="50.66803" lon="2.34713">
        <ele>41.8</ele>
        <time>2016-05-06T09:01:53Z</time>
      </trkpt>
      <trkpt lat="50.66812" lon="2.34701">
        <ele>42.1</ele>
        <time>2016-05-06T09:01:55Z</time>
      </trkpt>
      <trkpt lat="50.66821" lon="2.34689">
        <ele>42.4</ele>
        <time>2016-05-06T09:01:57Z</time>
      </trkpt>
      <trkpt lat="50.6683" lon="2.34676">
        <ele>42.6</ele>
        <time>2016-05-06T09:01:59Z</time>
      </trkpt>
      <trkpt lat="50.66839" lon="2.34664">
        <ele>42.9</ele>
        <time>2016-05-06T09:02:01Z</time>
      </trkpt>
      <trkpt lat="50.66849" lon="2.34652">
        <ele>43.2</ele>
        <time>2016-05-06T09:02:03Z</time>
      </trkpt>
      <trkpt lat="50.66859" lon="2.34639">
        <ele>43.5</ele>
        <time>2016-05-06T09:02:05Z</time>
      </trkpt>
      <trkpt lat="50.66868" lon="2.34626">
        <ele>43.8</ele>
        <time>2016-05-06T09:02:07Z</time>
      </trkpt>
      <trkpt lat="50.66878" lon="2.34613">
        <ele>44</ele>
        <time>2016-05-06T09:02:09Z</time>
      </trkpt>
      <trkpt lat="50.66888" lon="2.346">
        <ele>44.2</ele>
        <time>2016-05-06T09:02:11Z</time>
      </trkpt>
      <trkpt lat="50.66898" lon="2.34586">
        <ele>44.5</ele>
        <time>2016-05-06T09:02:13Z</time>
      </trkpt>
      <trkpt lat="50.66907" lon="2.34571">
        <ele>44.8</ele>
        <time>2016-05-06T09:02:15Z</time>
      </trkpt>
      <trkpt lat="50.66917" lon="2.34556">
        <ele>45.1</ele>
        <time>2016-05-06T09:02:17Z</time>
      </trkpt>
      <trkpt lat="50.66927" lon="2.34541">
        <ele>45.3</ele>
        <time>2016-05-06T09:02:19Z</time>
      </trkpt>
      <trkpt lat="50.66937" lon="2.34526">
        <ele>45.5</ele>
        <time>2016-05-06T09:02:21Z</time>
      </trkpt>
      <trkpt lat="50.66947" lon="2.3451">
        <ele>45.7</ele>
        <time>2016-05-06T09:02:23Z</time>
      </trkpt>
      <trkpt lat="50.66957" lon="2.34495">
        <ele>45.8</ele>
        <time>2016-05-06T09:02:25Z</time>
      </trkpt>
      <trkpt lat="50.66966" lon="2.3448">
        <ele>46</ele>
        <time>2016-05-06T09:02:27Z</time>
      </trkpt>
      <trkpt lat="50.66975" lon="2.34466">
        <ele>46.1</ele>
        <time>2016-05-06T09:02:29Z</time>
      </trkpt>
      <trkpt lat="50.66984" lon="2.34453">
        <ele>46.2</ele>
        <time>2016-05-06T09:02:31Z</time>
      </trkpt>
      <trkpt lat="50.66993" lon="2.3444">
        <ele>46.3</ele>
        <time>2016-05-06T09:02:33Z</time>
      </trkpt>
      <trkpt lat="50.67002" lon="2.34429">
        <ele>46.4</ele>
        <time>2016-05-06T09:02:35Z</time>
      </trkpt>
      <trkpt lat="50.67012" lon="2.3442">
        <ele>46.5</ele>
        <time>2016-05-06T09:02:37Z</time>
      </trkpt>
      <trkpt lat="50.67024" lon="2.34413">
        <ele>46.5</ele>
        <time>2016-05-06T09:02:39Z</time>
      </trkpt>
      <trkpt lat="50.67035" lon="2.34405">
        <ele>46.6</ele>
        <time>2016-05-06T09:02:41Z</time>
      </trkpt>
      <trkpt lat="50.67046" lon="2.34395">
        <ele>46.6</ele>
        <time>2016-05-06T09:02:43Z</time>
      </trkpt>
      <trkpt lat="50.67057" lon="2.34383">
        <ele>46.7</ele>
        <time>2016-05-06T09:02:45Z</time>
      </trkpt>
      <trkpt lat="50.67068" lon="2.34371">
        <ele>46.7</ele>
        <time>2016-05-06T09:02:47Z</time>
      </trkpt>
      <trkpt lat="50.67079" lon="2.34358">
        <ele>46.7</ele>
        <time>2016-05-06T09:02:49Z</time>
      </trkpt>
      <trkpt lat="50.67089" lon="2.34347">
        <ele>46.8</ele>
        <time>2016-05-06T09:02:51Z</time>
      </trkpt>
      <trkpt lat="50.671" lon="2.34338">
        <ele>46.8</ele>
        <time>2016-05-06T09:02:53Z</time>
      </trkpt>
      <trkpt lat="50.67113" lon="2.34332">
        <ele>46.8</ele>
        <time>2016-05-06T09:02:55Z</time>
      </trkpt>
      <trkpt lat="50.67126" lon="2.3433">
        <ele>46.8</ele>
        <time>2016-05-06T09:02:57Z</time>
      </trkpt>
      <trkpt lat="50.67139" lon="2.3433">
        <ele>46.9</ele>
        <time>2016-05-06T09:02:59Z</time>
      </trkpt>
      <trkpt lat="50.67154" lon="2.34326">
        <ele>46.9</ele>
        <time>2016-05-06T09:03:01Z</time>
      </trkpt>
      <trkpt lat="50.67169" lon="2.34319">
        <ele>46.9</ele>
        <time>2016-05-06T09:03:03Z</time>
      </trkpt>
      <trkpt lat="50.67185" lon="2.34311">
        <ele>46.9</ele>
        <time>2016-05-06T09:03:05Z</time>
      </trkpt>
      <trkpt lat="50.67201" lon="2.34303">
        <ele>46.9</ele>
        <time>2016-05-06T09:03:07Z</time>
      </trkpt>
      <trkpt lat="50.67217" lon="2.34294">
        <ele>46.9</ele>
        <time>2016-05-06T09:03:09Z</time>
      </trkpt>
      <trkpt lat="50.67233" lon="2.34284">
        <ele>46.7</ele>
        <time>2016-05-06T09:03:11Z</time>
      </trkpt>
      <trkpt lat="50.67249" lon="2.34273">
        <ele>46.6</ele>
        <time>2016-05-06T09:03:13Z</time>
      </trkpt>
      <trkpt lat="50.67265" lon="2.34262">
        <ele>46.4</ele>
        <time>2016-05-06T09:03:15Z</time>
      </trkpt>
      <trkpt lat="50.67281" lon="2.34251">
        <ele>46.3</ele>
        <time>2016-05-06T09:03:17Z</time>
      </trkpt>
      <trkpt lat="50.67296" lon="2.34241">
        <ele>46.1</ele>
        <time>2016-05-06T09:03:19Z</time>
      </trkpt>
      <trkpt lat="50.67312" lon="2.3423">
        <ele>45.9</ele>
        <time>2016-05-06T09:03:21Z</time>
      </trkpt>
      <trkpt lat="50.67327" lon="2.34219">
        <ele>45.7</ele>
        <time>2016-05-06T09:03:23Z</time>
      </trkpt>
      <trkpt lat="50.67343" lon="2.34208">
        <ele>45.5</ele>
        <time>2016-05-06T09:03:25Z</time>
      </trkpt>
      <trkpt lat="50.67359" lon="2.34197">
        <ele>45.3</ele>
        <time>2016-05-06T09:03:27Z</time>
      </trkpt>
      <trkpt lat="50.67375" lon="2.34185">
        <ele>45.1</ele>
        <time>2016-05-06T09:03:29Z</time>
      </trkpt>
      <trkpt lat="50.67392" lon="2.34174">
        <ele>44.9</ele>
        <time>2016-05-06T09:03:31Z</time>
      </trkpt>
      <trkpt lat="50.67408" lon="2.34162">
        <ele>44.7</ele>
        <time>2016-05-06T09:03:33Z</time>
      </trkpt>
      <trkpt lat="50.67417" lon="2.34156">
        <ele>44.6</ele>
        <time>2016-05-06T09:03:34Z</time>
      </trkpt>
      <trkpt lat="50.67425" lon="2.3415">
        <ele>44.5</ele>
        <time>2016-05-06T09:03:35Z</time>
      </trkpt>
      <trkpt lat="50.67434" lon="2.34144">
        <ele>44.4</ele>
        <time>2016-05-06T09:03:36Z</time>
      </trkpt>
      <trkpt lat="50.67442" lon="2.34138">
        <ele>44.3</ele>
        <time>2016-05-06T09:03:37Z</time>
      </trkpt>
      <trkpt lat="50.67451" lon="2.34131">
        <ele>44.2</ele>
        <time>2016-05-06T09:03:38Z</time>
      </trkpt>
      <trkpt lat="50.67459" lon="2.34125">
        <ele>44.1</ele>
        <time>2016-05-06T09:03:39Z</time>
      </trkpt>
      <trkpt lat="50.67468" lon="2.34119">
        <ele>43.9</ele>
        <time>2016-05-06T09:03:40Z</time>
      </trkpt>
      <trkpt lat="50.67476" lon="2.34113">
        <ele>43.7</ele>
        <time>2016-05-06T09:03:41Z</time>
      </trkpt>
      <trkpt lat="50.67485" lon="2.34106">
        <ele>43.6</ele>
        <time>2016-05-06T09:03:42Z</time>
      </trkpt>
      <trkpt lat="50.67501" lon="2.34094">
        <ele>43.3</ele>
        <time>2016-05-06T09:03:44Z</time>
      </trkpt>
      <trkpt lat="50.67517" lon="2.34083">
        <ele>42.2</ele>
        <time>2016-05-06T09:03:46Z</time>
      </trkpt>
      <trkpt lat="50.67533" lon="2.34074">
        <ele>42.1</ele>
        <time>2016-05-06T09:03:48Z</time>
      </trkpt>
      <trkpt lat="50.67549" lon="2.34062">
        <ele>42</ele>
        <time>2016-05-06T09:03:50Z</time>
      </trkpt>
      <trkpt lat="50.67565" lon="2.34051">
        <ele>41.9</ele>
        <time>2016-05-06T09:03:52Z</time>
      </trkpt>
      <trkpt lat="50.67581" lon="2.34041">
        <ele>41.6</ele>
        <time>2016-05-06T09:03:54Z</time>
      </trkpt>
      <trkpt lat="50.67596" lon="2.34032">
        <ele>41.3</ele>
        <time>2016-05-06T09:03:56Z</time>
      </trkpt>
      <trkpt lat="50.6761" lon="2.34021">
        <ele>41</ele>
        <time>2016-05-06T09:03:58Z</time>
      </trkpt>
      <trkpt lat="50.67613" lon="2.34001">
        <ele>40.8</ele>
        <time>2016-05-06T09:04:00Z</time>
      </trkpt>
      <trkpt lat="50.67607" lon="2.33982">
        <ele>40.6</ele>
        <time>2016-05-06T09:04:02Z</time>
      </trkpt>
      <trkpt lat="50.67599" lon="2.33964">
        <ele>40.4</ele>
        <time>2016-05-06T09:04:04Z</time>
      </trkpt>
      <trkpt lat="50.67591" lon="2.33945">
        <ele>40.3</ele>
        <time>2016-05-06T09:04:06Z</time>
      </trkpt>
      <trkpt lat="50.67583" lon="2.33926">
        <ele>40.1</ele>
        <time>2016-05-06T09:04:08Z</time>
      </trkpt>
      <trkpt lat="50.67575" lon="2.33906">
        <ele>40</ele>
        <time>2016-05-06T09:04:10Z</time>
      </trkpt>
      <trkpt lat="50.67567" lon="2.33887">
        <ele>39.9</ele>
        <time>2016-05-06T09:04:12Z</time>
      </trkpt>
      <trkpt lat="50.67559" lon="2.33868">
        <ele>39.8</ele>
        <time>2016-05-06T09:04:14Z</time>
      </trkpt>
      <trkpt lat="50.67551" lon="2.3385">
        <ele>39.7</ele>
        <time>2016-05-06T09:04:16Z</time>
      </trkpt>
      <trkpt lat="50.67544" lon="2.33831">
        <ele>39.6</ele>
        <time>2016-05-06T09:04:18Z</time>
      </trkpt>
      <trkpt lat="50.67545" lon="2.33812">
        <ele>39.5</ele>
        <time>2016-05-06T09:04:20Z</time>
      </trkpt>
      <trkpt lat="50.67553" lon="2.33796">
        <ele>39.5</ele>
        <time>2016-05-06T09:04:22Z</time>
      </trkpt>
      <trkpt lat="50.67565" lon="2.33782">
        <ele>39.4</ele>
        <time>2016-05-06T09:04:24Z</time>
      </trkpt>
      <trkpt lat="50.67578" lon="2.33768">
        <ele>39.3</ele>
        <time>2016-05-06T09:04:26Z</time>
      </trkpt>
      <trkpt lat="50.67591" lon="2.33754">
        <ele>39.2</ele>
        <time>2016-05-06T09:04:28Z</time>
      </trkpt>
      <trkpt lat="50.67605" lon="2.33741">
        <ele>39</ele>
        <time>2016-05-06T09:04:30Z</time>
      </trkpt>
      <trkpt lat="50.67618" lon="2.33727">
        <ele>38.8</ele>
        <time>2016-05-06T09:04:32Z</time>
      </trkpt>
      <trkpt lat="50.67631" lon="2.33711">
        <ele>38.6</ele>
        <time>2016-05-06T09:04:34Z</time>
      </trkpt>
      <trkpt lat="50.67641" lon="2.33691">
        <ele>38.5</ele>
        <time>2016-05-06T09:04:36Z</time>
      </trkpt>
      <trkpt lat="50.67648" lon="2.33668">
        <ele>38.3</ele>
        <time>2016-05-06T09:04:38Z</time>
      </trkpt>
      <trkpt lat="50.67654" lon="2.33643">
        <ele>38.2</ele>
        <time>2016-05-06T09:04:40Z</time>
      </trkpt>
      <trkpt lat="50.67659" lon="2.33618">
        <ele>38.1</ele>
        <time>2016-05-06T09:04:42Z</time>
      </trkpt>
      <trkpt lat="50.67664" lon="2.33592">
        <ele>38</ele>
        <time>2016-05-06T09:04:44Z</time>
      </trkpt>
      <trkpt lat="50.67668" lon="2.33565">
        <ele>37.9</ele>
        <time>2016-05-06T09:04:46Z</time>
      </trkpt>
      <trkpt lat="50.67671" lon="2.33538">
        <ele>37.9</ele>
        <time>2016-05-06T09:04:48Z</time>
      </trkpt>
      <trkpt lat="50.67672" lon="2.33511">
        <ele>37.8</ele>
        <time>2016-05-06T09:04:50Z</time>
      </trkpt>
      <trkpt lat="50.67673" lon="2.33485">
        <ele>37.8</ele>
        <time>2016-05-06T09:04:52Z</time>
      </trkpt>
      <trkpt lat="50.67674" lon="2.33459">
        <ele>37.7</ele>
        <time>2016-05-06T09:04:54Z</time>
      </trkpt>
      <trkpt lat="50.67675" lon="2.33434">
        <ele>37.7</ele>
        <time>2016-05-06T09:04:56Z</time>
      </trkpt>
      <trkpt lat="50.67678" lon="2.3341">
        <ele>37.6</ele>
        <time>2016-05-06T09:04:58Z</time>
      </trkpt>
      <trkpt lat="50.67685" lon="2.33389">
        <ele>37.6</ele>
        <time>2016-05-06T09:05:00Z</time>
      </trkpt>
      <trkpt lat="50.67696" lon="2.33372">
        <ele>37.6</ele>
        <time>2016-05-06T09:05:02Z</time>
      </trkpt>
      <trkpt lat="50.6771" lon="2.33359">
        <ele>37.5</ele>
        <time>2016-05-06T09:05:04Z</time>
      </trkpt>
      <trkpt lat="50.67724" lon="2.33348">
        <ele>37.4</ele>
        <time>2016-05-06T09:05:06Z</time>
      </trkpt>
      <trkpt lat="50.67738" lon="2.33338">
        <ele>37.3</ele>
        <time>2016-05-06T09:05:08Z</time>
      </trkpt>
      <trkpt lat="50.67752" lon="2.33328">
        <ele>37.1</ele>
        <time>2016-05-06T09:05:10Z</time>
      </trkpt>
      <trkpt lat="50.67767" lon="2.33319">
        <ele>37</ele>
        <time>2016-05-06T09:05:12Z</time>
      </trkpt>
      <trkpt lat="50.6778" lon="2.3331">
        <ele>36.9</ele>
        <time>2016-05-06T09:05:14Z</time>
      </trkpt>
      <trkpt lat="50.67794" lon="2.333">
        <ele>36.8</ele>
        <time>2016-05-06T09:05:16Z</time>
      </trkpt>
      <trkpt lat="50.67807" lon="2.33289">
        <ele>36.7</ele>
        <time>2016-05-06T09:05:18Z</time>
      </trkpt>
      <trkpt lat="50.6782" lon="2.33279">
        <ele>36.7</ele>
        <time>2016-05-06T09:05:20Z</time>
      </trkpt>
      <trkpt lat="50.67832" lon="2.3327">
        <ele>36.6</ele>
        <time>2016-05-06T09:05:22Z</time>
      </trkpt>
      <trkpt lat="50.67844" lon="2.33261">
        <ele>36.5</ele>
        <time>2016-05-06T09:05:24Z</time>
      </trkpt>
      <trkpt lat="50.67857" lon="2.33252">
        <ele>36.5</ele>
        <time>2016-05-06T09:05:26Z</time>
      </trkpt>
      <trkpt lat="50.67869" lon="2.33243">
        <ele>36.6</ele>
        <time>2016-05-06T09:05:28Z</time>
      </trkpt>
      <trkpt lat="50.6788" lon="2.33235">
        <ele>36.7</ele>
        <time>2016-05-06T09:05:30Z</time>
      </trkpt>
      <trkpt lat="50.67891" lon="2.33227">
        <ele>36.7</ele>
        <time>2016-05-06T09:05:32Z</time>
      </trkpt>
      <trkpt lat="50.67903" lon="2.3322">
        <ele>36.8</ele>
        <time>2016-05-06T09:05:34Z</time>
      </trkpt>
      <trkpt lat="50.67915" lon="2.33214">
        <ele>36.8</ele>
        <time>2016-05-06T09:05:36Z</time>
      </trkpt>
      <trkpt lat="50.67927" lon="2.33212">
        <ele>36.9</ele>
        <time>2016-05-06T09:05:38Z</time>
      </trkpt>
      <trkpt lat="50.67939" lon="2.33212">
        <ele>37.1</ele>
        <time>2016-05-06T09:05:40Z</time>
      </trkpt>
      <trkpt lat="50.67949" lon="2.33215">
        <ele>37.1</ele>
        <time>2016-05-06T09:05:42Z</time>
      </trkpt>
      <trkpt lat="50.6796" lon="2.33217">
        <ele>37.9</ele>
        <time>2016-05-06T09:05:45Z</time>
      </trkpt>
      <trkpt lat="50.6797" lon="2.33219">
        <ele>38.3</ele>
        <time>2016-05-06T09:05:48Z</time>
      </trkpt>
      <trkpt lat="50.67971" lon="2.332">
        <ele>38.5</ele>
        <time>2016-05-06T09:05:51Z</time>
      </trkpt>
      <trkpt lat="50.67968" lon="2.33183">
        <ele>38.6</ele>
        <time>2016-05-06T09:05:53Z</time>
      </trkpt>
      <trkpt lat="50.67965" lon="2.33162">
        <ele>38.7</ele>
        <time>2016-05-06T09:05:55Z</time>
      </trkpt>
      <trkpt lat="50.67962" lon="2.33144">
        <ele>38.8</ele>
        <time>2016-05-06T09:05:57Z</time>
      </trkpt>
      <trkpt lat="50.67959" lon="2.33125">
        <ele>38.9</ele>
        <time>2016-05-06T09:05:59Z</time>
      </trkpt>
      <trkpt lat="50.67957" lon="2.33105">
        <ele>38.9</ele>
        <time>2016-05-06T09:06:01Z</time>
      </trkpt>
      <trkpt lat="50.67954" lon="2.33086">
        <ele>39</ele>
        <time>2016-05-06T09:06:03Z</time>
      </trkpt>
      <trkpt lat="50.67951" lon="2.33068">
        <ele>39</ele>
        <time>2016-05-06T09:06:05Z</time>
      </trkpt>
      <trkpt lat="50.67948" lon="2.3305">
        <ele>39.1</ele>
        <time>2016-05-06T09:06:07Z</time>
      </trkpt>
      <trkpt lat="50.67945" lon="2.33031">
        <ele>39.1</ele>
        <time>2016-05-06T09:06:09Z</time>
      </trkpt>
      <trkpt lat="50.67942" lon="2.33012">
        <ele>39.1</ele>
        <time>2016-05-06T09:06:11Z</time>
      </trkpt>
      <trkpt lat="50.67939" lon="2.32992">
        <ele>39.2</ele>
        <time>2016-05-06T09:06:13Z</time>
      </trkpt>
      <trkpt lat="50.67935" lon="2.32972">
        <ele>39.2</ele>
        <time>2016-05-06T09:06:15Z</time>
      </trkpt>
      <trkpt lat="50.67932" lon="2.32951">
        <ele>39.3</ele>
        <time>2016-05-06T09:06:17Z</time>
      </trkpt>
      <trkpt lat="50.67929" lon="2.32931">
        <ele>39.4</ele>
        <time>2016-05-06T09:06:19Z</time>
      </trkpt>
      <trkpt lat="50.67926" lon="2.32912">
        <ele>39.6</ele>
        <time>2016-05-06T09:06:21Z</time>
      </trkpt>
      <trkpt lat="50.67924" lon="2.32893">
        <ele>39.7</ele>
        <time>2016-05-06T09:06:23Z</time>
      </trkpt>
      <trkpt lat="50.67921" lon="2.32874">
        <ele>39.8</ele>
        <time>2016-05-06T09:06:25Z</time>
      </trkpt>
      <trkpt lat="50.67919" lon="2.32856">
        <ele>39.9</ele>
        <time>2016-05-06T09:06:27Z</time>
      </trkpt>
      <trkpt lat="50.67916" lon="2.32837">
        <ele>40.1</ele>
        <time>2016-05-06T09:06:29Z</time>
      </trkpt>
      <trkpt lat="50.67914" lon="2.32818">
        <ele>40.2</ele>
        <time>2016-05-06T09:06:31Z</time>
      </trkpt>
      <trkpt lat="50.67912" lon="2.32799">
        <ele>40.3</ele>
        <time>2016-05-06T09:06:33Z</time>
      </trkpt>
      <trkpt lat="50.6791" lon="2.3278">
        <ele>40.4</ele>
        <time>2016-05-06T09:06:35Z</time>
      </trkpt>
      <trkpt lat="50.67909" lon="2.3276">
        <ele>40.5</ele>
        <time>2016-05-06T09:06:37Z</time>
      </trkpt>
      <trkpt lat="50.67908" lon="2.3274">
        <ele>40.7</ele>
        <time>2016-05-06T09:06:39Z</time>
      </trkpt>
      <trkpt lat="50.67908" lon="2.3272">
        <ele>40.9</ele>
        <time>2016-05-06T09:06:41Z</time>
      </trkpt>
      <trkpt lat="50.67907" lon="2.327">
        <ele>41.1</ele>
        <time>2016-05-06T09:06:43Z</time>
      </trkpt>
      <trkpt lat="50.67907" lon="2.32681">
        <ele>41.3</ele>
        <time>2016-05-06T09:06:45Z</time>
      </trkpt>
      <trkpt lat="50.67906" lon="2.3266">
        <ele>41.5</ele>
        <time>2016-05-06T09:06:47Z</time>
      </trkpt>
      <trkpt lat="50.67906" lon="2.3264">
        <ele>41.7</ele>
        <time>2016-05-06T09:06:49Z</time>
      </trkpt>
      <trkpt lat="50.67906" lon="2.3262">
        <ele>41.9</ele>
        <time>2016-05-06T09:06:51Z</time>
      </trkpt>
      <trkpt lat="50.67905" lon="2.32601">
        <ele>42.2</ele>
        <time>2016-05-06T09:06:53Z</time>
      </trkpt>
      <trkpt lat="50.67905" lon="2.32582">
        <ele>42.4</ele>
        <time>2016-05-06T09:06:55Z</time>
      </trkpt>
      <trkpt lat="50.67905" lon="2.32563">
        <ele>42.7</ele>
        <time>2016-05-06T09:06:57Z</time>
      </trkpt>
      <trkpt lat="50.67905" lon="2.32544">
        <ele>43</ele>
        <time>2016-05-06T09:06:59Z</time>
      </trkpt>
      <trkpt lat="50.67903" lon="2.32525">
        <ele>43.2</ele>
        <time>2016-05-06T09:07:01Z</time>
      </trkpt>
      <trkpt lat="50.67901" lon="2.32506">
        <ele>43.4</ele>
        <time>2016-05-06T09:07:03Z</time>
      </trkpt>
      <trkpt lat="50.67898" lon="2.32488">
        <ele>43.7</ele>
        <time>2016-05-06T09:07:05Z</time>
      </trkpt>
      <trkpt lat="50.67895" lon="2.32469">
        <ele>44</ele>
        <time>2016-05-06T09:07:07Z</time>
      </trkpt>
      <trkpt lat="50.67892" lon="2.3245">
        <ele>44.2</ele>
        <time>2016-05-06T09:07:09Z</time>
      </trkpt>
      <trkpt lat="50.67888" lon="2.32431">
        <ele>44.3</ele>
        <time>2016-05-06T09:07:11Z</time>
      </trkpt>
      <trkpt lat="50.67884" lon="2.32412">
        <ele>44.8</ele>
        <time>2016-05-06T09:07:13Z</time>
      </trkpt>
      <trkpt lat="50.67881" lon="2.32389">
        <ele>45.3</ele>
        <time>2016-05-06T09:07:15Z</time>
      </trkpt>
      <trkpt lat="50.67879" lon="2.32365">
        <ele>45.6</ele>
        <time>2016-05-06T09:07:17Z</time>
      </trkpt>
      <trkpt lat="50.67879" lon="2.32346">
        <ele>45.8</ele>
        <time>2016-05-06T09:07:19Z</time>
      </trkpt>
      <trkpt lat="50.6788" lon="2.32325">
        <ele>46</ele>
        <time>2016-05-06T09:07:21Z</time>
      </trkpt>
      <trkpt lat="50.67882" lon="2.32305">
        <ele>46.2</ele>
        <time>2016-05-06T09:07:23Z</time>
      </trkpt>
      <trkpt lat="50.67885" lon="2.32286">
        <ele>46.3</ele>
        <time>2016-05-06T09:07:25Z</time>
      </trkpt>
      <trkpt lat="50.6789" lon="2.32267">
        <ele>46.4</ele>
        <time>2016-05-06T09:07:27Z</time>
      </trkpt>
      <trkpt lat="50.67895" lon="2.32249">
        <ele>46.5</ele>
        <time>2016-05-06T09:07:29Z</time>
      </trkpt>
      <trkpt lat="50.67898" lon="2.32229">
        <ele>46.6</ele>
        <time>2016-05-06T09:07:31Z</time>
      </trkpt>
      <trkpt lat="50.67897" lon="2.32208">
        <ele>46.6</ele>
        <time>2016-05-06T09:07:33Z</time>
      </trkpt>
      <trkpt lat="50.67895" lon="2.32187">
        <ele>46.6</ele>
        <time>2016-05-06T09:07:35Z</time>
      </trkpt>
      <trkpt lat="50.67897" lon="2.32164">
        <ele>46.5</ele>
        <time>2016-05-06T09:07:37Z</time>
      </trkpt>
      <trkpt lat="50.67899" lon="2.3214">
        <ele>46.5</ele>
        <time>2016-05-06T09:07:39Z</time>
      </trkpt>
      <trkpt lat="50.679" lon="2.32116">
        <ele>46.4</ele>
        <time>2016-05-06T09:07:41Z</time>
      </trkpt>
      <trkpt lat="50.67901" lon="2.32091">
        <ele>46.4</ele>
        <time>2016-05-06T09:07:43Z</time>
      </trkpt>
      <trkpt lat="50.67901" lon="2.32067">
        <ele>46.4</ele>
        <time>2016-05-06T09:07:45Z</time>
      </trkpt>
      <trkpt lat="50.67901" lon="2.32043">
        <ele>46.4</ele>
        <time>2016-05-06T09:07:47Z</time>
      </trkpt>
      <trkpt lat="50.67901" lon="2.3202">
        <ele>46.3</ele>
        <time>2016-05-06T09:07:49Z</time>
      </trkpt>
      <trkpt lat="50.67901" lon="2.31997">
        <ele>46.3</ele>
        <time>2016-05-06T09:07:51Z</time>
      </trkpt>
      <trkpt lat="50.67901" lon="2.31973">
        <ele>46.3</ele>
        <time>2016-05-06T09:07:53Z</time>
      </trkpt>
      <trkpt lat="50.67901" lon="2.3195">
        <ele>46.3</ele>
        <time>2016-05-06T09:07:55Z</time>
      </trkpt>
      <trkpt lat="50.679" lon="2.31927">
        <ele>46.3</ele>
        <time>2016-05-06T09:07:57Z</time>
      </trkpt>
      <trkpt lat="50.679" lon="2.31905">
        <ele>46.2</ele>
        <time>2016-05-06T09:07:59Z</time>
      </trkpt>
      <trkpt lat="50.67899" lon="2.31883">
        <ele>46.2</ele>
        <time>2016-05-06T09:08:01Z</time>
      </trkpt>
      <trkpt lat="50.67899" lon="2.31859">
        <ele>46.2</ele>
        <time>2016-05-06T09:08:03Z</time>
      </trkpt>
      <trkpt lat="50.67898" lon="2.31836">
        <ele>46.2</ele>
        <time>2016-05-06T09:08:05Z</time>
      </trkpt>
      <trkpt lat="50.67898" lon="2.31813">
        <ele>46.2</ele>
        <time>2016-05-06T09:08:07Z</time>
      </trkpt>
      <trkpt lat="50.67897" lon="2.31792">
        <ele>46.2</ele>
        <time>2016-05-06T09:08:09Z</time>
      </trkpt>
      <trkpt lat="50.67896" lon="2.31771">
        <ele>46.2</ele>
        <time>2016-05-06T09:08:11Z</time>
      </trkpt>
      <trkpt lat="50.67894" lon="2.31751">
        <ele>46.2</ele>
        <time>2016-05-06T09:08:13Z</time>
      </trkpt>
      <trkpt lat="50.67892" lon="2.31733">
        <ele>46.2</ele>
        <time>2016-05-06T09:08:15Z</time>
      </trkpt>
      <trkpt lat="50.67889" lon="2.31715">
        <ele>46.2</ele>
        <time>2016-05-06T09:08:17Z</time>
      </trkpt>
      <trkpt lat="50.67888" lon="2.317">
        <ele>45.7</ele>
        <time>2016-05-06T09:08:19Z</time>
      </trkpt>
      <trkpt lat="50.67888" lon="2.31685">
        <ele>45.9</ele>
        <time>2016-05-06T09:08:22Z</time>
      </trkpt>
      <trkpt lat="50.67886" lon="2.31669">
        <ele>45.9</ele>
        <time>2016-05-06T09:08:27Z</time>
      </trkpt>
      <trkpt lat="50.67877" lon="2.31665">
        <ele>45.8</ele>
        <time>2016-05-06T09:08:30Z</time>
      </trkpt>
      <trkpt lat="50.67865" lon="2.31655">
        <ele>45.8</ele>
        <time>2016-05-06T09:08:33Z</time>
      </trkpt>
      <trkpt lat="50.67856" lon="2.31646">
        <ele>45.8</ele>
        <time>2016-05-06T09:08:35Z</time>
      </trkpt>
      <trkpt lat="50.67848" lon="2.31632">
        <ele>45.7</ele>
        <time>2016-05-06T09:08:37Z</time>
      </trkpt>
      <trkpt lat="50.67843" lon="2.31612">
        <ele>45.7</ele>
        <time>2016-05-06T09:08:39Z</time>
      </trkpt>
      <trkpt lat="50.67838" lon="2.31592">
        <ele>45.6</ele>
        <time>2016-05-06T09:08:41Z</time>
      </trkpt>
      <trkpt lat="50.67832" lon="2.31572">
        <ele>45.5</ele>
        <time>2016-05-06T09:08:43Z</time>
      </trkpt>
      <trkpt lat="50.67827" lon="2.3155">
        <ele>45.3</ele>
        <time>2016-05-06T09:08:45Z</time>
      </trkpt>
      <trkpt lat="50.67821" lon="2.31527">
        <ele>45.2</ele>
        <time>2016-05-06T09:08:47Z</time>
      </trkpt>
      <trkpt lat="50.67815" lon="2.31504">
        <ele>45</ele>
        <time>2016-05-06T09:08:49Z</time>
      </trkpt>
      <trkpt lat="50.67808" lon="2.31482">
        <ele>44.8</ele>
        <time>2016-05-06T09:08:51Z</time>
      </trkpt>
      <trkpt lat="50.67801" lon="2.3146">
        <ele>44.6</ele>
        <time>2016-05-06T09:08:53Z</time>
      </trkpt>
      <trkpt lat="50.67792" lon="2.31439">
        <ele>44.4</ele>
        <time>2016-05-06T09:08:55Z</time>
      </trkpt>
      <trkpt lat="50.67782" lon="2.3142">
        <ele>44.1</ele>
        <time>2016-05-06T09:08:57Z</time>
      </trkpt>
      <trkpt lat="50.67772" lon="2.31402">
        <ele>43.9</ele>
        <time>2016-05-06T09:08:59Z</time>
      </trkpt>
      <trkpt lat="50.67761" lon="2.31385">
        <ele>43.8</ele>
        <time>2016-05-06T09:09:01Z</time>
      </trkpt>
      <trkpt lat="50.6775" lon="2.31368">
        <ele>43.6</ele>
        <time>2016-05-06T09:09:03Z</time>
      </trkpt>
      <trkpt lat="50.6774" lon="2.31351">
        <ele>43.5</ele>
        <time>2016-05-06T09:09:05Z</time>
      </trkpt>
      <trkpt lat="50.6773" lon="2.31333">
        <ele>43.4</ele>
        <time>2016-05-06T09:09:07Z</time>
      </trkpt>
      <trkpt lat="50.67721" lon="2.31318">
        <ele>43.2</ele>
        <time>2016-05-06T09:09:09Z</time>
      </trkpt>
      <trkpt lat="50.67711" lon="2.31302">
        <ele>43.1</ele>
        <time>2016-05-06T09:09:11Z</time>
      </trkpt>
      <trkpt lat="50.67701" lon="2.31288">
        <ele>43</ele>
        <time>2016-05-06T09:09:13Z</time>
      </trkpt>
      <trkpt lat="50.67691" lon="2.31274">
        <ele>42.9</ele>
        <time>2016-05-06T09:09:15Z</time>
      </trkpt>
      <trkpt lat="50.67681" lon="2.31259">
        <ele>42.7</ele>
        <time>2016-05-06T09:09:17Z</time>
      </trkpt>
      <trkpt lat="50.67671" lon="2.31244">
        <ele>42.6</ele>
        <time>2016-05-06T09:09:19Z</time>
      </trkpt>
      <trkpt lat="50.67661" lon="2.31228">
        <ele>42.5</ele>
        <time>2016-05-06T09:09:21Z</time>
      </trkpt>
      <trkpt lat="50.67652" lon="2.31211">
        <ele>42.4</ele>
        <time>2016-05-06T09:09:23Z</time>
      </trkpt>
      <trkpt lat="50.67644" lon="2.31193">
        <ele>42.4</ele>
        <time>2016-05-06T09:09:25Z</time>
      </trkpt>
      <trkpt lat="50.67636" lon="2.31176">
        <ele>42.3</ele>
        <time>2016-05-06T09:09:27Z</time>
      </trkpt>
      <trkpt lat="50.67628" lon="2.3116">
        <ele>42.3</ele>
        <time>2016-05-06T09:09:29Z</time>
      </trkpt>
      <trkpt lat="50.6762" lon="2.31145">
        <ele>42.2</ele>
        <time>2016-05-06T09:09:31Z</time>
      </trkpt>
      <trkpt lat="50.67613" lon="2.31129">
        <ele>42.4</ele>
        <time>2016-05-06T09:09:33Z</time>
      </trkpt>
      <trkpt lat="50.67607" lon="2.31118">
        <ele>42.4</ele>
        <time>2016-05-06T09:09:34Z</time>
      </trkpt>
      <trkpt lat="50.67599" lon="2.31101">
        <ele>42.5</ele>
        <time>2016-05-06T09:09:36Z</time>
      </trkpt>
      <trkpt lat="50.67589" lon="2.31085">
        <ele>42.6</ele>
        <time>2016-05-06T09:09:38Z</time>
      </trkpt>
      <trkpt lat="50.6758" lon="2.31068">
        <ele>42.7</ele>
        <time>2016-05-06T09:09:40Z</time>
      </trkpt>
      <trkpt lat="50.6757" lon="2.31052">
        <ele>42.7</ele>
        <time>2016-05-06T09:09:42Z</time>
      </trkpt>
      <trkpt lat="50.67561" lon="2.31035">
        <ele>42.8</ele>
        <time>2016-05-06T09:09:44Z</time>
      </trkpt>
      <trkpt lat="50.67551" lon="2.31019">
        <ele>42.8</ele>
        <time>2016-05-06T09:09:46Z</time>
      </trkpt>
      <trkpt lat="50.67541" lon="2.31003">
        <ele>42.9</ele>
        <time>2016-05-06T09:09:48Z</time>
      </trkpt>
      <trkpt lat="50.67531" lon="2.30989">
        <ele>42.9</ele>
        <time>2016-05-06T09:09:50Z</time>
      </trkpt>
      <trkpt lat="50.67521" lon="2.30973">
        <ele>42.9</ele>
        <time>2016-05-06T09:09:52Z</time>
      </trkpt>
      <trkpt lat="50.67511" lon="2.30958">
        <ele>42.9</ele>
        <time>2016-05-06T09:09:54Z</time>
      </trkpt>
      <trkpt lat="50.675" lon="2.30942">
        <ele>42.9</ele>
        <time>2016-05-06T09:09:56Z</time>
      </trkpt>
      <trkpt lat="50.67489" lon="2.30926">
        <ele>42.9</ele>
        <time>2016-05-06T09:09:58Z</time>
      </trkpt>
      <trkpt lat="50.67479" lon="2.3091">
        <ele>42.9</ele>
        <time>2016-05-06T09:10:00Z</time>
      </trkpt>
      <trkpt lat="50.67469" lon="2.30895">
        <ele>42.8</ele>
        <time>2016-05-06T09:10:02Z</time>
      </trkpt>
      <trkpt lat="50.67459" lon="2.30879">
        <ele>42.7</ele>
        <time>2016-05-06T09:10:04Z</time>
      </trkpt>
      <trkpt lat="50.67449" lon="2.30862">
        <ele>42.6</ele>
        <time>2016-05-06T09:10:06Z</time>
      </trkpt>
      <trkpt lat="50.6744" lon="2.30844">
        <ele>42.5</ele>
        <time>2016-05-06T09:10:08Z</time>
      </trkpt>
      <trkpt lat="50.67431" lon="2.30827">
        <ele>42.4</ele>
        <time>2016-05-06T09:10:10Z</time>
      </trkpt>
      <trkpt lat="50.67423" lon="2.30808">
        <ele>42.3</ele>
        <time>2016-05-06T09:10:12Z</time>
      </trkpt>
      <trkpt lat="50.67416" lon="2.30787">
        <ele>42.2</ele>
        <time>2016-05-06T09:10:14Z</time>
      </trkpt>
      <trkpt lat="50.67411" lon="2.30767">
        <ele>42.1</ele>
        <time>2016-05-06T09:10:16Z</time>
      </trkpt>
      <trkpt lat="50.67407" lon="2.30746">
        <ele>42.1</ele>
        <time>2016-05-06T09:10:18Z</time>
      </trkpt>
      <trkpt lat="50.67402" lon="2.30726">
        <ele>42</ele>
        <time>2016-05-06T09:10:20Z</time>
      </trkpt>
      <trkpt lat="50.67398" lon="2.30706">
        <ele>42</ele>
        <time>2016-05-06T09:10:22Z</time>
      </trkpt>
      <trkpt lat="50.67394" lon="2.30686">
        <ele>41.9</ele>
        <time>2016-05-06T09:10:24Z</time>
      </trkpt>
      <trkpt lat="50.6739" lon="2.30667">
        <ele>41.9</ele>
        <time>2016-05-06T09:10:26Z</time>
      </trkpt>
      <trkpt lat="50.67386" lon="2.30647">
        <ele>41.8</ele>
        <time>2016-05-06T09:10:28Z</time>
      </trkpt>
      <trkpt lat="50.67381" lon="2.30626">
        <ele>41.8</ele>
        <time>2016-05-06T09:10:30Z</time>
      </trkpt>
      <trkpt lat="50.67375" lon="2.30605">
        <ele>41.8</ele>
        <time>2016-05-06T09:10:32Z</time>
      </trkpt>
      <trkpt lat="50.6737" lon="2.30585">
        <ele>41.7</ele>
        <time>2016-05-06T09:10:34Z</time>
      </trkpt>
      <trkpt lat="50.67364" lon="2.30563">
        <ele>41.7</ele>
        <time>2016-05-06T09:10:36Z</time>
      </trkpt>
      <trkpt lat="50.67358" lon="2.30541">
        <ele>41.7</ele>
        <time>2016-05-06T09:10:38Z</time>
      </trkpt>
      <trkpt lat="50.67353" lon="2.3052">
        <ele>41.7</ele>
        <time>2016-05-06T09:10:40Z</time>
      </trkpt>
      <trkpt lat="50.67349" lon="2.305">
        <ele>41.7</ele>
        <time>2016-05-06T09:10:42Z</time>
      </trkpt>
      <trkpt lat="50.67344" lon="2.3048">
        <ele>41.8</ele>
        <time>2016-05-06T09:10:44Z</time>
      </trkpt>
      <trkpt lat="50.67338" lon="2.3046">
        <ele>41.9</ele>
        <time>2016-05-06T09:10:46Z</time>
      </trkpt>
      <trkpt lat="50.67332" lon="2.30442">
        <ele>41.9</ele>
        <time>2016-05-06T09:10:48Z</time>
      </trkpt>
      <trkpt lat="50.67324" lon="2.30424">
        <ele>41.9</ele>
        <time>2016-05-06T09:10:50Z</time>
      </trkpt>
      <trkpt lat="50.67316" lon="2.30408">
        <ele>42</ele>
        <time>2016-05-06T09:10:52Z</time>
      </trkpt>
      <trkpt lat="50.67307" lon="2.30393">
        <ele>42.3</ele>
        <time>2016-05-06T09:10:54Z</time>
      </trkpt>
      <trkpt lat="50.67298" lon="2.30379">
        <ele>42.6</ele>
        <time>2016-05-06T09:10:56Z</time>
      </trkpt>
      <trkpt lat="50.67289" lon="2.30367">
        <ele>42.8</ele>
        <time>2016-05-06T09:10:58Z</time>
      </trkpt>
      <trkpt lat="50.67281" lon="2.30356">
        <ele>43.2</ele>
        <time>2016-05-06T09:11:00Z</time>
      </trkpt>
      <trkpt lat="50.67274" lon="2.30346">
        <ele>43.5</ele>
        <time>2016-05-06T09:11:02Z</time>
      </trkpt>
      <trkpt lat="50.67266" lon="2.30336">
        <ele>43.9</ele>
        <time>2016-05-06T09:11:04Z</time>
      </trkpt>
      <trkpt lat="50.6726" lon="2.30326">
        <ele>44.3</ele>
        <time>2016-05-06T09:11:06Z</time>
      </trkpt>
      <trkpt lat="50.67253" lon="2.30316">
        <ele>44.7</ele>
        <time>2016-05-06T09:11:08Z</time>
      </trkpt>
      <trkpt lat="50.67245" lon="2.303">
        <ele>45.4</ele>
        <time>2016-05-06T09:11:11Z</time>
      </trkpt>
      <trkpt lat="50.6724" lon="2.30288">
        <ele>46</ele>
        <time>2016-05-06T09:11:13Z</time>
      </trkpt>
      <trkpt lat="50.67235" lon="2.30276">
        <ele>46.5</ele>
        <time>2016-05-06T09:11:15Z</time>
      </trkpt>
      <trkpt lat="50.6723" lon="2.30262">
        <ele>47</ele>
        <time>2016-05-06T09:11:17Z</time>
      </trkpt>
      <trkpt lat="50.67225" lon="2.30249">
        <ele>47.5</ele>
        <time>2016-05-06T09:11:19Z</time>
      </trkpt>
      <trkpt lat="50.67219" lon="2.30234">
        <ele>47.9</ele>
        <time>2016-05-06T09:11:21Z</time>
      </trkpt>
      <trkpt lat="50.67212" lon="2.30219">
        <ele>48.4</ele>
        <time>2016-05-06T09:11:23Z</time>
      </trkpt>
      <trkpt lat="50.67206" lon="2.30204">
        <ele>48.8</ele>
        <time>2016-05-06T09:11:25Z</time>
      </trkpt>
      <trkpt lat="50.67197" lon="2.30188">
        <ele>49.2</ele>
        <time>2016-05-06T09:11:27Z</time>
      </trkpt>
      <trkpt lat="50.67187" lon="2.30171">
        <ele>49.5</ele>
        <time>2016-05-06T09:11:29Z</time>
      </trkpt>
      <trkpt lat="50.67176" lon="2.30153">
        <ele>49.7</ele>
        <time>2016-05-06T09:11:31Z</time>
      </trkpt>
      <trkpt lat="50.67167" lon="2.30132">
        <ele>49.8</ele>
        <time>2016-05-06T09:11:33Z</time>
      </trkpt>
      <trkpt lat="50.67159" lon="2.30108">
        <ele>49.7</ele>
        <time>2016-05-06T09:11:35Z</time>
      </trkpt>
      <trkpt lat="50.67151" lon="2.30083">
        <ele>49.5</ele>
        <time>2016-05-06T09:11:37Z</time>
      </trkpt>
      <trkpt lat="50.67143" lon="2.30058">
        <ele>49.1</ele>
        <time>2016-05-06T09:11:39Z</time>
      </trkpt>
      <trkpt lat="50.67133" lon="2.30035">
        <ele>48.8</ele>
        <time>2016-05-06T09:11:41Z</time>
      </trkpt>
      <trkpt lat="50.67123" lon="2.30011">
        <ele>48.4</ele>
        <time>2016-05-06T09:11:43Z</time>
      </trkpt>
      <trkpt lat="50.67115" lon="2.29987">
        <ele>47.9</ele>
        <time>2016-05-06T09:11:45Z</time>
      </trkpt>
      <trkpt lat="50.6711" lon="2.29962">
        <ele>47.4</ele>
        <time>2016-05-06T09:11:47Z</time>
      </trkpt>
      <trkpt lat="50.67108" lon="2.29936">
        <ele>47</ele>
        <time>2016-05-06T09:11:49Z</time>
      </trkpt>
      <trkpt lat="50.67108" lon="2.29911">
        <ele>46.7</ele>
        <time>2016-05-06T09:11:51Z</time>
      </trkpt>
      <trkpt lat="50.67108" lon="2.29887">
        <ele>46.4</ele>
        <time>2016-05-06T09:11:53Z</time>
      </trkpt>
      <trkpt lat="50.67107" lon="2.29862">
        <ele>46.1</ele>
        <time>2016-05-06T09:11:55Z</time>
      </trkpt>
      <trkpt lat="50.67105" lon="2.29838">
        <ele>45.9</ele>
        <time>2016-05-06T09:11:57Z</time>
      </trkpt>
      <trkpt lat="50.67103" lon="2.29813">
        <ele>45.6</ele>
        <time>2016-05-06T09:11:59Z</time>
      </trkpt>
      <trkpt lat="50.67102" lon="2.29787">
        <ele>45.4</ele>
        <time>2016-05-06T09:12:01Z</time>
      </trkpt>
      <trkpt lat="50.671" lon="2.29761">
        <ele>45.2</ele>
        <time>2016-05-06T09:12:03Z</time>
      </trkpt>
      <trkpt lat="50.67098" lon="2.29734">
        <ele>45.1</ele>
        <time>2016-05-06T09:12:05Z</time>
      </trkpt>
      <trkpt lat="50.67097" lon="2.29707">
        <ele>44.9</ele>
        <time>2016-05-06T09:12:07Z</time>
      </trkpt>
      <trkpt lat="50.67096" lon="2.2968">
        <ele>44.8</ele>
        <time>2016-05-06T09:12:09Z</time>
      </trkpt>
      <trkpt lat="50.67094" lon="2.29654">
        <ele>44.7</ele>
        <time>2016-05-06T09:12:11Z</time>
      </trkpt>
      <trkpt lat="50.67093" lon="2.29629">
        <ele>44.6</ele>
        <time>2016-05-06T09:12:13Z</time>
      </trkpt>
      <trkpt lat="50.67091" lon="2.29603">
        <ele>44.5</ele>
        <time>2016-05-06T09:12:15Z</time>
      </trkpt>
      <trkpt lat="50.6709" lon="2.29578">
        <ele>44.3</ele>
        <time>2016-05-06T09:12:17Z</time>
      </trkpt>
      <trkpt lat="50.67088" lon="2.29554">
        <ele>44.2</ele>
        <time>2016-05-06T09:12:19Z</time>
      </trkpt>
      <trkpt lat="50.67084" lon="2.2953">
        <ele>44.1</ele>
        <time>2016-05-06T09:12:21Z</time>
      </trkpt>
      <trkpt lat="50.67079" lon="2.29507">
        <ele>44</ele>
        <time>2016-05-06T09:12:23Z</time>
      </trkpt>
      <trkpt lat="50.67074" lon="2.29484">
        <ele>44</ele>
        <time>2016-05-06T09:12:25Z</time>
      </trkpt>
      <trkpt lat="50.67068" lon="2.29462">
        <ele>43.9</ele>
        <time>2016-05-06T09:12:27Z</time>
      </trkpt>
      <trkpt lat="50.67063" lon="2.2944">
        <ele>43.8</ele>
        <time>2016-05-06T09:12:29Z</time>
      </trkpt>
      <trkpt lat="50.67058" lon="2.29418">
        <ele>43.8</ele>
        <time>2016-05-06T09:12:31Z</time>
      </trkpt>
      <trkpt lat="50.67053" lon="2.29396">
        <ele>43.7</ele>
        <time>2016-05-06T09:12:33Z</time>
      </trkpt>
      <trkpt lat="50.67047" lon="2.29373">
        <ele>43.7</ele>
        <time>2016-05-06T09:12:35Z</time>
      </trkpt>
      <trkpt lat="50.67042" lon="2.2935">
        <ele>43.6</ele>
        <time>2016-05-06T09:12:37Z</time>
      </trkpt>
      <trkpt lat="50.67036" lon="2.29328">
        <ele>43.5</ele>
        <time>2016-05-06T09:12:39Z</time>
      </trkpt>
      <trkpt lat="50.6703" lon="2.29305">
        <ele>43.5</ele>
        <time>2016-05-06T09:12:41Z</time>
      </trkpt>
      <trkpt lat="50.67024" lon="2.29282">
        <ele>43.4</ele>
        <time>2016-05-06T09:12:43Z</time>
      </trkpt>
      <trkpt lat="50.67018" lon="2.29258">
        <ele>43.3</ele>
        <time>2016-05-06T09:12:45Z</time>
      </trkpt>
      <trkpt lat="50.67014" lon="2.29234">
        <ele>43.3</ele>
        <time>2016-05-06T09:12:47Z</time>
      </trkpt>
      <trkpt lat="50.67011" lon="2.29208">
        <ele>43.3</ele>
        <time>2016-05-06T09:12:49Z</time>
      </trkpt>
      <trkpt lat="50.67011" lon="2.29183">
        <ele>43.2</ele>
        <time>2016-05-06T09:12:51Z</time>
      </trkpt>
      <trkpt lat="50.67013" lon="2.2916">
        <ele>43.2</ele>
        <time>2016-05-06T09:12:53Z</time>
      </trkpt>
      <trkpt lat="50.67015" lon="2.29136">
        <ele>43.2</ele>
        <time>2016-05-06T09:12:55Z</time>
      </trkpt>
      <trkpt lat="50.67017" lon="2.29113">
        <ele>43.1</ele>
        <time>2016-05-06T09:12:57Z</time>
      </trkpt>
      <trkpt lat="50.67018" lon="2.2909">
        <ele>43.1</ele>
        <time>2016-05-06T09:12:59Z</time>
      </trkpt>
      <trkpt lat="50.67016" lon="2.29068">
        <ele>43.1</ele>
        <time>2016-05-06T09:13:01Z</time>
      </trkpt>
      <trkpt lat="50.67013" lon="2.29047">
        <ele>43.1</ele>
        <time>2016-05-06T09:13:03Z</time>
      </trkpt>
      <trkpt lat="50.67009" lon="2.29026">
        <ele>43.1</ele>
        <time>2016-05-06T09:13:05Z</time>
      </trkpt>
      <trkpt lat="50.67004" lon="2.29006">
        <ele>43.1</ele>
        <time>2016-05-06T09:13:07Z</time>
      </trkpt>
      <trkpt lat="50.67" lon="2.28986">
        <ele>43.1</ele>
        <time>2016-05-06T09:13:09Z</time>
      </trkpt>
      <trkpt lat="50.66995" lon="2.28965">
        <ele>43.1</ele>
        <time>2016-05-06T09:13:11Z</time>
      </trkpt>
      <trkpt lat="50.66991" lon="2.28944">
        <ele>43.1</ele>
        <time>2016-05-06T09:13:13Z</time>
      </trkpt>
      <trkpt lat="50.66988" lon="2.28923">
        <ele>43.1</ele>
        <time>2016-05-06T09:13:15Z</time>
      </trkpt>
      <trkpt lat="50.66985" lon="2.28902">
        <ele>43.2</ele>
        <time>2016-05-06T09:13:17Z</time>
      </trkpt>
      <trkpt lat="50.66982" lon="2.28881">
        <ele>43.3</ele>
        <time>2016-05-06T09:13:19Z</time>
      </trkpt>
      <trkpt lat="50.66981" lon="2.2886">
        <ele>43.5</ele>
        <time>2016-05-06T09:13:21Z</time>
      </trkpt>
      <trkpt lat="50.66979" lon="2.28839">
        <ele>43.6</ele>
        <time>2016-05-06T09:13:23Z</time>
      </trkpt>
      <trkpt lat="50.66977" lon="2.28819">
        <ele>43.6</ele>
        <time>2016-05-06T09:13:25Z</time>
      </trkpt>
      <trkpt lat="50.66974" lon="2.28798">
        <ele>43.6</ele>
        <time>2016-05-06T09:13:27Z</time>
      </trkpt>
      <trkpt lat="50.6697" lon="2.28778">
        <ele>43.6</ele>
        <time>2016-05-06T09:13:29Z</time>
      </trkpt>
      <trkpt lat="50.66966" lon="2.2876">
        <ele>43.7</ele>
        <time>2016-05-06T09:13:31Z</time>
      </trkpt>
      <trkpt lat="50.66962" lon="2.28742">
        <ele>43.7</ele>
        <time>2016-05-06T09:13:33Z</time>
      </trkpt>
      <trkpt lat="50.66957" lon="2.28724">
        <ele>43.7</ele>
        <time>2016-05-06T09:13:35Z</time>
      </trkpt>
      <trkpt lat="50.66954" lon="2.28706">
        <ele>43.7</ele>
        <time>2016-05-06T09:13:37Z</time>
      </trkpt>
      <trkpt lat="50.6696" lon="2.2869">
        <ele>43.7</ele>
        <time>2016-05-06T09:13:39Z</time>
      </trkpt>
      <trkpt lat="50.6697" lon="2.28681">
        <ele>43.7</ele>
        <time>2016-05-06T09:13:41Z</time>
      </trkpt>
      <trkpt lat="50.6698" lon="2.28675">
        <ele>43.7</ele>
        <time>2016-05-06T09:13:43Z</time>
      </trkpt>
      <trkpt lat="50.6699" lon="2.28665">
        <ele>43.7</ele>
        <time>2016-05-06T09:13:45Z</time>
      </trkpt>
      <trkpt lat="50.67" lon="2.28655">
        <ele>43.8</ele>
        <time>2016-05-06T09:13:47Z</time>
      </trkpt>
      <trkpt lat="50.6701" lon="2.28646">
        <ele>43.8</ele>
        <time>2016-05-06T09:13:49Z</time>
      </trkpt>
      <trkpt lat="50.67021" lon="2.28636">
        <ele>43.8</ele>
        <time>2016-05-06T09:13:51Z</time>
      </trkpt>
      <trkpt lat="50.67032" lon="2.28623">
        <ele>43.8</ele>
        <time>2016-05-06T09:13:53Z</time>
      </trkpt>
      <trkpt lat="50.67043" lon="2.28614">
        <ele>43.9</ele>
        <time>2016-05-06T09:13:55Z</time>
      </trkpt>
      <trkpt lat="50.67052" lon="2.28604">
        <ele>44</ele>
        <time>2016-05-06T09:13:57Z</time>
      </trkpt>
      <trkpt lat="50.67059" lon="2.28593">
        <ele>44.1</ele>
        <time>2016-05-06T09:13:59Z</time>
      </trkpt>
      <trkpt lat="50.67065" lon="2.2858">
        <ele>44.2</ele>
        <time>2016-05-06T09:14:01Z</time>
      </trkpt>
      <trkpt lat="50.67062" lon="2.28561">
        <ele>44.4</ele>
        <time>2016-05-06T09:14:04Z</time>
      </trkpt>
      <trkpt lat="50.67058" lon="2.28545">
        <ele>44.5</ele>
        <time>2016-05-06T09:14:06Z</time>
      </trkpt>
      <trkpt lat="50.67055" lon="2.2853">
        <ele>44.5</ele>
        <time>2016-05-06T09:14:08Z</time>
      </trkpt>
      <trkpt lat="50.67051" lon="2.28515">
        <ele>44.6</ele>
        <time>2016-05-06T09:14:10Z</time>
      </trkpt>
      <trkpt lat="50.67047" lon="2.28499">
        <ele>44.7</ele>
        <time>2016-05-06T09:14:12Z</time>
      </trkpt>
      <trkpt lat="50.67043" lon="2.28481">
        <ele>44.7</ele>
        <time>2016-05-06T09:14:14Z</time>
      </trkpt>
      <trkpt lat="50.67039" lon="2.28463">
        <ele>44.7</ele>
        <time>2016-05-06T09:14:16Z</time>
      </trkpt>
      <trkpt lat="50.67035" lon="2.28445">
        <ele>44.8</ele>
        <time>2016-05-06T09:14:18Z</time>
      </trkpt>
      <trkpt lat="50.67032" lon="2.28426">
        <ele>44.8</ele>
        <time>2016-05-06T09:14:20Z</time>
      </trkpt>
      <trkpt lat="50.67028" lon="2.28407">
        <ele>44.9</ele>
        <time>2016-05-06T09:14:22Z</time>
      </trkpt>
      <trkpt lat="50.67025" lon="2.28387">
        <ele>45</ele>
        <time>2016-05-06T09:14:24Z</time>
      </trkpt>
      <trkpt lat="50.67022" lon="2.28366">
        <ele>45.1</ele>
        <time>2016-05-06T09:14:26Z</time>
      </trkpt>
      <trkpt lat="50.67019" lon="2.28345">
        <ele>45.1</ele>
        <time>2016-05-06T09:14:28Z</time>
      </trkpt>
      <trkpt lat="50.67017" lon="2.28325">
        <ele>45.2</ele>
        <time>2016-05-06T09:14:30Z</time>
      </trkpt>
      <trkpt lat="50.67015" lon="2.28305">
        <ele>45.2</ele>
        <time>2016-05-06T09:14:32Z</time>
      </trkpt>
      <trkpt lat="50.67012" lon="2.28285">
        <ele>45.3</ele>
        <time>2016-05-06T09:14:34Z</time>
      </trkpt>
      <trkpt lat="50.67009" lon="2.28265">
        <ele>45.4</ele>
        <time>2016-05-06T09:14:36Z</time>
      </trkpt>
      <trkpt lat="50.67005" lon="2.28245">
        <ele>45.4</ele>
        <time>2016-05-06T09:14:38Z</time>
      </trkpt>
      <trkpt lat="50.67001" lon="2.28225">
        <ele>45.5</ele>
        <time>2016-05-06T09:14:40Z</time>
      </trkpt>
      <trkpt lat="50.66997" lon="2.28206">
        <ele>45.6</ele>
        <time>2016-05-06T09:14:42Z</time>
      </trkpt>
      <trkpt lat="50.66994" lon="2.28186">
        <ele>45.8</ele>
        <time>2016-05-06T09:14:44Z</time>
      </trkpt>
      <trkpt lat="50.6699" lon="2.28165">
        <ele>45.9</ele>
        <time>2016-05-06T09:14:46Z</time>
      </trkpt>
      <trkpt lat="50.66987" lon="2.28145">
        <ele>45.9</ele>
        <time>2016-05-06T09:14:48Z</time>
      </trkpt>
      <trkpt lat="50.66985" lon="2.28123">
        <ele>46</ele>
        <time>2016-05-06T09:14:50Z</time>
      </trkpt>
      <trkpt lat="50.66983" lon="2.28101">
        <ele>46.1</ele>
        <time>2016-05-06T09:14:52Z</time>
      </trkpt>
      <trkpt lat="50.66984" lon="2.2808">
        <ele>46.1</ele>
        <time>2016-05-06T09:14:54Z</time>
      </trkpt>
      <trkpt lat="50.66984" lon="2.28059">
        <ele>46.2</ele>
        <time>2016-05-06T09:14:56Z</time>
      </trkpt>
      <trkpt lat="50.66985" lon="2.28038">
        <ele>46.2</ele>
        <time>2016-05-06T09:14:58Z</time>
      </trkpt>
      <trkpt lat="50.66986" lon="2.28017">
        <ele>46.4</ele>
        <time>2016-05-06T09:15:00Z</time>
      </trkpt>
      <trkpt lat="50.66988" lon="2.27996">
        <ele>46.5</ele>
        <time>2016-05-06T09:15:02Z</time>
      </trkpt>
      <trkpt lat="50.66991" lon="2.27975">
        <ele>46.6</ele>
        <time>2016-05-06T09:15:04Z</time>
      </trkpt>
      <trkpt lat="50.66994" lon="2.27953">
        <ele>46.8</ele>
        <time>2016-05-06T09:15:06Z</time>
      </trkpt>
      <trkpt lat="50.66997" lon="2.27933">
        <ele>47</ele>
        <time>2016-05-06T09:15:08Z</time>
      </trkpt>
      <trkpt lat="50.66999" lon="2.27912">
        <ele>47.1</ele>
        <time>2016-05-06T09:15:10Z</time>
      </trkpt>
      <trkpt lat="50.67002" lon="2.27892">
        <ele>47.3</ele>
        <time>2016-05-06T09:15:12Z</time>
      </trkpt>
      <trkpt lat="50.67005" lon="2.27873">
        <ele>47.4</ele>
        <time>2016-05-06T09:15:14Z</time>
      </trkpt>
      <trkpt lat="50.6701" lon="2.27855">
        <ele>47.5</ele>
        <time>2016-05-06T09:15:16Z</time>
      </trkpt>
      <trkpt lat="50.67014" lon="2.27837">
        <ele>47.8</ele>
        <time>2016-05-06T09:15:18Z</time>
      </trkpt>
      <trkpt lat="50.67019" lon="2.2782">
        <ele>48</ele>
        <time>2016-05-06T09:15:20Z</time>
      </trkpt>
      <trkpt lat="50.67024" lon="2.27803">
        <ele>48.2</ele>
        <time>2016-05-06T09:15:22Z</time>
      </trkpt>
      <trkpt lat="50.67028" lon="2.27786">
        <ele>48.4</ele>
        <time>2016-05-06T09:15:24Z</time>
      </trkpt>
      <trkpt lat="50.67032" lon="2.27768">
        <ele>48.6</ele>
        <time>2016-05-06T09:15:26Z</time>
      </trkpt>
      <trkpt lat="50.67035" lon="2.27749">
        <ele>48.9</ele>
        <time>2016-05-06T09:15:28Z</time>
      </trkpt>
      <trkpt lat="50.67038" lon="2.2773">
        <ele>49.2</ele>
        <time>2016-05-06T09:15:30Z</time>
      </trkpt>
      <trkpt lat="50.67041" lon="2.27711">
        <ele>49.4</ele>
        <time>2016-05-06T09:15:32Z</time>
      </trkpt>
      <trkpt lat="50.67044" lon="2.27692">
        <ele>49.7</ele>
        <time>2016-05-06T09:15:34Z</time>
      </trkpt>
      <trkpt lat="50.67047" lon="2.27673">
        <ele>50</ele>
        <time>2016-05-06T09:15:36Z</time>
      </trkpt>
      <trkpt lat="50.67051" lon="2.27653">
        <ele>50.2</ele>
        <time>2016-05-06T09:15:38Z</time>
      </trkpt>
      <trkpt lat="50.67053" lon="2.27633">
        <ele>50.5</ele>
        <time>2016-05-06T09:15:40Z</time>
      </trkpt>
      <trkpt lat="50.67056" lon="2.27612">
        <ele>50.7</ele>
        <time>2016-05-06T09:15:42Z</time>
      </trkpt>
      <trkpt lat="50.67059" lon="2.27592">
        <ele>51</ele>
        <time>2016-05-06T09:15:44Z</time>
      </trkpt>
      <trkpt lat="50.67062" lon="2.27571">
        <ele>51.3</ele>
        <time>2016-05-06T09:15:46Z</time>
      </trkpt>
      <trkpt lat="50.67065" lon="2.27551">
        <ele>51.7</ele>
        <time>2016-05-06T09:15:48Z</time>
      </trkpt>
      <trkpt lat="50.67068" lon="2.2753">
        <ele>52.1</ele>
        <time>2016-05-06T09:15:50Z</time>
      </trkpt>
      <trkpt lat="50.67071" lon="2.27508">
        <ele>52.4</ele>
        <time>2016-05-06T09:15:52Z</time>
      </trkpt>
      <trkpt lat="50.67073" lon="2.27488">
        <ele>52.7</ele>
        <time>2016-05-06T09:15:54Z</time>
      </trkpt>
      <trkpt lat="50.67075" lon="2.27467">
        <ele>53</ele>
        <time>2016-05-06T09:15:56Z</time>
      </trkpt>
      <trkpt lat="50.67077" lon="2.27447">
        <ele>53.5</ele>
        <time>2016-05-06T09:15:58Z</time>
      </trkpt>
      <trkpt lat="50.67079" lon="2.27427">
        <ele>53.9</ele>
        <time>2016-05-06T09:16:00Z</time>
      </trkpt>
      <trkpt lat="50.67081" lon="2.27407">
        <ele>54.3</ele>
        <time>2016-05-06T09:16:02Z</time>
      </trkpt>
      <trkpt lat="50.67083" lon="2.27388">
        <ele>54.8</ele>
        <time>2016-05-06T09:16:04Z</time>
      </trkpt>
      <trkpt lat="50.67084" lon="2.27368">
        <ele>55.2</ele>
        <time>2016-05-06T09:16:06Z</time>
      </trkpt>
      <trkpt lat="50.67085" lon="2.27349">
        <ele>55.6</ele>
        <time>2016-05-06T09:16:08Z</time>
      </trkpt>
      <trkpt lat="50.67086" lon="2.2733">
        <ele>56</ele>
        <time>2016-05-06T09:16:10Z</time>
      </trkpt>
      <trkpt lat="50.67086" lon="2.27311">
        <ele>56.4</ele>
        <time>2016-05-06T09:16:12Z</time>
      </trkpt>
      <trkpt lat="50.67085" lon="2.27292">
        <ele>56.8</ele>
        <time>2016-05-06T09:16:14Z</time>
      </trkpt>
      <trkpt lat="50.67082" lon="2.27274">
        <ele>57.2</ele>
        <time>2016-05-06T09:16:16Z</time>
      </trkpt>
      <trkpt lat="50.67079" lon="2.27256">
        <ele>57.6</ele>
        <time>2016-05-06T09:16:18Z</time>
      </trkpt>
      <trkpt lat="50.67076" lon="2.27238">
        <ele>58.1</ele>
        <time>2016-05-06T09:16:20Z</time>
      </trkpt>
      <trkpt lat="50.67073" lon="2.27221">
        <ele>58.5</ele>
        <time>2016-05-06T09:16:22Z</time>
      </trkpt>
      <trkpt lat="50.6707" lon="2.27203">
        <ele>58.8</ele>
        <time>2016-05-06T09:16:24Z</time>
      </trkpt>
      <trkpt lat="50.67067" lon="2.27185">
        <ele>59.2</ele>
        <time>2016-05-06T09:16:26Z</time>
      </trkpt>
      <trkpt lat="50.67063" lon="2.27167">
        <ele>59.6</ele>
        <time>2016-05-06T09:16:28Z</time>
      </trkpt>
      <trkpt lat="50.6706" lon="2.27148">
        <ele>60</ele>
        <time>2016-05-06T09:16:30Z</time>
      </trkpt>
      <trkpt lat="50.67058" lon="2.2713">
        <ele>60.5</ele>
        <time>2016-05-06T09:16:32Z</time>
      </trkpt>
      <trkpt lat="50.67057" lon="2.27111">
        <ele>60.9</ele>
        <time>2016-05-06T09:16:34Z</time>
      </trkpt>
      <trkpt lat="50.67057" lon="2.27093">
        <ele>61.3</ele>
        <time>2016-05-06T09:16:36Z</time>
      </trkpt>
      <trkpt lat="50.67057" lon="2.27075">
        <ele>61.6</ele>
        <time>2016-05-06T09:16:38Z</time>
      </trkpt>
      <trkpt lat="50.67057" lon="2.27058">
        <ele>62</ele>
        <time>2016-05-06T09:16:40Z</time>
      </trkpt>
      <trkpt lat="50.67058" lon="2.27041">
        <ele>62.4</ele>
        <time>2016-05-06T09:16:42Z</time>
      </trkpt>
      <trkpt lat="50.67058" lon="2.27023">
        <ele>62.8</ele>
        <time>2016-05-06T09:16:44Z</time>
      </trkpt>
      <trkpt lat="50.67059" lon="2.27006">
        <ele>63.1</ele>
        <time>2016-05-06T09:16:46Z</time>
      </trkpt>
      <trkpt lat="50.6706" lon="2.26987">
        <ele>63.4</ele>
        <time>2016-05-06T09:16:48Z</time>
      </trkpt>
      <trkpt lat="50.67061" lon="2.26969">
        <ele>63.6</ele>
        <time>2016-05-06T09:16:50Z</time>
      </trkpt>
      <trkpt lat="50.67063" lon="2.2695">
        <ele>63.9</ele>
        <time>2016-05-06T09:16:52Z</time>
      </trkpt>
      <trkpt lat="50.67066" lon="2.26933">
        <ele>64.2</ele>
        <time>2016-05-06T09:16:54Z</time>
      </trkpt>
      <trkpt lat="50.67069" lon="2.26915">
        <ele>64.5</ele>
        <time>2016-05-06T09:16:56Z</time>
      </trkpt>
      <trkpt lat="50.67073" lon="2.26899">
        <ele>64.9</ele>
        <time>2016-05-06T09:16:58Z</time>
      </trkpt>
      <trkpt lat="50.67078" lon="2.26882">
        <ele>65.4</ele>
        <time>2016-05-06T09:17:00Z</time>
      </trkpt>
      <trkpt lat="50.67082" lon="2.26865">
        <ele>65.8</ele>
        <time>2016-05-06T09:17:02Z</time>
      </trkpt>
      <trkpt lat="50.67086" lon="2.26849">
        <ele>66.1</ele>
        <time>2016-05-06T09:17:04Z</time>
      </trkpt>
      <trkpt lat="50.6709" lon="2.26833">
        <ele>66.4</ele>
        <time>2016-05-06T09:17:06Z</time>
      </trkpt>
      <trkpt lat="50.67094" lon="2.26817">
        <ele>66.7</ele>
        <time>2016-05-06T09:17:08Z</time>
      </trkpt>
      <trkpt lat="50.67098" lon="2.26801">
        <ele>67.1</ele>
        <time>2016-05-06T09:17:10Z</time>
      </trkpt>
      <trkpt lat="50.67102" lon="2.26787">
        <ele>67.6</ele>
        <time>2016-05-06T09:17:12Z</time>
      </trkpt>
      <trkpt lat="50.67106" lon="2.26775">
        <ele>68</ele>
        <time>2016-05-06T09:17:14Z</time>
      </trkpt>
      <trkpt lat="50.67111" lon="2.26755">
        <ele>68.4</ele>
        <time>2016-05-06T09:17:17Z</time>
      </trkpt>
      <trkpt lat="50.6711" lon="2.26741">
        <ele>68.7</ele>
        <time>2016-05-06T09:17:20Z</time>
      </trkpt>
      <trkpt lat="50.671" lon="2.26726">
        <ele>68.9</ele>
        <time>2016-05-06T09:17:23Z</time>
      </trkpt>
      <trkpt lat="50.67089" lon="2.26719">
        <ele>69</ele>
        <time>2016-05-06T09:17:25Z</time>
      </trkpt>
      <trkpt lat="50.67076" lon="2.26713">
        <ele>68.9</ele>
        <time>2016-05-06T09:17:27Z</time>
      </trkpt>
      <trkpt lat="50.67062" lon="2.26706">
        <ele>68.8</ele>
        <time>2016-05-06T09:17:29Z</time>
      </trkpt>
      <trkpt lat="50.67048" lon="2.26699">
        <ele>68.6</ele>
        <time>2016-05-06T09:17:31Z</time>
      </trkpt>
      <trkpt lat="50.67032" lon="2.26692">
        <ele>68.5</ele>
        <time>2016-05-06T09:17:33Z</time>
      </trkpt>
      <trkpt lat="50.67017" lon="2.26683">
        <ele>68.3</ele>
        <time>2016-05-06T09:17:35Z</time>
      </trkpt>
      <trkpt lat="50.67001" lon="2.26674">
        <ele>68</ele>
        <time>2016-05-06T09:17:37Z</time>
      </trkpt>
      <trkpt lat="50.66986" lon="2.26662">
        <ele>67.7</ele>
        <time>2016-05-06T09:17:39Z</time>
      </trkpt>
      <trkpt lat="50.66971" lon="2.26648">
        <ele>67.4</ele>
        <time>2016-05-06T09:17:41Z</time>
      </trkpt>
      <trkpt lat="50.66956" lon="2.26634">
        <ele>67</ele>
        <time>2016-05-06T09:17:43Z</time>
      </trkpt>
      <trkpt lat="50.66942" lon="2.26618">
        <ele>66.7</ele>
        <time>2016-05-06T09:17:45Z</time>
      </trkpt>
      <trkpt lat="50.66928" lon="2.26602">
        <ele>66.4</ele>
        <time>2016-05-06T09:17:47Z</time>
      </trkpt>
      <trkpt lat="50.66915" lon="2.26585">
        <ele>66</ele>
        <time>2016-05-06T09:17:49Z</time>
      </trkpt>
      <trkpt lat="50.66902" lon="2.26567">
        <ele>65.6</ele>
        <time>2016-05-06T09:17:51Z</time>
      </trkpt>
      <trkpt lat="50.66889" lon="2.2655">
        <ele>65.1</ele>
        <time>2016-05-06T09:17:53Z</time>
      </trkpt>
      <trkpt lat="50.66876" lon="2.26532">
        <ele>64.7</ele>
        <time>2016-05-06T09:17:55Z</time>
      </trkpt>
      <trkpt lat="50.66863" lon="2.26515">
        <ele>64.3</ele>
        <time>2016-05-06T09:17:57Z</time>
      </trkpt>
      <trkpt lat="50.6685" lon="2.26497">
        <ele>63.9</ele>
        <time>2016-05-06T09:17:59Z</time>
      </trkpt>
      <trkpt lat="50.66837" lon="2.26479">
        <ele>63.5</ele>
        <time>2016-05-06T09:18:01Z</time>
      </trkpt>
      <trkpt lat="50.66825" lon="2.26462">
        <ele>63.1</ele>
        <time>2016-05-06T09:18:03Z</time>
      </trkpt>
      <trkpt lat="50.66812" lon="2.26445">
        <ele>62.6</ele>
        <time>2016-05-06T09:18:05Z</time>
      </trkpt>
      <trkpt lat="50.66799" lon="2.26428">
        <ele>62.1</ele>
        <time>2016-05-06T09:18:07Z</time>
      </trkpt>
      <trkpt lat="50.66787" lon="2.26412">
        <ele>61.7</ele>
        <time>2016-05-06T09:18:09Z</time>
      </trkpt>
      <trkpt lat="50.66774" lon="2.26398">
        <ele>61.2</ele>
        <time>2016-05-06T09:18:11Z</time>
      </trkpt>
      <trkpt lat="50.66761" lon="2.26383">
        <ele>60.7</ele>
        <time>2016-05-06T09:18:13Z</time>
      </trkpt>
      <trkpt lat="50.6675" lon="2.26366">
        <ele>60.2</ele>
        <time>2016-05-06T09:18:15Z</time>
      </trkpt>
      <trkpt lat="50.66743" lon="2.26346">
        <ele>59.8</ele>
        <time>2016-05-06T09:18:17Z</time>
      </trkpt>
      <trkpt lat="50.66735" lon="2.26323">
        <ele>59.4</ele>
        <time>2016-05-06T09:18:19Z</time>
      </trkpt>
      <trkpt lat="50.66728" lon="2.26302">
        <ele>58.9</ele>
        <time>2016-05-06T09:18:21Z</time>
      </trkpt>
      <trkpt lat="50.66722" lon="2.26281">
        <ele>58.4</ele>
        <time>2016-05-06T09:18:23Z</time>
      </trkpt>
      <trkpt lat="50.66716" lon="2.26261">
        <ele>58.1</ele>
        <time>2016-05-06T09:18:25Z</time>
      </trkpt>
      <trkpt lat="50.6671" lon="2.2624">
        <ele>57.9</ele>
        <time>2016-05-06T09:18:27Z</time>
      </trkpt>
      <trkpt lat="50.66704" lon="2.26218">
        <ele>57.6</ele>
        <time>2016-05-06T09:18:29Z</time>
      </trkpt>
      <trkpt lat="50.66698" lon="2.26196">
        <ele>57.5</ele>
        <time>2016-05-06T09:18:31Z</time>
      </trkpt>
      <trkpt lat="50.66691" lon="2.26174">
        <ele>57.3</ele>
        <time>2016-05-06T09:18:33Z</time>
      </trkpt>
      <trkpt lat="50.66685" lon="2.26152">
        <ele>57.2</ele>
        <time>2016-05-06T09:18:35Z</time>
      </trkpt>
      <trkpt lat="50.66678" lon="2.26128">
        <ele>57</ele>
        <time>2016-05-06T09:18:37Z</time>
      </trkpt>
      <trkpt lat="50.66672" lon="2.26105">
        <ele>56.9</ele>
        <time>2016-05-06T09:18:39Z</time>
      </trkpt>
      <trkpt lat="50.66666" lon="2.26081">
        <ele>56.8</ele>
        <time>2016-05-06T09:18:41Z</time>
      </trkpt>
      <trkpt lat="50.66661" lon="2.26056">
        <ele>56.7</ele>
        <time>2016-05-06T09:18:43Z</time>
      </trkpt>
      <trkpt lat="50.66656" lon="2.26031">
        <ele>56.6</ele>
        <time>2016-05-06T09:18:45Z</time>
      </trkpt>
      <trkpt lat="50.66653" lon="2.26006">
        <ele>56.4</ele>
        <time>2016-05-06T09:18:47Z</time>
      </trkpt>
      <trkpt lat="50.6665" lon="2.2598">
        <ele>56.2</ele>
        <time>2016-05-06T09:18:49Z</time>
      </trkpt>
      <trkpt lat="50.66648" lon="2.25955">
        <ele>56.1</ele>
        <time>2016-05-06T09:18:51Z</time>
      </trkpt>
      <trkpt lat="50.66647" lon="2.25931">
        <ele>55.9</ele>
        <time>2016-05-06T09:18:53Z</time>
      </trkpt>
      <trkpt lat="50.66646" lon="2.25907">
        <ele>55.8</ele>
        <time>2016-05-06T09:18:55Z</time>
      </trkpt>
      <trkpt lat="50.66646" lon="2.25882">
        <ele>55.7</ele>
        <time>2016-05-06T09:18:57Z</time>
      </trkpt>
      <trkpt lat="50.66647" lon="2.25856">
        <ele>55.6</ele>
        <time>2016-05-06T09:18:59Z</time>
      </trkpt>
      <trkpt lat="50.66647" lon="2.25832">
        <ele>55.5</ele>
        <time>2016-05-06T09:19:01Z</time>
      </trkpt>
      <trkpt lat="50.66648" lon="2.25807">
        <ele>55.4</ele>
        <time>2016-05-06T09:19:03Z</time>
      </trkpt>
      <trkpt lat="50.66648" lon="2.2578">
        <ele>55.3</ele>
        <time>2016-05-06T09:19:05Z</time>
      </trkpt>
      <trkpt lat="50.6665" lon="2.25762">
        <ele>55.2</ele>
        <time>2016-05-06T09:19:07Z</time>
      </trkpt>
      <trkpt lat="50.66651" lon="2.25739">
        <ele>55.2</ele>
        <time>2016-05-06T09:19:09Z</time>
      </trkpt>
      <trkpt lat="50.66655" lon="2.25717">
        <ele>55.1</ele>
        <time>2016-05-06T09:19:11Z</time>
      </trkpt>
      <trkpt lat="50.66659" lon="2.25695">
        <ele>55</ele>
        <time>2016-05-06T09:19:13Z</time>
      </trkpt>
      <trkpt lat="50.66663" lon="2.25674">
        <ele>55</ele>
        <time>2016-05-06T09:19:15Z</time>
      </trkpt>
      <trkpt lat="50.66667" lon="2.25653">
        <ele>55</ele>
        <time>2016-05-06T09:19:17Z</time>
      </trkpt>
      <trkpt lat="50.66672" lon="2.25632">
        <ele>54.9</ele>
        <time>2016-05-06T09:19:19Z</time>
      </trkpt>
      <trkpt lat="50.66677" lon="2.25609">
        <ele>54.9</ele>
        <time>2016-05-06T09:19:21Z</time>
      </trkpt>
      <trkpt lat="50.6668" lon="2.25587">
        <ele>54.9</ele>
        <time>2016-05-06T09:19:23Z</time>
      </trkpt>
      <trkpt lat="50.66684" lon="2.25564">
        <ele>54.9</ele>
        <time>2016-05-06T09:19:25Z</time>
      </trkpt>
      <trkpt lat="50.66685" lon="2.25541">
        <ele>54.9</ele>
        <time>2016-05-06T09:19:27Z</time>
      </trkpt>
      <trkpt lat="50.66684" lon="2.25517">
        <ele>54.9</ele>
        <time>2016-05-06T09:19:29Z</time>
      </trkpt>
      <trkpt lat="50.66683" lon="2.25493">
        <ele>54.9</ele>
        <time>2016-05-06T09:19:31Z</time>
      </trkpt>
      <trkpt lat="50.6668" lon="2.25469">
        <ele>54.9</ele>
        <time>2016-05-06T09:19:33Z</time>
      </trkpt>
      <trkpt lat="50.66679" lon="2.25444">
        <ele>54.9</ele>
        <time>2016-05-06T09:19:35Z</time>
      </trkpt>
      <trkpt lat="50.66676" lon="2.2542">
        <ele>54.9</ele>
        <time>2016-05-06T09:19:37Z</time>
      </trkpt>
      <trkpt lat="50.66674" lon="2.25398">
        <ele>54.8</ele>
        <time>2016-05-06T09:19:39Z</time>
      </trkpt>
      <trkpt lat="50.66672" lon="2.25376">
        <ele>54.8</ele>
        <time>2016-05-06T09:19:41Z</time>
      </trkpt>
      <trkpt lat="50.66672" lon="2.25354">
        <ele>54.8</ele>
        <time>2016-05-06T09:19:43Z</time>
      </trkpt>
      <trkpt lat="50.66671" lon="2.25332">
        <ele>54.7</ele>
        <time>2016-05-06T09:19:45Z</time>
      </trkpt>
      <trkpt lat="50.66671" lon="2.2531">
        <ele>54.9</ele>
        <time>2016-05-06T09:19:47Z</time>
      </trkpt>
      <trkpt lat="50.66673" lon="2.25289">
        <ele>55</ele>
        <time>2016-05-06T09:19:49Z</time>
      </trkpt>
      <trkpt lat="50.66674" lon="2.25267">
        <ele>55.2</ele>
        <time>2016-05-06T09:19:51Z</time>
      </trkpt>
      <trkpt lat="50.66677" lon="2.25245">
        <ele>55.3</ele>
        <time>2016-05-06T09:19:53Z</time>
      </trkpt>
      <trkpt lat="50.66679" lon="2.25223">
        <ele>55.3</ele>
        <time>2016-05-06T09:19:55Z</time>
      </trkpt>
      <trkpt lat="50.6668" lon="2.25201">
        <ele>55.4</ele>
        <time>2016-05-06T09:19:57Z</time>
      </trkpt>
      <trkpt lat="50.66682" lon="2.2518">
        <ele>55.4</ele>
        <time>2016-05-06T09:19:59Z</time>
      </trkpt>
      <trkpt lat="50.66683" lon="2.25159">
        <ele>55.4</ele>
        <time>2016-05-06T09:20:01Z</time>
      </trkpt>
      <trkpt lat="50.66683" lon="2.25137">
        <ele>55.4</ele>
        <time>2016-05-06T09:20:03Z</time>
      </trkpt>
      <trkpt lat="50.66684" lon="2.25115">
        <ele>55.5</ele>
        <time>2016-05-06T09:20:05Z</time>
      </trkpt>
      <trkpt lat="50.66684" lon="2.25093">
        <ele>55.5</ele>
        <time>2016-05-06T09:20:07Z</time>
      </trkpt>
      <trkpt lat="50.66684" lon="2.25072">
        <ele>55.5</ele>
        <time>2016-05-06T09:20:09Z</time>
      </trkpt>
      <trkpt lat="50.66684" lon="2.25051">
        <ele>55.6</ele>
        <time>2016-05-06T09:20:11Z</time>
      </trkpt>
      <trkpt lat="50.66684" lon="2.2503">
        <ele>55.6</ele>
        <time>2016-05-06T09:20:13Z</time>
      </trkpt>
      <trkpt lat="50.66684" lon="2.2501">
        <ele>55.6</ele>
        <time>2016-05-06T09:20:15Z</time>
      </trkpt>
      <trkpt lat="50.66684" lon="2.2499">
        <ele>55.7</ele>
        <time>2016-05-06T09:20:17Z</time>
      </trkpt>
      <trkpt lat="50.66684" lon="2.2497">
        <ele>55.8</ele>
        <time>2016-05-06T09:20:19Z</time>
      </trkpt>
      <trkpt lat="50.66684" lon="2.2495">
        <ele>56</ele>
        <time>2016-05-06T09:20:21Z</time>
      </trkpt>
      <trkpt lat="50.66684" lon="2.24932">
        <ele>56.1</ele>
        <time>2016-05-06T09:20:23Z</time>
      </trkpt>
      <trkpt lat="50.66684" lon="2.24913">
        <ele>56.2</ele>
        <time>2016-05-06T09:20:25Z</time>
      </trkpt>
      <trkpt lat="50.66683" lon="2.24895">
        <ele>56.4</ele>
        <time>2016-05-06T09:20:27Z</time>
      </trkpt>
      <trkpt lat="50.66683" lon="2.24877">
        <ele>56.6</ele>
        <time>2016-05-06T09:20:29Z</time>
      </trkpt>
      <trkpt lat="50.66681" lon="2.2486">
        <ele>56.8</ele>
        <time>2016-05-06T09:20:31Z</time>
      </trkpt>
      <trkpt lat="50.6668" lon="2.24843">
        <ele>57.1</ele>
        <time>2016-05-06T09:20:33Z</time>
      </trkpt>
      <trkpt lat="50.66679" lon="2.24826">
        <ele>57.4</ele>
        <time>2016-05-06T09:20:35Z</time>
      </trkpt>
      <trkpt lat="50.66678" lon="2.24809">
        <ele>57.8</ele>
        <time>2016-05-06T09:20:37Z</time>
      </trkpt>
      <trkpt lat="50.66678" lon="2.24794">
        <ele>58.2</ele>
        <time>2016-05-06T09:20:39Z</time>
      </trkpt>
      <trkpt lat="50.66677" lon="2.24778">
        <ele>58.5</ele>
        <time>2016-05-06T09:20:41Z</time>
      </trkpt>
      <trkpt lat="50.66676" lon="2.24762">
        <ele>58.8</ele>
        <time>2016-05-06T09:20:43Z</time>
      </trkpt>
      <trkpt lat="50.66674" lon="2.24746">
        <ele>59.2</ele>
        <time>2016-05-06T09:20:45Z</time>
      </trkpt>
      <trkpt lat="50.66673" lon="2.24729">
        <ele>59.6</ele>
        <time>2016-05-06T09:20:47Z</time>
      </trkpt>
      <trkpt lat="50.66671" lon="2.24712">
        <ele>60</ele>
        <time>2016-05-06T09:20:49Z</time>
      </trkpt>
      <trkpt lat="50.6667" lon="2.24694">
        <ele>60.3</ele>
        <time>2016-05-06T09:20:51Z</time>
      </trkpt>
      <trkpt lat="50.66668" lon="2.24677">
        <ele>60.6</ele>
        <time>2016-05-06T09:20:53Z</time>
      </trkpt>
      <trkpt lat="50.66666" lon="2.2466">
        <ele>61</ele>
        <time>2016-05-06T09:20:55Z</time>
      </trkpt>
      <trkpt lat="50.66666" lon="2.24642">
        <ele>61.3</ele>
        <time>2016-05-06T09:20:57Z</time>
      </trkpt>
      <trkpt lat="50.66666" lon="2.24624">
        <ele>61.6</ele>
        <time>2016-05-06T09:20:59Z</time>
      </trkpt>
      <trkpt lat="50.66666" lon="2.24606">
        <ele>61.9</ele>
        <time>2016-05-06T09:21:01Z</time>
      </trkpt>
      <trkpt lat="50.66666" lon="2.24588">
        <ele>62.2</ele>
        <time>2016-05-06T09:21:03Z</time>
      </trkpt>
      <trkpt lat="50.66666" lon="2.2457">
        <ele>62.5</ele>
        <time>2016-05-06T09:21:05Z</time>
      </trkpt>
      <trkpt lat="50.66667" lon="2.24552">
        <ele>62.8</ele>
        <time>2016-05-06T09:21:07Z</time>
      </trkpt>
      <trkpt lat="50.66669" lon="2.24534">
        <ele>63</ele>
        <time>2016-05-06T09:21:09Z</time>
      </trkpt>
      <trkpt lat="50.66672" lon="2.24516">
        <ele>63.3</ele>
        <time>2016-05-06T09:21:11Z</time>
      </trkpt>
      <trkpt lat="50.66674" lon="2.24498">
        <ele>63.6</ele>
        <time>2016-05-06T09:21:13Z</time>
      </trkpt>
      <trkpt lat="50.66676" lon="2.2448">
        <ele>63.9</ele>
        <time>2016-05-06T09:21:15Z</time>
      </trkpt>
      <trkpt lat="50.66679" lon="2.24462">
        <ele>63.7</ele>
        <time>2016-05-06T09:21:17Z</time>
      </trkpt>
      <trkpt lat="50.66681" lon="2.24444">
        <ele>64.2</ele>
        <time>2016-05-06T09:21:19Z</time>
      </trkpt>
      <trkpt lat="50.66683" lon="2.24427">
        <ele>64.5</ele>
        <time>2016-05-06T09:21:21Z</time>
      </trkpt>
      <trkpt lat="50.66685" lon="2.2441">
        <ele>64.8</ele>
        <time>2016-05-06T09:21:23Z</time>
      </trkpt>
      <trkpt lat="50.66689" lon="2.24395">
        <ele>65.1</ele>
        <time>2016-05-06T09:21:25Z</time>
      </trkpt>
      <trkpt lat="50.66696" lon="2.24381">
        <ele>65.3</ele>
        <time>2016-05-06T09:21:27Z</time>
      </trkpt>
      <trkpt lat="50.66706" lon="2.24372">
        <ele>65.5</ele>
        <time>2016-05-06T09:21:29Z</time>
      </trkpt>
      <trkpt lat="50.66716" lon="2.24367">
        <ele>65.9</ele>
        <time>2016-05-06T09:21:31Z</time>
      </trkpt>
      <trkpt lat="50.66726" lon="2.24362">
        <ele>66.2</ele>
        <time>2016-05-06T09:21:33Z</time>
      </trkpt>
      <trkpt lat="50.66736" lon="2.2436">
        <ele>66.6</ele>
        <time>2016-05-06T09:21:35Z</time>
      </trkpt>
      <trkpt lat="50.66746" lon="2.24356">
        <ele>66.9</ele>
        <time>2016-05-06T09:21:37Z</time>
      </trkpt>
      <trkpt lat="50.66756" lon="2.24352">
        <ele>67.2</ele>
        <time>2016-05-06T09:21:39Z</time>
      </trkpt>
      <trkpt lat="50.66765" lon="2.24345">
        <ele>67.6</ele>
        <time>2016-05-06T09:21:41Z</time>
      </trkpt>
      <trkpt lat="50.66772" lon="2.24335">
        <ele>67.9</ele>
        <time>2016-05-06T09:21:43Z</time>
      </trkpt>
      <trkpt lat="50.66776" lon="2.24321">
        <ele>68.3</ele>
        <time>2016-05-06T09:21:45Z</time>
      </trkpt>
      <trkpt lat="50.66777" lon="2.24305">
        <ele>68.6</ele>
        <time>2016-05-06T09:21:47Z</time>
      </trkpt>
      <trkpt lat="50.66778" lon="2.24287">
        <ele>69.1</ele>
        <time>2016-05-06T09:21:49Z</time>
      </trkpt>
      <trkpt lat="50.66779" lon="2.24271">
        <ele>69.5</ele>
        <time>2016-05-06T09:21:51Z</time>
      </trkpt>
      <trkpt lat="50.66782" lon="2.24255">
        <ele>69.9</ele>
        <time>2016-05-06T09:21:53Z</time>
      </trkpt>
      <trkpt lat="50.66784" lon="2.24238">
        <ele>70.3</ele>
        <time>2016-05-06T09:21:55Z</time>
      </trkpt>
      <trkpt lat="50.66786" lon="2.24221">
        <ele>70.6</ele>
        <time>2016-05-06T09:21:57Z</time>
      </trkpt>
      <trkpt lat="50.66787" lon="2.24202">
        <ele>71</ele>
        <time>2016-05-06T09:21:59Z</time>
      </trkpt>
      <trkpt lat="50.66788" lon="2.24183">
        <ele>71.3</ele>
        <time>2016-05-06T09:22:01Z</time>
      </trkpt>
      <trkpt lat="50.66789" lon="2.24165">
        <ele>71.7</ele>
        <time>2016-05-06T09:22:03Z</time>
      </trkpt>
      <trkpt lat="50.66789" lon="2.24145">
        <ele>72</ele>
        <time>2016-05-06T09:22:05Z</time>
      </trkpt>
      <trkpt lat="50.66788" lon="2.24126">
        <ele>72.4</ele>
        <time>2016-05-06T09:22:07Z</time>
      </trkpt>
      <trkpt lat="50.66786" lon="2.24106">
        <ele>72.7</ele>
        <time>2016-05-06T09:22:09Z</time>
      </trkpt>
      <trkpt lat="50.66783" lon="2.24087">
        <ele>73.1</ele>
        <time>2016-05-06T09:22:11Z</time>
      </trkpt>
      <trkpt lat="50.66781" lon="2.24068">
        <ele>73.4</ele>
        <time>2016-05-06T09:22:13Z</time>
      </trkpt>
      <trkpt lat="50.66778" lon="2.24049">
        <ele>73.7</ele>
        <time>2016-05-06T09:22:15Z</time>
      </trkpt>
      <trkpt lat="50.66775" lon="2.24031">
        <ele>74.1</ele>
        <time>2016-05-06T09:22:17Z</time>
      </trkpt>
      <trkpt lat="50.66773" lon="2.24013">
        <ele>74.4</ele>
        <time>2016-05-06T09:22:19Z</time>
      </trkpt>
      <trkpt lat="50.6677" lon="2.23995">
        <ele>74.8</ele>
        <time>2016-05-06T09:22:21Z</time>
      </trkpt>
      <trkpt lat="50.66768" lon="2.23978">
        <ele>75.1</ele>
        <time>2016-05-06T09:22:23Z</time>
      </trkpt>
      <trkpt lat="50.66766" lon="2.2396">
        <ele>75.5</ele>
        <time>2016-05-06T09:22:25Z</time>
      </trkpt>
      <trkpt lat="50.66765" lon="2.23942">
        <ele>76.1</ele>
        <time>2016-05-06T09:22:27Z</time>
      </trkpt>
      <trkpt lat="50.66763" lon="2.23925">
        <ele>76.5</ele>
        <time>2016-05-06T09:22:29Z</time>
      </trkpt>
      <trkpt lat="50.66762" lon="2.23908">
        <ele>76.9</ele>
        <time>2016-05-06T09:22:31Z</time>
      </trkpt>
      <trkpt lat="50.6676" lon="2.23893">
        <ele>77.3</ele>
        <time>2016-05-06T09:22:33Z</time>
      </trkpt>
      <trkpt lat="50.66752" lon="2.23884">
        <ele>77.6</ele>
        <time>2016-05-06T09:22:35Z</time>
      </trkpt>
      <trkpt lat="50.66739" lon="2.23881">
        <ele>77.9</ele>
        <time>2016-05-06T09:22:37Z</time>
      </trkpt>
      <trkpt lat="50.66726" lon="2.23877">
        <ele>78.1</ele>
        <time>2016-05-06T09:22:39Z</time>
      </trkpt>
      <trkpt lat="50.66712" lon="2.23869">
        <ele>78.3</ele>
        <time>2016-05-06T09:22:41Z</time>
      </trkpt>
      <trkpt lat="50.66697" lon="2.23857">
        <ele>78.2</ele>
        <time>2016-05-06T09:22:43Z</time>
      </trkpt>
      <trkpt lat="50.66689" lon="2.2385">
        <ele>78.1</ele>
        <time>2016-05-06T09:22:44Z</time>
      </trkpt>
      <trkpt lat="50.66681" lon="2.23842">
        <ele>77.9</ele>
        <time>2016-05-06T09:22:45Z</time>
      </trkpt>
      <trkpt lat="50.66674" lon="2.23834">
        <ele>77.7</ele>
        <time>2016-05-06T09:22:46Z</time>
      </trkpt>
      <trkpt lat="50.66667" lon="2.23824">
        <ele>77.5</ele>
        <time>2016-05-06T09:22:47Z</time>
      </trkpt>
      <trkpt lat="50.6666" lon="2.23814">
        <ele>77.3</ele>
        <time>2016-05-06T09:22:48Z</time>
      </trkpt>
      <trkpt lat="50.66653" lon="2.23802">
        <ele>77</ele>
        <time>2016-05-06T09:22:49Z</time>
      </trkpt>
      <trkpt lat="50.66647" lon="2.23789">
        <ele>76.8</ele>
        <time>2016-05-06T09:22:50Z</time>
      </trkpt>
      <trkpt lat="50.66642" lon="2.23775">
        <ele>76.5</ele>
        <time>2016-05-06T09:22:51Z</time>
      </trkpt>
      <trkpt lat="50.66637" lon="2.23762">
        <ele>76.2</ele>
        <time>2016-05-06T09:22:52Z</time>
      </trkpt>
      <trkpt lat="50.66633" lon="2.23748">
        <ele>75.9</ele>
        <time>2016-05-06T09:22:53Z</time>
      </trkpt>
      <trkpt lat="50.66628" lon="2.23735">
        <ele>75.6</ele>
        <time>2016-05-06T09:22:54Z</time>
      </trkpt>
      <trkpt lat="50.66623" lon="2.23721">
        <ele>75.3</ele>
        <time>2016-05-06T09:22:55Z</time>
      </trkpt>
      <trkpt lat="50.66618" lon="2.23708">
        <ele>75</ele>
        <time>2016-05-06T09:22:56Z</time>
      </trkpt>
      <trkpt lat="50.66612" lon="2.23695">
        <ele>74.7</ele>
        <time>2016-05-06T09:22:57Z</time>
      </trkpt>
      <trkpt lat="50.66608" lon="2.23683">
        <ele>74.4</ele>
        <time>2016-05-06T09:22:58Z</time>
      </trkpt>
      <trkpt lat="50.66597" lon="2.2366">
        <ele>73.7</ele>
        <time>2016-05-06T09:23:00Z</time>
      </trkpt>
      <trkpt lat="50.6659" lon="2.23649">
        <ele>73.4</ele>
        <time>2016-05-06T09:23:01Z</time>
      </trkpt>
      <trkpt lat="50.66578" lon="2.23633">
        <ele>72.9</ele>
        <time>2016-05-06T09:23:03Z</time>
      </trkpt>
      <trkpt lat="50.66565" lon="2.2362">
        <ele>72.5</ele>
        <time>2016-05-06T09:23:05Z</time>
      </trkpt>
      <trkpt lat="50.66554" lon="2.2361">
        <ele>72.1</ele>
        <time>2016-05-06T09:23:07Z</time>
      </trkpt>
      <trkpt lat="50.66542" lon="2.23601">
        <ele>71.7</ele>
        <time>2016-05-06T09:23:09Z</time>
      </trkpt>
      <trkpt lat="50.66531" lon="2.23592">
        <ele>71.5</ele>
        <time>2016-05-06T09:23:11Z</time>
      </trkpt>
      <trkpt lat="50.66521" lon="2.23585">
        <ele>71.4</ele>
        <time>2016-05-06T09:23:13Z</time>
      </trkpt>
      <trkpt lat="50.66511" lon="2.23577">
        <ele>71.4</ele>
        <time>2016-05-06T09:23:15Z</time>
      </trkpt>
      <trkpt lat="50.66501" lon="2.23568">
        <ele>71.5</ele>
        <time>2016-05-06T09:23:17Z</time>
      </trkpt>
      <trkpt lat="50.66491" lon="2.2356">
        <ele>71.5</ele>
        <time>2016-05-06T09:23:19Z</time>
      </trkpt>
      <trkpt lat="50.66481" lon="2.23552">
        <ele>71.6</ele>
        <time>2016-05-06T09:23:21Z</time>
      </trkpt>
      <trkpt lat="50.66472" lon="2.23544">
        <ele>71.8</ele>
        <time>2016-05-06T09:23:23Z</time>
      </trkpt>
      <trkpt lat="50.66464" lon="2.23536">
        <ele>72.1</ele>
        <time>2016-05-06T09:23:25Z</time>
      </trkpt>
      <trkpt lat="50.66455" lon="2.23528">
        <ele>72.4</ele>
        <time>2016-05-06T09:23:27Z</time>
      </trkpt>
      <trkpt lat="50.66447" lon="2.2352">
        <ele>72.7</ele>
        <time>2016-05-06T09:23:29Z</time>
      </trkpt>
      <trkpt lat="50.66438" lon="2.23513">
        <ele>73.1</ele>
        <time>2016-05-06T09:23:31Z</time>
      </trkpt>
      <trkpt lat="50.6643" lon="2.23506">
        <ele>73.4</ele>
        <time>2016-05-06T09:23:33Z</time>
      </trkpt>
      <trkpt lat="50.66421" lon="2.23498">
        <ele>73.7</ele>
        <time>2016-05-06T09:23:35Z</time>
      </trkpt>
      <trkpt lat="50.66412" lon="2.23491">
        <ele>74</ele>
        <time>2016-05-06T09:23:37Z</time>
      </trkpt>
      <trkpt lat="50.66404" lon="2.23483">
        <ele>74.4</ele>
        <time>2016-05-06T09:23:39Z</time>
      </trkpt>
      <trkpt lat="50.66395" lon="2.23475">
        <ele>74.9</ele>
        <time>2016-05-06T09:23:41Z</time>
      </trkpt>
      <trkpt lat="50.66388" lon="2.23466">
        <ele>75.2</ele>
        <time>2016-05-06T09:23:43Z</time>
      </trkpt>
      <trkpt lat="50.66381" lon="2.23457">
        <ele>75.7</ele>
        <time>2016-05-06T09:23:45Z</time>
      </trkpt>
      <trkpt lat="50.66373" lon="2.23448">
        <ele>76.2</ele>
        <time>2016-05-06T09:23:47Z</time>
      </trkpt>
      <trkpt lat="50.66366" lon="2.23438">
        <ele>76.6</ele>
        <time>2016-05-06T09:23:49Z</time>
      </trkpt>
      <trkpt lat="50.66359" lon="2.23428">
        <ele>77.1</ele>
        <time>2016-05-06T09:23:51Z</time>
      </trkpt>
      <trkpt lat="50.66352" lon="2.23419">
        <ele>77.5</ele>
        <time>2016-05-06T09:23:53Z</time>
      </trkpt>
      <trkpt lat="50.66342" lon="2.23405">
        <ele>78.2</ele>
        <time>2016-05-06T09:23:56Z</time>
      </trkpt>
      <trkpt lat="50.66335" lon="2.23395">
        <ele>78.6</ele>
        <time>2016-05-06T09:23:58Z</time>
      </trkpt>
      <trkpt lat="50.66327" lon="2.23386">
        <ele>79.1</ele>
        <time>2016-05-06T09:24:00Z</time>
      </trkpt>
      <trkpt lat="50.6632" lon="2.23376">
        <ele>79.5</ele>
        <time>2016-05-06T09:24:02Z</time>
      </trkpt>
      <trkpt lat="50.66313" lon="2.23367">
        <ele>79.9</ele>
        <time>2016-05-06T09:24:04Z</time>
      </trkpt>
      <trkpt lat="50.66307" lon="2.23357">
        <ele>80.4</ele>
        <time>2016-05-06T09:24:06Z</time>
      </trkpt>
      <trkpt lat="50.663" lon="2.23347">
        <ele>80.8</ele>
        <time>2016-05-06T09:24:08Z</time>
      </trkpt>
      <trkpt lat="50.66293" lon="2.23338">
        <ele>81.3</ele>
        <time>2016-05-06T09:24:10Z</time>
      </trkpt>
      <trkpt lat="50.66285" lon="2.23329">
        <ele>81.7</ele>
        <time>2016-05-06T09:24:12Z</time>
      </trkpt>
      <trkpt lat="50.66279" lon="2.2332">
        <ele>82.2</ele>
        <time>2016-05-06T09:24:14Z</time>
      </trkpt>
      <trkpt lat="50.66272" lon="2.23309">
        <ele>82.7</ele>
        <time>2016-05-06T09:24:16Z</time>
      </trkpt>
      <trkpt lat="50.66266" lon="2.23298">
        <ele>83.2</ele>
        <time>2016-05-06T09:24:18Z</time>
      </trkpt>
      <trkpt lat="50.6626" lon="2.23286">
        <ele>83.7</ele>
        <time>2016-05-06T09:24:20Z</time>
      </trkpt>
      <trkpt lat="50.66255" lon="2.23273">
        <ele>84.2</ele>
        <time>2016-05-06T09:24:22Z</time>
      </trkpt>
      <trkpt lat="50.66251" lon="2.23258">
        <ele>84.6</ele>
        <time>2016-05-06T09:24:24Z</time>
      </trkpt>
      <trkpt lat="50.66247" lon="2.23243">
        <ele>84.9</ele>
        <time>2016-05-06T09:24:26Z</time>
      </trkpt>
      <trkpt lat="50.66243" lon="2.23228">
        <ele>85.3</ele>
        <time>2016-05-06T09:24:28Z</time>
      </trkpt>
      <trkpt lat="50.66239" lon="2.23212">
        <ele>85.8</ele>
        <time>2016-05-06T09:24:30Z</time>
      </trkpt>
      <trkpt lat="50.66235" lon="2.23195">
        <ele>86.2</ele>
        <time>2016-05-06T09:24:32Z</time>
      </trkpt>
      <trkpt lat="50.6623" lon="2.23178">
        <ele>86.5</ele>
        <time>2016-05-06T09:24:34Z</time>
      </trkpt>
      <trkpt lat="50.66226" lon="2.23161">
        <ele>86.9</ele>
        <time>2016-05-06T09:24:36Z</time>
      </trkpt>
      <trkpt lat="50.66221" lon="2.23144">
        <ele>87.2</ele>
        <time>2016-05-06T09:24:38Z</time>
      </trkpt>
      <trkpt lat="50.66217" lon="2.23127">
        <ele>87.6</ele>
        <time>2016-05-06T09:24:40Z</time>
      </trkpt>
      <trkpt lat="50.66212" lon="2.23109">
        <ele>87.9</ele>
        <time>2016-05-06T09:24:42Z</time>
      </trkpt>
      <trkpt lat="50.66207" lon="2.23092">
        <ele>88.2</ele>
        <time>2016-05-06T09:24:44Z</time>
      </trkpt>
      <trkpt lat="50.66202" lon="2.23074">
        <ele>88.6</ele>
        <time>2016-05-06T09:24:46Z</time>
      </trkpt>
      <trkpt lat="50.66197" lon="2.23056">
        <ele>88.9</ele>
        <time>2016-05-06T09:24:48Z</time>
      </trkpt>
      <trkpt lat="50.66191" lon="2.23038">
        <ele>89.2</ele>
        <time>2016-05-06T09:24:50Z</time>
      </trkpt>
      <trkpt lat="50.66186" lon="2.2302">
        <ele>89.5</ele>
        <time>2016-05-06T09:24:52Z</time>
      </trkpt>
      <trkpt lat="50.6618" lon="2.23002">
        <ele>89.7</ele>
        <time>2016-05-06T09:24:54Z</time>
      </trkpt>
      <trkpt lat="50.66174" lon="2.22985">
        <ele>90</ele>
        <time>2016-05-06T09:24:56Z</time>
      </trkpt>
      <trkpt lat="50.66168" lon="2.22967">
        <ele>90.3</ele>
        <time>2016-05-06T09:24:58Z</time>
      </trkpt>
      <trkpt lat="50.66162" lon="2.2295">
        <ele>90.6</ele>
        <time>2016-05-06T09:25:00Z</time>
      </trkpt>
      <trkpt lat="50.66156" lon="2.22933">
        <ele>90.9</ele>
        <time>2016-05-06T09:25:02Z</time>
      </trkpt>
      <trkpt lat="50.6615" lon="2.22916">
        <ele>91.3</ele>
        <time>2016-05-06T09:25:04Z</time>
      </trkpt>
      <trkpt lat="50.66144" lon="2.22899">
        <ele>91.7</ele>
        <time>2016-05-06T09:25:06Z</time>
      </trkpt>
      <trkpt lat="50.66138" lon="2.22882">
        <ele>92</ele>
        <time>2016-05-06T09:25:08Z</time>
      </trkpt>
      <trkpt lat="50.66132" lon="2.22864">
        <ele>92.3</ele>
        <time>2016-05-06T09:25:10Z</time>
      </trkpt>
      <trkpt lat="50.66126" lon="2.22846">
        <ele>92.6</ele>
        <time>2016-05-06T09:25:12Z</time>
      </trkpt>
      <trkpt lat="50.66121" lon="2.22827">
        <ele>92.9</ele>
        <time>2016-05-06T09:25:14Z</time>
      </trkpt>
      <trkpt lat="50.66118" lon="2.22806">
        <ele>93</ele>
        <time>2016-05-06T09:25:16Z</time>
      </trkpt>
      <trkpt lat="50.66118" lon="2.22783">
        <ele>93</ele>
        <time>2016-05-06T09:25:18Z</time>
      </trkpt>
      <trkpt lat="50.66118" lon="2.22761">
        <ele>93.1</ele>
        <time>2016-05-06T09:25:20Z</time>
      </trkpt>
      <trkpt lat="50.66118" lon="2.22738">
        <ele>93.1</ele>
        <time>2016-05-06T09:25:22Z</time>
      </trkpt>
      <trkpt lat="50.66119" lon="2.22716">
        <ele>93.2</ele>
        <time>2016-05-06T09:25:24Z</time>
      </trkpt>
      <trkpt lat="50.66119" lon="2.22693">
        <ele>93.2</ele>
        <time>2016-05-06T09:25:26Z</time>
      </trkpt>
      <trkpt lat="50.6612" lon="2.2267">
        <ele>93.2</ele>
        <time>2016-05-06T09:25:28Z</time>
      </trkpt>
      <trkpt lat="50.66119" lon="2.22647">
        <ele>93.2</ele>
        <time>2016-05-06T09:25:30Z</time>
      </trkpt>
      <trkpt lat="50.66117" lon="2.22624">
        <ele>93.3</ele>
        <time>2016-05-06T09:25:32Z</time>
      </trkpt>
      <trkpt lat="50.66111" lon="2.22602">
        <ele>93.3</ele>
        <time>2016-05-06T09:25:34Z</time>
      </trkpt>
      <trkpt lat="50.66104" lon="2.22582">
        <ele>93.3</ele>
        <time>2016-05-06T09:25:36Z</time>
      </trkpt>
      <trkpt lat="50.66097" lon="2.22563">
        <ele>93.3</ele>
        <time>2016-05-06T09:25:38Z</time>
      </trkpt>
      <trkpt lat="50.66089" lon="2.22546">
        <ele>93.3</ele>
        <time>2016-05-06T09:25:40Z</time>
      </trkpt>
      <trkpt lat="50.66082" lon="2.22528">
        <ele>93.4</ele>
        <time>2016-05-06T09:25:42Z</time>
      </trkpt>
      <trkpt lat="50.66075" lon="2.22511">
        <ele>93.4</ele>
        <time>2016-05-06T09:25:44Z</time>
      </trkpt>
      <trkpt lat="50.66069" lon="2.22495">
        <ele>93.5</ele>
        <time>2016-05-06T09:25:46Z</time>
      </trkpt>
      <trkpt lat="50.66062" lon="2.22478">
        <ele>93.5</ele>
        <time>2016-05-06T09:25:48Z</time>
      </trkpt>
      <trkpt lat="50.66055" lon="2.22463">
        <ele>93.5</ele>
        <time>2016-05-06T09:25:50Z</time>
      </trkpt>
      <trkpt lat="50.66048" lon="2.22448">
        <ele>93.6</ele>
        <time>2016-05-06T09:25:52Z</time>
      </trkpt>
      <trkpt lat="50.66041" lon="2.22433">
        <ele>93.7</ele>
        <time>2016-05-06T09:25:54Z</time>
      </trkpt>
      <trkpt lat="50.66033" lon="2.22419">
        <ele>93.8</ele>
        <time>2016-05-06T09:25:56Z</time>
      </trkpt>
      <trkpt lat="50.66025" lon="2.22404">
        <ele>94</ele>
        <time>2016-05-06T09:25:58Z</time>
      </trkpt>
      <trkpt lat="50.66017" lon="2.22391">
        <ele>94.3</ele>
        <time>2016-05-06T09:26:00Z</time>
      </trkpt>
      <trkpt lat="50.66009" lon="2.22377">
        <ele>94.5</ele>
        <time>2016-05-06T09:26:02Z</time>
      </trkpt>
      <trkpt lat="50.66" lon="2.22363">
        <ele>94.7</ele>
        <time>2016-05-06T09:26:04Z</time>
      </trkpt>
      <trkpt lat="50.65991" lon="2.2235">
        <ele>94.9</ele>
        <time>2016-05-06T09:26:06Z</time>
      </trkpt>
      <trkpt lat="50.65982" lon="2.22337">
        <ele>95</ele>
        <time>2016-05-06T09:26:08Z</time>
      </trkpt>
      <trkpt lat="50.65971" lon="2.22323">
        <ele>95.2</ele>
        <time>2016-05-06T09:26:10Z</time>
      </trkpt>
      <trkpt lat="50.65962" lon="2.2231">
        <ele>95.4</ele>
        <time>2016-05-06T09:26:12Z</time>
      </trkpt>
      <trkpt lat="50.65952" lon="2.22297">
        <ele>95.5</ele>
        <time>2016-05-06T09:26:14Z</time>
      </trkpt>
      <trkpt lat="50.65943" lon="2.22285">
        <ele>95.6</ele>
        <time>2016-05-06T09:26:16Z</time>
      </trkpt>
      <trkpt lat="50.65933" lon="2.22272">
        <ele>95.7</ele>
        <time>2016-05-06T09:26:18Z</time>
      </trkpt>
      <trkpt lat="50.65924" lon="2.22259">
        <ele>95.7</ele>
        <time>2016-05-06T09:26:20Z</time>
      </trkpt>
      <trkpt lat="50.65918" lon="2.22244">
        <ele>95.6</ele>
        <time>2016-05-06T09:26:23Z</time>
      </trkpt>
      <trkpt lat="50.65927" lon="2.22227">
        <ele>95.4</ele>
        <time>2016-05-06T09:26:26Z</time>
      </trkpt>
      <trkpt lat="50.65939" lon="2.22214">
        <ele>95.1</ele>
        <time>2016-05-06T09:26:28Z</time>
      </trkpt>
      <trkpt lat="50.65953" lon="2.22199">
        <ele>94.7</ele>
        <time>2016-05-06T09:26:30Z</time>
      </trkpt>
      <trkpt lat="50.65966" lon="2.22184">
        <ele>94.2</ele>
        <time>2016-05-06T09:26:32Z</time>
      </trkpt>
      <trkpt lat="50.65979" lon="2.22166">
        <ele>93.6</ele>
        <time>2016-05-06T09:26:34Z</time>
      </trkpt>
      <trkpt lat="50.65991" lon="2.22148">
        <ele>93.1</ele>
        <time>2016-05-06T09:26:36Z</time>
      </trkpt>
      <trkpt lat="50.66004" lon="2.22129">
        <ele>92.6</ele>
        <time>2016-05-06T09:26:38Z</time>
      </trkpt>
      <trkpt lat="50.66017" lon="2.22109">
        <ele>92.1</ele>
        <time>2016-05-06T09:26:40Z</time>
      </trkpt>
      <trkpt lat="50.66023" lon="2.22098">
        <ele>91.8</ele>
        <time>2016-05-06T09:26:41Z</time>
      </trkpt>
      <trkpt lat="50.66029" lon="2.22088">
        <ele>91.4</ele>
        <time>2016-05-06T09:26:42Z</time>
      </trkpt>
      <trkpt lat="50.66036" lon="2.22077">
        <ele>91</ele>
        <time>2016-05-06T09:26:43Z</time>
      </trkpt>
      <trkpt lat="50.66042" lon="2.22066">
        <ele>90.6</ele>
        <time>2016-05-06T09:26:44Z</time>
      </trkpt>
      <trkpt lat="50.66049" lon="2.22055">
        <ele>90.3</ele>
        <time>2016-05-06T09:26:45Z</time>
      </trkpt>
      <trkpt lat="50.66055" lon="2.22044">
        <ele>90</ele>
        <time>2016-05-06T09:26:46Z</time>
      </trkpt>
      <trkpt lat="50.66062" lon="2.22034">
        <ele>89.6</ele>
        <time>2016-05-06T09:26:47Z</time>
      </trkpt>
      <trkpt lat="50.66068" lon="2.22023">
        <ele>89.2</ele>
        <time>2016-05-06T09:26:48Z</time>
      </trkpt>
      <trkpt lat="50.66074" lon="2.22012">
        <ele>88.9</ele>
        <time>2016-05-06T09:26:49Z</time>
      </trkpt>
      <trkpt lat="50.66081" lon="2.22002">
        <ele>88.6</ele>
        <time>2016-05-06T09:26:50Z</time>
      </trkpt>
      <trkpt lat="50.66093" lon="2.21983">
        <ele>87.9</ele>
        <time>2016-05-06T09:26:52Z</time>
      </trkpt>
      <trkpt lat="50.66104" lon="2.21966">
        <ele>87.2</ele>
        <time>2016-05-06T09:26:54Z</time>
      </trkpt>
      <trkpt lat="50.66115" lon="2.21953">
        <ele>86.7</ele>
        <time>2016-05-06T09:26:56Z</time>
      </trkpt>
      <trkpt lat="50.66124" lon="2.2194">
        <ele>86.3</ele>
        <time>2016-05-06T09:26:58Z</time>
      </trkpt>
      <trkpt lat="50.66133" lon="2.21927">
        <ele>86</ele>
        <time>2016-05-06T09:27:00Z</time>
      </trkpt>
      <trkpt lat="50.66142" lon="2.21917">
        <ele>85.8</ele>
        <time>2016-05-06T09:27:02Z</time>
      </trkpt>
      <trkpt lat="50.6615" lon="2.21906">
        <ele>85.8</ele>
        <time>2016-05-06T09:27:04Z</time>
      </trkpt>
      <trkpt lat="50.66158" lon="2.21895">
        <ele>85.9</ele>
        <time>2016-05-06T09:27:06Z</time>
      </trkpt>
      <trkpt lat="50.66166" lon="2.21885">
        <ele>86.1</ele>
        <time>2016-05-06T09:27:08Z</time>
      </trkpt>
      <trkpt lat="50.66174" lon="2.21875">
        <ele>86.4</ele>
        <time>2016-05-06T09:27:10Z</time>
      </trkpt>
      <trkpt lat="50.66182" lon="2.21865">
        <ele>86.7</ele>
        <time>2016-05-06T09:27:12Z</time>
      </trkpt>
      <trkpt lat="50.66189" lon="2.21855">
        <ele>86.9</ele>
        <time>2016-05-06T09:27:14Z</time>
      </trkpt>
      <trkpt lat="50.66196" lon="2.21845">
        <ele>87.3</ele>
        <time>2016-05-06T09:27:16Z</time>
      </trkpt>
      <trkpt lat="50.66206" lon="2.21831">
        <ele>87.9</ele>
        <time>2016-05-06T09:27:19Z</time>
      </trkpt>
      <trkpt lat="50.66215" lon="2.21817">
        <ele>88.6</ele>
        <time>2016-05-06T09:27:22Z</time>
      </trkpt>
      <trkpt lat="50.66222" lon="2.21808">
        <ele>89.1</ele>
        <time>2016-05-06T09:27:24Z</time>
      </trkpt>
      <trkpt lat="50.66229" lon="2.21798">
        <ele>89.5</ele>
        <time>2016-05-06T09:27:26Z</time>
      </trkpt>
      <trkpt lat="50.66236" lon="2.21788">
        <ele>89.9</ele>
        <time>2016-05-06T09:27:28Z</time>
      </trkpt>
      <trkpt lat="50.66243" lon="2.21778">
        <ele>90.4</ele>
        <time>2016-05-06T09:27:30Z</time>
      </trkpt>
      <trkpt lat="50.66249" lon="2.21768">
        <ele>90.8</ele>
        <time>2016-05-06T09:27:32Z</time>
      </trkpt>
      <trkpt lat="50.66256" lon="2.21758">
        <ele>91.2</ele>
        <time>2016-05-06T09:27:34Z</time>
      </trkpt>
      <trkpt lat="50.66263" lon="2.21748">
        <ele>91.6</ele>
        <time>2016-05-06T09:27:36Z</time>
      </trkpt>
      <trkpt lat="50.6627" lon="2.21738">
        <ele>91.9</ele>
        <time>2016-05-06T09:27:38Z</time>
      </trkpt>
      <trkpt lat="50.66277" lon="2.21728">
        <ele>92.4</ele>
        <time>2016-05-06T09:27:40Z</time>
      </trkpt>
      <trkpt lat="50.66284" lon="2.21718">
        <ele>92.8</ele>
        <time>2016-05-06T09:27:42Z</time>
      </trkpt>
      <trkpt lat="50.66291" lon="2.21707">
        <ele>93.2</ele>
        <time>2016-05-06T09:27:44Z</time>
      </trkpt>
      <trkpt lat="50.66298" lon="2.21696">
        <ele>93.6</ele>
        <time>2016-05-06T09:27:46Z</time>
      </trkpt>
      <trkpt lat="50.66304" lon="2.21684">
        <ele>94</ele>
        <time>2016-05-06T09:27:48Z</time>
      </trkpt>
      <trkpt lat="50.66311" lon="2.21673">
        <ele>94.4</ele>
        <time>2016-05-06T09:27:50Z</time>
      </trkpt>
      <trkpt lat="50.66319" lon="2.21661">
        <ele>94.9</ele>
        <time>2016-05-06T09:27:52Z</time>
      </trkpt>
      <trkpt lat="50.66326" lon="2.21649">
        <ele>95.4</ele>
        <time>2016-05-06T09:27:54Z</time>
      </trkpt>
      <trkpt lat="50.66333" lon="2.21637">
        <ele>95.9</ele>
        <time>2016-05-06T09:27:56Z</time>
      </trkpt>
      <trkpt lat="50.66339" lon="2.21625">
        <ele>96.3</ele>
        <time>2016-05-06T09:27:58Z</time>
      </trkpt>
      <trkpt lat="50.66346" lon="2.21614">
        <ele>96.7</ele>
        <time>2016-05-06T09:28:00Z</time>
      </trkpt>
      <trkpt lat="50.66353" lon="2.21602">
        <ele>97.2</ele>
        <time>2016-05-06T09:28:02Z</time>
      </trkpt>
      <trkpt lat="50.66361" lon="2.21591">
        <ele>97.6</ele>
        <time>2016-05-06T09:28:04Z</time>
      </trkpt>
      <trkpt lat="50.66368" lon="2.21579">
        <ele>98.1</ele>
        <time>2016-05-06T09:28:06Z</time>
      </trkpt>
      <trkpt lat="50.66375" lon="2.21567">
        <ele>98.5</ele>
        <time>2016-05-06T09:28:08Z</time>
      </trkpt>
      <trkpt lat="50.66382" lon="2.21555">
        <ele>98.9</ele>
        <time>2016-05-06T09:28:10Z</time>
      </trkpt>
      <trkpt lat="50.66389" lon="2.21543">
        <ele>99.3</ele>
        <time>2016-05-06T09:28:12Z</time>
      </trkpt>
      <trkpt lat="50.66396" lon="2.21531">
        <ele>99.7</ele>
        <time>2016-05-06T09:28:14Z</time>
      </trkpt>
      <trkpt lat="50.66403" lon="2.21518">
        <ele>100.1</ele>
        <time>2016-05-06T09:28:16Z</time>
      </trkpt>
      <trkpt lat="50.6641" lon="2.21506">
        <ele>100.5</ele>
        <time>2016-05-06T09:28:18Z</time>
      </trkpt>
      <trkpt lat="50.66418" lon="2.21494">
        <ele>101</ele>
        <time>2016-05-06T09:28:20Z</time>
      </trkpt>
      <trkpt lat="50.66426" lon="2.21482">
        <ele>101.4</ele>
        <time>2016-05-06T09:28:22Z</time>
      </trkpt>
      <trkpt lat="50.66434" lon="2.21471">
        <ele>101.8</ele>
        <time>2016-05-06T09:28:24Z</time>
      </trkpt>
      <trkpt lat="50.66443" lon="2.2146">
        <ele>102.3</ele>
        <time>2016-05-06T09:28:26Z</time>
      </trkpt>
      <trkpt lat="50.66452" lon="2.21449">
        <ele>102.7</ele>
        <time>2016-05-06T09:28:28Z</time>
      </trkpt>
      <trkpt lat="50.66461" lon="2.21437">
        <ele>103.1</ele>
        <time>2016-05-06T09:28:30Z</time>
      </trkpt>
      <trkpt lat="50.6647" lon="2.21427">
        <ele>103.6</ele>
        <time>2016-05-06T09:28:32Z</time>
      </trkpt>
      <trkpt lat="50.66479" lon="2.21416">
        <ele>103.9</ele>
        <time>2016-05-06T09:28:34Z</time>
      </trkpt>
      <trkpt lat="50.66487" lon="2.21406">
        <ele>104.3</ele>
        <time>2016-05-06T09:28:36Z</time>
      </trkpt>
      <trkpt lat="50.66496" lon="2.21396">
        <ele>104.7</ele>
        <time>2016-05-06T09:28:38Z</time>
      </trkpt>
      <trkpt lat="50.66504" lon="2.21386">
        <ele>105.2</ele>
        <time>2016-05-06T09:28:40Z</time>
      </trkpt>
      <trkpt lat="50.66512" lon="2.21377">
        <ele>105.6</ele>
        <time>2016-05-06T09:28:42Z</time>
      </trkpt>
      <trkpt lat="50.6652" lon="2.21367">
        <ele>106</ele>
        <time>2016-05-06T09:28:44Z</time>
      </trkpt>
      <trkpt lat="50.66528" lon="2.21358">
        <ele>106.3</ele>
        <time>2016-05-06T09:28:46Z</time>
      </trkpt>
      <trkpt lat="50.66536" lon="2.21349">
        <ele>106.8</ele>
        <time>2016-05-06T09:28:48Z</time>
      </trkpt>
      <trkpt lat="50.66544" lon="2.2134">
        <ele>107.2</ele>
        <time>2016-05-06T09:28:50Z</time>
      </trkpt>
      <trkpt lat="50.66552" lon="2.2133">
        <ele>107.7</ele>
        <time>2016-05-06T09:28:52Z</time>
      </trkpt>
      <trkpt lat="50.6656" lon="2.2132">
        <ele>108.1</ele>
        <time>2016-05-06T09:28:54Z</time>
      </trkpt>
      <trkpt lat="50.66569" lon="2.21311">
        <ele>108.5</ele>
        <time>2016-05-06T09:28:56Z</time>
      </trkpt>
      <trkpt lat="50.66577" lon="2.21301">
        <ele>108.9</ele>
        <time>2016-05-06T09:28:58Z</time>
      </trkpt>
      <trkpt lat="50.66586" lon="2.21291">
        <ele>109.4</ele>
        <time>2016-05-06T09:29:00Z</time>
      </trkpt>
      <trkpt lat="50.66595" lon="2.21281">
        <ele>109.8</ele>
        <time>2016-05-06T09:29:02Z</time>
      </trkpt>
      <trkpt lat="50.66604" lon="2.21271">
        <ele>110.1</ele>
        <time>2016-05-06T09:29:04Z</time>
      </trkpt>
      <trkpt lat="50.66614" lon="2.2126">
        <ele>110.4</ele>
        <time>2016-05-06T09:29:06Z</time>
      </trkpt>
      <trkpt lat="50.66623" lon="2.21249">
        <ele>110.8</ele>
        <time>2016-05-06T09:29:08Z</time>
      </trkpt>
      <trkpt lat="50.66632" lon="2.21238">
        <ele>111.1</ele>
        <time>2016-05-06T09:29:10Z</time>
      </trkpt>
      <trkpt lat="50.66642" lon="2.21226">
        <ele>111.5</ele>
        <time>2016-05-06T09:29:12Z</time>
      </trkpt>
      <trkpt lat="50.6665" lon="2.21212">
        <ele>111.9</ele>
        <time>2016-05-06T09:29:14Z</time>
      </trkpt>
      <trkpt lat="50.66658" lon="2.21197">
        <ele>112.2</ele>
        <time>2016-05-06T09:29:16Z</time>
      </trkpt>
      <trkpt lat="50.66665" lon="2.21181">
        <ele>112.5</ele>
        <time>2016-05-06T09:29:18Z</time>
      </trkpt>
      <trkpt lat="50.66672" lon="2.21165">
        <ele>112.8</ele>
        <time>2016-05-06T09:29:20Z</time>
      </trkpt>
      <trkpt lat="50.66678" lon="2.21148">
        <ele>113.1</ele>
        <time>2016-05-06T09:29:22Z</time>
      </trkpt>
      <trkpt lat="50.66685" lon="2.21131">
        <ele>113.4</ele>
        <time>2016-05-06T09:29:24Z</time>
      </trkpt>
      <trkpt lat="50.66691" lon="2.21114">
        <ele>113.7</ele>
        <time>2016-05-06T09:29:26Z</time>
      </trkpt>
      <trkpt lat="50.66698" lon="2.21097">
        <ele>114</ele>
        <time>2016-05-06T09:29:28Z</time>
      </trkpt>
      <trkpt lat="50.66705" lon="2.21079">
        <ele>114.2</ele>
        <time>2016-05-06T09:29:30Z</time>
      </trkpt>
      <trkpt lat="50.66713" lon="2.21063">
        <ele>114.4</ele>
        <time>2016-05-06T09:29:32Z</time>
      </trkpt>
      <trkpt lat="50.6672" lon="2.21045">
        <ele>114.6</ele>
        <time>2016-05-06T09:29:34Z</time>
      </trkpt>
      <trkpt lat="50.66728" lon="2.21028">
        <ele>114.8</ele>
        <time>2016-05-06T09:29:36Z</time>
      </trkpt>
      <trkpt lat="50.66736" lon="2.2101">
        <ele>115</ele>
        <time>2016-05-06T09:29:38Z</time>
      </trkpt>
      <trkpt lat="50.66744" lon="2.20993">
        <ele>115.2</ele>
        <time>2016-05-06T09:29:40Z</time>
      </trkpt>
      <trkpt lat="50.66752" lon="2.20976">
        <ele>115.4</ele>
        <time>2016-05-06T09:29:42Z</time>
      </trkpt>
      <trkpt lat="50.66762" lon="2.20961">
        <ele>115.6</ele>
        <time>2016-05-06T09:29:44Z</time>
      </trkpt>
      <trkpt lat="50.66772" lon="2.20946">
        <ele>115.8</ele>
        <time>2016-05-06T09:29:46Z</time>
      </trkpt>
      <trkpt lat="50.66782" lon="2.20932">
        <ele>116</ele>
        <time>2016-05-06T09:29:48Z</time>
      </trkpt>
      <trkpt lat="50.66791" lon="2.20917">
        <ele>116.3</ele>
        <time>2016-05-06T09:29:50Z</time>
      </trkpt>
      <trkpt lat="50.66801" lon="2.20903">
        <ele>116.5</ele>
        <time>2016-05-06T09:29:52Z</time>
      </trkpt>
      <trkpt lat="50.6681" lon="2.20889">
        <ele>116.8</ele>
        <time>2016-05-06T09:29:54Z</time>
      </trkpt>
      <trkpt lat="50.6682" lon="2.20875">
        <ele>117.1</ele>
        <time>2016-05-06T09:29:56Z</time>
      </trkpt>
      <trkpt lat="50.6683" lon="2.20861">
        <ele>117.3</ele>
        <time>2016-05-06T09:29:58Z</time>
      </trkpt>
      <trkpt lat="50.6684" lon="2.20847">
        <ele>117.6</ele>
        <time>2016-05-06T09:30:00Z</time>
      </trkpt>
      <trkpt lat="50.66849" lon="2.20834">
        <ele>117.9</ele>
        <time>2016-05-06T09:30:02Z</time>
      </trkpt>
      <trkpt lat="50.66858" lon="2.20822">
        <ele>118.3</ele>
        <time>2016-05-06T09:30:04Z</time>
      </trkpt>
      <trkpt lat="50.66867" lon="2.20809">
        <ele>118.6</ele>
        <time>2016-05-06T09:30:06Z</time>
      </trkpt>
      <trkpt lat="50.66876" lon="2.20796">
        <ele>118.8</ele>
        <time>2016-05-06T09:30:08Z</time>
      </trkpt>
      <trkpt lat="50.66885" lon="2.20783">
        <ele>119.1</ele>
        <time>2016-05-06T09:30:10Z</time>
      </trkpt>
      <trkpt lat="50.66893" lon="2.2077">
        <ele>119.6</ele>
        <time>2016-05-06T09:30:12Z</time>
      </trkpt>
      <trkpt lat="50.66901" lon="2.20757">
        <ele>120.1</ele>
        <time>2016-05-06T09:30:14Z</time>
      </trkpt>
      <trkpt lat="50.6691" lon="2.20744">
        <ele>120.4</ele>
        <time>2016-05-06T09:30:16Z</time>
      </trkpt>
      <trkpt lat="50.66918" lon="2.2073">
        <ele>120.8</ele>
        <time>2016-05-06T09:30:18Z</time>
      </trkpt>
      <trkpt lat="50.66927" lon="2.20715">
        <ele>121.1</ele>
        <time>2016-05-06T09:30:20Z</time>
      </trkpt>
      <trkpt lat="50.66936" lon="2.20701">
        <ele>121.4</ele>
        <time>2016-05-06T09:30:22Z</time>
      </trkpt>
      <trkpt lat="50.66945" lon="2.20687">
        <ele>121.7</ele>
        <time>2016-05-06T09:30:24Z</time>
      </trkpt>
      <trkpt lat="50.66954" lon="2.20673">
        <ele>121.9</ele>
        <time>2016-05-06T09:30:26Z</time>
      </trkpt>
      <trkpt lat="50.66963" lon="2.20658">
        <ele>122.2</ele>
        <time>2016-05-06T09:30:28Z</time>
      </trkpt>
      <trkpt lat="50.66973" lon="2.20644">
        <ele>122.4</ele>
        <time>2016-05-06T09:30:30Z</time>
      </trkpt>
      <trkpt lat="50.66982" lon="2.20631">
        <ele>122.7</ele>
        <time>2016-05-06T09:30:32Z</time>
      </trkpt>
      <trkpt lat="50.6699" lon="2.20618">
        <ele>123</ele>
        <time>2016-05-06T09:30:34Z</time>
      </trkpt>
      <trkpt lat="50.66998" lon="2.20605">
        <ele>123.3</ele>
        <time>2016-05-06T09:30:36Z</time>
      </trkpt>
      <trkpt lat="50.67007" lon="2.20591">
        <ele>123.6</ele>
        <time>2016-05-06T09:30:38Z</time>
      </trkpt>
      <trkpt lat="50.67015" lon="2.20576">
        <ele>123.9</ele>
        <time>2016-05-06T09:30:40Z</time>
      </trkpt>
      <trkpt lat="50.67022" lon="2.20561">
        <ele>124.1</ele>
        <time>2016-05-06T09:30:42Z</time>
      </trkpt>
      <trkpt lat="50.6703" lon="2.20547">
        <ele>124.4</ele>
        <time>2016-05-06T09:30:44Z</time>
      </trkpt>
      <trkpt lat="50.67038" lon="2.20533">
        <ele>124.6</ele>
        <time>2016-05-06T09:30:46Z</time>
      </trkpt>
      <trkpt lat="50.67046" lon="2.20518">
        <ele>124.8</ele>
        <time>2016-05-06T09:30:48Z</time>
      </trkpt>
      <trkpt lat="50.67054" lon="2.20503">
        <ele>125.1</ele>
        <time>2016-05-06T09:30:50Z</time>
      </trkpt>
      <trkpt lat="50.67064" lon="2.20489">
        <ele>125.3</ele>
        <time>2016-05-06T09:30:52Z</time>
      </trkpt>
      <trkpt lat="50.67073" lon="2.20474">
        <ele>125.5</ele>
        <time>2016-05-06T09:30:54Z</time>
      </trkpt>
      <trkpt lat="50.67082" lon="2.20461">
        <ele>125.8</ele>
        <time>2016-05-06T09:30:56Z</time>
      </trkpt>
      <trkpt lat="50.6709" lon="2.20447">
        <ele>126</ele>
        <time>2016-05-06T09:30:58Z</time>
      </trkpt>
      <trkpt lat="50.67099" lon="2.20434">
        <ele>126.3</ele>
        <time>2016-05-06T09:31:00Z</time>
      </trkpt>
      <trkpt lat="50.67108" lon="2.20421">
        <ele>126.6</ele>
        <time>2016-05-06T09:31:02Z</time>
      </trkpt>
      <trkpt lat="50.67117" lon="2.20409">
        <ele>126.8</ele>
        <time>2016-05-06T09:31:04Z</time>
      </trkpt>
      <trkpt lat="50.67125" lon="2.20397">
        <ele>127.1</ele>
        <time>2016-05-06T09:31:06Z</time>
      </trkpt>
      <trkpt lat="50.67134" lon="2.20384">
        <ele>127.5</ele>
        <time>2016-05-06T09:31:08Z</time>
      </trkpt>
      <trkpt lat="50.67142" lon="2.20372">
        <ele>127.8</ele>
        <time>2016-05-06T09:31:10Z</time>
      </trkpt>
      <trkpt lat="50.6715" lon="2.20359">
        <ele>128.1</ele>
        <time>2016-05-06T09:31:12Z</time>
      </trkpt>
      <trkpt lat="50.67159" lon="2.20347">
        <ele>128.3</ele>
        <time>2016-05-06T09:31:14Z</time>
      </trkpt>
      <trkpt lat="50.67168" lon="2.20335">
        <ele>128.6</ele>
        <time>2016-05-06T09:31:16Z</time>
      </trkpt>
      <trkpt lat="50.67177" lon="2.20323">
        <ele>128.9</ele>
        <time>2016-05-06T09:31:18Z</time>
      </trkpt>
      <trkpt lat="50.67185" lon="2.2031">
        <ele>129.1</ele>
        <time>2016-05-06T09:31:20Z</time>
      </trkpt>
      <trkpt lat="50.67194" lon="2.20298">
        <ele>129.4</ele>
        <time>2016-05-06T09:31:22Z</time>
      </trkpt>
      <trkpt lat="50.67202" lon="2.20286">
        <ele>129.6</ele>
        <time>2016-05-06T09:31:24Z</time>
      </trkpt>
      <trkpt lat="50.67211" lon="2.20274">
        <ele>129.8</ele>
        <time>2016-05-06T09:31:26Z</time>
      </trkpt>
      <trkpt lat="50.67219" lon="2.20262">
        <ele>130.1</ele>
        <time>2016-05-06T09:31:28Z</time>
      </trkpt>
      <trkpt lat="50.67227" lon="2.2025">
        <ele>130.3</ele>
        <time>2016-05-06T09:31:30Z</time>
      </trkpt>
      <trkpt lat="50.67235" lon="2.20238">
        <ele>130.5</ele>
        <time>2016-05-06T09:31:32Z</time>
      </trkpt>
      <trkpt lat="50.67244" lon="2.20226">
        <ele>130.8</ele>
        <time>2016-05-06T09:31:34Z</time>
      </trkpt>
      <trkpt lat="50.67252" lon="2.20213">
        <ele>131</ele>
        <time>2016-05-06T09:31:36Z</time>
      </trkpt>
      <trkpt lat="50.6726" lon="2.202">
        <ele>131.2</ele>
        <time>2016-05-06T09:31:38Z</time>
      </trkpt>
      <trkpt lat="50.67268" lon="2.20187">
        <ele>131.4</ele>
        <time>2016-05-06T09:31:40Z</time>
      </trkpt>
      <trkpt lat="50.67276" lon="2.20174">
        <ele>131.6</ele>
        <time>2016-05-06T09:31:42Z</time>
      </trkpt>
      <trkpt lat="50.67285" lon="2.20161">
        <ele>131.8</ele>
        <time>2016-05-06T09:31:44Z</time>
      </trkpt>
      <trkpt lat="50.67294" lon="2.20149">
        <ele>132</ele>
        <time>2016-05-06T09:31:46Z</time>
      </trkpt>
      <trkpt lat="50.67302" lon="2.20137">
        <ele>132.2</ele>
        <time>2016-05-06T09:31:48Z</time>
      </trkpt>
      <trkpt lat="50.67311" lon="2.20125">
        <ele>132.4</ele>
        <time>2016-05-06T09:31:50Z</time>
      </trkpt>
      <trkpt lat="50.6732" lon="2.20113">
        <ele>132.5</ele>
        <time>2016-05-06T09:31:52Z</time>
      </trkpt>
      <trkpt lat="50.67329" lon="2.20101">
        <ele>132.7</ele>
        <time>2016-05-06T09:31:54Z</time>
      </trkpt>
      <trkpt lat="50.67338" lon="2.20088">
        <ele>133</ele>
        <time>2016-05-06T09:31:56Z</time>
      </trkpt>
      <trkpt lat="50.67346" lon="2.20075">
        <ele>133.2</ele>
        <time>2016-05-06T09:31:58Z</time>
      </trkpt>
      <trkpt lat="50.67354" lon="2.20061">
        <ele>133.4</ele>
        <time>2016-05-06T09:32:00Z</time>
      </trkpt>
      <trkpt lat="50.67362" lon="2.20047">
        <ele>133.6</ele>
        <time>2016-05-06T09:32:02Z</time>
      </trkpt>
      <trkpt lat="50.67371" lon="2.20033">
        <ele>133.8</ele>
        <time>2016-05-06T09:32:04Z</time>
      </trkpt>
      <trkpt lat="50.67379" lon="2.20017">
        <ele>133.9</ele>
        <time>2016-05-06T09:32:06Z</time>
      </trkpt>
      <trkpt lat="50.67388" lon="2.20002">
        <ele>134</ele>
        <time>2016-05-06T09:32:08Z</time>
      </trkpt>
      <trkpt lat="50.67397" lon="2.19987">
        <ele>134.2</ele>
        <time>2016-05-06T09:32:10Z</time>
      </trkpt>
      <trkpt lat="50.67406" lon="2.19971">
        <ele>134.4</ele>
        <time>2016-05-06T09:32:12Z</time>
      </trkpt>
      <trkpt lat="50.67414" lon="2.19956">
        <ele>134.6</ele>
        <time>2016-05-06T09:32:14Z</time>
      </trkpt>
      <trkpt lat="50.67422" lon="2.19942">
        <ele>134.8</ele>
        <time>2016-05-06T09:32:16Z</time>
      </trkpt>
      <trkpt lat="50.6743" lon="2.19927">
        <ele>134.9</ele>
        <time>2016-05-06T09:32:18Z</time>
      </trkpt>
      <trkpt lat="50.67439" lon="2.19913">
        <ele>135</ele>
        <time>2016-05-06T09:32:20Z</time>
      </trkpt>
      <trkpt lat="50.67447" lon="2.19898">
        <ele>135.2</ele>
        <time>2016-05-06T09:32:22Z</time>
      </trkpt>
      <trkpt lat="50.67455" lon="2.19883">
        <ele>135.3</ele>
        <time>2016-05-06T09:32:24Z</time>
      </trkpt>
      <trkpt lat="50.67464" lon="2.19868">
        <ele>135.4</ele>
        <time>2016-05-06T09:32:26Z</time>
      </trkpt>
      <trkpt lat="50.67472" lon="2.19852">
        <ele>135.5</ele>
        <time>2016-05-06T09:32:28Z</time>
      </trkpt>
      <trkpt lat="50.67481" lon="2.19836">
        <ele>135.8</ele>
        <time>2016-05-06T09:32:30Z</time>
      </trkpt>
      <trkpt lat="50.6749" lon="2.19821">
        <ele>136</ele>
        <time>2016-05-06T09:32:32Z</time>
      </trkpt>
      <trkpt lat="50.67499" lon="2.19806">
        <ele>136.1</ele>
        <time>2016-05-06T09:32:34Z</time>
      </trkpt>
      <trkpt lat="50.6751" lon="2.19792">
        <ele>136.2</ele>
        <time>2016-05-06T09:32:36Z</time>
      </trkpt>
      <trkpt lat="50.67519" lon="2.19777">
        <ele>136.2</ele>
        <time>2016-05-06T09:32:38Z</time>
      </trkpt>
      <trkpt lat="50.67529" lon="2.19763">
        <ele>136.3</ele>
        <time>2016-05-06T09:32:40Z</time>
      </trkpt>
      <trkpt lat="50.67538" lon="2.1975">
        <ele>136.3</ele>
        <time>2016-05-06T09:32:42Z</time>
      </trkpt>
      <trkpt lat="50.67544" lon="2.19739">
        <ele>136.4</ele>
        <time>2016-05-06T09:32:44Z</time>
      </trkpt>
      <trkpt lat="50.67552" lon="2.1973">
        <ele>136.4</ele>
        <time>2016-05-06T09:32:48Z</time>
      </trkpt>
      <trkpt lat="50.67561" lon="2.1972">
        <ele>136.4</ele>
        <time>2016-05-06T09:32:51Z</time>
      </trkpt>
      <trkpt lat="50.67568" lon="2.19709">
        <ele>136.5</ele>
        <time>2016-05-06T09:32:53Z</time>
      </trkpt>
      <trkpt lat="50.67576" lon="2.19698">
        <ele>136.3</ele>
        <time>2016-05-06T09:32:55Z</time>
      </trkpt>
      <trkpt lat="50.67585" lon="2.19685">
        <ele>136.2</ele>
        <time>2016-05-06T09:32:57Z</time>
      </trkpt>
      <trkpt lat="50.67594" lon="2.19672">
        <ele>136.2</ele>
        <time>2016-05-06T09:32:59Z</time>
      </trkpt>
      <trkpt lat="50.67602" lon="2.19658">
        <ele>136.2</ele>
        <time>2016-05-06T09:33:01Z</time>
      </trkpt>
      <trkpt lat="50.67611" lon="2.19643">
        <ele>136.1</ele>
        <time>2016-05-06T09:33:03Z</time>
      </trkpt>
      <trkpt lat="50.6762" lon="2.19631">
        <ele>136.1</ele>
        <time>2016-05-06T09:33:05Z</time>
      </trkpt>
      <trkpt lat="50.6763" lon="2.19617">
        <ele>136.1</ele>
        <time>2016-05-06T09:33:07Z</time>
      </trkpt>
      <trkpt lat="50.67639" lon="2.19603">
        <ele>136</ele>
        <time>2016-05-06T09:33:09Z</time>
      </trkpt>
      <trkpt lat="50.6765" lon="2.19589">
        <ele>136</ele>
        <time>2016-05-06T09:33:11Z</time>
      </trkpt>
      <trkpt lat="50.67661" lon="2.19575">
        <ele>135.9</ele>
        <time>2016-05-06T09:33:13Z</time>
      </trkpt>
      <trkpt lat="50.67673" lon="2.1956">
        <ele>135.9</ele>
        <time>2016-05-06T09:33:15Z</time>
      </trkpt>
      <trkpt lat="50.67685" lon="2.19545">
        <ele>135.7</ele>
        <time>2016-05-06T09:33:17Z</time>
      </trkpt>
      <trkpt lat="50.67697" lon="2.1953">
        <ele>135.6</ele>
        <time>2016-05-06T09:33:19Z</time>
      </trkpt>
      <trkpt lat="50.67709" lon="2.19514">
        <ele>135.5</ele>
        <time>2016-05-06T09:33:21Z</time>
      </trkpt>
      <trkpt lat="50.67721" lon="2.19497">
        <ele>135.4</ele>
        <time>2016-05-06T09:33:23Z</time>
      </trkpt>
      <trkpt lat="50.67726" lon="2.19475">
        <ele>135.3</ele>
        <time>2016-05-06T09:33:25Z</time>
      </trkpt>
      <trkpt lat="50.67724" lon="2.19453">
        <ele>135.1</ele>
        <time>2016-05-06T09:33:27Z</time>
      </trkpt>
      <trkpt lat="50.6772" lon="2.19431">
        <ele>135</ele>
        <time>2016-05-06T09:33:29Z</time>
      </trkpt>
      <trkpt lat="50.67716" lon="2.19409">
        <ele>134.9</ele>
        <time>2016-05-06T09:33:31Z</time>
      </trkpt>
      <trkpt lat="50.67711" lon="2.19385">
        <ele>134.9</ele>
        <time>2016-05-06T09:33:33Z</time>
      </trkpt>
      <trkpt lat="50.67705" lon="2.19362">
        <ele>134.9</ele>
        <time>2016-05-06T09:33:35Z</time>
      </trkpt>
      <trkpt lat="50.67699" lon="2.19339">
        <ele>134.9</ele>
        <time>2016-05-06T09:33:37Z</time>
      </trkpt>
      <trkpt lat="50.67693" lon="2.19316">
        <ele>134.8</ele>
        <time>2016-05-06T09:33:39Z</time>
      </trkpt>
      <trkpt lat="50.67688" lon="2.19294">
        <ele>134.8</ele>
        <time>2016-05-06T09:33:41Z</time>
      </trkpt>
      <trkpt lat="50.67682" lon="2.19273">
        <ele>134.8</ele>
        <time>2016-05-06T09:33:43Z</time>
      </trkpt>
      <trkpt lat="50.67676" lon="2.19252">
        <ele>134.8</ele>
        <time>2016-05-06T09:33:45Z</time>
      </trkpt>
      <trkpt lat="50.6767" lon="2.19231">
        <ele>134.8</ele>
        <time>2016-05-06T09:33:47Z</time>
      </trkpt>
      <trkpt lat="50.67664" lon="2.1921">
        <ele>134.8</ele>
        <time>2016-05-06T09:33:49Z</time>
      </trkpt>
      <trkpt lat="50.67657" lon="2.1919">
        <ele>134.8</ele>
        <time>2016-05-06T09:33:51Z</time>
      </trkpt>
      <trkpt lat="50.67651" lon="2.19171">
        <ele>134.8</ele>
        <time>2016-05-06T09:33:53Z</time>
      </trkpt>
      <trkpt lat="50.67645" lon="2.19151">
        <ele>134.8</ele>
        <time>2016-05-06T09:33:55Z</time>
      </trkpt>
      <trkpt lat="50.67638" lon="2.19132">
        <ele>134.9</ele>
        <time>2016-05-06T09:33:57Z</time>
      </trkpt>
      <trkpt lat="50.6763" lon="2.19114">
        <ele>134.9</ele>
        <time>2016-05-06T09:33:59Z</time>
      </trkpt>
      <trkpt lat="50.67623" lon="2.19095">
        <ele>134.9</ele>
        <time>2016-05-06T09:34:01Z</time>
      </trkpt>
      <trkpt lat="50.67615" lon="2.19078">
        <ele>134.9</ele>
        <time>2016-05-06T09:34:03Z</time>
      </trkpt>
      <trkpt lat="50.67607" lon="2.19062">
        <ele>134.9</ele>
        <time>2016-05-06T09:34:05Z</time>
      </trkpt>
      <trkpt lat="50.676" lon="2.19044">
        <ele>134.9</ele>
        <time>2016-05-06T09:34:07Z</time>
      </trkpt>
      <trkpt lat="50.67593" lon="2.19028">
        <ele>135</ele>
        <time>2016-05-06T09:34:09Z</time>
      </trkpt>
      <trkpt lat="50.67585" lon="2.19011">
        <ele>135</ele>
        <time>2016-05-06T09:34:11Z</time>
      </trkpt>
      <trkpt lat="50.67579" lon="2.18992">
        <ele>135</ele>
        <time>2016-05-06T09:34:13Z</time>
      </trkpt>
      <trkpt lat="50.67577" lon="2.18972">
        <ele>135.1</ele>
        <time>2016-05-06T09:34:15Z</time>
      </trkpt>
      <trkpt lat="50.67578" lon="2.1895">
        <ele>135.1</ele>
        <time>2016-05-06T09:34:17Z</time>
      </trkpt>
      <trkpt lat="50.6758" lon="2.18929">
        <ele>135.1</ele>
        <time>2016-05-06T09:34:19Z</time>
      </trkpt>
      <trkpt lat="50.67581" lon="2.18908">
        <ele>135</ele>
        <time>2016-05-06T09:34:21Z</time>
      </trkpt>
      <trkpt lat="50.6758" lon="2.18888">
        <ele>135</ele>
        <time>2016-05-06T09:34:23Z</time>
      </trkpt>
      <trkpt lat="50.67578" lon="2.18867">
        <ele>135</ele>
        <time>2016-05-06T09:34:25Z</time>
      </trkpt>
      <trkpt lat="50.67573" lon="2.18848">
        <ele>135</ele>
        <time>2016-05-06T09:34:27Z</time>
      </trkpt>
      <trkpt lat="50.67566" lon="2.18829">
        <ele>135</ele>
        <time>2016-05-06T09:34:29Z</time>
      </trkpt>
      <trkpt lat="50.67559" lon="2.18811">
        <ele>135.1</ele>
        <time>2016-05-06T09:34:31Z</time>
      </trkpt>
      <trkpt lat="50.67553" lon="2.18793">
        <ele>135.2</ele>
        <time>2016-05-06T09:34:33Z</time>
      </trkpt>
      <trkpt lat="50.67546" lon="2.18775">
        <ele>135.2</ele>
        <time>2016-05-06T09:34:35Z</time>
      </trkpt>
      <trkpt lat="50.6754" lon="2.18757">
        <ele>135.3</ele>
        <time>2016-05-06T09:34:37Z</time>
      </trkpt>
      <trkpt lat="50.67534" lon="2.18739">
        <ele>135.3</ele>
        <time>2016-05-06T09:34:39Z</time>
      </trkpt>
      <trkpt lat="50.67529" lon="2.18722">
        <ele>135.4</ele>
        <time>2016-05-06T09:34:41Z</time>
      </trkpt>
      <trkpt lat="50.67524" lon="2.18705">
        <ele>135.5</ele>
        <time>2016-05-06T09:34:43Z</time>
      </trkpt>
      <trkpt lat="50.67518" lon="2.18688">
        <ele>135.6</ele>
        <time>2016-05-06T09:34:45Z</time>
      </trkpt>
      <trkpt lat="50.67512" lon="2.18671">
        <ele>135.7</ele>
        <time>2016-05-06T09:34:47Z</time>
      </trkpt>
      <trkpt lat="50.67507" lon="2.18654">
        <ele>135.7</ele>
        <time>2016-05-06T09:34:49Z</time>
      </trkpt>
      <trkpt lat="50.67501" lon="2.18637">
        <ele>135.9</ele>
        <time>2016-05-06T09:34:51Z</time>
      </trkpt>
      <trkpt lat="50.67495" lon="2.1862">
        <ele>136.1</ele>
        <time>2016-05-06T09:34:53Z</time>
      </trkpt>
      <trkpt lat="50.6749" lon="2.18603">
        <ele>136.2</ele>
        <time>2016-05-06T09:34:55Z</time>
      </trkpt>
      <trkpt lat="50.67484" lon="2.18586">
        <ele>136.4</ele>
        <time>2016-05-06T09:34:57Z</time>
      </trkpt>
      <trkpt lat="50.67478" lon="2.18568">
        <ele>136.5</ele>
        <time>2016-05-06T09:34:59Z</time>
      </trkpt>
      <trkpt lat="50.67472" lon="2.18551">
        <ele>136.7</ele>
        <time>2016-05-06T09:35:01Z</time>
      </trkpt>
      <trkpt lat="50.67466" lon="2.18534">
        <ele>136.9</ele>
        <time>2016-05-06T09:35:03Z</time>
      </trkpt>
      <trkpt lat="50.6746" lon="2.18517">
        <ele>137.1</ele>
        <time>2016-05-06T09:35:05Z</time>
      </trkpt>
      <trkpt lat="50.67453" lon="2.18501">
        <ele>137.3</ele>
        <time>2016-05-06T09:35:07Z</time>
      </trkpt>
      <trkpt lat="50.67446" lon="2.18484">
        <ele>137.5</ele>
        <time>2016-05-06T09:35:09Z</time>
      </trkpt>
      <trkpt lat="50.67439" lon="2.18468">
        <ele>137.7</ele>
        <time>2016-05-06T09:35:11Z</time>
      </trkpt>
      <trkpt lat="50.67432" lon="2.18452">
        <ele>137.9</ele>
        <time>2016-05-06T09:35:13Z</time>
      </trkpt>
      <trkpt lat="50.67425" lon="2.18437">
        <ele>138.2</ele>
        <time>2016-05-06T09:35:15Z</time>
      </trkpt>
      <trkpt lat="50.67418" lon="2.18422">
        <ele>138.5</ele>
        <time>2016-05-06T09:35:17Z</time>
      </trkpt>
      <trkpt lat="50.67411" lon="2.18407">
        <ele>138.7</ele>
        <time>2016-05-06T09:35:19Z</time>
      </trkpt>
      <trkpt lat="50.67405" lon="2.18392">
        <ele>139</ele>
        <time>2016-05-06T09:35:21Z</time>
      </trkpt>
      <trkpt lat="50.67398" lon="2.18377">
        <ele>139.2</ele>
        <time>2016-05-06T09:35:23Z</time>
      </trkpt>
      <trkpt lat="50.67391" lon="2.18361">
        <ele>139.5</ele>
        <time>2016-05-06T09:35:25Z</time>
      </trkpt>
      <trkpt lat="50.67384" lon="2.18346">
        <ele>139.7</ele>
        <time>2016-05-06T09:35:27Z</time>
      </trkpt>
      <trkpt lat="50.67377" lon="2.1833">
        <ele>140</ele>
        <time>2016-05-06T09:35:29Z</time>
      </trkpt>
      <trkpt lat="50.6737" lon="2.18313">
        <ele>140.3</ele>
        <time>2016-05-06T09:35:31Z</time>
      </trkpt>
      <trkpt lat="50.67364" lon="2.18296">
        <ele>140.6</ele>
        <time>2016-05-06T09:35:33Z</time>
      </trkpt>
      <trkpt lat="50.67357" lon="2.18279">
        <ele>141</ele>
        <time>2016-05-06T09:35:35Z</time>
      </trkpt>
      <trkpt lat="50.67352" lon="2.18261">
        <ele>141.4</ele>
        <time>2016-05-06T09:35:37Z</time>
      </trkpt>
      <trkpt lat="50.67346" lon="2.18242">
        <ele>141.9</ele>
        <time>2016-05-06T09:35:39Z</time>
      </trkpt>
      <trkpt lat="50.6734" lon="2.18223">
        <ele>142.2</ele>
        <time>2016-05-06T09:35:41Z</time>
      </trkpt>
      <trkpt lat="50.67334" lon="2.18203">
        <ele>142.5</ele>
        <time>2016-05-06T09:35:43Z</time>
      </trkpt>
      <trkpt lat="50.67329" lon="2.18183">
        <ele>142.8</ele>
        <time>2016-05-06T09:35:45Z</time>
      </trkpt>
      <trkpt lat="50.67324" lon="2.18162">
        <ele>143.1</ele>
        <time>2016-05-06T09:35:47Z</time>
      </trkpt>
      <trkpt lat="50.67318" lon="2.1814">
        <ele>143.3</ele>
        <time>2016-05-06T09:35:49Z</time>
      </trkpt>
      <trkpt lat="50.67313" lon="2.18119">
        <ele>143.5</ele>
        <time>2016-05-06T09:35:51Z</time>
      </trkpt>
      <trkpt lat="50.67307" lon="2.18097">
        <ele>143.7</ele>
        <time>2016-05-06T09:35:53Z</time>
      </trkpt>
      <trkpt lat="50.67302" lon="2.18075">
        <ele>143.8</ele>
        <time>2016-05-06T09:35:55Z</time>
      </trkpt>
      <trkpt lat="50.67297" lon="2.18054">
        <ele>143.8</ele>
        <time>2016-05-06T09:35:57Z</time>
      </trkpt>
      <trkpt lat="50.67292" lon="2.18033">
        <ele>143.9</ele>
        <time>2016-05-06T09:35:59Z</time>
      </trkpt>
      <trkpt lat="50.67287" lon="2.18013">
        <ele>144</ele>
        <time>2016-05-06T09:36:01Z</time>
      </trkpt>
      <trkpt lat="50.67283" lon="2.17992">
        <ele>144.1</ele>
        <time>2016-05-06T09:36:03Z</time>
      </trkpt>
      <trkpt lat="50.67278" lon="2.17971">
        <ele>144.2</ele>
        <time>2016-05-06T09:36:05Z</time>
      </trkpt>
      <trkpt lat="50.67273" lon="2.17949">
        <ele>144.2</ele>
        <time>2016-05-06T09:36:07Z</time>
      </trkpt>
      <trkpt lat="50.67269" lon="2.17926">
        <ele>144.3</ele>
        <time>2016-05-06T09:36:09Z</time>
      </trkpt>
      <trkpt lat="50.67265" lon="2.17903">
        <ele>144.3</ele>
        <time>2016-05-06T09:36:11Z</time>
      </trkpt>
      <trkpt lat="50.67261" lon="2.17879">
        <ele>144.3</ele>
        <time>2016-05-06T09:36:13Z</time>
      </trkpt>
      <trkpt lat="50.67257" lon="2.17855">
        <ele>144.2</ele>
        <time>2016-05-06T09:36:15Z</time>
      </trkpt>
      <trkpt lat="50.67252" lon="2.17829">
        <ele>144.1</ele>
        <time>2016-05-06T09:36:17Z</time>
      </trkpt>
      <trkpt lat="50.6725" lon="2.17815">
        <ele>143.9</ele>
        <time>2016-05-06T09:36:18Z</time>
      </trkpt>
      <trkpt lat="50.67248" lon="2.17801">
        <ele>143.8</ele>
        <time>2016-05-06T09:36:19Z</time>
      </trkpt>
      <trkpt lat="50.67245" lon="2.17786">
        <ele>143.6</ele>
        <time>2016-05-06T09:36:20Z</time>
      </trkpt>
      <trkpt lat="50.67242" lon="2.17771">
        <ele>143.3</ele>
        <time>2016-05-06T09:36:21Z</time>
      </trkpt>
      <trkpt lat="50.67239" lon="2.17755">
        <ele>143</ele>
        <time>2016-05-06T09:36:22Z</time>
      </trkpt>
      <trkpt lat="50.67236" lon="2.1774">
        <ele>142.7</ele>
        <time>2016-05-06T09:36:23Z</time>
      </trkpt>
      <trkpt lat="50.67232" lon="2.17723">
        <ele>142.3</ele>
        <time>2016-05-06T09:36:24Z</time>
      </trkpt>
      <trkpt lat="50.67227" lon="2.17707">
        <ele>142</ele>
        <time>2016-05-06T09:36:25Z</time>
      </trkpt>
      <trkpt lat="50.67223" lon="2.1769">
        <ele>141.5</ele>
        <time>2016-05-06T09:36:26Z</time>
      </trkpt>
      <trkpt lat="50.67219" lon="2.17673">
        <ele>141</ele>
        <time>2016-05-06T09:36:27Z</time>
      </trkpt>
      <trkpt lat="50.67214" lon="2.17656">
        <ele>140.5</ele>
        <time>2016-05-06T09:36:28Z</time>
      </trkpt>
      <trkpt lat="50.67209" lon="2.17638">
        <ele>139.9</ele>
        <time>2016-05-06T09:36:29Z</time>
      </trkpt>
      <trkpt lat="50.67204" lon="2.1762">
        <ele>139.2</ele>
        <time>2016-05-06T09:36:30Z</time>
      </trkpt>
      <trkpt lat="50.67199" lon="2.17602">
        <ele>138.5</ele>
        <time>2016-05-06T09:36:31Z</time>
      </trkpt>
      <trkpt lat="50.67194" lon="2.17584">
        <ele>138</ele>
        <time>2016-05-06T09:36:32Z</time>
      </trkpt>
      <trkpt lat="50.67189" lon="2.17565">
        <ele>137.4</ele>
        <time>2016-05-06T09:36:33Z</time>
      </trkpt>
      <trkpt lat="50.67184" lon="2.17546">
        <ele>136.7</ele>
        <time>2016-05-06T09:36:34Z</time>
      </trkpt>
      <trkpt lat="50.67179" lon="2.17527">
        <ele>136</ele>
        <time>2016-05-06T09:36:35Z</time>
      </trkpt>
      <trkpt lat="50.67174" lon="2.17507">
        <ele>135.2</ele>
        <time>2016-05-06T09:36:36Z</time>
      </trkpt>
      <trkpt lat="50.67169" lon="2.17488">
        <ele>134.4</ele>
        <time>2016-05-06T09:36:37Z</time>
      </trkpt>
      <trkpt lat="50.67165" lon="2.17467">
        <ele>133.6</ele>
        <time>2016-05-06T09:36:38Z</time>
      </trkpt>
      <trkpt lat="50.67162" lon="2.17445">
        <ele>132.8</ele>
        <time>2016-05-06T09:36:39Z</time>
      </trkpt>
      <trkpt lat="50.67161" lon="2.17423">
        <ele>131.8</ele>
        <time>2016-05-06T09:36:40Z</time>
      </trkpt>
      <trkpt lat="50.67161" lon="2.17401">
        <ele>131</ele>
        <time>2016-05-06T09:36:41Z</time>
      </trkpt>
      <trkpt lat="50.6716" lon="2.17378">
        <ele>130</ele>
        <time>2016-05-06T09:36:42Z</time>
      </trkpt>
      <trkpt lat="50.67158" lon="2.17355">
        <ele>129.1</ele>
        <time>2016-05-06T09:36:43Z</time>
      </trkpt>
      <trkpt lat="50.67153" lon="2.17332">
        <ele>128.1</ele>
        <time>2016-05-06T09:36:44Z</time>
      </trkpt>
      <trkpt lat="50.67147" lon="2.17311">
        <ele>127</ele>
        <time>2016-05-06T09:36:45Z</time>
      </trkpt>
      <trkpt lat="50.6714" lon="2.17291">
        <ele>126</ele>
        <time>2016-05-06T09:36:46Z</time>
      </trkpt>
      <trkpt lat="50.67132" lon="2.17272">
        <ele>124.9</ele>
        <time>2016-05-06T09:36:47Z</time>
      </trkpt>
      <trkpt lat="50.67125" lon="2.17253">
        <ele>123.8</ele>
        <time>2016-05-06T09:36:48Z</time>
      </trkpt>
      <trkpt lat="50.67117" lon="2.17234">
        <ele>122.7</ele>
        <time>2016-05-06T09:36:49Z</time>
      </trkpt>
      <trkpt lat="50.67109" lon="2.17216">
        <ele>121.7</ele>
        <time>2016-05-06T09:36:50Z</time>
      </trkpt>
      <trkpt lat="50.67102" lon="2.17198">
        <ele>120.6</ele>
        <time>2016-05-06T09:36:51Z</time>
      </trkpt>
      <trkpt lat="50.67095" lon="2.1718">
        <ele>119.6</ele>
        <time>2016-05-06T09:36:52Z</time>
      </trkpt>
      <trkpt lat="50.67087" lon="2.17162">
        <ele>118.6</ele>
        <time>2016-05-06T09:36:53Z</time>
      </trkpt>
      <trkpt lat="50.67079" lon="2.17146">
        <ele>117.5</ele>
        <time>2016-05-06T09:36:54Z</time>
      </trkpt>
      <trkpt lat="50.6707" lon="2.17131">
        <ele>116.5</ele>
        <time>2016-05-06T09:36:55Z</time>
      </trkpt>
      <trkpt lat="50.67059" lon="2.17119">
        <ele>115.5</ele>
        <time>2016-05-06T09:36:56Z</time>
      </trkpt>
      <trkpt lat="50.67048" lon="2.17108">
        <ele>114.6</ele>
        <time>2016-05-06T09:36:57Z</time>
      </trkpt>
      <trkpt lat="50.67037" lon="2.17099">
        <ele>113.7</ele>
        <time>2016-05-06T09:36:58Z</time>
      </trkpt>
      <trkpt lat="50.67026" lon="2.1709">
        <ele>112.8</ele>
        <time>2016-05-06T09:36:59Z</time>
      </trkpt>
      <trkpt lat="50.67015" lon="2.17081">
        <ele>111.9</ele>
        <time>2016-05-06T09:37:00Z</time>
      </trkpt>
      <trkpt lat="50.67004" lon="2.17071">
        <ele>111</ele>
        <time>2016-05-06T09:37:01Z</time>
      </trkpt>
      <trkpt lat="50.66994" lon="2.17061">
        <ele>110.2</ele>
        <time>2016-05-06T09:37:02Z</time>
      </trkpt>
      <trkpt lat="50.66984" lon="2.1705">
        <ele>109.3</ele>
        <time>2016-05-06T09:37:03Z</time>
      </trkpt>
      <trkpt lat="50.66975" lon="2.17036">
        <ele>108.4</ele>
        <time>2016-05-06T09:37:04Z</time>
      </trkpt>
      <trkpt lat="50.66967" lon="2.17022">
        <ele>107.4</ele>
        <time>2016-05-06T09:37:05Z</time>
      </trkpt>
      <trkpt lat="50.6696" lon="2.17005">
        <ele>106.5</ele>
        <time>2016-05-06T09:37:06Z</time>
      </trkpt>
      <trkpt lat="50.66954" lon="2.16988">
        <ele>105.6</ele>
        <time>2016-05-06T09:37:07Z</time>
      </trkpt>
      <trkpt lat="50.66949" lon="2.1697">
        <ele>104.7</ele>
        <time>2016-05-06T09:37:08Z</time>
      </trkpt>
      <trkpt lat="50.66944" lon="2.16951">
        <ele>103.8</ele>
        <time>2016-05-06T09:37:09Z</time>
      </trkpt>
      <trkpt lat="50.6694" lon="2.16931">
        <ele>102.9</ele>
        <time>2016-05-06T09:37:10Z</time>
      </trkpt>
      <trkpt lat="50.66936" lon="2.16911">
        <ele>101.9</ele>
        <time>2016-05-06T09:37:11Z</time>
      </trkpt>
      <trkpt lat="50.66932" lon="2.16891">
        <ele>100.9</ele>
        <time>2016-05-06T09:37:12Z</time>
      </trkpt>
      <trkpt lat="50.66927" lon="2.16872">
        <ele>99.8</ele>
        <time>2016-05-06T09:37:13Z</time>
      </trkpt>
      <trkpt lat="50.66922" lon="2.16852">
        <ele>98.7</ele>
        <time>2016-05-06T09:37:14Z</time>
      </trkpt>
      <trkpt lat="50.66918" lon="2.16833">
        <ele>97.6</ele>
        <time>2016-05-06T09:37:15Z</time>
      </trkpt>
      <trkpt lat="50.66914" lon="2.16813">
        <ele>96.5</ele>
        <time>2016-05-06T09:37:16Z</time>
      </trkpt>
      <trkpt lat="50.66912" lon="2.16792">
        <ele>95.6</ele>
        <time>2016-05-06T09:37:17Z</time>
      </trkpt>
      <trkpt lat="50.66912" lon="2.16772">
        <ele>94.6</ele>
        <time>2016-05-06T09:37:18Z</time>
      </trkpt>
      <trkpt lat="50.66912" lon="2.16753">
        <ele>93.6</ele>
        <time>2016-05-06T09:37:19Z</time>
      </trkpt>
      <trkpt lat="50.66914" lon="2.16733">
        <ele>92.6</ele>
        <time>2016-05-06T09:37:20Z</time>
      </trkpt>
      <trkpt lat="50.66916" lon="2.16714">
        <ele>91.5</ele>
        <time>2016-05-06T09:37:21Z</time>
      </trkpt>
      <trkpt lat="50.66917" lon="2.16695">
        <ele>90.5</ele>
        <time>2016-05-06T09:37:22Z</time>
      </trkpt>
      <trkpt lat="50.66917" lon="2.16676">
        <ele>89.5</ele>
        <time>2016-05-06T09:37:23Z</time>
      </trkpt>
      <trkpt lat="50.66916" lon="2.16658">
        <ele>88.5</ele>
        <time>2016-05-06T09:37:24Z</time>
      </trkpt>
      <trkpt lat="50.66915" lon="2.16641">
        <ele>87.5</ele>
        <time>2016-05-06T09:37:25Z</time>
      </trkpt>
      <trkpt lat="50.66914" lon="2.16626">
        <ele>86.5</ele>
        <time>2016-05-06T09:37:26Z</time>
      </trkpt>
      <trkpt lat="50.66912" lon="2.16612">
        <ele>85.4</ele>
        <time>2016-05-06T09:37:27Z</time>
      </trkpt>
      <trkpt lat="50.66912" lon="2.16597">
        <ele>84.4</ele>
        <time>2016-05-06T09:37:28Z</time>
      </trkpt>
      <trkpt lat="50.66913" lon="2.16583">
        <ele>83.4</ele>
        <time>2016-05-06T09:37:29Z</time>
      </trkpt>
      <trkpt lat="50.66916" lon="2.16568">
        <ele>82.5</ele>
        <time>2016-05-06T09:37:30Z</time>
      </trkpt>
      <trkpt lat="50.66921" lon="2.16555">
        <ele>81.6</ele>
        <time>2016-05-06T09:37:31Z</time>
      </trkpt>
      <trkpt lat="50.66927" lon="2.16541">
        <ele>80.6</ele>
        <time>2016-05-06T09:37:32Z</time>
      </trkpt>
      <trkpt lat="50.66933" lon="2.16528">
        <ele>79.7</ele>
        <time>2016-05-06T09:37:33Z</time>
      </trkpt>
      <trkpt lat="50.66938" lon="2.16516">
        <ele>78.8</ele>
        <time>2016-05-06T09:37:34Z</time>
      </trkpt>
      <trkpt lat="50.66946" lon="2.16491">
        <ele>77.2</ele>
        <time>2016-05-06T09:37:36Z</time>
      </trkpt>
      <trkpt lat="50.66946" lon="2.16464">
        <ele>75.7</ele>
        <time>2016-05-06T09:37:38Z</time>
      </trkpt>
      <trkpt lat="50.66942" lon="2.1644">
        <ele>74.3</ele>
        <time>2016-05-06T09:37:40Z</time>
      </trkpt>
      <trkpt lat="50.66938" lon="2.16418">
        <ele>73.2</ele>
        <time>2016-05-06T09:37:42Z</time>
      </trkpt>
      <trkpt lat="50.66934" lon="2.16396">
        <ele>72.1</ele>
        <time>2016-05-06T09:37:44Z</time>
      </trkpt>
      <trkpt lat="50.6693" lon="2.16376">
        <ele>71.2</ele>
        <time>2016-05-06T09:37:46Z</time>
      </trkpt>
      <trkpt lat="50.66925" lon="2.16356">
        <ele>70.5</ele>
        <time>2016-05-06T09:37:48Z</time>
      </trkpt>
      <trkpt lat="50.6692" lon="2.16337">
        <ele>69.9</ele>
        <time>2016-05-06T09:37:50Z</time>
      </trkpt>
      <trkpt lat="50.66916" lon="2.16317">
        <ele>69.3</ele>
        <time>2016-05-06T09:37:52Z</time>
      </trkpt>
      <trkpt lat="50.66914" lon="2.16297">
        <ele>68.7</ele>
        <time>2016-05-06T09:37:54Z</time>
      </trkpt>
      <trkpt lat="50.66917" lon="2.1628">
        <ele>68.2</ele>
        <time>2016-05-06T09:37:56Z</time>
      </trkpt>
      <trkpt lat="50.66927" lon="2.16273">
        <ele>67.7</ele>
        <time>2016-05-06T09:37:58Z</time>
      </trkpt>
      <trkpt lat="50.66942" lon="2.1627">
        <ele>67.3</ele>
        <time>2016-05-06T09:38:00Z</time>
      </trkpt>
      <trkpt lat="50.66956" lon="2.16267">
        <ele>66.9</ele>
        <time>2016-05-06T09:38:02Z</time>
      </trkpt>
      <trkpt lat="50.66969" lon="2.16263">
        <ele>66.6</ele>
        <time>2016-05-06T09:38:04Z</time>
      </trkpt>
      <trkpt lat="50.6698" lon="2.16258">
        <ele>66.3</ele>
        <time>2016-05-06T09:38:06Z</time>
      </trkpt>
      <trkpt lat="50.66993" lon="2.16254">
        <ele>66.1</ele>
        <time>2016-05-06T09:38:08Z</time>
      </trkpt>
      <trkpt lat="50.67004" lon="2.16248">
        <ele>65.8</ele>
        <time>2016-05-06T09:38:10Z</time>
      </trkpt>
      <trkpt lat="50.67016" lon="2.16241">
        <ele>65.7</ele>
        <time>2016-05-06T09:38:12Z</time>
      </trkpt>
      <trkpt lat="50.67027" lon="2.16233">
        <ele>65.6</ele>
        <time>2016-05-06T09:38:14Z</time>
      </trkpt>
      <trkpt lat="50.67039" lon="2.16226">
        <ele>65.6</ele>
        <time>2016-05-06T09:38:16Z</time>
      </trkpt>
      <trkpt lat="50.67049" lon="2.16219">
        <ele>65.6</ele>
        <time>2016-05-06T09:38:18Z</time>
      </trkpt>
      <trkpt lat="50.67061" lon="2.16213">
        <ele>65.7</ele>
        <time>2016-05-06T09:38:20Z</time>
      </trkpt>
      <trkpt lat="50.67071" lon="2.16204">
        <ele>65.8</ele>
        <time>2016-05-06T09:38:22Z</time>
      </trkpt>
      <trkpt lat="50.67082" lon="2.16197">
        <ele>65.9</ele>
        <time>2016-05-06T09:38:24Z</time>
      </trkpt>
      <trkpt lat="50.67093" lon="2.16192">
        <ele>65.9</ele>
        <time>2016-05-06T09:38:26Z</time>
      </trkpt>
      <trkpt lat="50.67106" lon="2.16189">
        <ele>66.1</ele>
        <time>2016-05-06T09:38:28Z</time>
      </trkpt>
      <trkpt lat="50.67118" lon="2.16186">
        <ele>66.3</ele>
        <time>2016-05-06T09:38:30Z</time>
      </trkpt>
      <trkpt lat="50.6713" lon="2.16182">
        <ele>66.4</ele>
        <time>2016-05-06T09:38:32Z</time>
      </trkpt>
      <trkpt lat="50.67143" lon="2.16178">
        <ele>66.6</ele>
        <time>2016-05-06T09:38:34Z</time>
      </trkpt>
      <trkpt lat="50.67155" lon="2.16173">
        <ele>66.7</ele>
        <time>2016-05-06T09:38:36Z</time>
      </trkpt>
      <trkpt lat="50.67166" lon="2.16167">
        <ele>66.8</ele>
        <time>2016-05-06T09:38:38Z</time>
      </trkpt>
      <trkpt lat="50.67177" lon="2.16161">
        <ele>67</ele>
        <time>2016-05-06T09:38:40Z</time>
      </trkpt>
      <trkpt lat="50.67187" lon="2.16156">
        <ele>67.2</ele>
        <time>2016-05-06T09:38:42Z</time>
      </trkpt>
      <trkpt lat="50.67195" lon="2.16149">
        <ele>67.4</ele>
        <time>2016-05-06T09:38:44Z</time>
      </trkpt>
      <trkpt lat="50.67204" lon="2.16143">
        <ele>67.7</ele>
        <time>2016-05-06T09:38:46Z</time>
      </trkpt>
      <trkpt lat="50.67212" lon="2.16136">
        <ele>67.9</ele>
        <time>2016-05-06T09:38:48Z</time>
      </trkpt>
      <trkpt lat="50.67223" lon="2.16126">
        <ele>68.5</ele>
        <time>2016-05-06T09:38:51Z</time>
      </trkpt>
      <trkpt lat="50.67232" lon="2.16113">
        <ele>69.2</ele>
        <time>2016-05-06T09:38:54Z</time>
      </trkpt>
      <trkpt lat="50.6724" lon="2.161">
        <ele>70</ele>
        <time>2016-05-06T09:38:57Z</time>
      </trkpt>
      <trkpt lat="50.67249" lon="2.16088">
        <ele>70.8</ele>
        <time>2016-05-06T09:39:00Z</time>
      </trkpt>
      <trkpt lat="50.67256" lon="2.16075">
        <ele>71.5</ele>
        <time>2016-05-06T09:39:03Z</time>
      </trkpt>
      <trkpt lat="50.67264" lon="2.16061">
        <ele>72.3</ele>
        <time>2016-05-06T09:39:06Z</time>
      </trkpt>
      <trkpt lat="50.67273" lon="2.16048">
        <ele>73</ele>
        <time>2016-05-06T09:39:09Z</time>
      </trkpt>
      <trkpt lat="50.67279" lon="2.16037">
        <ele>73.5</ele>
        <time>2016-05-06T09:39:11Z</time>
      </trkpt>
      <trkpt lat="50.67286" lon="2.16026">
        <ele>74</ele>
        <time>2016-05-06T09:39:13Z</time>
      </trkpt>
      <trkpt lat="50.67293" lon="2.16016">
        <ele>74.4</ele>
        <time>2016-05-06T09:39:15Z</time>
      </trkpt>
      <trkpt lat="50.67301" lon="2.16004">
        <ele>74.8</ele>
        <time>2016-05-06T09:39:17Z</time>
      </trkpt>
      <trkpt lat="50.67309" lon="2.15992">
        <ele>75.3</ele>
        <time>2016-05-06T09:39:19Z</time>
      </trkpt>
      <trkpt lat="50.67316" lon="2.15981">
        <ele>75.7</ele>
        <time>2016-05-06T09:39:21Z</time>
      </trkpt>
      <trkpt lat="50.67324" lon="2.1597">
        <ele>76</ele>
        <time>2016-05-06T09:39:23Z</time>
      </trkpt>
      <trkpt lat="50.67332" lon="2.15958">
        <ele>76.3</ele>
        <time>2016-05-06T09:39:25Z</time>
      </trkpt>
      <trkpt lat="50.67341" lon="2.15946">
        <ele>76.6</ele>
        <time>2016-05-06T09:39:27Z</time>
      </trkpt>
      <trkpt lat="50.6735" lon="2.15933">
        <ele>76.8</ele>
        <time>2016-05-06T09:39:29Z</time>
      </trkpt>
      <trkpt lat="50.6736" lon="2.15921">
        <ele>77</ele>
        <time>2016-05-06T09:39:31Z</time>
      </trkpt>
      <trkpt lat="50.67372" lon="2.15909">
        <ele>77.1</ele>
        <time>2016-05-06T09:39:33Z</time>
      </trkpt>
      <trkpt lat="50.67384" lon="2.15899">
        <ele>77.2</ele>
        <time>2016-05-06T09:39:35Z</time>
      </trkpt>
      <trkpt lat="50.67398" lon="2.15889">
        <ele>77.2</ele>
        <time>2016-05-06T09:39:37Z</time>
      </trkpt>
      <trkpt lat="50.67412" lon="2.15878">
        <ele>77.1</ele>
        <time>2016-05-06T09:39:39Z</time>
      </trkpt>
      <trkpt lat="50.67426" lon="2.15865">
        <ele>77</ele>
        <time>2016-05-06T09:39:41Z</time>
      </trkpt>
      <trkpt lat="50.67439" lon="2.15853">
        <ele>76.9</ele>
        <time>2016-05-06T09:39:43Z</time>
      </trkpt>
      <trkpt lat="50.67451" lon="2.1584">
        <ele>76.7</ele>
        <time>2016-05-06T09:39:45Z</time>
      </trkpt>
      <trkpt lat="50.67462" lon="2.15829">
        <ele>76.6</ele>
        <time>2016-05-06T09:39:47Z</time>
      </trkpt>
      <trkpt lat="50.67474" lon="2.15818">
        <ele>76.5</ele>
        <time>2016-05-06T09:39:49Z</time>
      </trkpt>
      <trkpt lat="50.67485" lon="2.15805">
        <ele>76.4</ele>
        <time>2016-05-06T09:39:51Z</time>
      </trkpt>
      <trkpt lat="50.67496" lon="2.15793">
        <ele>76.3</ele>
        <time>2016-05-06T09:39:53Z</time>
      </trkpt>
      <trkpt lat="50.67508" lon="2.1578">
        <ele>76.3</ele>
        <time>2016-05-06T09:39:55Z</time>
      </trkpt>
      <trkpt lat="50.6752" lon="2.15766">
        <ele>76.2</ele>
        <time>2016-05-06T09:39:57Z</time>
      </trkpt>
      <trkpt lat="50.67532" lon="2.15753">
        <ele>76.2</ele>
        <time>2016-05-06T09:39:59Z</time>
      </trkpt>
      <trkpt lat="50.67544" lon="2.1574">
        <ele>76.3</ele>
        <time>2016-05-06T09:40:01Z</time>
      </trkpt>
      <trkpt lat="50.67556" lon="2.15727">
        <ele>76.4</ele>
        <time>2016-05-06T09:40:03Z</time>
      </trkpt>
      <trkpt lat="50.67568" lon="2.15714">
        <ele>76.5</ele>
        <time>2016-05-06T09:40:05Z</time>
      </trkpt>
      <trkpt lat="50.6758" lon="2.15701">
        <ele>76.5</ele>
        <time>2016-05-06T09:40:07Z</time>
      </trkpt>
      <trkpt lat="50.67592" lon="2.15687">
        <ele>76.5</ele>
        <time>2016-05-06T09:40:09Z</time>
      </trkpt>
      <trkpt lat="50.67604" lon="2.15673">
        <ele>76.5</ele>
        <time>2016-05-06T09:40:11Z</time>
      </trkpt>
      <trkpt lat="50.67615" lon="2.15656">
        <ele>76.6</ele>
        <time>2016-05-06T09:40:13Z</time>
      </trkpt>
      <trkpt lat="50.67624" lon="2.15636">
        <ele>76.7</ele>
        <time>2016-05-06T09:40:15Z</time>
      </trkpt>
      <trkpt lat="50.67631" lon="2.15613">
        <ele>76.7</ele>
        <time>2016-05-06T09:40:17Z</time>
      </trkpt>
      <trkpt lat="50.67637" lon="2.1559">
        <ele>76.8</ele>
        <time>2016-05-06T09:40:19Z</time>
      </trkpt>
      <trkpt lat="50.67642" lon="2.15566">
        <ele>76.9</ele>
        <time>2016-05-06T09:40:21Z</time>
      </trkpt>
      <trkpt lat="50.67647" lon="2.15542">
        <ele>76.9</ele>
        <time>2016-05-06T09:40:23Z</time>
      </trkpt>
      <trkpt lat="50.67651" lon="2.15518">
        <ele>77</ele>
        <time>2016-05-06T09:40:25Z</time>
      </trkpt>
      <trkpt lat="50.67656" lon="2.15494">
        <ele>77</ele>
        <time>2016-05-06T09:40:27Z</time>
      </trkpt>
      <trkpt lat="50.6766" lon="2.1547">
        <ele>77.1</ele>
        <time>2016-05-06T09:40:29Z</time>
      </trkpt>
      <trkpt lat="50.67665" lon="2.15446">
        <ele>77.1</ele>
        <time>2016-05-06T09:40:31Z</time>
      </trkpt>
      <trkpt lat="50.6767" lon="2.15422">
        <ele>77.2</ele>
        <time>2016-05-06T09:40:33Z</time>
      </trkpt>
      <trkpt lat="50.67675" lon="2.15397">
        <ele>77.2</ele>
        <time>2016-05-06T09:40:35Z</time>
      </trkpt>
      <trkpt lat="50.6768" lon="2.15372">
        <ele>77.2</ele>
        <time>2016-05-06T09:40:37Z</time>
      </trkpt>
      <trkpt lat="50.67686" lon="2.15346">
        <ele>77.2</ele>
        <time>2016-05-06T09:40:39Z</time>
      </trkpt>
      <trkpt lat="50.67691" lon="2.1532">
        <ele>77.3</ele>
        <time>2016-05-06T09:40:41Z</time>
      </trkpt>
      <trkpt lat="50.67696" lon="2.15296">
        <ele>77.3</ele>
        <time>2016-05-06T09:40:43Z</time>
      </trkpt>
      <trkpt lat="50.67702" lon="2.15271">
        <ele>77.3</ele>
        <time>2016-05-06T09:40:45Z</time>
      </trkpt>
      <trkpt lat="50.67707" lon="2.15246">
        <ele>77.3</ele>
        <time>2016-05-06T09:40:47Z</time>
      </trkpt>
      <trkpt lat="50.67712" lon="2.15222">
        <ele>77.3</ele>
        <time>2016-05-06T09:40:49Z</time>
      </trkpt>
      <trkpt lat="50.67718" lon="2.15199">
        <ele>77.3</ele>
        <time>2016-05-06T09:40:51Z</time>
      </trkpt>
      <trkpt lat="50.67722" lon="2.15175">
        <ele>77.3</ele>
        <time>2016-05-06T09:40:53Z</time>
      </trkpt>
      <trkpt lat="50.67726" lon="2.15151">
        <ele>77.3</ele>
        <time>2016-05-06T09:40:55Z</time>
      </trkpt>
      <trkpt lat="50.67729" lon="2.15127">
        <ele>77.4</ele>
        <time>2016-05-06T09:40:57Z</time>
      </trkpt>
      <trkpt lat="50.67732" lon="2.15102">
        <ele>77.4</ele>
        <time>2016-05-06T09:40:59Z</time>
      </trkpt>
      <trkpt lat="50.67735" lon="2.15078">
        <ele>77.4</ele>
        <time>2016-05-06T09:41:01Z</time>
      </trkpt>
      <trkpt lat="50.67738" lon="2.15053">
        <ele>77.4</ele>
        <time>2016-05-06T09:41:03Z</time>
      </trkpt>
      <trkpt lat="50.67741" lon="2.15029">
        <ele>77.4</ele>
        <time>2016-05-06T09:41:05Z</time>
      </trkpt>
      <trkpt lat="50.67744" lon="2.15006">
        <ele>77.4</ele>
        <time>2016-05-06T09:41:07Z</time>
      </trkpt>
      <trkpt lat="50.67747" lon="2.14982">
        <ele>77.5</ele>
        <time>2016-05-06T09:41:09Z</time>
      </trkpt>
      <trkpt lat="50.6775" lon="2.14958">
        <ele>77.5</ele>
        <time>2016-05-06T09:41:11Z</time>
      </trkpt>
      <trkpt lat="50.67753" lon="2.14934">
        <ele>77.6</ele>
        <time>2016-05-06T09:41:13Z</time>
      </trkpt>
      <trkpt lat="50.67756" lon="2.14911">
        <ele>77.7</ele>
        <time>2016-05-06T09:41:15Z</time>
      </trkpt>
      <trkpt lat="50.67759" lon="2.14887">
        <ele>77.8</ele>
        <time>2016-05-06T09:41:17Z</time>
      </trkpt>
      <trkpt lat="50.67761" lon="2.14863">
        <ele>77.9</ele>
        <time>2016-05-06T09:41:19Z</time>
      </trkpt>
      <trkpt lat="50.67764" lon="2.1484">
        <ele>77.9</ele>
        <time>2016-05-06T09:41:21Z</time>
      </trkpt>
      <trkpt lat="50.67767" lon="2.14817">
        <ele>78</ele>
        <time>2016-05-06T09:41:23Z</time>
      </trkpt>
      <trkpt lat="50.6777" lon="2.14793">
        <ele>78</ele>
        <time>2016-05-06T09:41:25Z</time>
      </trkpt>
      <trkpt lat="50.67774" lon="2.1477">
        <ele>78.1</ele>
        <time>2016-05-06T09:41:27Z</time>
      </trkpt>
      <trkpt lat="50.6778" lon="2.14747">
        <ele>78.1</ele>
        <time>2016-05-06T09:41:29Z</time>
      </trkpt>
      <trkpt lat="50.67788" lon="2.14727">
        <ele>78.1</ele>
        <time>2016-05-06T09:41:31Z</time>
      </trkpt>
      <trkpt lat="50.67796" lon="2.14707">
        <ele>78.1</ele>
        <time>2016-05-06T09:41:33Z</time>
      </trkpt>
      <trkpt lat="50.67805" lon="2.14688">
        <ele>78.2</ele>
        <time>2016-05-06T09:41:35Z</time>
      </trkpt>
      <trkpt lat="50.67814" lon="2.14668">
        <ele>78.2</ele>
        <time>2016-05-06T09:41:37Z</time>
      </trkpt>
      <trkpt lat="50.67823" lon="2.14648">
        <ele>78.2</ele>
        <time>2016-05-06T09:41:39Z</time>
      </trkpt>
      <trkpt lat="50.67831" lon="2.14628">
        <ele>78.2</ele>
        <time>2016-05-06T09:41:41Z</time>
      </trkpt>
      <trkpt lat="50.67841" lon="2.14608">
        <ele>78.2</ele>
        <time>2016-05-06T09:41:43Z</time>
      </trkpt>
      <trkpt lat="50.6785" lon="2.14587">
        <ele>78.3</ele>
        <time>2016-05-06T09:41:45Z</time>
      </trkpt>
      <trkpt lat="50.67859" lon="2.14567">
        <ele>78.3</ele>
        <time>2016-05-06T09:41:47Z</time>
      </trkpt>
      <trkpt lat="50.67868" lon="2.14547">
        <ele>78.3</ele>
        <time>2016-05-06T09:41:49Z</time>
      </trkpt>
      <trkpt lat="50.67876" lon="2.14528">
        <ele>78.4</ele>
        <time>2016-05-06T09:41:51Z</time>
      </trkpt>
      <trkpt lat="50.67884" lon="2.14509">
        <ele>78.4</ele>
        <time>2016-05-06T09:41:53Z</time>
      </trkpt>
      <trkpt lat="50.67892" lon="2.1449">
        <ele>78.5</ele>
        <time>2016-05-06T09:41:55Z</time>
      </trkpt>
      <trkpt lat="50.67901" lon="2.1447">
        <ele>78.5</ele>
        <time>2016-05-06T09:41:57Z</time>
      </trkpt>
      <trkpt lat="50.6791" lon="2.1445">
        <ele>78.5</ele>
        <time>2016-05-06T09:41:59Z</time>
      </trkpt>
      <trkpt lat="50.67919" lon="2.14429">
        <ele>78.5</ele>
        <time>2016-05-06T09:42:01Z</time>
      </trkpt>
      <trkpt lat="50.67927" lon="2.14409">
        <ele>78.5</ele>
        <time>2016-05-06T09:42:03Z</time>
      </trkpt>
      <trkpt lat="50.67936" lon="2.14388">
        <ele>78.4</ele>
        <time>2016-05-06T09:42:05Z</time>
      </trkpt>
      <trkpt lat="50.67944" lon="2.14367">
        <ele>78.3</ele>
        <time>2016-05-06T09:42:07Z</time>
      </trkpt>
      <trkpt lat="50.67953" lon="2.14346">
        <ele>78.1</ele>
        <time>2016-05-06T09:42:09Z</time>
      </trkpt>
      <trkpt lat="50.67961" lon="2.14324">
        <ele>77.9</ele>
        <time>2016-05-06T09:42:11Z</time>
      </trkpt>
      <trkpt lat="50.6797" lon="2.14303">
        <ele>77.6</ele>
        <time>2016-05-06T09:42:13Z</time>
      </trkpt>
      <trkpt lat="50.67979" lon="2.14281">
        <ele>77.3</ele>
        <time>2016-05-06T09:42:15Z</time>
      </trkpt>
      <trkpt lat="50.67988" lon="2.14259">
        <ele>77.1</ele>
        <time>2016-05-06T09:42:17Z</time>
      </trkpt>
      <trkpt lat="50.67997" lon="2.14238">
        <ele>76.8</ele>
        <time>2016-05-06T09:42:19Z</time>
      </trkpt>
      <trkpt lat="50.68008" lon="2.14219">
        <ele>76.6</ele>
        <time>2016-05-06T09:42:21Z</time>
      </trkpt>
      <trkpt lat="50.6802" lon="2.14201">
        <ele>76.3</ele>
        <time>2016-05-06T09:42:23Z</time>
      </trkpt>
      <trkpt lat="50.68033" lon="2.14184">
        <ele>76.1</ele>
        <time>2016-05-06T09:42:25Z</time>
      </trkpt>
      <trkpt lat="50.68046" lon="2.14165">
        <ele>75.8</ele>
        <time>2016-05-06T09:42:27Z</time>
      </trkpt>
      <trkpt lat="50.68058" lon="2.14146">
        <ele>75.5</ele>
        <time>2016-05-06T09:42:29Z</time>
      </trkpt>
      <trkpt lat="50.6807" lon="2.14128">
        <ele>75.1</ele>
        <time>2016-05-06T09:42:31Z</time>
      </trkpt>
      <trkpt lat="50.68082" lon="2.14109">
        <ele>74.8</ele>
        <time>2016-05-06T09:42:33Z</time>
      </trkpt>
      <trkpt lat="50.68093" lon="2.14091">
        <ele>74.5</ele>
        <time>2016-05-06T09:42:35Z</time>
      </trkpt>
      <trkpt lat="50.68105" lon="2.14076">
        <ele>74.2</ele>
        <time>2016-05-06T09:42:37Z</time>
      </trkpt>
      <trkpt lat="50.68116" lon="2.1406">
        <ele>73.8</ele>
        <time>2016-05-06T09:42:39Z</time>
      </trkpt>
      <trkpt lat="50.68128" lon="2.14042">
        <ele>73.3</ele>
        <time>2016-05-06T09:42:41Z</time>
      </trkpt>
      <trkpt lat="50.68139" lon="2.14025">
        <ele>73</ele>
        <time>2016-05-06T09:42:43Z</time>
      </trkpt>
      <trkpt lat="50.6815" lon="2.14007">
        <ele>72.6</ele>
        <time>2016-05-06T09:42:45Z</time>
      </trkpt>
      <trkpt lat="50.68161" lon="2.13987">
        <ele>72.3</ele>
        <time>2016-05-06T09:42:47Z</time>
      </trkpt>
      <trkpt lat="50.68173" lon="2.13967">
        <ele>71.8</ele>
        <time>2016-05-06T09:42:49Z</time>
      </trkpt>
      <trkpt lat="50.68179" lon="2.13957">
        <ele>71.6</ele>
        <time>2016-05-06T09:42:50Z</time>
      </trkpt>
      <trkpt lat="50.68186" lon="2.13947">
        <ele>71.4</ele>
        <time>2016-05-06T09:42:51Z</time>
      </trkpt>
      <trkpt lat="50.68192" lon="2.13936">
        <ele>71.1</ele>
        <time>2016-05-06T09:42:52Z</time>
      </trkpt>
      <trkpt lat="50.68199" lon="2.13925">
        <ele>70.9</ele>
        <time>2016-05-06T09:42:53Z</time>
      </trkpt>
      <trkpt lat="50.68205" lon="2.13914">
        <ele>70.5</ele>
        <time>2016-05-06T09:42:54Z</time>
      </trkpt>
      <trkpt lat="50.68212" lon="2.13904">
        <ele>70.2</ele>
        <time>2016-05-06T09:42:55Z</time>
      </trkpt>
      <trkpt lat="50.68218" lon="2.13893">
        <ele>69.8</ele>
        <time>2016-05-06T09:42:56Z</time>
      </trkpt>
      <trkpt lat="50.68225" lon="2.13882">
        <ele>69.5</ele>
        <time>2016-05-06T09:42:57Z</time>
      </trkpt>
      <trkpt lat="50.68231" lon="2.13871">
        <ele>69.2</ele>
        <time>2016-05-06T09:42:58Z</time>
      </trkpt>
      <trkpt lat="50.68238" lon="2.1386">
        <ele>68.9</ele>
        <time>2016-05-06T09:42:59Z</time>
      </trkpt>
      <trkpt lat="50.68245" lon="2.1385">
        <ele>68.6</ele>
        <time>2016-05-06T09:43:00Z</time>
      </trkpt>
      <trkpt lat="50.68251" lon="2.13839">
        <ele>68.4</ele>
        <time>2016-05-06T09:43:01Z</time>
      </trkpt>
      <trkpt lat="50.68263" lon="2.13819">
        <ele>67.8</ele>
        <time>2016-05-06T09:43:03Z</time>
      </trkpt>
      <trkpt lat="50.68274" lon="2.13798">
        <ele>67.3</ele>
        <time>2016-05-06T09:43:05Z</time>
      </trkpt>
      <trkpt lat="50.68283" lon="2.13778">
        <ele>66.8</ele>
        <time>2016-05-06T09:43:07Z</time>
      </trkpt>
      <trkpt lat="50.68293" lon="2.1376">
        <ele>66.3</ele>
        <time>2016-05-06T09:43:09Z</time>
      </trkpt>
      <trkpt lat="50.68304" lon="2.13741">
        <ele>65.9</ele>
        <time>2016-05-06T09:43:11Z</time>
      </trkpt>
      <trkpt lat="50.68317" lon="2.13727">
        <ele>65.3</ele>
        <time>2016-05-06T09:43:13Z</time>
      </trkpt>
      <trkpt lat="50.68332" lon="2.1372">
        <ele>64.9</ele>
        <time>2016-05-06T09:43:15Z</time>
      </trkpt>
      <trkpt lat="50.68348" lon="2.13716">
        <ele>64.5</ele>
        <time>2016-05-06T09:43:17Z</time>
      </trkpt>
      <trkpt lat="50.68362" lon="2.13708">
        <ele>64.2</ele>
        <time>2016-05-06T09:43:19Z</time>
      </trkpt>
      <trkpt lat="50.68374" lon="2.13698">
        <ele>63.9</ele>
        <time>2016-05-06T09:43:21Z</time>
      </trkpt>
      <trkpt lat="50.68385" lon="2.13684">
        <ele>63.6</ele>
        <time>2016-05-06T09:43:23Z</time>
      </trkpt>
      <trkpt lat="50.68394" lon="2.13665">
        <ele>63.3</ele>
        <time>2016-05-06T09:43:25Z</time>
      </trkpt>
      <trkpt lat="50.684" lon="2.13645">
        <ele>63.1</ele>
        <time>2016-05-06T09:43:27Z</time>
      </trkpt>
      <trkpt lat="50.68403" lon="2.13621">
        <ele>63</ele>
        <time>2016-05-06T09:43:29Z</time>
      </trkpt>
      <trkpt lat="50.68406" lon="2.13597">
        <ele>62.8</ele>
        <time>2016-05-06T09:43:31Z</time>
      </trkpt>
      <trkpt lat="50.6841" lon="2.13574">
        <ele>62.7</ele>
        <time>2016-05-06T09:43:33Z</time>
      </trkpt>
      <trkpt lat="50.68416" lon="2.13551">
        <ele>62.5</ele>
        <time>2016-05-06T09:43:35Z</time>
      </trkpt>
      <trkpt lat="50.68423" lon="2.13528">
        <ele>62.4</ele>
        <time>2016-05-06T09:43:37Z</time>
      </trkpt>
      <trkpt lat="50.68427" lon="2.13515">
        <ele>62.4</ele>
        <time>2016-05-06T09:43:38Z</time>
      </trkpt>
      <trkpt lat="50.68435" lon="2.1349">
        <ele>62.2</ele>
        <time>2016-05-06T09:43:40Z</time>
      </trkpt>
      <trkpt lat="50.68442" lon="2.13466">
        <ele>61.9</ele>
        <time>2016-05-06T09:43:42Z</time>
      </trkpt>
      <trkpt lat="50.68448" lon="2.13441">
        <ele>61.6</ele>
        <time>2016-05-06T09:43:44Z</time>
      </trkpt>
      <trkpt lat="50.68456" lon="2.13417">
        <ele>61.3</ele>
        <time>2016-05-06T09:43:46Z</time>
      </trkpt>
      <trkpt lat="50.68463" lon="2.13394">
        <ele>61</ele>
        <time>2016-05-06T09:43:48Z</time>
      </trkpt>
      <trkpt lat="50.68471" lon="2.13372">
        <ele>60.7</ele>
        <time>2016-05-06T09:43:50Z</time>
      </trkpt>
      <trkpt lat="50.68479" lon="2.13351">
        <ele>60.5</ele>
        <time>2016-05-06T09:43:52Z</time>
      </trkpt>
      <trkpt lat="50.68487" lon="2.1333">
        <ele>60.2</ele>
        <time>2016-05-06T09:43:54Z</time>
      </trkpt>
      <trkpt lat="50.68495" lon="2.1331">
        <ele>59.9</ele>
        <time>2016-05-06T09:43:56Z</time>
      </trkpt>
      <trkpt lat="50.68503" lon="2.13292">
        <ele>59.6</ele>
        <time>2016-05-06T09:43:58Z</time>
      </trkpt>
      <trkpt lat="50.6851" lon="2.13274">
        <ele>59.4</ele>
        <time>2016-05-06T09:44:00Z</time>
      </trkpt>
      <trkpt lat="50.68518" lon="2.13257">
        <ele>59.2</ele>
        <time>2016-05-06T09:44:02Z</time>
      </trkpt>
      <trkpt lat="50.68526" lon="2.13242">
        <ele>59.1</ele>
        <time>2016-05-06T09:44:04Z</time>
      </trkpt>
      <trkpt lat="50.68535" lon="2.13229">
        <ele>59</ele>
        <time>2016-05-06T09:44:06Z</time>
      </trkpt>
      <trkpt lat="50.68544" lon="2.13218">
        <ele>59</ele>
        <time>2016-05-06T09:44:08Z</time>
      </trkpt>
      <trkpt lat="50.68554" lon="2.13207">
        <ele>59</ele>
        <time>2016-05-06T09:44:10Z</time>
      </trkpt>
      <trkpt lat="50.68564" lon="2.13198">
        <ele>59.1</ele>
        <time>2016-05-06T09:44:12Z</time>
      </trkpt>
      <trkpt lat="50.68575" lon="2.13189">
        <ele>59.2</ele>
        <time>2016-05-06T09:44:14Z</time>
      </trkpt>
      <trkpt lat="50.68586" lon="2.13179">
        <ele>59.4</ele>
        <time>2016-05-06T09:44:16Z</time>
      </trkpt>
      <trkpt lat="50.68596" lon="2.13171">
        <ele>59.7</ele>
        <time>2016-05-06T09:44:18Z</time>
      </trkpt>
      <trkpt lat="50.68606" lon="2.13162">
        <ele>60</ele>
        <time>2016-05-06T09:44:20Z</time>
      </trkpt>
      <trkpt lat="50.68615" lon="2.13152">
        <ele>60.4</ele>
        <time>2016-05-06T09:44:22Z</time>
      </trkpt>
      <trkpt lat="50.68624" lon="2.13143">
        <ele>60.7</ele>
        <time>2016-05-06T09:44:24Z</time>
      </trkpt>
      <trkpt lat="50.68633" lon="2.13134">
        <ele>61</ele>
        <time>2016-05-06T09:44:26Z</time>
      </trkpt>
      <trkpt lat="50.6864" lon="2.13124">
        <ele>61.4</ele>
        <time>2016-05-06T09:44:28Z</time>
      </trkpt>
      <trkpt lat="50.68649" lon="2.13114">
        <ele>61.8</ele>
        <time>2016-05-06T09:44:30Z</time>
      </trkpt>
      <trkpt lat="50.68659" lon="2.13104">
        <ele>62.2</ele>
        <time>2016-05-06T09:44:32Z</time>
      </trkpt>
      <trkpt lat="50.68667" lon="2.13094">
        <ele>62.6</ele>
        <time>2016-05-06T09:44:34Z</time>
      </trkpt>
      <trkpt lat="50.68676" lon="2.13083">
        <ele>62.9</ele>
        <time>2016-05-06T09:44:36Z</time>
      </trkpt>
      <trkpt lat="50.68686" lon="2.13071">
        <ele>63.2</ele>
        <time>2016-05-06T09:44:38Z</time>
      </trkpt>
      <trkpt lat="50.68697" lon="2.13058">
        <ele>63.5</ele>
        <time>2016-05-06T09:44:40Z</time>
      </trkpt>
      <trkpt lat="50.68708" lon="2.13043">
        <ele>63.7</ele>
        <time>2016-05-06T09:44:42Z</time>
      </trkpt>
      <trkpt lat="50.6872" lon="2.13028">
        <ele>63.9</ele>
        <time>2016-05-06T09:44:44Z</time>
      </trkpt>
      <trkpt lat="50.68733" lon="2.13013">
        <ele>64</ele>
        <time>2016-05-06T09:44:46Z</time>
      </trkpt>
      <trkpt lat="50.68745" lon="2.12996">
        <ele>63.9</ele>
        <time>2016-05-06T09:44:48Z</time>
      </trkpt>
      <trkpt lat="50.68755" lon="2.12977">
        <ele>63.8</ele>
        <time>2016-05-06T09:44:50Z</time>
      </trkpt>
      <trkpt lat="50.68763" lon="2.12956">
        <ele>63.7</ele>
        <time>2016-05-06T09:44:52Z</time>
      </trkpt>
      <trkpt lat="50.68768" lon="2.12934">
        <ele>63.6</ele>
        <time>2016-05-06T09:44:54Z</time>
      </trkpt>
      <trkpt lat="50.68773" lon="2.12914">
        <ele>63.5</ele>
        <time>2016-05-06T09:44:56Z</time>
      </trkpt>
      <trkpt lat="50.68779" lon="2.12895">
        <ele>63.4</ele>
        <time>2016-05-06T09:44:58Z</time>
      </trkpt>
      <trkpt lat="50.68787" lon="2.12878">
        <ele>63.3</ele>
        <time>2016-05-06T09:45:00Z</time>
      </trkpt>
      <trkpt lat="50.68796" lon="2.12863">
        <ele>63.2</ele>
        <time>2016-05-06T09:45:02Z</time>
      </trkpt>
      <trkpt lat="50.68806" lon="2.12849">
        <ele>63.1</ele>
        <time>2016-05-06T09:45:04Z</time>
      </trkpt>
      <trkpt lat="50.68816" lon="2.12837">
        <ele>63.1</ele>
        <time>2016-05-06T09:45:06Z</time>
      </trkpt>
      <trkpt lat="50.68827" lon="2.12825">
        <ele>63</ele>
        <time>2016-05-06T09:45:08Z</time>
      </trkpt>
      <trkpt lat="50.68839" lon="2.12812">
        <ele>63</ele>
        <time>2016-05-06T09:45:10Z</time>
      </trkpt>
      <trkpt lat="50.6885" lon="2.12799">
        <ele>62.9</ele>
        <time>2016-05-06T09:45:12Z</time>
      </trkpt>
      <trkpt lat="50.68861" lon="2.12786">
        <ele>62.6</ele>
        <time>2016-05-06T09:45:14Z</time>
      </trkpt>
      <trkpt lat="50.68873" lon="2.12775">
        <ele>62.6</ele>
        <time>2016-05-06T09:45:16Z</time>
      </trkpt>
      <trkpt lat="50.68885" lon="2.12764">
        <ele>62.6</ele>
        <time>2016-05-06T09:45:18Z</time>
      </trkpt>
      <trkpt lat="50.68896" lon="2.12756">
        <ele>62.6</ele>
        <time>2016-05-06T09:45:20Z</time>
      </trkpt>
      <trkpt lat="50.68906" lon="2.12749">
        <ele>62.5</ele>
        <time>2016-05-06T09:45:22Z</time>
      </trkpt>
      <trkpt lat="50.68916" lon="2.12744">
        <ele>62.2</ele>
        <time>2016-05-06T09:45:26Z</time>
      </trkpt>
      <trkpt lat="50.68908" lon="2.12737">
        <ele>61.9</ele>
        <time>2016-05-06T09:45:31Z</time>
      </trkpt>
      <trkpt lat="50.68897" lon="2.12746">
        <ele>61.7</ele>
        <time>2016-05-06T09:45:34Z</time>
      </trkpt>
      <trkpt lat="50.68887" lon="2.12755">
        <ele>61.5</ele>
        <time>2016-05-06T09:45:37Z</time>
      </trkpt>
      <trkpt lat="50.68876" lon="2.12764">
        <ele>61.4</ele>
        <time>2016-05-06T09:45:40Z</time>
      </trkpt>
      <trkpt lat="50.68867" lon="2.12772">
        <ele>61.3</ele>
        <time>2016-05-06T09:45:43Z</time>
      </trkpt>
      <trkpt lat="50.68856" lon="2.12766">
        <ele>61.3</ele>
        <time>2016-05-06T09:45:46Z</time>
      </trkpt>
      <trkpt lat="50.68846" lon="2.12753">
        <ele>61.2</ele>
        <time>2016-05-06T09:45:49Z</time>
      </trkpt>
      <trkpt lat="50.68839" lon="2.12741">
        <ele>61.3</ele>
        <time>2016-05-06T09:45:51Z</time>
      </trkpt>
      <trkpt lat="50.6883" lon="2.1273">
        <ele>61.5</ele>
        <time>2016-05-06T09:45:53Z</time>
      </trkpt>
      <trkpt lat="50.68822" lon="2.12719">
        <ele>61.6</ele>
        <time>2016-05-06T09:45:55Z</time>
      </trkpt>
      <trkpt lat="50.68815" lon="2.12707">
        <ele>61.7</ele>
        <time>2016-05-06T09:45:57Z</time>
      </trkpt>
      <trkpt lat="50.68808" lon="2.12696">
        <ele>61.9</ele>
        <time>2016-05-06T09:45:59Z</time>
      </trkpt>
      <trkpt lat="50.688" lon="2.12687">
        <ele>62.1</ele>
        <time>2016-05-06T09:46:01Z</time>
      </trkpt>
      <trkpt lat="50.68792" lon="2.12675">
        <ele>62.3</ele>
        <time>2016-05-06T09:46:03Z</time>
      </trkpt>
      <trkpt lat="50.68784" lon="2.12666">
        <ele>62.4</ele>
        <time>2016-05-06T09:46:05Z</time>
      </trkpt>
      <trkpt lat="50.68773" lon="2.12658">
        <ele>62.6</ele>
        <time>2016-05-06T09:46:07Z</time>
      </trkpt>
      <trkpt lat="50.68763" lon="2.12656">
        <ele>62.8</ele>
        <time>2016-05-06T09:46:09Z</time>
      </trkpt>
      <trkpt lat="50.68753" lon="2.12655">
        <ele>63.1</ele>
        <time>2016-05-06T09:46:11Z</time>
      </trkpt>
      <trkpt lat="50.6874" lon="2.12653">
        <ele>63.4</ele>
        <time>2016-05-06T09:46:14Z</time>
      </trkpt>
      <trkpt lat="50.68731" lon="2.12653">
        <ele>63.7</ele>
        <time>2016-05-06T09:46:16Z</time>
      </trkpt>
      <trkpt lat="50.68721" lon="2.12652">
        <ele>64</ele>
        <time>2016-05-06T09:46:18Z</time>
      </trkpt>
      <trkpt lat="50.68711" lon="2.12651">
        <ele>64.3</ele>
        <time>2016-05-06T09:46:20Z</time>
      </trkpt>
      <trkpt lat="50.68702" lon="2.12649">
        <ele>64.6</ele>
        <time>2016-05-06T09:46:22Z</time>
      </trkpt>
      <trkpt lat="50.6869" lon="2.12643">
        <ele>65.2</ele>
        <time>2016-05-06T09:46:25Z</time>
      </trkpt>
      <trkpt lat="50.68678" lon="2.12634">
        <ele>65.7</ele>
        <time>2016-05-06T09:46:28Z</time>
      </trkpt>
      <trkpt lat="50.6867" lon="2.12621">
        <ele>66.3</ele>
        <time>2016-05-06T09:46:31Z</time>
      </trkpt>
      <trkpt lat="50.6866" lon="2.12608">
        <ele>66.9</ele>
        <time>2016-05-06T09:46:34Z</time>
      </trkpt>
      <trkpt lat="50.68649" lon="2.12597">
        <ele>67.5</ele>
        <time>2016-05-06T09:46:37Z</time>
      </trkpt>
      <trkpt lat="50.6864" lon="2.12585">
        <ele>68.2</ele>
        <time>2016-05-06T09:46:40Z</time>
      </trkpt>
      <trkpt lat="50.6863" lon="2.12573">
        <ele>68.9</ele>
        <time>2016-05-06T09:46:43Z</time>
      </trkpt>
      <trkpt lat="50.68623" lon="2.12563">
        <ele>69.4</ele>
        <time>2016-05-06T09:46:45Z</time>
      </trkpt>
      <trkpt lat="50.68613" lon="2.12552">
        <ele>70.1</ele>
        <time>2016-05-06T09:46:48Z</time>
      </trkpt>
      <trkpt lat="50.68603" lon="2.1254">
        <ele>70.6</ele>
        <time>2016-05-06T09:46:51Z</time>
      </trkpt>
      <trkpt lat="50.68595" lon="2.12531">
        <ele>71</ele>
        <time>2016-05-06T09:46:53Z</time>
      </trkpt>
      <trkpt lat="50.68587" lon="2.12521">
        <ele>71.3</ele>
        <time>2016-05-06T09:46:55Z</time>
      </trkpt>
      <trkpt lat="50.68579" lon="2.12512">
        <ele>71.8</ele>
        <time>2016-05-06T09:46:57Z</time>
      </trkpt>
      <trkpt lat="50.68571" lon="2.12502">
        <ele>72.2</ele>
        <time>2016-05-06T09:46:59Z</time>
      </trkpt>
      <trkpt lat="50.68563" lon="2.12492">
        <ele>72.5</ele>
        <time>2016-05-06T09:47:01Z</time>
      </trkpt>
      <trkpt lat="50.68556" lon="2.12482">
        <ele>72.9</ele>
        <time>2016-05-06T09:47:03Z</time>
      </trkpt>
      <trkpt lat="50.68548" lon="2.12472">
        <ele>73.2</ele>
        <time>2016-05-06T09:47:05Z</time>
      </trkpt>
      <trkpt lat="50.68539" lon="2.12462">
        <ele>73.6</ele>
        <time>2016-05-06T09:47:07Z</time>
      </trkpt>
      <trkpt lat="50.68531" lon="2.12452">
        <ele>74</ele>
        <time>2016-05-06T09:47:09Z</time>
      </trkpt>
      <trkpt lat="50.68523" lon="2.12443">
        <ele>74.4</ele>
        <time>2016-05-06T09:47:11Z</time>
      </trkpt>
      <trkpt lat="50.68515" lon="2.12433">
        <ele>74.9</ele>
        <time>2016-05-06T09:47:13Z</time>
      </trkpt>
      <trkpt lat="50.68507" lon="2.12423">
        <ele>75.2</ele>
        <time>2016-05-06T09:47:15Z</time>
      </trkpt>
      <trkpt lat="50.68499" lon="2.12414">
        <ele>75.6</ele>
        <time>2016-05-06T09:47:17Z</time>
      </trkpt>
      <trkpt lat="50.68491" lon="2.12404">
        <ele>75.9</ele>
        <time>2016-05-06T09:47:19Z</time>
      </trkpt>
      <trkpt lat="50.68483" lon="2.12395">
        <ele>76.3</ele>
        <time>2016-05-06T09:47:21Z</time>
      </trkpt>
      <trkpt lat="50.68476" lon="2.12386">
        <ele>76.7</ele>
        <time>2016-05-06T09:47:23Z</time>
      </trkpt>
      <trkpt lat="50.68468" lon="2.12377">
        <ele>77</ele>
        <time>2016-05-06T09:47:25Z</time>
      </trkpt>
      <trkpt lat="50.68458" lon="2.12364">
        <ele>77.7</ele>
        <time>2016-05-06T09:47:28Z</time>
      </trkpt>
      <trkpt lat="50.68448" lon="2.12352">
        <ele>78.3</ele>
        <time>2016-05-06T09:47:31Z</time>
      </trkpt>
      <trkpt lat="50.68438" lon="2.12341">
        <ele>78.9</ele>
        <time>2016-05-06T09:47:34Z</time>
      </trkpt>
      <trkpt lat="50.68428" lon="2.12329">
        <ele>79.6</ele>
        <time>2016-05-06T09:47:37Z</time>
      </trkpt>
      <trkpt lat="50.68419" lon="2.12317">
        <ele>80.2</ele>
        <time>2016-05-06T09:47:40Z</time>
      </trkpt>
      <trkpt lat="50.68409" lon="2.12305">
        <ele>80.9</ele>
        <time>2016-05-06T09:47:43Z</time>
      </trkpt>
      <trkpt lat="50.68399" lon="2.12294">
        <ele>81.6</ele>
        <time>2016-05-06T09:47:46Z</time>
      </trkpt>
      <trkpt lat="50.68389" lon="2.12283">
        <ele>82.4</ele>
        <time>2016-05-06T09:47:49Z</time>
      </trkpt>
      <trkpt lat="50.68379" lon="2.12273">
        <ele>83</ele>
        <time>2016-05-06T09:47:52Z</time>
      </trkpt>
      <trkpt lat="50.68369" lon="2.12261">
        <ele>83.7</ele>
        <time>2016-05-06T09:47:55Z</time>
      </trkpt>
      <trkpt lat="50.68359" lon="2.1225">
        <ele>84.4</ele>
        <time>2016-05-06T09:47:58Z</time>
      </trkpt>
      <trkpt lat="50.68351" lon="2.12242">
        <ele>84.8</ele>
        <time>2016-05-06T09:48:00Z</time>
      </trkpt>
      <trkpt lat="50.68343" lon="2.12234">
        <ele>85.2</ele>
        <time>2016-05-06T09:48:02Z</time>
      </trkpt>
      <trkpt lat="50.68335" lon="2.12226">
        <ele>85.6</ele>
        <time>2016-05-06T09:48:04Z</time>
      </trkpt>
      <trkpt lat="50.68327" lon="2.12218">
        <ele>86</ele>
        <time>2016-05-06T09:48:06Z</time>
      </trkpt>
      <trkpt lat="50.68318" lon="2.12209">
        <ele>86.4</ele>
        <time>2016-05-06T09:48:08Z</time>
      </trkpt>
      <trkpt lat="50.68309" lon="2.12201">
        <ele>86.8</ele>
        <time>2016-05-06T09:48:10Z</time>
      </trkpt>
      <trkpt lat="50.683" lon="2.12191">
        <ele>87.3</ele>
        <time>2016-05-06T09:48:12Z</time>
      </trkpt>
      <trkpt lat="50.68291" lon="2.12182">
        <ele>87.6</ele>
        <time>2016-05-06T09:48:14Z</time>
      </trkpt>
      <trkpt lat="50.68282" lon="2.12172">
        <ele>88</ele>
        <time>2016-05-06T09:48:16Z</time>
      </trkpt>
      <trkpt lat="50.68272" lon="2.12163">
        <ele>88.4</ele>
        <time>2016-05-06T09:48:18Z</time>
      </trkpt>
      <trkpt lat="50.68262" lon="2.12154">
        <ele>88.7</ele>
        <time>2016-05-06T09:48:20Z</time>
      </trkpt>
      <trkpt lat="50.68252" lon="2.12144">
        <ele>89</ele>
        <time>2016-05-06T09:48:22Z</time>
      </trkpt>
      <trkpt lat="50.68242" lon="2.12135">
        <ele>89.2</ele>
        <time>2016-05-06T09:48:24Z</time>
      </trkpt>
      <trkpt lat="50.68231" lon="2.12124">
        <ele>89.5</ele>
        <time>2016-05-06T09:48:26Z</time>
      </trkpt>
      <trkpt lat="50.68219" lon="2.12114">
        <ele>89.8</ele>
        <time>2016-05-06T09:48:28Z</time>
      </trkpt>
      <trkpt lat="50.68208" lon="2.12103">
        <ele>90.1</ele>
        <time>2016-05-06T09:48:30Z</time>
      </trkpt>
      <trkpt lat="50.68197" lon="2.12093">
        <ele>90.4</ele>
        <time>2016-05-06T09:48:32Z</time>
      </trkpt>
      <trkpt lat="50.68186" lon="2.12083">
        <ele>90.8</ele>
        <time>2016-05-06T09:48:34Z</time>
      </trkpt>
      <trkpt lat="50.68174" lon="2.12073">
        <ele>91.1</ele>
        <time>2016-05-06T09:48:36Z</time>
      </trkpt>
      <trkpt lat="50.68162" lon="2.12062">
        <ele>91.3</ele>
        <time>2016-05-06T09:48:38Z</time>
      </trkpt>
      <trkpt lat="50.68151" lon="2.12052">
        <ele>91.6</ele>
        <time>2016-05-06T09:48:40Z</time>
      </trkpt>
      <trkpt lat="50.6814" lon="2.1204">
        <ele>91.8</ele>
        <time>2016-05-06T09:48:42Z</time>
      </trkpt>
      <trkpt lat="50.68128" lon="2.12027">
        <ele>92</ele>
        <time>2016-05-06T09:48:44Z</time>
      </trkpt>
      <trkpt lat="50.68117" lon="2.12014">
        <ele>92.1</ele>
        <time>2016-05-06T09:48:46Z</time>
      </trkpt>
      <trkpt lat="50.68107" lon="2.12001">
        <ele>92.3</ele>
        <time>2016-05-06T09:48:48Z</time>
      </trkpt>
      <trkpt lat="50.68097" lon="2.11986">
        <ele>92.4</ele>
        <time>2016-05-06T09:48:50Z</time>
      </trkpt>
      <trkpt lat="50.68087" lon="2.11973">
        <ele>92.5</ele>
        <time>2016-05-06T09:48:52Z</time>
      </trkpt>
      <trkpt lat="50.68077" lon="2.11959">
        <ele>92.7</ele>
        <time>2016-05-06T09:48:54Z</time>
      </trkpt>
      <trkpt lat="50.68067" lon="2.11945">
        <ele>92.8</ele>
        <time>2016-05-06T09:48:56Z</time>
      </trkpt>
      <trkpt lat="50.68058" lon="2.11932">
        <ele>93.1</ele>
        <time>2016-05-06T09:48:58Z</time>
      </trkpt>
      <trkpt lat="50.68048" lon="2.11918">
        <ele>93.3</ele>
        <time>2016-05-06T09:49:00Z</time>
      </trkpt>
      <trkpt lat="50.68038" lon="2.11905">
        <ele>93.6</ele>
        <time>2016-05-06T09:49:02Z</time>
      </trkpt>
      <trkpt lat="50.68028" lon="2.11892">
        <ele>93.8</ele>
        <time>2016-05-06T09:49:04Z</time>
      </trkpt>
      <trkpt lat="50.68018" lon="2.11879">
        <ele>94</ele>
        <time>2016-05-06T09:49:06Z</time>
      </trkpt>
      <trkpt lat="50.68007" lon="2.11867">
        <ele>94.2</ele>
        <time>2016-05-06T09:49:08Z</time>
      </trkpt>
      <trkpt lat="50.67995" lon="2.11855">
        <ele>94.4</ele>
        <time>2016-05-06T09:49:10Z</time>
      </trkpt>
      <trkpt lat="50.67984" lon="2.11844">
        <ele>94.7</ele>
        <time>2016-05-06T09:49:12Z</time>
      </trkpt>
      <trkpt lat="50.67973" lon="2.11834">
        <ele>94.9</ele>
        <time>2016-05-06T09:49:14Z</time>
      </trkpt>
      <trkpt lat="50.67961" lon="2.11826">
        <ele>95</ele>
        <time>2016-05-06T09:49:16Z</time>
      </trkpt>
      <trkpt lat="50.67948" lon="2.11818">
        <ele>95.2</ele>
        <time>2016-05-06T09:49:18Z</time>
      </trkpt>
      <trkpt lat="50.67935" lon="2.1181">
        <ele>95.3</ele>
        <time>2016-05-06T09:49:20Z</time>
      </trkpt>
      <trkpt lat="50.67921" lon="2.11803">
        <ele>95.2</ele>
        <time>2016-05-06T09:49:22Z</time>
      </trkpt>
      <trkpt lat="50.67906" lon="2.11796">
        <ele>95.2</ele>
        <time>2016-05-06T09:49:24Z</time>
      </trkpt>
      <trkpt lat="50.6789" lon="2.11788">
        <ele>95</ele>
        <time>2016-05-06T09:49:26Z</time>
      </trkpt>
      <trkpt lat="50.67875" lon="2.1178">
        <ele>94.9</ele>
        <time>2016-05-06T09:49:28Z</time>
      </trkpt>
      <trkpt lat="50.6786" lon="2.11772">
        <ele>94.7</ele>
        <time>2016-05-06T09:49:30Z</time>
      </trkpt>
      <trkpt lat="50.67846" lon="2.11763">
        <ele>94.5</ele>
        <time>2016-05-06T09:49:32Z</time>
      </trkpt>
      <trkpt lat="50.67833" lon="2.11752">
        <ele>94.4</ele>
        <time>2016-05-06T09:49:34Z</time>
      </trkpt>
      <trkpt lat="50.67821" lon="2.11739">
        <ele>94.3</ele>
        <time>2016-05-06T09:49:36Z</time>
      </trkpt>
      <trkpt lat="50.6781" lon="2.11725">
        <ele>94.1</ele>
        <time>2016-05-06T09:49:38Z</time>
      </trkpt>
      <trkpt lat="50.678" lon="2.11711">
        <ele>94</ele>
        <time>2016-05-06T09:49:40Z</time>
      </trkpt>
      <trkpt lat="50.6779" lon="2.11696">
        <ele>93.9</ele>
        <time>2016-05-06T09:49:42Z</time>
      </trkpt>
      <trkpt lat="50.6778" lon="2.11683">
        <ele>93.9</ele>
        <time>2016-05-06T09:49:44Z</time>
      </trkpt>
      <trkpt lat="50.6777" lon="2.11669">
        <ele>93.8</ele>
        <time>2016-05-06T09:49:46Z</time>
      </trkpt>
      <trkpt lat="50.6776" lon="2.11654">
        <ele>93.7</ele>
        <time>2016-05-06T09:49:48Z</time>
      </trkpt>
      <trkpt lat="50.67751" lon="2.1164">
        <ele>93.7</ele>
        <time>2016-05-06T09:49:50Z</time>
      </trkpt>
      <trkpt lat="50.67741" lon="2.11625">
        <ele>93.6</ele>
        <time>2016-05-06T09:49:52Z</time>
      </trkpt>
      <trkpt lat="50.67732" lon="2.11609">
        <ele>93.6</ele>
        <time>2016-05-06T09:49:54Z</time>
      </trkpt>
      <trkpt lat="50.67723" lon="2.11592">
        <ele>93.6</ele>
        <time>2016-05-06T09:49:56Z</time>
      </trkpt>
      <trkpt lat="50.67713" lon="2.11575">
        <ele>93.6</ele>
        <time>2016-05-06T09:49:58Z</time>
      </trkpt>
      <trkpt lat="50.67704" lon="2.11558">
        <ele>93.7</ele>
        <time>2016-05-06T09:50:00Z</time>
      </trkpt>
      <trkpt lat="50.67694" lon="2.1154">
        <ele>93.8</ele>
        <time>2016-05-06T09:50:02Z</time>
      </trkpt>
      <trkpt lat="50.67684" lon="2.11523">
        <ele>93.8</ele>
        <time>2016-05-06T09:50:04Z</time>
      </trkpt>
      <trkpt lat="50.67675" lon="2.11506">
        <ele>93.8</ele>
        <time>2016-05-06T09:50:06Z</time>
      </trkpt>
      <trkpt lat="50.67665" lon="2.11489">
        <ele>93.9</ele>
        <time>2016-05-06T09:50:08Z</time>
      </trkpt>
      <trkpt lat="50.67656" lon="2.11472">
        <ele>93.9</ele>
        <time>2016-05-06T09:50:10Z</time>
      </trkpt>
      <trkpt lat="50.67646" lon="2.11455">
        <ele>93.9</ele>
        <time>2016-05-06T09:50:12Z</time>
      </trkpt>
      <trkpt lat="50.67636" lon="2.11439">
        <ele>94</ele>
        <time>2016-05-06T09:50:14Z</time>
      </trkpt>
      <trkpt lat="50.67627" lon="2.11422">
        <ele>94</ele>
        <time>2016-05-06T09:50:16Z</time>
      </trkpt>
      <trkpt lat="50.67617" lon="2.11406">
        <ele>94</ele>
        <time>2016-05-06T09:50:18Z</time>
      </trkpt>
      <trkpt lat="50.67607" lon="2.1139">
        <ele>94</ele>
        <time>2016-05-06T09:50:20Z</time>
      </trkpt>
      <trkpt lat="50.67597" lon="2.11374">
        <ele>93.9</ele>
        <time>2016-05-06T09:50:22Z</time>
      </trkpt>
      <trkpt lat="50.67587" lon="2.11359">
        <ele>93.8</ele>
        <time>2016-05-06T09:50:24Z</time>
      </trkpt>
      <trkpt lat="50.67578" lon="2.11344">
        <ele>93.6</ele>
        <time>2016-05-06T09:50:26Z</time>
      </trkpt>
      <trkpt lat="50.67568" lon="2.11329">
        <ele>93.4</ele>
        <time>2016-05-06T09:50:28Z</time>
      </trkpt>
      <trkpt lat="50.67558" lon="2.11315">
        <ele>93.3</ele>
        <time>2016-05-06T09:50:30Z</time>
      </trkpt>
      <trkpt lat="50.67549" lon="2.113">
        <ele>93.3</ele>
        <time>2016-05-06T09:50:32Z</time>
      </trkpt>
      <trkpt lat="50.6754" lon="2.11286">
        <ele>93.3</ele>
        <time>2016-05-06T09:50:34Z</time>
      </trkpt>
      <trkpt lat="50.67531" lon="2.11272">
        <ele>93.2</ele>
        <time>2016-05-06T09:50:36Z</time>
      </trkpt>
      <trkpt lat="50.67522" lon="2.11257">
        <ele>93.2</ele>
        <time>2016-05-06T09:50:38Z</time>
      </trkpt>
      <trkpt lat="50.67512" lon="2.11243">
        <ele>93.2</ele>
        <time>2016-05-06T09:50:40Z</time>
      </trkpt>
      <trkpt lat="50.67502" lon="2.11229">
        <ele>93.3</ele>
        <time>2016-05-06T09:50:42Z</time>
      </trkpt>
      <trkpt lat="50.67492" lon="2.11214">
        <ele>93.3</ele>
        <time>2016-05-06T09:50:44Z</time>
      </trkpt>
      <trkpt lat="50.67481" lon="2.11198">
        <ele>93.4</ele>
        <time>2016-05-06T09:50:46Z</time>
      </trkpt>
      <trkpt lat="50.6747" lon="2.11183">
        <ele>93.4</ele>
        <time>2016-05-06T09:50:48Z</time>
      </trkpt>
      <trkpt lat="50.67459" lon="2.11166">
        <ele>93.4</ele>
        <time>2016-05-06T09:50:50Z</time>
      </trkpt>
      <trkpt lat="50.67448" lon="2.11149">
        <ele>93.4</ele>
        <time>2016-05-06T09:50:52Z</time>
      </trkpt>
      <trkpt lat="50.67437" lon="2.11133">
        <ele>93.3</ele>
        <time>2016-05-06T09:50:54Z</time>
      </trkpt>
      <trkpt lat="50.67426" lon="2.11118">
        <ele>93</ele>
        <time>2016-05-06T09:50:56Z</time>
      </trkpt>
      <trkpt lat="50.67415" lon="2.11103">
        <ele>92.8</ele>
        <time>2016-05-06T09:50:58Z</time>
      </trkpt>
      <trkpt lat="50.67403" lon="2.11088">
        <ele>92.6</ele>
        <time>2016-05-06T09:51:00Z</time>
      </trkpt>
      <trkpt lat="50.67392" lon="2.11072">
        <ele>92.4</ele>
        <time>2016-05-06T09:51:02Z</time>
      </trkpt>
      <trkpt lat="50.6738" lon="2.11055">
        <ele>92.2</ele>
        <time>2016-05-06T09:51:04Z</time>
      </trkpt>
      <trkpt lat="50.67367" lon="2.1104">
        <ele>92</ele>
        <time>2016-05-06T09:51:06Z</time>
      </trkpt>
      <trkpt lat="50.67356" lon="2.11027">
        <ele>91.8</ele>
        <time>2016-05-06T09:51:08Z</time>
      </trkpt>
      <trkpt lat="50.67344" lon="2.11014">
        <ele>91.7</ele>
        <time>2016-05-06T09:51:10Z</time>
      </trkpt>
      <trkpt lat="50.67332" lon="2.11002">
        <ele>91.6</ele>
        <time>2016-05-06T09:51:12Z</time>
      </trkpt>
      <trkpt lat="50.6732" lon="2.1099">
        <ele>91.5</ele>
        <time>2016-05-06T09:51:14Z</time>
      </trkpt>
      <trkpt lat="50.67309" lon="2.10976">
        <ele>91.7</ele>
        <time>2016-05-06T09:51:16Z</time>
      </trkpt>
      <trkpt lat="50.67297" lon="2.10963">
        <ele>91.8</ele>
        <time>2016-05-06T09:51:18Z</time>
      </trkpt>
      <trkpt lat="50.67284" lon="2.1095">
        <ele>91.9</ele>
        <time>2016-05-06T09:51:20Z</time>
      </trkpt>
      <trkpt lat="50.67272" lon="2.10937">
        <ele>92</ele>
        <time>2016-05-06T09:51:22Z</time>
      </trkpt>
      <trkpt lat="50.67262" lon="2.10924">
        <ele>92</ele>
        <time>2016-05-06T09:51:24Z</time>
      </trkpt>
      <trkpt lat="50.67252" lon="2.10912">
        <ele>92.1</ele>
        <time>2016-05-06T09:51:26Z</time>
      </trkpt>
      <trkpt lat="50.67241" lon="2.10902">
        <ele>92.3</ele>
        <time>2016-05-06T09:51:28Z</time>
      </trkpt>
      <trkpt lat="50.67232" lon="2.1089">
        <ele>92.4</ele>
        <time>2016-05-06T09:51:30Z</time>
      </trkpt>
      <trkpt lat="50.67223" lon="2.10878">
        <ele>92.5</ele>
        <time>2016-05-06T09:51:32Z</time>
      </trkpt>
      <trkpt lat="50.67216" lon="2.10864">
        <ele>92.7</ele>
        <time>2016-05-06T09:51:34Z</time>
      </trkpt>
      <trkpt lat="50.67208" lon="2.1085">
        <ele>92.8</ele>
        <time>2016-05-06T09:51:36Z</time>
      </trkpt>
      <trkpt lat="50.67201" lon="2.10836">
        <ele>93</ele>
        <time>2016-05-06T09:51:38Z</time>
      </trkpt>
      <trkpt lat="50.67195" lon="2.1082">
        <ele>93.1</ele>
        <time>2016-05-06T09:51:40Z</time>
      </trkpt>
      <trkpt lat="50.6719" lon="2.108">
        <ele>93.3</ele>
        <time>2016-05-06T09:51:42Z</time>
      </trkpt>
      <trkpt lat="50.67183" lon="2.10783">
        <ele>93.4</ele>
        <time>2016-05-06T09:51:44Z</time>
      </trkpt>
      <trkpt lat="50.67175" lon="2.10768">
        <ele>93.5</ele>
        <time>2016-05-06T09:51:46Z</time>
      </trkpt>
      <trkpt lat="50.67163" lon="2.10763">
        <ele>93.6</ele>
        <time>2016-05-06T09:51:48Z</time>
      </trkpt>
      <trkpt lat="50.6715" lon="2.10761">
        <ele>93.6</ele>
        <time>2016-05-06T09:51:50Z</time>
      </trkpt>
      <trkpt lat="50.67137" lon="2.10756">
        <ele>93.6</ele>
        <time>2016-05-06T09:51:52Z</time>
      </trkpt>
      <trkpt lat="50.67126" lon="2.10747">
        <ele>93.6</ele>
        <time>2016-05-06T09:51:54Z</time>
      </trkpt>
      <trkpt lat="50.67115" lon="2.10735">
        <ele>93.5</ele>
        <time>2016-05-06T09:51:56Z</time>
      </trkpt>
      <trkpt lat="50.67105" lon="2.10723">
        <ele>93.4</ele>
        <time>2016-05-06T09:51:58Z</time>
      </trkpt>
      <trkpt lat="50.67095" lon="2.1071">
        <ele>93.3</ele>
        <time>2016-05-06T09:52:00Z</time>
      </trkpt>
      <trkpt lat="50.67085" lon="2.10695">
        <ele>93.2</ele>
        <time>2016-05-06T09:52:02Z</time>
      </trkpt>
      <trkpt lat="50.67076" lon="2.1068">
        <ele>93.2</ele>
        <time>2016-05-06T09:52:04Z</time>
      </trkpt>
      <trkpt lat="50.67066" lon="2.10665">
        <ele>93.1</ele>
        <time>2016-05-06T09:52:06Z</time>
      </trkpt>
      <trkpt lat="50.67056" lon="2.10651">
        <ele>93.1</ele>
        <time>2016-05-06T09:52:08Z</time>
      </trkpt>
      <trkpt lat="50.67047" lon="2.10636">
        <ele>93</ele>
        <time>2016-05-06T09:52:10Z</time>
      </trkpt>
      <trkpt lat="50.67037" lon="2.1062">
        <ele>92.9</ele>
        <time>2016-05-06T09:52:12Z</time>
      </trkpt>
      <trkpt lat="50.67026" lon="2.10604">
        <ele>92.9</ele>
        <time>2016-05-06T09:52:14Z</time>
      </trkpt>
      <trkpt lat="50.67015" lon="2.1059">
        <ele>92.9</ele>
        <time>2016-05-06T09:52:16Z</time>
      </trkpt>
      <trkpt lat="50.67005" lon="2.10575">
        <ele>92.9</ele>
        <time>2016-05-06T09:52:18Z</time>
      </trkpt>
      <trkpt lat="50.66994" lon="2.10559">
        <ele>92.9</ele>
        <time>2016-05-06T09:52:20Z</time>
      </trkpt>
      <trkpt lat="50.66983" lon="2.10543">
        <ele>92.9</ele>
        <time>2016-05-06T09:52:22Z</time>
      </trkpt>
      <trkpt lat="50.66972" lon="2.10525">
        <ele>92.9</ele>
        <time>2016-05-06T09:52:24Z</time>
      </trkpt>
      <trkpt lat="50.66961" lon="2.10508">
        <ele>92.9</ele>
        <time>2016-05-06T09:52:26Z</time>
      </trkpt>
      <trkpt lat="50.66951" lon="2.10491">
        <ele>92.9</ele>
        <time>2016-05-06T09:52:28Z</time>
      </trkpt>
      <trkpt lat="50.6694" lon="2.10475">
        <ele>92.9</ele>
        <time>2016-05-06T09:52:30Z</time>
      </trkpt>
      <trkpt lat="50.6693" lon="2.10459">
        <ele>92.9</ele>
        <time>2016-05-06T09:52:32Z</time>
      </trkpt>
      <trkpt lat="50.66919" lon="2.10445">
        <ele>92.9</ele>
        <time>2016-05-06T09:52:34Z</time>
      </trkpt>
      <trkpt lat="50.66908" lon="2.1043">
        <ele>92.9</ele>
        <time>2016-05-06T09:52:36Z</time>
      </trkpt>
      <trkpt lat="50.66899" lon="2.10416">
        <ele>93</ele>
        <time>2016-05-06T09:52:38Z</time>
      </trkpt>
      <trkpt lat="50.66889" lon="2.10402">
        <ele>93.1</ele>
        <time>2016-05-06T09:52:40Z</time>
      </trkpt>
      <trkpt lat="50.6688" lon="2.10387">
        <ele>93.3</ele>
        <time>2016-05-06T09:52:42Z</time>
      </trkpt>
      <trkpt lat="50.6687" lon="2.10372">
        <ele>93.4</ele>
        <time>2016-05-06T09:52:44Z</time>
      </trkpt>
      <trkpt lat="50.6686" lon="2.10356">
        <ele>93.5</ele>
        <time>2016-05-06T09:52:46Z</time>
      </trkpt>
      <trkpt lat="50.6685" lon="2.10341">
        <ele>93.6</ele>
        <time>2016-05-06T09:52:48Z</time>
      </trkpt>
      <trkpt lat="50.66841" lon="2.10325">
        <ele>93.7</ele>
        <time>2016-05-06T09:52:50Z</time>
      </trkpt>
      <trkpt lat="50.66832" lon="2.10306">
        <ele>93.7</ele>
        <time>2016-05-06T09:52:52Z</time>
      </trkpt>
      <trkpt lat="50.66823" lon="2.10289">
        <ele>93.7</ele>
        <time>2016-05-06T09:52:54Z</time>
      </trkpt>
      <trkpt lat="50.66811" lon="2.10276">
        <ele>93.6</ele>
        <time>2016-05-06T09:52:56Z</time>
      </trkpt>
      <trkpt lat="50.66797" lon="2.10267">
        <ele>93.4</ele>
        <time>2016-05-06T09:52:58Z</time>
      </trkpt>
      <trkpt lat="50.66782" lon="2.10259">
        <ele>93.3</ele>
        <time>2016-05-06T09:53:00Z</time>
      </trkpt>
      <trkpt lat="50.66767" lon="2.10251">
        <ele>93.1</ele>
        <time>2016-05-06T09:53:02Z</time>
      </trkpt>
      <trkpt lat="50.66751" lon="2.10242">
        <ele>92.7</ele>
        <time>2016-05-06T09:53:04Z</time>
      </trkpt>
      <trkpt lat="50.66737" lon="2.10233">
        <ele>92.3</ele>
        <time>2016-05-06T09:53:06Z</time>
      </trkpt>
      <trkpt lat="50.66724" lon="2.1022">
        <ele>92</ele>
        <time>2016-05-06T09:53:08Z</time>
      </trkpt>
      <trkpt lat="50.66716" lon="2.10202">
        <ele>91.8</ele>
        <time>2016-05-06T09:53:10Z</time>
      </trkpt>
      <trkpt lat="50.66709" lon="2.10181">
        <ele>91.5</ele>
        <time>2016-05-06T09:53:12Z</time>
      </trkpt>
      <trkpt lat="50.66703" lon="2.1016">
        <ele>91.3</ele>
        <time>2016-05-06T09:53:14Z</time>
      </trkpt>
      <trkpt lat="50.66697" lon="2.10139">
        <ele>91.2</ele>
        <time>2016-05-06T09:53:16Z</time>
      </trkpt>
      <trkpt lat="50.66688" lon="2.10121">
        <ele>91</ele>
        <time>2016-05-06T09:53:18Z</time>
      </trkpt>
      <trkpt lat="50.66678" lon="2.10106">
        <ele>90.9</ele>
        <time>2016-05-06T09:53:20Z</time>
      </trkpt>
      <trkpt lat="50.66668" lon="2.10091">
        <ele>90.7</ele>
        <time>2016-05-06T09:53:22Z</time>
      </trkpt>
      <trkpt lat="50.66658" lon="2.10075">
        <ele>90.6</ele>
        <time>2016-05-06T09:53:24Z</time>
      </trkpt>
      <trkpt lat="50.6665" lon="2.10058">
        <ele>90.6</ele>
        <time>2016-05-06T09:53:26Z</time>
      </trkpt>
      <trkpt lat="50.6664" lon="2.10041">
        <ele>90.5</ele>
        <time>2016-05-06T09:53:28Z</time>
      </trkpt>
      <trkpt lat="50.66633" lon="2.10022">
        <ele>90.5</ele>
        <time>2016-05-06T09:53:30Z</time>
      </trkpt>
      <trkpt lat="50.66626" lon="2.10002">
        <ele>90.5</ele>
        <time>2016-05-06T09:53:32Z</time>
      </trkpt>
      <trkpt lat="50.66619" lon="2.09982">
        <ele>90.6</ele>
        <time>2016-05-06T09:53:34Z</time>
      </trkpt>
      <trkpt lat="50.66613" lon="2.09963">
        <ele>90.7</ele>
        <time>2016-05-06T09:53:36Z</time>
      </trkpt>
      <trkpt lat="50.66608" lon="2.09944">
        <ele>90.9</ele>
        <time>2016-05-06T09:53:38Z</time>
      </trkpt>
      <trkpt lat="50.66603" lon="2.09925">
        <ele>91</ele>
        <time>2016-05-06T09:53:40Z</time>
      </trkpt>
      <trkpt lat="50.66598" lon="2.09907">
        <ele>91.1</ele>
        <time>2016-05-06T09:53:42Z</time>
      </trkpt>
      <trkpt lat="50.66592" lon="2.09889">
        <ele>91.2</ele>
        <time>2016-05-06T09:53:44Z</time>
      </trkpt>
      <trkpt lat="50.66586" lon="2.09875">
        <ele>91.3</ele>
        <time>2016-05-06T09:53:46Z</time>
      </trkpt>
      <trkpt lat="50.66579" lon="2.09862">
        <ele>91.4</ele>
        <time>2016-05-06T09:53:48Z</time>
      </trkpt>
      <trkpt lat="50.66574" lon="2.0985">
        <ele>91.5</ele>
        <time>2016-05-06T09:53:50Z</time>
      </trkpt>
      <trkpt lat="50.66569" lon="2.09838">
        <ele>91.7</ele>
        <time>2016-05-06T09:53:52Z</time>
      </trkpt>
      <trkpt lat="50.66563" lon="2.09825">
        <ele>92</ele>
        <time>2016-05-06T09:53:54Z</time>
      </trkpt>
      <trkpt lat="50.66556" lon="2.0981">
        <ele>92.5</ele>
        <time>2016-05-06T09:53:57Z</time>
      </trkpt>
      <trkpt lat="50.66549" lon="2.09797">
        <ele>93.2</ele>
        <time>2016-05-06T09:54:00Z</time>
      </trkpt>
      <trkpt lat="50.66543" lon="2.09785">
        <ele>93.8</ele>
        <time>2016-05-06T09:54:03Z</time>
      </trkpt>
      <trkpt lat="50.66536" lon="2.0977">
        <ele>94.6</ele>
        <time>2016-05-06T09:54:06Z</time>
      </trkpt>
      <trkpt lat="50.6653" lon="2.09757">
        <ele>95.3</ele>
        <time>2016-05-06T09:54:09Z</time>
      </trkpt>
      <trkpt lat="50.66524" lon="2.09745">
        <ele>96.1</ele>
        <time>2016-05-06T09:54:12Z</time>
      </trkpt>
      <trkpt lat="50.66516" lon="2.09734">
        <ele>96.8</ele>
        <time>2016-05-06T09:54:15Z</time>
      </trkpt>
      <trkpt lat="50.66509" lon="2.09721">
        <ele>97.5</ele>
        <time>2016-05-06T09:54:18Z</time>
      </trkpt>
      <trkpt lat="50.66503" lon="2.0971">
        <ele>98.3</ele>
        <time>2016-05-06T09:54:21Z</time>
      </trkpt>
      <trkpt lat="50.66497" lon="2.09698">
        <ele>99.1</ele>
        <time>2016-05-06T09:54:24Z</time>
      </trkpt>
      <trkpt lat="50.6649" lon="2.09688">
        <ele>99.9</ele>
        <time>2016-05-06T09:54:27Z</time>
      </trkpt>
      <trkpt lat="50.66482" lon="2.09678">
        <ele>100.6</ele>
        <time>2016-05-06T09:54:30Z</time>
      </trkpt>
      <trkpt lat="50.66474" lon="2.09667">
        <ele>101.4</ele>
        <time>2016-05-06T09:54:33Z</time>
      </trkpt>
      <trkpt lat="50.66467" lon="2.09656">
        <ele>102.3</ele>
        <time>2016-05-06T09:54:36Z</time>
      </trkpt>
      <trkpt lat="50.66461" lon="2.09645">
        <ele>103.2</ele>
        <time>2016-05-06T09:54:39Z</time>
      </trkpt>
      <trkpt lat="50.66454" lon="2.09634">
        <ele>104.1</ele>
        <time>2016-05-06T09:54:42Z</time>
      </trkpt>
      <trkpt lat="50.66447" lon="2.09625">
        <ele>105</ele>
        <time>2016-05-06T09:54:45Z</time>
      </trkpt>
      <trkpt lat="50.6644" lon="2.09615">
        <ele>105.8</ele>
        <time>2016-05-06T09:54:48Z</time>
      </trkpt>
      <trkpt lat="50.66434" lon="2.09604">
        <ele>106.7</ele>
        <time>2016-05-06T09:54:51Z</time>
      </trkpt>
      <trkpt lat="50.66427" lon="2.09594">
        <ele>107.5</ele>
        <time>2016-05-06T09:54:54Z</time>
      </trkpt>
      <trkpt lat="50.6642" lon="2.09583">
        <ele>108.3</ele>
        <time>2016-05-06T09:54:57Z</time>
      </trkpt>
      <trkpt lat="50.66414" lon="2.09571">
        <ele>109.2</ele>
        <time>2016-05-06T09:55:00Z</time>
      </trkpt>
      <trkpt lat="50.66408" lon="2.09558">
        <ele>110</ele>
        <time>2016-05-06T09:55:03Z</time>
      </trkpt>
      <trkpt lat="50.66401" lon="2.09544">
        <ele>110.7</ele>
        <time>2016-05-06T09:55:06Z</time>
      </trkpt>
      <trkpt lat="50.66395" lon="2.09531">
        <ele>111.5</ele>
        <time>2016-05-06T09:55:09Z</time>
      </trkpt>
      <trkpt lat="50.66387" lon="2.09518">
        <ele>112.2</ele>
        <time>2016-05-06T09:55:12Z</time>
      </trkpt>
      <trkpt lat="50.6638" lon="2.09503">
        <ele>112.9</ele>
        <time>2016-05-06T09:55:15Z</time>
      </trkpt>
      <trkpt lat="50.66373" lon="2.09487">
        <ele>113.5</ele>
        <time>2016-05-06T09:55:18Z</time>
      </trkpt>
      <trkpt lat="50.66365" lon="2.09472">
        <ele>114.2</ele>
        <time>2016-05-06T09:55:21Z</time>
      </trkpt>
      <trkpt lat="50.66358" lon="2.09456">
        <ele>114.8</ele>
        <time>2016-05-06T09:55:24Z</time>
      </trkpt>
      <trkpt lat="50.66351" lon="2.0944">
        <ele>115.4</ele>
        <time>2016-05-06T09:55:27Z</time>
      </trkpt>
      <trkpt lat="50.66343" lon="2.09423">
        <ele>116</ele>
        <time>2016-05-06T09:55:30Z</time>
      </trkpt>
      <trkpt lat="50.66335" lon="2.09407">
        <ele>116.6</ele>
        <time>2016-05-06T09:55:33Z</time>
      </trkpt>
      <trkpt lat="50.66329" lon="2.09392">
        <ele>117.2</ele>
        <time>2016-05-06T09:55:36Z</time>
      </trkpt>
      <trkpt lat="50.66322" lon="2.09376">
        <ele>117.8</ele>
        <time>2016-05-06T09:55:39Z</time>
      </trkpt>
      <trkpt lat="50.66314" lon="2.0936">
        <ele>118.4</ele>
        <time>2016-05-06T09:55:42Z</time>
      </trkpt>
      <trkpt lat="50.66308" lon="2.0935">
        <ele>118.8</ele>
        <time>2016-05-06T09:55:44Z</time>
      </trkpt>
      <trkpt lat="50.66302" lon="2.09338">
        <ele>119.3</ele>
        <time>2016-05-06T09:55:46Z</time>
      </trkpt>
      <trkpt lat="50.66296" lon="2.09327">
        <ele>119.7</ele>
        <time>2016-05-06T09:55:48Z</time>
      </trkpt>
      <trkpt lat="50.66289" lon="2.09317">
        <ele>120.2</ele>
        <time>2016-05-06T09:55:50Z</time>
      </trkpt>
      <trkpt lat="50.66281" lon="2.09305">
        <ele>120.6</ele>
        <time>2016-05-06T09:55:52Z</time>
      </trkpt>
      <trkpt lat="50.66275" lon="2.09293">
        <ele>120.9</ele>
        <time>2016-05-06T09:55:54Z</time>
      </trkpt>
      <trkpt lat="50.66268" lon="2.0928">
        <ele>121.3</ele>
        <time>2016-05-06T09:55:56Z</time>
      </trkpt>
      <trkpt lat="50.6626" lon="2.09269">
        <ele>121.6</ele>
        <time>2016-05-06T09:55:58Z</time>
      </trkpt>
      <trkpt lat="50.66252" lon="2.09256">
        <ele>121.9</ele>
        <time>2016-05-06T09:56:00Z</time>
      </trkpt>
      <trkpt lat="50.66245" lon="2.09242">
        <ele>122.2</ele>
        <time>2016-05-06T09:56:02Z</time>
      </trkpt>
      <trkpt lat="50.66239" lon="2.09228">
        <ele>122.5</ele>
        <time>2016-05-06T09:56:04Z</time>
      </trkpt>
      <trkpt lat="50.66231" lon="2.09214">
        <ele>122.8</ele>
        <time>2016-05-06T09:56:06Z</time>
      </trkpt>
      <trkpt lat="50.66223" lon="2.09199">
        <ele>123</ele>
        <time>2016-05-06T09:56:08Z</time>
      </trkpt>
      <trkpt lat="50.66216" lon="2.09182">
        <ele>123.2</ele>
        <time>2016-05-06T09:56:10Z</time>
      </trkpt>
      <trkpt lat="50.6621" lon="2.09164">
        <ele>123.4</ele>
        <time>2016-05-06T09:56:12Z</time>
      </trkpt>
      <trkpt lat="50.66204" lon="2.09146">
        <ele>123.5</ele>
        <time>2016-05-06T09:56:14Z</time>
      </trkpt>
      <trkpt lat="50.66198" lon="2.09127">
        <ele>123.7</ele>
        <time>2016-05-06T09:56:16Z</time>
      </trkpt>
      <trkpt lat="50.66194" lon="2.09106">
        <ele>123.8</ele>
        <time>2016-05-06T09:56:18Z</time>
      </trkpt>
      <trkpt lat="50.6619" lon="2.09087">
        <ele>123.9</ele>
        <time>2016-05-06T09:56:20Z</time>
      </trkpt>
      <trkpt lat="50.66186" lon="2.09067">
        <ele>124</ele>
        <time>2016-05-06T09:56:22Z</time>
      </trkpt>
      <trkpt lat="50.66182" lon="2.09047">
        <ele>124.1</ele>
        <time>2016-05-06T09:56:24Z</time>
      </trkpt>
      <trkpt lat="50.66177" lon="2.09027">
        <ele>124.2</ele>
        <time>2016-05-06T09:56:26Z</time>
      </trkpt>
      <trkpt lat="50.66173" lon="2.09006">
        <ele>124.2</ele>
        <time>2016-05-06T09:56:28Z</time>
      </trkpt>
      <trkpt lat="50.66167" lon="2.08985">
        <ele>124.3</ele>
        <time>2016-05-06T09:56:30Z</time>
      </trkpt>
      <trkpt lat="50.66162" lon="2.08966">
        <ele>124.3</ele>
        <time>2016-05-06T09:56:32Z</time>
      </trkpt>
      <trkpt lat="50.66158" lon="2.08945">
        <ele>124.2</ele>
        <time>2016-05-06T09:56:34Z</time>
      </trkpt>
      <trkpt lat="50.66154" lon="2.08924">
        <ele>124.1</ele>
        <time>2016-05-06T09:56:36Z</time>
      </trkpt>
      <trkpt lat="50.66149" lon="2.08903">
        <ele>124.1</ele>
        <time>2016-05-06T09:56:38Z</time>
      </trkpt>
      <trkpt lat="50.66145" lon="2.08883">
        <ele>124.1</ele>
        <time>2016-05-06T09:56:40Z</time>
      </trkpt>
      <trkpt lat="50.66141" lon="2.08863">
        <ele>123.9</ele>
        <time>2016-05-06T09:56:42Z</time>
      </trkpt>
      <trkpt lat="50.66137" lon="2.08844">
        <ele>123.7</ele>
        <time>2016-05-06T09:56:44Z</time>
      </trkpt>
      <trkpt lat="50.66132" lon="2.08824">
        <ele>123.7</ele>
        <time>2016-05-06T09:56:46Z</time>
      </trkpt>
      <trkpt lat="50.66127" lon="2.08803">
        <ele>123.7</ele>
        <time>2016-05-06T09:56:48Z</time>
      </trkpt>
      <trkpt lat="50.66122" lon="2.08781">
        <ele>123.8</ele>
        <time>2016-05-06T09:56:50Z</time>
      </trkpt>
      <trkpt lat="50.66117" lon="2.0876">
        <ele>123.9</ele>
        <time>2016-05-06T09:56:52Z</time>
      </trkpt>
      <trkpt lat="50.66112" lon="2.08739">
        <ele>124</ele>
        <time>2016-05-06T09:56:54Z</time>
      </trkpt>
      <trkpt lat="50.66107" lon="2.0872">
        <ele>124</ele>
        <time>2016-05-06T09:56:56Z</time>
      </trkpt>
      <trkpt lat="50.66101" lon="2.087">
        <ele>124.1</ele>
        <time>2016-05-06T09:56:58Z</time>
      </trkpt>
      <trkpt lat="50.66095" lon="2.08682">
        <ele>124.2</ele>
        <time>2016-05-06T09:57:00Z</time>
      </trkpt>
      <trkpt lat="50.6609" lon="2.08662">
        <ele>124.3</ele>
        <time>2016-05-06T09:57:02Z</time>
      </trkpt>
      <trkpt lat="50.66085" lon="2.08642">
        <ele>124.3</ele>
        <time>2016-05-06T09:57:04Z</time>
      </trkpt>
      <trkpt lat="50.66079" lon="2.08623">
        <ele>124.4</ele>
        <time>2016-05-06T09:57:06Z</time>
      </trkpt>
      <trkpt lat="50.66075" lon="2.08604">
        <ele>124.4</ele>
        <time>2016-05-06T09:57:08Z</time>
      </trkpt>
      <trkpt lat="50.66071" lon="2.08585">
        <ele>124.5</ele>
        <time>2016-05-06T09:57:10Z</time>
      </trkpt>
      <trkpt lat="50.66066" lon="2.08567">
        <ele>124.5</ele>
        <time>2016-05-06T09:57:12Z</time>
      </trkpt>
      <trkpt lat="50.66061" lon="2.08549">
        <ele>124.6</ele>
        <time>2016-05-06T09:57:14Z</time>
      </trkpt>
      <trkpt lat="50.66057" lon="2.08532">
        <ele>124.8</ele>
        <time>2016-05-06T09:57:16Z</time>
      </trkpt>
      <trkpt lat="50.66053" lon="2.08515">
        <ele>124.9</ele>
        <time>2016-05-06T09:57:18Z</time>
      </trkpt>
      <trkpt lat="50.66049" lon="2.08498">
        <ele>125.1</ele>
        <time>2016-05-06T09:57:20Z</time>
      </trkpt>
      <trkpt lat="50.66046" lon="2.08482">
        <ele>125.3</ele>
        <time>2016-05-06T09:57:22Z</time>
      </trkpt>
      <trkpt lat="50.66043" lon="2.08465">
        <ele>125.5</ele>
        <time>2016-05-06T09:57:24Z</time>
      </trkpt>
      <trkpt lat="50.66039" lon="2.08448">
        <ele>125.7</ele>
        <time>2016-05-06T09:57:26Z</time>
      </trkpt>
      <trkpt lat="50.66035" lon="2.08432">
        <ele>126</ele>
        <time>2016-05-06T09:57:28Z</time>
      </trkpt>
      <trkpt lat="50.66031" lon="2.08417">
        <ele>126.3</ele>
        <time>2016-05-06T09:57:30Z</time>
      </trkpt>
      <trkpt lat="50.66028" lon="2.08401">
        <ele>126.6</ele>
        <time>2016-05-06T09:57:32Z</time>
      </trkpt>
      <trkpt lat="50.66024" lon="2.08385">
        <ele>126.9</ele>
        <time>2016-05-06T09:57:34Z</time>
      </trkpt>
      <trkpt lat="50.66021" lon="2.08368">
        <ele>127.2</ele>
        <time>2016-05-06T09:57:36Z</time>
      </trkpt>
      <trkpt lat="50.66017" lon="2.08352">
        <ele>127.4</ele>
        <time>2016-05-06T09:57:38Z</time>
      </trkpt>
      <trkpt lat="50.66014" lon="2.08336">
        <ele>127.8</ele>
        <time>2016-05-06T09:57:40Z</time>
      </trkpt>
      <trkpt lat="50.6601" lon="2.0832">
        <ele>128.1</ele>
        <time>2016-05-06T09:57:42Z</time>
      </trkpt>
      <trkpt lat="50.66006" lon="2.08305">
        <ele>128.4</ele>
        <time>2016-05-06T09:57:44Z</time>
      </trkpt>
      <trkpt lat="50.66003" lon="2.08289">
        <ele>128.8</ele>
        <time>2016-05-06T09:57:46Z</time>
      </trkpt>
      <trkpt lat="50.65999" lon="2.08273">
        <ele>129.1</ele>
        <time>2016-05-06T09:57:48Z</time>
      </trkpt>
      <trkpt lat="50.65996" lon="2.08257">
        <ele>129.4</ele>
        <time>2016-05-06T09:57:50Z</time>
      </trkpt>
      <trkpt lat="50.65993" lon="2.08242">
        <ele>129.7</ele>
        <time>2016-05-06T09:57:52Z</time>
      </trkpt>
      <trkpt lat="50.65991" lon="2.08227">
        <ele>130</ele>
        <time>2016-05-06T09:57:54Z</time>
      </trkpt>
      <trkpt lat="50.65987" lon="2.08211">
        <ele>130.4</ele>
        <time>2016-05-06T09:57:56Z</time>
      </trkpt>
      <trkpt lat="50.65984" lon="2.08196">
        <ele>130.8</ele>
        <time>2016-05-06T09:57:58Z</time>
      </trkpt>
      <trkpt lat="50.65981" lon="2.0818">
        <ele>131.2</ele>
        <time>2016-05-06T09:58:00Z</time>
      </trkpt>
      <trkpt lat="50.65976" lon="2.08163">
        <ele>131.6</ele>
        <time>2016-05-06T09:58:02Z</time>
      </trkpt>
      <trkpt lat="50.65973" lon="2.08146">
        <ele>131.9</ele>
        <time>2016-05-06T09:58:04Z</time>
      </trkpt>
      <trkpt lat="50.65969" lon="2.08129">
        <ele>132.3</ele>
        <time>2016-05-06T09:58:06Z</time>
      </trkpt>
      <trkpt lat="50.65965" lon="2.08112">
        <ele>132.6</ele>
        <time>2016-05-06T09:58:08Z</time>
      </trkpt>
      <trkpt lat="50.65961" lon="2.08095">
        <ele>133</ele>
        <time>2016-05-06T09:58:10Z</time>
      </trkpt>
      <trkpt lat="50.65957" lon="2.08079">
        <ele>133.5</ele>
        <time>2016-05-06T09:58:12Z</time>
      </trkpt>
      <trkpt lat="50.65953" lon="2.08063">
        <ele>133.9</ele>
        <time>2016-05-06T09:58:14Z</time>
      </trkpt>
      <trkpt lat="50.65949" lon="2.08048">
        <ele>134.3</ele>
        <time>2016-05-06T09:58:16Z</time>
      </trkpt>
      <trkpt lat="50.65945" lon="2.08034">
        <ele>134.6</ele>
        <time>2016-05-06T09:58:18Z</time>
      </trkpt>
      <trkpt lat="50.65939" lon="2.0802">
        <ele>134.9</ele>
        <time>2016-05-06T09:58:20Z</time>
      </trkpt>
      <trkpt lat="50.65933" lon="2.08005">
        <ele>135.3</ele>
        <time>2016-05-06T09:58:22Z</time>
      </trkpt>
      <trkpt lat="50.65927" lon="2.0799">
        <ele>135.7</ele>
        <time>2016-05-06T09:58:24Z</time>
      </trkpt>
      <trkpt lat="50.65921" lon="2.07976">
        <ele>136</ele>
        <time>2016-05-06T09:58:26Z</time>
      </trkpt>
      <trkpt lat="50.65915" lon="2.07961">
        <ele>136.5</ele>
        <time>2016-05-06T09:58:28Z</time>
      </trkpt>
      <trkpt lat="50.65909" lon="2.07945">
        <ele>136.9</ele>
        <time>2016-05-06T09:58:30Z</time>
      </trkpt>
      <trkpt lat="50.65903" lon="2.0793">
        <ele>137.2</ele>
        <time>2016-05-06T09:58:32Z</time>
      </trkpt>
      <trkpt lat="50.65897" lon="2.07914">
        <ele>137.6</ele>
        <time>2016-05-06T09:58:34Z</time>
      </trkpt>
      <trkpt lat="50.65891" lon="2.07899">
        <ele>137.9</ele>
        <time>2016-05-06T09:58:36Z</time>
      </trkpt>
      <trkpt lat="50.65886" lon="2.07883">
        <ele>138.2</ele>
        <time>2016-05-06T09:58:38Z</time>
      </trkpt>
      <trkpt lat="50.65879" lon="2.07868">
        <ele>138.6</ele>
        <time>2016-05-06T09:58:40Z</time>
      </trkpt>
      <trkpt lat="50.65874" lon="2.07853">
        <ele>138.9</ele>
        <time>2016-05-06T09:58:42Z</time>
      </trkpt>
      <trkpt lat="50.65868" lon="2.07839">
        <ele>139.1</ele>
        <time>2016-05-06T09:58:44Z</time>
      </trkpt>
      <trkpt lat="50.65863" lon="2.07825">
        <ele>139.4</ele>
        <time>2016-05-06T09:58:46Z</time>
      </trkpt>
      <trkpt lat="50.65857" lon="2.07811">
        <ele>139.7</ele>
        <time>2016-05-06T09:58:48Z</time>
      </trkpt>
      <trkpt lat="50.65851" lon="2.07796">
        <ele>140</ele>
        <time>2016-05-06T09:58:50Z</time>
      </trkpt>
      <trkpt lat="50.65845" lon="2.07782">
        <ele>140.3</ele>
        <time>2016-05-06T09:58:52Z</time>
      </trkpt>
      <trkpt lat="50.65839" lon="2.07767">
        <ele>140.7</ele>
        <time>2016-05-06T09:58:54Z</time>
      </trkpt>
      <trkpt lat="50.65833" lon="2.07751">
        <ele>141</ele>
        <time>2016-05-06T09:58:56Z</time>
      </trkpt>
      <trkpt lat="50.65826" lon="2.07736">
        <ele>141.4</ele>
        <time>2016-05-06T09:58:58Z</time>
      </trkpt>
      <trkpt lat="50.6582" lon="2.0772">
        <ele>141.7</ele>
        <time>2016-05-06T09:59:00Z</time>
      </trkpt>
      <trkpt lat="50.65815" lon="2.07706">
        <ele>142.1</ele>
        <time>2016-05-06T09:59:02Z</time>
      </trkpt>
      <trkpt lat="50.65809" lon="2.07692">
        <ele>142.4</ele>
        <time>2016-05-06T09:59:04Z</time>
      </trkpt>
      <trkpt lat="50.65803" lon="2.07679">
        <ele>142.7</ele>
        <time>2016-05-06T09:59:06Z</time>
      </trkpt>
      <trkpt lat="50.65797" lon="2.07665">
        <ele>143.1</ele>
        <time>2016-05-06T09:59:08Z</time>
      </trkpt>
      <trkpt lat="50.65792" lon="2.07652">
        <ele>143.4</ele>
        <time>2016-05-06T09:59:10Z</time>
      </trkpt>
      <trkpt lat="50.65786" lon="2.07638">
        <ele>143.8</ele>
        <time>2016-05-06T09:59:12Z</time>
      </trkpt>
      <trkpt lat="50.65781" lon="2.07625">
        <ele>144.1</ele>
        <time>2016-05-06T09:59:14Z</time>
      </trkpt>
      <trkpt lat="50.65775" lon="2.07613">
        <ele>144.6</ele>
        <time>2016-05-06T09:59:16Z</time>
      </trkpt>
      <trkpt lat="50.6577" lon="2.07599">
        <ele>145</ele>
        <time>2016-05-06T09:59:18Z</time>
      </trkpt>
      <trkpt lat="50.65764" lon="2.07586">
        <ele>145.4</ele>
        <time>2016-05-06T09:59:20Z</time>
      </trkpt>
      <trkpt lat="50.65759" lon="2.07574">
        <ele>145.3</ele>
        <time>2016-05-06T09:59:22Z</time>
      </trkpt>
      <trkpt lat="50.6575" lon="2.07558">
        <ele>146.1</ele>
        <time>2016-05-06T09:59:25Z</time>
      </trkpt>
      <trkpt lat="50.65743" lon="2.07543">
        <ele>146.6</ele>
        <time>2016-05-06T09:59:27Z</time>
      </trkpt>
      <trkpt lat="50.65736" lon="2.07531">
        <ele>147</ele>
        <time>2016-05-06T09:59:29Z</time>
      </trkpt>
      <trkpt lat="50.65729" lon="2.07519">
        <ele>147.3</ele>
        <time>2016-05-06T09:59:31Z</time>
      </trkpt>
      <trkpt lat="50.65722" lon="2.07506">
        <ele>147.7</ele>
        <time>2016-05-06T09:59:33Z</time>
      </trkpt>
      <trkpt lat="50.65714" lon="2.07494">
        <ele>147.9</ele>
        <time>2016-05-06T09:59:35Z</time>
      </trkpt>
      <trkpt lat="50.65707" lon="2.07481">
        <ele>148.2</ele>
        <time>2016-05-06T09:59:37Z</time>
      </trkpt>
      <trkpt lat="50.65699" lon="2.07468">
        <ele>148.4</ele>
        <time>2016-05-06T09:59:39Z</time>
      </trkpt>
      <trkpt lat="50.65691" lon="2.07456">
        <ele>148.6</ele>
        <time>2016-05-06T09:59:41Z</time>
      </trkpt>
      <trkpt lat="50.65683" lon="2.07443">
        <ele>148.8</ele>
        <time>2016-05-06T09:59:43Z</time>
      </trkpt>
      <trkpt lat="50.65675" lon="2.07429">
        <ele>149.1</ele>
        <time>2016-05-06T09:59:45Z</time>
      </trkpt>
      <trkpt lat="50.65667" lon="2.07416">
        <ele>149.3</ele>
        <time>2016-05-06T09:59:47Z</time>
      </trkpt>
      <trkpt lat="50.65659" lon="2.07402">
        <ele>149.6</ele>
        <time>2016-05-06T09:59:49Z</time>
      </trkpt>
      <trkpt lat="50.65651" lon="2.07389">
        <ele>149.8</ele>
        <time>2016-05-06T09:59:51Z</time>
      </trkpt>
      <trkpt lat="50.65642" lon="2.07375">
        <ele>150.1</ele>
        <time>2016-05-06T09:59:53Z</time>
      </trkpt>
      <trkpt lat="50.65633" lon="2.07361">
        <ele>150.3</ele>
        <time>2016-05-06T09:59:55Z</time>
      </trkpt>
      <trkpt lat="50.65625" lon="2.07347">
        <ele>150.5</ele>
        <time>2016-05-06T09:59:57Z</time>
      </trkpt>
      <trkpt lat="50.65616" lon="2.07333">
        <ele>150.7</ele>
        <time>2016-05-06T09:59:59Z</time>
      </trkpt>
      <trkpt lat="50.65607" lon="2.07319">
        <ele>150.9</ele>
        <time>2016-05-06T10:00:01Z</time>
      </trkpt>
      <trkpt lat="50.65599" lon="2.07305">
        <ele>151</ele>
        <time>2016-05-06T10:00:03Z</time>
      </trkpt>
      <trkpt lat="50.6559" lon="2.07291">
        <ele>151.2</ele>
        <time>2016-05-06T10:00:05Z</time>
      </trkpt>
      <trkpt lat="50.6558" lon="2.07277">
        <ele>151.3</ele>
        <time>2016-05-06T10:00:07Z</time>
      </trkpt>
      <trkpt lat="50.6557" lon="2.07264">
        <ele>151.4</ele>
        <time>2016-05-06T10:00:09Z</time>
      </trkpt>
      <trkpt lat="50.6556" lon="2.07251">
        <ele>151.5</ele>
        <time>2016-05-06T10:00:11Z</time>
      </trkpt>
      <trkpt lat="50.65548" lon="2.07237">
        <ele>151.5</ele>
        <time>2016-05-06T10:00:13Z</time>
      </trkpt>
      <trkpt lat="50.65534" lon="2.07222">
        <ele>151.6</ele>
        <time>2016-05-06T10:00:15Z</time>
      </trkpt>
      <trkpt lat="50.65521" lon="2.07208">
        <ele>151.6</ele>
        <time>2016-05-06T10:00:17Z</time>
      </trkpt>
      <trkpt lat="50.65508" lon="2.07193">
        <ele>151.6</ele>
        <time>2016-05-06T10:00:19Z</time>
      </trkpt>
      <trkpt lat="50.65494" lon="2.07179">
        <ele>151.3</ele>
        <time>2016-05-06T10:00:21Z</time>
      </trkpt>
      <trkpt lat="50.65481" lon="2.07165">
        <ele>151.2</ele>
        <time>2016-05-06T10:00:23Z</time>
      </trkpt>
      <trkpt lat="50.65466" lon="2.07153">
        <ele>150.3</ele>
        <time>2016-05-06T10:00:25Z</time>
      </trkpt>
      <trkpt lat="50.6545" lon="2.0714">
        <ele>150</ele>
        <time>2016-05-06T10:00:27Z</time>
      </trkpt>
      <trkpt lat="50.65441" lon="2.07132">
        <ele>149.8</ele>
        <time>2016-05-06T10:00:28Z</time>
      </trkpt>
      <trkpt lat="50.65432" lon="2.07124">
        <ele>149.6</ele>
        <time>2016-05-06T10:00:29Z</time>
      </trkpt>
      <trkpt lat="50.65424" lon="2.07115">
        <ele>149.3</ele>
        <time>2016-05-06T10:00:30Z</time>
      </trkpt>
      <trkpt lat="50.65416" lon="2.07106">
        <ele>148.9</ele>
        <time>2016-05-06T10:00:31Z</time>
      </trkpt>
      <trkpt lat="50.65408" lon="2.07096">
        <ele>148.5</ele>
        <time>2016-05-06T10:00:32Z</time>
      </trkpt>
      <trkpt lat="50.654" lon="2.07086">
        <ele>148</ele>
        <time>2016-05-06T10:00:33Z</time>
      </trkpt>
      <trkpt lat="50.65393" lon="2.07074">
        <ele>147.6</ele>
        <time>2016-05-06T10:00:34Z</time>
      </trkpt>
      <trkpt lat="50.65386" lon="2.07061">
        <ele>147.2</ele>
        <time>2016-05-06T10:00:35Z</time>
      </trkpt>
      <trkpt lat="50.65381" lon="2.07048">
        <ele>146.8</ele>
        <time>2016-05-06T10:00:36Z</time>
      </trkpt>
      <trkpt lat="50.65374" lon="2.07023">
        <ele>146.1</ele>
        <time>2016-05-06T10:00:38Z</time>
      </trkpt>
      <trkpt lat="50.65367" lon="2.07">
        <ele>145.5</ele>
        <time>2016-05-06T10:00:40Z</time>
      </trkpt>
      <trkpt lat="50.65363" lon="2.06975">
        <ele>145</ele>
        <time>2016-05-06T10:00:42Z</time>
      </trkpt>
      <trkpt lat="50.65357" lon="2.06952">
        <ele>144.5</ele>
        <time>2016-05-06T10:00:44Z</time>
      </trkpt>
      <trkpt lat="50.65352" lon="2.0693">
        <ele>144.1</ele>
        <time>2016-05-06T10:00:46Z</time>
      </trkpt>
      <trkpt lat="50.65345" lon="2.06909">
        <ele>143.7</ele>
        <time>2016-05-06T10:00:48Z</time>
      </trkpt>
      <trkpt lat="50.6534" lon="2.06888">
        <ele>143.4</ele>
        <time>2016-05-06T10:00:50Z</time>
      </trkpt>
      <trkpt lat="50.65334" lon="2.06867">
        <ele>143.2</ele>
        <time>2016-05-06T10:00:52Z</time>
      </trkpt>
      <trkpt lat="50.65328" lon="2.06847">
        <ele>143</ele>
        <time>2016-05-06T10:00:54Z</time>
      </trkpt>
      <trkpt lat="50.65322" lon="2.06827">
        <ele>142.8</ele>
        <time>2016-05-06T10:00:56Z</time>
      </trkpt>
      <trkpt lat="50.65315" lon="2.06809">
        <ele>142.7</ele>
        <time>2016-05-06T10:00:58Z</time>
      </trkpt>
      <trkpt lat="50.65308" lon="2.06791">
        <ele>142.6</ele>
        <time>2016-05-06T10:01:00Z</time>
      </trkpt>
      <trkpt lat="50.65303" lon="2.06775">
        <ele>142.6</ele>
        <time>2016-05-06T10:01:02Z</time>
      </trkpt>
      <trkpt lat="50.65298" lon="2.06757">
        <ele>142.6</ele>
        <time>2016-05-06T10:01:04Z</time>
      </trkpt>
      <trkpt lat="50.65294" lon="2.0674">
        <ele>142.5</ele>
        <time>2016-05-06T10:01:06Z</time>
      </trkpt>
      <trkpt lat="50.6529" lon="2.06725">
        <ele>142.5</ele>
        <time>2016-05-06T10:01:08Z</time>
      </trkpt>
      <trkpt lat="50.65286" lon="2.06709">
        <ele>142.5</ele>
        <time>2016-05-06T10:01:10Z</time>
      </trkpt>
      <trkpt lat="50.65283" lon="2.06692">
        <ele>142.6</ele>
        <time>2016-05-06T10:01:12Z</time>
      </trkpt>
      <trkpt lat="50.65279" lon="2.06676">
        <ele>142.7</ele>
        <time>2016-05-06T10:01:14Z</time>
      </trkpt>
      <trkpt lat="50.65274" lon="2.06659">
        <ele>142.8</ele>
        <time>2016-05-06T10:01:16Z</time>
      </trkpt>
      <trkpt lat="50.6527" lon="2.06644">
        <ele>143</ele>
        <time>2016-05-06T10:01:18Z</time>
      </trkpt>
      <trkpt lat="50.65267" lon="2.06629">
        <ele>143.2</ele>
        <time>2016-05-06T10:01:20Z</time>
      </trkpt>
      <trkpt lat="50.65264" lon="2.06614">
        <ele>143.4</ele>
        <time>2016-05-06T10:01:22Z</time>
      </trkpt>
      <trkpt lat="50.65261" lon="2.06599">
        <ele>143.6</ele>
        <time>2016-05-06T10:01:24Z</time>
      </trkpt>
      <trkpt lat="50.65259" lon="2.06585">
        <ele>143.8</ele>
        <time>2016-05-06T10:01:26Z</time>
      </trkpt>
      <trkpt lat="50.65256" lon="2.06568">
        <ele>143.9</ele>
        <time>2016-05-06T10:01:28Z</time>
      </trkpt>
      <trkpt lat="50.65254" lon="2.06551">
        <ele>144.2</ele>
        <time>2016-05-06T10:01:30Z</time>
      </trkpt>
      <trkpt lat="50.65252" lon="2.06535">
        <ele>144.5</ele>
        <time>2016-05-06T10:01:32Z</time>
      </trkpt>
      <trkpt lat="50.65249" lon="2.06519">
        <ele>144.8</ele>
        <time>2016-05-06T10:01:34Z</time>
      </trkpt>
      <trkpt lat="50.65245" lon="2.06504">
        <ele>145.1</ele>
        <time>2016-05-06T10:01:36Z</time>
      </trkpt>
      <trkpt lat="50.65242" lon="2.06489">
        <ele>145.4</ele>
        <time>2016-05-06T10:01:38Z</time>
      </trkpt>
      <trkpt lat="50.65239" lon="2.06475">
        <ele>145.7</ele>
        <time>2016-05-06T10:01:40Z</time>
      </trkpt>
      <trkpt lat="50.65236" lon="2.0646">
        <ele>145.9</ele>
        <time>2016-05-06T10:01:42Z</time>
      </trkpt>
      <trkpt lat="50.65233" lon="2.06445">
        <ele>146.2</ele>
        <time>2016-05-06T10:01:44Z</time>
      </trkpt>
      <trkpt lat="50.65229" lon="2.06431">
        <ele>146.5</ele>
        <time>2016-05-06T10:01:46Z</time>
      </trkpt>
      <trkpt lat="50.65226" lon="2.06417">
        <ele>146.7</ele>
        <time>2016-05-06T10:01:48Z</time>
      </trkpt>
      <trkpt lat="50.65222" lon="2.06403">
        <ele>147</ele>
        <time>2016-05-06T10:01:50Z</time>
      </trkpt>
      <trkpt lat="50.65218" lon="2.0639">
        <ele>147.4</ele>
        <time>2016-05-06T10:01:52Z</time>
      </trkpt>
      <trkpt lat="50.65215" lon="2.06376">
        <ele>147.8</ele>
        <time>2016-05-06T10:01:54Z</time>
      </trkpt>
      <trkpt lat="50.6521" lon="2.06358">
        <ele>148.3</ele>
        <time>2016-05-06T10:01:57Z</time>
      </trkpt>
      <trkpt lat="50.65204" lon="2.0634">
        <ele>148.7</ele>
        <time>2016-05-06T10:02:00Z</time>
      </trkpt>
      <trkpt lat="50.65199" lon="2.06324">
        <ele>149.3</ele>
        <time>2016-05-06T10:02:03Z</time>
      </trkpt>
      <trkpt lat="50.65194" lon="2.06308">
        <ele>149.9</ele>
        <time>2016-05-06T10:02:06Z</time>
      </trkpt>
      <trkpt lat="50.65188" lon="2.06293">
        <ele>150.6</ele>
        <time>2016-05-06T10:02:09Z</time>
      </trkpt>
      <trkpt lat="50.65183" lon="2.06277">
        <ele>151.2</ele>
        <time>2016-05-06T10:02:12Z</time>
      </trkpt>
      <trkpt lat="50.65178" lon="2.06263">
        <ele>151.8</ele>
        <time>2016-05-06T10:02:15Z</time>
      </trkpt>
      <trkpt lat="50.6517" lon="2.06249">
        <ele>152.4</ele>
        <time>2016-05-06T10:02:18Z</time>
      </trkpt>
      <trkpt lat="50.65162" lon="2.06235">
        <ele>153.1</ele>
        <time>2016-05-06T10:02:21Z</time>
      </trkpt>
      <trkpt lat="50.65156" lon="2.0622">
        <ele>153.7</ele>
        <time>2016-05-06T10:02:24Z</time>
      </trkpt>
      <trkpt lat="50.6515" lon="2.06205">
        <ele>154.4</ele>
        <time>2016-05-06T10:02:27Z</time>
      </trkpt>
      <trkpt lat="50.65143" lon="2.06189">
        <ele>155.1</ele>
        <time>2016-05-06T10:02:30Z</time>
      </trkpt>
      <trkpt lat="50.65136" lon="2.06175">
        <ele>155.8</ele>
        <time>2016-05-06T10:02:33Z</time>
      </trkpt>
      <trkpt lat="50.65129" lon="2.06161">
        <ele>156.4</ele>
        <time>2016-05-06T10:02:36Z</time>
      </trkpt>
      <trkpt lat="50.65122" lon="2.06145">
        <ele>157</ele>
        <time>2016-05-06T10:02:39Z</time>
      </trkpt>
      <trkpt lat="50.65115" lon="2.06131">
        <ele>157.6</ele>
        <time>2016-05-06T10:02:42Z</time>
      </trkpt>
      <trkpt lat="50.65106" lon="2.06116">
        <ele>158.2</ele>
        <time>2016-05-06T10:02:45Z</time>
      </trkpt>
      <trkpt lat="50.65097" lon="2.06101">
        <ele>158.8</ele>
        <time>2016-05-06T10:02:48Z</time>
      </trkpt>
      <trkpt lat="50.65089" lon="2.06087">
        <ele>159.4</ele>
        <time>2016-05-06T10:02:51Z</time>
      </trkpt>
      <trkpt lat="50.65081" lon="2.06074">
        <ele>160</ele>
        <time>2016-05-06T10:02:54Z</time>
      </trkpt>
      <trkpt lat="50.65073" lon="2.06062">
        <ele>160.6</ele>
        <time>2016-05-06T10:02:57Z</time>
      </trkpt>
      <trkpt lat="50.65065" lon="2.0605">
        <ele>161.3</ele>
        <time>2016-05-06T10:03:00Z</time>
      </trkpt>
      <trkpt lat="50.65057" lon="2.06038">
        <ele>162.1</ele>
        <time>2016-05-06T10:03:03Z</time>
      </trkpt>
      <trkpt lat="50.6505" lon="2.06026">
        <ele>162.8</ele>
        <time>2016-05-06T10:03:06Z</time>
      </trkpt>
      <trkpt lat="50.65043" lon="2.06015">
        <ele>163.7</ele>
        <time>2016-05-06T10:03:09Z</time>
      </trkpt>
      <trkpt lat="50.65036" lon="2.06006">
        <ele>164.5</ele>
        <time>2016-05-06T10:03:12Z</time>
      </trkpt>
      <trkpt lat="50.65029" lon="2.05995">
        <ele>165.2</ele>
        <time>2016-05-06T10:03:15Z</time>
      </trkpt>
      <trkpt lat="50.65022" lon="2.05983">
        <ele>165.9</ele>
        <time>2016-05-06T10:03:18Z</time>
      </trkpt>
      <trkpt lat="50.65014" lon="2.05972">
        <ele>166.6</ele>
        <time>2016-05-06T10:03:21Z</time>
      </trkpt>
      <trkpt lat="50.65006" lon="2.0596">
        <ele>167.4</ele>
        <time>2016-05-06T10:03:24Z</time>
      </trkpt>
      <trkpt lat="50.64999" lon="2.05948">
        <ele>168.1</ele>
        <time>2016-05-06T10:03:27Z</time>
      </trkpt>
      <trkpt lat="50.64991" lon="2.05937">
        <ele>168.8</ele>
        <time>2016-05-06T10:03:30Z</time>
      </trkpt>
      <trkpt lat="50.64984" lon="2.05925">
        <ele>169.6</ele>
        <time>2016-05-06T10:03:33Z</time>
      </trkpt>
      <trkpt lat="50.64977" lon="2.05914">
        <ele>170.3</ele>
        <time>2016-05-06T10:03:36Z</time>
      </trkpt>
      <trkpt lat="50.64969" lon="2.05902">
        <ele>171</ele>
        <time>2016-05-06T10:03:39Z</time>
      </trkpt>
      <trkpt lat="50.64961" lon="2.0589">
        <ele>171.8</ele>
        <time>2016-05-06T10:03:42Z</time>
      </trkpt>
      <trkpt lat="50.64954" lon="2.05879">
        <ele>172.6</ele>
        <time>2016-05-06T10:03:45Z</time>
      </trkpt>
      <trkpt lat="50.64947" lon="2.05868">
        <ele>173.3</ele>
        <time>2016-05-06T10:03:48Z</time>
      </trkpt>
      <trkpt lat="50.64939" lon="2.05857">
        <ele>174</ele>
        <time>2016-05-06T10:03:51Z</time>
      </trkpt>
      <trkpt lat="50.64931" lon="2.05845">
        <ele>174.6</ele>
        <time>2016-05-06T10:03:54Z</time>
      </trkpt>
      <trkpt lat="50.64923" lon="2.05833">
        <ele>175.4</ele>
        <time>2016-05-06T10:03:57Z</time>
      </trkpt>
      <trkpt lat="50.64915" lon="2.0582">
        <ele>176.1</ele>
        <time>2016-05-06T10:04:00Z</time>
      </trkpt>
      <trkpt lat="50.64907" lon="2.05807">
        <ele>176.8</ele>
        <time>2016-05-06T10:04:03Z</time>
      </trkpt>
      <trkpt lat="50.64899" lon="2.05795">
        <ele>177.5</ele>
        <time>2016-05-06T10:04:06Z</time>
      </trkpt>
      <trkpt lat="50.64892" lon="2.05784">
        <ele>178.2</ele>
        <time>2016-05-06T10:04:09Z</time>
      </trkpt>
      <trkpt lat="50.64885" lon="2.05773">
        <ele>178.9</ele>
        <time>2016-05-06T10:04:12Z</time>
      </trkpt>
      <trkpt lat="50.64877" lon="2.05762">
        <ele>179.6</ele>
        <time>2016-05-06T10:04:15Z</time>
      </trkpt>
      <trkpt lat="50.6487" lon="2.05751">
        <ele>180.1</ele>
        <time>2016-05-06T10:04:18Z</time>
      </trkpt>
      <trkpt lat="50.64863" lon="2.0574">
        <ele>180.7</ele>
        <time>2016-05-06T10:04:21Z</time>
      </trkpt>
      <trkpt lat="50.64855" lon="2.05729">
        <ele>181.3</ele>
        <time>2016-05-06T10:04:24Z</time>
      </trkpt>
      <trkpt lat="50.64847" lon="2.05718">
        <ele>182.1</ele>
        <time>2016-05-06T10:04:27Z</time>
      </trkpt>
      <trkpt lat="50.64841" lon="2.05707">
        <ele>182.8</ele>
        <time>2016-05-06T10:04:30Z</time>
      </trkpt>
      <trkpt lat="50.64834" lon="2.05697">
        <ele>183.5</ele>
        <time>2016-05-06T10:04:33Z</time>
      </trkpt>
      <trkpt lat="50.64826" lon="2.05686">
        <ele>184.2</ele>
        <time>2016-05-06T10:04:36Z</time>
      </trkpt>
      <trkpt lat="50.64819" lon="2.05675">
        <ele>184.9</ele>
        <time>2016-05-06T10:04:39Z</time>
      </trkpt>
      <trkpt lat="50.64811" lon="2.05664">
        <ele>185.6</ele>
        <time>2016-05-06T10:04:42Z</time>
      </trkpt>
      <trkpt lat="50.64803" lon="2.05652">
        <ele>186.3</ele>
        <time>2016-05-06T10:04:45Z</time>
      </trkpt>
      <trkpt lat="50.64795" lon="2.05641">
        <ele>187</ele>
        <time>2016-05-06T10:04:48Z</time>
      </trkpt>
      <trkpt lat="50.64788" lon="2.05629">
        <ele>187.7</ele>
        <time>2016-05-06T10:04:51Z</time>
      </trkpt>
      <trkpt lat="50.6478" lon="2.05618">
        <ele>188.4</ele>
        <time>2016-05-06T10:04:54Z</time>
      </trkpt>
      <trkpt lat="50.64771" lon="2.05607">
        <ele>189.1</ele>
        <time>2016-05-06T10:04:57Z</time>
      </trkpt>
      <trkpt lat="50.64763" lon="2.05596">
        <ele>189.7</ele>
        <time>2016-05-06T10:05:00Z</time>
      </trkpt>
      <trkpt lat="50.64755" lon="2.05585">
        <ele>190.4</ele>
        <time>2016-05-06T10:05:03Z</time>
      </trkpt>
      <trkpt lat="50.64747" lon="2.05573">
        <ele>191.1</ele>
        <time>2016-05-06T10:05:06Z</time>
      </trkpt>
      <trkpt lat="50.64739" lon="2.05561">
        <ele>191.7</ele>
        <time>2016-05-06T10:05:09Z</time>
      </trkpt>
      <trkpt lat="50.6473" lon="2.0555">
        <ele>192.3</ele>
        <time>2016-05-06T10:05:12Z</time>
      </trkpt>
      <trkpt lat="50.64721" lon="2.05538">
        <ele>193.1</ele>
        <time>2016-05-06T10:05:15Z</time>
      </trkpt>
      <trkpt lat="50.64712" lon="2.05528">
        <ele>193.8</ele>
        <time>2016-05-06T10:05:18Z</time>
      </trkpt>
      <trkpt lat="50.64703" lon="2.05517">
        <ele>194.5</ele>
        <time>2016-05-06T10:05:21Z</time>
      </trkpt>
      <trkpt lat="50.64694" lon="2.05505">
        <ele>195.1</ele>
        <time>2016-05-06T10:05:24Z</time>
      </trkpt>
      <trkpt lat="50.64683" lon="2.05495">
        <ele>195.7</ele>
        <time>2016-05-06T10:05:27Z</time>
      </trkpt>
      <trkpt lat="50.64673" lon="2.05485">
        <ele>196.4</ele>
        <time>2016-05-06T10:05:30Z</time>
      </trkpt>
      <trkpt lat="50.64662" lon="2.05475">
        <ele>197</ele>
        <time>2016-05-06T10:05:33Z</time>
      </trkpt>
      <trkpt lat="50.6465" lon="2.05465">
        <ele>197.6</ele>
        <time>2016-05-06T10:05:36Z</time>
      </trkpt>
      <trkpt lat="50.64638" lon="2.05455">
        <ele>198.1</ele>
        <time>2016-05-06T10:05:39Z</time>
      </trkpt>
      <trkpt lat="50.6463" lon="2.05449">
        <ele>198.4</ele>
        <time>2016-05-06T10:05:41Z</time>
      </trkpt>
      <trkpt lat="50.64621" lon="2.05442">
        <ele>198.8</ele>
        <time>2016-05-06T10:05:43Z</time>
      </trkpt>
      <trkpt lat="50.64612" lon="2.05434">
        <ele>199.2</ele>
        <time>2016-05-06T10:05:45Z</time>
      </trkpt>
      <trkpt lat="50.64603" lon="2.05427">
        <ele>199.6</ele>
        <time>2016-05-06T10:05:47Z</time>
      </trkpt>
      <trkpt lat="50.64595" lon="2.0542">
        <ele>199.9</ele>
        <time>2016-05-06T10:05:49Z</time>
      </trkpt>
      <trkpt lat="50.64586" lon="2.05413">
        <ele>200.3</ele>
        <time>2016-05-06T10:05:51Z</time>
      </trkpt>
      <trkpt lat="50.64578" lon="2.05405">
        <ele>200.8</ele>
        <time>2016-05-06T10:05:53Z</time>
      </trkpt>
      <trkpt lat="50.64569" lon="2.05397">
        <ele>201.2</ele>
        <time>2016-05-06T10:05:55Z</time>
      </trkpt>
      <trkpt lat="50.6456" lon="2.05389">
        <ele>201.6</ele>
        <time>2016-05-06T10:05:57Z</time>
      </trkpt>
      <trkpt lat="50.64552" lon="2.0538">
        <ele>201.9</ele>
        <time>2016-05-06T10:05:59Z</time>
      </trkpt>
      <trkpt lat="50.64542" lon="2.05368">
        <ele>202.3</ele>
        <time>2016-05-06T10:06:02Z</time>
      </trkpt>
      <trkpt lat="50.64546" lon="2.05351">
        <ele>202.7</ele>
        <time>2016-05-06T10:06:06Z</time>
      </trkpt>
      <trkpt lat="50.64557" lon="2.05338">
        <ele>203</ele>
        <time>2016-05-06T10:06:09Z</time>
      </trkpt>
      <trkpt lat="50.64565" lon="2.0533">
        <ele>203.1</ele>
        <time>2016-05-06T10:06:11Z</time>
      </trkpt>
      <trkpt lat="50.64573" lon="2.05321">
        <ele>203.2</ele>
        <time>2016-05-06T10:06:13Z</time>
      </trkpt>
      <trkpt lat="50.64582" lon="2.05312">
        <ele>203.3</ele>
        <time>2016-05-06T10:06:15Z</time>
      </trkpt>
      <trkpt lat="50.64593" lon="2.05302">
        <ele>203.5</ele>
        <time>2016-05-06T10:06:17Z</time>
      </trkpt>
      <trkpt lat="50.64603" lon="2.05294">
        <ele>203.6</ele>
        <time>2016-05-06T10:06:19Z</time>
      </trkpt>
      <trkpt lat="50.64614" lon="2.05283">
        <ele>203.8</ele>
        <time>2016-05-06T10:06:21Z</time>
      </trkpt>
      <trkpt lat="50.64627" lon="2.05271">
        <ele>203.9</ele>
        <time>2016-05-06T10:06:23Z</time>
      </trkpt>
      <trkpt lat="50.6464" lon="2.05262">
        <ele>204</ele>
        <time>2016-05-06T10:06:25Z</time>
      </trkpt>
      <trkpt lat="50.64651" lon="2.05252">
        <ele>204.1</ele>
        <time>2016-05-06T10:06:27Z</time>
      </trkpt>
      <trkpt lat="50.64663" lon="2.05242">
        <ele>204.1</ele>
        <time>2016-05-06T10:06:29Z</time>
      </trkpt>
      <trkpt lat="50.64676" lon="2.0523">
        <ele>204.2</ele>
        <time>2016-05-06T10:06:31Z</time>
      </trkpt>
      <trkpt lat="50.64688" lon="2.05219">
        <ele>204.3</ele>
        <time>2016-05-06T10:06:33Z</time>
      </trkpt>
      <trkpt lat="50.647" lon="2.05209">
        <ele>204.3</ele>
        <time>2016-05-06T10:06:35Z</time>
      </trkpt>
      <trkpt lat="50.64711" lon="2.05196">
        <ele>204.4</ele>
        <time>2016-05-06T10:06:37Z</time>
      </trkpt>
      <trkpt lat="50.64724" lon="2.05183">
        <ele>204.4</ele>
        <time>2016-05-06T10:06:39Z</time>
      </trkpt>
      <trkpt lat="50.64736" lon="2.05169">
        <ele>204.5</ele>
        <time>2016-05-06T10:06:41Z</time>
      </trkpt>
      <trkpt lat="50.64749" lon="2.05154">
        <ele>204.4</ele>
        <time>2016-05-06T10:06:43Z</time>
      </trkpt>
      <trkpt lat="50.64762" lon="2.05139">
        <ele>204.3</ele>
        <time>2016-05-06T10:06:45Z</time>
      </trkpt>
      <trkpt lat="50.64776" lon="2.05123">
        <ele>204.2</ele>
        <time>2016-05-06T10:06:47Z</time>
      </trkpt>
      <trkpt lat="50.64789" lon="2.05107">
        <ele>204</ele>
        <time>2016-05-06T10:06:49Z</time>
      </trkpt>
      <trkpt lat="50.64803" lon="2.05092">
        <ele>203.7</ele>
        <time>2016-05-06T10:06:51Z</time>
      </trkpt>
      <trkpt lat="50.64816" lon="2.05076">
        <ele>203.5</ele>
        <time>2016-05-06T10:06:53Z</time>
      </trkpt>
      <trkpt lat="50.64829" lon="2.0506">
        <ele>203.2</ele>
        <time>2016-05-06T10:06:55Z</time>
      </trkpt>
      <trkpt lat="50.64843" lon="2.05045">
        <ele>202.9</ele>
        <time>2016-05-06T10:06:57Z</time>
      </trkpt>
      <trkpt lat="50.64857" lon="2.05029">
        <ele>202.7</ele>
        <time>2016-05-06T10:06:59Z</time>
      </trkpt>
      <trkpt lat="50.6487" lon="2.05013">
        <ele>202.4</ele>
        <time>2016-05-06T10:07:01Z</time>
      </trkpt>
      <trkpt lat="50.64883" lon="2.04998">
        <ele>202.2</ele>
        <time>2016-05-06T10:07:03Z</time>
      </trkpt>
      <trkpt lat="50.64895" lon="2.04983">
        <ele>202.1</ele>
        <time>2016-05-06T10:07:05Z</time>
      </trkpt>
      <trkpt lat="50.64907" lon="2.04968">
        <ele>201.9</ele>
        <time>2016-05-06T10:07:07Z</time>
      </trkpt>
      <trkpt lat="50.64919" lon="2.04953">
        <ele>201.7</ele>
        <time>2016-05-06T10:07:09Z</time>
      </trkpt>
      <trkpt lat="50.64932" lon="2.04937">
        <ele>201.4</ele>
        <time>2016-05-06T10:07:11Z</time>
      </trkpt>
      <trkpt lat="50.64946" lon="2.04922">
        <ele>201</ele>
        <time>2016-05-06T10:07:13Z</time>
      </trkpt>
      <trkpt lat="50.64961" lon="2.04909">
        <ele>200.6</ele>
        <time>2016-05-06T10:07:15Z</time>
      </trkpt>
      <trkpt lat="50.64978" lon="2.04898">
        <ele>200.2</ele>
        <time>2016-05-06T10:07:17Z</time>
      </trkpt>
      <trkpt lat="50.64994" lon="2.04887">
        <ele>199.8</ele>
        <time>2016-05-06T10:07:19Z</time>
      </trkpt>
      <trkpt lat="50.6501" lon="2.04881">
        <ele>199.3</ele>
        <time>2016-05-06T10:07:21Z</time>
      </trkpt>
      <trkpt lat="50.65026" lon="2.04874">
        <ele>198.9</ele>
        <time>2016-05-06T10:07:23Z</time>
      </trkpt>
      <trkpt lat="50.65035" lon="2.04869">
        <ele>198.6</ele>
        <time>2016-05-06T10:07:24Z</time>
      </trkpt>
      <trkpt lat="50.65044" lon="2.04864">
        <ele>198.4</ele>
        <time>2016-05-06T10:07:25Z</time>
      </trkpt>
      <trkpt lat="50.65052" lon="2.04859">
        <ele>198.1</ele>
        <time>2016-05-06T10:07:26Z</time>
      </trkpt>
      <trkpt lat="50.65061" lon="2.04854">
        <ele>197.9</ele>
        <time>2016-05-06T10:07:27Z</time>
      </trkpt>
      <trkpt lat="50.65069" lon="2.04848">
        <ele>197.7</ele>
        <time>2016-05-06T10:07:28Z</time>
      </trkpt>
      <trkpt lat="50.65086" lon="2.04839">
        <ele>197.3</ele>
        <time>2016-05-06T10:07:30Z</time>
      </trkpt>
      <trkpt lat="50.65101" lon="2.04829">
        <ele>197</ele>
        <time>2016-05-06T10:07:32Z</time>
      </trkpt>
      <trkpt lat="50.65115" lon="2.04821">
        <ele>196.7</ele>
        <time>2016-05-06T10:07:34Z</time>
      </trkpt>
      <trkpt lat="50.65129" lon="2.04812">
        <ele>196.4</ele>
        <time>2016-05-06T10:07:36Z</time>
      </trkpt>
      <trkpt lat="50.65143" lon="2.04804">
        <ele>196.3</ele>
        <time>2016-05-06T10:07:38Z</time>
      </trkpt>
      <trkpt lat="50.65158" lon="2.04795">
        <ele>196.2</ele>
        <time>2016-05-06T10:07:40Z</time>
      </trkpt>
      <trkpt lat="50.65173" lon="2.04785">
        <ele>196.1</ele>
        <time>2016-05-06T10:07:42Z</time>
      </trkpt>
      <trkpt lat="50.6519" lon="2.04775">
        <ele>196</ele>
        <time>2016-05-06T10:07:44Z</time>
      </trkpt>
      <trkpt lat="50.65198" lon="2.0477">
        <ele>196</ele>
        <time>2016-05-06T10:07:45Z</time>
      </trkpt>
      <trkpt lat="50.65207" lon="2.04765">
        <ele>196</ele>
        <time>2016-05-06T10:07:46Z</time>
      </trkpt>
      <trkpt lat="50.65216" lon="2.04759">
        <ele>195.9</ele>
        <time>2016-05-06T10:07:47Z</time>
      </trkpt>
      <trkpt lat="50.65225" lon="2.04753">
        <ele>195.9</ele>
        <time>2016-05-06T10:07:48Z</time>
      </trkpt>
      <trkpt lat="50.65234" lon="2.04748">
        <ele>195.8</ele>
        <time>2016-05-06T10:07:49Z</time>
      </trkpt>
      <trkpt lat="50.65243" lon="2.04742">
        <ele>195.7</ele>
        <time>2016-05-06T10:07:50Z</time>
      </trkpt>
      <trkpt lat="50.65252" lon="2.04737">
        <ele>195.6</ele>
        <time>2016-05-06T10:07:51Z</time>
      </trkpt>
      <trkpt lat="50.65261" lon="2.04732">
        <ele>195.4</ele>
        <time>2016-05-06T10:07:52Z</time>
      </trkpt>
      <trkpt lat="50.6527" lon="2.04727">
        <ele>195.2</ele>
        <time>2016-05-06T10:07:53Z</time>
      </trkpt>
      <trkpt lat="50.65279" lon="2.04724">
        <ele>195</ele>
        <time>2016-05-06T10:07:54Z</time>
      </trkpt>
      <trkpt lat="50.65288" lon="2.04722">
        <ele>194.8</ele>
        <time>2016-05-06T10:07:55Z</time>
      </trkpt>
      <trkpt lat="50.65306" lon="2.0472">
        <ele>194.5</ele>
        <time>2016-05-06T10:07:57Z</time>
      </trkpt>
      <trkpt lat="50.65323" lon="2.04721">
        <ele>194.2</ele>
        <time>2016-05-06T10:07:59Z</time>
      </trkpt>
      <trkpt lat="50.65339" lon="2.04723">
        <ele>194.1</ele>
        <time>2016-05-06T10:08:01Z</time>
      </trkpt>
      <trkpt lat="50.65355" lon="2.04725">
        <ele>194</ele>
        <time>2016-05-06T10:08:03Z</time>
      </trkpt>
      <trkpt lat="50.6537" lon="2.04727">
        <ele>193.9</ele>
        <time>2016-05-06T10:08:05Z</time>
      </trkpt>
      <trkpt lat="50.65385" lon="2.04729">
        <ele>193.8</ele>
        <time>2016-05-06T10:08:07Z</time>
      </trkpt>
      <trkpt lat="50.654" lon="2.04731">
        <ele>193.9</ele>
        <time>2016-05-06T10:08:09Z</time>
      </trkpt>
      <trkpt lat="50.65414" lon="2.04733">
        <ele>194</ele>
        <time>2016-05-06T10:08:11Z</time>
      </trkpt>
      <trkpt lat="50.65427" lon="2.04733">
        <ele>194.2</ele>
        <time>2016-05-06T10:08:13Z</time>
      </trkpt>
      <trkpt lat="50.6544" lon="2.04733">
        <ele>194.5</ele>
        <time>2016-05-06T10:08:15Z</time>
      </trkpt>
      <trkpt lat="50.65452" lon="2.04732">
        <ele>194.8</ele>
        <time>2016-05-06T10:08:17Z</time>
      </trkpt>
      <trkpt lat="50.65465" lon="2.04731">
        <ele>195.1</ele>
        <time>2016-05-06T10:08:19Z</time>
      </trkpt>
      <trkpt lat="50.65478" lon="2.0473">
        <ele>195.4</ele>
        <time>2016-05-06T10:08:21Z</time>
      </trkpt>
      <trkpt lat="50.65491" lon="2.04728">
        <ele>195.8</ele>
        <time>2016-05-06T10:08:23Z</time>
      </trkpt>
      <trkpt lat="50.65504" lon="2.04727">
        <ele>196.1</ele>
        <time>2016-05-06T10:08:25Z</time>
      </trkpt>
      <trkpt lat="50.65517" lon="2.04726">
        <ele>196.5</ele>
        <time>2016-05-06T10:08:27Z</time>
      </trkpt>
      <trkpt lat="50.65531" lon="2.04725">
        <ele>196.8</ele>
        <time>2016-05-06T10:08:29Z</time>
      </trkpt>
      <trkpt lat="50.65544" lon="2.04723">
        <ele>197</ele>
        <time>2016-05-06T10:08:31Z</time>
      </trkpt>
      <trkpt lat="50.65556" lon="2.04721">
        <ele>197.2</ele>
        <time>2016-05-06T10:08:33Z</time>
      </trkpt>
      <trkpt lat="50.65569" lon="2.04719">
        <ele>197.5</ele>
        <time>2016-05-06T10:08:35Z</time>
      </trkpt>
      <trkpt lat="50.65581" lon="2.04717">
        <ele>197.8</ele>
        <time>2016-05-06T10:08:37Z</time>
      </trkpt>
      <trkpt lat="50.65593" lon="2.04715">
        <ele>198</ele>
        <time>2016-05-06T10:08:39Z</time>
      </trkpt>
      <trkpt lat="50.65604" lon="2.04712">
        <ele>198.3</ele>
        <time>2016-05-06T10:08:41Z</time>
      </trkpt>
      <trkpt lat="50.65616" lon="2.04708">
        <ele>197.9</ele>
        <time>2016-05-06T10:08:43Z</time>
      </trkpt>
      <trkpt lat="50.65629" lon="2.04704">
        <ele>198.1</ele>
        <time>2016-05-06T10:08:45Z</time>
      </trkpt>
      <trkpt lat="50.65642" lon="2.047">
        <ele>198.3</ele>
        <time>2016-05-06T10:08:47Z</time>
      </trkpt>
      <trkpt lat="50.65656" lon="2.04695">
        <ele>198.4</ele>
        <time>2016-05-06T10:08:49Z</time>
      </trkpt>
      <trkpt lat="50.65669" lon="2.04691">
        <ele>198.4</ele>
        <time>2016-05-06T10:08:51Z</time>
      </trkpt>
      <trkpt lat="50.65684" lon="2.04687">
        <ele>198.4</ele>
        <time>2016-05-06T10:08:53Z</time>
      </trkpt>
      <trkpt lat="50.65698" lon="2.04684">
        <ele>198.2</ele>
        <time>2016-05-06T10:08:55Z</time>
      </trkpt>
      <trkpt lat="50.65713" lon="2.0468">
        <ele>198</ele>
        <time>2016-05-06T10:08:57Z</time>
      </trkpt>
      <trkpt lat="50.65728" lon="2.04677">
        <ele>197.7</ele>
        <time>2016-05-06T10:08:59Z</time>
      </trkpt>
      <trkpt lat="50.65743" lon="2.04675">
        <ele>197.4</ele>
        <time>2016-05-06T10:09:01Z</time>
      </trkpt>
      <trkpt lat="50.65757" lon="2.0467">
        <ele>197.2</ele>
        <time>2016-05-06T10:09:03Z</time>
      </trkpt>
      <trkpt lat="50.6577" lon="2.04661">
        <ele>197</ele>
        <time>2016-05-06T10:09:05Z</time>
      </trkpt>
      <trkpt lat="50.65783" lon="2.04651">
        <ele>196.9</ele>
        <time>2016-05-06T10:09:07Z</time>
      </trkpt>
      <trkpt lat="50.65796" lon="2.0464">
        <ele>196.8</ele>
        <time>2016-05-06T10:09:09Z</time>
      </trkpt>
      <trkpt lat="50.6581" lon="2.04628">
        <ele>196.6</ele>
        <time>2016-05-06T10:09:11Z</time>
      </trkpt>
      <trkpt lat="50.65823" lon="2.04617">
        <ele>196.5</ele>
        <time>2016-05-06T10:09:13Z</time>
      </trkpt>
      <trkpt lat="50.65837" lon="2.04606">
        <ele>196.5</ele>
        <time>2016-05-06T10:09:15Z</time>
      </trkpt>
      <trkpt lat="50.6585" lon="2.04594">
        <ele>196.4</ele>
        <time>2016-05-06T10:09:17Z</time>
      </trkpt>
      <trkpt lat="50.65863" lon="2.04579">
        <ele>196.3</ele>
        <time>2016-05-06T10:09:19Z</time>
      </trkpt>
      <trkpt lat="50.65877" lon="2.04564">
        <ele>196.2</ele>
        <time>2016-05-06T10:09:21Z</time>
      </trkpt>
      <trkpt lat="50.65891" lon="2.04547">
        <ele>196.1</ele>
        <time>2016-05-06T10:09:23Z</time>
      </trkpt>
      <trkpt lat="50.65905" lon="2.0453">
        <ele>195.9</ele>
        <time>2016-05-06T10:09:25Z</time>
      </trkpt>
      <trkpt lat="50.65912" lon="2.0452">
        <ele>195.7</ele>
        <time>2016-05-06T10:09:26Z</time>
      </trkpt>
      <trkpt lat="50.65918" lon="2.04509">
        <ele>195.5</ele>
        <time>2016-05-06T10:09:27Z</time>
      </trkpt>
      <trkpt lat="50.65922" lon="2.04496">
        <ele>195.3</ele>
        <time>2016-05-06T10:09:28Z</time>
      </trkpt>
      <trkpt lat="50.65925" lon="2.04481">
        <ele>195.1</ele>
        <time>2016-05-06T10:09:29Z</time>
      </trkpt>
      <trkpt lat="50.65927" lon="2.04465">
        <ele>194.9</ele>
        <time>2016-05-06T10:09:30Z</time>
      </trkpt>
      <trkpt lat="50.65926" lon="2.04449">
        <ele>194.6</ele>
        <time>2016-05-06T10:09:31Z</time>
      </trkpt>
      <trkpt lat="50.65925" lon="2.04432">
        <ele>194.4</ele>
        <time>2016-05-06T10:09:32Z</time>
      </trkpt>
      <trkpt lat="50.65923" lon="2.04415">
        <ele>194.1</ele>
        <time>2016-05-06T10:09:33Z</time>
      </trkpt>
      <trkpt lat="50.65921" lon="2.04398">
        <ele>193.7</ele>
        <time>2016-05-06T10:09:34Z</time>
      </trkpt>
      <trkpt lat="50.65919" lon="2.04381">
        <ele>193.4</ele>
        <time>2016-05-06T10:09:35Z</time>
      </trkpt>
      <trkpt lat="50.65917" lon="2.04363">
        <ele>193</ele>
        <time>2016-05-06T10:09:36Z</time>
      </trkpt>
      <trkpt lat="50.65915" lon="2.04345">
        <ele>192.6</ele>
        <time>2016-05-06T10:09:37Z</time>
      </trkpt>
      <trkpt lat="50.65913" lon="2.04326">
        <ele>192</ele>
        <time>2016-05-06T10:09:38Z</time>
      </trkpt>
      <trkpt lat="50.65911" lon="2.04308">
        <ele>191.5</ele>
        <time>2016-05-06T10:09:39Z</time>
      </trkpt>
      <trkpt lat="50.65909" lon="2.04289">
        <ele>191</ele>
        <time>2016-05-06T10:09:40Z</time>
      </trkpt>
      <trkpt lat="50.65907" lon="2.0427">
        <ele>190.4</ele>
        <time>2016-05-06T10:09:41Z</time>
      </trkpt>
      <trkpt lat="50.65906" lon="2.0425">
        <ele>189.9</ele>
        <time>2016-05-06T10:09:42Z</time>
      </trkpt>
      <trkpt lat="50.65904" lon="2.04231">
        <ele>189.4</ele>
        <time>2016-05-06T10:09:43Z</time>
      </trkpt>
      <trkpt lat="50.65902" lon="2.04213">
        <ele>188.8</ele>
        <time>2016-05-06T10:09:44Z</time>
      </trkpt>
      <trkpt lat="50.65902" lon="2.04196">
        <ele>188.2</ele>
        <time>2016-05-06T10:09:45Z</time>
      </trkpt>
      <trkpt lat="50.65903" lon="2.04179">
        <ele>187.5</ele>
        <time>2016-05-06T10:09:46Z</time>
      </trkpt>
      <trkpt lat="50.65907" lon="2.04165">
        <ele>186.9</ele>
        <time>2016-05-06T10:09:47Z</time>
      </trkpt>
      <trkpt lat="50.65913" lon="2.04153">
        <ele>186.2</ele>
        <time>2016-05-06T10:09:48Z</time>
      </trkpt>
      <trkpt lat="50.65928" lon="2.04143">
        <ele>185</ele>
        <time>2016-05-06T10:09:50Z</time>
      </trkpt>
      <trkpt lat="50.65938" lon="2.04147">
        <ele>184.3</ele>
        <time>2016-05-06T10:09:51Z</time>
      </trkpt>
      <trkpt lat="50.65947" lon="2.04155">
        <ele>183.7</ele>
        <time>2016-05-06T10:09:52Z</time>
      </trkpt>
      <trkpt lat="50.65954" lon="2.04164">
        <ele>183</ele>
        <time>2016-05-06T10:09:53Z</time>
      </trkpt>
      <trkpt lat="50.65962" lon="2.04175">
        <ele>182.4</ele>
        <time>2016-05-06T10:09:54Z</time>
      </trkpt>
      <trkpt lat="50.6597" lon="2.04187">
        <ele>181.8</ele>
        <time>2016-05-06T10:09:55Z</time>
      </trkpt>
      <trkpt lat="50.65977" lon="2.04199">
        <ele>181.2</ele>
        <time>2016-05-06T10:09:56Z</time>
      </trkpt>
      <trkpt lat="50.65985" lon="2.04211">
        <ele>180.5</ele>
        <time>2016-05-06T10:09:57Z</time>
      </trkpt>
      <trkpt lat="50.65992" lon="2.04224">
        <ele>179.8</ele>
        <time>2016-05-06T10:09:58Z</time>
      </trkpt>
      <trkpt lat="50.66" lon="2.04236">
        <ele>179.1</ele>
        <time>2016-05-06T10:09:59Z</time>
      </trkpt>
      <trkpt lat="50.66007" lon="2.04248">
        <ele>178.5</ele>
        <time>2016-05-06T10:10:00Z</time>
      </trkpt>
      <trkpt lat="50.66015" lon="2.04259">
        <ele>177.9</ele>
        <time>2016-05-06T10:10:01Z</time>
      </trkpt>
      <trkpt lat="50.66022" lon="2.04271">
        <ele>177.3</ele>
        <time>2016-05-06T10:10:02Z</time>
      </trkpt>
      <trkpt lat="50.6603" lon="2.04283">
        <ele>176.7</ele>
        <time>2016-05-06T10:10:03Z</time>
      </trkpt>
      <trkpt lat="50.66039" lon="2.04294">
        <ele>176</ele>
        <time>2016-05-06T10:10:04Z</time>
      </trkpt>
      <trkpt lat="50.66048" lon="2.04303">
        <ele>175.3</ele>
        <time>2016-05-06T10:10:05Z</time>
      </trkpt>
      <trkpt lat="50.66058" lon="2.04312">
        <ele>174.6</ele>
        <time>2016-05-06T10:10:06Z</time>
      </trkpt>
      <trkpt lat="50.66069" lon="2.04317">
        <ele>173.9</ele>
        <time>2016-05-06T10:10:07Z</time>
      </trkpt>
      <trkpt lat="50.6608" lon="2.04318">
        <ele>173.2</ele>
        <time>2016-05-06T10:10:08Z</time>
      </trkpt>
      <trkpt lat="50.66092" lon="2.04317">
        <ele>172.5</ele>
        <time>2016-05-06T10:10:09Z</time>
      </trkpt>
      <trkpt lat="50.66103" lon="2.04312">
        <ele>171.8</ele>
        <time>2016-05-06T10:10:10Z</time>
      </trkpt>
      <trkpt lat="50.66114" lon="2.04304">
        <ele>171.2</ele>
        <time>2016-05-06T10:10:11Z</time>
      </trkpt>
      <trkpt lat="50.66125" lon="2.04296">
        <ele>170.4</ele>
        <time>2016-05-06T10:10:12Z</time>
      </trkpt>
      <trkpt lat="50.66136" lon="2.04286">
        <ele>169.6</ele>
        <time>2016-05-06T10:10:13Z</time>
      </trkpt>
      <trkpt lat="50.66146" lon="2.04277">
        <ele>168.8</ele>
        <time>2016-05-06T10:10:14Z</time>
      </trkpt>
      <trkpt lat="50.66157" lon="2.04267">
        <ele>168</ele>
        <time>2016-05-06T10:10:15Z</time>
      </trkpt>
      <trkpt lat="50.66168" lon="2.04257">
        <ele>167.1</ele>
        <time>2016-05-06T10:10:16Z</time>
      </trkpt>
      <trkpt lat="50.6618" lon="2.04248">
        <ele>166.3</ele>
        <time>2016-05-06T10:10:17Z</time>
      </trkpt>
      <trkpt lat="50.66191" lon="2.04238">
        <ele>165.5</ele>
        <time>2016-05-06T10:10:18Z</time>
      </trkpt>
      <trkpt lat="50.66203" lon="2.04228">
        <ele>164.7</ele>
        <time>2016-05-06T10:10:19Z</time>
      </trkpt>
      <trkpt lat="50.66214" lon="2.04217">
        <ele>163.8</ele>
        <time>2016-05-06T10:10:20Z</time>
      </trkpt>
      <trkpt lat="50.66226" lon="2.04207">
        <ele>162.9</ele>
        <time>2016-05-06T10:10:21Z</time>
      </trkpt>
      <trkpt lat="50.66237" lon="2.04197">
        <ele>162.1</ele>
        <time>2016-05-06T10:10:22Z</time>
      </trkpt>
      <trkpt lat="50.66249" lon="2.04187">
        <ele>161.2</ele>
        <time>2016-05-06T10:10:23Z</time>
      </trkpt>
      <trkpt lat="50.66261" lon="2.04176">
        <ele>160.4</ele>
        <time>2016-05-06T10:10:24Z</time>
      </trkpt>
      <trkpt lat="50.66273" lon="2.04166">
        <ele>159.5</ele>
        <time>2016-05-06T10:10:25Z</time>
      </trkpt>
      <trkpt lat="50.66285" lon="2.04155">
        <ele>158.7</ele>
        <time>2016-05-06T10:10:26Z</time>
      </trkpt>
      <trkpt lat="50.66297" lon="2.04144">
        <ele>157.8</ele>
        <time>2016-05-06T10:10:27Z</time>
      </trkpt>
      <trkpt lat="50.66309" lon="2.04133">
        <ele>156.8</ele>
        <time>2016-05-06T10:10:28Z</time>
      </trkpt>
      <trkpt lat="50.66321" lon="2.04123">
        <ele>155.9</ele>
        <time>2016-05-06T10:10:29Z</time>
      </trkpt>
      <trkpt lat="50.66333" lon="2.04112">
        <ele>155</ele>
        <time>2016-05-06T10:10:30Z</time>
      </trkpt>
      <trkpt lat="50.66345" lon="2.041">
        <ele>154.1</ele>
        <time>2016-05-06T10:10:31Z</time>
      </trkpt>
      <trkpt lat="50.66356" lon="2.04089">
        <ele>153.3</ele>
        <time>2016-05-06T10:10:32Z</time>
      </trkpt>
      <trkpt lat="50.66368" lon="2.04079">
        <ele>152.4</ele>
        <time>2016-05-06T10:10:33Z</time>
      </trkpt>
      <trkpt lat="50.66379" lon="2.04068">
        <ele>151.7</ele>
        <time>2016-05-06T10:10:34Z</time>
      </trkpt>
      <trkpt lat="50.66391" lon="2.04058">
        <ele>150.9</ele>
        <time>2016-05-06T10:10:35Z</time>
      </trkpt>
      <trkpt lat="50.66402" lon="2.04047">
        <ele>150.1</ele>
        <time>2016-05-06T10:10:36Z</time>
      </trkpt>
      <trkpt lat="50.66413" lon="2.04036">
        <ele>149.4</ele>
        <time>2016-05-06T10:10:37Z</time>
      </trkpt>
      <trkpt lat="50.66425" lon="2.04025">
        <ele>148.6</ele>
        <time>2016-05-06T10:10:38Z</time>
      </trkpt>
      <trkpt lat="50.66436" lon="2.04014">
        <ele>147.8</ele>
        <time>2016-05-06T10:10:39Z</time>
      </trkpt>
      <trkpt lat="50.66448" lon="2.04004">
        <ele>147.1</ele>
        <time>2016-05-06T10:10:40Z</time>
      </trkpt>
      <trkpt lat="50.66459" lon="2.03993">
        <ele>146.4</ele>
        <time>2016-05-06T10:10:41Z</time>
      </trkpt>
      <trkpt lat="50.6647" lon="2.03983">
        <ele>145.7</ele>
        <time>2016-05-06T10:10:42Z</time>
      </trkpt>
      <trkpt lat="50.66481" lon="2.03972">
        <ele>145</ele>
        <time>2016-05-06T10:10:43Z</time>
      </trkpt>
      <trkpt lat="50.66492" lon="2.03962">
        <ele>144.4</ele>
        <time>2016-05-06T10:10:44Z</time>
      </trkpt>
      <trkpt lat="50.66503" lon="2.03951">
        <ele>143.7</ele>
        <time>2016-05-06T10:10:45Z</time>
      </trkpt>
      <trkpt lat="50.66514" lon="2.03941">
        <ele>143</ele>
        <time>2016-05-06T10:10:46Z</time>
      </trkpt>
      <trkpt lat="50.66525" lon="2.0393">
        <ele>142.4</ele>
        <time>2016-05-06T10:10:47Z</time>
      </trkpt>
      <trkpt lat="50.66535" lon="2.0392">
        <ele>141.7</ele>
        <time>2016-05-06T10:10:48Z</time>
      </trkpt>
      <trkpt lat="50.66546" lon="2.0391">
        <ele>141.1</ele>
        <time>2016-05-06T10:10:49Z</time>
      </trkpt>
      <trkpt lat="50.66556" lon="2.039">
        <ele>140.4</ele>
        <time>2016-05-06T10:10:50Z</time>
      </trkpt>
      <trkpt lat="50.66566" lon="2.0389">
        <ele>139.8</ele>
        <time>2016-05-06T10:10:51Z</time>
      </trkpt>
      <trkpt lat="50.66576" lon="2.0388">
        <ele>139.1</ele>
        <time>2016-05-06T10:10:52Z</time>
      </trkpt>
      <trkpt lat="50.66586" lon="2.0387">
        <ele>138.5</ele>
        <time>2016-05-06T10:10:53Z</time>
      </trkpt>
      <trkpt lat="50.66596" lon="2.03859">
        <ele>137.9</ele>
        <time>2016-05-06T10:10:54Z</time>
      </trkpt>
      <trkpt lat="50.66605" lon="2.03847">
        <ele>137.2</ele>
        <time>2016-05-06T10:10:55Z</time>
      </trkpt>
      <trkpt lat="50.66614" lon="2.03835">
        <ele>136.6</ele>
        <time>2016-05-06T10:10:56Z</time>
      </trkpt>
      <trkpt lat="50.66623" lon="2.03822">
        <ele>136</ele>
        <time>2016-05-06T10:10:57Z</time>
      </trkpt>
      <trkpt lat="50.66632" lon="2.03809">
        <ele>135.3</ele>
        <time>2016-05-06T10:10:58Z</time>
      </trkpt>
      <trkpt lat="50.66641" lon="2.03796">
        <ele>134.7</ele>
        <time>2016-05-06T10:10:59Z</time>
      </trkpt>
      <trkpt lat="50.6665" lon="2.03783">
        <ele>134.1</ele>
        <time>2016-05-06T10:11:00Z</time>
      </trkpt>
      <trkpt lat="50.66658" lon="2.0377">
        <ele>133.5</ele>
        <time>2016-05-06T10:11:01Z</time>
      </trkpt>
      <trkpt lat="50.66667" lon="2.03757">
        <ele>132.9</ele>
        <time>2016-05-06T10:11:02Z</time>
      </trkpt>
      <trkpt lat="50.66676" lon="2.03744">
        <ele>132.3</ele>
        <time>2016-05-06T10:11:03Z</time>
      </trkpt>
      <trkpt lat="50.66684" lon="2.03731">
        <ele>131.7</ele>
        <time>2016-05-06T10:11:04Z</time>
      </trkpt>
      <trkpt lat="50.66693" lon="2.03719">
        <ele>131.1</ele>
        <time>2016-05-06T10:11:05Z</time>
      </trkpt>
      <trkpt lat="50.66701" lon="2.03706">
        <ele>130.5</ele>
        <time>2016-05-06T10:11:06Z</time>
      </trkpt>
      <trkpt lat="50.6671" lon="2.03694">
        <ele>129.8</ele>
        <time>2016-05-06T10:11:07Z</time>
      </trkpt>
      <trkpt lat="50.66718" lon="2.03682">
        <ele>129.2</ele>
        <time>2016-05-06T10:11:08Z</time>
      </trkpt>
      <trkpt lat="50.66726" lon="2.0367">
        <ele>128.7</ele>
        <time>2016-05-06T10:11:09Z</time>
      </trkpt>
      <trkpt lat="50.66734" lon="2.03657">
        <ele>128.1</ele>
        <time>2016-05-06T10:11:10Z</time>
      </trkpt>
      <trkpt lat="50.66742" lon="2.03645">
        <ele>127.5</ele>
        <time>2016-05-06T10:11:11Z</time>
      </trkpt>
      <trkpt lat="50.66751" lon="2.03634">
        <ele>126.9</ele>
        <time>2016-05-06T10:11:12Z</time>
      </trkpt>
      <trkpt lat="50.66759" lon="2.03622">
        <ele>126.3</ele>
        <time>2016-05-06T10:11:13Z</time>
      </trkpt>
      <trkpt lat="50.66767" lon="2.03611">
        <ele>125.8</ele>
        <time>2016-05-06T10:11:14Z</time>
      </trkpt>
      <trkpt lat="50.66775" lon="2.03599">
        <ele>125.2</ele>
        <time>2016-05-06T10:11:15Z</time>
      </trkpt>
      <trkpt lat="50.66783" lon="2.03588">
        <ele>124.7</ele>
        <time>2016-05-06T10:11:16Z</time>
      </trkpt>
      <trkpt lat="50.66792" lon="2.03577">
        <ele>124.3</ele>
        <time>2016-05-06T10:11:17Z</time>
      </trkpt>
      <trkpt lat="50.668" lon="2.03567">
        <ele>123.8</ele>
        <time>2016-05-06T10:11:18Z</time>
      </trkpt>
      <trkpt lat="50.66808" lon="2.03557">
        <ele>123.3</ele>
        <time>2016-05-06T10:11:19Z</time>
      </trkpt>
      <trkpt lat="50.66816" lon="2.03547">
        <ele>122.8</ele>
        <time>2016-05-06T10:11:20Z</time>
      </trkpt>
      <trkpt lat="50.66825" lon="2.03537">
        <ele>122.3</ele>
        <time>2016-05-06T10:11:21Z</time>
      </trkpt>
      <trkpt lat="50.66833" lon="2.03528">
        <ele>121.9</ele>
        <time>2016-05-06T10:11:22Z</time>
      </trkpt>
      <trkpt lat="50.66842" lon="2.0352">
        <ele>121.4</ele>
        <time>2016-05-06T10:11:23Z</time>
      </trkpt>
      <trkpt lat="50.6685" lon="2.03512">
        <ele>120.9</ele>
        <time>2016-05-06T10:11:24Z</time>
      </trkpt>
      <trkpt lat="50.66859" lon="2.03505">
        <ele>120.4</ele>
        <time>2016-05-06T10:11:25Z</time>
      </trkpt>
      <trkpt lat="50.66868" lon="2.03499">
        <ele>120</ele>
        <time>2016-05-06T10:11:26Z</time>
      </trkpt>
      <trkpt lat="50.66877" lon="2.03493">
        <ele>119.6</ele>
        <time>2016-05-06T10:11:27Z</time>
      </trkpt>
      <trkpt lat="50.66886" lon="2.03487">
        <ele>119.2</ele>
        <time>2016-05-06T10:11:28Z</time>
      </trkpt>
      <trkpt lat="50.66895" lon="2.03482">
        <ele>118.8</ele>
        <time>2016-05-06T10:11:29Z</time>
      </trkpt>
      <trkpt lat="50.66904" lon="2.03476">
        <ele>118.5</ele>
        <time>2016-05-06T10:11:30Z</time>
      </trkpt>
      <trkpt lat="50.66912" lon="2.03471">
        <ele>118.2</ele>
        <time>2016-05-06T10:11:31Z</time>
      </trkpt>
      <trkpt lat="50.66921" lon="2.03466">
        <ele>117.8</ele>
        <time>2016-05-06T10:11:32Z</time>
      </trkpt>
      <trkpt lat="50.6693" lon="2.03461">
        <ele>117.5</ele>
        <time>2016-05-06T10:11:33Z</time>
      </trkpt>
      <trkpt lat="50.66939" lon="2.03456">
        <ele>117.2</ele>
        <time>2016-05-06T10:11:34Z</time>
      </trkpt>
      <trkpt lat="50.66949" lon="2.03452">
        <ele>116.9</ele>
        <time>2016-05-06T10:11:35Z</time>
      </trkpt>
      <trkpt lat="50.66958" lon="2.03448">
        <ele>116.6</ele>
        <time>2016-05-06T10:11:36Z</time>
      </trkpt>
      <trkpt lat="50.66967" lon="2.03444">
        <ele>116.3</ele>
        <time>2016-05-06T10:11:37Z</time>
      </trkpt>
      <trkpt lat="50.66977" lon="2.03441">
        <ele>116</ele>
        <time>2016-05-06T10:11:38Z</time>
      </trkpt>
      <trkpt lat="50.66986" lon="2.03438">
        <ele>115.7</ele>
        <time>2016-05-06T10:11:39Z</time>
      </trkpt>
      <trkpt lat="50.66996" lon="2.03436">
        <ele>115.4</ele>
        <time>2016-05-06T10:11:40Z</time>
      </trkpt>
      <trkpt lat="50.67005" lon="2.03435">
        <ele>115.1</ele>
        <time>2016-05-06T10:11:41Z</time>
      </trkpt>
      <trkpt lat="50.67014" lon="2.03436">
        <ele>114.9</ele>
        <time>2016-05-06T10:11:42Z</time>
      </trkpt>
      <trkpt lat="50.67024" lon="2.03438">
        <ele>114.6</ele>
        <time>2016-05-06T10:11:43Z</time>
      </trkpt>
      <trkpt lat="50.67041" lon="2.03442">
        <ele>114</ele>
        <time>2016-05-06T10:11:45Z</time>
      </trkpt>
      <trkpt lat="50.67058" lon="2.03447">
        <ele>113.5</ele>
        <time>2016-05-06T10:11:47Z</time>
      </trkpt>
      <trkpt lat="50.67075" lon="2.03448">
        <ele>113.1</ele>
        <time>2016-05-06T10:11:49Z</time>
      </trkpt>
      <trkpt lat="50.6709" lon="2.03445">
        <ele>112.7</ele>
        <time>2016-05-06T10:11:51Z</time>
      </trkpt>
      <trkpt lat="50.67104" lon="2.03433">
        <ele>112.2</ele>
        <time>2016-05-06T10:11:53Z</time>
      </trkpt>
      <trkpt lat="50.67117" lon="2.03416">
        <ele>111.7</ele>
        <time>2016-05-06T10:11:55Z</time>
      </trkpt>
      <trkpt lat="50.6713" lon="2.03399">
        <ele>111.2</ele>
        <time>2016-05-06T10:11:57Z</time>
      </trkpt>
      <trkpt lat="50.67144" lon="2.03383">
        <ele>110.7</ele>
        <time>2016-05-06T10:11:59Z</time>
      </trkpt>
      <trkpt lat="50.67158" lon="2.03369">
        <ele>110.1</ele>
        <time>2016-05-06T10:12:01Z</time>
      </trkpt>
      <trkpt lat="50.67173" lon="2.03356">
        <ele>109.6</ele>
        <time>2016-05-06T10:12:03Z</time>
      </trkpt>
      <trkpt lat="50.67187" lon="2.03342">
        <ele>109</ele>
        <time>2016-05-06T10:12:05Z</time>
      </trkpt>
      <trkpt lat="50.67201" lon="2.03328">
        <ele>108.5</ele>
        <time>2016-05-06T10:12:07Z</time>
      </trkpt>
      <trkpt lat="50.67215" lon="2.03315">
        <ele>108</ele>
        <time>2016-05-06T10:12:09Z</time>
      </trkpt>
      <trkpt lat="50.67228" lon="2.03302">
        <ele>107.6</ele>
        <time>2016-05-06T10:12:11Z</time>
      </trkpt>
      <trkpt lat="50.67241" lon="2.0329">
        <ele>107</ele>
        <time>2016-05-06T10:12:13Z</time>
      </trkpt>
      <trkpt lat="50.67254" lon="2.03279">
        <ele>106.5</ele>
        <time>2016-05-06T10:12:15Z</time>
      </trkpt>
      <trkpt lat="50.67266" lon="2.03266">
        <ele>105.9</ele>
        <time>2016-05-06T10:12:17Z</time>
      </trkpt>
      <trkpt lat="50.67279" lon="2.03251">
        <ele>105.3</ele>
        <time>2016-05-06T10:12:19Z</time>
      </trkpt>
      <trkpt lat="50.67292" lon="2.03236">
        <ele>104.7</ele>
        <time>2016-05-06T10:12:21Z</time>
      </trkpt>
      <trkpt lat="50.67304" lon="2.0322">
        <ele>104.2</ele>
        <time>2016-05-06T10:12:23Z</time>
      </trkpt>
      <trkpt lat="50.67318" lon="2.03204">
        <ele>103.6</ele>
        <time>2016-05-06T10:12:25Z</time>
      </trkpt>
      <trkpt lat="50.67332" lon="2.03188">
        <ele>103</ele>
        <time>2016-05-06T10:12:27Z</time>
      </trkpt>
      <trkpt lat="50.67347" lon="2.03173">
        <ele>102.4</ele>
        <time>2016-05-06T10:12:29Z</time>
      </trkpt>
      <trkpt lat="50.67361" lon="2.03158">
        <ele>101.7</ele>
        <time>2016-05-06T10:12:31Z</time>
      </trkpt>
      <trkpt lat="50.67374" lon="2.03141">
        <ele>101.1</ele>
        <time>2016-05-06T10:12:33Z</time>
      </trkpt>
      <trkpt lat="50.67385" lon="2.03125">
        <ele>100.5</ele>
        <time>2016-05-06T10:12:35Z</time>
      </trkpt>
      <trkpt lat="50.67397" lon="2.03113">
        <ele>100.1</ele>
        <time>2016-05-06T10:12:37Z</time>
      </trkpt>
      <trkpt lat="50.6741" lon="2.03104">
        <ele>99.6</ele>
        <time>2016-05-06T10:12:39Z</time>
      </trkpt>
      <trkpt lat="50.67421" lon="2.03106">
        <ele>99.3</ele>
        <time>2016-05-06T10:12:41Z</time>
      </trkpt>
      <trkpt lat="50.67429" lon="2.03118">
        <ele>99</ele>
        <time>2016-05-06T10:12:43Z</time>
      </trkpt>
      <trkpt lat="50.67434" lon="2.03133">
        <ele>98.7</ele>
        <time>2016-05-06T10:12:45Z</time>
      </trkpt>
      <trkpt lat="50.67439" lon="2.03146">
        <ele>98.5</ele>
        <time>2016-05-06T10:12:47Z</time>
      </trkpt>
      <trkpt lat="50.67446" lon="2.03158">
        <ele>98.4</ele>
        <time>2016-05-06T10:12:49Z</time>
      </trkpt>
      <trkpt lat="50.67453" lon="2.03169">
        <ele>98.3</ele>
        <time>2016-05-06T10:12:51Z</time>
      </trkpt>
      <trkpt lat="50.67462" lon="2.03175">
        <ele>98.2</ele>
        <time>2016-05-06T10:12:53Z</time>
      </trkpt>
      <trkpt lat="50.67475" lon="2.03178">
        <ele>98.2</ele>
        <time>2016-05-06T10:12:56Z</time>
      </trkpt>
      <trkpt lat="50.67487" lon="2.03178">
        <ele>98.3</ele>
        <time>2016-05-06T10:12:59Z</time>
      </trkpt>
      <trkpt lat="50.67498" lon="2.03174">
        <ele>98.7</ele>
        <time>2016-05-06T10:13:02Z</time>
      </trkpt>
      <trkpt lat="50.67509" lon="2.03169">
        <ele>99.1</ele>
        <time>2016-05-06T10:13:05Z</time>
      </trkpt>
      <trkpt lat="50.67518" lon="2.03165">
        <ele>99.4</ele>
        <time>2016-05-06T10:13:07Z</time>
      </trkpt>
      <trkpt lat="50.67527" lon="2.03161">
        <ele>99.8</ele>
        <time>2016-05-06T10:13:09Z</time>
      </trkpt>
      <trkpt lat="50.67539" lon="2.03156">
        <ele>100.3</ele>
        <time>2016-05-06T10:13:12Z</time>
      </trkpt>
      <trkpt lat="50.67552" lon="2.0315">
        <ele>100.7</ele>
        <time>2016-05-06T10:13:15Z</time>
      </trkpt>
      <trkpt lat="50.67562" lon="2.03152">
        <ele>101</ele>
        <time>2016-05-06T10:13:17Z</time>
      </trkpt>
      <trkpt lat="50.67568" lon="2.03166">
        <ele>101.3</ele>
        <time>2016-05-06T10:13:19Z</time>
      </trkpt>
      <trkpt lat="50.67571" lon="2.03184">
        <ele>101.5</ele>
        <time>2016-05-06T10:13:21Z</time>
      </trkpt>
      <trkpt lat="50.67572" lon="2.03204">
        <ele>101.6</ele>
        <time>2016-05-06T10:13:23Z</time>
      </trkpt>
      <trkpt lat="50.67573" lon="2.03225">
        <ele>101.7</ele>
        <time>2016-05-06T10:13:25Z</time>
      </trkpt>
      <trkpt lat="50.67574" lon="2.03247">
        <ele>101.6</ele>
        <time>2016-05-06T10:13:27Z</time>
      </trkpt>
      <trkpt lat="50.67575" lon="2.0327">
        <ele>101.6</ele>
        <time>2016-05-06T10:13:29Z</time>
      </trkpt>
      <trkpt lat="50.67577" lon="2.03294">
        <ele>101.4</ele>
        <time>2016-05-06T10:13:31Z</time>
      </trkpt>
      <trkpt lat="50.67579" lon="2.03319">
        <ele>101.1</ele>
        <time>2016-05-06T10:13:33Z</time>
      </trkpt>
      <trkpt lat="50.67583" lon="2.03345">
        <ele>100.7</ele>
        <time>2016-05-06T10:13:35Z</time>
      </trkpt>
      <trkpt lat="50.67589" lon="2.03368">
        <ele>100.3</ele>
        <time>2016-05-06T10:13:37Z</time>
      </trkpt>
      <trkpt lat="50.676" lon="2.03386">
        <ele>99.9</ele>
        <time>2016-05-06T10:13:39Z</time>
      </trkpt>
      <trkpt lat="50.67615" lon="2.03388">
        <ele>99.4</ele>
        <time>2016-05-06T10:13:41Z</time>
      </trkpt>
      <trkpt lat="50.67628" lon="2.03383">
        <ele>98.9</ele>
        <time>2016-05-06T10:13:43Z</time>
      </trkpt>
      <trkpt lat="50.67639" lon="2.03378">
        <ele>98.5</ele>
        <time>2016-05-06T10:13:45Z</time>
      </trkpt>
      <trkpt lat="50.6765" lon="2.03377">
        <ele>98.2</ele>
        <time>2016-05-06T10:13:47Z</time>
      </trkpt>
      <trkpt lat="50.6766" lon="2.03383">
        <ele>98</ele>
        <time>2016-05-06T10:13:49Z</time>
      </trkpt>
      <trkpt lat="50.67666" lon="2.03396">
        <ele>97.8</ele>
        <time>2016-05-06T10:13:51Z</time>
      </trkpt>
      <trkpt lat="50.67668" lon="2.0341">
        <ele>97.7</ele>
        <time>2016-05-06T10:13:53Z</time>
      </trkpt>
      <trkpt lat="50.6767" lon="2.0343">
        <ele>97.7</ele>
        <time>2016-05-06T10:13:56Z</time>
      </trkpt>
      <trkpt lat="50.67673" lon="2.03447">
        <ele>97.9</ele>
        <time>2016-05-06T10:13:59Z</time>
      </trkpt>
      <trkpt lat="50.67675" lon="2.03465">
        <ele>98.3</ele>
        <time>2016-05-06T10:14:02Z</time>
      </trkpt>
      <trkpt lat="50.67676" lon="2.03483">
        <ele>98.8</ele>
        <time>2016-05-06T10:14:05Z</time>
      </trkpt>
      <trkpt lat="50.67678" lon="2.035">
        <ele>99.3</ele>
        <time>2016-05-06T10:14:08Z</time>
      </trkpt>
      <trkpt lat="50.6768" lon="2.03517">
        <ele>99.9</ele>
        <time>2016-05-06T10:14:11Z</time>
      </trkpt>
      <trkpt lat="50.67681" lon="2.03532">
        <ele>100.6</ele>
        <time>2016-05-06T10:14:14Z</time>
      </trkpt>
      <trkpt lat="50.67681" lon="2.03547">
        <ele>101.4</ele>
        <time>2016-05-06T10:14:17Z</time>
      </trkpt>
      <trkpt lat="50.67682" lon="2.03563">
        <ele>102</ele>
        <time>2016-05-06T10:14:20Z</time>
      </trkpt>
      <trkpt lat="50.67684" lon="2.03581">
        <ele>103</ele>
        <time>2016-05-06T10:14:24Z</time>
      </trkpt>
      <trkpt lat="50.67686" lon="2.03596">
        <ele>103.8</ele>
        <time>2016-05-06T10:14:27Z</time>
      </trkpt>
      <trkpt lat="50.6769" lon="2.03608">
        <ele>104.6</ele>
        <time>2016-05-06T10:14:30Z</time>
      </trkpt>
      <trkpt lat="50.67694" lon="2.03622">
        <ele>105.4</ele>
        <time>2016-05-06T10:14:33Z</time>
      </trkpt>
      <trkpt lat="50.677" lon="2.03639">
        <ele>106.4</ele>
        <time>2016-05-06T10:14:37Z</time>
      </trkpt>
      <trkpt lat="50.67706" lon="2.03654">
        <ele>107.4</ele>
        <time>2016-05-06T10:14:41Z</time>
      </trkpt>
      <trkpt lat="50.67711" lon="2.03666">
        <ele>108.2</ele>
        <time>2016-05-06T10:14:44Z</time>
      </trkpt>
      <trkpt lat="50.67717" lon="2.03677">
        <ele>109</ele>
        <time>2016-05-06T10:14:47Z</time>
      </trkpt>
      <trkpt lat="50.67723" lon="2.03688">
        <ele>109.8</ele>
        <time>2016-05-06T10:14:50Z</time>
      </trkpt>
      <trkpt lat="50.67732" lon="2.03699">
        <ele>110.8</ele>
        <time>2016-05-06T10:14:54Z</time>
      </trkpt>
      <trkpt lat="50.67742" lon="2.03708">
        <ele>111.8</ele>
        <time>2016-05-06T10:14:58Z</time>
      </trkpt>
      <trkpt lat="50.67751" lon="2.03713">
        <ele>112.5</ele>
        <time>2016-05-06T10:15:01Z</time>
      </trkpt>
      <trkpt lat="50.6776" lon="2.03716">
        <ele>113.3</ele>
        <time>2016-05-06T10:15:04Z</time>
      </trkpt>
      <trkpt lat="50.67769" lon="2.03718">
        <ele>114.1</ele>
        <time>2016-05-06T10:15:07Z</time>
      </trkpt>
      <trkpt lat="50.67778" lon="2.03717">
        <ele>114.8</ele>
        <time>2016-05-06T10:15:10Z</time>
      </trkpt>
      <trkpt lat="50.67788" lon="2.03717">
        <ele>115.5</ele>
        <time>2016-05-06T10:15:13Z</time>
      </trkpt>
      <trkpt lat="50.67799" lon="2.03713">
        <ele>116.5</ele>
        <time>2016-05-06T10:15:17Z</time>
      </trkpt>
      <trkpt lat="50.67808" lon="2.03712">
        <ele>117.2</ele>
        <time>2016-05-06T10:15:20Z</time>
      </trkpt>
      <trkpt lat="50.67817" lon="2.03707">
        <ele>118</ele>
        <time>2016-05-06T10:15:23Z</time>
      </trkpt>
      <trkpt lat="50.67826" lon="2.03702">
        <ele>118.7</ele>
        <time>2016-05-06T10:15:26Z</time>
      </trkpt>
      <trkpt lat="50.67837" lon="2.037">
        <ele>119.5</ele>
        <time>2016-05-06T10:15:29Z</time>
      </trkpt>
      <trkpt lat="50.67848" lon="2.03699">
        <ele>120.3</ele>
        <time>2016-05-06T10:15:32Z</time>
      </trkpt>
      <trkpt lat="50.67857" lon="2.03692">
        <ele>121.2</ele>
        <time>2016-05-06T10:15:36Z</time>
      </trkpt>
      <trkpt lat="50.67867" lon="2.03698">
        <ele>121.9</ele>
        <time>2016-05-06T10:15:39Z</time>
      </trkpt>
      <trkpt lat="50.67871" lon="2.03715">
        <ele>122.6</ele>
        <time>2016-05-06T10:15:42Z</time>
      </trkpt>
      <trkpt lat="50.67876" lon="2.03732">
        <ele>123.2</ele>
        <time>2016-05-06T10:15:45Z</time>
      </trkpt>
      <trkpt lat="50.67878" lon="2.03749">
        <ele>124</ele>
        <time>2016-05-06T10:15:48Z</time>
      </trkpt>
      <trkpt lat="50.67881" lon="2.03765">
        <ele>124.8</ele>
        <time>2016-05-06T10:15:51Z</time>
      </trkpt>
      <trkpt lat="50.67884" lon="2.03781">
        <ele>125.5</ele>
        <time>2016-05-06T10:15:54Z</time>
      </trkpt>
      <trkpt lat="50.67887" lon="2.03797">
        <ele>126.2</ele>
        <time>2016-05-06T10:15:57Z</time>
      </trkpt>
      <trkpt lat="50.67889" lon="2.03814">
        <ele>126.9</ele>
        <time>2016-05-06T10:16:00Z</time>
      </trkpt>
      <trkpt lat="50.67891" lon="2.03829">
        <ele>127.6</ele>
        <time>2016-05-06T10:16:03Z</time>
      </trkpt>
      <trkpt lat="50.67893" lon="2.03845">
        <ele>128.3</ele>
        <time>2016-05-06T10:16:06Z</time>
      </trkpt>
      <trkpt lat="50.67894" lon="2.0386">
        <ele>129</ele>
        <time>2016-05-06T10:16:09Z</time>
      </trkpt>
      <trkpt lat="50.67896" lon="2.03875">
        <ele>129.8</ele>
        <time>2016-05-06T10:16:12Z</time>
      </trkpt>
      <trkpt lat="50.67897" lon="2.0389">
        <ele>130.5</ele>
        <time>2016-05-06T10:16:15Z</time>
      </trkpt>
      <trkpt lat="50.67898" lon="2.03905">
        <ele>131.2</ele>
        <time>2016-05-06T10:16:18Z</time>
      </trkpt>
      <trkpt lat="50.67899" lon="2.03921">
        <ele>131.8</ele>
        <time>2016-05-06T10:16:21Z</time>
      </trkpt>
      <trkpt lat="50.679" lon="2.03936">
        <ele>132.5</ele>
        <time>2016-05-06T10:16:24Z</time>
      </trkpt>
      <trkpt lat="50.67902" lon="2.03954">
        <ele>133.4</ele>
        <time>2016-05-06T10:16:28Z</time>
      </trkpt>
      <trkpt lat="50.67903" lon="2.03968">
        <ele>134</ele>
        <time>2016-05-06T10:16:31Z</time>
      </trkpt>
      <trkpt lat="50.67907" lon="2.03981">
        <ele>134.7</ele>
        <time>2016-05-06T10:16:34Z</time>
      </trkpt>
      <trkpt lat="50.67914" lon="2.03992">
        <ele>135.2</ele>
        <time>2016-05-06T10:16:37Z</time>
      </trkpt>
      <trkpt lat="50.67922" lon="2.03999">
        <ele>135.9</ele>
        <time>2016-05-06T10:16:40Z</time>
      </trkpt>
      <trkpt lat="50.67931" lon="2.04003">
        <ele>136.6</ele>
        <time>2016-05-06T10:16:43Z</time>
      </trkpt>
      <trkpt lat="50.67941" lon="2.04003">
        <ele>137.2</ele>
        <time>2016-05-06T10:16:46Z</time>
      </trkpt>
      <trkpt lat="50.6795" lon="2.03998">
        <ele>138</ele>
        <time>2016-05-06T10:16:49Z</time>
      </trkpt>
      <trkpt lat="50.67957" lon="2.03989">
        <ele>138.7</ele>
        <time>2016-05-06T10:16:52Z</time>
      </trkpt>
      <trkpt lat="50.67963" lon="2.03976">
        <ele>139.5</ele>
        <time>2016-05-06T10:16:55Z</time>
      </trkpt>
      <trkpt lat="50.67966" lon="2.03962">
        <ele>140.2</ele>
        <time>2016-05-06T10:16:58Z</time>
      </trkpt>
      <trkpt lat="50.67969" lon="2.03946">
        <ele>141.1</ele>
        <time>2016-05-06T10:17:01Z</time>
      </trkpt>
      <trkpt lat="50.67971" lon="2.0393">
        <ele>141.9</ele>
        <time>2016-05-06T10:17:04Z</time>
      </trkpt>
      <trkpt lat="50.67972" lon="2.03913">
        <ele>142.6</ele>
        <time>2016-05-06T10:17:07Z</time>
      </trkpt>
      <trkpt lat="50.67974" lon="2.03897">
        <ele>143.4</ele>
        <time>2016-05-06T10:17:10Z</time>
      </trkpt>
      <trkpt lat="50.67976" lon="2.0388">
        <ele>144.3</ele>
        <time>2016-05-06T10:17:13Z</time>
      </trkpt>
      <trkpt lat="50.67978" lon="2.03864">
        <ele>145</ele>
        <time>2016-05-06T10:17:16Z</time>
      </trkpt>
      <trkpt lat="50.6798" lon="2.03849">
        <ele>145.7</ele>
        <time>2016-05-06T10:17:19Z</time>
      </trkpt>
      <trkpt lat="50.67981" lon="2.03834">
        <ele>146.4</ele>
        <time>2016-05-06T10:17:22Z</time>
      </trkpt>
      <trkpt lat="50.67983" lon="2.03819">
        <ele>147.1</ele>
        <time>2016-05-06T10:17:25Z</time>
      </trkpt>
      <trkpt lat="50.67984" lon="2.03804">
        <ele>147.8</ele>
        <time>2016-05-06T10:17:28Z</time>
      </trkpt>
      <trkpt lat="50.67986" lon="2.03789">
        <ele>148.4</ele>
        <time>2016-05-06T10:17:31Z</time>
      </trkpt>
      <trkpt lat="50.67987" lon="2.03774">
        <ele>149.1</ele>
        <time>2016-05-06T10:17:34Z</time>
      </trkpt>
      <trkpt lat="50.67988" lon="2.0376">
        <ele>149.8</ele>
        <time>2016-05-06T10:17:37Z</time>
      </trkpt>
      <trkpt lat="50.6799" lon="2.03746">
        <ele>150.4</ele>
        <time>2016-05-06T10:17:40Z</time>
      </trkpt>
      <trkpt lat="50.67991" lon="2.03731">
        <ele>151.2</ele>
        <time>2016-05-06T10:17:43Z</time>
      </trkpt>
      <trkpt lat="50.67992" lon="2.03717">
        <ele>151.8</ele>
        <time>2016-05-06T10:17:46Z</time>
      </trkpt>
      <trkpt lat="50.67993" lon="2.03702">
        <ele>152.5</ele>
        <time>2016-05-06T10:17:49Z</time>
      </trkpt>
      <trkpt lat="50.67995" lon="2.03688">
        <ele>153.2</ele>
        <time>2016-05-06T10:17:52Z</time>
      </trkpt>
      <trkpt lat="50.67997" lon="2.03674">
        <ele>154</ele>
        <time>2016-05-06T10:17:55Z</time>
      </trkpt>
      <trkpt lat="50.67999" lon="2.03659">
        <ele>154.7</ele>
        <time>2016-05-06T10:17:58Z</time>
      </trkpt>
      <trkpt lat="50.68001" lon="2.03644">
        <ele>155.3</ele>
        <time>2016-05-06T10:18:01Z</time>
      </trkpt>
      <trkpt lat="50.68003" lon="2.03629">
        <ele>156.1</ele>
        <time>2016-05-06T10:18:04Z</time>
      </trkpt>
      <trkpt lat="50.68005" lon="2.03614">
        <ele>156.8</ele>
        <time>2016-05-06T10:18:07Z</time>
      </trkpt>
      <trkpt lat="50.68008" lon="2.036">
        <ele>157.5</ele>
        <time>2016-05-06T10:18:10Z</time>
      </trkpt>
      <trkpt lat="50.6801" lon="2.03585">
        <ele>158.2</ele>
        <time>2016-05-06T10:18:13Z</time>
      </trkpt>
      <trkpt lat="50.68012" lon="2.03572">
        <ele>158.9</ele>
        <time>2016-05-06T10:18:16Z</time>
      </trkpt>
      <trkpt lat="50.68015" lon="2.03553">
        <ele>160</ele>
        <time>2016-05-06T10:18:20Z</time>
      </trkpt>
      <trkpt lat="50.68018" lon="2.03536">
        <ele>160.9</ele>
        <time>2016-05-06T10:18:24Z</time>
      </trkpt>
      <trkpt lat="50.68022" lon="2.03518">
        <ele>161.9</ele>
        <time>2016-05-06T10:18:28Z</time>
      </trkpt>
      <trkpt lat="50.68028" lon="2.03502">
        <ele>162.9</ele>
        <time>2016-05-06T10:18:32Z</time>
      </trkpt>
      <trkpt lat="50.68036" lon="2.03489">
        <ele>163.9</ele>
        <time>2016-05-06T10:18:36Z</time>
      </trkpt>
      <trkpt lat="50.68045" lon="2.03479">
        <ele>165</ele>
        <time>2016-05-06T10:18:40Z</time>
      </trkpt>
      <trkpt lat="50.68053" lon="2.03472">
        <ele>165.8</ele>
        <time>2016-05-06T10:18:43Z</time>
      </trkpt>
      <trkpt lat="50.68064" lon="2.03464">
        <ele>166.9</ele>
        <time>2016-05-06T10:18:47Z</time>
      </trkpt>
      <trkpt lat="50.68071" lon="2.03457">
        <ele>167.7</ele>
        <time>2016-05-06T10:18:50Z</time>
      </trkpt>
      <trkpt lat="50.68079" lon="2.03449">
        <ele>168.5</ele>
        <time>2016-05-06T10:18:53Z</time>
      </trkpt>
      <trkpt lat="50.68087" lon="2.03441">
        <ele>169.2</ele>
        <time>2016-05-06T10:18:56Z</time>
      </trkpt>
      <trkpt lat="50.68097" lon="2.03433">
        <ele>170.2</ele>
        <time>2016-05-06T10:19:00Z</time>
      </trkpt>
      <trkpt lat="50.68106" lon="2.03427">
        <ele>171</ele>
        <time>2016-05-06T10:19:03Z</time>
      </trkpt>
      <trkpt lat="50.68116" lon="2.03417">
        <ele>172.1</ele>
        <time>2016-05-06T10:19:07Z</time>
      </trkpt>
      <trkpt lat="50.68122" lon="2.03407">
        <ele>172.8</ele>
        <time>2016-05-06T10:19:10Z</time>
      </trkpt>
      <trkpt lat="50.68131" lon="2.03394">
        <ele>173.8</ele>
        <time>2016-05-06T10:19:14Z</time>
      </trkpt>
      <trkpt lat="50.68138" lon="2.03384">
        <ele>174.5</ele>
        <time>2016-05-06T10:19:17Z</time>
      </trkpt>
      <trkpt lat="50.68146" lon="2.03375">
        <ele>175.2</ele>
        <time>2016-05-06T10:19:20Z</time>
      </trkpt>
      <trkpt lat="50.68154" lon="2.03365">
        <ele>175.8</ele>
        <time>2016-05-06T10:19:23Z</time>
      </trkpt>
      <trkpt lat="50.68164" lon="2.03354">
        <ele>176.4</ele>
        <time>2016-05-06T10:19:26Z</time>
      </trkpt>
      <trkpt lat="50.68174" lon="2.03341">
        <ele>177.1</ele>
        <time>2016-05-06T10:19:29Z</time>
      </trkpt>
      <trkpt lat="50.68181" lon="2.03333">
        <ele>177.5</ele>
        <time>2016-05-06T10:19:31Z</time>
      </trkpt>
      <trkpt lat="50.68189" lon="2.03325">
        <ele>177.8</ele>
        <time>2016-05-06T10:19:33Z</time>
      </trkpt>
      <trkpt lat="50.68198" lon="2.03318">
        <ele>178.1</ele>
        <time>2016-05-06T10:19:35Z</time>
      </trkpt>
      <trkpt lat="50.68208" lon="2.03311">
        <ele>178.4</ele>
        <time>2016-05-06T10:19:37Z</time>
      </trkpt>
      <trkpt lat="50.68219" lon="2.03302">
        <ele>178.7</ele>
        <time>2016-05-06T10:19:39Z</time>
      </trkpt>
      <trkpt lat="50.68231" lon="2.03293">
        <ele>178.9</ele>
        <time>2016-05-06T10:19:41Z</time>
      </trkpt>
      <trkpt lat="50.68243" lon="2.03285">
        <ele>179.1</ele>
        <time>2016-05-06T10:19:43Z</time>
      </trkpt>
      <trkpt lat="50.68255" lon="2.03277">
        <ele>179.1</ele>
        <time>2016-05-06T10:19:45Z</time>
      </trkpt>
      <trkpt lat="50.68268" lon="2.03268">
        <ele>179.1</ele>
        <time>2016-05-06T10:19:47Z</time>
      </trkpt>
      <trkpt lat="50.6828" lon="2.03259">
        <ele>179.1</ele>
        <time>2016-05-06T10:19:49Z</time>
      </trkpt>
      <trkpt lat="50.68292" lon="2.0325">
        <ele>179</ele>
        <time>2016-05-06T10:19:51Z</time>
      </trkpt>
      <trkpt lat="50.68305" lon="2.03242">
        <ele>178.9</ele>
        <time>2016-05-06T10:19:53Z</time>
      </trkpt>
      <trkpt lat="50.68317" lon="2.03233">
        <ele>178.8</ele>
        <time>2016-05-06T10:19:55Z</time>
      </trkpt>
      <trkpt lat="50.68329" lon="2.03224">
        <ele>178.7</ele>
        <time>2016-05-06T10:19:57Z</time>
      </trkpt>
      <trkpt lat="50.68342" lon="2.03215">
        <ele>178.6</ele>
        <time>2016-05-06T10:19:59Z</time>
      </trkpt>
      <trkpt lat="50.68354" lon="2.03206">
        <ele>178.5</ele>
        <time>2016-05-06T10:20:01Z</time>
      </trkpt>
      <trkpt lat="50.68365" lon="2.03198">
        <ele>178.5</ele>
        <time>2016-05-06T10:20:03Z</time>
      </trkpt>
      <trkpt lat="50.68375" lon="2.03191">
        <ele>178.5</ele>
        <time>2016-05-06T10:20:05Z</time>
      </trkpt>
      <trkpt lat="50.68385" lon="2.03186">
        <ele>178.6</ele>
        <time>2016-05-06T10:20:07Z</time>
      </trkpt>
      <trkpt lat="50.68394" lon="2.03181">
        <ele>178.8</ele>
        <time>2016-05-06T10:20:09Z</time>
      </trkpt>
      <trkpt lat="50.68403" lon="2.03178">
        <ele>178.9</ele>
        <time>2016-05-06T10:20:11Z</time>
      </trkpt>
      <trkpt lat="50.68413" lon="2.03175">
        <ele>179.2</ele>
        <time>2016-05-06T10:20:13Z</time>
      </trkpt>
      <trkpt lat="50.68422" lon="2.03174">
        <ele>179.5</ele>
        <time>2016-05-06T10:20:15Z</time>
      </trkpt>
      <trkpt lat="50.68432" lon="2.03175">
        <ele>179.7</ele>
        <time>2016-05-06T10:20:17Z</time>
      </trkpt>
      <trkpt lat="50.68442" lon="2.03175">
        <ele>180.1</ele>
        <time>2016-05-06T10:20:19Z</time>
      </trkpt>
      <trkpt lat="50.68453" lon="2.03176">
        <ele>180.5</ele>
        <time>2016-05-06T10:20:21Z</time>
      </trkpt>
      <trkpt lat="50.68464" lon="2.03178">
        <ele>180.8</ele>
        <time>2016-05-06T10:20:23Z</time>
      </trkpt>
      <trkpt lat="50.68476" lon="2.03179">
        <ele>181.2</ele>
        <time>2016-05-06T10:20:25Z</time>
      </trkpt>
      <trkpt lat="50.68487" lon="2.03178">
        <ele>181.6</ele>
        <time>2016-05-06T10:20:27Z</time>
      </trkpt>
      <trkpt lat="50.68498" lon="2.03176">
        <ele>181.9</ele>
        <time>2016-05-06T10:20:29Z</time>
      </trkpt>
      <trkpt lat="50.68509" lon="2.03172">
        <ele>182.2</ele>
        <time>2016-05-06T10:20:31Z</time>
      </trkpt>
      <trkpt lat="50.6852" lon="2.03168">
        <ele>182.5</ele>
        <time>2016-05-06T10:20:33Z</time>
      </trkpt>
      <trkpt lat="50.68532" lon="2.03164">
        <ele>182.7</ele>
        <time>2016-05-06T10:20:35Z</time>
      </trkpt>
      <trkpt lat="50.68543" lon="2.03158">
        <ele>182.9</ele>
        <time>2016-05-06T10:20:37Z</time>
      </trkpt>
      <trkpt lat="50.68556" lon="2.03153">
        <ele>183.1</ele>
        <time>2016-05-06T10:20:39Z</time>
      </trkpt>
      <trkpt lat="50.68569" lon="2.03146">
        <ele>183.2</ele>
        <time>2016-05-06T10:20:41Z</time>
      </trkpt>
      <trkpt lat="50.68583" lon="2.0314">
        <ele>183.2</ele>
        <time>2016-05-06T10:20:43Z</time>
      </trkpt>
      <trkpt lat="50.68599" lon="2.03132">
        <ele>183.1</ele>
        <time>2016-05-06T10:20:45Z</time>
      </trkpt>
      <trkpt lat="50.68616" lon="2.03124">
        <ele>182.8</ele>
        <time>2016-05-06T10:20:47Z</time>
      </trkpt>
      <trkpt lat="50.68625" lon="2.03117">
        <ele>182.7</ele>
        <time>2016-05-06T10:20:48Z</time>
      </trkpt>
      <trkpt lat="50.68633" lon="2.03109">
        <ele>182.5</ele>
        <time>2016-05-06T10:20:49Z</time>
      </trkpt>
      <trkpt lat="50.6864" lon="2.03097">
        <ele>182.3</ele>
        <time>2016-05-06T10:20:50Z</time>
      </trkpt>
      <trkpt lat="50.68645" lon="2.03084">
        <ele>182.1</ele>
        <time>2016-05-06T10:20:51Z</time>
      </trkpt>
      <trkpt lat="50.68648" lon="2.03068">
        <ele>181.6</ele>
        <time>2016-05-06T10:20:52Z</time>
      </trkpt>
      <trkpt lat="50.68649" lon="2.03051">
        <ele>181.3</ele>
        <time>2016-05-06T10:20:53Z</time>
      </trkpt>
      <trkpt lat="50.68647" lon="2.03034">
        <ele>180.9</ele>
        <time>2016-05-06T10:20:54Z</time>
      </trkpt>
      <trkpt lat="50.68643" lon="2.03017">
        <ele>180.5</ele>
        <time>2016-05-06T10:20:55Z</time>
      </trkpt>
      <trkpt lat="50.68639" lon="2.03">
        <ele>180.2</ele>
        <time>2016-05-06T10:20:56Z</time>
      </trkpt>
      <trkpt lat="50.68635" lon="2.02983">
        <ele>179.7</ele>
        <time>2016-05-06T10:20:57Z</time>
      </trkpt>
      <trkpt lat="50.68631" lon="2.02966">
        <ele>179.2</ele>
        <time>2016-05-06T10:20:58Z</time>
      </trkpt>
      <trkpt lat="50.68627" lon="2.02949">
        <ele>178.8</ele>
        <time>2016-05-06T10:20:59Z</time>
      </trkpt>
      <trkpt lat="50.68622" lon="2.02931">
        <ele>178.3</ele>
        <time>2016-05-06T10:21:00Z</time>
      </trkpt>
      <trkpt lat="50.68618" lon="2.02913">
        <ele>177.8</ele>
        <time>2016-05-06T10:21:01Z</time>
      </trkpt>
      <trkpt lat="50.68613" lon="2.02895">
        <ele>177.2</ele>
        <time>2016-05-06T10:21:02Z</time>
      </trkpt>
      <trkpt lat="50.68609" lon="2.02877">
        <ele>176.6</ele>
        <time>2016-05-06T10:21:03Z</time>
      </trkpt>
      <trkpt lat="50.68604" lon="2.02859">
        <ele>176.1</ele>
        <time>2016-05-06T10:21:04Z</time>
      </trkpt>
      <trkpt lat="50.68599" lon="2.02841">
        <ele>175.5</ele>
        <time>2016-05-06T10:21:05Z</time>
      </trkpt>
      <trkpt lat="50.68594" lon="2.02822">
        <ele>175</ele>
        <time>2016-05-06T10:21:06Z</time>
      </trkpt>
      <trkpt lat="50.68589" lon="2.02803">
        <ele>174.4</ele>
        <time>2016-05-06T10:21:07Z</time>
      </trkpt>
      <trkpt lat="50.68584" lon="2.02785">
        <ele>173.7</ele>
        <time>2016-05-06T10:21:08Z</time>
      </trkpt>
      <trkpt lat="50.68579" lon="2.02768">
        <ele>173</ele>
        <time>2016-05-06T10:21:09Z</time>
      </trkpt>
      <trkpt lat="50.68575" lon="2.02752">
        <ele>172.3</ele>
        <time>2016-05-06T10:21:10Z</time>
      </trkpt>
      <trkpt lat="50.68573" lon="2.02736">
        <ele>171.6</ele>
        <time>2016-05-06T10:21:11Z</time>
      </trkpt>
      <trkpt lat="50.68575" lon="2.0272">
        <ele>170.9</ele>
        <time>2016-05-06T10:21:12Z</time>
      </trkpt>
      <trkpt lat="50.6858" lon="2.02706">
        <ele>170.2</ele>
        <time>2016-05-06T10:21:13Z</time>
      </trkpt>
      <trkpt lat="50.68587" lon="2.02696">
        <ele>169.6</ele>
        <time>2016-05-06T10:21:14Z</time>
      </trkpt>
      <trkpt lat="50.68596" lon="2.02691">
        <ele>168.9</ele>
        <time>2016-05-06T10:21:15Z</time>
      </trkpt>
      <trkpt lat="50.68606" lon="2.02693">
        <ele>168.2</ele>
        <time>2016-05-06T10:21:16Z</time>
      </trkpt>
      <trkpt lat="50.68616" lon="2.02697">
        <ele>167.4</ele>
        <time>2016-05-06T10:21:17Z</time>
      </trkpt>
      <trkpt lat="50.68626" lon="2.02703">
        <ele>166.7</ele>
        <time>2016-05-06T10:21:18Z</time>
      </trkpt>
      <trkpt lat="50.68636" lon="2.02711">
        <ele>165.9</ele>
        <time>2016-05-06T10:21:19Z</time>
      </trkpt>
      <trkpt lat="50.68645" lon="2.02718">
        <ele>165.2</ele>
        <time>2016-05-06T10:21:20Z</time>
      </trkpt>
      <trkpt lat="50.68655" lon="2.02726">
        <ele>164.4</ele>
        <time>2016-05-06T10:21:21Z</time>
      </trkpt>
      <trkpt lat="50.68665" lon="2.02733">
        <ele>163.7</ele>
        <time>2016-05-06T10:21:22Z</time>
      </trkpt>
      <trkpt lat="50.68676" lon="2.0274">
        <ele>162.9</ele>
        <time>2016-05-06T10:21:23Z</time>
      </trkpt>
      <trkpt lat="50.68687" lon="2.02748">
        <ele>162.2</ele>
        <time>2016-05-06T10:21:24Z</time>
      </trkpt>
      <trkpt lat="50.68698" lon="2.02755">
        <ele>161.4</ele>
        <time>2016-05-06T10:21:25Z</time>
      </trkpt>
      <trkpt lat="50.68709" lon="2.02762">
        <ele>160.6</ele>
        <time>2016-05-06T10:21:26Z</time>
      </trkpt>
      <trkpt lat="50.6872" lon="2.0277">
        <ele>159.8</ele>
        <time>2016-05-06T10:21:27Z</time>
      </trkpt>
      <trkpt lat="50.68731" lon="2.02777">
        <ele>159.1</ele>
        <time>2016-05-06T10:21:28Z</time>
      </trkpt>
      <trkpt lat="50.68743" lon="2.02785">
        <ele>158.1</ele>
        <time>2016-05-06T10:21:29Z</time>
      </trkpt>
      <trkpt lat="50.68754" lon="2.02793">
        <ele>157.2</ele>
        <time>2016-05-06T10:21:30Z</time>
      </trkpt>
      <trkpt lat="50.68766" lon="2.028">
        <ele>156.3</ele>
        <time>2016-05-06T10:21:31Z</time>
      </trkpt>
      <trkpt lat="50.68778" lon="2.02808">
        <ele>155.4</ele>
        <time>2016-05-06T10:21:32Z</time>
      </trkpt>
      <trkpt lat="50.6879" lon="2.02815">
        <ele>154.5</ele>
        <time>2016-05-06T10:21:33Z</time>
      </trkpt>
      <trkpt lat="50.68801" lon="2.02823">
        <ele>153.7</ele>
        <time>2016-05-06T10:21:34Z</time>
      </trkpt>
      <trkpt lat="50.68813" lon="2.02831">
        <ele>152.8</ele>
        <time>2016-05-06T10:21:35Z</time>
      </trkpt>
      <trkpt lat="50.68825" lon="2.02839">
        <ele>152</ele>
        <time>2016-05-06T10:21:36Z</time>
      </trkpt>
      <trkpt lat="50.68837" lon="2.02846">
        <ele>150.9</ele>
        <time>2016-05-06T10:21:37Z</time>
      </trkpt>
      <trkpt lat="50.68849" lon="2.02852">
        <ele>149.2</ele>
        <time>2016-05-06T10:21:38Z</time>
      </trkpt>
      <trkpt lat="50.68862" lon="2.02856">
        <ele>148.3</ele>
        <time>2016-05-06T10:21:39Z</time>
      </trkpt>
      <trkpt lat="50.68875" lon="2.02856">
        <ele>147.5</ele>
        <time>2016-05-06T10:21:40Z</time>
      </trkpt>
      <trkpt lat="50.68888" lon="2.02852">
        <ele>146.6</ele>
        <time>2016-05-06T10:21:41Z</time>
      </trkpt>
      <trkpt lat="50.689" lon="2.02845">
        <ele>145.7</ele>
        <time>2016-05-06T10:21:42Z</time>
      </trkpt>
      <trkpt lat="50.68912" lon="2.02834">
        <ele>144.8</ele>
        <time>2016-05-06T10:21:43Z</time>
      </trkpt>
      <trkpt lat="50.68922" lon="2.02821">
        <ele>143.9</ele>
        <time>2016-05-06T10:21:44Z</time>
      </trkpt>
      <trkpt lat="50.68932" lon="2.02807">
        <ele>143</ele>
        <time>2016-05-06T10:21:45Z</time>
      </trkpt>
      <trkpt lat="50.68941" lon="2.02792">
        <ele>142</ele>
        <time>2016-05-06T10:21:46Z</time>
      </trkpt>
      <trkpt lat="50.68951" lon="2.02778">
        <ele>141</ele>
        <time>2016-05-06T10:21:47Z</time>
      </trkpt>
      <trkpt lat="50.68962" lon="2.02765">
        <ele>139.9</ele>
        <time>2016-05-06T10:21:48Z</time>
      </trkpt>
      <trkpt lat="50.68973" lon="2.02753">
        <ele>138.8</ele>
        <time>2016-05-06T10:21:49Z</time>
      </trkpt>
      <trkpt lat="50.68986" lon="2.02743">
        <ele>137.9</ele>
        <time>2016-05-06T10:21:50Z</time>
      </trkpt>
      <trkpt lat="50.68998" lon="2.02735">
        <ele>136.9</ele>
        <time>2016-05-06T10:21:51Z</time>
      </trkpt>
      <trkpt lat="50.69011" lon="2.02728">
        <ele>136</ele>
        <time>2016-05-06T10:21:52Z</time>
      </trkpt>
      <trkpt lat="50.69024" lon="2.02721">
        <ele>135</ele>
        <time>2016-05-06T10:21:53Z</time>
      </trkpt>
      <trkpt lat="50.69037" lon="2.02714">
        <ele>134.1</ele>
        <time>2016-05-06T10:21:54Z</time>
      </trkpt>
      <trkpt lat="50.6905" lon="2.02707">
        <ele>133.2</ele>
        <time>2016-05-06T10:21:55Z</time>
      </trkpt>
      <trkpt lat="50.69063" lon="2.027">
        <ele>132.2</ele>
        <time>2016-05-06T10:21:56Z</time>
      </trkpt>
      <trkpt lat="50.69075" lon="2.02693">
        <ele>131.2</ele>
        <time>2016-05-06T10:21:57Z</time>
      </trkpt>
      <trkpt lat="50.69088" lon="2.02688">
        <ele>130.3</ele>
        <time>2016-05-06T10:21:58Z</time>
      </trkpt>
      <trkpt lat="50.69099" lon="2.02684">
        <ele>129.4</ele>
        <time>2016-05-06T10:21:59Z</time>
      </trkpt>
      <trkpt lat="50.6911" lon="2.02683">
        <ele>128.6</ele>
        <time>2016-05-06T10:22:00Z</time>
      </trkpt>
      <trkpt lat="50.6912" lon="2.02684">
        <ele>127.9</ele>
        <time>2016-05-06T10:22:01Z</time>
      </trkpt>
      <trkpt lat="50.69129" lon="2.02688">
        <ele>127.3</ele>
        <time>2016-05-06T10:22:02Z</time>
      </trkpt>
      <trkpt lat="50.69145" lon="2.02698">
        <ele>126.2</ele>
        <time>2016-05-06T10:22:04Z</time>
      </trkpt>
      <trkpt lat="50.69155" lon="2.02711">
        <ele>125.4</ele>
        <time>2016-05-06T10:22:06Z</time>
      </trkpt>
      <trkpt lat="50.69164" lon="2.02724">
        <ele>124.8</ele>
        <time>2016-05-06T10:22:08Z</time>
      </trkpt>
      <trkpt lat="50.69171" lon="2.02736">
        <ele>124.5</ele>
        <time>2016-05-06T10:22:10Z</time>
      </trkpt>
      <trkpt lat="50.69177" lon="2.02746">
        <ele>124.3</ele>
        <time>2016-05-06T10:22:12Z</time>
      </trkpt>
      <trkpt lat="50.69186" lon="2.02762">
        <ele>124.1</ele>
        <time>2016-05-06T10:22:15Z</time>
      </trkpt>
      <trkpt lat="50.69195" lon="2.02775">
        <ele>124</ele>
        <time>2016-05-06T10:22:18Z</time>
      </trkpt>
      <trkpt lat="50.69203" lon="2.02788">
        <ele>124.1</ele>
        <time>2016-05-06T10:22:21Z</time>
      </trkpt>
      <trkpt lat="50.6921" lon="2.028">
        <ele>124.3</ele>
        <time>2016-05-06T10:22:24Z</time>
      </trkpt>
      <trkpt lat="50.69218" lon="2.02812">
        <ele>124.6</ele>
        <time>2016-05-06T10:22:27Z</time>
      </trkpt>
      <trkpt lat="50.69225" lon="2.02824">
        <ele>125</ele>
        <time>2016-05-06T10:22:30Z</time>
      </trkpt>
      <trkpt lat="50.69232" lon="2.02836">
        <ele>125.4</ele>
        <time>2016-05-06T10:22:33Z</time>
      </trkpt>
      <trkpt lat="50.69239" lon="2.02847">
        <ele>125.8</ele>
        <time>2016-05-06T10:22:36Z</time>
      </trkpt>
      <trkpt lat="50.69247" lon="2.02858">
        <ele>126.2</ele>
        <time>2016-05-06T10:22:39Z</time>
      </trkpt>
      <trkpt lat="50.69257" lon="2.02865">
        <ele>126.8</ele>
        <time>2016-05-06T10:22:42Z</time>
      </trkpt>
      <trkpt lat="50.69266" lon="2.02867">
        <ele>127.4</ele>
        <time>2016-05-06T10:22:45Z</time>
      </trkpt>
      <trkpt lat="50.69276" lon="2.02864">
        <ele>128.1</ele>
        <time>2016-05-06T10:22:48Z</time>
      </trkpt>
      <trkpt lat="50.69285" lon="2.02855">
        <ele>128.8</ele>
        <time>2016-05-06T10:22:51Z</time>
      </trkpt>
      <trkpt lat="50.69292" lon="2.02842">
        <ele>129.6</ele>
        <time>2016-05-06T10:22:54Z</time>
      </trkpt>
      <trkpt lat="50.69298" lon="2.02829">
        <ele>130.3</ele>
        <time>2016-05-06T10:22:57Z</time>
      </trkpt>
      <trkpt lat="50.69305" lon="2.02815">
        <ele>131</ele>
        <time>2016-05-06T10:23:00Z</time>
      </trkpt>
      <trkpt lat="50.69313" lon="2.02803">
        <ele>131.8</ele>
        <time>2016-05-06T10:23:03Z</time>
      </trkpt>
      <trkpt lat="50.69321" lon="2.02793">
        <ele>132.7</ele>
        <time>2016-05-06T10:23:06Z</time>
      </trkpt>
      <trkpt lat="50.69331" lon="2.02786">
        <ele>133.5</ele>
        <time>2016-05-06T10:23:09Z</time>
      </trkpt>
      <trkpt lat="50.6934" lon="2.02781">
        <ele>134.2</ele>
        <time>2016-05-06T10:23:12Z</time>
      </trkpt>
      <trkpt lat="50.69351" lon="2.02774">
        <ele>134.9</ele>
        <time>2016-05-06T10:23:15Z</time>
      </trkpt>
      <trkpt lat="50.69361" lon="2.02768">
        <ele>135.7</ele>
        <time>2016-05-06T10:23:18Z</time>
      </trkpt>
      <trkpt lat="50.69372" lon="2.02761">
        <ele>136.6</ele>
        <time>2016-05-06T10:23:21Z</time>
      </trkpt>
      <trkpt lat="50.69384" lon="2.02754">
        <ele>137.3</ele>
        <time>2016-05-06T10:23:24Z</time>
      </trkpt>
      <trkpt lat="50.69395" lon="2.02747">
        <ele>138</ele>
        <time>2016-05-06T10:23:27Z</time>
      </trkpt>
      <trkpt lat="50.69407" lon="2.02738">
        <ele>138.9</ele>
        <time>2016-05-06T10:23:30Z</time>
      </trkpt>
      <trkpt lat="50.69416" lon="2.02733">
        <ele>139.4</ele>
        <time>2016-05-06T10:23:32Z</time>
      </trkpt>
      <trkpt lat="50.69425" lon="2.02727">
        <ele>139.8</ele>
        <time>2016-05-06T10:23:34Z</time>
      </trkpt>
      <trkpt lat="50.69434" lon="2.0272">
        <ele>140.2</ele>
        <time>2016-05-06T10:23:36Z</time>
      </trkpt>
      <trkpt lat="50.69444" lon="2.02713">
        <ele>140.5</ele>
        <time>2016-05-06T10:23:38Z</time>
      </trkpt>
      <trkpt lat="50.69454" lon="2.02705">
        <ele>140.9</ele>
        <time>2016-05-06T10:23:40Z</time>
      </trkpt>
      <trkpt lat="50.69464" lon="2.02697">
        <ele>141.3</ele>
        <time>2016-05-06T10:23:42Z</time>
      </trkpt>
      <trkpt lat="50.69475" lon="2.0269">
        <ele>141.6</ele>
        <time>2016-05-06T10:23:44Z</time>
      </trkpt>
      <trkpt lat="50.69486" lon="2.02682">
        <ele>141.8</ele>
        <time>2016-05-06T10:23:46Z</time>
      </trkpt>
      <trkpt lat="50.69498" lon="2.02673">
        <ele>142.1</ele>
        <time>2016-05-06T10:23:48Z</time>
      </trkpt>
      <trkpt lat="50.69511" lon="2.02664">
        <ele>142.2</ele>
        <time>2016-05-06T10:23:50Z</time>
      </trkpt>
      <trkpt lat="50.69523" lon="2.02656">
        <ele>142.3</ele>
        <time>2016-05-06T10:23:52Z</time>
      </trkpt>
      <trkpt lat="50.69535" lon="2.02647">
        <ele>142.4</ele>
        <time>2016-05-06T10:23:54Z</time>
      </trkpt>
      <trkpt lat="50.69548" lon="2.0264">
        <ele>142.5</ele>
        <time>2016-05-06T10:23:56Z</time>
      </trkpt>
      <trkpt lat="50.69562" lon="2.02632">
        <ele>142.5</ele>
        <time>2016-05-06T10:23:58Z</time>
      </trkpt>
      <trkpt lat="50.69576" lon="2.02626">
        <ele>142.6</ele>
        <time>2016-05-06T10:24:00Z</time>
      </trkpt>
      <trkpt lat="50.6959" lon="2.02619">
        <ele>142.6</ele>
        <time>2016-05-06T10:24:02Z</time>
      </trkpt>
      <trkpt lat="50.69606" lon="2.02612">
        <ele>142.5</ele>
        <time>2016-05-06T10:24:04Z</time>
      </trkpt>
      <trkpt lat="50.69615" lon="2.02607">
        <ele>142.3</ele>
        <time>2016-05-06T10:24:05Z</time>
      </trkpt>
      <trkpt lat="50.69623" lon="2.02602">
        <ele>142.1</ele>
        <time>2016-05-06T10:24:06Z</time>
      </trkpt>
      <trkpt lat="50.69632" lon="2.02595">
        <ele>141.9</ele>
        <time>2016-05-06T10:24:07Z</time>
      </trkpt>
      <trkpt lat="50.69641" lon="2.02588">
        <ele>141.6</ele>
        <time>2016-05-06T10:24:08Z</time>
      </trkpt>
      <trkpt lat="50.6965" lon="2.0258">
        <ele>141.3</ele>
        <time>2016-05-06T10:24:09Z</time>
      </trkpt>
      <trkpt lat="50.69659" lon="2.02571">
        <ele>141</ele>
        <time>2016-05-06T10:24:10Z</time>
      </trkpt>
      <trkpt lat="50.69669" lon="2.02563">
        <ele>140.6</ele>
        <time>2016-05-06T10:24:11Z</time>
      </trkpt>
      <trkpt lat="50.6968" lon="2.02554">
        <ele>140.1</ele>
        <time>2016-05-06T10:24:12Z</time>
      </trkpt>
      <trkpt lat="50.69691" lon="2.02547">
        <ele>139.6</ele>
        <time>2016-05-06T10:24:13Z</time>
      </trkpt>
      <trkpt lat="50.69703" lon="2.0254">
        <ele>139.1</ele>
        <time>2016-05-06T10:24:14Z</time>
      </trkpt>
      <trkpt lat="50.69715" lon="2.02535">
        <ele>138.6</ele>
        <time>2016-05-06T10:24:15Z</time>
      </trkpt>
      <trkpt lat="50.69727" lon="2.0253">
        <ele>138.1</ele>
        <time>2016-05-06T10:24:16Z</time>
      </trkpt>
      <trkpt lat="50.69738" lon="2.02526">
        <ele>137.5</ele>
        <time>2016-05-06T10:24:17Z</time>
      </trkpt>
      <trkpt lat="50.69749" lon="2.02522">
        <ele>137.1</ele>
        <time>2016-05-06T10:24:18Z</time>
      </trkpt>
      <trkpt lat="50.69759" lon="2.02518">
        <ele>136.7</ele>
        <time>2016-05-06T10:24:19Z</time>
      </trkpt>
      <trkpt lat="50.69768" lon="2.02515">
        <ele>136.3</ele>
        <time>2016-05-06T10:24:20Z</time>
      </trkpt>
      <trkpt lat="50.69784" lon="2.02509">
        <ele>135.6</ele>
        <time>2016-05-06T10:24:22Z</time>
      </trkpt>
      <trkpt lat="50.69798" lon="2.02503">
        <ele>135.2</ele>
        <time>2016-05-06T10:24:24Z</time>
      </trkpt>
      <trkpt lat="50.6981" lon="2.02499">
        <ele>134.9</ele>
        <time>2016-05-06T10:24:26Z</time>
      </trkpt>
      <trkpt lat="50.69821" lon="2.02495">
        <ele>134.7</ele>
        <time>2016-05-06T10:24:28Z</time>
      </trkpt>
      <trkpt lat="50.69832" lon="2.02492">
        <ele>134.6</ele>
        <time>2016-05-06T10:24:30Z</time>
      </trkpt>
      <trkpt lat="50.69842" lon="2.02488">
        <ele>134.7</ele>
        <time>2016-05-06T10:24:32Z</time>
      </trkpt>
      <trkpt lat="50.69853" lon="2.02484">
        <ele>134.8</ele>
        <time>2016-05-06T10:24:34Z</time>
      </trkpt>
      <trkpt lat="50.69864" lon="2.02481">
        <ele>134.9</ele>
        <time>2016-05-06T10:24:36Z</time>
      </trkpt>
      <trkpt lat="50.69875" lon="2.02477">
        <ele>135.1</ele>
        <time>2016-05-06T10:24:38Z</time>
      </trkpt>
      <trkpt lat="50.69886" lon="2.02473">
        <ele>135.3</ele>
        <time>2016-05-06T10:24:40Z</time>
      </trkpt>
      <trkpt lat="50.69897" lon="2.02469">
        <ele>135.6</ele>
        <time>2016-05-06T10:24:42Z</time>
      </trkpt>
      <trkpt lat="50.69908" lon="2.02465">
        <ele>135.8</ele>
        <time>2016-05-06T10:24:44Z</time>
      </trkpt>
      <trkpt lat="50.69919" lon="2.0246">
        <ele>136</ele>
        <time>2016-05-06T10:24:46Z</time>
      </trkpt>
      <trkpt lat="50.69931" lon="2.02456">
        <ele>136.2</ele>
        <time>2016-05-06T10:24:48Z</time>
      </trkpt>
      <trkpt lat="50.69943" lon="2.02452">
        <ele>136.5</ele>
        <time>2016-05-06T10:24:50Z</time>
      </trkpt>
      <trkpt lat="50.69955" lon="2.02447">
        <ele>136.7</ele>
        <time>2016-05-06T10:24:52Z</time>
      </trkpt>
      <trkpt lat="50.69967" lon="2.02443">
        <ele>136.9</ele>
        <time>2016-05-06T10:24:54Z</time>
      </trkpt>
      <trkpt lat="50.69979" lon="2.02438">
        <ele>137.1</ele>
        <time>2016-05-06T10:24:56Z</time>
      </trkpt>
      <trkpt lat="50.69992" lon="2.02434">
        <ele>137.2</ele>
        <time>2016-05-06T10:24:58Z</time>
      </trkpt>
      <trkpt lat="50.70004" lon="2.0243">
        <ele>137.4</ele>
        <time>2016-05-06T10:25:00Z</time>
      </trkpt>
      <trkpt lat="50.70017" lon="2.02425">
        <ele>137.5</ele>
        <time>2016-05-06T10:25:02Z</time>
      </trkpt>
      <trkpt lat="50.7003" lon="2.0242">
        <ele>137.6</ele>
        <time>2016-05-06T10:25:04Z</time>
      </trkpt>
      <trkpt lat="50.70042" lon="2.02415">
        <ele>137.6</ele>
        <time>2016-05-06T10:25:06Z</time>
      </trkpt>
      <trkpt lat="50.70054" lon="2.02408">
        <ele>137.7</ele>
        <time>2016-05-06T10:25:08Z</time>
      </trkpt>
      <trkpt lat="50.70066" lon="2.02399">
        <ele>137.7</ele>
        <time>2016-05-06T10:25:10Z</time>
      </trkpt>
      <trkpt lat="50.70077" lon="2.02387">
        <ele>137.8</ele>
        <time>2016-05-06T10:25:12Z</time>
      </trkpt>
      <trkpt lat="50.70089" lon="2.02374">
        <ele>137.8</ele>
        <time>2016-05-06T10:25:14Z</time>
      </trkpt>
      <trkpt lat="50.701" lon="2.0236">
        <ele>137.7</ele>
        <time>2016-05-06T10:25:16Z</time>
      </trkpt>
      <trkpt lat="50.70112" lon="2.02345">
        <ele>137.5</ele>
        <time>2016-05-06T10:25:18Z</time>
      </trkpt>
      <trkpt lat="50.70124" lon="2.0233">
        <ele>137.4</ele>
        <time>2016-05-06T10:25:20Z</time>
      </trkpt>
      <trkpt lat="50.70136" lon="2.02316">
        <ele>137.2</ele>
        <time>2016-05-06T10:25:22Z</time>
      </trkpt>
      <trkpt lat="50.70148" lon="2.02302">
        <ele>137.1</ele>
        <time>2016-05-06T10:25:24Z</time>
      </trkpt>
      <trkpt lat="50.70159" lon="2.02288">
        <ele>137</ele>
        <time>2016-05-06T10:25:26Z</time>
      </trkpt>
      <trkpt lat="50.70171" lon="2.02274">
        <ele>136.8</ele>
        <time>2016-05-06T10:25:28Z</time>
      </trkpt>
      <trkpt lat="50.70183" lon="2.02261">
        <ele>136.6</ele>
        <time>2016-05-06T10:25:30Z</time>
      </trkpt>
      <trkpt lat="50.70197" lon="2.0225">
        <ele>136.4</ele>
        <time>2016-05-06T10:25:32Z</time>
      </trkpt>
      <trkpt lat="50.70213" lon="2.02241">
        <ele>136.2</ele>
        <time>2016-05-06T10:25:34Z</time>
      </trkpt>
      <trkpt lat="50.70222" lon="2.02237">
        <ele>136</ele>
        <time>2016-05-06T10:25:35Z</time>
      </trkpt>
      <trkpt lat="50.70231" lon="2.02235">
        <ele>135.8</ele>
        <time>2016-05-06T10:25:36Z</time>
      </trkpt>
      <trkpt lat="50.70241" lon="2.02233">
        <ele>135.6</ele>
        <time>2016-05-06T10:25:37Z</time>
      </trkpt>
      <trkpt lat="50.70251" lon="2.02232">
        <ele>135.3</ele>
        <time>2016-05-06T10:25:38Z</time>
      </trkpt>
      <trkpt lat="50.70262" lon="2.02232">
        <ele>134.9</ele>
        <time>2016-05-06T10:25:39Z</time>
      </trkpt>
      <trkpt lat="50.70274" lon="2.02235">
        <ele>134.5</ele>
        <time>2016-05-06T10:25:40Z</time>
      </trkpt>
      <trkpt lat="50.70285" lon="2.02239">
        <ele>134</ele>
        <time>2016-05-06T10:25:41Z</time>
      </trkpt>
      <trkpt lat="50.70296" lon="2.02244">
        <ele>133.6</ele>
        <time>2016-05-06T10:25:42Z</time>
      </trkpt>
      <trkpt lat="50.70305" lon="2.02251">
        <ele>133</ele>
        <time>2016-05-06T10:25:43Z</time>
      </trkpt>
      <trkpt lat="50.70314" lon="2.02258">
        <ele>132.4</ele>
        <time>2016-05-06T10:25:44Z</time>
      </trkpt>
      <trkpt lat="50.70328" lon="2.02273">
        <ele>131.1</ele>
        <time>2016-05-06T10:25:46Z</time>
      </trkpt>
      <trkpt lat="50.7034" lon="2.02285">
        <ele>129.8</ele>
        <time>2016-05-06T10:25:48Z</time>
      </trkpt>
      <trkpt lat="50.7035" lon="2.02294">
        <ele>128.5</ele>
        <time>2016-05-06T10:25:50Z</time>
      </trkpt>
      <trkpt lat="50.70359" lon="2.02292">
        <ele>126.7</ele>
        <time>2016-05-06T10:25:53Z</time>
      </trkpt>
      <trkpt lat="50.70364" lon="2.02276">
        <ele>125.2</ele>
        <time>2016-05-06T10:25:56Z</time>
      </trkpt>
      <trkpt lat="50.70366" lon="2.0226">
        <ele>124.2</ele>
        <time>2016-05-06T10:25:58Z</time>
      </trkpt>
      <trkpt lat="50.70368" lon="2.02244">
        <ele>123.4</ele>
        <time>2016-05-06T10:26:00Z</time>
      </trkpt>
      <trkpt lat="50.7037" lon="2.02226">
        <ele>122.7</ele>
        <time>2016-05-06T10:26:02Z</time>
      </trkpt>
      <trkpt lat="50.70373" lon="2.02208">
        <ele>122.1</ele>
        <time>2016-05-06T10:26:04Z</time>
      </trkpt>
      <trkpt lat="50.70375" lon="2.0219">
        <ele>121.5</ele>
        <time>2016-05-06T10:26:06Z</time>
      </trkpt>
      <trkpt lat="50.70377" lon="2.02171">
        <ele>121</ele>
        <time>2016-05-06T10:26:08Z</time>
      </trkpt>
      <trkpt lat="50.70381" lon="2.02152">
        <ele>120.6</ele>
        <time>2016-05-06T10:26:10Z</time>
      </trkpt>
      <trkpt lat="50.70384" lon="2.02133">
        <ele>120.2</ele>
        <time>2016-05-06T10:26:12Z</time>
      </trkpt>
      <trkpt lat="50.70389" lon="2.02113">
        <ele>119.9</ele>
        <time>2016-05-06T10:26:14Z</time>
      </trkpt>
      <trkpt lat="50.70394" lon="2.02094">
        <ele>119.6</ele>
        <time>2016-05-06T10:26:16Z</time>
      </trkpt>
      <trkpt lat="50.704" lon="2.02074">
        <ele>119.3</ele>
        <time>2016-05-06T10:26:18Z</time>
      </trkpt>
      <trkpt lat="50.70406" lon="2.02055">
        <ele>119.1</ele>
        <time>2016-05-06T10:26:20Z</time>
      </trkpt>
      <trkpt lat="50.70413" lon="2.02035">
        <ele>118.9</ele>
        <time>2016-05-06T10:26:22Z</time>
      </trkpt>
      <trkpt lat="50.70419" lon="2.02016">
        <ele>118.7</ele>
        <time>2016-05-06T10:26:24Z</time>
      </trkpt>
      <trkpt lat="50.70426" lon="2.01996">
        <ele>118.5</ele>
        <time>2016-05-06T10:26:26Z</time>
      </trkpt>
      <trkpt lat="50.70432" lon="2.01977">
        <ele>118.4</ele>
        <time>2016-05-06T10:26:28Z</time>
      </trkpt>
      <trkpt lat="50.70438" lon="2.01957">
        <ele>118.2</ele>
        <time>2016-05-06T10:26:30Z</time>
      </trkpt>
      <trkpt lat="50.70443" lon="2.01937">
        <ele>118.1</ele>
        <time>2016-05-06T10:26:32Z</time>
      </trkpt>
      <trkpt lat="50.70447" lon="2.01918">
        <ele>118</ele>
        <time>2016-05-06T10:26:34Z</time>
      </trkpt>
      <trkpt lat="50.70451" lon="2.01898">
        <ele>117.9</ele>
        <time>2016-05-06T10:26:36Z</time>
      </trkpt>
      <trkpt lat="50.70454" lon="2.01879">
        <ele>117.8</ele>
        <time>2016-05-06T10:26:38Z</time>
      </trkpt>
      <trkpt lat="50.70457" lon="2.0186">
        <ele>117.8</ele>
        <time>2016-05-06T10:26:40Z</time>
      </trkpt>
      <trkpt lat="50.70461" lon="2.01841">
        <ele>117.7</ele>
        <time>2016-05-06T10:26:42Z</time>
      </trkpt>
      <trkpt lat="50.70464" lon="2.01823">
        <ele>117.6</ele>
        <time>2016-05-06T10:26:44Z</time>
      </trkpt>
      <trkpt lat="50.70467" lon="2.01805">
        <ele>117.6</ele>
        <time>2016-05-06T10:26:46Z</time>
      </trkpt>
      <trkpt lat="50.70469" lon="2.01787">
        <ele>117.4</ele>
        <time>2016-05-06T10:26:48Z</time>
      </trkpt>
      <trkpt lat="50.70471" lon="2.01769">
        <ele>117.3</ele>
        <time>2016-05-06T10:26:50Z</time>
      </trkpt>
      <trkpt lat="50.70473" lon="2.0175">
        <ele>117.2</ele>
        <time>2016-05-06T10:26:52Z</time>
      </trkpt>
      <trkpt lat="50.70473" lon="2.01731">
        <ele>117.1</ele>
        <time>2016-05-06T10:26:54Z</time>
      </trkpt>
      <trkpt lat="50.70473" lon="2.01712">
        <ele>117</ele>
        <time>2016-05-06T10:26:56Z</time>
      </trkpt>
      <trkpt lat="50.70473" lon="2.01694">
        <ele>116.9</ele>
        <time>2016-05-06T10:26:58Z</time>
      </trkpt>
      <trkpt lat="50.70473" lon="2.01676">
        <ele>116.9</ele>
        <time>2016-05-06T10:27:00Z</time>
      </trkpt>
      <trkpt lat="50.70472" lon="2.01658">
        <ele>116.9</ele>
        <time>2016-05-06T10:27:02Z</time>
      </trkpt>
      <trkpt lat="50.70472" lon="2.01641">
        <ele>117</ele>
        <time>2016-05-06T10:27:04Z</time>
      </trkpt>
      <trkpt lat="50.70472" lon="2.01623">
        <ele>117</ele>
        <time>2016-05-06T10:27:06Z</time>
      </trkpt>
      <trkpt lat="50.70473" lon="2.01606">
        <ele>117.1</ele>
        <time>2016-05-06T10:27:08Z</time>
      </trkpt>
      <trkpt lat="50.70474" lon="2.01589">
        <ele>117.3</ele>
        <time>2016-05-06T10:27:10Z</time>
      </trkpt>
      <trkpt lat="50.70476" lon="2.01572">
        <ele>117.4</ele>
        <time>2016-05-06T10:27:12Z</time>
      </trkpt>
      <trkpt lat="50.70478" lon="2.01555">
        <ele>117.6</ele>
        <time>2016-05-06T10:27:14Z</time>
      </trkpt>
      <trkpt lat="50.70481" lon="2.01537">
        <ele>117.7</ele>
        <time>2016-05-06T10:27:16Z</time>
      </trkpt>
      <trkpt lat="50.70485" lon="2.01519">
        <ele>117.8</ele>
        <time>2016-05-06T10:27:18Z</time>
      </trkpt>
      <trkpt lat="50.70489" lon="2.01499">
        <ele>118.1</ele>
        <time>2016-05-06T10:27:20Z</time>
      </trkpt>
      <trkpt lat="50.70494" lon="2.0148">
        <ele>118.2</ele>
        <time>2016-05-06T10:27:22Z</time>
      </trkpt>
      <trkpt lat="50.70498" lon="2.01461">
        <ele>118.3</ele>
        <time>2016-05-06T10:27:24Z</time>
      </trkpt>
      <trkpt lat="50.70501" lon="2.01441">
        <ele>118.4</ele>
        <time>2016-05-06T10:27:26Z</time>
      </trkpt>
      <trkpt lat="50.70505" lon="2.01421">
        <ele>118.5</ele>
        <time>2016-05-06T10:27:28Z</time>
      </trkpt>
      <trkpt lat="50.70506" lon="2.01403">
        <ele>118.7</ele>
        <time>2016-05-06T10:27:30Z</time>
      </trkpt>
      <trkpt lat="50.70507" lon="2.01383">
        <ele>118.8</ele>
        <time>2016-05-06T10:27:32Z</time>
      </trkpt>
      <trkpt lat="50.70509" lon="2.01363">
        <ele>118.9</ele>
        <time>2016-05-06T10:27:34Z</time>
      </trkpt>
      <trkpt lat="50.70511" lon="2.01344">
        <ele>118.9</ele>
        <time>2016-05-06T10:27:36Z</time>
      </trkpt>
      <trkpt lat="50.70515" lon="2.01325">
        <ele>119</ele>
        <time>2016-05-06T10:27:38Z</time>
      </trkpt>
      <trkpt lat="50.70518" lon="2.01306">
        <ele>119.1</ele>
        <time>2016-05-06T10:27:40Z</time>
      </trkpt>
      <trkpt lat="50.70521" lon="2.01287">
        <ele>119.1</ele>
        <time>2016-05-06T10:27:42Z</time>
      </trkpt>
      <trkpt lat="50.70523" lon="2.01269">
        <ele>119.2</ele>
        <time>2016-05-06T10:27:44Z</time>
      </trkpt>
      <trkpt lat="50.70526" lon="2.0125">
        <ele>119.3</ele>
        <time>2016-05-06T10:27:46Z</time>
      </trkpt>
      <trkpt lat="50.70528" lon="2.01231">
        <ele>119.3</ele>
        <time>2016-05-06T10:27:48Z</time>
      </trkpt>
      <trkpt lat="50.70531" lon="2.01213">
        <ele>119.4</ele>
        <time>2016-05-06T10:27:50Z</time>
      </trkpt>
      <trkpt lat="50.70538" lon="2.01199">
        <ele>119.5</ele>
        <time>2016-05-06T10:27:52Z</time>
      </trkpt>
      <trkpt lat="50.70548" lon="2.0119">
        <ele>119.5</ele>
        <time>2016-05-06T10:27:54Z</time>
      </trkpt>
      <trkpt lat="50.70559" lon="2.01183">
        <ele>119.6</ele>
        <time>2016-05-06T10:27:56Z</time>
      </trkpt>
      <trkpt lat="50.7057" lon="2.01176">
        <ele>119.6</ele>
        <time>2016-05-06T10:27:58Z</time>
      </trkpt>
      <trkpt lat="50.70581" lon="2.01168">
        <ele>119.5</ele>
        <time>2016-05-06T10:28:00Z</time>
      </trkpt>
      <trkpt lat="50.70592" lon="2.0116">
        <ele>119.4</ele>
        <time>2016-05-06T10:28:02Z</time>
      </trkpt>
      <trkpt lat="50.70603" lon="2.01154">
        <ele>119.4</ele>
        <time>2016-05-06T10:28:04Z</time>
      </trkpt>
      <trkpt lat="50.70613" lon="2.01146">
        <ele>119.4</ele>
        <time>2016-05-06T10:28:06Z</time>
      </trkpt>
      <trkpt lat="50.70619" lon="2.01134">
        <ele>119.3</ele>
        <time>2016-05-06T10:28:08Z</time>
      </trkpt>
      <trkpt lat="50.7062" lon="2.01118">
        <ele>119.3</ele>
        <time>2016-05-06T10:28:10Z</time>
      </trkpt>
      <trkpt lat="50.7062" lon="2.011">
        <ele>119.3</ele>
        <time>2016-05-06T10:28:12Z</time>
      </trkpt>
      <trkpt lat="50.70619" lon="2.01081">
        <ele>119.3</ele>
        <time>2016-05-06T10:28:14Z</time>
      </trkpt>
      <trkpt lat="50.70618" lon="2.01062">
        <ele>119.3</ele>
        <time>2016-05-06T10:28:16Z</time>
      </trkpt>
      <trkpt lat="50.70617" lon="2.01043">
        <ele>119.3</ele>
        <time>2016-05-06T10:28:18Z</time>
      </trkpt>
      <trkpt lat="50.70615" lon="2.01024">
        <ele>119.3</ele>
        <time>2016-05-06T10:28:20Z</time>
      </trkpt>
      <trkpt lat="50.70613" lon="2.01005">
        <ele>119.3</ele>
        <time>2016-05-06T10:28:22Z</time>
      </trkpt>
      <trkpt lat="50.70612" lon="2.00986">
        <ele>119.3</ele>
        <time>2016-05-06T10:28:24Z</time>
      </trkpt>
      <trkpt lat="50.7061" lon="2.00966">
        <ele>119.3</ele>
        <time>2016-05-06T10:28:26Z</time>
      </trkpt>
      <trkpt lat="50.70608" lon="2.00947">
        <ele>119.3</ele>
        <time>2016-05-06T10:28:28Z</time>
      </trkpt>
      <trkpt lat="50.70605" lon="2.00928">
        <ele>119.3</ele>
        <time>2016-05-06T10:28:30Z</time>
      </trkpt>
      <trkpt lat="50.70602" lon="2.00909">
        <ele>119.3</ele>
        <time>2016-05-06T10:28:32Z</time>
      </trkpt>
      <trkpt lat="50.70599" lon="2.00891">
        <ele>119.2</ele>
        <time>2016-05-06T10:28:34Z</time>
      </trkpt>
      <trkpt lat="50.70598" lon="2.00874">
        <ele>119.3</ele>
        <time>2016-05-06T10:28:36Z</time>
      </trkpt>
      <trkpt lat="50.70598" lon="2.00857">
        <ele>119.4</ele>
        <time>2016-05-06T10:28:38Z</time>
      </trkpt>
      <trkpt lat="50.70601" lon="2.00841">
        <ele>119.5</ele>
        <time>2016-05-06T10:28:40Z</time>
      </trkpt>
      <trkpt lat="50.70604" lon="2.00825">
        <ele>119.6</ele>
        <time>2016-05-06T10:28:42Z</time>
      </trkpt>
      <trkpt lat="50.70609" lon="2.0081">
        <ele>119.7</ele>
        <time>2016-05-06T10:28:44Z</time>
      </trkpt>
      <trkpt lat="50.70613" lon="2.00795">
        <ele>119.8</ele>
        <time>2016-05-06T10:28:46Z</time>
      </trkpt>
      <trkpt lat="50.70616" lon="2.0078">
        <ele>119.9</ele>
        <time>2016-05-06T10:28:48Z</time>
      </trkpt>
      <trkpt lat="50.70618" lon="2.00764">
        <ele>120</ele>
        <time>2016-05-06T10:28:50Z</time>
      </trkpt>
      <trkpt lat="50.70618" lon="2.00748">
        <ele>120.3</ele>
        <time>2016-05-06T10:28:52Z</time>
      </trkpt>
      <trkpt lat="50.70616" lon="2.00732">
        <ele>120.5</ele>
        <time>2016-05-06T10:28:54Z</time>
      </trkpt>
      <trkpt lat="50.70614" lon="2.00717">
        <ele>120.8</ele>
        <time>2016-05-06T10:28:56Z</time>
      </trkpt>
      <trkpt lat="50.70612" lon="2.00701">
        <ele>121</ele>
        <time>2016-05-06T10:28:58Z</time>
      </trkpt>
      <trkpt lat="50.70608" lon="2.00688">
        <ele>121.2</ele>
        <time>2016-05-06T10:29:00Z</time>
      </trkpt>
      <trkpt lat="50.70604" lon="2.00675">
        <ele>121.5</ele>
        <time>2016-05-06T10:29:02Z</time>
      </trkpt>
      <trkpt lat="50.70599" lon="2.00662">
        <ele>121.6</ele>
        <time>2016-05-06T10:29:04Z</time>
      </trkpt>
      <trkpt lat="50.70595" lon="2.00648">
        <ele>121.8</ele>
        <time>2016-05-06T10:29:06Z</time>
      </trkpt>
      <trkpt lat="50.7059" lon="2.00633">
        <ele>122.2</ele>
        <time>2016-05-06T10:29:08Z</time>
      </trkpt>
      <trkpt lat="50.70586" lon="2.00618">
        <ele>122.4</ele>
        <time>2016-05-06T10:29:10Z</time>
      </trkpt>
      <trkpt lat="50.70582" lon="2.00602">
        <ele>122.6</ele>
        <time>2016-05-06T10:29:12Z</time>
      </trkpt>
      <trkpt lat="50.7058" lon="2.00587">
        <ele>122.8</ele>
        <time>2016-05-06T10:29:14Z</time>
      </trkpt>
      <trkpt lat="50.70576" lon="2.00571">
        <ele>123</ele>
        <time>2016-05-06T10:29:16Z</time>
      </trkpt>
      <trkpt lat="50.70573" lon="2.00554">
        <ele>123.2</ele>
        <time>2016-05-06T10:29:18Z</time>
      </trkpt>
      <trkpt lat="50.70569" lon="2.00539">
        <ele>123.3</ele>
        <time>2016-05-06T10:29:20Z</time>
      </trkpt>
      <trkpt lat="50.70565" lon="2.00523">
        <ele>123.5</ele>
        <time>2016-05-06T10:29:22Z</time>
      </trkpt>
      <trkpt lat="50.70561" lon="2.00506">
        <ele>123.7</ele>
        <time>2016-05-06T10:29:24Z</time>
      </trkpt>
      <trkpt lat="50.70557" lon="2.0049">
        <ele>124</ele>
        <time>2016-05-06T10:29:26Z</time>
      </trkpt>
      <trkpt lat="50.70552" lon="2.00475">
        <ele>124.2</ele>
        <time>2016-05-06T10:29:28Z</time>
      </trkpt>
      <trkpt lat="50.70547" lon="2.0046">
        <ele>124.5</ele>
        <time>2016-05-06T10:29:30Z</time>
      </trkpt>
      <trkpt lat="50.70541" lon="2.00447">
        <ele>124.6</ele>
        <time>2016-05-06T10:29:32Z</time>
      </trkpt>
      <trkpt lat="50.70532" lon="2.00436">
        <ele>124.8</ele>
        <time>2016-05-06T10:29:34Z</time>
      </trkpt>
      <trkpt lat="50.70523" lon="2.00425">
        <ele>125</ele>
        <time>2016-05-06T10:29:36Z</time>
      </trkpt>
      <trkpt lat="50.70514" lon="2.00413">
        <ele>125.2</ele>
        <time>2016-05-06T10:29:38Z</time>
      </trkpt>
      <trkpt lat="50.70505" lon="2.004">
        <ele>125.4</ele>
        <time>2016-05-06T10:29:40Z</time>
      </trkpt>
      <trkpt lat="50.70496" lon="2.00387">
        <ele>125.7</ele>
        <time>2016-05-06T10:29:42Z</time>
      </trkpt>
      <trkpt lat="50.70488" lon="2.00372">
        <ele>125.9</ele>
        <time>2016-05-06T10:29:44Z</time>
      </trkpt>
      <trkpt lat="50.70481" lon="2.00356">
        <ele>126.1</ele>
        <time>2016-05-06T10:29:46Z</time>
      </trkpt>
      <trkpt lat="50.70475" lon="2.00341">
        <ele>126.3</ele>
        <time>2016-05-06T10:29:48Z</time>
      </trkpt>
      <trkpt lat="50.7047" lon="2.00325">
        <ele>126.4</ele>
        <time>2016-05-06T10:29:50Z</time>
      </trkpt>
      <trkpt lat="50.70464" lon="2.00308">
        <ele>126.6</ele>
        <time>2016-05-06T10:29:52Z</time>
      </trkpt>
      <trkpt lat="50.70459" lon="2.00292">
        <ele>126.7</ele>
        <time>2016-05-06T10:29:54Z</time>
      </trkpt>
      <trkpt lat="50.70453" lon="2.00275">
        <ele>126.8</ele>
        <time>2016-05-06T10:29:56Z</time>
      </trkpt>
      <trkpt lat="50.70447" lon="2.00259">
        <ele>127</ele>
        <time>2016-05-06T10:29:58Z</time>
      </trkpt>
      <trkpt lat="50.70441" lon="2.00242">
        <ele>127.1</ele>
        <time>2016-05-06T10:30:00Z</time>
      </trkpt>
      <trkpt lat="50.70436" lon="2.00225">
        <ele>127.2</ele>
        <time>2016-05-06T10:30:02Z</time>
      </trkpt>
      <trkpt lat="50.70429" lon="2.00207">
        <ele>127.2</ele>
        <time>2016-05-06T10:30:04Z</time>
      </trkpt>
      <trkpt lat="50.70424" lon="2.00189">
        <ele>127.4</ele>
        <time>2016-05-06T10:30:06Z</time>
      </trkpt>
      <trkpt lat="50.70418" lon="2.0017">
        <ele>127.5</ele>
        <time>2016-05-06T10:30:08Z</time>
      </trkpt>
      <trkpt lat="50.70414" lon="2.0015">
        <ele>127.6</ele>
        <time>2016-05-06T10:30:10Z</time>
      </trkpt>
      <trkpt lat="50.70411" lon="2.0013">
        <ele>127.7</ele>
        <time>2016-05-06T10:30:12Z</time>
      </trkpt>
      <trkpt lat="50.70409" lon="2.00109">
        <ele>127.8</ele>
        <time>2016-05-06T10:30:14Z</time>
      </trkpt>
      <trkpt lat="50.70407" lon="2.00089">
        <ele>127.8</ele>
        <time>2016-05-06T10:30:16Z</time>
      </trkpt>
      <trkpt lat="50.70405" lon="2.00068">
        <ele>127.9</ele>
        <time>2016-05-06T10:30:18Z</time>
      </trkpt>
      <trkpt lat="50.70403" lon="2.00048">
        <ele>127.9</ele>
        <time>2016-05-06T10:30:20Z</time>
      </trkpt>
      <trkpt lat="50.70401" lon="2.0003">
        <ele>128</ele>
        <time>2016-05-06T10:30:22Z</time>
      </trkpt>
      <trkpt lat="50.70399" lon="2.00012">
        <ele>128</ele>
        <time>2016-05-06T10:30:24Z</time>
      </trkpt>
      <trkpt lat="50.70396" lon="1.99996">
        <ele>128.1</ele>
        <time>2016-05-06T10:30:26Z</time>
      </trkpt>
      <trkpt lat="50.70393" lon="1.99979">
        <ele>128.1</ele>
        <time>2016-05-06T10:30:28Z</time>
      </trkpt>
      <trkpt lat="50.70389" lon="1.99963">
        <ele>128.1</ele>
        <time>2016-05-06T10:30:30Z</time>
      </trkpt>
      <trkpt lat="50.70386" lon="1.99946">
        <ele>128.2</ele>
        <time>2016-05-06T10:30:32Z</time>
      </trkpt>
      <trkpt lat="50.70382" lon="1.99929">
        <ele>128.2</ele>
        <time>2016-05-06T10:30:34Z</time>
      </trkpt>
      <trkpt lat="50.70377" lon="1.99912">
        <ele>128.3</ele>
        <time>2016-05-06T10:30:36Z</time>
      </trkpt>
      <trkpt lat="50.70372" lon="1.99896">
        <ele>128.4</ele>
        <time>2016-05-06T10:30:38Z</time>
      </trkpt>
      <trkpt lat="50.70365" lon="1.99881">
        <ele>128.4</ele>
        <time>2016-05-06T10:30:40Z</time>
      </trkpt>
      <trkpt lat="50.70358" lon="1.99866">
        <ele>128.6</ele>
        <time>2016-05-06T10:30:42Z</time>
      </trkpt>
      <trkpt lat="50.70351" lon="1.99852">
        <ele>128.7</ele>
        <time>2016-05-06T10:30:44Z</time>
      </trkpt>
      <trkpt lat="50.70343" lon="1.99839">
        <ele>128.8</ele>
        <time>2016-05-06T10:30:46Z</time>
      </trkpt>
      <trkpt lat="50.70337" lon="1.99824">
        <ele>128.9</ele>
        <time>2016-05-06T10:30:48Z</time>
      </trkpt>
      <trkpt lat="50.70332" lon="1.99809">
        <ele>129</ele>
        <time>2016-05-06T10:30:50Z</time>
      </trkpt>
      <trkpt lat="50.70328" lon="1.99793">
        <ele>129.2</ele>
        <time>2016-05-06T10:30:52Z</time>
      </trkpt>
      <trkpt lat="50.70326" lon="1.99776">
        <ele>129.3</ele>
        <time>2016-05-06T10:30:54Z</time>
      </trkpt>
      <trkpt lat="50.70324" lon="1.9976">
        <ele>129.6</ele>
        <time>2016-05-06T10:30:56Z</time>
      </trkpt>
      <trkpt lat="50.70323" lon="1.99744">
        <ele>129.8</ele>
        <time>2016-05-06T10:30:58Z</time>
      </trkpt>
      <trkpt lat="50.70321" lon="1.99728">
        <ele>130</ele>
        <time>2016-05-06T10:31:00Z</time>
      </trkpt>
      <trkpt lat="50.7032" lon="1.99712">
        <ele>130.2</ele>
        <time>2016-05-06T10:31:02Z</time>
      </trkpt>
      <trkpt lat="50.70318" lon="1.99695">
        <ele>130.5</ele>
        <time>2016-05-06T10:31:04Z</time>
      </trkpt>
      <trkpt lat="50.70316" lon="1.99678">
        <ele>130.7</ele>
        <time>2016-05-06T10:31:06Z</time>
      </trkpt>
      <trkpt lat="50.70314" lon="1.99661">
        <ele>130.8</ele>
        <time>2016-05-06T10:31:08Z</time>
      </trkpt>
      <trkpt lat="50.70313" lon="1.99643">
        <ele>131</ele>
        <time>2016-05-06T10:31:10Z</time>
      </trkpt>
      <trkpt lat="50.7031" lon="1.99624">
        <ele>131.2</ele>
        <time>2016-05-06T10:31:12Z</time>
      </trkpt>
      <trkpt lat="50.70308" lon="1.99605">
        <ele>131.3</ele>
        <time>2016-05-06T10:31:14Z</time>
      </trkpt>
      <trkpt lat="50.70305" lon="1.99587">
        <ele>131.5</ele>
        <time>2016-05-06T10:31:16Z</time>
      </trkpt>
      <trkpt lat="50.70301" lon="1.99568">
        <ele>131.7</ele>
        <time>2016-05-06T10:31:18Z</time>
      </trkpt>
      <trkpt lat="50.70298" lon="1.9955">
        <ele>131.8</ele>
        <time>2016-05-06T10:31:20Z</time>
      </trkpt>
      <trkpt lat="50.70294" lon="1.99531">
        <ele>132</ele>
        <time>2016-05-06T10:31:22Z</time>
      </trkpt>
      <trkpt lat="50.70291" lon="1.99512">
        <ele>132.1</ele>
        <time>2016-05-06T10:31:24Z</time>
      </trkpt>
      <trkpt lat="50.70288" lon="1.99493">
        <ele>132.2</ele>
        <time>2016-05-06T10:31:26Z</time>
      </trkpt>
      <trkpt lat="50.70285" lon="1.99474">
        <ele>132.4</ele>
        <time>2016-05-06T10:31:28Z</time>
      </trkpt>
      <trkpt lat="50.70283" lon="1.99455">
        <ele>132.5</ele>
        <time>2016-05-06T10:31:30Z</time>
      </trkpt>
      <trkpt lat="50.70281" lon="1.99436">
        <ele>132.6</ele>
        <time>2016-05-06T10:31:32Z</time>
      </trkpt>
      <trkpt lat="50.7028" lon="1.99418">
        <ele>132.7</ele>
        <time>2016-05-06T10:31:34Z</time>
      </trkpt>
      <trkpt lat="50.70278" lon="1.99399">
        <ele>132.9</ele>
        <time>2016-05-06T10:31:36Z</time>
      </trkpt>
      <trkpt lat="50.70276" lon="1.9938">
        <ele>133.1</ele>
        <time>2016-05-06T10:31:38Z</time>
      </trkpt>
      <trkpt lat="50.70275" lon="1.99361">
        <ele>133.3</ele>
        <time>2016-05-06T10:31:40Z</time>
      </trkpt>
      <trkpt lat="50.70272" lon="1.99342">
        <ele>133.4</ele>
        <time>2016-05-06T10:31:42Z</time>
      </trkpt>
      <trkpt lat="50.70268" lon="1.99324">
        <ele>133.6</ele>
        <time>2016-05-06T10:31:44Z</time>
      </trkpt>
      <trkpt lat="50.70264" lon="1.99305">
        <ele>133.7</ele>
        <time>2016-05-06T10:31:46Z</time>
      </trkpt>
      <trkpt lat="50.70259" lon="1.99287">
        <ele>133.8</ele>
        <time>2016-05-06T10:31:48Z</time>
      </trkpt>
      <trkpt lat="50.70255" lon="1.99269">
        <ele>134</ele>
        <time>2016-05-06T10:31:50Z</time>
      </trkpt>
      <trkpt lat="50.7025" lon="1.99251">
        <ele>134.1</ele>
        <time>2016-05-06T10:31:52Z</time>
      </trkpt>
      <trkpt lat="50.70245" lon="1.99234">
        <ele>134.2</ele>
        <time>2016-05-06T10:31:54Z</time>
      </trkpt>
      <trkpt lat="50.7024" lon="1.99216">
        <ele>134.3</ele>
        <time>2016-05-06T10:31:56Z</time>
      </trkpt>
      <trkpt lat="50.70235" lon="1.99199">
        <ele>134.4</ele>
        <time>2016-05-06T10:31:58Z</time>
      </trkpt>
      <trkpt lat="50.7023" lon="1.99181">
        <ele>134.4</ele>
        <time>2016-05-06T10:32:00Z</time>
      </trkpt>
      <trkpt lat="50.70224" lon="1.99164">
        <ele>134.5</ele>
        <time>2016-05-06T10:32:02Z</time>
      </trkpt>
      <trkpt lat="50.70218" lon="1.99148">
        <ele>134.6</ele>
        <time>2016-05-06T10:32:04Z</time>
      </trkpt>
      <trkpt lat="50.70211" lon="1.99132">
        <ele>134.7</ele>
        <time>2016-05-06T10:32:06Z</time>
      </trkpt>
      <trkpt lat="50.70204" lon="1.99116">
        <ele>134.8</ele>
        <time>2016-05-06T10:32:08Z</time>
      </trkpt>
      <trkpt lat="50.70196" lon="1.99101">
        <ele>134.9</ele>
        <time>2016-05-06T10:32:10Z</time>
      </trkpt>
      <trkpt lat="50.70188" lon="1.99086">
        <ele>135.1</ele>
        <time>2016-05-06T10:32:12Z</time>
      </trkpt>
      <trkpt lat="50.7018" lon="1.99071">
        <ele>135.2</ele>
        <time>2016-05-06T10:32:14Z</time>
      </trkpt>
      <trkpt lat="50.70172" lon="1.99056">
        <ele>135.4</ele>
        <time>2016-05-06T10:32:16Z</time>
      </trkpt>
      <trkpt lat="50.70164" lon="1.99041">
        <ele>135.6</ele>
        <time>2016-05-06T10:32:18Z</time>
      </trkpt>
      <trkpt lat="50.70156" lon="1.99026">
        <ele>135.7</ele>
        <time>2016-05-06T10:32:20Z</time>
      </trkpt>
      <trkpt lat="50.70149" lon="1.9901">
        <ele>135.9</ele>
        <time>2016-05-06T10:32:22Z</time>
      </trkpt>
      <trkpt lat="50.70141" lon="1.98995">
        <ele>136.1</ele>
        <time>2016-05-06T10:32:24Z</time>
      </trkpt>
      <trkpt lat="50.70134" lon="1.98979">
        <ele>136.3</ele>
        <time>2016-05-06T10:32:26Z</time>
      </trkpt>
      <trkpt lat="50.70128" lon="1.98964">
        <ele>136.5</ele>
        <time>2016-05-06T10:32:28Z</time>
      </trkpt>
      <trkpt lat="50.70122" lon="1.98948">
        <ele>136.7</ele>
        <time>2016-05-06T10:32:30Z</time>
      </trkpt>
      <trkpt lat="50.70117" lon="1.98933">
        <ele>137</ele>
        <time>2016-05-06T10:32:32Z</time>
      </trkpt>
      <trkpt lat="50.70111" lon="1.98917">
        <ele>137.1</ele>
        <time>2016-05-06T10:32:34Z</time>
      </trkpt>
      <trkpt lat="50.70106" lon="1.98901">
        <ele>137.3</ele>
        <time>2016-05-06T10:32:36Z</time>
      </trkpt>
      <trkpt lat="50.70101" lon="1.98883">
        <ele>137.5</ele>
        <time>2016-05-06T10:32:38Z</time>
      </trkpt>
      <trkpt lat="50.70096" lon="1.98866">
        <ele>137.6</ele>
        <time>2016-05-06T10:32:40Z</time>
      </trkpt>
      <trkpt lat="50.70091" lon="1.98849">
        <ele>137.8</ele>
        <time>2016-05-06T10:32:42Z</time>
      </trkpt>
      <trkpt lat="50.70086" lon="1.98831">
        <ele>137.9</ele>
        <time>2016-05-06T10:32:44Z</time>
      </trkpt>
      <trkpt lat="50.70081" lon="1.98813">
        <ele>138.1</ele>
        <time>2016-05-06T10:32:46Z</time>
      </trkpt>
      <trkpt lat="50.70076" lon="1.98795">
        <ele>138.2</ele>
        <time>2016-05-06T10:32:48Z</time>
      </trkpt>
      <trkpt lat="50.70071" lon="1.98777">
        <ele>138.4</ele>
        <time>2016-05-06T10:32:50Z</time>
      </trkpt>
      <trkpt lat="50.70066" lon="1.98758">
        <ele>138.5</ele>
        <time>2016-05-06T10:32:52Z</time>
      </trkpt>
      <trkpt lat="50.70061" lon="1.98739">
        <ele>138.7</ele>
        <time>2016-05-06T10:32:54Z</time>
      </trkpt>
      <trkpt lat="50.70055" lon="1.9872">
        <ele>138.8</ele>
        <time>2016-05-06T10:32:56Z</time>
      </trkpt>
      <trkpt lat="50.7005" lon="1.98701">
        <ele>139</ele>
        <time>2016-05-06T10:32:58Z</time>
      </trkpt>
      <trkpt lat="50.70045" lon="1.98682">
        <ele>139.2</ele>
        <time>2016-05-06T10:33:00Z</time>
      </trkpt>
      <trkpt lat="50.70039" lon="1.98663">
        <ele>139.3</ele>
        <time>2016-05-06T10:33:02Z</time>
      </trkpt>
      <trkpt lat="50.70034" lon="1.98644">
        <ele>139.5</ele>
        <time>2016-05-06T10:33:04Z</time>
      </trkpt>
      <trkpt lat="50.70028" lon="1.98625">
        <ele>139.6</ele>
        <time>2016-05-06T10:33:06Z</time>
      </trkpt>
      <trkpt lat="50.70023" lon="1.98605">
        <ele>139.8</ele>
        <time>2016-05-06T10:33:08Z</time>
      </trkpt>
      <trkpt lat="50.70018" lon="1.98586">
        <ele>139.9</ele>
        <time>2016-05-06T10:33:10Z</time>
      </trkpt>
      <trkpt lat="50.70012" lon="1.98567">
        <ele>140.1</ele>
        <time>2016-05-06T10:33:12Z</time>
      </trkpt>
      <trkpt lat="50.70007" lon="1.98547">
        <ele>140.2</ele>
        <time>2016-05-06T10:33:14Z</time>
      </trkpt>
      <trkpt lat="50.70001" lon="1.98528">
        <ele>140.4</ele>
        <time>2016-05-06T10:33:16Z</time>
      </trkpt>
      <trkpt lat="50.69996" lon="1.98509">
        <ele>140.6</ele>
        <time>2016-05-06T10:33:18Z</time>
      </trkpt>
      <trkpt lat="50.6999" lon="1.9849">
        <ele>140.8</ele>
        <time>2016-05-06T10:33:20Z</time>
      </trkpt>
      <trkpt lat="50.69985" lon="1.98471">
        <ele>141</ele>
        <time>2016-05-06T10:33:22Z</time>
      </trkpt>
      <trkpt lat="50.6998" lon="1.98452">
        <ele>141.2</ele>
        <time>2016-05-06T10:33:24Z</time>
      </trkpt>
      <trkpt lat="50.69975" lon="1.98433">
        <ele>141.4</ele>
        <time>2016-05-06T10:33:26Z</time>
      </trkpt>
      <trkpt lat="50.6997" lon="1.98414">
        <ele>141.6</ele>
        <time>2016-05-06T10:33:28Z</time>
      </trkpt>
      <trkpt lat="50.69965" lon="1.98396">
        <ele>141.8</ele>
        <time>2016-05-06T10:33:30Z</time>
      </trkpt>
      <trkpt lat="50.69961" lon="1.98377">
        <ele>142</ele>
        <time>2016-05-06T10:33:32Z</time>
      </trkpt>
      <trkpt lat="50.69957" lon="1.98359">
        <ele>142.2</ele>
        <time>2016-05-06T10:33:34Z</time>
      </trkpt>
      <trkpt lat="50.69953" lon="1.9834">
        <ele>142.3</ele>
        <time>2016-05-06T10:33:36Z</time>
      </trkpt>
      <trkpt lat="50.6995" lon="1.98322">
        <ele>142.6</ele>
        <time>2016-05-06T10:33:38Z</time>
      </trkpt>
      <trkpt lat="50.69947" lon="1.98304">
        <ele>142.8</ele>
        <time>2016-05-06T10:33:40Z</time>
      </trkpt>
      <trkpt lat="50.69943" lon="1.98286">
        <ele>143</ele>
        <time>2016-05-06T10:33:42Z</time>
      </trkpt>
      <trkpt lat="50.6994" lon="1.98268">
        <ele>143.3</ele>
        <time>2016-05-06T10:33:44Z</time>
      </trkpt>
      <trkpt lat="50.69936" lon="1.9825">
        <ele>143.5</ele>
        <time>2016-05-06T10:33:46Z</time>
      </trkpt>
      <trkpt lat="50.69933" lon="1.98231">
        <ele>143.7</ele>
        <time>2016-05-06T10:33:48Z</time>
      </trkpt>
      <trkpt lat="50.69929" lon="1.98213">
        <ele>143.9</ele>
        <time>2016-05-06T10:33:50Z</time>
      </trkpt>
      <trkpt lat="50.69926" lon="1.98194">
        <ele>144.1</ele>
        <time>2016-05-06T10:33:52Z</time>
      </trkpt>
      <trkpt lat="50.69922" lon="1.98175">
        <ele>144.3</ele>
        <time>2016-05-06T10:33:54Z</time>
      </trkpt>
      <trkpt lat="50.69919" lon="1.98157">
        <ele>144.6</ele>
        <time>2016-05-06T10:33:56Z</time>
      </trkpt>
      <trkpt lat="50.69915" lon="1.98138">
        <ele>144.8</ele>
        <time>2016-05-06T10:33:58Z</time>
      </trkpt>
      <trkpt lat="50.69912" lon="1.9812">
        <ele>145.1</ele>
        <time>2016-05-06T10:34:00Z</time>
      </trkpt>
      <trkpt lat="50.69909" lon="1.98102">
        <ele>145.3</ele>
        <time>2016-05-06T10:34:02Z</time>
      </trkpt>
      <trkpt lat="50.69905" lon="1.98083">
        <ele>145.5</ele>
        <time>2016-05-06T10:34:04Z</time>
      </trkpt>
      <trkpt lat="50.69902" lon="1.98064">
        <ele>145.7</ele>
        <time>2016-05-06T10:34:06Z</time>
      </trkpt>
      <trkpt lat="50.69898" lon="1.98045">
        <ele>145.9</ele>
        <time>2016-05-06T10:34:08Z</time>
      </trkpt>
      <trkpt lat="50.69896" lon="1.98026">
        <ele>146.1</ele>
        <time>2016-05-06T10:34:10Z</time>
      </trkpt>
      <trkpt lat="50.69893" lon="1.98006">
        <ele>146.3</ele>
        <time>2016-05-06T10:34:12Z</time>
      </trkpt>
      <trkpt lat="50.69891" lon="1.97987">
        <ele>146.5</ele>
        <time>2016-05-06T10:34:14Z</time>
      </trkpt>
      <trkpt lat="50.69889" lon="1.97969">
        <ele>146.8</ele>
        <time>2016-05-06T10:34:16Z</time>
      </trkpt>
      <trkpt lat="50.69888" lon="1.9795">
        <ele>147</ele>
        <time>2016-05-06T10:34:18Z</time>
      </trkpt>
      <trkpt lat="50.69887" lon="1.97932">
        <ele>147.3</ele>
        <time>2016-05-06T10:34:20Z</time>
      </trkpt>
      <trkpt lat="50.69886" lon="1.97914">
        <ele>147.5</ele>
        <time>2016-05-06T10:34:22Z</time>
      </trkpt>
      <trkpt lat="50.69885" lon="1.97896">
        <ele>147.8</ele>
        <time>2016-05-06T10:34:24Z</time>
      </trkpt>
      <trkpt lat="50.69885" lon="1.97877">
        <ele>148</ele>
        <time>2016-05-06T10:34:26Z</time>
      </trkpt>
      <trkpt lat="50.69885" lon="1.97859">
        <ele>148.2</ele>
        <time>2016-05-06T10:34:28Z</time>
      </trkpt>
      <trkpt lat="50.69886" lon="1.97841">
        <ele>148.5</ele>
        <time>2016-05-06T10:34:30Z</time>
      </trkpt>
      <trkpt lat="50.69887" lon="1.97824">
        <ele>148.7</ele>
        <time>2016-05-06T10:34:32Z</time>
      </trkpt>
      <trkpt lat="50.69888" lon="1.97806">
        <ele>149</ele>
        <time>2016-05-06T10:34:34Z</time>
      </trkpt>
      <trkpt lat="50.69889" lon="1.97788">
        <ele>149.3</ele>
        <time>2016-05-06T10:34:36Z</time>
      </trkpt>
      <trkpt lat="50.6989" lon="1.97771">
        <ele>149.6</ele>
        <time>2016-05-06T10:34:38Z</time>
      </trkpt>
      <trkpt lat="50.69892" lon="1.97754">
        <ele>149.9</ele>
        <time>2016-05-06T10:34:40Z</time>
      </trkpt>
      <trkpt lat="50.69894" lon="1.97737">
        <ele>150.2</ele>
        <time>2016-05-06T10:34:42Z</time>
      </trkpt>
      <trkpt lat="50.69895" lon="1.97722">
        <ele>150.5</ele>
        <time>2016-05-06T10:34:44Z</time>
      </trkpt>
      <trkpt lat="50.69897" lon="1.97706">
        <ele>150.7</ele>
        <time>2016-05-06T10:34:46Z</time>
      </trkpt>
      <trkpt lat="50.69899" lon="1.97691">
        <ele>151</ele>
        <time>2016-05-06T10:34:48Z</time>
      </trkpt>
      <trkpt lat="50.69901" lon="1.97676">
        <ele>151.4</ele>
        <time>2016-05-06T10:34:50Z</time>
      </trkpt>
      <trkpt lat="50.69902" lon="1.97662">
        <ele>151.8</ele>
        <time>2016-05-06T10:34:52Z</time>
      </trkpt>
      <trkpt lat="50.69904" lon="1.97642">
        <ele>152.5</ele>
        <time>2016-05-06T10:34:55Z</time>
      </trkpt>
      <trkpt lat="50.69906" lon="1.97622">
        <ele>153.2</ele>
        <time>2016-05-06T10:34:58Z</time>
      </trkpt>
      <trkpt lat="50.69908" lon="1.97603">
        <ele>153.9</ele>
        <time>2016-05-06T10:35:01Z</time>
      </trkpt>
      <trkpt lat="50.69911" lon="1.97584">
        <ele>154.7</ele>
        <time>2016-05-06T10:35:04Z</time>
      </trkpt>
      <trkpt lat="50.69913" lon="1.97565">
        <ele>155.5</ele>
        <time>2016-05-06T10:35:07Z</time>
      </trkpt>
      <trkpt lat="50.69915" lon="1.97547">
        <ele>156.3</ele>
        <time>2016-05-06T10:35:10Z</time>
      </trkpt>
      <trkpt lat="50.69917" lon="1.97527">
        <ele>157.2</ele>
        <time>2016-05-06T10:35:13Z</time>
      </trkpt>
      <trkpt lat="50.6992" lon="1.97509">
        <ele>158</ele>
        <time>2016-05-06T10:35:16Z</time>
      </trkpt>
      <trkpt lat="50.69922" lon="1.9749">
        <ele>158.8</ele>
        <time>2016-05-06T10:35:19Z</time>
      </trkpt>
      <trkpt lat="50.69924" lon="1.9747">
        <ele>159.4</ele>
        <time>2016-05-06T10:35:22Z</time>
      </trkpt>
      <trkpt lat="50.69926" lon="1.97456">
        <ele>160</ele>
        <time>2016-05-06T10:35:24Z</time>
      </trkpt>
      <trkpt lat="50.69929" lon="1.97441">
        <ele>160.5</ele>
        <time>2016-05-06T10:35:26Z</time>
      </trkpt>
      <trkpt lat="50.6993" lon="1.97426">
        <ele>160.9</ele>
        <time>2016-05-06T10:35:28Z</time>
      </trkpt>
      <trkpt lat="50.69932" lon="1.97412">
        <ele>161.3</ele>
        <time>2016-05-06T10:35:30Z</time>
      </trkpt>
      <trkpt lat="50.69934" lon="1.97398">
        <ele>161.8</ele>
        <time>2016-05-06T10:35:32Z</time>
      </trkpt>
      <trkpt lat="50.69937" lon="1.97377">
        <ele>162.4</ele>
        <time>2016-05-06T10:35:35Z</time>
      </trkpt>
      <trkpt lat="50.69938" lon="1.97363">
        <ele>162.8</ele>
        <time>2016-05-06T10:35:37Z</time>
      </trkpt>
      <trkpt lat="50.69938" lon="1.97347">
        <ele>163.1</ele>
        <time>2016-05-06T10:35:39Z</time>
      </trkpt>
      <trkpt lat="50.69938" lon="1.97331">
        <ele>163.4</ele>
        <time>2016-05-06T10:35:41Z</time>
      </trkpt>
      <trkpt lat="50.69937" lon="1.97314">
        <ele>163.7</ele>
        <time>2016-05-06T10:35:43Z</time>
      </trkpt>
      <trkpt lat="50.69937" lon="1.97297">
        <ele>163.9</ele>
        <time>2016-05-06T10:35:45Z</time>
      </trkpt>
      <trkpt lat="50.69936" lon="1.97279">
        <ele>164.2</ele>
        <time>2016-05-06T10:35:47Z</time>
      </trkpt>
      <trkpt lat="50.69935" lon="1.97262">
        <ele>164.4</ele>
        <time>2016-05-06T10:35:49Z</time>
      </trkpt>
      <trkpt lat="50.69934" lon="1.97244">
        <ele>164.6</ele>
        <time>2016-05-06T10:35:51Z</time>
      </trkpt>
      <trkpt lat="50.69933" lon="1.97227">
        <ele>164.9</ele>
        <time>2016-05-06T10:35:53Z</time>
      </trkpt>
      <trkpt lat="50.69932" lon="1.9721">
        <ele>165.2</ele>
        <time>2016-05-06T10:35:55Z</time>
      </trkpt>
      <trkpt lat="50.69931" lon="1.97192">
        <ele>165.4</ele>
        <time>2016-05-06T10:35:57Z</time>
      </trkpt>
      <trkpt lat="50.6993" lon="1.97175">
        <ele>165.7</ele>
        <time>2016-05-06T10:35:59Z</time>
      </trkpt>
      <trkpt lat="50.6993" lon="1.97158">
        <ele>165.9</ele>
        <time>2016-05-06T10:36:01Z</time>
      </trkpt>
      <trkpt lat="50.69929" lon="1.97141">
        <ele>166.1</ele>
        <time>2016-05-06T10:36:03Z</time>
      </trkpt>
      <trkpt lat="50.69928" lon="1.97123">
        <ele>166.3</ele>
        <time>2016-05-06T10:36:05Z</time>
      </trkpt>
      <trkpt lat="50.69927" lon="1.97105">
        <ele>166.5</ele>
        <time>2016-05-06T10:36:07Z</time>
      </trkpt>
      <trkpt lat="50.69925" lon="1.97087">
        <ele>166.8</ele>
        <time>2016-05-06T10:36:09Z</time>
      </trkpt>
      <trkpt lat="50.69924" lon="1.97069">
        <ele>167</ele>
        <time>2016-05-06T10:36:11Z</time>
      </trkpt>
      <trkpt lat="50.69922" lon="1.97051">
        <ele>167.2</ele>
        <time>2016-05-06T10:36:13Z</time>
      </trkpt>
      <trkpt lat="50.6992" lon="1.97032">
        <ele>167.4</ele>
        <time>2016-05-06T10:36:15Z</time>
      </trkpt>
      <trkpt lat="50.69918" lon="1.97014">
        <ele>167.6</ele>
        <time>2016-05-06T10:36:17Z</time>
      </trkpt>
      <trkpt lat="50.69915" lon="1.96996">
        <ele>167.9</ele>
        <time>2016-05-06T10:36:19Z</time>
      </trkpt>
      <trkpt lat="50.69913" lon="1.96978">
        <ele>168.1</ele>
        <time>2016-05-06T10:36:21Z</time>
      </trkpt>
      <trkpt lat="50.69911" lon="1.9696">
        <ele>168.4</ele>
        <time>2016-05-06T10:36:23Z</time>
      </trkpt>
      <trkpt lat="50.69908" lon="1.96943">
        <ele>168.8</ele>
        <time>2016-05-06T10:36:25Z</time>
      </trkpt>
      <trkpt lat="50.69906" lon="1.96926">
        <ele>169.2</ele>
        <time>2016-05-06T10:36:27Z</time>
      </trkpt>
      <trkpt lat="50.69904" lon="1.96909">
        <ele>169.5</ele>
        <time>2016-05-06T10:36:29Z</time>
      </trkpt>
      <trkpt lat="50.69902" lon="1.96893">
        <ele>169.8</ele>
        <time>2016-05-06T10:36:31Z</time>
      </trkpt>
      <trkpt lat="50.699" lon="1.96876">
        <ele>170.2</ele>
        <time>2016-05-06T10:36:33Z</time>
      </trkpt>
      <trkpt lat="50.69897" lon="1.9686">
        <ele>170.6</ele>
        <time>2016-05-06T10:36:35Z</time>
      </trkpt>
      <trkpt lat="50.69895" lon="1.96844">
        <ele>171</ele>
        <time>2016-05-06T10:36:37Z</time>
      </trkpt>
      <trkpt lat="50.69893" lon="1.96828">
        <ele>171.3</ele>
        <time>2016-05-06T10:36:39Z</time>
      </trkpt>
      <trkpt lat="50.6989" lon="1.96813">
        <ele>171.6</ele>
        <time>2016-05-06T10:36:41Z</time>
      </trkpt>
      <trkpt lat="50.69888" lon="1.96797">
        <ele>172</ele>
        <time>2016-05-06T10:36:43Z</time>
      </trkpt>
      <trkpt lat="50.69885" lon="1.96781">
        <ele>172.4</ele>
        <time>2016-05-06T10:36:45Z</time>
      </trkpt>
      <trkpt lat="50.69883" lon="1.96765">
        <ele>172.8</ele>
        <time>2016-05-06T10:36:47Z</time>
      </trkpt>
      <trkpt lat="50.6988" lon="1.96749">
        <ele>173.2</ele>
        <time>2016-05-06T10:36:49Z</time>
      </trkpt>
      <trkpt lat="50.69878" lon="1.96732">
        <ele>173.6</ele>
        <time>2016-05-06T10:36:51Z</time>
      </trkpt>
      <trkpt lat="50.69876" lon="1.96715">
        <ele>173.9</ele>
        <time>2016-05-06T10:36:53Z</time>
      </trkpt>
      <trkpt lat="50.69874" lon="1.96697">
        <ele>174.2</ele>
        <time>2016-05-06T10:36:55Z</time>
      </trkpt>
      <trkpt lat="50.69872" lon="1.96679">
        <ele>174.6</ele>
        <time>2016-05-06T10:36:57Z</time>
      </trkpt>
      <trkpt lat="50.69871" lon="1.96662">
        <ele>174.9</ele>
        <time>2016-05-06T10:36:59Z</time>
      </trkpt>
      <trkpt lat="50.69869" lon="1.96644">
        <ele>175.1</ele>
        <time>2016-05-06T10:37:01Z</time>
      </trkpt>
      <trkpt lat="50.69868" lon="1.96627">
        <ele>175.4</ele>
        <time>2016-05-06T10:37:03Z</time>
      </trkpt>
      <trkpt lat="50.69867" lon="1.96609">
        <ele>175.7</ele>
        <time>2016-05-06T10:37:05Z</time>
      </trkpt>
      <trkpt lat="50.69866" lon="1.96591">
        <ele>175.9</ele>
        <time>2016-05-06T10:37:07Z</time>
      </trkpt>
      <trkpt lat="50.69866" lon="1.96573">
        <ele>176.1</ele>
        <time>2016-05-06T10:37:09Z</time>
      </trkpt>
      <trkpt lat="50.69868" lon="1.96556">
        <ele>176.3</ele>
        <time>2016-05-06T10:37:11Z</time>
      </trkpt>
      <trkpt lat="50.69871" lon="1.96538">
        <ele>176.4</ele>
        <time>2016-05-06T10:37:13Z</time>
      </trkpt>
      <trkpt lat="50.69873" lon="1.96521">
        <ele>176.6</ele>
        <time>2016-05-06T10:37:15Z</time>
      </trkpt>
      <trkpt lat="50.69875" lon="1.96505">
        <ele>176.8</ele>
        <time>2016-05-06T10:37:17Z</time>
      </trkpt>
      <trkpt lat="50.69877" lon="1.96488">
        <ele>177</ele>
        <time>2016-05-06T10:37:19Z</time>
      </trkpt>
      <trkpt lat="50.69879" lon="1.96472">
        <ele>177.2</ele>
        <time>2016-05-06T10:37:21Z</time>
      </trkpt>
      <trkpt lat="50.69881" lon="1.96456">
        <ele>177.4</ele>
        <time>2016-05-06T10:37:23Z</time>
      </trkpt>
      <trkpt lat="50.69884" lon="1.96441">
        <ele>177.7</ele>
        <time>2016-05-06T10:37:25Z</time>
      </trkpt>
      <trkpt lat="50.69887" lon="1.96425">
        <ele>177.9</ele>
        <time>2016-05-06T10:37:27Z</time>
      </trkpt>
      <trkpt lat="50.6989" lon="1.96411">
        <ele>178.1</ele>
        <time>2016-05-06T10:37:29Z</time>
      </trkpt>
      <trkpt lat="50.69893" lon="1.96396">
        <ele>178.3</ele>
        <time>2016-05-06T10:37:31Z</time>
      </trkpt>
      <trkpt lat="50.69895" lon="1.9638">
        <ele>178.6</ele>
        <time>2016-05-06T10:37:33Z</time>
      </trkpt>
      <trkpt lat="50.69896" lon="1.96365">
        <ele>178.8</ele>
        <time>2016-05-06T10:37:35Z</time>
      </trkpt>
      <trkpt lat="50.69897" lon="1.96349">
        <ele>179.2</ele>
        <time>2016-05-06T10:37:37Z</time>
      </trkpt>
      <trkpt lat="50.69897" lon="1.96333">
        <ele>179.5</ele>
        <time>2016-05-06T10:37:39Z</time>
      </trkpt>
      <trkpt lat="50.69898" lon="1.96316">
        <ele>179.8</ele>
        <time>2016-05-06T10:37:41Z</time>
      </trkpt>
      <trkpt lat="50.69897" lon="1.963">
        <ele>180.1</ele>
        <time>2016-05-06T10:37:43Z</time>
      </trkpt>
      <trkpt lat="50.69897" lon="1.96284">
        <ele>180.5</ele>
        <time>2016-05-06T10:37:45Z</time>
      </trkpt>
      <trkpt lat="50.69896" lon="1.96268">
        <ele>180.8</ele>
        <time>2016-05-06T10:37:47Z</time>
      </trkpt>
      <trkpt lat="50.69894" lon="1.96253">
        <ele>181.1</ele>
        <time>2016-05-06T10:37:49Z</time>
      </trkpt>
      <trkpt lat="50.69892" lon="1.96237">
        <ele>181.5</ele>
        <time>2016-05-06T10:37:51Z</time>
      </trkpt>
      <trkpt lat="50.69891" lon="1.96221">
        <ele>181.8</ele>
        <time>2016-05-06T10:37:53Z</time>
      </trkpt>
      <trkpt lat="50.69889" lon="1.96205">
        <ele>182.2</ele>
        <time>2016-05-06T10:37:55Z</time>
      </trkpt>
      <trkpt lat="50.69887" lon="1.96189">
        <ele>182.4</ele>
        <time>2016-05-06T10:37:57Z</time>
      </trkpt>
      <trkpt lat="50.69886" lon="1.96173">
        <ele>182.7</ele>
        <time>2016-05-06T10:37:59Z</time>
      </trkpt>
      <trkpt lat="50.69886" lon="1.96156">
        <ele>182.9</ele>
        <time>2016-05-06T10:38:01Z</time>
      </trkpt>
      <trkpt lat="50.69885" lon="1.9614">
        <ele>183.2</ele>
        <time>2016-05-06T10:38:03Z</time>
      </trkpt>
      <trkpt lat="50.69885" lon="1.96124">
        <ele>183.5</ele>
        <time>2016-05-06T10:38:05Z</time>
      </trkpt>
      <trkpt lat="50.69885" lon="1.96107">
        <ele>183.9</ele>
        <time>2016-05-06T10:38:07Z</time>
      </trkpt>
      <trkpt lat="50.69885" lon="1.96091">
        <ele>184.3</ele>
        <time>2016-05-06T10:38:09Z</time>
      </trkpt>
      <trkpt lat="50.69885" lon="1.96075">
        <ele>184.6</ele>
        <time>2016-05-06T10:38:11Z</time>
      </trkpt>
      <trkpt lat="50.69885" lon="1.9606">
        <ele>185</ele>
        <time>2016-05-06T10:38:13Z</time>
      </trkpt>
      <trkpt lat="50.69885" lon="1.96045">
        <ele>185.5</ele>
        <time>2016-05-06T10:38:15Z</time>
      </trkpt>
      <trkpt lat="50.69886" lon="1.9603">
        <ele>185.9</ele>
        <time>2016-05-06T10:38:17Z</time>
      </trkpt>
      <trkpt lat="50.69886" lon="1.96015">
        <ele>186.3</ele>
        <time>2016-05-06T10:38:19Z</time>
      </trkpt>
      <trkpt lat="50.69885" lon="1.96">
        <ele>186.7</ele>
        <time>2016-05-06T10:38:21Z</time>
      </trkpt>
      <trkpt lat="50.69885" lon="1.95984">
        <ele>187.1</ele>
        <time>2016-05-06T10:38:23Z</time>
      </trkpt>
      <trkpt lat="50.69885" lon="1.95967">
        <ele>187.5</ele>
        <time>2016-05-06T10:38:25Z</time>
      </trkpt>
      <trkpt lat="50.69884" lon="1.9595">
        <ele>187.8</ele>
        <time>2016-05-06T10:38:27Z</time>
      </trkpt>
      <trkpt lat="50.69884" lon="1.95933">
        <ele>188.2</ele>
        <time>2016-05-06T10:38:29Z</time>
      </trkpt>
      <trkpt lat="50.69884" lon="1.95915">
        <ele>188.5</ele>
        <time>2016-05-06T10:38:31Z</time>
      </trkpt>
      <trkpt lat="50.69883" lon="1.95897">
        <ele>188.7</ele>
        <time>2016-05-06T10:38:33Z</time>
      </trkpt>
      <trkpt lat="50.69883" lon="1.95879">
        <ele>189</ele>
        <time>2016-05-06T10:38:35Z</time>
      </trkpt>
      <trkpt lat="50.69882" lon="1.95861">
        <ele>189.4</ele>
        <time>2016-05-06T10:38:37Z</time>
      </trkpt>
      <trkpt lat="50.69882" lon="1.95844">
        <ele>189.7</ele>
        <time>2016-05-06T10:38:39Z</time>
      </trkpt>
      <trkpt lat="50.69881" lon="1.95826">
        <ele>190</ele>
        <time>2016-05-06T10:38:41Z</time>
      </trkpt>
      <trkpt lat="50.69881" lon="1.95809">
        <ele>190.2</ele>
        <time>2016-05-06T10:38:43Z</time>
      </trkpt>
      <trkpt lat="50.69881" lon="1.95792">
        <ele>190.5</ele>
        <time>2016-05-06T10:38:45Z</time>
      </trkpt>
      <trkpt lat="50.69882" lon="1.95775">
        <ele>190.8</ele>
        <time>2016-05-06T10:38:47Z</time>
      </trkpt>
      <trkpt lat="50.69885" lon="1.95758">
        <ele>191.2</ele>
        <time>2016-05-06T10:38:49Z</time>
      </trkpt>
      <trkpt lat="50.69889" lon="1.95741">
        <ele>191.5</ele>
        <time>2016-05-06T10:38:51Z</time>
      </trkpt>
      <trkpt lat="50.69893" lon="1.95723">
        <ele>191.8</ele>
        <time>2016-05-06T10:38:53Z</time>
      </trkpt>
      <trkpt lat="50.69897" lon="1.95705">
        <ele>192</ele>
        <time>2016-05-06T10:38:55Z</time>
      </trkpt>
      <trkpt lat="50.69901" lon="1.95687">
        <ele>192.2</ele>
        <time>2016-05-06T10:38:57Z</time>
      </trkpt>
      <trkpt lat="50.69905" lon="1.95669">
        <ele>192.4</ele>
        <time>2016-05-06T10:38:59Z</time>
      </trkpt>
      <trkpt lat="50.6991" lon="1.95651">
        <ele>192.8</ele>
        <time>2016-05-06T10:39:01Z</time>
      </trkpt>
      <trkpt lat="50.69914" lon="1.95632">
        <ele>193.1</ele>
        <time>2016-05-06T10:39:03Z</time>
      </trkpt>
      <trkpt lat="50.69919" lon="1.95613">
        <ele>193.4</ele>
        <time>2016-05-06T10:39:05Z</time>
      </trkpt>
      <trkpt lat="50.69925" lon="1.95595">
        <ele>193.6</ele>
        <time>2016-05-06T10:39:07Z</time>
      </trkpt>
      <trkpt lat="50.6993" lon="1.95577">
        <ele>193.9</ele>
        <time>2016-05-06T10:39:09Z</time>
      </trkpt>
      <trkpt lat="50.69935" lon="1.9556">
        <ele>194.2</ele>
        <time>2016-05-06T10:39:11Z</time>
      </trkpt>
      <trkpt lat="50.6994" lon="1.95543">
        <ele>194.5</ele>
        <time>2016-05-06T10:39:13Z</time>
      </trkpt>
      <trkpt lat="50.69946" lon="1.95525">
        <ele>194.8</ele>
        <time>2016-05-06T10:39:15Z</time>
      </trkpt>
      <trkpt lat="50.69951" lon="1.95508">
        <ele>195.1</ele>
        <time>2016-05-06T10:39:17Z</time>
      </trkpt>
      <trkpt lat="50.69956" lon="1.9549">
        <ele>195.4</ele>
        <time>2016-05-06T10:39:19Z</time>
      </trkpt>
      <trkpt lat="50.69961" lon="1.95472">
        <ele>195.7</ele>
        <time>2016-05-06T10:39:21Z</time>
      </trkpt>
      <trkpt lat="50.69965" lon="1.95453">
        <ele>195.9</ele>
        <time>2016-05-06T10:39:23Z</time>
      </trkpt>
      <trkpt lat="50.69969" lon="1.95433">
        <ele>196.2</ele>
        <time>2016-05-06T10:39:25Z</time>
      </trkpt>
      <trkpt lat="50.69973" lon="1.95412">
        <ele>196.6</ele>
        <time>2016-05-06T10:39:27Z</time>
      </trkpt>
      <trkpt lat="50.69977" lon="1.95391">
        <ele>197</ele>
        <time>2016-05-06T10:39:29Z</time>
      </trkpt>
      <trkpt lat="50.6998" lon="1.95369">
        <ele>197.3</ele>
        <time>2016-05-06T10:39:31Z</time>
      </trkpt>
      <trkpt lat="50.69982" lon="1.95346">
        <ele>197.6</ele>
        <time>2016-05-06T10:39:33Z</time>
      </trkpt>
      <trkpt lat="50.69985" lon="1.95322">
        <ele>197.8</ele>
        <time>2016-05-06T10:39:35Z</time>
      </trkpt>
      <trkpt lat="50.69988" lon="1.95296">
        <ele>198</ele>
        <time>2016-05-06T10:39:37Z</time>
      </trkpt>
      <trkpt lat="50.6999" lon="1.9527">
        <ele>198.2</ele>
        <time>2016-05-06T10:39:39Z</time>
      </trkpt>
      <trkpt lat="50.69992" lon="1.95242">
        <ele>198.2</ele>
        <time>2016-05-06T10:39:41Z</time>
      </trkpt>
      <trkpt lat="50.69993" lon="1.95227">
        <ele>198.2</ele>
        <time>2016-05-06T10:39:42Z</time>
      </trkpt>
      <trkpt lat="50.69994" lon="1.95212">
        <ele>198.2</ele>
        <time>2016-05-06T10:39:43Z</time>
      </trkpt>
      <trkpt lat="50.69995" lon="1.95197">
        <ele>198.2</ele>
        <time>2016-05-06T10:39:44Z</time>
      </trkpt>
      <trkpt lat="50.69995" lon="1.95181">
        <ele>198.1</ele>
        <time>2016-05-06T10:39:45Z</time>
      </trkpt>
      <trkpt lat="50.69995" lon="1.95165">
        <ele>198.1</ele>
        <time>2016-05-06T10:39:46Z</time>
      </trkpt>
      <trkpt lat="50.69995" lon="1.95149">
        <ele>197.9</ele>
        <time>2016-05-06T10:39:47Z</time>
      </trkpt>
      <trkpt lat="50.69993" lon="1.95133">
        <ele>197.8</ele>
        <time>2016-05-06T10:39:48Z</time>
      </trkpt>
      <trkpt lat="50.69991" lon="1.95118">
        <ele>197.6</ele>
        <time>2016-05-06T10:39:49Z</time>
      </trkpt>
      <trkpt lat="50.69987" lon="1.95103">
        <ele>197.4</ele>
        <time>2016-05-06T10:39:50Z</time>
      </trkpt>
      <trkpt lat="50.69983" lon="1.95087">
        <ele>197.2</ele>
        <time>2016-05-06T10:39:51Z</time>
      </trkpt>
      <trkpt lat="50.69979" lon="1.95072">
        <ele>197</ele>
        <time>2016-05-06T10:39:52Z</time>
      </trkpt>
      <trkpt lat="50.69975" lon="1.95056">
        <ele>196.7</ele>
        <time>2016-05-06T10:39:53Z</time>
      </trkpt>
      <trkpt lat="50.69971" lon="1.95039">
        <ele>196.5</ele>
        <time>2016-05-06T10:39:54Z</time>
      </trkpt>
      <trkpt lat="50.69966" lon="1.95022">
        <ele>196.2</ele>
        <time>2016-05-06T10:39:55Z</time>
      </trkpt>
      <trkpt lat="50.69962" lon="1.95005">
        <ele>195.9</ele>
        <time>2016-05-06T10:39:56Z</time>
      </trkpt>
      <trkpt lat="50.69957" lon="1.94987">
        <ele>195.4</ele>
        <time>2016-05-06T10:39:57Z</time>
      </trkpt>
      <trkpt lat="50.69953" lon="1.94969">
        <ele>194.9</ele>
        <time>2016-05-06T10:39:58Z</time>
      </trkpt>
      <trkpt lat="50.69948" lon="1.94951">
        <ele>194.4</ele>
        <time>2016-05-06T10:39:59Z</time>
      </trkpt>
      <trkpt lat="50.69943" lon="1.94931">
        <ele>193.7</ele>
        <time>2016-05-06T10:40:00Z</time>
      </trkpt>
      <trkpt lat="50.69938" lon="1.94912">
        <ele>193.1</ele>
        <time>2016-05-06T10:40:01Z</time>
      </trkpt>
      <trkpt lat="50.69933" lon="1.94892">
        <ele>192.6</ele>
        <time>2016-05-06T10:40:02Z</time>
      </trkpt>
      <trkpt lat="50.69928" lon="1.94872">
        <ele>192</ele>
        <time>2016-05-06T10:40:03Z</time>
      </trkpt>
      <trkpt lat="50.69923" lon="1.94851">
        <ele>191.3</ele>
        <time>2016-05-06T10:40:04Z</time>
      </trkpt>
      <trkpt lat="50.69918" lon="1.9483">
        <ele>190.5</ele>
        <time>2016-05-06T10:40:05Z</time>
      </trkpt>
      <trkpt lat="50.69913" lon="1.94809">
        <ele>189.8</ele>
        <time>2016-05-06T10:40:06Z</time>
      </trkpt>
      <trkpt lat="50.69908" lon="1.94787">
        <ele>189</ele>
        <time>2016-05-06T10:40:07Z</time>
      </trkpt>
      <trkpt lat="50.69903" lon="1.94765">
        <ele>188</ele>
        <time>2016-05-06T10:40:08Z</time>
      </trkpt>
      <trkpt lat="50.69899" lon="1.94743">
        <ele>187.1</ele>
        <time>2016-05-06T10:40:09Z</time>
      </trkpt>
      <trkpt lat="50.69896" lon="1.94719">
        <ele>186.3</ele>
        <time>2016-05-06T10:40:10Z</time>
      </trkpt>
      <trkpt lat="50.69895" lon="1.94696">
        <ele>185.4</ele>
        <time>2016-05-06T10:40:11Z</time>
      </trkpt>
      <trkpt lat="50.69896" lon="1.94672">
        <ele>184.5</ele>
        <time>2016-05-06T10:40:12Z</time>
      </trkpt>
      <trkpt lat="50.69897" lon="1.94649">
        <ele>183.5</ele>
        <time>2016-05-06T10:40:13Z</time>
      </trkpt>
      <trkpt lat="50.699" lon="1.94626">
        <ele>182.4</ele>
        <time>2016-05-06T10:40:14Z</time>
      </trkpt>
      <trkpt lat="50.69903" lon="1.94603">
        <ele>181.3</ele>
        <time>2016-05-06T10:40:15Z</time>
      </trkpt>
      <trkpt lat="50.69906" lon="1.94581">
        <ele>180.3</ele>
        <time>2016-05-06T10:40:16Z</time>
      </trkpt>
      <trkpt lat="50.69908" lon="1.94561">
        <ele>179.2</ele>
        <time>2016-05-06T10:40:17Z</time>
      </trkpt>
      <trkpt lat="50.6991" lon="1.94544">
        <ele>178.2</ele>
        <time>2016-05-06T10:40:18Z</time>
      </trkpt>
      <trkpt lat="50.69913" lon="1.9453">
        <ele>177.1</ele>
        <time>2016-05-06T10:40:19Z</time>
      </trkpt>
      <trkpt lat="50.69914" lon="1.94503">
        <ele>175</ele>
        <time>2016-05-06T10:40:21Z</time>
      </trkpt>
      <trkpt lat="50.69906" lon="1.9448">
        <ele>172.8</ele>
        <time>2016-05-06T10:40:23Z</time>
      </trkpt>
      <trkpt lat="50.69888" lon="1.94476">
        <ele>170.9</ele>
        <time>2016-05-06T10:40:25Z</time>
      </trkpt>
      <trkpt lat="50.69879" lon="1.94482">
        <ele>169.9</ele>
        <time>2016-05-06T10:40:26Z</time>
      </trkpt>
      <trkpt lat="50.6987" lon="1.94491">
        <ele>168.9</ele>
        <time>2016-05-06T10:40:27Z</time>
      </trkpt>
      <trkpt lat="50.69863" lon="1.94501">
        <ele>168</ele>
        <time>2016-05-06T10:40:28Z</time>
      </trkpt>
      <trkpt lat="50.69855" lon="1.94512">
        <ele>167</ele>
        <time>2016-05-06T10:40:29Z</time>
      </trkpt>
      <trkpt lat="50.69848" lon="1.94522">
        <ele>166.1</ele>
        <time>2016-05-06T10:40:30Z</time>
      </trkpt>
      <trkpt lat="50.6984" lon="1.94533">
        <ele>165.1</ele>
        <time>2016-05-06T10:40:31Z</time>
      </trkpt>
      <trkpt lat="50.69832" lon="1.94543">
        <ele>164.2</ele>
        <time>2016-05-06T10:40:32Z</time>
      </trkpt>
      <trkpt lat="50.69824" lon="1.94553">
        <ele>163.3</ele>
        <time>2016-05-06T10:40:33Z</time>
      </trkpt>
      <trkpt lat="50.69816" lon="1.94563">
        <ele>162.5</ele>
        <time>2016-05-06T10:40:34Z</time>
      </trkpt>
      <trkpt lat="50.69806" lon="1.9457">
        <ele>161.7</ele>
        <time>2016-05-06T10:40:35Z</time>
      </trkpt>
      <trkpt lat="50.69796" lon="1.94574">
        <ele>160.8</ele>
        <time>2016-05-06T10:40:36Z</time>
      </trkpt>
      <trkpt lat="50.69786" lon="1.94574">
        <ele>159.9</ele>
        <time>2016-05-06T10:40:37Z</time>
      </trkpt>
      <trkpt lat="50.69776" lon="1.94569">
        <ele>159</ele>
        <time>2016-05-06T10:40:38Z</time>
      </trkpt>
      <trkpt lat="50.69766" lon="1.94563">
        <ele>158.2</ele>
        <time>2016-05-06T10:40:39Z</time>
      </trkpt>
      <trkpt lat="50.69756" lon="1.94555">
        <ele>157.4</ele>
        <time>2016-05-06T10:40:40Z</time>
      </trkpt>
      <trkpt lat="50.69746" lon="1.94548">
        <ele>156.6</ele>
        <time>2016-05-06T10:40:41Z</time>
      </trkpt>
      <trkpt lat="50.69735" lon="1.9454">
        <ele>155.8</ele>
        <time>2016-05-06T10:40:42Z</time>
      </trkpt>
      <trkpt lat="50.69725" lon="1.94532">
        <ele>155</ele>
        <time>2016-05-06T10:40:43Z</time>
      </trkpt>
      <trkpt lat="50.69714" lon="1.94524">
        <ele>154.1</ele>
        <time>2016-05-06T10:40:44Z</time>
      </trkpt>
      <trkpt lat="50.69704" lon="1.94515">
        <ele>153.3</ele>
        <time>2016-05-06T10:40:45Z</time>
      </trkpt>
      <trkpt lat="50.69693" lon="1.94505">
        <ele>152.5</ele>
        <time>2016-05-06T10:40:46Z</time>
      </trkpt>
      <trkpt lat="50.69683" lon="1.94494">
        <ele>151.6</ele>
        <time>2016-05-06T10:40:47Z</time>
      </trkpt>
      <trkpt lat="50.69673" lon="1.94483">
        <ele>150.8</ele>
        <time>2016-05-06T10:40:48Z</time>
      </trkpt>
      <trkpt lat="50.69664" lon="1.94471">
        <ele>149.9</ele>
        <time>2016-05-06T10:40:49Z</time>
      </trkpt>
      <trkpt lat="50.69654" lon="1.94458">
        <ele>148.9</ele>
        <time>2016-05-06T10:40:50Z</time>
      </trkpt>
      <trkpt lat="50.69645" lon="1.94444">
        <ele>148</ele>
        <time>2016-05-06T10:40:51Z</time>
      </trkpt>
      <trkpt lat="50.69635" lon="1.9443">
        <ele>147.1</ele>
        <time>2016-05-06T10:40:52Z</time>
      </trkpt>
      <trkpt lat="50.69626" lon="1.94416">
        <ele>146.2</ele>
        <time>2016-05-06T10:40:53Z</time>
      </trkpt>
      <trkpt lat="50.69617" lon="1.94402">
        <ele>145.1</ele>
        <time>2016-05-06T10:40:54Z</time>
      </trkpt>
      <trkpt lat="50.69607" lon="1.94388">
        <ele>144</ele>
        <time>2016-05-06T10:40:55Z</time>
      </trkpt>
      <trkpt lat="50.69598" lon="1.94374">
        <ele>143</ele>
        <time>2016-05-06T10:40:56Z</time>
      </trkpt>
      <trkpt lat="50.69588" lon="1.94361">
        <ele>142.1</ele>
        <time>2016-05-06T10:40:57Z</time>
      </trkpt>
      <trkpt lat="50.69578" lon="1.94347">
        <ele>141.2</ele>
        <time>2016-05-06T10:40:58Z</time>
      </trkpt>
      <trkpt lat="50.69568" lon="1.94335">
        <ele>140.3</ele>
        <time>2016-05-06T10:40:59Z</time>
      </trkpt>
      <trkpt lat="50.69557" lon="1.94323">
        <ele>139.5</ele>
        <time>2016-05-06T10:41:00Z</time>
      </trkpt>
      <trkpt lat="50.69547" lon="1.94312">
        <ele>138.5</ele>
        <time>2016-05-06T10:41:01Z</time>
      </trkpt>
      <trkpt lat="50.69536" lon="1.94302">
        <ele>137.6</ele>
        <time>2016-05-06T10:41:02Z</time>
      </trkpt>
      <trkpt lat="50.69525" lon="1.94293">
        <ele>136.8</ele>
        <time>2016-05-06T10:41:03Z</time>
      </trkpt>
      <trkpt lat="50.69514" lon="1.94287">
        <ele>136</ele>
        <time>2016-05-06T10:41:04Z</time>
      </trkpt>
      <trkpt lat="50.69502" lon="1.94282">
        <ele>135.2</ele>
        <time>2016-05-06T10:41:05Z</time>
      </trkpt>
      <trkpt lat="50.69491" lon="1.9428">
        <ele>134.4</ele>
        <time>2016-05-06T10:41:06Z</time>
      </trkpt>
      <trkpt lat="50.69479" lon="1.94279">
        <ele>133.6</ele>
        <time>2016-05-06T10:41:07Z</time>
      </trkpt>
      <trkpt lat="50.69468" lon="1.94279">
        <ele>132.8</ele>
        <time>2016-05-06T10:41:08Z</time>
      </trkpt>
      <trkpt lat="50.69457" lon="1.94278">
        <ele>132.1</ele>
        <time>2016-05-06T10:41:09Z</time>
      </trkpt>
      <trkpt lat="50.69447" lon="1.94277">
        <ele>131.4</ele>
        <time>2016-05-06T10:41:10Z</time>
      </trkpt>
      <trkpt lat="50.69437" lon="1.94276">
        <ele>130.8</ele>
        <time>2016-05-06T10:41:11Z</time>
      </trkpt>
      <trkpt lat="50.69427" lon="1.94275">
        <ele>130.2</ele>
        <time>2016-05-06T10:41:12Z</time>
      </trkpt>
      <trkpt lat="50.69417" lon="1.94273">
        <ele>129.6</ele>
        <time>2016-05-06T10:41:13Z</time>
      </trkpt>
      <trkpt lat="50.69408" lon="1.94272">
        <ele>129.1</ele>
        <time>2016-05-06T10:41:14Z</time>
      </trkpt>
      <trkpt lat="50.69391" lon="1.94268">
        <ele>128.1</ele>
        <time>2016-05-06T10:41:16Z</time>
      </trkpt>
      <trkpt lat="50.69375" lon="1.94264">
        <ele>127.3</ele>
        <time>2016-05-06T10:41:18Z</time>
      </trkpt>
      <trkpt lat="50.69361" lon="1.94259">
        <ele>126.5</ele>
        <time>2016-05-06T10:41:20Z</time>
      </trkpt>
      <trkpt lat="50.69347" lon="1.94254">
        <ele>125.9</ele>
        <time>2016-05-06T10:41:22Z</time>
      </trkpt>
      <trkpt lat="50.69334" lon="1.94248">
        <ele>125.3</ele>
        <time>2016-05-06T10:41:24Z</time>
      </trkpt>
      <trkpt lat="50.69322" lon="1.9424">
        <ele>124.8</ele>
        <time>2016-05-06T10:41:26Z</time>
      </trkpt>
      <trkpt lat="50.69311" lon="1.9423">
        <ele>124.3</ele>
        <time>2016-05-06T10:41:28Z</time>
      </trkpt>
      <trkpt lat="50.69301" lon="1.94219">
        <ele>124</ele>
        <time>2016-05-06T10:41:30Z</time>
      </trkpt>
      <trkpt lat="50.69292" lon="1.94205">
        <ele>123.7</ele>
        <time>2016-05-06T10:41:32Z</time>
      </trkpt>
      <trkpt lat="50.69283" lon="1.9419">
        <ele>123.5</ele>
        <time>2016-05-06T10:41:34Z</time>
      </trkpt>
      <trkpt lat="50.69275" lon="1.94174">
        <ele>123.4</ele>
        <time>2016-05-06T10:41:36Z</time>
      </trkpt>
      <trkpt lat="50.69267" lon="1.94158">
        <ele>123.3</ele>
        <time>2016-05-06T10:41:38Z</time>
      </trkpt>
      <trkpt lat="50.69259" lon="1.94141">
        <ele>123.3</ele>
        <time>2016-05-06T10:41:40Z</time>
      </trkpt>
      <trkpt lat="50.69251" lon="1.94125">
        <ele>123.2</ele>
        <time>2016-05-06T10:41:42Z</time>
      </trkpt>
      <trkpt lat="50.69243" lon="1.94108">
        <ele>123.2</ele>
        <time>2016-05-06T10:41:44Z</time>
      </trkpt>
      <trkpt lat="50.69235" lon="1.94092">
        <ele>123.2</ele>
        <time>2016-05-06T10:41:46Z</time>
      </trkpt>
      <trkpt lat="50.69228" lon="1.94075">
        <ele>123.2</ele>
        <time>2016-05-06T10:41:48Z</time>
      </trkpt>
      <trkpt lat="50.6922" lon="1.94058">
        <ele>123.2</ele>
        <time>2016-05-06T10:41:50Z</time>
      </trkpt>
      <trkpt lat="50.69212" lon="1.9404">
        <ele>123.2</ele>
        <time>2016-05-06T10:41:52Z</time>
      </trkpt>
      <trkpt lat="50.69204" lon="1.9402">
        <ele>123.2</ele>
        <time>2016-05-06T10:41:54Z</time>
      </trkpt>
      <trkpt lat="50.69194" lon="1.93999">
        <ele>123</ele>
        <time>2016-05-06T10:41:56Z</time>
      </trkpt>
      <trkpt lat="50.69184" lon="1.93977">
        <ele>122.7</ele>
        <time>2016-05-06T10:41:58Z</time>
      </trkpt>
      <trkpt lat="50.69179" lon="1.93966">
        <ele>122.6</ele>
        <time>2016-05-06T10:41:59Z</time>
      </trkpt>
      <trkpt lat="50.69173" lon="1.93953">
        <ele>122.4</ele>
        <time>2016-05-06T10:42:00Z</time>
      </trkpt>
      <trkpt lat="50.69168" lon="1.93941">
        <ele>122.1</ele>
        <time>2016-05-06T10:42:01Z</time>
      </trkpt>
      <trkpt lat="50.69162" lon="1.93929">
        <ele>121.9</ele>
        <time>2016-05-06T10:42:02Z</time>
      </trkpt>
      <trkpt lat="50.69155" lon="1.93916">
        <ele>121.6</ele>
        <time>2016-05-06T10:42:03Z</time>
      </trkpt>
      <trkpt lat="50.69149" lon="1.93904">
        <ele>121.3</ele>
        <time>2016-05-06T10:42:04Z</time>
      </trkpt>
      <trkpt lat="50.69142" lon="1.93891">
        <ele>120.9</ele>
        <time>2016-05-06T10:42:05Z</time>
      </trkpt>
      <trkpt lat="50.69136" lon="1.93878">
        <ele>120.4</ele>
        <time>2016-05-06T10:42:06Z</time>
      </trkpt>
      <trkpt lat="50.69129" lon="1.93865">
        <ele>120</ele>
        <time>2016-05-06T10:42:07Z</time>
      </trkpt>
      <trkpt lat="50.69122" lon="1.93852">
        <ele>119.5</ele>
        <time>2016-05-06T10:42:08Z</time>
      </trkpt>
      <trkpt lat="50.69114" lon="1.93839">
        <ele>119.1</ele>
        <time>2016-05-06T10:42:09Z</time>
      </trkpt>
      <trkpt lat="50.69106" lon="1.93826">
        <ele>118.6</ele>
        <time>2016-05-06T10:42:10Z</time>
      </trkpt>
      <trkpt lat="50.69098" lon="1.93813">
        <ele>118.1</ele>
        <time>2016-05-06T10:42:11Z</time>
      </trkpt>
      <trkpt lat="50.6909" lon="1.93801">
        <ele>117.4</ele>
        <time>2016-05-06T10:42:12Z</time>
      </trkpt>
      <trkpt lat="50.69082" lon="1.93789">
        <ele>116.8</ele>
        <time>2016-05-06T10:42:13Z</time>
      </trkpt>
      <trkpt lat="50.69073" lon="1.93778">
        <ele>116.2</ele>
        <time>2016-05-06T10:42:14Z</time>
      </trkpt>
      <trkpt lat="50.69064" lon="1.93766">
        <ele>115.6</ele>
        <time>2016-05-06T10:42:15Z</time>
      </trkpt>
      <trkpt lat="50.69056" lon="1.93755">
        <ele>115</ele>
        <time>2016-05-06T10:42:16Z</time>
      </trkpt>
      <trkpt lat="50.69047" lon="1.93744">
        <ele>114.4</ele>
        <time>2016-05-06T10:42:17Z</time>
      </trkpt>
      <trkpt lat="50.69037" lon="1.93733">
        <ele>113.7</ele>
        <time>2016-05-06T10:42:18Z</time>
      </trkpt>
      <trkpt lat="50.69028" lon="1.93722">
        <ele>113.1</ele>
        <time>2016-05-06T10:42:19Z</time>
      </trkpt>
      <trkpt lat="50.69019" lon="1.93712">
        <ele>112.5</ele>
        <time>2016-05-06T10:42:20Z</time>
      </trkpt>
      <trkpt lat="50.69009" lon="1.93702">
        <ele>111.9</ele>
        <time>2016-05-06T10:42:21Z</time>
      </trkpt>
      <trkpt lat="50.68999" lon="1.93693">
        <ele>111.2</ele>
        <time>2016-05-06T10:42:22Z</time>
      </trkpt>
      <trkpt lat="50.68989" lon="1.93685">
        <ele>110.5</ele>
        <time>2016-05-06T10:42:23Z</time>
      </trkpt>
      <trkpt lat="50.68979" lon="1.93679">
        <ele>109.9</ele>
        <time>2016-05-06T10:42:24Z</time>
      </trkpt>
      <trkpt lat="50.68969" lon="1.93674">
        <ele>109.2</ele>
        <time>2016-05-06T10:42:25Z</time>
      </trkpt>
      <trkpt lat="50.6896" lon="1.9367">
        <ele>108.6</ele>
        <time>2016-05-06T10:42:26Z</time>
      </trkpt>
      <trkpt lat="50.68951" lon="1.93664">
        <ele>108.1</ele>
        <time>2016-05-06T10:42:27Z</time>
      </trkpt>
      <trkpt lat="50.68937" lon="1.93651">
        <ele>107</ele>
        <time>2016-05-06T10:42:29Z</time>
      </trkpt>
      <trkpt lat="50.68928" lon="1.93635">
        <ele>106.2</ele>
        <time>2016-05-06T10:42:31Z</time>
      </trkpt>
      <trkpt lat="50.68922" lon="1.9362">
        <ele>105.7</ele>
        <time>2016-05-06T10:42:33Z</time>
      </trkpt>
      <trkpt lat="50.68918" lon="1.93605">
        <ele>105.3</ele>
        <time>2016-05-06T10:42:35Z</time>
      </trkpt>
      <trkpt lat="50.68912" lon="1.93593">
        <ele>105</ele>
        <time>2016-05-06T10:42:37Z</time>
      </trkpt>
      <trkpt lat="50.68904" lon="1.93577">
        <ele>104.9</ele>
        <time>2016-05-06T10:42:40Z</time>
      </trkpt>
      <trkpt lat="50.68895" lon="1.93562">
        <ele>104.9</ele>
        <time>2016-05-06T10:42:43Z</time>
      </trkpt>
      <trkpt lat="50.68886" lon="1.93546">
        <ele>105.1</ele>
        <time>2016-05-06T10:42:46Z</time>
      </trkpt>
      <trkpt lat="50.6888" lon="1.93536">
        <ele>105.3</ele>
        <time>2016-05-06T10:42:48Z</time>
      </trkpt>
      <trkpt lat="50.68874" lon="1.93526">
        <ele>105.6</ele>
        <time>2016-05-06T10:42:50Z</time>
      </trkpt>
      <trkpt lat="50.68864" lon="1.93511">
        <ele>106</ele>
        <time>2016-05-06T10:42:53Z</time>
      </trkpt>
      <trkpt lat="50.68855" lon="1.93495">
        <ele>106.4</ele>
        <time>2016-05-06T10:42:56Z</time>
      </trkpt>
      <trkpt lat="50.68852" lon="1.93474">
        <ele>106.9</ele>
        <time>2016-05-06T10:42:59Z</time>
      </trkpt>
      <trkpt lat="50.68851" lon="1.93458">
        <ele>107.2</ele>
        <time>2016-05-06T10:43:01Z</time>
      </trkpt>
      <trkpt lat="50.68849" lon="1.9344">
        <ele>107.4</ele>
        <time>2016-05-06T10:43:03Z</time>
      </trkpt>
      <trkpt lat="50.68847" lon="1.93421">
        <ele>107.6</ele>
        <time>2016-05-06T10:43:05Z</time>
      </trkpt>
      <trkpt lat="50.68844" lon="1.93402">
        <ele>107.7</ele>
        <time>2016-05-06T10:43:07Z</time>
      </trkpt>
      <trkpt lat="50.6884" lon="1.93382">
        <ele>107.8</ele>
        <time>2016-05-06T10:43:09Z</time>
      </trkpt>
      <trkpt lat="50.68836" lon="1.93363">
        <ele>107.9</ele>
        <time>2016-05-06T10:43:11Z</time>
      </trkpt>
      <trkpt lat="50.68831" lon="1.93344">
        <ele>107.9</ele>
        <time>2016-05-06T10:43:13Z</time>
      </trkpt>
      <trkpt lat="50.68826" lon="1.93325">
        <ele>108</ele>
        <time>2016-05-06T10:43:15Z</time>
      </trkpt>
      <trkpt lat="50.6882" lon="1.93306">
        <ele>108</ele>
        <time>2016-05-06T10:43:17Z</time>
      </trkpt>
      <trkpt lat="50.68814" lon="1.93287">
        <ele>108.1</ele>
        <time>2016-05-06T10:43:19Z</time>
      </trkpt>
      <trkpt lat="50.68807" lon="1.9327">
        <ele>108.1</ele>
        <time>2016-05-06T10:43:21Z</time>
      </trkpt>
      <trkpt lat="50.68803" lon="1.9325">
        <ele>108.2</ele>
        <time>2016-05-06T10:43:23Z</time>
      </trkpt>
      <trkpt lat="50.68804" lon="1.93229">
        <ele>108.2</ele>
        <time>2016-05-06T10:43:25Z</time>
      </trkpt>
      <trkpt lat="50.68806" lon="1.93208">
        <ele>108.2</ele>
        <time>2016-05-06T10:43:27Z</time>
      </trkpt>
      <trkpt lat="50.68808" lon="1.93187">
        <ele>108.2</ele>
        <time>2016-05-06T10:43:29Z</time>
      </trkpt>
      <trkpt lat="50.68809" lon="1.93165">
        <ele>108.1</ele>
        <time>2016-05-06T10:43:31Z</time>
      </trkpt>
      <trkpt lat="50.68809" lon="1.93142">
        <ele>108</ele>
        <time>2016-05-06T10:43:33Z</time>
      </trkpt>
      <trkpt lat="50.6881" lon="1.9312">
        <ele>107.9</ele>
        <time>2016-05-06T10:43:35Z</time>
      </trkpt>
      <trkpt lat="50.6881" lon="1.93098">
        <ele>107.8</ele>
        <time>2016-05-06T10:43:37Z</time>
      </trkpt>
      <trkpt lat="50.68811" lon="1.93074">
        <ele>107.6</ele>
        <time>2016-05-06T10:43:39Z</time>
      </trkpt>
      <trkpt lat="50.68813" lon="1.93049">
        <ele>107.3</ele>
        <time>2016-05-06T10:43:41Z</time>
      </trkpt>
      <trkpt lat="50.68814" lon="1.93028">
        <ele>106.9</ele>
        <time>2016-05-06T10:43:43Z</time>
      </trkpt>
      <trkpt lat="50.68812" lon="1.93009">
        <ele>106.4</ele>
        <time>2016-05-06T10:43:45Z</time>
      </trkpt>
      <trkpt lat="50.68804" lon="1.92988">
        <ele>105.7</ele>
        <time>2016-05-06T10:43:47Z</time>
      </trkpt>
      <trkpt lat="50.68793" lon="1.92967">
        <ele>104.9</ele>
        <time>2016-05-06T10:43:49Z</time>
      </trkpt>
      <trkpt lat="50.68787" lon="1.92956">
        <ele>104.5</ele>
        <time>2016-05-06T10:43:50Z</time>
      </trkpt>
      <trkpt lat="50.68781" lon="1.92945">
        <ele>104.1</ele>
        <time>2016-05-06T10:43:51Z</time>
      </trkpt>
      <trkpt lat="50.6877" lon="1.92925">
        <ele>103.4</ele>
        <time>2016-05-06T10:43:53Z</time>
      </trkpt>
      <trkpt lat="50.68762" lon="1.92906">
        <ele>102.8</ele>
        <time>2016-05-06T10:43:55Z</time>
      </trkpt>
      <trkpt lat="50.68754" lon="1.9289">
        <ele>102.2</ele>
        <time>2016-05-06T10:43:57Z</time>
      </trkpt>
      <trkpt lat="50.68748" lon="1.92875">
        <ele>101.8</ele>
        <time>2016-05-06T10:43:59Z</time>
      </trkpt>
      <trkpt lat="50.68741" lon="1.9286">
        <ele>101.6</ele>
        <time>2016-05-06T10:44:01Z</time>
      </trkpt>
      <trkpt lat="50.68736" lon="1.92846">
        <ele>101.5</ele>
        <time>2016-05-06T10:44:03Z</time>
      </trkpt>
      <trkpt lat="50.68731" lon="1.92832">
        <ele>101.5</ele>
        <time>2016-05-06T10:44:05Z</time>
      </trkpt>
      <trkpt lat="50.68726" lon="1.92817">
        <ele>101.6</ele>
        <time>2016-05-06T10:44:07Z</time>
      </trkpt>
      <trkpt lat="50.68722" lon="1.92799">
        <ele>101.8</ele>
        <time>2016-05-06T10:44:10Z</time>
      </trkpt>
      <trkpt lat="50.68713" lon="1.92801">
        <ele>102</ele>
        <time>2016-05-06T10:44:14Z</time>
      </trkpt>
      <trkpt lat="50.68706" lon="1.92814">
        <ele>102.1</ele>
        <time>2016-05-06T10:44:17Z</time>
      </trkpt>
      <trkpt lat="50.68697" lon="1.92827">
        <ele>102.2</ele>
        <time>2016-05-06T10:44:20Z</time>
      </trkpt>
      <trkpt lat="50.68687" lon="1.92841">
        <ele>102.3</ele>
        <time>2016-05-06T10:44:23Z</time>
      </trkpt>
      <trkpt lat="50.6868" lon="1.92851">
        <ele>102.3</ele>
        <time>2016-05-06T10:44:25Z</time>
      </trkpt>
      <trkpt lat="50.68673" lon="1.92861">
        <ele>102.4</ele>
        <time>2016-05-06T10:44:27Z</time>
      </trkpt>
      <trkpt lat="50.68666" lon="1.9287">
        <ele>102.5</ele>
        <time>2016-05-06T10:44:29Z</time>
      </trkpt>
      <trkpt lat="50.68658" lon="1.92879">
        <ele>102.7</ele>
        <time>2016-05-06T10:44:31Z</time>
      </trkpt>
      <trkpt lat="50.68651" lon="1.92889">
        <ele>102.8</ele>
        <time>2016-05-06T10:44:33Z</time>
      </trkpt>
      <trkpt lat="50.68643" lon="1.92898">
        <ele>103</ele>
        <time>2016-05-06T10:44:35Z</time>
      </trkpt>
      <trkpt lat="50.68635" lon="1.92907">
        <ele>103.3</ele>
        <time>2016-05-06T10:44:37Z</time>
      </trkpt>
      <trkpt lat="50.68628" lon="1.92915">
        <ele>103.6</ele>
        <time>2016-05-06T10:44:39Z</time>
      </trkpt>
      <trkpt lat="50.6862" lon="1.92924">
        <ele>103.9</ele>
        <time>2016-05-06T10:44:41Z</time>
      </trkpt>
      <trkpt lat="50.68613" lon="1.92932">
        <ele>104.1</ele>
        <time>2016-05-06T10:44:43Z</time>
      </trkpt>
      <trkpt lat="50.68605" lon="1.9294">
        <ele>104.5</ele>
        <time>2016-05-06T10:44:45Z</time>
      </trkpt>
      <trkpt lat="50.68597" lon="1.92949">
        <ele>104.8</ele>
        <time>2016-05-06T10:44:47Z</time>
      </trkpt>
      <trkpt lat="50.68589" lon="1.92957">
        <ele>105.2</ele>
        <time>2016-05-06T10:44:49Z</time>
      </trkpt>
      <trkpt lat="50.68582" lon="1.92966">
        <ele>105.5</ele>
        <time>2016-05-06T10:44:51Z</time>
      </trkpt>
      <trkpt lat="50.68571" lon="1.92978">
        <ele>106.2</ele>
        <time>2016-05-06T10:44:54Z</time>
      </trkpt>
      <trkpt lat="50.68564" lon="1.92986">
        <ele>106.6</ele>
        <time>2016-05-06T10:44:56Z</time>
      </trkpt>
      <trkpt lat="50.68556" lon="1.92996">
        <ele>107.1</ele>
        <time>2016-05-06T10:44:58Z</time>
      </trkpt>
      <trkpt lat="50.68548" lon="1.93005">
        <ele>107.5</ele>
        <time>2016-05-06T10:45:00Z</time>
      </trkpt>
      <trkpt lat="50.6854" lon="1.93013">
        <ele>107.9</ele>
        <time>2016-05-06T10:45:02Z</time>
      </trkpt>
      <trkpt lat="50.68531" lon="1.93021">
        <ele>108.2</ele>
        <time>2016-05-06T10:45:04Z</time>
      </trkpt>
      <trkpt lat="50.68522" lon="1.93029">
        <ele>108.5</ele>
        <time>2016-05-06T10:45:06Z</time>
      </trkpt>
      <trkpt lat="50.68512" lon="1.93035">
        <ele>108.8</ele>
        <time>2016-05-06T10:45:08Z</time>
      </trkpt>
      <trkpt lat="50.68502" lon="1.93042">
        <ele>109</ele>
        <time>2016-05-06T10:45:10Z</time>
      </trkpt>
      <trkpt lat="50.68491" lon="1.93048">
        <ele>109.2</ele>
        <time>2016-05-06T10:45:12Z</time>
      </trkpt>
      <trkpt lat="50.6848" lon="1.93054">
        <ele>109.4</ele>
        <time>2016-05-06T10:45:14Z</time>
      </trkpt>
      <trkpt lat="50.68469" lon="1.93061">
        <ele>109.6</ele>
        <time>2016-05-06T10:45:16Z</time>
      </trkpt>
      <trkpt lat="50.68459" lon="1.93069">
        <ele>109.7</ele>
        <time>2016-05-06T10:45:18Z</time>
      </trkpt>
      <trkpt lat="50.6845" lon="1.93082">
        <ele>109.8</ele>
        <time>2016-05-06T10:45:20Z</time>
      </trkpt>
      <trkpt lat="50.68444" lon="1.93098">
        <ele>109.7</ele>
        <time>2016-05-06T10:45:22Z</time>
      </trkpt>
      <trkpt lat="50.6844" lon="1.93116">
        <ele>109.7</ele>
        <time>2016-05-06T10:45:24Z</time>
      </trkpt>
      <trkpt lat="50.68437" lon="1.93132">
        <ele>109.7</ele>
        <time>2016-05-06T10:45:26Z</time>
      </trkpt>
      <trkpt lat="50.68436" lon="1.93147">
        <ele>109.7</ele>
        <time>2016-05-06T10:45:28Z</time>
      </trkpt>
      <trkpt lat="50.68432" lon="1.93166">
        <ele>109.7</ele>
        <time>2016-05-06T10:45:31Z</time>
      </trkpt>
      <trkpt lat="50.68428" lon="1.93185">
        <ele>110</ele>
        <time>2016-05-06T10:45:34Z</time>
      </trkpt>
      <trkpt lat="50.68424" lon="1.932">
        <ele>110.2</ele>
        <time>2016-05-06T10:45:37Z</time>
      </trkpt>
      <trkpt lat="50.68418" lon="1.93211">
        <ele>110.5</ele>
        <time>2016-05-06T10:45:40Z</time>
      </trkpt>
      <trkpt lat="50.6841" lon="1.93219">
        <ele>110.9</ele>
        <time>2016-05-06T10:45:43Z</time>
      </trkpt>
      <trkpt lat="50.68399" lon="1.93221">
        <ele>111.3</ele>
        <time>2016-05-06T10:45:46Z</time>
      </trkpt>
      <trkpt lat="50.68387" lon="1.93217">
        <ele>111.7</ele>
        <time>2016-05-06T10:45:49Z</time>
      </trkpt>
      <trkpt lat="50.68375" lon="1.93208">
        <ele>112</ele>
        <time>2016-05-06T10:45:52Z</time>
      </trkpt>
      <trkpt lat="50.68367" lon="1.93199">
        <ele>112.1</ele>
        <time>2016-05-06T10:45:54Z</time>
      </trkpt>
      <trkpt lat="50.6836" lon="1.93188">
        <ele>112.3</ele>
        <time>2016-05-06T10:45:56Z</time>
      </trkpt>
      <trkpt lat="50.68353" lon="1.93177">
        <ele>112.5</ele>
        <time>2016-05-06T10:45:58Z</time>
      </trkpt>
      <trkpt lat="50.68345" lon="1.93163">
        <ele>112.6</ele>
        <time>2016-05-06T10:46:00Z</time>
      </trkpt>
      <trkpt lat="50.68336" lon="1.93149">
        <ele>112.8</ele>
        <time>2016-05-06T10:46:02Z</time>
      </trkpt>
      <trkpt lat="50.68323" lon="1.93139">
        <ele>112.9</ele>
        <time>2016-05-06T10:46:04Z</time>
      </trkpt>
      <trkpt lat="50.68308" lon="1.93136">
        <ele>113</ele>
        <time>2016-05-06T10:46:06Z</time>
      </trkpt>
      <trkpt lat="50.68291" lon="1.93138">
        <ele>112.9</ele>
        <time>2016-05-06T10:46:08Z</time>
      </trkpt>
      <trkpt lat="50.68282" lon="1.9314">
        <ele>112.7</ele>
        <time>2016-05-06T10:46:09Z</time>
      </trkpt>
      <trkpt lat="50.68273" lon="1.93142">
        <ele>112.5</ele>
        <time>2016-05-06T10:46:10Z</time>
      </trkpt>
      <trkpt lat="50.68264" lon="1.93142">
        <ele>112.3</ele>
        <time>2016-05-06T10:46:11Z</time>
      </trkpt>
      <trkpt lat="50.68255" lon="1.93142">
        <ele>112.1</ele>
        <time>2016-05-06T10:46:12Z</time>
      </trkpt>
      <trkpt lat="50.68246" lon="1.93139">
        <ele>111.8</ele>
        <time>2016-05-06T10:46:13Z</time>
      </trkpt>
      <trkpt lat="50.68237" lon="1.93135">
        <ele>111.6</ele>
        <time>2016-05-06T10:46:14Z</time>
      </trkpt>
      <trkpt lat="50.68229" lon="1.93128">
        <ele>111.4</ele>
        <time>2016-05-06T10:46:15Z</time>
      </trkpt>
      <trkpt lat="50.68222" lon="1.93118">
        <ele>111.2</ele>
        <time>2016-05-06T10:46:16Z</time>
      </trkpt>
      <trkpt lat="50.68217" lon="1.93107">
        <ele>110.9</ele>
        <time>2016-05-06T10:46:17Z</time>
      </trkpt>
      <trkpt lat="50.68211" lon="1.93082">
        <ele>110.3</ele>
        <time>2016-05-06T10:46:19Z</time>
      </trkpt>
      <trkpt lat="50.68207" lon="1.93056">
        <ele>109.7</ele>
        <time>2016-05-06T10:46:21Z</time>
      </trkpt>
      <trkpt lat="50.68203" lon="1.93031">
        <ele>109.1</ele>
        <time>2016-05-06T10:46:23Z</time>
      </trkpt>
      <trkpt lat="50.68198" lon="1.93007">
        <ele>108.7</ele>
        <time>2016-05-06T10:46:25Z</time>
      </trkpt>
      <trkpt lat="50.68191" lon="1.92984">
        <ele>108.4</ele>
        <time>2016-05-06T10:46:27Z</time>
      </trkpt>
      <trkpt lat="50.68181" lon="1.92964">
        <ele>108.1</ele>
        <time>2016-05-06T10:46:29Z</time>
      </trkpt>
      <trkpt lat="50.68171" lon="1.92945">
        <ele>107.9</ele>
        <time>2016-05-06T10:46:31Z</time>
      </trkpt>
      <trkpt lat="50.68162" lon="1.92929">
        <ele>107.9</ele>
        <time>2016-05-06T10:46:33Z</time>
      </trkpt>
      <trkpt lat="50.68154" lon="1.92914">
        <ele>108</ele>
        <time>2016-05-06T10:46:35Z</time>
      </trkpt>
      <trkpt lat="50.68147" lon="1.92901">
        <ele>108.2</ele>
        <time>2016-05-06T10:46:37Z</time>
      </trkpt>
      <trkpt lat="50.68141" lon="1.92889">
        <ele>108.4</ele>
        <time>2016-05-06T10:46:39Z</time>
      </trkpt>
      <trkpt lat="50.68135" lon="1.92877">
        <ele>108.6</ele>
        <time>2016-05-06T10:46:41Z</time>
      </trkpt>
      <trkpt lat="50.68129" lon="1.92866">
        <ele>108.9</ele>
        <time>2016-05-06T10:46:43Z</time>
      </trkpt>
      <trkpt lat="50.68122" lon="1.92854">
        <ele>109.2</ele>
        <time>2016-05-06T10:46:45Z</time>
      </trkpt>
      <trkpt lat="50.68116" lon="1.92843">
        <ele>109.5</ele>
        <time>2016-05-06T10:46:47Z</time>
      </trkpt>
      <trkpt lat="50.68111" lon="1.92832">
        <ele>109.8</ele>
        <time>2016-05-06T10:46:49Z</time>
      </trkpt>
      <trkpt lat="50.68106" lon="1.9282">
        <ele>110.2</ele>
        <time>2016-05-06T10:46:51Z</time>
      </trkpt>
      <trkpt lat="50.681" lon="1.92809">
        <ele>110.5</ele>
        <time>2016-05-06T10:46:53Z</time>
      </trkpt>
      <trkpt lat="50.68092" lon="1.92793">
        <ele>111.2</ele>
        <time>2016-05-06T10:46:56Z</time>
      </trkpt>
      <trkpt lat="50.68085" lon="1.92777">
        <ele>112</ele>
        <time>2016-05-06T10:46:59Z</time>
      </trkpt>
      <trkpt lat="50.68079" lon="1.92761">
        <ele>112.7</ele>
        <time>2016-05-06T10:47:02Z</time>
      </trkpt>
      <trkpt lat="50.68074" lon="1.92741">
        <ele>113.4</ele>
        <time>2016-05-06T10:47:05Z</time>
      </trkpt>
      <trkpt lat="50.68071" lon="1.92721">
        <ele>114.1</ele>
        <time>2016-05-06T10:47:08Z</time>
      </trkpt>
      <trkpt lat="50.6807" lon="1.92706">
        <ele>114.5</ele>
        <time>2016-05-06T10:47:10Z</time>
      </trkpt>
      <trkpt lat="50.68069" lon="1.92692">
        <ele>114.9</ele>
        <time>2016-05-06T10:47:12Z</time>
      </trkpt>
      <trkpt lat="50.68068" lon="1.92677">
        <ele>115.3</ele>
        <time>2016-05-06T10:47:14Z</time>
      </trkpt>
      <trkpt lat="50.68066" lon="1.92663">
        <ele>115.7</ele>
        <time>2016-05-06T10:47:16Z</time>
      </trkpt>
      <trkpt lat="50.68065" lon="1.92649">
        <ele>116.1</ele>
        <time>2016-05-06T10:47:18Z</time>
      </trkpt>
      <trkpt lat="50.68062" lon="1.92628">
        <ele>116.8</ele>
        <time>2016-05-06T10:47:21Z</time>
      </trkpt>
      <trkpt lat="50.68058" lon="1.92608">
        <ele>117.4</ele>
        <time>2016-05-06T10:47:24Z</time>
      </trkpt>
      <trkpt lat="50.68053" lon="1.92595">
        <ele>117.7</ele>
        <time>2016-05-06T10:47:26Z</time>
      </trkpt>
      <trkpt lat="50.68048" lon="1.92582">
        <ele>118.1</ele>
        <time>2016-05-06T10:47:28Z</time>
      </trkpt>
      <trkpt lat="50.68042" lon="1.92567">
        <ele>118.4</ele>
        <time>2016-05-06T10:47:30Z</time>
      </trkpt>
      <trkpt lat="50.68036" lon="1.92553">
        <ele>118.6</ele>
        <time>2016-05-06T10:47:32Z</time>
      </trkpt>
      <trkpt lat="50.6803" lon="1.92539">
        <ele>118.8</ele>
        <time>2016-05-06T10:47:34Z</time>
      </trkpt>
      <trkpt lat="50.68024" lon="1.92525">
        <ele>119</ele>
        <time>2016-05-06T10:47:36Z</time>
      </trkpt>
      <trkpt lat="50.68019" lon="1.92512">
        <ele>119.2</ele>
        <time>2016-05-06T10:47:38Z</time>
      </trkpt>
      <trkpt lat="50.68013" lon="1.92497">
        <ele>119.4</ele>
        <time>2016-05-06T10:47:40Z</time>
      </trkpt>
      <trkpt lat="50.68006" lon="1.9248">
        <ele>119.5</ele>
        <time>2016-05-06T10:47:42Z</time>
      </trkpt>
      <trkpt lat="50.67999" lon="1.92462">
        <ele>119.6</ele>
        <time>2016-05-06T10:47:44Z</time>
      </trkpt>
      <trkpt lat="50.67992" lon="1.92443">
        <ele>119.7</ele>
        <time>2016-05-06T10:47:46Z</time>
      </trkpt>
      <trkpt lat="50.67985" lon="1.92423">
        <ele>119.7</ele>
        <time>2016-05-06T10:47:48Z</time>
      </trkpt>
      <trkpt lat="50.67978" lon="1.92402">
        <ele>119.7</ele>
        <time>2016-05-06T10:47:50Z</time>
      </trkpt>
      <trkpt lat="50.67971" lon="1.92381">
        <ele>119.6</ele>
        <time>2016-05-06T10:47:52Z</time>
      </trkpt>
      <trkpt lat="50.67964" lon="1.92361">
        <ele>119.5</ele>
        <time>2016-05-06T10:47:54Z</time>
      </trkpt>
      <trkpt lat="50.67957" lon="1.92341">
        <ele>119.4</ele>
        <time>2016-05-06T10:47:56Z</time>
      </trkpt>
      <trkpt lat="50.67951" lon="1.92323">
        <ele>119.4</ele>
        <time>2016-05-06T10:47:58Z</time>
      </trkpt>
      <trkpt lat="50.67945" lon="1.92305">
        <ele>119.3</ele>
        <time>2016-05-06T10:48:00Z</time>
      </trkpt>
      <trkpt lat="50.67939" lon="1.92287">
        <ele>119.2</ele>
        <time>2016-05-06T10:48:02Z</time>
      </trkpt>
      <trkpt lat="50.67935" lon="1.92268">
        <ele>119.2</ele>
        <time>2016-05-06T10:48:04Z</time>
      </trkpt>
      <trkpt lat="50.6793" lon="1.92249">
        <ele>119.1</ele>
        <time>2016-05-06T10:48:06Z</time>
      </trkpt>
      <trkpt lat="50.67927" lon="1.92229">
        <ele>119.1</ele>
        <time>2016-05-06T10:48:08Z</time>
      </trkpt>
      <trkpt lat="50.67924" lon="1.92207">
        <ele>119.1</ele>
        <time>2016-05-06T10:48:10Z</time>
      </trkpt>
      <trkpt lat="50.67922" lon="1.92184">
        <ele>119</ele>
        <time>2016-05-06T10:48:12Z</time>
      </trkpt>
      <trkpt lat="50.6792" lon="1.92159">
        <ele>118.9</ele>
        <time>2016-05-06T10:48:14Z</time>
      </trkpt>
      <trkpt lat="50.67918" lon="1.92134">
        <ele>118.7</ele>
        <time>2016-05-06T10:48:16Z</time>
      </trkpt>
      <trkpt lat="50.67917" lon="1.92108">
        <ele>118.4</ele>
        <time>2016-05-06T10:48:18Z</time>
      </trkpt>
      <trkpt lat="50.67913" lon="1.92082">
        <ele>118</ele>
        <time>2016-05-06T10:48:20Z</time>
      </trkpt>
      <trkpt lat="50.67907" lon="1.92057">
        <ele>117.7</ele>
        <time>2016-05-06T10:48:22Z</time>
      </trkpt>
      <trkpt lat="50.67899" lon="1.92033">
        <ele>117.4</ele>
        <time>2016-05-06T10:48:24Z</time>
      </trkpt>
      <trkpt lat="50.67891" lon="1.9201">
        <ele>117.1</ele>
        <time>2016-05-06T10:48:26Z</time>
      </trkpt>
      <trkpt lat="50.67881" lon="1.91988">
        <ele>116.8</ele>
        <time>2016-05-06T10:48:28Z</time>
      </trkpt>
      <trkpt lat="50.67871" lon="1.91966">
        <ele>116.4</ele>
        <time>2016-05-06T10:48:30Z</time>
      </trkpt>
      <trkpt lat="50.67862" lon="1.91944">
        <ele>116</ele>
        <time>2016-05-06T10:48:32Z</time>
      </trkpt>
      <trkpt lat="50.67857" lon="1.91932">
        <ele>115.8</ele>
        <time>2016-05-06T10:48:33Z</time>
      </trkpt>
      <trkpt lat="50.67851" lon="1.9192">
        <ele>115.6</ele>
        <time>2016-05-06T10:48:34Z</time>
      </trkpt>
      <trkpt lat="50.67846" lon="1.91908">
        <ele>115.3</ele>
        <time>2016-05-06T10:48:35Z</time>
      </trkpt>
      <trkpt lat="50.67841" lon="1.91895">
        <ele>115.1</ele>
        <time>2016-05-06T10:48:36Z</time>
      </trkpt>
      <trkpt lat="50.67836" lon="1.91882">
        <ele>114.8</ele>
        <time>2016-05-06T10:48:37Z</time>
      </trkpt>
      <trkpt lat="50.67832" lon="1.91869">
        <ele>114.6</ele>
        <time>2016-05-06T10:48:38Z</time>
      </trkpt>
      <trkpt lat="50.67827" lon="1.91855">
        <ele>114.3</ele>
        <time>2016-05-06T10:48:39Z</time>
      </trkpt>
      <trkpt lat="50.67823" lon="1.91842">
        <ele>114</ele>
        <time>2016-05-06T10:48:40Z</time>
      </trkpt>
      <trkpt lat="50.67819" lon="1.91828">
        <ele>113.7</ele>
        <time>2016-05-06T10:48:41Z</time>
      </trkpt>
      <trkpt lat="50.67814" lon="1.91814">
        <ele>113.5</ele>
        <time>2016-05-06T10:48:42Z</time>
      </trkpt>
      <trkpt lat="50.6781" lon="1.918">
        <ele>113.1</ele>
        <time>2016-05-06T10:48:43Z</time>
      </trkpt>
      <trkpt lat="50.67805" lon="1.91785">
        <ele>112.8</ele>
        <time>2016-05-06T10:48:44Z</time>
      </trkpt>
      <trkpt lat="50.67801" lon="1.91771">
        <ele>112.6</ele>
        <time>2016-05-06T10:48:45Z</time>
      </trkpt>
      <trkpt lat="50.67796" lon="1.91756">
        <ele>112.2</ele>
        <time>2016-05-06T10:48:46Z</time>
      </trkpt>
      <trkpt lat="50.67791" lon="1.91741">
        <ele>111.8</ele>
        <time>2016-05-06T10:48:47Z</time>
      </trkpt>
      <trkpt lat="50.67787" lon="1.91726">
        <ele>111.4</ele>
        <time>2016-05-06T10:48:48Z</time>
      </trkpt>
      <trkpt lat="50.67782" lon="1.9171">
        <ele>111</ele>
        <time>2016-05-06T10:48:49Z</time>
      </trkpt>
      <trkpt lat="50.67777" lon="1.91695">
        <ele>110.7</ele>
        <time>2016-05-06T10:48:50Z</time>
      </trkpt>
      <trkpt lat="50.67771" lon="1.91679">
        <ele>110.2</ele>
        <time>2016-05-06T10:48:51Z</time>
      </trkpt>
      <trkpt lat="50.67763" lon="1.91665">
        <ele>109.8</ele>
        <time>2016-05-06T10:48:52Z</time>
      </trkpt>
      <trkpt lat="50.67754" lon="1.91652">
        <ele>109.2</ele>
        <time>2016-05-06T10:48:53Z</time>
      </trkpt>
      <trkpt lat="50.67744" lon="1.91641">
        <ele>108.6</ele>
        <time>2016-05-06T10:48:54Z</time>
      </trkpt>
      <trkpt lat="50.67733" lon="1.91631">
        <ele>108</ele>
        <time>2016-05-06T10:48:55Z</time>
      </trkpt>
      <trkpt lat="50.67722" lon="1.91621">
        <ele>107.3</ele>
        <time>2016-05-06T10:48:56Z</time>
      </trkpt>
      <trkpt lat="50.6771" lon="1.91612">
        <ele>106.6</ele>
        <time>2016-05-06T10:48:57Z</time>
      </trkpt>
      <trkpt lat="50.67699" lon="1.91603">
        <ele>105.9</ele>
        <time>2016-05-06T10:48:58Z</time>
      </trkpt>
      <trkpt lat="50.67689" lon="1.9159">
        <ele>105.2</ele>
        <time>2016-05-06T10:48:59Z</time>
      </trkpt>
      <trkpt lat="50.67682" lon="1.91574">
        <ele>104.6</ele>
        <time>2016-05-06T10:49:00Z</time>
      </trkpt>
      <trkpt lat="50.67679" lon="1.91556">
        <ele>104</ele>
        <time>2016-05-06T10:49:01Z</time>
      </trkpt>
      <trkpt lat="50.67678" lon="1.91537">
        <ele>103.4</ele>
        <time>2016-05-06T10:49:02Z</time>
      </trkpt>
      <trkpt lat="50.67676" lon="1.9152">
        <ele>102.9</ele>
        <time>2016-05-06T10:49:03Z</time>
      </trkpt>
      <trkpt lat="50.67672" lon="1.91504">
        <ele>102.3</ele>
        <time>2016-05-06T10:49:04Z</time>
      </trkpt>
      <trkpt lat="50.67667" lon="1.9149">
        <ele>101.8</ele>
        <time>2016-05-06T10:49:05Z</time>
      </trkpt>
      <trkpt lat="50.67662" lon="1.91477">
        <ele>101.4</ele>
        <time>2016-05-06T10:49:06Z</time>
      </trkpt>
      <trkpt lat="50.67657" lon="1.91465">
        <ele>101</ele>
        <time>2016-05-06T10:49:07Z</time>
      </trkpt>
      <trkpt lat="50.67649" lon="1.91443">
        <ele>100.3</ele>
        <time>2016-05-06T10:49:09Z</time>
      </trkpt>
      <trkpt lat="50.67641" lon="1.91423">
        <ele>99.8</ele>
        <time>2016-05-06T10:49:11Z</time>
      </trkpt>
      <trkpt lat="50.67637" lon="1.91404">
        <ele>99.4</ele>
        <time>2016-05-06T10:49:13Z</time>
      </trkpt>
      <trkpt lat="50.67633" lon="1.91386">
        <ele>99.2</ele>
        <time>2016-05-06T10:49:15Z</time>
      </trkpt>
      <trkpt lat="50.67631" lon="1.91371">
        <ele>99</ele>
        <time>2016-05-06T10:49:17Z</time>
      </trkpt>
      <trkpt lat="50.67628" lon="1.9135">
        <ele>98.9</ele>
        <time>2016-05-06T10:49:20Z</time>
      </trkpt>
      <trkpt lat="50.67628" lon="1.9133">
        <ele>99.1</ele>
        <time>2016-05-06T10:49:23Z</time>
      </trkpt>
      <trkpt lat="50.67629" lon="1.9131">
        <ele>99.5</ele>
        <time>2016-05-06T10:49:26Z</time>
      </trkpt>
      <trkpt lat="50.67631" lon="1.9129">
        <ele>99.7</ele>
        <time>2016-05-06T10:49:29Z</time>
      </trkpt>
      <trkpt lat="50.67632" lon="1.91272">
        <ele>100.5</ele>
        <time>2016-05-06T10:49:32Z</time>
      </trkpt>
      <trkpt lat="50.67633" lon="1.91253">
        <ele>101.2</ele>
        <time>2016-05-06T10:49:35Z</time>
      </trkpt>
      <trkpt lat="50.6763" lon="1.91237">
        <ele>101.8</ele>
        <time>2016-05-06T10:49:38Z</time>
      </trkpt>
      <trkpt lat="50.67621" lon="1.91229">
        <ele>102.3</ele>
        <time>2016-05-06T10:49:41Z</time>
      </trkpt>
      <trkpt lat="50.67609" lon="1.91232">
        <ele>102.8</ele>
        <time>2016-05-06T10:49:44Z</time>
      </trkpt>
      <trkpt lat="50.67599" lon="1.91236">
        <ele>103.1</ele>
        <time>2016-05-06T10:49:46Z</time>
      </trkpt>
      <trkpt lat="50.6759" lon="1.9124">
        <ele>103.4</ele>
        <time>2016-05-06T10:49:48Z</time>
      </trkpt>
      <trkpt lat="50.67581" lon="1.91245">
        <ele>103.7</ele>
        <time>2016-05-06T10:49:50Z</time>
      </trkpt>
      <trkpt lat="50.67572" lon="1.9125">
        <ele>103.9</ele>
        <time>2016-05-06T10:49:52Z</time>
      </trkpt>
      <trkpt lat="50.67563" lon="1.91255">
        <ele>104.1</ele>
        <time>2016-05-06T10:49:54Z</time>
      </trkpt>
      <trkpt lat="50.67554" lon="1.9126">
        <ele>104.3</ele>
        <time>2016-05-06T10:49:56Z</time>
      </trkpt>
      <trkpt lat="50.67545" lon="1.91265">
        <ele>104.5</ele>
        <time>2016-05-06T10:49:58Z</time>
      </trkpt>
      <trkpt lat="50.67536" lon="1.9127">
        <ele>104.6</ele>
        <time>2016-05-06T10:50:00Z</time>
      </trkpt>
      <trkpt lat="50.67526" lon="1.91274">
        <ele>104.8</ele>
        <time>2016-05-06T10:50:02Z</time>
      </trkpt>
      <trkpt lat="50.67517" lon="1.91278">
        <ele>105</ele>
        <time>2016-05-06T10:50:04Z</time>
      </trkpt>
      <trkpt lat="50.67508" lon="1.91281">
        <ele>105.1</ele>
        <time>2016-05-06T10:50:06Z</time>
      </trkpt>
      <trkpt lat="50.67499" lon="1.91283">
        <ele>105.3</ele>
        <time>2016-05-06T10:50:08Z</time>
      </trkpt>
      <trkpt lat="50.6749" lon="1.91282">
        <ele>105.6</ele>
        <time>2016-05-06T10:50:10Z</time>
      </trkpt>
      <trkpt lat="50.67477" lon="1.9128">
        <ele>105.9</ele>
        <time>2016-05-06T10:50:13Z</time>
      </trkpt>
      <trkpt lat="50.67465" lon="1.91275">
        <ele>106.3</ele>
        <time>2016-05-06T10:50:16Z</time>
      </trkpt>
      <trkpt lat="50.67453" lon="1.91271">
        <ele>106.9</ele>
        <time>2016-05-06T10:50:19Z</time>
      </trkpt>
      <trkpt lat="50.67443" lon="1.91267">
        <ele>107.5</ele>
        <time>2016-05-06T10:50:22Z</time>
      </trkpt>
      <trkpt lat="50.67432" lon="1.91263">
        <ele>108.1</ele>
        <time>2016-05-06T10:50:25Z</time>
      </trkpt>
      <trkpt lat="50.6742" lon="1.91258">
        <ele>108.8</ele>
        <time>2016-05-06T10:50:28Z</time>
      </trkpt>
      <trkpt lat="50.67409" lon="1.91254">
        <ele>109.7</ele>
        <time>2016-05-06T10:50:31Z</time>
      </trkpt>
      <trkpt lat="50.67398" lon="1.91249">
        <ele>110.5</ele>
        <time>2016-05-06T10:50:34Z</time>
      </trkpt>
      <trkpt lat="50.67387" lon="1.91245">
        <ele>111.4</ele>
        <time>2016-05-06T10:50:37Z</time>
      </trkpt>
      <trkpt lat="50.67376" lon="1.9124">
        <ele>112.3</ele>
        <time>2016-05-06T10:50:40Z</time>
      </trkpt>
      <trkpt lat="50.67365" lon="1.91236">
        <ele>113.2</ele>
        <time>2016-05-06T10:50:43Z</time>
      </trkpt>
      <trkpt lat="50.67354" lon="1.91232">
        <ele>114.2</ele>
        <time>2016-05-06T10:50:46Z</time>
      </trkpt>
      <trkpt lat="50.67343" lon="1.91228">
        <ele>115.2</ele>
        <time>2016-05-06T10:50:49Z</time>
      </trkpt>
      <trkpt lat="50.67332" lon="1.91223">
        <ele>116.1</ele>
        <time>2016-05-06T10:50:52Z</time>
      </trkpt>
      <trkpt lat="50.67321" lon="1.91218">
        <ele>117.1</ele>
        <time>2016-05-06T10:50:55Z</time>
      </trkpt>
      <trkpt lat="50.6731" lon="1.91214">
        <ele>118</ele>
        <time>2016-05-06T10:50:58Z</time>
      </trkpt>
      <trkpt lat="50.67298" lon="1.9121">
        <ele>119</ele>
        <time>2016-05-06T10:51:01Z</time>
      </trkpt>
      <trkpt lat="50.67287" lon="1.91205">
        <ele>119.9</ele>
        <time>2016-05-06T10:51:04Z</time>
      </trkpt>
      <trkpt lat="50.67275" lon="1.91201">
        <ele>121</ele>
        <time>2016-05-06T10:51:07Z</time>
      </trkpt>
      <trkpt lat="50.67263" lon="1.91199">
        <ele>121.9</ele>
        <time>2016-05-06T10:51:10Z</time>
      </trkpt>
      <trkpt lat="50.67254" lon="1.912">
        <ele>122.6</ele>
        <time>2016-05-06T10:51:12Z</time>
      </trkpt>
      <trkpt lat="50.67245" lon="1.91203">
        <ele>123.2</ele>
        <time>2016-05-06T10:51:14Z</time>
      </trkpt>
      <trkpt lat="50.67236" lon="1.91209">
        <ele>123.8</ele>
        <time>2016-05-06T10:51:16Z</time>
      </trkpt>
      <trkpt lat="50.67227" lon="1.91218">
        <ele>124.3</ele>
        <time>2016-05-06T10:51:18Z</time>
      </trkpt>
      <trkpt lat="50.67218" lon="1.91228">
        <ele>124.7</ele>
        <time>2016-05-06T10:51:20Z</time>
      </trkpt>
      <trkpt lat="50.67209" lon="1.91241">
        <ele>125.1</ele>
        <time>2016-05-06T10:51:22Z</time>
      </trkpt>
      <trkpt lat="50.67199" lon="1.91255">
        <ele>125.3</ele>
        <time>2016-05-06T10:51:24Z</time>
      </trkpt>
      <trkpt lat="50.67188" lon="1.9127">
        <ele>125.4</ele>
        <time>2016-05-06T10:51:26Z</time>
      </trkpt>
      <trkpt lat="50.67175" lon="1.91287">
        <ele>125.3</ele>
        <time>2016-05-06T10:51:28Z</time>
      </trkpt>
      <trkpt lat="50.67168" lon="1.91297">
        <ele>125.2</ele>
        <time>2016-05-06T10:51:29Z</time>
      </trkpt>
      <trkpt lat="50.67161" lon="1.91307">
        <ele>125</ele>
        <time>2016-05-06T10:51:30Z</time>
      </trkpt>
      <trkpt lat="50.67154" lon="1.91316">
        <ele>124.8</ele>
        <time>2016-05-06T10:51:31Z</time>
      </trkpt>
      <trkpt lat="50.67147" lon="1.91326">
        <ele>124.6</ele>
        <time>2016-05-06T10:51:32Z</time>
      </trkpt>
      <trkpt lat="50.6714" lon="1.91336">
        <ele>124.4</ele>
        <time>2016-05-06T10:51:33Z</time>
      </trkpt>
      <trkpt lat="50.67133" lon="1.91345">
        <ele>124.2</ele>
        <time>2016-05-06T10:51:34Z</time>
      </trkpt>
      <trkpt lat="50.6712" lon="1.91363">
        <ele>123.2</ele>
        <time>2016-05-06T10:51:36Z</time>
      </trkpt>
      <trkpt lat="50.6711" lon="1.9138">
        <ele>122.9</ele>
        <time>2016-05-06T10:51:38Z</time>
      </trkpt>
      <trkpt lat="50.67101" lon="1.91396">
        <ele>122.7</ele>
        <time>2016-05-06T10:51:40Z</time>
      </trkpt>
      <trkpt lat="50.67095" lon="1.91411">
        <ele>122.5</ele>
        <time>2016-05-06T10:51:42Z</time>
      </trkpt>
      <trkpt lat="50.67087" lon="1.91427">
        <ele>122.3</ele>
        <time>2016-05-06T10:51:45Z</time>
      </trkpt>
      <trkpt lat="50.67075" lon="1.91431">
        <ele>122.2</ele>
        <time>2016-05-06T10:51:49Z</time>
      </trkpt>
      <trkpt lat="50.67067" lon="1.91425">
        <ele>122.5</ele>
        <time>2016-05-06T10:51:52Z</time>
      </trkpt>
      <trkpt lat="50.6706" lon="1.91414">
        <ele>122.8</ele>
        <time>2016-05-06T10:51:55Z</time>
      </trkpt>
      <trkpt lat="50.67053" lon="1.91404">
        <ele>123.2</ele>
        <time>2016-05-06T10:51:58Z</time>
      </trkpt>
      <trkpt lat="50.67045" lon="1.91395">
        <ele>123.6</ele>
        <time>2016-05-06T10:52:01Z</time>
      </trkpt>
      <trkpt lat="50.67038" lon="1.91386">
        <ele>124.1</ele>
        <time>2016-05-06T10:52:04Z</time>
      </trkpt>
      <trkpt lat="50.67029" lon="1.91373">
        <ele>124.9</ele>
        <time>2016-05-06T10:52:08Z</time>
      </trkpt>
      <trkpt lat="50.67021" lon="1.91363">
        <ele>125.5</ele>
        <time>2016-05-06T10:52:11Z</time>
      </trkpt>
      <trkpt lat="50.67014" lon="1.91355">
        <ele>126.1</ele>
        <time>2016-05-06T10:52:14Z</time>
      </trkpt>
      <trkpt lat="50.67006" lon="1.91346">
        <ele>126.7</ele>
        <time>2016-05-06T10:52:17Z</time>
      </trkpt>
      <trkpt lat="50.66998" lon="1.91335">
        <ele>127.4</ele>
        <time>2016-05-06T10:52:20Z</time>
      </trkpt>
      <trkpt lat="50.66989" lon="1.91325">
        <ele>127.9</ele>
        <time>2016-05-06T10:52:23Z</time>
      </trkpt>
      <trkpt lat="50.6698" lon="1.91314">
        <ele>128.5</ele>
        <time>2016-05-06T10:52:26Z</time>
      </trkpt>
      <trkpt lat="50.6697" lon="1.91302">
        <ele>129.2</ele>
        <time>2016-05-06T10:52:29Z</time>
      </trkpt>
      <trkpt lat="50.66961" lon="1.9129">
        <ele>129.9</ele>
        <time>2016-05-06T10:52:32Z</time>
      </trkpt>
      <trkpt lat="50.66951" lon="1.91279">
        <ele>130.4</ele>
        <time>2016-05-06T10:52:35Z</time>
      </trkpt>
      <trkpt lat="50.66942" lon="1.91267">
        <ele>131.1</ele>
        <time>2016-05-06T10:52:38Z</time>
      </trkpt>
      <trkpt lat="50.66933" lon="1.91257">
        <ele>131.8</ele>
        <time>2016-05-06T10:52:41Z</time>
      </trkpt>
      <trkpt lat="50.66924" lon="1.91248">
        <ele>132.5</ele>
        <time>2016-05-06T10:52:44Z</time>
      </trkpt>
      <trkpt lat="50.66915" lon="1.91238">
        <ele>133.2</ele>
        <time>2016-05-06T10:52:47Z</time>
      </trkpt>
      <trkpt lat="50.66907" lon="1.91228">
        <ele>133.9</ele>
        <time>2016-05-06T10:52:50Z</time>
      </trkpt>
      <trkpt lat="50.66902" lon="1.91215">
        <ele>134.6</ele>
        <time>2016-05-06T10:52:53Z</time>
      </trkpt>
      <trkpt lat="50.669" lon="1.91197">
        <ele>135.6</ele>
        <time>2016-05-06T10:52:57Z</time>
      </trkpt>
      <trkpt lat="50.669" lon="1.9118">
        <ele>136.7</ele>
        <time>2016-05-06T10:53:01Z</time>
      </trkpt>
      <trkpt lat="50.669" lon="1.91164">
        <ele>137.8</ele>
        <time>2016-05-06T10:53:05Z</time>
      </trkpt>
      <trkpt lat="50.66901" lon="1.91148">
        <ele>138.9</ele>
        <time>2016-05-06T10:53:09Z</time>
      </trkpt>
      <trkpt lat="50.66901" lon="1.91132">
        <ele>140</ele>
        <time>2016-05-06T10:53:13Z</time>
      </trkpt>
      <trkpt lat="50.66901" lon="1.91116">
        <ele>141</ele>
        <time>2016-05-06T10:53:17Z</time>
      </trkpt>
      <trkpt lat="50.66902" lon="1.911">
        <ele>142</ele>
        <time>2016-05-06T10:53:21Z</time>
      </trkpt>
      <trkpt lat="50.66902" lon="1.91085">
        <ele>143.1</ele>
        <time>2016-05-06T10:53:25Z</time>
      </trkpt>
      <trkpt lat="50.66904" lon="1.9107">
        <ele>144</ele>
        <time>2016-05-06T10:53:29Z</time>
      </trkpt>
      <trkpt lat="50.66906" lon="1.91054">
        <ele>145.3</ele>
        <time>2016-05-06T10:53:33Z</time>
      </trkpt>
      <trkpt lat="50.6691" lon="1.91041">
        <ele>146.4</ele>
        <time>2016-05-06T10:53:37Z</time>
      </trkpt>
      <trkpt lat="50.66914" lon="1.91027">
        <ele>147.3</ele>
        <time>2016-05-06T10:53:41Z</time>
      </trkpt>
      <trkpt lat="50.66918" lon="1.91014">
        <ele>148.2</ele>
        <time>2016-05-06T10:53:45Z</time>
      </trkpt>
      <trkpt lat="50.66921" lon="1.90998">
        <ele>149.2</ele>
        <time>2016-05-06T10:53:49Z</time>
      </trkpt>
      <trkpt lat="50.66926" lon="1.90984">
        <ele>150.3</ele>
        <time>2016-05-06T10:53:53Z</time>
      </trkpt>
      <trkpt lat="50.66929" lon="1.9097">
        <ele>151.3</ele>
        <time>2016-05-06T10:53:57Z</time>
      </trkpt>
      <trkpt lat="50.66933" lon="1.90956">
        <ele>152.3</ele>
        <time>2016-05-06T10:54:01Z</time>
      </trkpt>
      <trkpt lat="50.66937" lon="1.9094">
        <ele>153.3</ele>
        <time>2016-05-06T10:54:05Z</time>
      </trkpt>
      <trkpt lat="50.66941" lon="1.90924">
        <ele>154.4</ele>
        <time>2016-05-06T10:54:09Z</time>
      </trkpt>
      <trkpt lat="50.66946" lon="1.90908">
        <ele>155.4</ele>
        <time>2016-05-06T10:54:13Z</time>
      </trkpt>
      <trkpt lat="50.6695" lon="1.90892">
        <ele>156.4</ele>
        <time>2016-05-06T10:54:17Z</time>
      </trkpt>
      <trkpt lat="50.66954" lon="1.90876">
        <ele>157.4</ele>
        <time>2016-05-06T10:54:21Z</time>
      </trkpt>
      <trkpt lat="50.66958" lon="1.9086">
        <ele>158.3</ele>
        <time>2016-05-06T10:54:25Z</time>
      </trkpt>
      <trkpt lat="50.66962" lon="1.90845">
        <ele>159.3</ele>
        <time>2016-05-06T10:54:29Z</time>
      </trkpt>
      <trkpt lat="50.66967" lon="1.90829">
        <ele>160.2</ele>
        <time>2016-05-06T10:54:33Z</time>
      </trkpt>
      <trkpt lat="50.66966" lon="1.90813">
        <ele>161.1</ele>
        <time>2016-05-06T10:54:37Z</time>
      </trkpt>
      <trkpt lat="50.6696" lon="1.90802">
        <ele>162</ele>
        <time>2016-05-06T10:54:41Z</time>
      </trkpt>
      <trkpt lat="50.6695" lon="1.90801">
        <ele>163.4</ele>
        <time>2016-05-06T10:54:46Z</time>
      </trkpt>
      <trkpt lat="50.66942" lon="1.90813">
        <ele>164.8</ele>
        <time>2016-05-06T10:54:51Z</time>
      </trkpt>
      <trkpt lat="50.66935" lon="1.90824">
        <ele>166</ele>
        <time>2016-05-06T10:54:55Z</time>
      </trkpt>
      <trkpt lat="50.6693" lon="1.90838">
        <ele>167.2</ele>
        <time>2016-05-06T10:54:59Z</time>
      </trkpt>
      <trkpt lat="50.66925" lon="1.9085">
        <ele>168</ele>
        <time>2016-05-06T10:55:02Z</time>
      </trkpt>
      <trkpt lat="50.66917" lon="1.90864">
        <ele>169.2</ele>
        <time>2016-05-06T10:55:06Z</time>
      </trkpt>
      <trkpt lat="50.6691" lon="1.90878">
        <ele>170.5</ele>
        <time>2016-05-06T10:55:10Z</time>
      </trkpt>
      <trkpt lat="50.66903" lon="1.90891">
        <ele>171.7</ele>
        <time>2016-05-06T10:55:14Z</time>
      </trkpt>
      <trkpt lat="50.66895" lon="1.90903">
        <ele>172.8</ele>
        <time>2016-05-06T10:55:18Z</time>
      </trkpt>
      <trkpt lat="50.66887" lon="1.90914">
        <ele>173.8</ele>
        <time>2016-05-06T10:55:22Z</time>
      </trkpt>
      <trkpt lat="50.66879" lon="1.90927">
        <ele>174.9</ele>
        <time>2016-05-06T10:55:26Z</time>
      </trkpt>
      <trkpt lat="50.66872" lon="1.90941">
        <ele>176</ele>
        <time>2016-05-06T10:55:30Z</time>
      </trkpt>
      <trkpt lat="50.66866" lon="1.90952">
        <ele>176.9</ele>
        <time>2016-05-06T10:55:33Z</time>
      </trkpt>
      <trkpt lat="50.66858" lon="1.90966">
        <ele>178</ele>
        <time>2016-05-06T10:55:37Z</time>
      </trkpt>
      <trkpt lat="50.66849" lon="1.90979">
        <ele>179.1</ele>
        <time>2016-05-06T10:55:41Z</time>
      </trkpt>
      <trkpt lat="50.6684" lon="1.9099">
        <ele>180.3</ele>
        <time>2016-05-06T10:55:45Z</time>
      </trkpt>
      <trkpt lat="50.6683" lon="1.90992">
        <ele>181.3</ele>
        <time>2016-05-06T10:55:49Z</time>
      </trkpt>
      <trkpt lat="50.66821" lon="1.90983">
        <ele>182.7</ele>
        <time>2016-05-06T10:55:54Z</time>
      </trkpt>
      <trkpt lat="50.66822" lon="1.90966">
        <ele>184.1</ele>
        <time>2016-05-06T10:55:59Z</time>
      </trkpt>
      <trkpt lat="50.66825" lon="1.9095">
        <ele>185.1</ele>
        <time>2016-05-06T10:56:03Z</time>
      </trkpt>
      <trkpt lat="50.66828" lon="1.90933">
        <ele>186.2</ele>
        <time>2016-05-06T10:56:07Z</time>
      </trkpt>
      <trkpt lat="50.6683" lon="1.90916">
        <ele>187.2</ele>
        <time>2016-05-06T10:56:11Z</time>
      </trkpt>
      <trkpt lat="50.66831" lon="1.90899">
        <ele>188.3</ele>
        <time>2016-05-06T10:56:15Z</time>
      </trkpt>
      <trkpt lat="50.66831" lon="1.9088">
        <ele>189.3</ele>
        <time>2016-05-06T10:56:19Z</time>
      </trkpt>
      <trkpt lat="50.66829" lon="1.90864">
        <ele>190.3</ele>
        <time>2016-05-06T10:56:23Z</time>
      </trkpt>
      <trkpt lat="50.66823" lon="1.9085">
        <ele>191.4</ele>
        <time>2016-05-06T10:56:27Z</time>
      </trkpt>
      <trkpt lat="50.66815" lon="1.9084">
        <ele>192.1</ele>
        <time>2016-05-06T10:56:30Z</time>
      </trkpt>
      <trkpt lat="50.66807" lon="1.90832">
        <ele>193</ele>
        <time>2016-05-06T10:56:33Z</time>
      </trkpt>
      <trkpt lat="50.66798" lon="1.90824">
        <ele>193.7</ele>
        <time>2016-05-06T10:56:36Z</time>
      </trkpt>
      <trkpt lat="50.66788" lon="1.90815">
        <ele>194.4</ele>
        <time>2016-05-06T10:56:39Z</time>
      </trkpt>
      <trkpt lat="50.66776" lon="1.90806">
        <ele>195.1</ele>
        <time>2016-05-06T10:56:42Z</time>
      </trkpt>
      <trkpt lat="50.66768" lon="1.908">
        <ele>195.5</ele>
        <time>2016-05-06T10:56:44Z</time>
      </trkpt>
      <trkpt lat="50.6676" lon="1.90792">
        <ele>196</ele>
        <time>2016-05-06T10:56:46Z</time>
      </trkpt>
      <trkpt lat="50.66752" lon="1.90783">
        <ele>196.4</ele>
        <time>2016-05-06T10:56:48Z</time>
      </trkpt>
      <trkpt lat="50.66744" lon="1.90773">
        <ele>196.7</ele>
        <time>2016-05-06T10:56:50Z</time>
      </trkpt>
      <trkpt lat="50.66735" lon="1.90763">
        <ele>197</ele>
        <time>2016-05-06T10:56:52Z</time>
      </trkpt>
      <trkpt lat="50.66726" lon="1.90751">
        <ele>197.3</ele>
        <time>2016-05-06T10:56:54Z</time>
      </trkpt>
      <trkpt lat="50.66717" lon="1.90739">
        <ele>197.6</ele>
        <time>2016-05-06T10:56:56Z</time>
      </trkpt>
      <trkpt lat="50.66709" lon="1.90725">
        <ele>197.9</ele>
        <time>2016-05-06T10:56:58Z</time>
      </trkpt>
      <trkpt lat="50.667" lon="1.90712">
        <ele>198.2</ele>
        <time>2016-05-06T10:57:00Z</time>
      </trkpt>
      <trkpt lat="50.66692" lon="1.90698">
        <ele>198.4</ele>
        <time>2016-05-06T10:57:02Z</time>
      </trkpt>
      <trkpt lat="50.66684" lon="1.90685">
        <ele>198.7</ele>
        <time>2016-05-06T10:57:04Z</time>
      </trkpt>
      <trkpt lat="50.66675" lon="1.90672">
        <ele>198.9</ele>
        <time>2016-05-06T10:57:06Z</time>
      </trkpt>
      <trkpt lat="50.66665" lon="1.90661">
        <ele>199.1</ele>
        <time>2016-05-06T10:57:08Z</time>
      </trkpt>
      <trkpt lat="50.66655" lon="1.90649">
        <ele>199.2</ele>
        <time>2016-05-06T10:57:10Z</time>
      </trkpt>
      <trkpt lat="50.66645" lon="1.90638">
        <ele>199.4</ele>
        <time>2016-05-06T10:57:12Z</time>
      </trkpt>
      <trkpt lat="50.66635" lon="1.90627">
        <ele>199.6</ele>
        <time>2016-05-06T10:57:14Z</time>
      </trkpt>
      <trkpt lat="50.66624" lon="1.90618">
        <ele>199.8</ele>
        <time>2016-05-06T10:57:16Z</time>
      </trkpt>
      <trkpt lat="50.66612" lon="1.90612">
        <ele>200</ele>
        <time>2016-05-06T10:57:18Z</time>
      </trkpt>
      <trkpt lat="50.66601" lon="1.90607">
        <ele>200.2</ele>
        <time>2016-05-06T10:57:20Z</time>
      </trkpt>
      <trkpt lat="50.66589" lon="1.90603">
        <ele>200.4</ele>
        <time>2016-05-06T10:57:22Z</time>
      </trkpt>
      <trkpt lat="50.66577" lon="1.906">
        <ele>200.6</ele>
        <time>2016-05-06T10:57:24Z</time>
      </trkpt>
      <trkpt lat="50.66565" lon="1.90597">
        <ele>200.8</ele>
        <time>2016-05-06T10:57:26Z</time>
      </trkpt>
      <trkpt lat="50.66554" lon="1.90594">
        <ele>200.9</ele>
        <time>2016-05-06T10:57:28Z</time>
      </trkpt>
      <trkpt lat="50.66544" lon="1.90593">
        <ele>201</ele>
        <time>2016-05-06T10:57:30Z</time>
      </trkpt>
      <trkpt lat="50.66533" lon="1.90593">
        <ele>201.1</ele>
        <time>2016-05-06T10:57:32Z</time>
      </trkpt>
      <trkpt lat="50.66521" lon="1.90591">
        <ele>201.2</ele>
        <time>2016-05-06T10:57:34Z</time>
      </trkpt>
      <trkpt lat="50.66509" lon="1.90588">
        <ele>201.3</ele>
        <time>2016-05-06T10:57:36Z</time>
      </trkpt>
      <trkpt lat="50.66498" lon="1.90586">
        <ele>201.6</ele>
        <time>2016-05-06T10:57:38Z</time>
      </trkpt>
      <trkpt lat="50.66486" lon="1.90582">
        <ele>201.9</ele>
        <time>2016-05-06T10:57:40Z</time>
      </trkpt>
      <trkpt lat="50.66475" lon="1.90578">
        <ele>202</ele>
        <time>2016-05-06T10:57:42Z</time>
      </trkpt>
      <trkpt lat="50.66464" lon="1.90573">
        <ele>202.2</ele>
        <time>2016-05-06T10:57:44Z</time>
      </trkpt>
      <trkpt lat="50.66452" lon="1.90568">
        <ele>202.4</ele>
        <time>2016-05-06T10:57:46Z</time>
      </trkpt>
      <trkpt lat="50.66441" lon="1.90563">
        <ele>202.5</ele>
        <time>2016-05-06T10:57:48Z</time>
      </trkpt>
      <trkpt lat="50.66429" lon="1.90557">
        <ele>202.4</ele>
        <time>2016-05-06T10:57:50Z</time>
      </trkpt>
      <trkpt lat="50.66417" lon="1.90551">
        <ele>202.4</ele>
        <time>2016-05-06T10:57:52Z</time>
      </trkpt>
      <trkpt lat="50.66405" lon="1.90544">
        <ele>202.4</ele>
        <time>2016-05-06T10:57:54Z</time>
      </trkpt>
      <trkpt lat="50.66394" lon="1.90538">
        <ele>202.4</ele>
        <time>2016-05-06T10:57:56Z</time>
      </trkpt>
      <trkpt lat="50.66381" lon="1.90531">
        <ele>202.4</ele>
        <time>2016-05-06T10:57:58Z</time>
      </trkpt>
      <trkpt lat="50.66367" lon="1.90524">
        <ele>202.4</ele>
        <time>2016-05-06T10:58:00Z</time>
      </trkpt>
      <trkpt lat="50.66353" lon="1.90517">
        <ele>202.3</ele>
        <time>2016-05-06T10:58:02Z</time>
      </trkpt>
      <trkpt lat="50.66339" lon="1.9051">
        <ele>202.2</ele>
        <time>2016-05-06T10:58:04Z</time>
      </trkpt>
      <trkpt lat="50.66325" lon="1.90504">
        <ele>202</ele>
        <time>2016-05-06T10:58:06Z</time>
      </trkpt>
      <trkpt lat="50.66311" lon="1.90498">
        <ele>201.8</ele>
        <time>2016-05-06T10:58:08Z</time>
      </trkpt>
      <trkpt lat="50.66297" lon="1.90488">
        <ele>201.6</ele>
        <time>2016-05-06T10:58:10Z</time>
      </trkpt>
      <trkpt lat="50.66284" lon="1.90478">
        <ele>201.3</ele>
        <time>2016-05-06T10:58:12Z</time>
      </trkpt>
      <trkpt lat="50.6627" lon="1.90468">
        <ele>201</ele>
        <time>2016-05-06T10:58:14Z</time>
      </trkpt>
      <trkpt lat="50.66256" lon="1.90456">
        <ele>200.7</ele>
        <time>2016-05-06T10:58:16Z</time>
      </trkpt>
      <trkpt lat="50.66242" lon="1.90444">
        <ele>200.3</ele>
        <time>2016-05-06T10:58:18Z</time>
      </trkpt>
      <trkpt lat="50.6623" lon="1.90432">
        <ele>199.9</ele>
        <time>2016-05-06T10:58:20Z</time>
      </trkpt>
      <trkpt lat="50.66223" lon="1.90418">
        <ele>199.5</ele>
        <time>2016-05-06T10:58:22Z</time>
      </trkpt>
      <trkpt lat="50.66226" lon="1.90403">
        <ele>199</ele>
        <time>2016-05-06T10:58:24Z</time>
      </trkpt>
      <trkpt lat="50.66231" lon="1.90389">
        <ele>198.6</ele>
        <time>2016-05-06T10:58:26Z</time>
      </trkpt>
      <trkpt lat="50.66237" lon="1.90376">
        <ele>198.2</ele>
        <time>2016-05-06T10:58:28Z</time>
      </trkpt>
      <trkpt lat="50.66242" lon="1.90363">
        <ele>197.9</ele>
        <time>2016-05-06T10:58:30Z</time>
      </trkpt>
      <trkpt lat="50.66247" lon="1.9035">
        <ele>197.7</ele>
        <time>2016-05-06T10:58:32Z</time>
      </trkpt>
      <trkpt lat="50.66253" lon="1.90336">
        <ele>197.5</ele>
        <time>2016-05-06T10:58:34Z</time>
      </trkpt>
      <trkpt lat="50.66259" lon="1.90322">
        <ele>197.4</ele>
        <time>2016-05-06T10:58:36Z</time>
      </trkpt>
      <trkpt lat="50.66265" lon="1.90307">
        <ele>197.3</ele>
        <time>2016-05-06T10:58:38Z</time>
      </trkpt>
      <trkpt lat="50.66271" lon="1.90293">
        <ele>197.3</ele>
        <time>2016-05-06T10:58:40Z</time>
      </trkpt>
      <trkpt lat="50.66277" lon="1.90279">
        <ele>197.4</ele>
        <time>2016-05-06T10:58:42Z</time>
      </trkpt>
      <trkpt lat="50.66285" lon="1.90267">
        <ele>197.5</ele>
        <time>2016-05-06T10:58:44Z</time>
      </trkpt>
      <trkpt lat="50.66293" lon="1.90255">
        <ele>197.8</ele>
        <time>2016-05-06T10:58:46Z</time>
      </trkpt>
      <trkpt lat="50.66301" lon="1.90242">
        <ele>198.1</ele>
        <time>2016-05-06T10:58:48Z</time>
      </trkpt>
      <trkpt lat="50.66308" lon="1.90228">
        <ele>198.4</ele>
        <time>2016-05-06T10:58:50Z</time>
      </trkpt>
      <trkpt lat="50.66315" lon="1.90214">
        <ele>198.7</ele>
        <time>2016-05-06T10:58:52Z</time>
      </trkpt>
      <trkpt lat="50.66322" lon="1.902">
        <ele>198.9</ele>
        <time>2016-05-06T10:58:54Z</time>
      </trkpt>
      <trkpt lat="50.66329" lon="1.90185">
        <ele>199.2</ele>
        <time>2016-05-06T10:58:56Z</time>
      </trkpt>
      <trkpt lat="50.66335" lon="1.9017">
        <ele>199.4</ele>
        <time>2016-05-06T10:58:58Z</time>
      </trkpt>
      <trkpt lat="50.66342" lon="1.90156">
        <ele>199.6</ele>
        <time>2016-05-06T10:59:00Z</time>
      </trkpt>
      <trkpt lat="50.66347" lon="1.90142">
        <ele>199.9</ele>
        <time>2016-05-06T10:59:02Z</time>
      </trkpt>
      <trkpt lat="50.6635" lon="1.90127">
        <ele>200.1</ele>
        <time>2016-05-06T10:59:04Z</time>
      </trkpt>
      <trkpt lat="50.66352" lon="1.90111">
        <ele>200.3</ele>
        <time>2016-05-06T10:59:06Z</time>
      </trkpt>
      <trkpt lat="50.66353" lon="1.90093">
        <ele>200.5</ele>
        <time>2016-05-06T10:59:08Z</time>
      </trkpt>
      <trkpt lat="50.66351" lon="1.90074">
        <ele>200.7</ele>
        <time>2016-05-06T10:59:10Z</time>
      </trkpt>
      <trkpt lat="50.66347" lon="1.90055">
        <ele>200.8</ele>
        <time>2016-05-06T10:59:12Z</time>
      </trkpt>
      <trkpt lat="50.66341" lon="1.90034">
        <ele>200.9</ele>
        <time>2016-05-06T10:59:14Z</time>
      </trkpt>
      <trkpt lat="50.66336" lon="1.90014">
        <ele>201.1</ele>
        <time>2016-05-06T10:59:16Z</time>
      </trkpt>
      <trkpt lat="50.66331" lon="1.89994">
        <ele>201.2</ele>
        <time>2016-05-06T10:59:18Z</time>
      </trkpt>
      <trkpt lat="50.66326" lon="1.89974">
        <ele>201.3</ele>
        <time>2016-05-06T10:59:20Z</time>
      </trkpt>
      <trkpt lat="50.6632" lon="1.89954">
        <ele>201.4</ele>
        <time>2016-05-06T10:59:22Z</time>
      </trkpt>
      <trkpt lat="50.66314" lon="1.89934">
        <ele>201.4</ele>
        <time>2016-05-06T10:59:24Z</time>
      </trkpt>
      <trkpt lat="50.66306" lon="1.89915">
        <ele>201.5</ele>
        <time>2016-05-06T10:59:26Z</time>
      </trkpt>
      <trkpt lat="50.66299" lon="1.89894">
        <ele>201.5</ele>
        <time>2016-05-06T10:59:28Z</time>
      </trkpt>
      <trkpt lat="50.66292" lon="1.89874">
        <ele>201.5</ele>
        <time>2016-05-06T10:59:30Z</time>
      </trkpt>
      <trkpt lat="50.66284" lon="1.89854">
        <ele>201.6</ele>
        <time>2016-05-06T10:59:32Z</time>
      </trkpt>
      <trkpt lat="50.66279" lon="1.89834">
        <ele>201.7</ele>
        <time>2016-05-06T10:59:34Z</time>
      </trkpt>
      <trkpt lat="50.66278" lon="1.89814">
        <ele>201.6</ele>
        <time>2016-05-06T10:59:36Z</time>
      </trkpt>
      <trkpt lat="50.66279" lon="1.89794">
        <ele>201.6</ele>
        <time>2016-05-06T10:59:38Z</time>
      </trkpt>
      <trkpt lat="50.66281" lon="1.89773">
        <ele>201.5</ele>
        <time>2016-05-06T10:59:40Z</time>
      </trkpt>
      <trkpt lat="50.66282" lon="1.89753">
        <ele>201.5</ele>
        <time>2016-05-06T10:59:42Z</time>
      </trkpt>
      <trkpt lat="50.66282" lon="1.89733">
        <ele>201.4</ele>
        <time>2016-05-06T10:59:44Z</time>
      </trkpt>
      <trkpt lat="50.66283" lon="1.89711">
        <ele>201.4</ele>
        <time>2016-05-06T10:59:46Z</time>
      </trkpt>
      <trkpt lat="50.66282" lon="1.89691">
        <ele>201.4</ele>
        <time>2016-05-06T10:59:48Z</time>
      </trkpt>
      <trkpt lat="50.66281" lon="1.8967">
        <ele>201.4</ele>
        <time>2016-05-06T10:59:50Z</time>
      </trkpt>
      <trkpt lat="50.6628" lon="1.89649">
        <ele>201.3</ele>
        <time>2016-05-06T10:59:52Z</time>
      </trkpt>
      <trkpt lat="50.66279" lon="1.89627">
        <ele>201.3</ele>
        <time>2016-05-06T10:59:54Z</time>
      </trkpt>
      <trkpt lat="50.66277" lon="1.89605">
        <ele>201.3</ele>
        <time>2016-05-06T10:59:56Z</time>
      </trkpt>
      <trkpt lat="50.66275" lon="1.89582">
        <ele>201.3</ele>
        <time>2016-05-06T10:59:58Z</time>
      </trkpt>
      <trkpt lat="50.66273" lon="1.8956">
        <ele>201.3</ele>
        <time>2016-05-06T11:00:00Z</time>
      </trkpt>
      <trkpt lat="50.6627" lon="1.89538">
        <ele>201.3</ele>
        <time>2016-05-06T11:00:02Z</time>
      </trkpt>
      <trkpt lat="50.66267" lon="1.89514">
        <ele>201.2</ele>
        <time>2016-05-06T11:00:04Z</time>
      </trkpt>
      <trkpt lat="50.66263" lon="1.89489">
        <ele>201.1</ele>
        <time>2016-05-06T11:00:06Z</time>
      </trkpt>
      <trkpt lat="50.66259" lon="1.89463">
        <ele>200.9</ele>
        <time>2016-05-06T11:00:08Z</time>
      </trkpt>
      <trkpt lat="50.66256" lon="1.89437">
        <ele>200.8</ele>
        <time>2016-05-06T11:00:10Z</time>
      </trkpt>
      <trkpt lat="50.66254" lon="1.89423">
        <ele>200.7</ele>
        <time>2016-05-06T11:00:11Z</time>
      </trkpt>
      <trkpt lat="50.66252" lon="1.89409">
        <ele>200.6</ele>
        <time>2016-05-06T11:00:12Z</time>
      </trkpt>
      <trkpt lat="50.6625" lon="1.89394">
        <ele>200.5</ele>
        <time>2016-05-06T11:00:13Z</time>
      </trkpt>
      <trkpt lat="50.66248" lon="1.8938">
        <ele>200.4</ele>
        <time>2016-05-06T11:00:14Z</time>
      </trkpt>
      <trkpt lat="50.66246" lon="1.89365">
        <ele>200.3</ele>
        <time>2016-05-06T11:00:15Z</time>
      </trkpt>
      <trkpt lat="50.66244" lon="1.8935">
        <ele>200.2</ele>
        <time>2016-05-06T11:00:16Z</time>
      </trkpt>
      <trkpt lat="50.66242" lon="1.89335">
        <ele>200</ele>
        <time>2016-05-06T11:00:17Z</time>
      </trkpt>
      <trkpt lat="50.6624" lon="1.8932">
        <ele>199.9</ele>
        <time>2016-05-06T11:00:18Z</time>
      </trkpt>
      <trkpt lat="50.66238" lon="1.89304">
        <ele>199.7</ele>
        <time>2016-05-06T11:00:19Z</time>
      </trkpt>
      <trkpt lat="50.66236" lon="1.89288">
        <ele>199.5</ele>
        <time>2016-05-06T11:00:20Z</time>
      </trkpt>
      <trkpt lat="50.66234" lon="1.89271">
        <ele>199.1</ele>
        <time>2016-05-06T11:00:21Z</time>
      </trkpt>
      <trkpt lat="50.66231" lon="1.89254">
        <ele>198.8</ele>
        <time>2016-05-06T11:00:22Z</time>
      </trkpt>
      <trkpt lat="50.66229" lon="1.89237">
        <ele>198.5</ele>
        <time>2016-05-06T11:00:23Z</time>
      </trkpt>
      <trkpt lat="50.66226" lon="1.8922">
        <ele>198.2</ele>
        <time>2016-05-06T11:00:24Z</time>
      </trkpt>
      <trkpt lat="50.66224" lon="1.89202">
        <ele>197.8</ele>
        <time>2016-05-06T11:00:25Z</time>
      </trkpt>
      <trkpt lat="50.66222" lon="1.89183">
        <ele>197.4</ele>
        <time>2016-05-06T11:00:26Z</time>
      </trkpt>
      <trkpt lat="50.66221" lon="1.89164">
        <ele>196.9</ele>
        <time>2016-05-06T11:00:27Z</time>
      </trkpt>
      <trkpt lat="50.6622" lon="1.89145">
        <ele>196.4</ele>
        <time>2016-05-06T11:00:28Z</time>
      </trkpt>
      <trkpt lat="50.6622" lon="1.89125">
        <ele>195.9</ele>
        <time>2016-05-06T11:00:29Z</time>
      </trkpt>
      <trkpt lat="50.66221" lon="1.89106">
        <ele>195.3</ele>
        <time>2016-05-06T11:00:30Z</time>
      </trkpt>
      <trkpt lat="50.66223" lon="1.89086">
        <ele>194.7</ele>
        <time>2016-05-06T11:00:31Z</time>
      </trkpt>
      <trkpt lat="50.66224" lon="1.89066">
        <ele>194.1</ele>
        <time>2016-05-06T11:00:32Z</time>
      </trkpt>
      <trkpt lat="50.66226" lon="1.89046">
        <ele>193.5</ele>
        <time>2016-05-06T11:00:33Z</time>
      </trkpt>
      <trkpt lat="50.66227" lon="1.89026">
        <ele>192.9</ele>
        <time>2016-05-06T11:00:34Z</time>
      </trkpt>
      <trkpt lat="50.66229" lon="1.89007">
        <ele>192.3</ele>
        <time>2016-05-06T11:00:35Z</time>
      </trkpt>
      <trkpt lat="50.6623" lon="1.88989">
        <ele>191.7</ele>
        <time>2016-05-06T11:00:36Z</time>
      </trkpt>
      <trkpt lat="50.66232" lon="1.88971">
        <ele>191.1</ele>
        <time>2016-05-06T11:00:37Z</time>
      </trkpt>
      <trkpt lat="50.66233" lon="1.88953">
        <ele>190.6</ele>
        <time>2016-05-06T11:00:38Z</time>
      </trkpt>
      <trkpt lat="50.66235" lon="1.88936">
        <ele>190</ele>
        <time>2016-05-06T11:00:39Z</time>
      </trkpt>
      <trkpt lat="50.66236" lon="1.88919">
        <ele>189.6</ele>
        <time>2016-05-06T11:00:40Z</time>
      </trkpt>
      <trkpt lat="50.66236" lon="1.88903">
        <ele>189.1</ele>
        <time>2016-05-06T11:00:41Z</time>
      </trkpt>
      <trkpt lat="50.66236" lon="1.88888">
        <ele>188.7</ele>
        <time>2016-05-06T11:00:42Z</time>
      </trkpt>
      <trkpt lat="50.66236" lon="1.88873">
        <ele>188.3</ele>
        <time>2016-05-06T11:00:43Z</time>
      </trkpt>
      <trkpt lat="50.66236" lon="1.88858">
        <ele>187.9</ele>
        <time>2016-05-06T11:00:44Z</time>
      </trkpt>
      <trkpt lat="50.66235" lon="1.88844">
        <ele>187.6</ele>
        <time>2016-05-06T11:00:45Z</time>
      </trkpt>
      <trkpt lat="50.66234" lon="1.88816">
        <ele>187</ele>
        <time>2016-05-06T11:00:47Z</time>
      </trkpt>
      <trkpt lat="50.66233" lon="1.88788">
        <ele>186.5</ele>
        <time>2016-05-06T11:00:49Z</time>
      </trkpt>
      <trkpt lat="50.66231" lon="1.88762">
        <ele>186</ele>
        <time>2016-05-06T11:00:51Z</time>
      </trkpt>
      <trkpt lat="50.66231" lon="1.88735">
        <ele>185.7</ele>
        <time>2016-05-06T11:00:53Z</time>
      </trkpt>
      <trkpt lat="50.66232" lon="1.88708">
        <ele>185.4</ele>
        <time>2016-05-06T11:00:55Z</time>
      </trkpt>
      <trkpt lat="50.66234" lon="1.8868">
        <ele>185.1</ele>
        <time>2016-05-06T11:00:57Z</time>
      </trkpt>
      <trkpt lat="50.66235" lon="1.88665">
        <ele>184.9</ele>
        <time>2016-05-06T11:00:58Z</time>
      </trkpt>
      <trkpt lat="50.66236" lon="1.8865">
        <ele>184.9</ele>
        <time>2016-05-06T11:00:59Z</time>
      </trkpt>
      <trkpt lat="50.66237" lon="1.88636">
        <ele>184.9</ele>
        <time>2016-05-06T11:01:00Z</time>
      </trkpt>
      <trkpt lat="50.66238" lon="1.88621">
        <ele>184.9</ele>
        <time>2016-05-06T11:01:01Z</time>
      </trkpt>
      <trkpt lat="50.66239" lon="1.88607">
        <ele>184.9</ele>
        <time>2016-05-06T11:01:02Z</time>
      </trkpt>
      <trkpt lat="50.66241" lon="1.88579">
        <ele>184.8</ele>
        <time>2016-05-06T11:01:04Z</time>
      </trkpt>
      <trkpt lat="50.66242" lon="1.88554">
        <ele>184.8</ele>
        <time>2016-05-06T11:01:06Z</time>
      </trkpt>
      <trkpt lat="50.66244" lon="1.8853">
        <ele>184.9</ele>
        <time>2016-05-06T11:01:08Z</time>
      </trkpt>
      <trkpt lat="50.66245" lon="1.88506">
        <ele>184.9</ele>
        <time>2016-05-06T11:01:10Z</time>
      </trkpt>
      <trkpt lat="50.66247" lon="1.88483">
        <ele>185</ele>
        <time>2016-05-06T11:01:12Z</time>
      </trkpt>
      <trkpt lat="50.66249" lon="1.88461">
        <ele>185.2</ele>
        <time>2016-05-06T11:01:14Z</time>
      </trkpt>
      <trkpt lat="50.66251" lon="1.8844">
        <ele>185.4</ele>
        <time>2016-05-06T11:01:16Z</time>
      </trkpt>
      <trkpt lat="50.66253" lon="1.88419">
        <ele>185.6</ele>
        <time>2016-05-06T11:01:18Z</time>
      </trkpt>
      <trkpt lat="50.66256" lon="1.88399">
        <ele>185.8</ele>
        <time>2016-05-06T11:01:20Z</time>
      </trkpt>
      <trkpt lat="50.66259" lon="1.8838">
        <ele>186</ele>
        <time>2016-05-06T11:01:22Z</time>
      </trkpt>
      <trkpt lat="50.66261" lon="1.88361">
        <ele>186.2</ele>
        <time>2016-05-06T11:01:24Z</time>
      </trkpt>
      <trkpt lat="50.66264" lon="1.88343">
        <ele>186.4</ele>
        <time>2016-05-06T11:01:26Z</time>
      </trkpt>
      <trkpt lat="50.66267" lon="1.88325">
        <ele>186.7</ele>
        <time>2016-05-06T11:01:28Z</time>
      </trkpt>
      <trkpt lat="50.66269" lon="1.88308">
        <ele>187</ele>
        <time>2016-05-06T11:01:30Z</time>
      </trkpt>
      <trkpt lat="50.66271" lon="1.8829">
        <ele>187.3</ele>
        <time>2016-05-06T11:01:32Z</time>
      </trkpt>
      <trkpt lat="50.66273" lon="1.88273">
        <ele>187.6</ele>
        <time>2016-05-06T11:01:34Z</time>
      </trkpt>
      <trkpt lat="50.66276" lon="1.88256">
        <ele>187.9</ele>
        <time>2016-05-06T11:01:36Z</time>
      </trkpt>
      <trkpt lat="50.66278" lon="1.88239">
        <ele>188.2</ele>
        <time>2016-05-06T11:01:38Z</time>
      </trkpt>
      <trkpt lat="50.66279" lon="1.88223">
        <ele>188.5</ele>
        <time>2016-05-06T11:01:40Z</time>
      </trkpt>
      <trkpt lat="50.66281" lon="1.88206">
        <ele>188.8</ele>
        <time>2016-05-06T11:01:42Z</time>
      </trkpt>
      <trkpt lat="50.66282" lon="1.8819">
        <ele>189.1</ele>
        <time>2016-05-06T11:01:44Z</time>
      </trkpt>
      <trkpt lat="50.66283" lon="1.88173">
        <ele>189.5</ele>
        <time>2016-05-06T11:01:46Z</time>
      </trkpt>
      <trkpt lat="50.66284" lon="1.88157">
        <ele>189.9</ele>
        <time>2016-05-06T11:01:48Z</time>
      </trkpt>
      <trkpt lat="50.66285" lon="1.88142">
        <ele>190.3</ele>
        <time>2016-05-06T11:01:50Z</time>
      </trkpt>
      <trkpt lat="50.66286" lon="1.88126">
        <ele>190.8</ele>
        <time>2016-05-06T11:01:52Z</time>
      </trkpt>
      <trkpt lat="50.66286" lon="1.8811">
        <ele>191.3</ele>
        <time>2016-05-06T11:01:54Z</time>
      </trkpt>
      <trkpt lat="50.66287" lon="1.88094">
        <ele>191.7</ele>
        <time>2016-05-06T11:01:56Z</time>
      </trkpt>
      <trkpt lat="50.66288" lon="1.88078">
        <ele>192.1</ele>
        <time>2016-05-06T11:01:58Z</time>
      </trkpt>
      <trkpt lat="50.66289" lon="1.88061">
        <ele>192.5</ele>
        <time>2016-05-06T11:02:00Z</time>
      </trkpt>
      <trkpt lat="50.6629" lon="1.88044">
        <ele>192.8</ele>
        <time>2016-05-06T11:02:02Z</time>
      </trkpt>
      <trkpt lat="50.66291" lon="1.88027">
        <ele>193.1</ele>
        <time>2016-05-06T11:02:04Z</time>
      </trkpt>
      <trkpt lat="50.66292" lon="1.8801">
        <ele>193.4</ele>
        <time>2016-05-06T11:02:06Z</time>
      </trkpt>
      <trkpt lat="50.66293" lon="1.87993">
        <ele>193.8</ele>
        <time>2016-05-06T11:02:08Z</time>
      </trkpt>
      <trkpt lat="50.66294" lon="1.87976">
        <ele>194.1</ele>
        <time>2016-05-06T11:02:10Z</time>
      </trkpt>
      <trkpt lat="50.66295" lon="1.8796">
        <ele>194.3</ele>
        <time>2016-05-06T11:02:12Z</time>
      </trkpt>
      <trkpt lat="50.66296" lon="1.87942">
        <ele>194.6</ele>
        <time>2016-05-06T11:02:14Z</time>
      </trkpt>
      <trkpt lat="50.66296" lon="1.87923">
        <ele>194.9</ele>
        <time>2016-05-06T11:02:16Z</time>
      </trkpt>
      <trkpt lat="50.66296" lon="1.87904">
        <ele>195.2</ele>
        <time>2016-05-06T11:02:18Z</time>
      </trkpt>
      <trkpt lat="50.66297" lon="1.87883">
        <ele>195.5</ele>
        <time>2016-05-06T11:02:20Z</time>
      </trkpt>
      <trkpt lat="50.66298" lon="1.87861">
        <ele>195.7</ele>
        <time>2016-05-06T11:02:22Z</time>
      </trkpt>
      <trkpt lat="50.66299" lon="1.87838">
        <ele>195.9</ele>
        <time>2016-05-06T11:02:24Z</time>
      </trkpt>
      <trkpt lat="50.663" lon="1.87815">
        <ele>196</ele>
        <time>2016-05-06T11:02:26Z</time>
      </trkpt>
      <trkpt lat="50.66301" lon="1.87791">
        <ele>196.2</ele>
        <time>2016-05-06T11:02:28Z</time>
      </trkpt>
      <trkpt lat="50.66303" lon="1.87767">
        <ele>196.3</ele>
        <time>2016-05-06T11:02:30Z</time>
      </trkpt>
      <trkpt lat="50.66304" lon="1.87743">
        <ele>196.5</ele>
        <time>2016-05-06T11:02:32Z</time>
      </trkpt>
      <trkpt lat="50.66306" lon="1.87719">
        <ele>196.6</ele>
        <time>2016-05-06T11:02:34Z</time>
      </trkpt>
      <trkpt lat="50.66308" lon="1.87694">
        <ele>196.7</ele>
        <time>2016-05-06T11:02:36Z</time>
      </trkpt>
      <trkpt lat="50.6631" lon="1.87669">
        <ele>196.8</ele>
        <time>2016-05-06T11:02:38Z</time>
      </trkpt>
      <trkpt lat="50.66312" lon="1.87644">
        <ele>196.8</ele>
        <time>2016-05-06T11:02:40Z</time>
      </trkpt>
      <trkpt lat="50.66313" lon="1.87619">
        <ele>196.9</ele>
        <time>2016-05-06T11:02:42Z</time>
      </trkpt>
      <trkpt lat="50.66314" lon="1.87595">
        <ele>196.9</ele>
        <time>2016-05-06T11:02:44Z</time>
      </trkpt>
      <trkpt lat="50.66315" lon="1.8757">
        <ele>197</ele>
        <time>2016-05-06T11:02:46Z</time>
      </trkpt>
      <trkpt lat="50.66317" lon="1.87544">
        <ele>197</ele>
        <time>2016-05-06T11:02:48Z</time>
      </trkpt>
      <trkpt lat="50.66318" lon="1.87519">
        <ele>197</ele>
        <time>2016-05-06T11:02:50Z</time>
      </trkpt>
      <trkpt lat="50.66319" lon="1.87495">
        <ele>196.9</ele>
        <time>2016-05-06T11:02:52Z</time>
      </trkpt>
      <trkpt lat="50.66321" lon="1.87471">
        <ele>196.9</ele>
        <time>2016-05-06T11:02:54Z</time>
      </trkpt>
      <trkpt lat="50.66323" lon="1.87447">
        <ele>196.9</ele>
        <time>2016-05-06T11:02:56Z</time>
      </trkpt>
      <trkpt lat="50.66325" lon="1.87423">
        <ele>196.8</ele>
        <time>2016-05-06T11:02:58Z</time>
      </trkpt>
      <trkpt lat="50.66327" lon="1.87401">
        <ele>196.8</ele>
        <time>2016-05-06T11:03:00Z</time>
      </trkpt>
      <trkpt lat="50.6633" lon="1.87378">
        <ele>196.8</ele>
        <time>2016-05-06T11:03:02Z</time>
      </trkpt>
      <trkpt lat="50.66332" lon="1.87356">
        <ele>196.9</ele>
        <time>2016-05-06T11:03:04Z</time>
      </trkpt>
      <trkpt lat="50.66335" lon="1.87333">
        <ele>196.9</ele>
        <time>2016-05-06T11:03:06Z</time>
      </trkpt>
      <trkpt lat="50.66338" lon="1.87312">
        <ele>197</ele>
        <time>2016-05-06T11:03:08Z</time>
      </trkpt>
      <trkpt lat="50.66341" lon="1.8729">
        <ele>197</ele>
        <time>2016-05-06T11:03:10Z</time>
      </trkpt>
      <trkpt lat="50.66345" lon="1.87268">
        <ele>197</ele>
        <time>2016-05-06T11:03:12Z</time>
      </trkpt>
      <trkpt lat="50.66349" lon="1.87245">
        <ele>196.9</ele>
        <time>2016-05-06T11:03:14Z</time>
      </trkpt>
      <trkpt lat="50.66354" lon="1.87222">
        <ele>196.9</ele>
        <time>2016-05-06T11:03:16Z</time>
      </trkpt>
      <trkpt lat="50.66358" lon="1.87197">
        <ele>196.6</ele>
        <time>2016-05-06T11:03:18Z</time>
      </trkpt>
      <trkpt lat="50.66363" lon="1.8717">
        <ele>196.3</ele>
        <time>2016-05-06T11:03:20Z</time>
      </trkpt>
      <trkpt lat="50.66366" lon="1.87156">
        <ele>196</ele>
        <time>2016-05-06T11:03:21Z</time>
      </trkpt>
      <trkpt lat="50.66367" lon="1.87141">
        <ele>195.8</ele>
        <time>2016-05-06T11:03:22Z</time>
      </trkpt>
      <trkpt lat="50.66369" lon="1.87125">
        <ele>195.5</ele>
        <time>2016-05-06T11:03:23Z</time>
      </trkpt>
      <trkpt lat="50.6637" lon="1.87108">
        <ele>195.2</ele>
        <time>2016-05-06T11:03:24Z</time>
      </trkpt>
      <trkpt lat="50.66371" lon="1.87091">
        <ele>194.8</ele>
        <time>2016-05-06T11:03:25Z</time>
      </trkpt>
      <trkpt lat="50.66371" lon="1.87073">
        <ele>194.3</ele>
        <time>2016-05-06T11:03:26Z</time>
      </trkpt>
      <trkpt lat="50.66372" lon="1.87056">
        <ele>193.9</ele>
        <time>2016-05-06T11:03:27Z</time>
      </trkpt>
      <trkpt lat="50.66374" lon="1.87037">
        <ele>193.5</ele>
        <time>2016-05-06T11:03:28Z</time>
      </trkpt>
      <trkpt lat="50.66375" lon="1.87019">
        <ele>193</ele>
        <time>2016-05-06T11:03:29Z</time>
      </trkpt>
      <trkpt lat="50.66378" lon="1.87001">
        <ele>192.4</ele>
        <time>2016-05-06T11:03:30Z</time>
      </trkpt>
      <trkpt lat="50.66381" lon="1.86983">
        <ele>191.7</ele>
        <time>2016-05-06T11:03:31Z</time>
      </trkpt>
      <trkpt lat="50.66384" lon="1.86964">
        <ele>191.1</ele>
        <time>2016-05-06T11:03:32Z</time>
      </trkpt>
      <trkpt lat="50.66388" lon="1.86944">
        <ele>190.3</ele>
        <time>2016-05-06T11:03:33Z</time>
      </trkpt>
      <trkpt lat="50.66393" lon="1.86925">
        <ele>189.6</ele>
        <time>2016-05-06T11:03:34Z</time>
      </trkpt>
      <trkpt lat="50.66398" lon="1.86906">
        <ele>188.7</ele>
        <time>2016-05-06T11:03:35Z</time>
      </trkpt>
      <trkpt lat="50.66403" lon="1.86886">
        <ele>187.9</ele>
        <time>2016-05-06T11:03:36Z</time>
      </trkpt>
      <trkpt lat="50.66409" lon="1.86865">
        <ele>187.1</ele>
        <time>2016-05-06T11:03:37Z</time>
      </trkpt>
      <trkpt lat="50.66414" lon="1.86845">
        <ele>186.3</ele>
        <time>2016-05-06T11:03:38Z</time>
      </trkpt>
      <trkpt lat="50.66419" lon="1.86825">
        <ele>185.5</ele>
        <time>2016-05-06T11:03:39Z</time>
      </trkpt>
      <trkpt lat="50.66426" lon="1.86804">
        <ele>184.6</ele>
        <time>2016-05-06T11:03:40Z</time>
      </trkpt>
      <trkpt lat="50.66432" lon="1.86783">
        <ele>183.7</ele>
        <time>2016-05-06T11:03:41Z</time>
      </trkpt>
      <trkpt lat="50.66438" lon="1.86763">
        <ele>182.9</ele>
        <time>2016-05-06T11:03:42Z</time>
      </trkpt>
      <trkpt lat="50.66445" lon="1.86742">
        <ele>181.8</ele>
        <time>2016-05-06T11:03:43Z</time>
      </trkpt>
      <trkpt lat="50.66452" lon="1.86723">
        <ele>180.8</ele>
        <time>2016-05-06T11:03:44Z</time>
      </trkpt>
      <trkpt lat="50.66459" lon="1.86704">
        <ele>179.6</ele>
        <time>2016-05-06T11:03:45Z</time>
      </trkpt>
      <trkpt lat="50.66466" lon="1.86684">
        <ele>178.6</ele>
        <time>2016-05-06T11:03:46Z</time>
      </trkpt>
      <trkpt lat="50.66472" lon="1.86664">
        <ele>177.6</ele>
        <time>2016-05-06T11:03:47Z</time>
      </trkpt>
      <trkpt lat="50.66478" lon="1.86644">
        <ele>176.6</ele>
        <time>2016-05-06T11:03:48Z</time>
      </trkpt>
      <trkpt lat="50.66484" lon="1.86624">
        <ele>175.6</ele>
        <time>2016-05-06T11:03:49Z</time>
      </trkpt>
      <trkpt lat="50.6649" lon="1.86603">
        <ele>174.6</ele>
        <time>2016-05-06T11:03:50Z</time>
      </trkpt>
      <trkpt lat="50.66496" lon="1.86583">
        <ele>173.6</ele>
        <time>2016-05-06T11:03:51Z</time>
      </trkpt>
      <trkpt lat="50.66501" lon="1.86563">
        <ele>172.6</ele>
        <time>2016-05-06T11:03:52Z</time>
      </trkpt>
      <trkpt lat="50.66507" lon="1.86542">
        <ele>171.7</ele>
        <time>2016-05-06T11:03:53Z</time>
      </trkpt>
      <trkpt lat="50.66512" lon="1.86522">
        <ele>170.8</ele>
        <time>2016-05-06T11:03:54Z</time>
      </trkpt>
      <trkpt lat="50.66517" lon="1.86502">
        <ele>169.8</ele>
        <time>2016-05-06T11:03:55Z</time>
      </trkpt>
      <trkpt lat="50.66523" lon="1.86481">
        <ele>168.9</ele>
        <time>2016-05-06T11:03:56Z</time>
      </trkpt>
      <trkpt lat="50.66527" lon="1.8646">
        <ele>167.9</ele>
        <time>2016-05-06T11:03:57Z</time>
      </trkpt>
      <trkpt lat="50.6653" lon="1.86437">
        <ele>166.8</ele>
        <time>2016-05-06T11:03:58Z</time>
      </trkpt>
      <trkpt lat="50.66531" lon="1.86415">
        <ele>165.8</ele>
        <time>2016-05-06T11:03:59Z</time>
      </trkpt>
      <trkpt lat="50.66531" lon="1.86393">
        <ele>164.8</ele>
        <time>2016-05-06T11:04:00Z</time>
      </trkpt>
      <trkpt lat="50.66531" lon="1.8637">
        <ele>163.9</ele>
        <time>2016-05-06T11:04:01Z</time>
      </trkpt>
      <trkpt lat="50.66531" lon="1.86349">
        <ele>162.9</ele>
        <time>2016-05-06T11:04:02Z</time>
      </trkpt>
      <trkpt lat="50.66531" lon="1.86327">
        <ele>162</ele>
        <time>2016-05-06T11:04:03Z</time>
      </trkpt>
      <trkpt lat="50.66532" lon="1.86307">
        <ele>161</ele>
        <time>2016-05-06T11:04:04Z</time>
      </trkpt>
      <trkpt lat="50.66533" lon="1.86286">
        <ele>160.1</ele>
        <time>2016-05-06T11:04:05Z</time>
      </trkpt>
      <trkpt lat="50.66534" lon="1.86266">
        <ele>159.3</ele>
        <time>2016-05-06T11:04:06Z</time>
      </trkpt>
      <trkpt lat="50.66536" lon="1.86246">
        <ele>158.3</ele>
        <time>2016-05-06T11:04:07Z</time>
      </trkpt>
      <trkpt lat="50.6654" lon="1.86228">
        <ele>157.5</ele>
        <time>2016-05-06T11:04:08Z</time>
      </trkpt>
      <trkpt lat="50.66547" lon="1.86211">
        <ele>156.7</ele>
        <time>2016-05-06T11:04:09Z</time>
      </trkpt>
      <trkpt lat="50.66556" lon="1.86198">
        <ele>155.9</ele>
        <time>2016-05-06T11:04:10Z</time>
      </trkpt>
      <trkpt lat="50.66567" lon="1.86187">
        <ele>155.1</ele>
        <time>2016-05-06T11:04:11Z</time>
      </trkpt>
      <trkpt lat="50.66578" lon="1.86179">
        <ele>154.3</ele>
        <time>2016-05-06T11:04:12Z</time>
      </trkpt>
      <trkpt lat="50.66591" lon="1.86174">
        <ele>153.4</ele>
        <time>2016-05-06T11:04:13Z</time>
      </trkpt>
      <trkpt lat="50.66603" lon="1.8617">
        <ele>152.5</ele>
        <time>2016-05-06T11:04:14Z</time>
      </trkpt>
      <trkpt lat="50.66616" lon="1.86167">
        <ele>151.7</ele>
        <time>2016-05-06T11:04:15Z</time>
      </trkpt>
      <trkpt lat="50.66628" lon="1.86164">
        <ele>150.8</ele>
        <time>2016-05-06T11:04:16Z</time>
      </trkpt>
      <trkpt lat="50.66641" lon="1.86161">
        <ele>149.9</ele>
        <time>2016-05-06T11:04:17Z</time>
      </trkpt>
      <trkpt lat="50.66654" lon="1.86158">
        <ele>149</ele>
        <time>2016-05-06T11:04:18Z</time>
      </trkpt>
      <trkpt lat="50.66668" lon="1.86155">
        <ele>148.1</ele>
        <time>2016-05-06T11:04:19Z</time>
      </trkpt>
      <trkpt lat="50.66681" lon="1.86152">
        <ele>147.2</ele>
        <time>2016-05-06T11:04:20Z</time>
      </trkpt>
      <trkpt lat="50.66694" lon="1.86149">
        <ele>146.4</ele>
        <time>2016-05-06T11:04:21Z</time>
      </trkpt>
      <trkpt lat="50.66707" lon="1.86145">
        <ele>145.5</ele>
        <time>2016-05-06T11:04:22Z</time>
      </trkpt>
      <trkpt lat="50.6672" lon="1.86142">
        <ele>144.6</ele>
        <time>2016-05-06T11:04:23Z</time>
      </trkpt>
      <trkpt lat="50.66734" lon="1.86138">
        <ele>143.6</ele>
        <time>2016-05-06T11:04:24Z</time>
      </trkpt>
      <trkpt lat="50.66747" lon="1.86133">
        <ele>142.6</ele>
        <time>2016-05-06T11:04:25Z</time>
      </trkpt>
      <trkpt lat="50.66759" lon="1.86124">
        <ele>141.7</ele>
        <time>2016-05-06T11:04:26Z</time>
      </trkpt>
      <trkpt lat="50.66771" lon="1.86111">
        <ele>140.7</ele>
        <time>2016-05-06T11:04:27Z</time>
      </trkpt>
      <trkpt lat="50.6678" lon="1.86095">
        <ele>139.7</ele>
        <time>2016-05-06T11:04:28Z</time>
      </trkpt>
      <trkpt lat="50.66789" lon="1.86077">
        <ele>138.7</ele>
        <time>2016-05-06T11:04:29Z</time>
      </trkpt>
      <trkpt lat="50.66797" lon="1.86058">
        <ele>137.7</ele>
        <time>2016-05-06T11:04:30Z</time>
      </trkpt>
      <trkpt lat="50.66805" lon="1.86041">
        <ele>136.7</ele>
        <time>2016-05-06T11:04:31Z</time>
      </trkpt>
      <trkpt lat="50.66813" lon="1.86025">
        <ele>135.8</ele>
        <time>2016-05-06T11:04:32Z</time>
      </trkpt>
      <trkpt lat="50.66821" lon="1.8601">
        <ele>134.9</ele>
        <time>2016-05-06T11:04:32Z</time>
      </trkpt>
      <trkpt lat="50.66829" lon="1.85994">
        <ele>134.1</ele>
        <time>2016-05-06T11:04:34Z</time>
      </trkpt>
      <trkpt lat="50.66837" lon="1.8598">
        <ele>133.3</ele>
        <time>2016-05-06T11:04:35Z</time>
      </trkpt>
      <trkpt lat="50.66847" lon="1.85968">
        <ele>132.5</ele>
        <time>2016-05-06T11:04:36Z</time>
      </trkpt>
      <trkpt lat="50.66857" lon="1.85958">
        <ele>131.7</ele>
        <time>2016-05-06T11:04:37Z</time>
      </trkpt>
      <trkpt lat="50.66869" lon="1.85951">
        <ele>131</ele>
        <time>2016-05-06T11:04:38Z</time>
      </trkpt>
      <trkpt lat="50.6688" lon="1.85946">
        <ele>130.3</ele>
        <time>2016-05-06T11:04:39Z</time>
      </trkpt>
      <trkpt lat="50.66891" lon="1.85941">
        <ele>129.5</ele>
        <time>2016-05-06T11:04:40Z</time>
      </trkpt>
      <trkpt lat="50.66901" lon="1.85937">
        <ele>128.9</ele>
        <time>2016-05-06T11:04:41Z</time>
      </trkpt>
      <trkpt lat="50.66912" lon="1.85932">
        <ele>128.2</ele>
        <time>2016-05-06T11:04:42Z</time>
      </trkpt>
      <trkpt lat="50.66922" lon="1.85928">
        <ele>127.7</ele>
        <time>2016-05-06T11:04:43Z</time>
      </trkpt>
      <trkpt lat="50.66932" lon="1.85923">
        <ele>127.1</ele>
        <time>2016-05-06T11:04:44Z</time>
      </trkpt>
      <trkpt lat="50.66941" lon="1.85918">
        <ele>126.6</ele>
        <time>2016-05-06T11:04:45Z</time>
      </trkpt>
      <trkpt lat="50.66951" lon="1.85914">
        <ele>125.5</ele>
        <time>2016-05-06T11:04:46Z</time>
      </trkpt>
      <trkpt lat="50.6696" lon="1.8591">
        <ele>124.9</ele>
        <time>2016-05-06T11:04:47Z</time>
      </trkpt>
      <trkpt lat="50.6697" lon="1.85905">
        <ele>124.5</ele>
        <time>2016-05-06T11:04:48Z</time>
      </trkpt>
      <trkpt lat="50.66979" lon="1.85901">
        <ele>124</ele>
        <time>2016-05-06T11:04:49Z</time>
      </trkpt>
      <trkpt lat="50.66994" lon="1.85893">
        <ele>123.2</ele>
        <time>2016-05-06T11:04:51Z</time>
      </trkpt>
      <trkpt lat="50.67008" lon="1.85885">
        <ele>122.4</ele>
        <time>2016-05-06T11:04:53Z</time>
      </trkpt>
      <trkpt lat="50.67018" lon="1.85877">
        <ele>121.5</ele>
        <time>2016-05-06T11:04:55Z</time>
      </trkpt>
      <trkpt lat="50.67025" lon="1.85868">
        <ele>120.1</ele>
        <time>2016-05-06T11:04:58Z</time>
      </trkpt>
      <trkpt lat="50.67029" lon="1.8585">
        <ele>118.6</ele>
        <time>2016-05-06T11:05:02Z</time>
      </trkpt>
      <trkpt lat="50.67026" lon="1.8583">
        <ele>117.5</ele>
        <time>2016-05-06T11:05:05Z</time>
      </trkpt>
      <trkpt lat="50.67023" lon="1.85816">
        <ele>116.9</ele>
        <time>2016-05-06T11:05:07Z</time>
      </trkpt>
      <trkpt lat="50.6702" lon="1.858">
        <ele>116.4</ele>
        <time>2016-05-06T11:05:09Z</time>
      </trkpt>
      <trkpt lat="50.67017" lon="1.85782">
        <ele>115.9</ele>
        <time>2016-05-06T11:05:11Z</time>
      </trkpt>
      <trkpt lat="50.67014" lon="1.85762">
        <ele>115.5</ele>
        <time>2016-05-06T11:05:13Z</time>
      </trkpt>
      <trkpt lat="50.6701" lon="1.85742">
        <ele>115.2</ele>
        <time>2016-05-06T11:05:15Z</time>
      </trkpt>
      <trkpt lat="50.67007" lon="1.85722">
        <ele>114.9</ele>
        <time>2016-05-06T11:05:17Z</time>
      </trkpt>
      <trkpt lat="50.67004" lon="1.85702">
        <ele>114.6</ele>
        <time>2016-05-06T11:05:19Z</time>
      </trkpt>
      <trkpt lat="50.67" lon="1.8568">
        <ele>114.4</ele>
        <time>2016-05-06T11:05:21Z</time>
      </trkpt>
      <trkpt lat="50.66997" lon="1.85659">
        <ele>114.2</ele>
        <time>2016-05-06T11:05:23Z</time>
      </trkpt>
      <trkpt lat="50.66994" lon="1.85638">
        <ele>114</ele>
        <time>2016-05-06T11:05:25Z</time>
      </trkpt>
      <trkpt lat="50.66991" lon="1.85615">
        <ele>113.9</ele>
        <time>2016-05-06T11:05:27Z</time>
      </trkpt>
      <trkpt lat="50.66988" lon="1.85591">
        <ele>113.7</ele>
        <time>2016-05-06T11:05:29Z</time>
      </trkpt>
      <trkpt lat="50.66986" lon="1.85568">
        <ele>113.6</ele>
        <time>2016-05-06T11:05:31Z</time>
      </trkpt>
      <trkpt lat="50.66984" lon="1.85544">
        <ele>113.5</ele>
        <time>2016-05-06T11:05:33Z</time>
      </trkpt>
      <trkpt lat="50.66982" lon="1.85521">
        <ele>113.5</ele>
        <time>2016-05-06T11:05:35Z</time>
      </trkpt>
      <trkpt lat="50.6698" lon="1.85498">
        <ele>113.5</ele>
        <time>2016-05-06T11:05:37Z</time>
      </trkpt>
      <trkpt lat="50.66977" lon="1.85475">
        <ele>113.5</ele>
        <time>2016-05-06T11:05:39Z</time>
      </trkpt>
      <trkpt lat="50.66976" lon="1.85453">
        <ele>113.6</ele>
        <time>2016-05-06T11:05:41Z</time>
      </trkpt>
      <trkpt lat="50.66974" lon="1.8543">
        <ele>113.6</ele>
        <time>2016-05-06T11:05:43Z</time>
      </trkpt>
      <trkpt lat="50.66971" lon="1.85408">
        <ele>113.7</ele>
        <time>2016-05-06T11:05:45Z</time>
      </trkpt>
      <trkpt lat="50.66969" lon="1.85386">
        <ele>113.8</ele>
        <time>2016-05-06T11:05:47Z</time>
      </trkpt>
      <trkpt lat="50.66967" lon="1.85366">
        <ele>114</ele>
        <time>2016-05-06T11:05:49Z</time>
      </trkpt>
      <trkpt lat="50.66964" lon="1.85346">
        <ele>114.1</ele>
        <time>2016-05-06T11:05:51Z</time>
      </trkpt>
      <trkpt lat="50.6696" lon="1.85327">
        <ele>114.5</ele>
        <time>2016-05-06T11:05:53Z</time>
      </trkpt>
      <trkpt lat="50.66956" lon="1.85309">
        <ele>114.7</ele>
        <time>2016-05-06T11:05:55Z</time>
      </trkpt>
      <trkpt lat="50.66956" lon="1.85292">
        <ele>115</ele>
        <time>2016-05-06T11:05:57Z</time>
      </trkpt>
      <trkpt lat="50.66961" lon="1.85278">
        <ele>115.2</ele>
        <time>2016-05-06T11:05:59Z</time>
      </trkpt>
      <trkpt lat="50.6697" lon="1.85266">
        <ele>115.4</ele>
        <time>2016-05-06T11:06:01Z</time>
      </trkpt>
      <trkpt lat="50.66979" lon="1.85252">
        <ele>115.6</ele>
        <time>2016-05-06T11:06:03Z</time>
      </trkpt>
      <trkpt lat="50.6699" lon="1.85235">
        <ele>115.7</ele>
        <time>2016-05-06T11:06:05Z</time>
      </trkpt>
      <trkpt lat="50.67002" lon="1.85218">
        <ele>115.9</ele>
        <time>2016-05-06T11:06:07Z</time>
      </trkpt>
      <trkpt lat="50.67014" lon="1.85197">
        <ele>115.9</ele>
        <time>2016-05-06T11:06:09Z</time>
      </trkpt>
      <trkpt lat="50.67021" lon="1.85186">
        <ele>115.8</ele>
        <time>2016-05-06T11:06:10Z</time>
      </trkpt>
      <trkpt lat="50.67027" lon="1.85175">
        <ele>115.6</ele>
        <time>2016-05-06T11:06:11Z</time>
      </trkpt>
      <trkpt lat="50.67034" lon="1.85165">
        <ele>115.4</ele>
        <time>2016-05-06T11:06:12Z</time>
      </trkpt>
      <trkpt lat="50.67041" lon="1.85153">
        <ele>115.3</ele>
        <time>2016-05-06T11:06:13Z</time>
      </trkpt>
      <trkpt lat="50.67048" lon="1.85142">
        <ele>115.1</ele>
        <time>2016-05-06T11:06:14Z</time>
      </trkpt>
      <trkpt lat="50.67055" lon="1.85131">
        <ele>114.7</ele>
        <time>2016-05-06T11:06:15Z</time>
      </trkpt>
      <trkpt lat="50.67062" lon="1.8512">
        <ele>114.5</ele>
        <time>2016-05-06T11:06:16Z</time>
      </trkpt>
      <trkpt lat="50.67069" lon="1.85109">
        <ele>114.2</ele>
        <time>2016-05-06T11:06:17Z</time>
      </trkpt>
      <trkpt lat="50.67076" lon="1.85098">
        <ele>114.4</ele>
        <time>2016-05-06T11:06:18Z</time>
      </trkpt>
      <trkpt lat="50.67083" lon="1.85087">
        <ele>114.3</ele>
        <time>2016-05-06T11:06:19Z</time>
      </trkpt>
      <trkpt lat="50.6709" lon="1.85076">
        <ele>114</ele>
        <time>2016-05-06T11:06:20Z</time>
      </trkpt>
      <trkpt lat="50.67096" lon="1.85065">
        <ele>113.7</ele>
        <time>2016-05-06T11:06:21Z</time>
      </trkpt>
      <trkpt lat="50.67103" lon="1.85054">
        <ele>113.5</ele>
        <time>2016-05-06T11:06:22Z</time>
      </trkpt>
      <trkpt lat="50.67109" lon="1.85044">
        <ele>113.2</ele>
        <time>2016-05-06T11:06:23Z</time>
      </trkpt>
      <trkpt lat="50.67116" lon="1.85034">
        <ele>113</ele>
        <time>2016-05-06T11:06:24Z</time>
      </trkpt>
      <trkpt lat="50.67128" lon="1.85014">
        <ele>112.6</ele>
        <time>2016-05-06T11:06:26Z</time>
      </trkpt>
      <trkpt lat="50.6714" lon="1.84994">
        <ele>112.1</ele>
        <time>2016-05-06T11:06:28Z</time>
      </trkpt>
      <trkpt lat="50.67151" lon="1.84975">
        <ele>111.8</ele>
        <time>2016-05-06T11:06:30Z</time>
      </trkpt>
      <trkpt lat="50.67164" lon="1.84958">
        <ele>111.3</ele>
        <time>2016-05-06T11:06:32Z</time>
      </trkpt>
      <trkpt lat="50.67178" lon="1.84945">
        <ele>111</ele>
        <time>2016-05-06T11:06:34Z</time>
      </trkpt>
      <trkpt lat="50.67194" lon="1.84937">
        <ele>110.6</ele>
        <time>2016-05-06T11:06:36Z</time>
      </trkpt>
      <trkpt lat="50.6721" lon="1.84934">
        <ele>110.4</ele>
        <time>2016-05-06T11:06:38Z</time>
      </trkpt>
      <trkpt lat="50.67227" lon="1.84929">
        <ele>110.1</ele>
        <time>2016-05-06T11:06:40Z</time>
      </trkpt>
      <trkpt lat="50.67245" lon="1.84924">
        <ele>109.9</ele>
        <time>2016-05-06T11:06:42Z</time>
      </trkpt>
      <trkpt lat="50.67255" lon="1.84922">
        <ele>109.7</ele>
        <time>2016-05-06T11:06:43Z</time>
      </trkpt>
      <trkpt lat="50.67264" lon="1.84919">
        <ele>109.5</ele>
        <time>2016-05-06T11:06:44Z</time>
      </trkpt>
      <trkpt lat="50.67274" lon="1.84917">
        <ele>109.3</ele>
        <time>2016-05-06T11:06:45Z</time>
      </trkpt>
      <trkpt lat="50.67285" lon="1.84914">
        <ele>109.1</ele>
        <time>2016-05-06T11:06:46Z</time>
      </trkpt>
      <trkpt lat="50.67295" lon="1.84911">
        <ele>108.9</ele>
        <time>2016-05-06T11:06:47Z</time>
      </trkpt>
      <trkpt lat="50.67305" lon="1.84908">
        <ele>108.6</ele>
        <time>2016-05-06T11:06:48Z</time>
      </trkpt>
      <trkpt lat="50.67314" lon="1.84905">
        <ele>108.4</ele>
        <time>2016-05-06T11:06:49Z</time>
      </trkpt>
      <trkpt lat="50.67323" lon="1.84902">
        <ele>108.2</ele>
        <time>2016-05-06T11:06:50Z</time>
      </trkpt>
      <trkpt lat="50.67341" lon="1.84898">
        <ele>107.8</ele>
        <time>2016-05-06T11:06:52Z</time>
      </trkpt>
      <trkpt lat="50.67357" lon="1.84898">
        <ele>107.5</ele>
        <time>2016-05-06T11:06:54Z</time>
      </trkpt>
      <trkpt lat="50.67372" lon="1.84899">
        <ele>107.3</ele>
        <time>2016-05-06T11:06:56Z</time>
      </trkpt>
      <trkpt lat="50.67386" lon="1.849">
        <ele>107.2</ele>
        <time>2016-05-06T11:06:58Z</time>
      </trkpt>
      <trkpt lat="50.67399" lon="1.84903">
        <ele>107.1</ele>
        <time>2016-05-06T11:07:00Z</time>
      </trkpt>
      <trkpt lat="50.67411" lon="1.8491">
        <ele>107.1</ele>
        <time>2016-05-06T11:07:02Z</time>
      </trkpt>
      <trkpt lat="50.67423" lon="1.84918">
        <ele>107.3</ele>
        <time>2016-05-06T11:07:04Z</time>
      </trkpt>
      <trkpt lat="50.67432" lon="1.84929">
        <ele>107.5</ele>
        <time>2016-05-06T11:07:06Z</time>
      </trkpt>
      <trkpt lat="50.6744" lon="1.8494">
        <ele>107.7</ele>
        <time>2016-05-06T11:07:08Z</time>
      </trkpt>
      <trkpt lat="50.67447" lon="1.84953">
        <ele>108.2</ele>
        <time>2016-05-06T11:07:10Z</time>
      </trkpt>
      <trkpt lat="50.67453" lon="1.84967">
        <ele>108.6</ele>
        <time>2016-05-06T11:07:12Z</time>
      </trkpt>
      <trkpt lat="50.67458" lon="1.84983">
        <ele>108.9</ele>
        <time>2016-05-06T11:07:14Z</time>
      </trkpt>
      <trkpt lat="50.67463" lon="1.84999">
        <ele>109.2</ele>
        <time>2016-05-06T11:07:16Z</time>
      </trkpt>
      <trkpt lat="50.67468" lon="1.85016">
        <ele>109.5</ele>
        <time>2016-05-06T11:07:18Z</time>
      </trkpt>
      <trkpt lat="50.67473" lon="1.85034">
        <ele>109.7</ele>
        <time>2016-05-06T11:07:20Z</time>
      </trkpt>
      <trkpt lat="50.67478" lon="1.85052">
        <ele>110</ele>
        <time>2016-05-06T11:07:22Z</time>
      </trkpt>
      <trkpt lat="50.67483" lon="1.85071">
        <ele>110.2</ele>
        <time>2016-05-06T11:07:24Z</time>
      </trkpt>
      <trkpt lat="50.67487" lon="1.85091">
        <ele>110.4</ele>
        <time>2016-05-06T11:07:26Z</time>
      </trkpt>
      <trkpt lat="50.67491" lon="1.85112">
        <ele>110.6</ele>
        <time>2016-05-06T11:07:28Z</time>
      </trkpt>
      <trkpt lat="50.67495" lon="1.85133">
        <ele>110.8</ele>
        <time>2016-05-06T11:07:30Z</time>
      </trkpt>
      <trkpt lat="50.67499" lon="1.85154">
        <ele>110.9</ele>
        <time>2016-05-06T11:07:32Z</time>
      </trkpt>
      <trkpt lat="50.67503" lon="1.85175">
        <ele>111.1</ele>
        <time>2016-05-06T11:07:34Z</time>
      </trkpt>
      <trkpt lat="50.67507" lon="1.85197">
        <ele>111.2</ele>
        <time>2016-05-06T11:07:36Z</time>
      </trkpt>
      <trkpt lat="50.67511" lon="1.85219">
        <ele>111.3</ele>
        <time>2016-05-06T11:07:38Z</time>
      </trkpt>
      <trkpt lat="50.67515" lon="1.8524">
        <ele>111.4</ele>
        <time>2016-05-06T11:07:40Z</time>
      </trkpt>
      <trkpt lat="50.6752" lon="1.8526">
        <ele>111.4</ele>
        <time>2016-05-06T11:07:42Z</time>
      </trkpt>
      <trkpt lat="50.67527" lon="1.85279">
        <ele>111.5</ele>
        <time>2016-05-06T11:07:44Z</time>
      </trkpt>
      <trkpt lat="50.67536" lon="1.85297">
        <ele>111.6</ele>
        <time>2016-05-06T11:07:46Z</time>
      </trkpt>
      <trkpt lat="50.67545" lon="1.85314">
        <ele>111.6</ele>
        <time>2016-05-06T11:07:48Z</time>
      </trkpt>
      <trkpt lat="50.67553" lon="1.85331">
        <ele>111.6</ele>
        <time>2016-05-06T11:07:50Z</time>
      </trkpt>
      <trkpt lat="50.67562" lon="1.85348">
        <ele>111.7</ele>
        <time>2016-05-06T11:07:52Z</time>
      </trkpt>
      <trkpt lat="50.6757" lon="1.85365">
        <ele>111.7</ele>
        <time>2016-05-06T11:07:54Z</time>
      </trkpt>
      <trkpt lat="50.67578" lon="1.85381">
        <ele>111.8</ele>
        <time>2016-05-06T11:07:56Z</time>
      </trkpt>
      <trkpt lat="50.67587" lon="1.85397">
        <ele>111.8</ele>
        <time>2016-05-06T11:07:58Z</time>
      </trkpt>
      <trkpt lat="50.67595" lon="1.85413">
        <ele>112</ele>
        <time>2016-05-06T11:08:00Z</time>
      </trkpt>
      <trkpt lat="50.67603" lon="1.85429">
        <ele>112.1</ele>
        <time>2016-05-06T11:08:02Z</time>
      </trkpt>
      <trkpt lat="50.6761" lon="1.85442">
        <ele>112.2</ele>
        <time>2016-05-06T11:08:04Z</time>
      </trkpt>
      <trkpt lat="50.67604" lon="1.85424">
        <ele>112.6</ele>
        <time>2016-05-06T11:08:13Z</time>
      </trkpt>
      <trkpt lat="50.67598" lon="1.85411">
        <ele>112.7</ele>
        <time>2016-05-06T11:08:15Z</time>
      </trkpt>
      <trkpt lat="50.67591" lon="1.85397">
        <ele>112.8</ele>
        <time>2016-05-06T11:08:17Z</time>
      </trkpt>
      <trkpt lat="50.67584" lon="1.85382">
        <ele>112.8</ele>
        <time>2016-05-06T11:08:19Z</time>
      </trkpt>
      <trkpt lat="50.67576" lon="1.85367">
        <ele>112.8</ele>
        <time>2016-05-06T11:08:21Z</time>
      </trkpt>
      <trkpt lat="50.67568" lon="1.8535">
        <ele>112.8</ele>
        <time>2016-05-06T11:08:23Z</time>
      </trkpt>
      <trkpt lat="50.6756" lon="1.85334">
        <ele>112.8</ele>
        <time>2016-05-06T11:08:25Z</time>
      </trkpt>
      <trkpt lat="50.67552" lon="1.85318">
        <ele>112.7</ele>
        <time>2016-05-06T11:08:27Z</time>
      </trkpt>
      <trkpt lat="50.67544" lon="1.85303">
        <ele>112.6</ele>
        <time>2016-05-06T11:08:29Z</time>
      </trkpt>
      <trkpt lat="50.67537" lon="1.85288">
        <ele>112.5</ele>
        <time>2016-05-06T11:08:31Z</time>
      </trkpt>
      <trkpt lat="50.6753" lon="1.85272">
        <ele>112.5</ele>
        <time>2016-05-06T11:08:33Z</time>
      </trkpt>
      <trkpt lat="50.67524" lon="1.85257">
        <ele>112.4</ele>
        <time>2016-05-06T11:08:35Z</time>
      </trkpt>
      <trkpt lat="50.6752" lon="1.85242">
        <ele>112.3</ele>
        <time>2016-05-06T11:08:37Z</time>
      </trkpt>
      <trkpt lat="50.67517" lon="1.85227">
        <ele>112.3</ele>
        <time>2016-05-06T11:08:39Z</time>
      </trkpt>
      <trkpt lat="50.67514" lon="1.85214">
        <ele>112.2</ele>
        <time>2016-05-06T11:08:41Z</time>
      </trkpt>
      <trkpt lat="50.67514" lon="1.85193">
        <ele>112.1</ele>
        <time>2016-05-06T11:08:44Z</time>
      </trkpt>
      <trkpt lat="50.67523" lon="1.85184">
        <ele>112.1</ele>
        <time>2016-05-06T11:08:46Z</time>
      </trkpt>
      <trkpt lat="50.67533" lon="1.85174">
        <ele>111.9</ele>
        <time>2016-05-06T11:08:48Z</time>
      </trkpt>
      <trkpt lat="50.67544" lon="1.85163">
        <ele>111.8</ele>
        <time>2016-05-06T11:08:50Z</time>
      </trkpt>
      <trkpt lat="50.67556" lon="1.85151">
        <ele>111.7</ele>
        <time>2016-05-06T11:08:52Z</time>
      </trkpt>
      <trkpt lat="50.6757" lon="1.85139">
        <ele>111.4</ele>
        <time>2016-05-06T11:08:54Z</time>
      </trkpt>
      <trkpt lat="50.67578" lon="1.85132">
        <ele>111.2</ele>
        <time>2016-05-06T11:08:55Z</time>
      </trkpt>
      <trkpt lat="50.67586" lon="1.85124">
        <ele>110.9</ele>
        <time>2016-05-06T11:08:56Z</time>
      </trkpt>
      <trkpt lat="50.67595" lon="1.85117">
        <ele>110.6</ele>
        <time>2016-05-06T11:08:57Z</time>
      </trkpt>
      <trkpt lat="50.67605" lon="1.85111">
        <ele>110.3</ele>
        <time>2016-05-06T11:08:58Z</time>
      </trkpt>
      <trkpt lat="50.67615" lon="1.85107">
        <ele>110</ele>
        <time>2016-05-06T11:08:59Z</time>
      </trkpt>
      <trkpt lat="50.67625" lon="1.85105">
        <ele>109.7</ele>
        <time>2016-05-06T11:09:00Z</time>
      </trkpt>
      <trkpt lat="50.67634" lon="1.85103">
        <ele>109.4</ele>
        <time>2016-05-06T11:09:01Z</time>
      </trkpt>
      <trkpt lat="50.67643" lon="1.851">
        <ele>109.1</ele>
        <time>2016-05-06T11:09:02Z</time>
      </trkpt>
      <trkpt lat="50.67652" lon="1.85095">
        <ele>108.8</ele>
        <time>2016-05-06T11:09:03Z</time>
      </trkpt>
      <trkpt lat="50.67669" lon="1.85086">
        <ele>108.4</ele>
        <time>2016-05-06T11:09:05Z</time>
      </trkpt>
      <trkpt lat="50.67684" lon="1.85077">
        <ele>107.9</ele>
        <time>2016-05-06T11:09:07Z</time>
      </trkpt>
      <trkpt lat="50.67699" lon="1.85066">
        <ele>107.5</ele>
        <time>2016-05-06T11:09:09Z</time>
      </trkpt>
      <trkpt lat="50.67711" lon="1.85048">
        <ele>107.2</ele>
        <time>2016-05-06T11:09:11Z</time>
      </trkpt>
      <trkpt lat="50.67716" lon="1.85036">
        <ele>107</ele>
        <time>2016-05-06T11:09:12Z</time>
      </trkpt>
      <trkpt lat="50.67722" lon="1.85023">
        <ele>106.7</ele>
        <time>2016-05-06T11:09:13Z</time>
      </trkpt>
      <trkpt lat="50.67728" lon="1.85011">
        <ele>106.4</ele>
        <time>2016-05-06T11:09:14Z</time>
      </trkpt>
      <trkpt lat="50.67735" lon="1.84997">
        <ele>106</ele>
        <time>2016-05-06T11:09:15Z</time>
      </trkpt>
      <trkpt lat="50.67741" lon="1.84984">
        <ele>105.7</ele>
        <time>2016-05-06T11:09:16Z</time>
      </trkpt>
      <trkpt lat="50.67748" lon="1.84971">
        <ele>105.3</ele>
        <time>2016-05-06T11:09:17Z</time>
      </trkpt>
      <trkpt lat="50.67755" lon="1.84958">
        <ele>104.9</ele>
        <time>2016-05-06T11:09:18Z</time>
      </trkpt>
      <trkpt lat="50.67763" lon="1.84947">
        <ele>104.5</ele>
        <time>2016-05-06T11:09:19Z</time>
      </trkpt>
      <trkpt lat="50.67772" lon="1.84937">
        <ele>104</ele>
        <time>2016-05-06T11:09:20Z</time>
      </trkpt>
      <trkpt lat="50.67782" lon="1.84928">
        <ele>103.6</ele>
        <time>2016-05-06T11:09:21Z</time>
      </trkpt>
      <trkpt lat="50.67793" lon="1.84921">
        <ele>103.1</ele>
        <time>2016-05-06T11:09:22Z</time>
      </trkpt>
      <trkpt lat="50.67803" lon="1.84914">
        <ele>102.7</ele>
        <time>2016-05-06T11:09:23Z</time>
      </trkpt>
      <trkpt lat="50.67813" lon="1.84907">
        <ele>102.2</ele>
        <time>2016-05-06T11:09:24Z</time>
      </trkpt>
      <trkpt lat="50.67824" lon="1.84901">
        <ele>101.8</ele>
        <time>2016-05-06T11:09:25Z</time>
      </trkpt>
      <trkpt lat="50.67834" lon="1.84894">
        <ele>101.4</ele>
        <time>2016-05-06T11:09:26Z</time>
      </trkpt>
      <trkpt lat="50.67844" lon="1.84887">
        <ele>101</ele>
        <time>2016-05-06T11:09:27Z</time>
      </trkpt>
      <trkpt lat="50.67854" lon="1.84881">
        <ele>100.6</ele>
        <time>2016-05-06T11:09:28Z</time>
      </trkpt>
      <trkpt lat="50.67864" lon="1.84875">
        <ele>100.2</ele>
        <time>2016-05-06T11:09:29Z</time>
      </trkpt>
      <trkpt lat="50.67874" lon="1.84869">
        <ele>99.8</ele>
        <time>2016-05-06T11:09:30Z</time>
      </trkpt>
      <trkpt lat="50.67884" lon="1.84863">
        <ele>99.4</ele>
        <time>2016-05-06T11:09:31Z</time>
      </trkpt>
      <trkpt lat="50.67894" lon="1.84857">
        <ele>99</ele>
        <time>2016-05-06T11:09:32Z</time>
      </trkpt>
      <trkpt lat="50.67904" lon="1.84851">
        <ele>98.6</ele>
        <time>2016-05-06T11:09:33Z</time>
      </trkpt>
      <trkpt lat="50.67914" lon="1.84845">
        <ele>98.2</ele>
        <time>2016-05-06T11:09:34Z</time>
      </trkpt>
      <trkpt lat="50.67923" lon="1.84839">
        <ele>97.8</ele>
        <time>2016-05-06T11:09:35Z</time>
      </trkpt>
      <trkpt lat="50.67933" lon="1.84834">
        <ele>97.3</ele>
        <time>2016-05-06T11:09:36Z</time>
      </trkpt>
      <trkpt lat="50.67942" lon="1.84829">
        <ele>96.8</ele>
        <time>2016-05-06T11:09:37Z</time>
      </trkpt>
      <trkpt lat="50.67952" lon="1.84823">
        <ele>96.3</ele>
        <time>2016-05-06T11:09:38Z</time>
      </trkpt>
      <trkpt lat="50.67961" lon="1.84817">
        <ele>95.9</ele>
        <time>2016-05-06T11:09:39Z</time>
      </trkpt>
      <trkpt lat="50.6797" lon="1.8481">
        <ele>95.4</ele>
        <time>2016-05-06T11:09:40Z</time>
      </trkpt>
      <trkpt lat="50.67978" lon="1.84803">
        <ele>95</ele>
        <time>2016-05-06T11:09:41Z</time>
      </trkpt>
      <trkpt lat="50.67986" lon="1.84796">
        <ele>94.7</ele>
        <time>2016-05-06T11:09:42Z</time>
      </trkpt>
      <trkpt lat="50.67994" lon="1.84788">
        <ele>94.2</ele>
        <time>2016-05-06T11:09:43Z</time>
      </trkpt>
      <trkpt lat="50.68001" lon="1.8478">
        <ele>93.7</ele>
        <time>2016-05-06T11:09:44Z</time>
      </trkpt>
      <trkpt lat="50.68017" lon="1.84765">
        <ele>93</ele>
        <time>2016-05-06T11:09:46Z</time>
      </trkpt>
      <trkpt lat="50.68032" lon="1.84752">
        <ele>92.3</ele>
        <time>2016-05-06T11:09:48Z</time>
      </trkpt>
      <trkpt lat="50.68047" lon="1.8474">
        <ele>91.7</ele>
        <time>2016-05-06T11:09:50Z</time>
      </trkpt>
      <trkpt lat="50.68062" lon="1.84728">
        <ele>91.2</ele>
        <time>2016-05-06T11:09:52Z</time>
      </trkpt>
      <trkpt lat="50.68075" lon="1.84715">
        <ele>90.7</ele>
        <time>2016-05-06T11:09:54Z</time>
      </trkpt>
      <trkpt lat="50.68088" lon="1.847">
        <ele>90.3</ele>
        <time>2016-05-06T11:09:56Z</time>
      </trkpt>
      <trkpt lat="50.68099" lon="1.84683">
        <ele>89.9</ele>
        <time>2016-05-06T11:09:58Z</time>
      </trkpt>
      <trkpt lat="50.68105" lon="1.84661">
        <ele>89.4</ele>
        <time>2016-05-06T11:10:00Z</time>
      </trkpt>
      <trkpt lat="50.68111" lon="1.84639">
        <ele>89</ele>
        <time>2016-05-06T11:10:02Z</time>
      </trkpt>
      <trkpt lat="50.68117" lon="1.84617">
        <ele>88.5</ele>
        <time>2016-05-06T11:10:04Z</time>
      </trkpt>
      <trkpt lat="50.68122" lon="1.84596">
        <ele>88.1</ele>
        <time>2016-05-06T11:10:06Z</time>
      </trkpt>
      <trkpt lat="50.68127" lon="1.84572">
        <ele>87.8</ele>
        <time>2016-05-06T11:10:08Z</time>
      </trkpt>
      <trkpt lat="50.6813" lon="1.84548">
        <ele>87.5</ele>
        <time>2016-05-06T11:10:10Z</time>
      </trkpt>
      <trkpt lat="50.68131" lon="1.84522">
        <ele>87.1</ele>
        <time>2016-05-06T11:10:12Z</time>
      </trkpt>
      <trkpt lat="50.68129" lon="1.84496">
        <ele>86.8</ele>
        <time>2016-05-06T11:10:14Z</time>
      </trkpt>
      <trkpt lat="50.68126" lon="1.84468">
        <ele>86.5</ele>
        <time>2016-05-06T11:10:16Z</time>
      </trkpt>
      <trkpt lat="50.68125" lon="1.84453">
        <ele>86.3</ele>
        <time>2016-05-06T11:10:17Z</time>
      </trkpt>
      <trkpt lat="50.68124" lon="1.84438">
        <ele>86</ele>
        <time>2016-05-06T11:10:18Z</time>
      </trkpt>
      <trkpt lat="50.68125" lon="1.84422">
        <ele>85.8</ele>
        <time>2016-05-06T11:10:19Z</time>
      </trkpt>
      <trkpt lat="50.68126" lon="1.84407">
        <ele>85.5</ele>
        <time>2016-05-06T11:10:20Z</time>
      </trkpt>
      <trkpt lat="50.68129" lon="1.84392">
        <ele>85.2</ele>
        <time>2016-05-06T11:10:21Z</time>
      </trkpt>
      <trkpt lat="50.68132" lon="1.84378">
        <ele>85</ele>
        <time>2016-05-06T11:10:22Z</time>
      </trkpt>
      <trkpt lat="50.68143" lon="1.84368">
        <ele>84.6</ele>
        <time>2016-05-06T11:10:24Z</time>
      </trkpt>
      <trkpt lat="50.68155" lon="1.84362">
        <ele>84.3</ele>
        <time>2016-05-06T11:10:26Z</time>
      </trkpt>
      <trkpt lat="50.68166" lon="1.84359">
        <ele>84.3</ele>
        <time>2016-05-06T11:10:28Z</time>
      </trkpt>
      <trkpt lat="50.68177" lon="1.84356">
        <ele>84.3</ele>
        <time>2016-05-06T11:10:30Z</time>
      </trkpt>
      <trkpt lat="50.68188" lon="1.84348">
        <ele>84.3</ele>
        <time>2016-05-06T11:10:32Z</time>
      </trkpt>
      <trkpt lat="50.68197" lon="1.84336">
        <ele>84.6</ele>
        <time>2016-05-06T11:10:34Z</time>
      </trkpt>
      <trkpt lat="50.68203" lon="1.84322">
        <ele>84.8</ele>
        <time>2016-05-06T11:10:36Z</time>
      </trkpt>
      <trkpt lat="50.68208" lon="1.84309">
        <ele>85</ele>
        <time>2016-05-06T11:10:38Z</time>
      </trkpt>
      <trkpt lat="50.68213" lon="1.84293">
        <ele>85.3</ele>
        <time>2016-05-06T11:10:41Z</time>
      </trkpt>
      <trkpt lat="50.6821" lon="1.84278">
        <ele>85.5</ele>
        <time>2016-05-06T11:10:44Z</time>
      </trkpt>
      <trkpt lat="50.68202" lon="1.84266">
        <ele>85.6</ele>
        <time>2016-05-06T11:10:47Z</time>
      </trkpt>
      <trkpt lat="50.68191" lon="1.84254">
        <ele>85.9</ele>
        <time>2016-05-06T11:10:50Z</time>
      </trkpt>
      <trkpt lat="50.68182" lon="1.84245">
        <ele>86.1</ele>
        <time>2016-05-06T11:10:52Z</time>
      </trkpt>
      <trkpt lat="50.68172" lon="1.84235">
        <ele>86.3</ele>
        <time>2016-05-06T11:10:54Z</time>
      </trkpt>
      <trkpt lat="50.68164" lon="1.84225">
        <ele>86.6</ele>
        <time>2016-05-06T11:10:56Z</time>
      </trkpt>
      <trkpt lat="50.68156" lon="1.84216">
        <ele>86.8</ele>
        <time>2016-05-06T11:10:58Z</time>
      </trkpt>
      <trkpt lat="50.68148" lon="1.84206">
        <ele>87.1</ele>
        <time>2016-05-06T11:11:00Z</time>
      </trkpt>
      <trkpt lat="50.6814" lon="1.84197">
        <ele>87.4</ele>
        <time>2016-05-06T11:11:02Z</time>
      </trkpt>
      <trkpt lat="50.68131" lon="1.8419">
        <ele>87.6</ele>
        <time>2016-05-06T11:11:04Z</time>
      </trkpt>
      <trkpt lat="50.68123" lon="1.84181">
        <ele>87.8</ele>
        <time>2016-05-06T11:11:06Z</time>
      </trkpt>
      <trkpt lat="50.68115" lon="1.84172">
        <ele>88.1</ele>
        <time>2016-05-06T11:11:08Z</time>
      </trkpt>
      <trkpt lat="50.68106" lon="1.84162">
        <ele>88.4</ele>
        <time>2016-05-06T11:11:10Z</time>
      </trkpt>
      <trkpt lat="50.68096" lon="1.84152">
        <ele>88.6</ele>
        <time>2016-05-06T11:11:12Z</time>
      </trkpt>
      <trkpt lat="50.68085" lon="1.8414">
        <ele>88.8</ele>
        <time>2016-05-06T11:11:14Z</time>
      </trkpt>
      <trkpt lat="50.68073" lon="1.84128">
        <ele>88.9</ele>
        <time>2016-05-06T11:11:16Z</time>
      </trkpt>
      <trkpt lat="50.6806" lon="1.84115">
        <ele>88.9</ele>
        <time>2016-05-06T11:11:18Z</time>
      </trkpt>
      <trkpt lat="50.68047" lon="1.841">
        <ele>88.9</ele>
        <time>2016-05-06T11:11:20Z</time>
      </trkpt>
      <trkpt lat="50.68032" lon="1.84085">
        <ele>88.7</ele>
        <time>2016-05-06T11:11:22Z</time>
      </trkpt>
      <trkpt lat="50.68025" lon="1.84077">
        <ele>88.6</ele>
        <time>2016-05-06T11:11:23Z</time>
      </trkpt>
      <trkpt lat="50.68017" lon="1.84069">
        <ele>88.3</ele>
        <time>2016-05-06T11:11:24Z</time>
      </trkpt>
      <trkpt lat="50.68009" lon="1.8406">
        <ele>88.1</ele>
        <time>2016-05-06T11:11:25Z</time>
      </trkpt>
      <trkpt lat="50.68001" lon="1.84052">
        <ele>87.8</ele>
        <time>2016-05-06T11:11:26Z</time>
      </trkpt>
      <trkpt lat="50.67993" lon="1.84043">
        <ele>87.6</ele>
        <time>2016-05-06T11:11:27Z</time>
      </trkpt>
      <trkpt lat="50.67985" lon="1.84034">
        <ele>87.4</ele>
        <time>2016-05-06T11:11:28Z</time>
      </trkpt>
      <trkpt lat="50.67976" lon="1.84025">
        <ele>87.1</ele>
        <time>2016-05-06T11:11:29Z</time>
      </trkpt>
      <trkpt lat="50.67968" lon="1.84016">
        <ele>86.8</ele>
        <time>2016-05-06T11:11:30Z</time>
      </trkpt>
      <trkpt lat="50.67959" lon="1.84007">
        <ele>86.5</ele>
        <time>2016-05-06T11:11:31Z</time>
      </trkpt>
      <trkpt lat="50.67951" lon="1.83998">
        <ele>86.2</ele>
        <time>2016-05-06T11:11:32Z</time>
      </trkpt>
      <trkpt lat="50.67942" lon="1.83989">
        <ele>85.8</ele>
        <time>2016-05-06T11:11:33Z</time>
      </trkpt>
      <trkpt lat="50.67934" lon="1.83981">
        <ele>85.4</ele>
        <time>2016-05-06T11:11:34Z</time>
      </trkpt>
      <trkpt lat="50.67925" lon="1.83974">
        <ele>85.1</ele>
        <time>2016-05-06T11:11:35Z</time>
      </trkpt>
      <trkpt lat="50.67916" lon="1.83968">
        <ele>84.8</ele>
        <time>2016-05-06T11:11:36Z</time>
      </trkpt>
      <trkpt lat="50.67907" lon="1.83963">
        <ele>84.4</ele>
        <time>2016-05-06T11:11:37Z</time>
      </trkpt>
      <trkpt lat="50.67899" lon="1.83958">
        <ele>84.1</ele>
        <time>2016-05-06T11:11:38Z</time>
      </trkpt>
      <trkpt lat="50.67882" lon="1.83951">
        <ele>83.6</ele>
        <time>2016-05-06T11:11:40Z</time>
      </trkpt>
      <trkpt lat="50.67865" lon="1.83946">
        <ele>82.9</ele>
        <time>2016-05-06T11:11:42Z</time>
      </trkpt>
      <trkpt lat="50.67849" lon="1.83941">
        <ele>82.2</ele>
        <time>2016-05-06T11:11:44Z</time>
      </trkpt>
      <trkpt lat="50.67832" lon="1.83935">
        <ele>81.5</ele>
        <time>2016-05-06T11:11:46Z</time>
      </trkpt>
      <trkpt lat="50.67817" lon="1.83928">
        <ele>80.9</ele>
        <time>2016-05-06T11:11:48Z</time>
      </trkpt>
      <trkpt lat="50.67802" lon="1.8392">
        <ele>80.3</ele>
        <time>2016-05-06T11:11:50Z</time>
      </trkpt>
      <trkpt lat="50.67786" lon="1.83912">
        <ele>79.8</ele>
        <time>2016-05-06T11:11:52Z</time>
      </trkpt>
      <trkpt lat="50.67773" lon="1.83903">
        <ele>79.4</ele>
        <time>2016-05-06T11:11:54Z</time>
      </trkpt>
      <trkpt lat="50.6776" lon="1.83894">
        <ele>79.1</ele>
        <time>2016-05-06T11:11:56Z</time>
      </trkpt>
      <trkpt lat="50.67749" lon="1.83884">
        <ele>78.9</ele>
        <time>2016-05-06T11:11:58Z</time>
      </trkpt>
      <trkpt lat="50.67738" lon="1.83874">
        <ele>78.7</ele>
        <time>2016-05-06T11:12:00Z</time>
      </trkpt>
      <trkpt lat="50.67725" lon="1.83866">
        <ele>78.6</ele>
        <time>2016-05-06T11:12:02Z</time>
      </trkpt>
      <trkpt lat="50.6771" lon="1.83862">
        <ele>78.5</ele>
        <time>2016-05-06T11:12:04Z</time>
      </trkpt>
      <trkpt lat="50.67692" lon="1.83863">
        <ele>78.4</ele>
        <time>2016-05-06T11:12:06Z</time>
      </trkpt>
      <trkpt lat="50.67683" lon="1.83864">
        <ele>78.2</ele>
        <time>2016-05-06T11:12:07Z</time>
      </trkpt>
      <trkpt lat="50.67666" lon="1.83865">
        <ele>77.9</ele>
        <time>2016-05-06T11:12:09Z</time>
      </trkpt>
      <trkpt lat="50.67651" lon="1.83862">
        <ele>77.6</ele>
        <time>2016-05-06T11:12:11Z</time>
      </trkpt>
      <trkpt lat="50.67638" lon="1.83858">
        <ele>77.4</ele>
        <time>2016-05-06T11:12:13Z</time>
      </trkpt>
      <trkpt lat="50.67627" lon="1.83852">
        <ele>77.2</ele>
        <time>2016-05-06T11:12:15Z</time>
      </trkpt>
      <trkpt lat="50.67617" lon="1.83846">
        <ele>77.2</ele>
        <time>2016-05-06T11:12:17Z</time>
      </trkpt>
      <trkpt lat="50.67608" lon="1.8384">
        <ele>77.2</ele>
        <time>2016-05-06T11:12:19Z</time>
      </trkpt>
      <trkpt lat="50.67595" lon="1.83833">
        <ele>77.5</ele>
        <time>2016-05-06T11:12:22Z</time>
      </trkpt>
      <trkpt lat="50.67583" lon="1.83827">
        <ele>77.8</ele>
        <time>2016-05-06T11:12:25Z</time>
      </trkpt>
      <trkpt lat="50.67571" lon="1.83819">
        <ele>78.3</ele>
        <time>2016-05-06T11:12:28Z</time>
      </trkpt>
      <trkpt lat="50.67559" lon="1.83812">
        <ele>78.9</ele>
        <time>2016-05-06T11:12:31Z</time>
      </trkpt>
      <trkpt lat="50.67548" lon="1.83806">
        <ele>79.4</ele>
        <time>2016-05-06T11:12:34Z</time>
      </trkpt>
      <trkpt lat="50.67536" lon="1.83801">
        <ele>80.1</ele>
        <time>2016-05-06T11:12:37Z</time>
      </trkpt>
      <trkpt lat="50.67525" lon="1.83797">
        <ele>80.8</ele>
        <time>2016-05-06T11:12:40Z</time>
      </trkpt>
      <trkpt lat="50.67514" lon="1.83793">
        <ele>81.5</ele>
        <time>2016-05-06T11:12:43Z</time>
      </trkpt>
      <trkpt lat="50.67503" lon="1.83789">
        <ele>82.3</ele>
        <time>2016-05-06T11:12:46Z</time>
      </trkpt>
      <trkpt lat="50.67493" lon="1.83786">
        <ele>83.1</ele>
        <time>2016-05-06T11:12:49Z</time>
      </trkpt>
      <trkpt lat="50.67482" lon="1.83782">
        <ele>83.8</ele>
        <time>2016-05-06T11:12:52Z</time>
      </trkpt>
      <trkpt lat="50.67471" lon="1.83777">
        <ele>84.4</ele>
        <time>2016-05-06T11:12:55Z</time>
      </trkpt>
      <trkpt lat="50.67459" lon="1.83773">
        <ele>84.9</ele>
        <time>2016-05-06T11:12:58Z</time>
      </trkpt>
      <trkpt lat="50.67449" lon="1.8377">
        <ele>85.5</ele>
        <time>2016-05-06T11:13:01Z</time>
      </trkpt>
      <trkpt lat="50.67438" lon="1.83767">
        <ele>86.2</ele>
        <time>2016-05-06T11:13:04Z</time>
      </trkpt>
      <trkpt lat="50.67428" lon="1.83765">
        <ele>86.8</ele>
        <time>2016-05-06T11:13:07Z</time>
      </trkpt>
      <trkpt lat="50.67417" lon="1.83765">
        <ele>87.4</ele>
        <time>2016-05-06T11:13:10Z</time>
      </trkpt>
      <trkpt lat="50.67405" lon="1.83765">
        <ele>88.2</ele>
        <time>2016-05-06T11:13:13Z</time>
      </trkpt>
      <trkpt lat="50.67393" lon="1.83765">
        <ele>88.8</ele>
        <time>2016-05-06T11:13:16Z</time>
      </trkpt>
      <trkpt lat="50.67381" lon="1.83767">
        <ele>89.3</ele>
        <time>2016-05-06T11:13:19Z</time>
      </trkpt>
      <trkpt lat="50.67368" lon="1.83769">
        <ele>89.9</ele>
        <time>2016-05-06T11:13:22Z</time>
      </trkpt>
      <trkpt lat="50.67355" lon="1.83771">
        <ele>90.4</ele>
        <time>2016-05-06T11:13:25Z</time>
      </trkpt>
      <trkpt lat="50.67346" lon="1.83773">
        <ele>90.7</ele>
        <time>2016-05-06T11:13:27Z</time>
      </trkpt>
      <trkpt lat="50.67333" lon="1.83775">
        <ele>91.2</ele>
        <time>2016-05-06T11:13:30Z</time>
      </trkpt>
      <trkpt lat="50.67323" lon="1.83776">
        <ele>91.6</ele>
        <time>2016-05-06T11:13:32Z</time>
      </trkpt>
      <trkpt lat="50.67314" lon="1.83777">
        <ele>91.9</ele>
        <time>2016-05-06T11:13:34Z</time>
      </trkpt>
      <trkpt lat="50.67305" lon="1.83779">
        <ele>92.3</ele>
        <time>2016-05-06T11:13:36Z</time>
      </trkpt>
      <trkpt lat="50.67296" lon="1.8378">
        <ele>92.6</ele>
        <time>2016-05-06T11:13:38Z</time>
      </trkpt>
      <trkpt lat="50.67282" lon="1.8378">
        <ele>93</ele>
        <time>2016-05-06T11:13:41Z</time>
      </trkpt>
      <trkpt lat="50.67273" lon="1.83779">
        <ele>93.3</ele>
        <time>2016-05-06T11:13:43Z</time>
      </trkpt>
      <trkpt lat="50.67264" lon="1.83776">
        <ele>93.6</ele>
        <time>2016-05-06T11:13:45Z</time>
      </trkpt>
      <trkpt lat="50.6725" lon="1.83773">
        <ele>94.2</ele>
        <time>2016-05-06T11:13:48Z</time>
      </trkpt>
      <trkpt lat="50.67238" lon="1.83769">
        <ele>94.7</ele>
        <time>2016-05-06T11:13:51Z</time>
      </trkpt>
      <trkpt lat="50.67227" lon="1.83764">
        <ele>95.4</ele>
        <time>2016-05-06T11:13:54Z</time>
      </trkpt>
      <trkpt lat="50.67216" lon="1.8376">
        <ele>96.1</ele>
        <time>2016-05-06T11:13:57Z</time>
      </trkpt>
      <trkpt lat="50.67206" lon="1.83756">
        <ele>96.8</ele>
        <time>2016-05-06T11:14:00Z</time>
      </trkpt>
      <trkpt lat="50.67196" lon="1.83752">
        <ele>97.5</ele>
        <time>2016-05-06T11:14:03Z</time>
      </trkpt>
      <trkpt lat="50.67187" lon="1.83748">
        <ele>98.2</ele>
        <time>2016-05-06T11:14:06Z</time>
      </trkpt>
      <trkpt lat="50.67177" lon="1.83743">
        <ele>98.9</ele>
        <time>2016-05-06T11:14:09Z</time>
      </trkpt>
      <trkpt lat="50.67171" lon="1.83731">
        <ele>99.6</ele>
        <time>2016-05-06T11:14:12Z</time>
      </trkpt>
      <trkpt lat="50.6717" lon="1.83713">
        <ele>100.3</ele>
        <time>2016-05-06T11:14:15Z</time>
      </trkpt>
      <trkpt lat="50.67169" lon="1.83693">
        <ele>100.9</ele>
        <time>2016-05-06T11:14:18Z</time>
      </trkpt>
      <trkpt lat="50.67168" lon="1.83678">
        <ele>101.2</ele>
        <time>2016-05-06T11:14:20Z</time>
      </trkpt>
      <trkpt lat="50.67169" lon="1.83662">
        <ele>101.5</ele>
        <time>2016-05-06T11:14:22Z</time>
      </trkpt>
      <trkpt lat="50.67168" lon="1.83645">
        <ele>101.8</ele>
        <time>2016-05-06T11:14:24Z</time>
      </trkpt>
      <trkpt lat="50.67168" lon="1.83628">
        <ele>102.1</ele>
        <time>2016-05-06T11:14:26Z</time>
      </trkpt>
      <trkpt lat="50.67167" lon="1.83609">
        <ele>102.3</ele>
        <time>2016-05-06T11:14:28Z</time>
      </trkpt>
      <trkpt lat="50.67166" lon="1.8359">
        <ele>102.5</ele>
        <time>2016-05-06T11:14:30Z</time>
      </trkpt>
      <trkpt lat="50.67165" lon="1.8357">
        <ele>102.7</ele>
        <time>2016-05-06T11:14:32Z</time>
      </trkpt>
      <trkpt lat="50.67165" lon="1.8355">
        <ele>102.9</ele>
        <time>2016-05-06T11:14:34Z</time>
      </trkpt>
      <trkpt lat="50.67165" lon="1.83529">
        <ele>103</ele>
        <time>2016-05-06T11:14:36Z</time>
      </trkpt>
      <trkpt lat="50.67165" lon="1.83509">
        <ele>103</ele>
        <time>2016-05-06T11:14:38Z</time>
      </trkpt>
      <trkpt lat="50.67164" lon="1.83487">
        <ele>102.9</ele>
        <time>2016-05-06T11:14:40Z</time>
      </trkpt>
      <trkpt lat="50.67163" lon="1.83465">
        <ele>102.4</ele>
        <time>2016-05-06T11:14:42Z</time>
      </trkpt>
      <trkpt lat="50.67162" lon="1.83443">
        <ele>101.9</ele>
        <time>2016-05-06T11:14:44Z</time>
      </trkpt>
      <trkpt lat="50.67162" lon="1.83422">
        <ele>101.9</ele>
        <time>2016-05-06T11:14:46Z</time>
      </trkpt>
      <trkpt lat="50.67164" lon="1.83404">
        <ele>101.8</ele>
        <time>2016-05-06T11:14:49Z</time>
      </trkpt>
      <trkpt lat="50.67162" lon="1.83386">
        <ele>99.7</ele>
        <time>2016-05-06T11:15:04Z</time>
      </trkpt>
      <trkpt lat="50.6716" lon="1.83368">
        <ele>99.6</ele>
        <time>2016-05-06T11:15:07Z</time>
      </trkpt>
      <trkpt lat="50.67159" lon="1.83351">
        <ele>99.6</ele>
        <time>2016-05-06T11:15:09Z</time>
      </trkpt>
      <trkpt lat="50.67159" lon="1.8333">
        <ele>99.4</ele>
        <time>2016-05-06T11:15:11Z</time>
      </trkpt>
      <trkpt lat="50.67159" lon="1.83305">
        <ele>99.1</ele>
        <time>2016-05-06T11:15:13Z</time>
      </trkpt>
      <trkpt lat="50.6716" lon="1.83278">
        <ele>98.6</ele>
        <time>2016-05-06T11:15:15Z</time>
      </trkpt>
      <trkpt lat="50.6716" lon="1.83263">
        <ele>98.4</ele>
        <time>2016-05-06T11:15:16Z</time>
      </trkpt>
      <trkpt lat="50.67161" lon="1.83249">
        <ele>98.1</ele>
        <time>2016-05-06T11:15:17Z</time>
      </trkpt>
      <trkpt lat="50.67162" lon="1.83224">
        <ele>97.4</ele>
        <time>2016-05-06T11:15:19Z</time>
      </trkpt>
      <trkpt lat="50.67164" lon="1.83205">
        <ele>96.5</ele>
        <time>2016-05-06T11:15:21Z</time>
      </trkpt>
      <trkpt lat="50.67166" lon="1.83189">
        <ele>95.6</ele>
        <time>2016-05-06T11:15:23Z</time>
      </trkpt>
      <trkpt lat="50.67173" lon="1.83176">
        <ele>94.7</ele>
        <time>2016-05-06T11:15:25Z</time>
      </trkpt>
      <trkpt lat="50.67184" lon="1.83174">
        <ele>93.8</ele>
        <time>2016-05-06T11:15:27Z</time>
      </trkpt>
      <trkpt lat="50.67194" lon="1.83175">
        <ele>93</ele>
        <time>2016-05-06T11:15:29Z</time>
      </trkpt>
      <trkpt lat="50.67205" lon="1.83179">
        <ele>92</ele>
        <time>2016-05-06T11:15:32Z</time>
      </trkpt>
      <trkpt lat="50.6722" lon="1.83183">
        <ele>91.3</ele>
        <time>2016-05-06T11:15:35Z</time>
      </trkpt>
      <trkpt lat="50.67231" lon="1.83187">
        <ele>90.9</ele>
        <time>2016-05-06T11:15:37Z</time>
      </trkpt>
      <trkpt lat="50.6724" lon="1.8319">
        <ele>90.6</ele>
        <time>2016-05-06T11:15:39Z</time>
      </trkpt>
      <trkpt lat="50.67251" lon="1.83196">
        <ele>90.4</ele>
        <time>2016-05-06T11:15:41Z</time>
      </trkpt>
      <trkpt lat="50.67262" lon="1.83203">
        <ele>90.4</ele>
        <time>2016-05-06T11:15:43Z</time>
      </trkpt>
      <trkpt lat="50.67273" lon="1.83207">
        <ele>90.3</ele>
        <time>2016-05-06T11:15:45Z</time>
      </trkpt>
      <trkpt lat="50.67287" lon="1.83212">
        <ele>90.2</ele>
        <time>2016-05-06T11:15:47Z</time>
      </trkpt>
      <trkpt lat="50.67296" lon="1.83212">
        <ele>90.2</ele>
        <time>2016-05-06T11:15:48Z</time>
      </trkpt>
      <trkpt lat="50.67306" lon="1.83214">
        <ele>90.1</ele>
        <time>2016-05-06T11:15:49Z</time>
      </trkpt>
      <trkpt lat="50.67315" lon="1.83217">
        <ele>90.1</ele>
        <time>2016-05-06T11:15:50Z</time>
      </trkpt>
      <trkpt lat="50.6733" lon="1.83222">
        <ele>90</ele>
        <time>2016-05-06T11:15:52Z</time>
      </trkpt>
      <trkpt lat="50.6734" lon="1.83224">
        <ele>89.9</ele>
        <time>2016-05-06T11:15:53Z</time>
      </trkpt>
      <trkpt lat="50.67349" lon="1.83228">
        <ele>89.9</ele>
        <time>2016-05-06T11:15:54Z</time>
      </trkpt>
      <trkpt lat="50.67366" lon="1.83235">
        <ele>89.7</ele>
        <time>2016-05-06T11:15:56Z</time>
      </trkpt>
      <trkpt lat="50.67384" lon="1.83239">
        <ele>89.5</ele>
        <time>2016-05-06T11:15:58Z</time>
      </trkpt>
      <trkpt lat="50.674" lon="1.83242">
        <ele>89.3</ele>
        <time>2016-05-06T11:16:00Z</time>
      </trkpt>
      <trkpt lat="50.67416" lon="1.83242">
        <ele>89</ele>
        <time>2016-05-06T11:16:02Z</time>
      </trkpt>
      <trkpt lat="50.67432" lon="1.83238">
        <ele>88.7</ele>
        <time>2016-05-06T11:16:04Z</time>
      </trkpt>
      <trkpt lat="50.67448" lon="1.83233">
        <ele>88.3</ele>
        <time>2016-05-06T11:16:06Z</time>
      </trkpt>
      <trkpt lat="50.67464" lon="1.83228">
        <ele>87.9</ele>
        <time>2016-05-06T11:16:08Z</time>
      </trkpt>
      <trkpt lat="50.67481" lon="1.83223">
        <ele>87.5</ele>
        <time>2016-05-06T11:16:10Z</time>
      </trkpt>
      <trkpt lat="50.67496" lon="1.83218">
        <ele>87.1</ele>
        <time>2016-05-06T11:16:12Z</time>
      </trkpt>
      <trkpt lat="50.67512" lon="1.83215">
        <ele>86.6</ele>
        <time>2016-05-06T11:16:14Z</time>
      </trkpt>
      <trkpt lat="50.67529" lon="1.8321">
        <ele>86.2</ele>
        <time>2016-05-06T11:16:16Z</time>
      </trkpt>
      <trkpt lat="50.67545" lon="1.83204">
        <ele>85.7</ele>
        <time>2016-05-06T11:16:18Z</time>
      </trkpt>
      <trkpt lat="50.67563" lon="1.83199">
        <ele>84.2</ele>
        <time>2016-05-06T11:16:20Z</time>
      </trkpt>
      <trkpt lat="50.67581" lon="1.83194">
        <ele>83.7</ele>
        <time>2016-05-06T11:16:22Z</time>
      </trkpt>
      <trkpt lat="50.6759" lon="1.83192">
        <ele>83.5</ele>
        <time>2016-05-06T11:16:23Z</time>
      </trkpt>
      <trkpt lat="50.67599" lon="1.8319">
        <ele>83.3</ele>
        <time>2016-05-06T11:16:24Z</time>
      </trkpt>
      <trkpt lat="50.67608" lon="1.83188">
        <ele>83</ele>
        <time>2016-05-06T11:16:25Z</time>
      </trkpt>
      <trkpt lat="50.67618" lon="1.83185">
        <ele>82.8</ele>
        <time>2016-05-06T11:16:26Z</time>
      </trkpt>
      <trkpt lat="50.67628" lon="1.83182">
        <ele>82.4</ele>
        <time>2016-05-06T11:16:27Z</time>
      </trkpt>
      <trkpt lat="50.67637" lon="1.83178">
        <ele>82.1</ele>
        <time>2016-05-06T11:16:28Z</time>
      </trkpt>
      <trkpt lat="50.67648" lon="1.83176">
        <ele>81.7</ele>
        <time>2016-05-06T11:16:29Z</time>
      </trkpt>
      <trkpt lat="50.67658" lon="1.83172">
        <ele>81.4</ele>
        <time>2016-05-06T11:16:30Z</time>
      </trkpt>
      <trkpt lat="50.67669" lon="1.83169">
        <ele>81</ele>
        <time>2016-05-06T11:16:31Z</time>
      </trkpt>
      <trkpt lat="50.67679" lon="1.83166">
        <ele>80.6</ele>
        <time>2016-05-06T11:16:32Z</time>
      </trkpt>
      <trkpt lat="50.67689" lon="1.83163">
        <ele>80.1</ele>
        <time>2016-05-06T11:16:33Z</time>
      </trkpt>
      <trkpt lat="50.677" lon="1.8316">
        <ele>79.7</ele>
        <time>2016-05-06T11:16:34Z</time>
      </trkpt>
      <trkpt lat="50.6771" lon="1.83157">
        <ele>79.2</ele>
        <time>2016-05-06T11:16:35Z</time>
      </trkpt>
      <trkpt lat="50.67721" lon="1.83155">
        <ele>78.7</ele>
        <time>2016-05-06T11:16:36Z</time>
      </trkpt>
      <trkpt lat="50.67732" lon="1.83152">
        <ele>78.2</ele>
        <time>2016-05-06T11:16:37Z</time>
      </trkpt>
      <trkpt lat="50.67743" lon="1.83149">
        <ele>77.7</ele>
        <time>2016-05-06T11:16:38Z</time>
      </trkpt>
      <trkpt lat="50.67753" lon="1.83146">
        <ele>77.2</ele>
        <time>2016-05-06T11:16:39Z</time>
      </trkpt>
      <trkpt lat="50.67764" lon="1.83142">
        <ele>76.8</ele>
        <time>2016-05-06T11:16:40Z</time>
      </trkpt>
      <trkpt lat="50.67773" lon="1.83136">
        <ele>76.3</ele>
        <time>2016-05-06T11:16:41Z</time>
      </trkpt>
      <trkpt lat="50.67781" lon="1.8313">
        <ele>75.9</ele>
        <time>2016-05-06T11:16:42Z</time>
      </trkpt>
      <trkpt lat="50.6779" lon="1.83124">
        <ele>75.4</ele>
        <time>2016-05-06T11:16:43Z</time>
      </trkpt>
      <trkpt lat="50.67804" lon="1.8311">
        <ele>74.6</ele>
        <time>2016-05-06T11:16:45Z</time>
      </trkpt>
      <trkpt lat="50.67807" lon="1.83086">
        <ele>73.8</ele>
        <time>2016-05-06T11:16:47Z</time>
      </trkpt>
      <trkpt lat="50.67799" lon="1.83061">
        <ele>73.2</ele>
        <time>2016-05-06T11:16:49Z</time>
      </trkpt>
      <trkpt lat="50.67795" lon="1.83038">
        <ele>72.6</ele>
        <time>2016-05-06T11:16:51Z</time>
      </trkpt>
      <trkpt lat="50.67796" lon="1.83015">
        <ele>72.1</ele>
        <time>2016-05-06T11:16:53Z</time>
      </trkpt>
      <trkpt lat="50.67797" lon="1.8299">
        <ele>71.6</ele>
        <time>2016-05-06T11:16:55Z</time>
      </trkpt>
      <trkpt lat="50.67797" lon="1.82963">
        <ele>71.2</ele>
        <time>2016-05-06T11:16:57Z</time>
      </trkpt>
      <trkpt lat="50.67797" lon="1.82935">
        <ele>70.8</ele>
        <time>2016-05-06T11:16:59Z</time>
      </trkpt>
      <trkpt lat="50.67796" lon="1.82921">
        <ele>70.6</ele>
        <time>2016-05-06T11:17:00Z</time>
      </trkpt>
      <trkpt lat="50.67796" lon="1.82906">
        <ele>70.4</ele>
        <time>2016-05-06T11:17:01Z</time>
      </trkpt>
      <trkpt lat="50.67795" lon="1.82891">
        <ele>70.2</ele>
        <time>2016-05-06T11:17:02Z</time>
      </trkpt>
      <trkpt lat="50.67793" lon="1.82876">
        <ele>70</ele>
        <time>2016-05-06T11:17:03Z</time>
      </trkpt>
      <trkpt lat="50.67792" lon="1.82861">
        <ele>69.9</ele>
        <time>2016-05-06T11:17:04Z</time>
      </trkpt>
      <trkpt lat="50.6779" lon="1.82846">
        <ele>69.7</ele>
        <time>2016-05-06T11:17:05Z</time>
      </trkpt>
      <trkpt lat="50.67788" lon="1.82831">
        <ele>69.5</ele>
        <time>2016-05-06T11:17:06Z</time>
      </trkpt>
      <trkpt lat="50.67785" lon="1.82816">
        <ele>69.4</ele>
        <time>2016-05-06T11:17:07Z</time>
      </trkpt>
      <trkpt lat="50.67782" lon="1.82801">
        <ele>69.3</ele>
        <time>2016-05-06T11:17:08Z</time>
      </trkpt>
      <trkpt lat="50.67779" lon="1.82786">
        <ele>69.1</ele>
        <time>2016-05-06T11:17:09Z</time>
      </trkpt>
      <trkpt lat="50.67776" lon="1.82772">
        <ele>69</ele>
        <time>2016-05-06T11:17:10Z</time>
      </trkpt>
      <trkpt lat="50.67772" lon="1.82758">
        <ele>68.8</ele>
        <time>2016-05-06T11:17:11Z</time>
      </trkpt>
      <trkpt lat="50.67768" lon="1.82744">
        <ele>68.7</ele>
        <time>2016-05-06T11:17:12Z</time>
      </trkpt>
      <trkpt lat="50.67764" lon="1.82731">
        <ele>68.5</ele>
        <time>2016-05-06T11:17:13Z</time>
      </trkpt>
      <trkpt lat="50.67759" lon="1.82718">
        <ele>68.4</ele>
        <time>2016-05-06T11:17:14Z</time>
      </trkpt>
      <trkpt lat="50.67751" lon="1.82694">
        <ele>68.2</ele>
        <time>2016-05-06T11:17:16Z</time>
      </trkpt>
      <trkpt lat="50.67742" lon="1.8267">
        <ele>67.9</ele>
        <time>2016-05-06T11:17:18Z</time>
      </trkpt>
      <trkpt lat="50.67732" lon="1.82646">
        <ele>67.7</ele>
        <time>2016-05-06T11:17:20Z</time>
      </trkpt>
      <trkpt lat="50.67727" lon="1.82634">
        <ele>67.5</ele>
        <time>2016-05-06T11:17:21Z</time>
      </trkpt>
      <trkpt lat="50.67721" lon="1.82622">
        <ele>67.4</ele>
        <time>2016-05-06T11:17:22Z</time>
      </trkpt>
      <trkpt lat="50.67716" lon="1.8261">
        <ele>67.3</ele>
        <time>2016-05-06T11:17:23Z</time>
      </trkpt>
      <trkpt lat="50.67711" lon="1.82597">
        <ele>67.2</ele>
        <time>2016-05-06T11:17:24Z</time>
      </trkpt>
      <trkpt lat="50.67706" lon="1.82585">
        <ele>67</ele>
        <time>2016-05-06T11:17:25Z</time>
      </trkpt>
      <trkpt lat="50.677" lon="1.82572">
        <ele>66.9</ele>
        <time>2016-05-06T11:17:26Z</time>
      </trkpt>
      <trkpt lat="50.67695" lon="1.8256">
        <ele>66.8</ele>
        <time>2016-05-06T11:17:27Z</time>
      </trkpt>
      <trkpt lat="50.67685" lon="1.82537">
        <ele>66.5</ele>
        <time>2016-05-06T11:17:29Z</time>
      </trkpt>
      <trkpt lat="50.6768" lon="1.82525">
        <ele>66.4</ele>
        <time>2016-05-06T11:17:30Z</time>
      </trkpt>
      <trkpt lat="50.67675" lon="1.82513">
        <ele>66.3</ele>
        <time>2016-05-06T11:17:31Z</time>
      </trkpt>
      <trkpt lat="50.67665" lon="1.82491">
        <ele>66.2</ele>
        <time>2016-05-06T11:17:33Z</time>
      </trkpt>
      <trkpt lat="50.67655" lon="1.82469">
        <ele>66</ele>
        <time>2016-05-06T11:17:35Z</time>
      </trkpt>
      <trkpt lat="50.67645" lon="1.82449">
        <ele>65.9</ele>
        <time>2016-05-06T11:17:37Z</time>
      </trkpt>
      <trkpt lat="50.67635" lon="1.82431">
        <ele>65.8</ele>
        <time>2016-05-06T11:17:39Z</time>
      </trkpt>
      <trkpt lat="50.67626" lon="1.82416">
        <ele>65.7</ele>
        <time>2016-05-06T11:17:41Z</time>
      </trkpt>
      <trkpt lat="50.67617" lon="1.82402">
        <ele>65.7</ele>
        <time>2016-05-06T11:17:43Z</time>
      </trkpt>
      <trkpt lat="50.67608" lon="1.82389">
        <ele>65.8</ele>
        <time>2016-05-06T11:17:45Z</time>
      </trkpt>
      <trkpt lat="50.67599" lon="1.82377">
        <ele>65.9</ele>
        <time>2016-05-06T11:17:47Z</time>
      </trkpt>
      <trkpt lat="50.6759" lon="1.82366">
        <ele>66</ele>
        <time>2016-05-06T11:17:49Z</time>
      </trkpt>
      <trkpt lat="50.6758" lon="1.82355">
        <ele>66.3</ele>
        <time>2016-05-06T11:17:51Z</time>
      </trkpt>
      <trkpt lat="50.67571" lon="1.82346">
        <ele>66.5</ele>
        <time>2016-05-06T11:17:53Z</time>
      </trkpt>
      <trkpt lat="50.67562" lon="1.82337">
        <ele>66.8</ele>
        <time>2016-05-06T11:17:55Z</time>
      </trkpt>
      <trkpt lat="50.67554" lon="1.82329">
        <ele>67</ele>
        <time>2016-05-06T11:17:57Z</time>
      </trkpt>
      <trkpt lat="50.67546" lon="1.82322">
        <ele>67.4</ele>
        <time>2016-05-06T11:17:59Z</time>
      </trkpt>
      <trkpt lat="50.67535" lon="1.82313">
        <ele>67.9</ele>
        <time>2016-05-06T11:18:02Z</time>
      </trkpt>
      <trkpt lat="50.67525" lon="1.82305">
        <ele>68.5</ele>
        <time>2016-05-06T11:18:05Z</time>
      </trkpt>
      <trkpt lat="50.67515" lon="1.82298">
        <ele>69.2</ele>
        <time>2016-05-06T11:18:08Z</time>
      </trkpt>
      <trkpt lat="50.67504" lon="1.8229">
        <ele>69.9</ele>
        <time>2016-05-06T11:18:11Z</time>
      </trkpt>
      <trkpt lat="50.67494" lon="1.82284">
        <ele>70.6</ele>
        <time>2016-05-06T11:18:14Z</time>
      </trkpt>
      <trkpt lat="50.67484" lon="1.82279">
        <ele>71.4</ele>
        <time>2016-05-06T11:18:17Z</time>
      </trkpt>
      <trkpt lat="50.67472" lon="1.82274">
        <ele>72.1</ele>
        <time>2016-05-06T11:18:20Z</time>
      </trkpt>
      <trkpt lat="50.6746" lon="1.82269">
        <ele>72.9</ele>
        <time>2016-05-06T11:18:23Z</time>
      </trkpt>
      <trkpt lat="50.67448" lon="1.82265">
        <ele>73.7</ele>
        <time>2016-05-06T11:18:26Z</time>
      </trkpt>
      <trkpt lat="50.67436" lon="1.82262">
        <ele>74.5</ele>
        <time>2016-05-06T11:18:29Z</time>
      </trkpt>
      <trkpt lat="50.67424" lon="1.82259">
        <ele>75.2</ele>
        <time>2016-05-06T11:18:32Z</time>
      </trkpt>
      <trkpt lat="50.67413" lon="1.82255">
        <ele>75.9</ele>
        <time>2016-05-06T11:18:35Z</time>
      </trkpt>
      <trkpt lat="50.67403" lon="1.82246">
        <ele>76.6</ele>
        <time>2016-05-06T11:18:38Z</time>
      </trkpt>
      <trkpt lat="50.67398" lon="1.82228">
        <ele>77.2</ele>
        <time>2016-05-06T11:18:41Z</time>
      </trkpt>
      <trkpt lat="50.67398" lon="1.82207">
        <ele>78</ele>
        <time>2016-05-06T11:18:44Z</time>
      </trkpt>
      <trkpt lat="50.67398" lon="1.82193">
        <ele>78.5</ele>
        <time>2016-05-06T11:18:46Z</time>
      </trkpt>
      <trkpt lat="50.67399" lon="1.82178">
        <ele>78.9</ele>
        <time>2016-05-06T11:18:48Z</time>
      </trkpt>
      <trkpt lat="50.674" lon="1.82163">
        <ele>79.3</ele>
        <time>2016-05-06T11:18:50Z</time>
      </trkpt>
      <trkpt lat="50.67402" lon="1.82148">
        <ele>79.7</ele>
        <time>2016-05-06T11:18:52Z</time>
      </trkpt>
      <trkpt lat="50.67405" lon="1.82132">
        <ele>79.8</ele>
        <time>2016-05-06T11:18:54Z</time>
      </trkpt>
      <trkpt lat="50.67411" lon="1.82114">
        <ele>80</ele>
        <time>2016-05-06T11:18:56Z</time>
      </trkpt>
      <trkpt lat="50.67418" lon="1.82098">
        <ele>80.1</ele>
        <time>2016-05-06T11:18:58Z</time>
      </trkpt>
      <trkpt lat="50.67428" lon="1.82081">
        <ele>80.1</ele>
        <time>2016-05-06T11:19:00Z</time>
      </trkpt>
      <trkpt lat="50.67439" lon="1.82064">
        <ele>80</ele>
        <time>2016-05-06T11:19:02Z</time>
      </trkpt>
      <trkpt lat="50.67452" lon="1.82045">
        <ele>79.8</ele>
        <time>2016-05-06T11:19:04Z</time>
      </trkpt>
      <trkpt lat="50.67459" lon="1.82035">
        <ele>79.7</ele>
        <time>2016-05-06T11:19:05Z</time>
      </trkpt>
      <trkpt lat="50.67466" lon="1.82025">
        <ele>79.6</ele>
        <time>2016-05-06T11:19:06Z</time>
      </trkpt>
      <trkpt lat="50.67473" lon="1.82014">
        <ele>79.4</ele>
        <time>2016-05-06T11:19:07Z</time>
      </trkpt>
      <trkpt lat="50.6748" lon="1.82003">
        <ele>79.2</ele>
        <time>2016-05-06T11:19:08Z</time>
      </trkpt>
      <trkpt lat="50.67487" lon="1.81992">
        <ele>79</ele>
        <time>2016-05-06T11:19:09Z</time>
      </trkpt>
      <trkpt lat="50.67495" lon="1.81981">
        <ele>78.8</ele>
        <time>2016-05-06T11:19:10Z</time>
      </trkpt>
      <trkpt lat="50.67504" lon="1.81969">
        <ele>78.5</ele>
        <time>2016-05-06T11:19:11Z</time>
      </trkpt>
      <trkpt lat="50.67513" lon="1.81956">
        <ele>78.2</ele>
        <time>2016-05-06T11:19:12Z</time>
      </trkpt>
      <trkpt lat="50.67522" lon="1.81942">
        <ele>77.8</ele>
        <time>2016-05-06T11:19:13Z</time>
      </trkpt>
      <trkpt lat="50.67531" lon="1.81928">
        <ele>77.5</ele>
        <time>2016-05-06T11:19:14Z</time>
      </trkpt>
      <trkpt lat="50.67539" lon="1.81915">
        <ele>77</ele>
        <time>2016-05-06T11:19:15Z</time>
      </trkpt>
      <trkpt lat="50.67548" lon="1.81902">
        <ele>76.6</ele>
        <time>2016-05-06T11:19:16Z</time>
      </trkpt>
      <trkpt lat="50.67557" lon="1.81888">
        <ele>76.1</ele>
        <time>2016-05-06T11:19:17Z</time>
      </trkpt>
      <trkpt lat="50.67566" lon="1.81874">
        <ele>75.6</ele>
        <time>2016-05-06T11:19:18Z</time>
      </trkpt>
      <trkpt lat="50.67576" lon="1.81862">
        <ele>75.1</ele>
        <time>2016-05-06T11:19:19Z</time>
      </trkpt>
      <trkpt lat="50.67584" lon="1.8185">
        <ele>74.7</ele>
        <time>2016-05-06T11:19:20Z</time>
      </trkpt>
      <trkpt lat="50.67593" lon="1.8184">
        <ele>74.2</ele>
        <time>2016-05-06T11:19:21Z</time>
      </trkpt>
      <trkpt lat="50.67602" lon="1.8183">
        <ele>73.8</ele>
        <time>2016-05-06T11:19:22Z</time>
      </trkpt>
      <trkpt lat="50.6761" lon="1.8182">
        <ele>73.4</ele>
        <time>2016-05-06T11:19:23Z</time>
      </trkpt>
      <trkpt lat="50.67618" lon="1.81811">
        <ele>73</ele>
        <time>2016-05-06T11:19:24Z</time>
      </trkpt>
      <trkpt lat="50.67626" lon="1.81801">
        <ele>72.7</ele>
        <time>2016-05-06T11:19:25Z</time>
      </trkpt>
      <trkpt lat="50.67634" lon="1.81791">
        <ele>72.3</ele>
        <time>2016-05-06T11:19:26Z</time>
      </trkpt>
      <trkpt lat="50.67642" lon="1.81781">
        <ele>72</ele>
        <time>2016-05-06T11:19:27Z</time>
      </trkpt>
      <trkpt lat="50.6765" lon="1.8177">
        <ele>71.6</ele>
        <time>2016-05-06T11:19:28Z</time>
      </trkpt>
      <trkpt lat="50.67658" lon="1.81759">
        <ele>71.2</ele>
        <time>2016-05-06T11:19:29Z</time>
      </trkpt>
      <trkpt lat="50.67666" lon="1.81747">
        <ele>70.8</ele>
        <time>2016-05-06T11:19:30Z</time>
      </trkpt>
      <trkpt lat="50.67675" lon="1.81736">
        <ele>70.5</ele>
        <time>2016-05-06T11:19:31Z</time>
      </trkpt>
      <trkpt lat="50.67682" lon="1.81724">
        <ele>70.1</ele>
        <time>2016-05-06T11:19:32Z</time>
      </trkpt>
      <trkpt lat="50.67689" lon="1.81712">
        <ele>69.8</ele>
        <time>2016-05-06T11:19:33Z</time>
      </trkpt>
      <trkpt lat="50.67696" lon="1.817">
        <ele>69.5</ele>
        <time>2016-05-06T11:19:34Z</time>
      </trkpt>
      <trkpt lat="50.67703" lon="1.81689">
        <ele>69.2</ele>
        <time>2016-05-06T11:19:35Z</time>
      </trkpt>
      <trkpt lat="50.67709" lon="1.81677">
        <ele>68.9</ele>
        <time>2016-05-06T11:19:36Z</time>
      </trkpt>
      <trkpt lat="50.67716" lon="1.81666">
        <ele>68.4</ele>
        <time>2016-05-06T11:19:37Z</time>
      </trkpt>
      <trkpt lat="50.67723" lon="1.81654">
        <ele>67.9</ele>
        <time>2016-05-06T11:19:38Z</time>
      </trkpt>
      <trkpt lat="50.6773" lon="1.81643">
        <ele>67.5</ele>
        <time>2016-05-06T11:19:39Z</time>
      </trkpt>
      <trkpt lat="50.67738" lon="1.81631">
        <ele>67.2</ele>
        <time>2016-05-06T11:19:40Z</time>
      </trkpt>
      <trkpt lat="50.67746" lon="1.8162">
        <ele>66.8</ele>
        <time>2016-05-06T11:19:41Z</time>
      </trkpt>
      <trkpt lat="50.67753" lon="1.8161">
        <ele>66.5</ele>
        <time>2016-05-06T11:19:42Z</time>
      </trkpt>
      <trkpt lat="50.6776" lon="1.816">
        <ele>66.1</ele>
        <time>2016-05-06T11:19:43Z</time>
      </trkpt>
      <trkpt lat="50.67767" lon="1.8159">
        <ele>65.8</ele>
        <time>2016-05-06T11:19:44Z</time>
      </trkpt>
      <trkpt lat="50.67773" lon="1.8158">
        <ele>65.6</ele>
        <time>2016-05-06T11:19:45Z</time>
      </trkpt>
      <trkpt lat="50.67786" lon="1.81561">
        <ele>65.1</ele>
        <time>2016-05-06T11:19:47Z</time>
      </trkpt>
      <trkpt lat="50.67798" lon="1.8154">
        <ele>64.7</ele>
        <time>2016-05-06T11:19:49Z</time>
      </trkpt>
      <trkpt lat="50.67809" lon="1.81519">
        <ele>64.3</ele>
        <time>2016-05-06T11:19:51Z</time>
      </trkpt>
      <trkpt lat="50.67818" lon="1.81496">
        <ele>64.1</ele>
        <time>2016-05-06T11:19:53Z</time>
      </trkpt>
      <trkpt lat="50.67827" lon="1.81474">
        <ele>63.8</ele>
        <time>2016-05-06T11:19:55Z</time>
      </trkpt>
      <trkpt lat="50.67836" lon="1.81452">
        <ele>63.6</ele>
        <time>2016-05-06T11:19:57Z</time>
      </trkpt>
      <trkpt lat="50.67846" lon="1.81429">
        <ele>63.4</ele>
        <time>2016-05-06T11:19:59Z</time>
      </trkpt>
      <trkpt lat="50.6785" lon="1.81416">
        <ele>63.3</ele>
        <time>2016-05-06T11:20:00Z</time>
      </trkpt>
      <trkpt lat="50.67854" lon="1.81403">
        <ele>63.1</ele>
        <time>2016-05-06T11:20:01Z</time>
      </trkpt>
      <trkpt lat="50.67859" lon="1.81389">
        <ele>63</ele>
        <time>2016-05-06T11:20:02Z</time>
      </trkpt>
      <trkpt lat="50.67864" lon="1.81374">
        <ele>62.8</ele>
        <time>2016-05-06T11:20:03Z</time>
      </trkpt>
      <trkpt lat="50.67868" lon="1.8136">
        <ele>62.7</ele>
        <time>2016-05-06T11:20:04Z</time>
      </trkpt>
      <trkpt lat="50.67873" lon="1.81346">
        <ele>62.5</ele>
        <time>2016-05-06T11:20:05Z</time>
      </trkpt>
      <trkpt lat="50.67878" lon="1.81331">
        <ele>62.3</ele>
        <time>2016-05-06T11:20:06Z</time>
      </trkpt>
      <trkpt lat="50.67883" lon="1.81316">
        <ele>62</ele>
        <time>2016-05-06T11:20:07Z</time>
      </trkpt>
      <trkpt lat="50.67887" lon="1.81301">
        <ele>61.8</ele>
        <time>2016-05-06T11:20:08Z</time>
      </trkpt>
      <trkpt lat="50.67892" lon="1.81286">
        <ele>61.5</ele>
        <time>2016-05-06T11:20:09Z</time>
      </trkpt>
      <trkpt lat="50.67897" lon="1.81271">
        <ele>61.2</ele>
        <time>2016-05-06T11:20:10Z</time>
      </trkpt>
      <trkpt lat="50.67902" lon="1.81256">
        <ele>60.9</ele>
        <time>2016-05-06T11:20:11Z</time>
      </trkpt>
      <trkpt lat="50.67907" lon="1.81241">
        <ele>60.5</ele>
        <time>2016-05-06T11:20:12Z</time>
      </trkpt>
      <trkpt lat="50.67911" lon="1.81226">
        <ele>60.2</ele>
        <time>2016-05-06T11:20:13Z</time>
      </trkpt>
      <trkpt lat="50.67916" lon="1.81212">
        <ele>59.9</ele>
        <time>2016-05-06T11:20:14Z</time>
      </trkpt>
      <trkpt lat="50.67919" lon="1.81198">
        <ele>59.6</ele>
        <time>2016-05-06T11:20:15Z</time>
      </trkpt>
      <trkpt lat="50.67923" lon="1.81184">
        <ele>59.4</ele>
        <time>2016-05-06T11:20:16Z</time>
      </trkpt>
      <trkpt lat="50.67929" lon="1.8116">
        <ele>59</ele>
        <time>2016-05-06T11:20:18Z</time>
      </trkpt>
      <trkpt lat="50.67935" lon="1.81136">
        <ele>58.6</ele>
        <time>2016-05-06T11:20:20Z</time>
      </trkpt>
      <trkpt lat="50.6794" lon="1.81113">
        <ele>58.3</ele>
        <time>2016-05-06T11:20:22Z</time>
      </trkpt>
      <trkpt lat="50.67944" lon="1.8109">
        <ele>58.1</ele>
        <time>2016-05-06T11:20:24Z</time>
      </trkpt>
      <trkpt lat="50.67948" lon="1.81066">
        <ele>57.9</ele>
        <time>2016-05-06T11:20:26Z</time>
      </trkpt>
      <trkpt lat="50.67952" lon="1.81041">
        <ele>57.8</ele>
        <time>2016-05-06T11:20:28Z</time>
      </trkpt>
      <trkpt lat="50.67957" lon="1.81015">
        <ele>57.6</ele>
        <time>2016-05-06T11:20:30Z</time>
      </trkpt>
      <trkpt lat="50.67963" lon="1.80987">
        <ele>57.4</ele>
        <time>2016-05-06T11:20:32Z</time>
      </trkpt>
      <trkpt lat="50.67969" lon="1.80962">
        <ele>57.2</ele>
        <time>2016-05-06T11:20:34Z</time>
      </trkpt>
      <trkpt lat="50.67974" lon="1.80937">
        <ele>57.1</ele>
        <time>2016-05-06T11:20:36Z</time>
      </trkpt>
      <trkpt lat="50.67979" lon="1.80913">
        <ele>56.9</ele>
        <time>2016-05-06T11:20:38Z</time>
      </trkpt>
      <trkpt lat="50.67985" lon="1.80888">
        <ele>56.7</ele>
        <time>2016-05-06T11:20:40Z</time>
      </trkpt>
      <trkpt lat="50.6799" lon="1.80861">
        <ele>56.5</ele>
        <time>2016-05-06T11:20:42Z</time>
      </trkpt>
      <trkpt lat="50.67993" lon="1.80847">
        <ele>56.4</ele>
        <time>2016-05-06T11:20:43Z</time>
      </trkpt>
      <trkpt lat="50.67998" lon="1.8082">
        <ele>56.3</ele>
        <time>2016-05-06T11:20:45Z</time>
      </trkpt>
      <trkpt lat="50.68001" lon="1.80806">
        <ele>56.1</ele>
        <time>2016-05-06T11:20:46Z</time>
      </trkpt>
      <trkpt lat="50.68004" lon="1.80791">
        <ele>55.9</ele>
        <time>2016-05-06T11:20:47Z</time>
      </trkpt>
      <trkpt lat="50.68007" lon="1.80776">
        <ele>55.7</ele>
        <time>2016-05-06T11:20:48Z</time>
      </trkpt>
      <trkpt lat="50.68011" lon="1.80762">
        <ele>55.6</ele>
        <time>2016-05-06T11:20:49Z</time>
      </trkpt>
      <trkpt lat="50.68015" lon="1.80748">
        <ele>55.4</ele>
        <time>2016-05-06T11:20:50Z</time>
      </trkpt>
      <trkpt lat="50.6802" lon="1.80735">
        <ele>55.2</ele>
        <time>2016-05-06T11:20:51Z</time>
      </trkpt>
      <trkpt lat="50.68029" lon="1.80712">
        <ele>54.8</ele>
        <time>2016-05-06T11:20:53Z</time>
      </trkpt>
      <trkpt lat="50.6804" lon="1.80692">
        <ele>54.3</ele>
        <time>2016-05-06T11:20:55Z</time>
      </trkpt>
      <trkpt lat="50.68052" lon="1.80675">
        <ele>54</ele>
        <time>2016-05-06T11:20:57Z</time>
      </trkpt>
      <trkpt lat="50.68063" lon="1.80658">
        <ele>53.8</ele>
        <time>2016-05-06T11:20:59Z</time>
      </trkpt>
      <trkpt lat="50.68073" lon="1.80641">
        <ele>53.6</ele>
        <time>2016-05-06T11:21:01Z</time>
      </trkpt>
      <trkpt lat="50.68083" lon="1.80625">
        <ele>53.5</ele>
        <time>2016-05-06T11:21:03Z</time>
      </trkpt>
      <trkpt lat="50.68092" lon="1.80607">
        <ele>53.6</ele>
        <time>2016-05-06T11:21:05Z</time>
      </trkpt>
      <trkpt lat="50.68102" lon="1.80588">
        <ele>53.6</ele>
        <time>2016-05-06T11:21:07Z</time>
      </trkpt>
      <trkpt lat="50.68111" lon="1.80568">
        <ele>53.7</ele>
        <time>2016-05-06T11:21:09Z</time>
      </trkpt>
      <trkpt lat="50.6812" lon="1.80547">
        <ele>53.8</ele>
        <time>2016-05-06T11:21:11Z</time>
      </trkpt>
      <trkpt lat="50.68129" lon="1.80527">
        <ele>53.9</ele>
        <time>2016-05-06T11:21:13Z</time>
      </trkpt>
      <trkpt lat="50.68138" lon="1.80509">
        <ele>54</ele>
        <time>2016-05-06T11:21:15Z</time>
      </trkpt>
      <trkpt lat="50.68147" lon="1.80494">
        <ele>54.2</ele>
        <time>2016-05-06T11:21:17Z</time>
      </trkpt>
      <trkpt lat="50.68156" lon="1.8048">
        <ele>54.4</ele>
        <time>2016-05-06T11:21:19Z</time>
      </trkpt>
      <trkpt lat="50.68163" lon="1.80467">
        <ele>54.7</ele>
        <time>2016-05-06T11:21:21Z</time>
      </trkpt>
      <trkpt lat="50.6817" lon="1.80453">
        <ele>55</ele>
        <time>2016-05-06T11:21:23Z</time>
      </trkpt>
      <trkpt lat="50.68178" lon="1.80441">
        <ele>55.4</ele>
        <time>2016-05-06T11:21:25Z</time>
      </trkpt>
      <trkpt lat="50.68185" lon="1.80428">
        <ele>55.8</ele>
        <time>2016-05-06T11:21:27Z</time>
      </trkpt>
      <trkpt lat="50.68191" lon="1.80414">
        <ele>56.1</ele>
        <time>2016-05-06T11:21:29Z</time>
      </trkpt>
      <trkpt lat="50.68199" lon="1.80401">
        <ele>56.5</ele>
        <time>2016-05-06T11:21:31Z</time>
      </trkpt>
      <trkpt lat="50.68206" lon="1.80386">
        <ele>56.8</ele>
        <time>2016-05-06T11:21:33Z</time>
      </trkpt>
      <trkpt lat="50.68214" lon="1.80374">
        <ele>57.1</ele>
        <time>2016-05-06T11:21:35Z</time>
      </trkpt>
      <trkpt lat="50.68224" lon="1.80363">
        <ele>57.4</ele>
        <time>2016-05-06T11:21:37Z</time>
      </trkpt>
      <trkpt lat="50.68234" lon="1.80352">
        <ele>57.7</ele>
        <time>2016-05-06T11:21:39Z</time>
      </trkpt>
      <trkpt lat="50.68245" lon="1.80341">
        <ele>57.9</ele>
        <time>2016-05-06T11:21:41Z</time>
      </trkpt>
      <trkpt lat="50.68256" lon="1.80329">
        <ele>58.2</ele>
        <time>2016-05-06T11:21:43Z</time>
      </trkpt>
      <trkpt lat="50.68267" lon="1.80316">
        <ele>58.4</ele>
        <time>2016-05-06T11:21:45Z</time>
      </trkpt>
      <trkpt lat="50.68278" lon="1.80302">
        <ele>58.4</ele>
        <time>2016-05-06T11:21:47Z</time>
      </trkpt>
      <trkpt lat="50.68287" lon="1.80286">
        <ele>58.5</ele>
        <time>2016-05-06T11:21:49Z</time>
      </trkpt>
      <trkpt lat="50.68296" lon="1.80268">
        <ele>58.5</ele>
        <time>2016-05-06T11:21:51Z</time>
      </trkpt>
      <trkpt lat="50.68303" lon="1.80249">
        <ele>58.4</ele>
        <time>2016-05-06T11:21:53Z</time>
      </trkpt>
      <trkpt lat="50.6831" lon="1.80228">
        <ele>58.2</ele>
        <time>2016-05-06T11:21:55Z</time>
      </trkpt>
      <trkpt lat="50.68317" lon="1.80206">
        <ele>58.1</ele>
        <time>2016-05-06T11:21:57Z</time>
      </trkpt>
      <trkpt lat="50.68324" lon="1.80185">
        <ele>58.1</ele>
        <time>2016-05-06T11:21:59Z</time>
      </trkpt>
      <trkpt lat="50.6833" lon="1.80162">
        <ele>57.7</ele>
        <time>2016-05-06T11:22:01Z</time>
      </trkpt>
      <trkpt lat="50.68337" lon="1.8014">
        <ele>57.5</ele>
        <time>2016-05-06T11:22:03Z</time>
      </trkpt>
      <trkpt lat="50.68343" lon="1.80117">
        <ele>57.2</ele>
        <time>2016-05-06T11:22:05Z</time>
      </trkpt>
      <trkpt lat="50.6835" lon="1.80094">
        <ele>57</ele>
        <time>2016-05-06T11:22:07Z</time>
      </trkpt>
      <trkpt lat="50.68357" lon="1.80071">
        <ele>56.7</ele>
        <time>2016-05-06T11:22:09Z</time>
      </trkpt>
      <trkpt lat="50.68365" lon="1.80047">
        <ele>56.3</ele>
        <time>2016-05-06T11:22:11Z</time>
      </trkpt>
      <trkpt lat="50.68369" lon="1.80034">
        <ele>56.2</ele>
        <time>2016-05-06T11:22:12Z</time>
      </trkpt>
      <trkpt lat="50.68376" lon="1.80008">
        <ele>55.8</ele>
        <time>2016-05-06T11:22:14Z</time>
      </trkpt>
      <trkpt lat="50.68383" lon="1.79982">
        <ele>55.6</ele>
        <time>2016-05-06T11:22:16Z</time>
      </trkpt>
      <trkpt lat="50.68386" lon="1.79968">
        <ele>55.4</ele>
        <time>2016-05-06T11:22:17Z</time>
      </trkpt>
      <trkpt lat="50.68389" lon="1.79955">
        <ele>55.3</ele>
        <time>2016-05-06T11:22:18Z</time>
      </trkpt>
      <trkpt lat="50.68391" lon="1.79941">
        <ele>55.1</ele>
        <time>2016-05-06T11:22:19Z</time>
      </trkpt>
      <trkpt lat="50.68394" lon="1.79926">
        <ele>54.9</ele>
        <time>2016-05-06T11:22:20Z</time>
      </trkpt>
      <trkpt lat="50.68397" lon="1.79912">
        <ele>54.7</ele>
        <time>2016-05-06T11:22:21Z</time>
      </trkpt>
      <trkpt lat="50.684" lon="1.79898">
        <ele>54.6</ele>
        <time>2016-05-06T11:22:22Z</time>
      </trkpt>
      <trkpt lat="50.68402" lon="1.79883">
        <ele>54.4</ele>
        <time>2016-05-06T11:22:23Z</time>
      </trkpt>
      <trkpt lat="50.68404" lon="1.79869">
        <ele>54.3</ele>
        <time>2016-05-06T11:22:24Z</time>
      </trkpt>
      <trkpt lat="50.68408" lon="1.79841">
        <ele>54</ele>
        <time>2016-05-06T11:22:26Z</time>
      </trkpt>
      <trkpt lat="50.68411" lon="1.79813">
        <ele>53.8</ele>
        <time>2016-05-06T11:22:28Z</time>
      </trkpt>
      <trkpt lat="50.68413" lon="1.79785">
        <ele>53.5</ele>
        <time>2016-05-06T11:22:30Z</time>
      </trkpt>
      <trkpt lat="50.68414" lon="1.79771">
        <ele>53.4</ele>
        <time>2016-05-06T11:22:31Z</time>
      </trkpt>
      <trkpt lat="50.68415" lon="1.79756">
        <ele>53.2</ele>
        <time>2016-05-06T11:22:32Z</time>
      </trkpt>
      <trkpt lat="50.68415" lon="1.79741">
        <ele>53.1</ele>
        <time>2016-05-06T11:22:33Z</time>
      </trkpt>
      <trkpt lat="50.68416" lon="1.79726">
        <ele>52.9</ele>
        <time>2016-05-06T11:22:34Z</time>
      </trkpt>
      <trkpt lat="50.68416" lon="1.79711">
        <ele>52.7</ele>
        <time>2016-05-06T11:22:35Z</time>
      </trkpt>
      <trkpt lat="50.68415" lon="1.79695">
        <ele>52.5</ele>
        <time>2016-05-06T11:22:36Z</time>
      </trkpt>
      <trkpt lat="50.68414" lon="1.7968">
        <ele>52.3</ele>
        <time>2016-05-06T11:22:37Z</time>
      </trkpt>
      <trkpt lat="50.68413" lon="1.79665">
        <ele>52.1</ele>
        <time>2016-05-06T11:22:38Z</time>
      </trkpt>
      <trkpt lat="50.68411" lon="1.7965">
        <ele>51.9</ele>
        <time>2016-05-06T11:22:39Z</time>
      </trkpt>
      <trkpt lat="50.68409" lon="1.79635">
        <ele>51.7</ele>
        <time>2016-05-06T11:22:40Z</time>
      </trkpt>
      <trkpt lat="50.68408" lon="1.7962">
        <ele>51.5</ele>
        <time>2016-05-06T11:22:41Z</time>
      </trkpt>
      <trkpt lat="50.68406" lon="1.79605">
        <ele>51.2</ele>
        <time>2016-05-06T11:22:42Z</time>
      </trkpt>
      <trkpt lat="50.68405" lon="1.79589">
        <ele>51</ele>
        <time>2016-05-06T11:22:43Z</time>
      </trkpt>
      <trkpt lat="50.68405" lon="1.79574">
        <ele>50.7</ele>
        <time>2016-05-06T11:22:44Z</time>
      </trkpt>
      <trkpt lat="50.68405" lon="1.79559">
        <ele>50.5</ele>
        <time>2016-05-06T11:22:45Z</time>
      </trkpt>
      <trkpt lat="50.68405" lon="1.79544">
        <ele>50.2</ele>
        <time>2016-05-06T11:22:46Z</time>
      </trkpt>
      <trkpt lat="50.68406" lon="1.79529">
        <ele>50</ele>
        <time>2016-05-06T11:22:47Z</time>
      </trkpt>
      <trkpt lat="50.68406" lon="1.79514">
        <ele>49.8</ele>
        <time>2016-05-06T11:22:48Z</time>
      </trkpt>
      <trkpt lat="50.68407" lon="1.795">
        <ele>49.6</ele>
        <time>2016-05-06T11:22:49Z</time>
      </trkpt>
      <trkpt lat="50.6841" lon="1.79472">
        <ele>49.2</ele>
        <time>2016-05-06T11:22:51Z</time>
      </trkpt>
      <trkpt lat="50.68414" lon="1.79447">
        <ele>48.9</ele>
        <time>2016-05-06T11:22:53Z</time>
      </trkpt>
      <trkpt lat="50.68418" lon="1.79422">
        <ele>48.6</ele>
        <time>2016-05-06T11:22:55Z</time>
      </trkpt>
      <trkpt lat="50.68423" lon="1.79396">
        <ele>48.4</ele>
        <time>2016-05-06T11:22:57Z</time>
      </trkpt>
      <trkpt lat="50.68429" lon="1.79372">
        <ele>48.4</ele>
        <time>2016-05-06T11:22:59Z</time>
      </trkpt>
      <trkpt lat="50.68436" lon="1.79348">
        <ele>48.4</ele>
        <time>2016-05-06T11:23:01Z</time>
      </trkpt>
      <trkpt lat="50.68442" lon="1.79322">
        <ele>48.3</ele>
        <time>2016-05-06T11:23:03Z</time>
      </trkpt>
      <trkpt lat="50.68445" lon="1.79295">
        <ele>48.3</ele>
        <time>2016-05-06T11:23:05Z</time>
      </trkpt>
      <trkpt lat="50.68445" lon="1.79269">
        <ele>48.4</ele>
        <time>2016-05-06T11:23:07Z</time>
      </trkpt>
      <trkpt lat="50.68443" lon="1.79244">
        <ele>48.4</ele>
        <time>2016-05-06T11:23:09Z</time>
      </trkpt>
      <trkpt lat="50.68441" lon="1.7922">
        <ele>48.5</ele>
        <time>2016-05-06T11:23:11Z</time>
      </trkpt>
      <trkpt lat="50.68441" lon="1.79197">
        <ele>48.6</ele>
        <time>2016-05-06T11:23:13Z</time>
      </trkpt>
      <trkpt lat="50.68445" lon="1.79174">
        <ele>48.7</ele>
        <time>2016-05-06T11:23:15Z</time>
      </trkpt>
      <trkpt lat="50.68451" lon="1.79152">
        <ele>48.8</ele>
        <time>2016-05-06T11:23:17Z</time>
      </trkpt>
      <trkpt lat="50.68459" lon="1.79129">
        <ele>48.9</ele>
        <time>2016-05-06T11:23:19Z</time>
      </trkpt>
      <trkpt lat="50.68466" lon="1.79106">
        <ele>48.9</ele>
        <time>2016-05-06T11:23:21Z</time>
      </trkpt>
      <trkpt lat="50.68476" lon="1.79084">
        <ele>48.8</ele>
        <time>2016-05-06T11:23:23Z</time>
      </trkpt>
      <trkpt lat="50.68492" lon="1.79074">
        <ele>48.7</ele>
        <time>2016-05-06T11:23:25Z</time>
      </trkpt>
      <trkpt lat="50.68501" lon="1.79074">
        <ele>48.7</ele>
        <time>2016-05-06T11:23:26Z</time>
      </trkpt>
      <trkpt lat="50.6851" lon="1.79075">
        <ele>48.6</ele>
        <time>2016-05-06T11:23:27Z</time>
      </trkpt>
      <trkpt lat="50.68519" lon="1.79076">
        <ele>48.6</ele>
        <time>2016-05-06T11:23:28Z</time>
      </trkpt>
      <trkpt lat="50.68529" lon="1.79078">
        <ele>48.5</ele>
        <time>2016-05-06T11:23:29Z</time>
      </trkpt>
      <trkpt lat="50.68538" lon="1.7908">
        <ele>48.3</ele>
        <time>2016-05-06T11:23:30Z</time>
      </trkpt>
      <trkpt lat="50.68547" lon="1.79081">
        <ele>48.2</ele>
        <time>2016-05-06T11:23:31Z</time>
      </trkpt>
      <trkpt lat="50.68556" lon="1.79083">
        <ele>48.1</ele>
        <time>2016-05-06T11:23:32Z</time>
      </trkpt>
      <trkpt lat="50.68565" lon="1.79085">
        <ele>46.9</ele>
        <time>2016-05-06T11:23:33Z</time>
      </trkpt>
      <trkpt lat="50.68574" lon="1.79087">
        <ele>46.8</ele>
        <time>2016-05-06T11:23:34Z</time>
      </trkpt>
      <trkpt lat="50.68592" lon="1.79089">
        <ele>46.6</ele>
        <time>2016-05-06T11:23:36Z</time>
      </trkpt>
      <trkpt lat="50.68608" lon="1.79084">
        <ele>46.4</ele>
        <time>2016-05-06T11:23:38Z</time>
      </trkpt>
      <trkpt lat="50.68622" lon="1.7907">
        <ele>46.2</ele>
        <time>2016-05-06T11:23:40Z</time>
      </trkpt>
      <trkpt lat="50.68631" lon="1.7905">
        <ele>46</ele>
        <time>2016-05-06T11:23:42Z</time>
      </trkpt>
      <trkpt lat="50.68638" lon="1.79025">
        <ele>45.8</ele>
        <time>2016-05-06T11:23:44Z</time>
      </trkpt>
      <trkpt lat="50.68644" lon="1.78999">
        <ele>45.6</ele>
        <time>2016-05-06T11:23:46Z</time>
      </trkpt>
      <trkpt lat="50.68649" lon="1.78972">
        <ele>45.4</ele>
        <time>2016-05-06T11:23:48Z</time>
      </trkpt>
      <trkpt lat="50.68654" lon="1.78946">
        <ele>45.2</ele>
        <time>2016-05-06T11:23:50Z</time>
      </trkpt>
      <trkpt lat="50.68658" lon="1.7892">
        <ele>45</ele>
        <time>2016-05-06T11:23:52Z</time>
      </trkpt>
      <trkpt lat="50.68662" lon="1.78894">
        <ele>44.9</ele>
        <time>2016-05-06T11:23:54Z</time>
      </trkpt>
      <trkpt lat="50.68666" lon="1.78868">
        <ele>44.8</ele>
        <time>2016-05-06T11:23:56Z</time>
      </trkpt>
      <trkpt lat="50.68669" lon="1.78843">
        <ele>44.7</ele>
        <time>2016-05-06T11:23:58Z</time>
      </trkpt>
      <trkpt lat="50.68672" lon="1.78818">
        <ele>44.6</ele>
        <time>2016-05-06T11:24:00Z</time>
      </trkpt>
      <trkpt lat="50.68676" lon="1.78793">
        <ele>44.5</ele>
        <time>2016-05-06T11:24:02Z</time>
      </trkpt>
      <trkpt lat="50.68679" lon="1.78768">
        <ele>44.4</ele>
        <time>2016-05-06T11:24:04Z</time>
      </trkpt>
      <trkpt lat="50.68681" lon="1.78744">
        <ele>44.3</ele>
        <time>2016-05-06T11:24:06Z</time>
      </trkpt>
      <trkpt lat="50.68684" lon="1.7872">
        <ele>44.2</ele>
        <time>2016-05-06T11:24:08Z</time>
      </trkpt>
      <trkpt lat="50.68686" lon="1.78695">
        <ele>44.1</ele>
        <time>2016-05-06T11:24:10Z</time>
      </trkpt>
      <trkpt lat="50.68688" lon="1.78671">
        <ele>43.9</ele>
        <time>2016-05-06T11:24:12Z</time>
      </trkpt>
      <trkpt lat="50.68691" lon="1.78646">
        <ele>43.8</ele>
        <time>2016-05-06T11:24:14Z</time>
      </trkpt>
      <trkpt lat="50.68693" lon="1.78621">
        <ele>43.7</ele>
        <time>2016-05-06T11:24:16Z</time>
      </trkpt>
      <trkpt lat="50.68696" lon="1.78595">
        <ele>43.5</ele>
        <time>2016-05-06T11:24:18Z</time>
      </trkpt>
      <trkpt lat="50.68696" lon="1.7857">
        <ele>43.4</ele>
        <time>2016-05-06T11:24:20Z</time>
      </trkpt>
      <trkpt lat="50.68694" lon="1.78547">
        <ele>43.3</ele>
        <time>2016-05-06T11:24:22Z</time>
      </trkpt>
      <trkpt lat="50.6869" lon="1.78524">
        <ele>43.1</ele>
        <time>2016-05-06T11:24:24Z</time>
      </trkpt>
      <trkpt lat="50.68688" lon="1.78501">
        <ele>42.8</ele>
        <time>2016-05-06T11:24:26Z</time>
      </trkpt>
      <trkpt lat="50.68693" lon="1.7848">
        <ele>42.7</ele>
        <time>2016-05-06T11:24:28Z</time>
      </trkpt>
      <trkpt lat="50.68701" lon="1.78463">
        <ele>42.5</ele>
        <time>2016-05-06T11:24:30Z</time>
      </trkpt>
      <trkpt lat="50.68709" lon="1.78448">
        <ele>42.3</ele>
        <time>2016-05-06T11:24:32Z</time>
      </trkpt>
      <trkpt lat="50.68715" lon="1.78437">
        <ele>42.1</ele>
        <time>2016-05-06T11:24:35Z</time>
      </trkpt>
      <trkpt lat="50.68716" lon="1.78437">
        <ele>42</ele>
        <time>2016-05-06T11:24:42Z</time>
      </trkpt>
      <trkpt lat="50.68717" lon="1.78424">
        <ele>34.8</ele>
        <time>2016-05-06T11:28:52Z</time>
      </trkpt>
      <trkpt lat="50.68717" lon="1.78424">
        <ele>34.9</ele>
        <time>2016-05-06T11:28:53Z</time>
      </trkpt>
      <trkpt lat="50.68724" lon="1.78411">
        <ele>34.8</ele>
        <time>2016-05-06T11:29:08Z</time>
      </trkpt>
      <trkpt lat="50.68732" lon="1.78394">
        <ele>34.8</ele>
        <time>2016-05-06T11:29:11Z</time>
      </trkpt>
      <trkpt lat="50.6874" lon="1.78382">
        <ele>34.7</ele>
        <time>2016-05-06T11:29:13Z</time>
      </trkpt>
      <trkpt lat="50.6875" lon="1.78371">
        <ele>34.6</ele>
        <time>2016-05-06T11:29:15Z</time>
      </trkpt>
      <trkpt lat="50.68762" lon="1.78364">
        <ele>34.5</ele>
        <time>2016-05-06T11:29:17Z</time>
      </trkpt>
      <trkpt lat="50.68776" lon="1.78364">
        <ele>34.3</ele>
        <time>2016-05-06T11:29:19Z</time>
      </trkpt>
      <trkpt lat="50.68788" lon="1.78369">
        <ele>34.1</ele>
        <time>2016-05-06T11:29:21Z</time>
      </trkpt>
      <trkpt lat="50.68801" lon="1.78374">
        <ele>33.9</ele>
        <time>2016-05-06T11:29:23Z</time>
      </trkpt>
      <trkpt lat="50.68815" lon="1.78377">
        <ele>33.7</ele>
        <time>2016-05-06T11:29:25Z</time>
      </trkpt>
      <trkpt lat="50.6883" lon="1.78378">
        <ele>33.6</ele>
        <time>2016-05-06T11:29:27Z</time>
      </trkpt>
      <trkpt lat="50.68846" lon="1.78378">
        <ele>33.4</ele>
        <time>2016-05-06T11:29:29Z</time>
      </trkpt>
      <trkpt lat="50.68862" lon="1.78378">
        <ele>33.2</ele>
        <time>2016-05-06T11:29:31Z</time>
      </trkpt>
      <trkpt lat="50.68878" lon="1.78379">
        <ele>32.9</ele>
        <time>2016-05-06T11:29:33Z</time>
      </trkpt>
      <trkpt lat="50.68895" lon="1.7838">
        <ele>32.7</ele>
        <time>2016-05-06T11:29:35Z</time>
      </trkpt>
      <trkpt lat="50.68912" lon="1.7838">
        <ele>32.5</ele>
        <time>2016-05-06T11:29:37Z</time>
      </trkpt>
      <trkpt lat="50.6893" lon="1.78381">
        <ele>32.3</ele>
        <time>2016-05-06T11:29:39Z</time>
      </trkpt>
      <trkpt lat="50.68946" lon="1.78383">
        <ele>32</ele>
        <time>2016-05-06T11:29:41Z</time>
      </trkpt>
      <trkpt lat="50.68962" lon="1.78387">
        <ele>31.7</ele>
        <time>2016-05-06T11:29:43Z</time>
      </trkpt>
      <trkpt lat="50.68979" lon="1.78393">
        <ele>31.5</ele>
        <time>2016-05-06T11:29:45Z</time>
      </trkpt>
      <trkpt lat="50.68992" lon="1.78403">
        <ele>31.1</ele>
        <time>2016-05-06T11:29:47Z</time>
      </trkpt>
      <trkpt lat="50.69004" lon="1.78415">
        <ele>30.8</ele>
        <time>2016-05-06T11:29:49Z</time>
      </trkpt>
      <trkpt lat="50.69016" lon="1.78426">
        <ele>30.6</ele>
        <time>2016-05-06T11:29:51Z</time>
      </trkpt>
      <trkpt lat="50.69028" lon="1.78438">
        <ele>30.4</ele>
        <time>2016-05-06T11:29:53Z</time>
      </trkpt>
      <trkpt lat="50.6904" lon="1.78449">
        <ele>30.2</ele>
        <time>2016-05-06T11:29:55Z</time>
      </trkpt>
      <trkpt lat="50.69051" lon="1.7846">
        <ele>30.1</ele>
        <time>2016-05-06T11:29:57Z</time>
      </trkpt>
      <trkpt lat="50.69063" lon="1.78471">
        <ele>30</ele>
        <time>2016-05-06T11:29:59Z</time>
      </trkpt>
      <trkpt lat="50.69074" lon="1.78482">
        <ele>29.9</ele>
        <time>2016-05-06T11:30:01Z</time>
      </trkpt>
      <trkpt lat="50.69086" lon="1.78493">
        <ele>29.9</ele>
        <time>2016-05-06T11:30:03Z</time>
      </trkpt>
      <trkpt lat="50.69097" lon="1.78504">
        <ele>29.9</ele>
        <time>2016-05-06T11:30:05Z</time>
      </trkpt>
      <trkpt lat="50.69108" lon="1.78514">
        <ele>29.9</ele>
        <time>2016-05-06T11:30:07Z</time>
      </trkpt>
      <trkpt lat="50.69119" lon="1.78525">
        <ele>30</ele>
        <time>2016-05-06T11:30:09Z</time>
      </trkpt>
      <trkpt lat="50.69131" lon="1.78535">
        <ele>30.1</ele>
        <time>2016-05-06T11:30:11Z</time>
      </trkpt>
      <trkpt lat="50.69142" lon="1.78545">
        <ele>30.2</ele>
        <time>2016-05-06T11:30:13Z</time>
      </trkpt>
      <trkpt lat="50.69153" lon="1.78556">
        <ele>30.3</ele>
        <time>2016-05-06T11:30:15Z</time>
      </trkpt>
      <trkpt lat="50.69163" lon="1.78567">
        <ele>30.4</ele>
        <time>2016-05-06T11:30:17Z</time>
      </trkpt>
      <trkpt lat="50.69172" lon="1.7858">
        <ele>30.5</ele>
        <time>2016-05-06T11:30:19Z</time>
      </trkpt>
      <trkpt lat="50.6918" lon="1.78597">
        <ele>30.6</ele>
        <time>2016-05-06T11:30:21Z</time>
      </trkpt>
      <trkpt lat="50.69186" lon="1.78614">
        <ele>30.7</ele>
        <time>2016-05-06T11:30:23Z</time>
      </trkpt>
      <trkpt lat="50.69194" lon="1.78629">
        <ele>30.8</ele>
        <time>2016-05-06T11:30:25Z</time>
      </trkpt>
      <trkpt lat="50.69203" lon="1.78642">
        <ele>30.9</ele>
        <time>2016-05-06T11:30:27Z</time>
      </trkpt>
      <trkpt lat="50.69214" lon="1.7865">
        <ele>31</ele>
        <time>2016-05-06T11:30:29Z</time>
      </trkpt>
      <trkpt lat="50.69227" lon="1.78655">
        <ele>31.1</ele>
        <time>2016-05-06T11:30:31Z</time>
      </trkpt>
      <trkpt lat="50.69239" lon="1.78661">
        <ele>31.2</ele>
        <time>2016-05-06T11:30:33Z</time>
      </trkpt>
      <trkpt lat="50.69251" lon="1.78667">
        <ele>31.3</ele>
        <time>2016-05-06T11:30:35Z</time>
      </trkpt>
      <trkpt lat="50.69263" lon="1.78674">
        <ele>31.4</ele>
        <time>2016-05-06T11:30:37Z</time>
      </trkpt>
      <trkpt lat="50.69275" lon="1.78682">
        <ele>31.6</ele>
        <time>2016-05-06T11:30:39Z</time>
      </trkpt>
      <trkpt lat="50.69286" lon="1.7869">
        <ele>31.7</ele>
        <time>2016-05-06T11:30:41Z</time>
      </trkpt>
      <trkpt lat="50.69298" lon="1.78699">
        <ele>31.8</ele>
        <time>2016-05-06T11:30:43Z</time>
      </trkpt>
      <trkpt lat="50.6931" lon="1.78708">
        <ele>32</ele>
        <time>2016-05-06T11:30:45Z</time>
      </trkpt>
      <trkpt lat="50.69322" lon="1.78717">
        <ele>32.1</ele>
        <time>2016-05-06T11:30:47Z</time>
      </trkpt>
      <trkpt lat="50.69334" lon="1.78725">
        <ele>32.3</ele>
        <time>2016-05-06T11:30:49Z</time>
      </trkpt>
      <trkpt lat="50.69346" lon="1.78733">
        <ele>32.5</ele>
        <time>2016-05-06T11:30:51Z</time>
      </trkpt>
      <trkpt lat="50.69358" lon="1.7874">
        <ele>32.6</ele>
        <time>2016-05-06T11:30:53Z</time>
      </trkpt>
      <trkpt lat="50.69371" lon="1.78747">
        <ele>32.8</ele>
        <time>2016-05-06T11:30:55Z</time>
      </trkpt>
      <trkpt lat="50.69383" lon="1.78753">
        <ele>32.9</ele>
        <time>2016-05-06T11:30:57Z</time>
      </trkpt>
      <trkpt lat="50.69395" lon="1.78759">
        <ele>33</ele>
        <time>2016-05-06T11:30:59Z</time>
      </trkpt>
      <trkpt lat="50.69408" lon="1.78764">
        <ele>33.1</ele>
        <time>2016-05-06T11:31:01Z</time>
      </trkpt>
      <trkpt lat="50.6942" lon="1.7877">
        <ele>33.2</ele>
        <time>2016-05-06T11:31:03Z</time>
      </trkpt>
      <trkpt lat="50.69434" lon="1.78774">
        <ele>33.3</ele>
        <time>2016-05-06T11:31:05Z</time>
      </trkpt>
      <trkpt lat="50.69447" lon="1.7878">
        <ele>33.4</ele>
        <time>2016-05-06T11:31:07Z</time>
      </trkpt>
      <trkpt lat="50.69462" lon="1.78786">
        <ele>33.5</ele>
        <time>2016-05-06T11:31:09Z</time>
      </trkpt>
      <trkpt lat="50.69476" lon="1.78793">
        <ele>33.6</ele>
        <time>2016-05-06T11:31:11Z</time>
      </trkpt>
      <trkpt lat="50.6949" lon="1.78799">
        <ele>33.6</ele>
        <time>2016-05-06T11:31:13Z</time>
      </trkpt>
      <trkpt lat="50.69505" lon="1.78806">
        <ele>33.6</ele>
        <time>2016-05-06T11:31:15Z</time>
      </trkpt>
      <trkpt lat="50.69519" lon="1.78812">
        <ele>33.6</ele>
        <time>2016-05-06T11:31:17Z</time>
      </trkpt>
      <trkpt lat="50.69533" lon="1.78818">
        <ele>33.5</ele>
        <time>2016-05-06T11:31:19Z</time>
      </trkpt>
      <trkpt lat="50.69546" lon="1.78825">
        <ele>33.3</ele>
        <time>2016-05-06T11:31:21Z</time>
      </trkpt>
      <trkpt lat="50.6956" lon="1.78832">
        <ele>33.2</ele>
        <time>2016-05-06T11:31:23Z</time>
      </trkpt>
      <trkpt lat="50.69573" lon="1.78839">
        <ele>33</ele>
        <time>2016-05-06T11:31:25Z</time>
      </trkpt>
      <trkpt lat="50.69587" lon="1.78845">
        <ele>32.8</ele>
        <time>2016-05-06T11:31:27Z</time>
      </trkpt>
      <trkpt lat="50.696" lon="1.78851">
        <ele>32.7</ele>
        <time>2016-05-06T11:31:29Z</time>
      </trkpt>
      <trkpt lat="50.69614" lon="1.78856">
        <ele>32.5</ele>
        <time>2016-05-06T11:31:31Z</time>
      </trkpt>
      <trkpt lat="50.69628" lon="1.78858">
        <ele>32.4</ele>
        <time>2016-05-06T11:31:33Z</time>
      </trkpt>
      <trkpt lat="50.69643" lon="1.78854">
        <ele>32.2</ele>
        <time>2016-05-06T11:31:35Z</time>
      </trkpt>
      <trkpt lat="50.69656" lon="1.78847">
        <ele>32.1</ele>
        <time>2016-05-06T11:31:37Z</time>
      </trkpt>
      <trkpt lat="50.69668" lon="1.78838">
        <ele>32</ele>
        <time>2016-05-06T11:31:39Z</time>
      </trkpt>
      <trkpt lat="50.69681" lon="1.78829">
        <ele>31.9</ele>
        <time>2016-05-06T11:31:41Z</time>
      </trkpt>
      <trkpt lat="50.69693" lon="1.78821">
        <ele>31.8</ele>
        <time>2016-05-06T11:31:43Z</time>
      </trkpt>
      <trkpt lat="50.69706" lon="1.78813">
        <ele>31.7</ele>
        <time>2016-05-06T11:31:45Z</time>
      </trkpt>
      <trkpt lat="50.69719" lon="1.78804">
        <ele>31.7</ele>
        <time>2016-05-06T11:31:47Z</time>
      </trkpt>
      <trkpt lat="50.69733" lon="1.78795">
        <ele>31.6</ele>
        <time>2016-05-06T11:31:49Z</time>
      </trkpt>
      <trkpt lat="50.69747" lon="1.78786">
        <ele>31.5</ele>
        <time>2016-05-06T11:31:51Z</time>
      </trkpt>
      <trkpt lat="50.69761" lon="1.78777">
        <ele>31.4</ele>
        <time>2016-05-06T11:31:53Z</time>
      </trkpt>
      <trkpt lat="50.69775" lon="1.78769">
        <ele>31.3</ele>
        <time>2016-05-06T11:31:55Z</time>
      </trkpt>
      <trkpt lat="50.69789" lon="1.7876">
        <ele>31.4</ele>
        <time>2016-05-06T11:31:57Z</time>
      </trkpt>
      <trkpt lat="50.69802" lon="1.7875">
        <ele>31.4</ele>
        <time>2016-05-06T11:31:59Z</time>
      </trkpt>
      <trkpt lat="50.69813" lon="1.78738">
        <ele>31.4</ele>
        <time>2016-05-06T11:32:01Z</time>
      </trkpt>
      <trkpt lat="50.69824" lon="1.78724">
        <ele>31.4</ele>
        <time>2016-05-06T11:32:03Z</time>
      </trkpt>
      <trkpt lat="50.69834" lon="1.78708">
        <ele>31.4</ele>
        <time>2016-05-06T11:32:05Z</time>
      </trkpt>
      <trkpt lat="50.69844" lon="1.78693">
        <ele>31.4</ele>
        <time>2016-05-06T11:32:07Z</time>
      </trkpt>
      <trkpt lat="50.69855" lon="1.78678">
        <ele>31.3</ele>
        <time>2016-05-06T11:32:09Z</time>
      </trkpt>
      <trkpt lat="50.69867" lon="1.78666">
        <ele>31.3</ele>
        <time>2016-05-06T11:32:11Z</time>
      </trkpt>
      <trkpt lat="50.69878" lon="1.78653">
        <ele>31.3</ele>
        <time>2016-05-06T11:32:13Z</time>
      </trkpt>
      <trkpt lat="50.69888" lon="1.78641">
        <ele>31.2</ele>
        <time>2016-05-06T11:32:15Z</time>
      </trkpt>
      <trkpt lat="50.69897" lon="1.78626">
        <ele>31.2</ele>
        <time>2016-05-06T11:32:17Z</time>
      </trkpt>
      <trkpt lat="50.69905" lon="1.78609">
        <ele>31.2</ele>
        <time>2016-05-06T11:32:19Z</time>
      </trkpt>
      <trkpt lat="50.69909" lon="1.7859">
        <ele>31.1</ele>
        <time>2016-05-06T11:32:21Z</time>
      </trkpt>
      <trkpt lat="50.69907" lon="1.7857">
        <ele>29.2</ele>
        <time>2016-05-06T11:32:23Z</time>
      </trkpt>
      <trkpt lat="50.69905" lon="1.78556">
        <ele>30.4</ele>
        <time>2016-05-06T11:32:26Z</time>
      </trkpt>
      <trkpt lat="50.69896" lon="1.78546">
        <ele>31.8</ele>
        <time>2016-05-06T11:32:38Z</time>
      </trkpt>
      <trkpt lat="50.69887" lon="1.78541">
        <ele>32</ele>
        <time>2016-05-06T11:32:41Z</time>
      </trkpt>
      <trkpt lat="50.69877" lon="1.78531">
        <ele>32.1</ele>
        <time>2016-05-06T11:32:44Z</time>
      </trkpt>
      <trkpt lat="50.69868" lon="1.78518">
        <ele>32.2</ele>
        <time>2016-05-06T11:32:47Z</time>
      </trkpt>
      <trkpt lat="50.6986" lon="1.78503">
        <ele>32.3</ele>
        <time>2016-05-06T11:32:50Z</time>
      </trkpt>
      <trkpt lat="50.69854" lon="1.78486">
        <ele>32.5</ele>
        <time>2016-05-06T11:32:53Z</time>
      </trkpt>
      <trkpt lat="50.69849" lon="1.78472">
        <ele>32.6</ele>
        <time>2016-05-06T11:32:55Z</time>
      </trkpt>
      <trkpt lat="50.69846" lon="1.78458">
        <ele>32.6</ele>
        <time>2016-05-06T11:32:57Z</time>
      </trkpt>
      <trkpt lat="50.69843" lon="1.78444">
        <ele>32.8</ele>
        <time>2016-05-06T11:32:59Z</time>
      </trkpt>
      <trkpt lat="50.69841" lon="1.7843">
        <ele>33</ele>
        <time>2016-05-06T11:33:01Z</time>
      </trkpt>
      <trkpt lat="50.69839" lon="1.78415">
        <ele>33.1</ele>
        <time>2016-05-06T11:33:03Z</time>
      </trkpt>
      <trkpt lat="50.69838" lon="1.784">
        <ele>33.4</ele>
        <time>2016-05-06T11:33:05Z</time>
      </trkpt>
      <trkpt lat="50.69836" lon="1.78385">
        <ele>33.6</ele>
        <time>2016-05-06T11:33:07Z</time>
      </trkpt>
      <trkpt lat="50.69835" lon="1.78371">
        <ele>33.9</ele>
        <time>2016-05-06T11:33:09Z</time>
      </trkpt>
      <trkpt lat="50.69833" lon="1.78351">
        <ele>34.3</ele>
        <time>2016-05-06T11:33:12Z</time>
      </trkpt>
      <trkpt lat="50.6983" lon="1.78331">
        <ele>34.8</ele>
        <time>2016-05-06T11:33:15Z</time>
      </trkpt>
      <trkpt lat="50.69829" lon="1.78312">
        <ele>35.2</ele>
        <time>2016-05-06T11:33:18Z</time>
      </trkpt>
      <trkpt lat="50.69827" lon="1.78294">
        <ele>35.7</ele>
        <time>2016-05-06T11:33:21Z</time>
      </trkpt>
      <trkpt lat="50.69825" lon="1.78278">
        <ele>36.4</ele>
        <time>2016-05-06T11:33:24Z</time>
      </trkpt>
      <trkpt lat="50.69824" lon="1.78262">
        <ele>37.1</ele>
        <time>2016-05-06T11:33:27Z</time>
      </trkpt>
      <trkpt lat="50.69823" lon="1.78246">
        <ele>37.9</ele>
        <time>2016-05-06T11:33:30Z</time>
      </trkpt>
      <trkpt lat="50.69822" lon="1.78231">
        <ele>38.7</ele>
        <time>2016-05-06T11:33:33Z</time>
      </trkpt>
      <trkpt lat="50.69821" lon="1.78215">
        <ele>39.5</ele>
        <time>2016-05-06T11:33:36Z</time>
      </trkpt>
      <trkpt lat="50.69822" lon="1.782">
        <ele>40.3</ele>
        <time>2016-05-06T11:33:39Z</time>
      </trkpt>
      <trkpt lat="50.69822" lon="1.78184">
        <ele>41</ele>
        <time>2016-05-06T11:33:42Z</time>
      </trkpt>
      <trkpt lat="50.69822" lon="1.7817">
        <ele>41.8</ele>
        <time>2016-05-06T11:33:45Z</time>
      </trkpt>
      <trkpt lat="50.69824" lon="1.78155">
        <ele>42.6</ele>
        <time>2016-05-06T11:33:48Z</time>
      </trkpt>
      <trkpt lat="50.69824" lon="1.7814">
        <ele>43.3</ele>
        <time>2016-05-06T11:33:51Z</time>
      </trkpt>
      <trkpt lat="50.69825" lon="1.78126">
        <ele>44.1</ele>
        <time>2016-05-06T11:33:54Z</time>
      </trkpt>
      <trkpt lat="50.69826" lon="1.78111">
        <ele>44.8</ele>
        <time>2016-05-06T11:33:57Z</time>
      </trkpt>
      <trkpt lat="50.69826" lon="1.78096">
        <ele>45.5</ele>
        <time>2016-05-06T11:34:00Z</time>
      </trkpt>
      <trkpt lat="50.69827" lon="1.78079">
        <ele>46.2</ele>
        <time>2016-05-06T11:34:03Z</time>
      </trkpt>
      <trkpt lat="50.69828" lon="1.78062">
        <ele>46.9</ele>
        <time>2016-05-06T11:34:06Z</time>
      </trkpt>
      <trkpt lat="50.69829" lon="1.78045">
        <ele>47.6</ele>
        <time>2016-05-06T11:34:09Z</time>
      </trkpt>
      <trkpt lat="50.69829" lon="1.78027">
        <ele>48.3</ele>
        <time>2016-05-06T11:34:12Z</time>
      </trkpt>
      <trkpt lat="50.69828" lon="1.78009">
        <ele>49.1</ele>
        <time>2016-05-06T11:34:15Z</time>
      </trkpt>
      <trkpt lat="50.69826" lon="1.7799">
        <ele>49.8</ele>
        <time>2016-05-06T11:34:18Z</time>
      </trkpt>
      <trkpt lat="50.69823" lon="1.77972">
        <ele>50.5</ele>
        <time>2016-05-06T11:34:21Z</time>
      </trkpt>
      <trkpt lat="50.6982" lon="1.77952">
        <ele>51.2</ele>
        <time>2016-05-06T11:34:24Z</time>
      </trkpt>
      <trkpt lat="50.69817" lon="1.77932">
        <ele>51.9</ele>
        <time>2016-05-06T11:34:27Z</time>
      </trkpt>
      <trkpt lat="50.69813" lon="1.77912">
        <ele>52.7</ele>
        <time>2016-05-06T11:34:30Z</time>
      </trkpt>
      <trkpt lat="50.6981" lon="1.77893">
        <ele>53.4</ele>
        <time>2016-05-06T11:34:33Z</time>
      </trkpt>
      <trkpt lat="50.6981" lon="1.77872">
        <ele>54.1</ele>
        <time>2016-05-06T11:34:36Z</time>
      </trkpt>
      <trkpt lat="50.69811" lon="1.77851">
        <ele>54.7</ele>
        <time>2016-05-06T11:34:39Z</time>
      </trkpt>
      <trkpt lat="50.69812" lon="1.77837">
        <ele>55.3</ele>
        <time>2016-05-06T11:34:41Z</time>
      </trkpt>
      <trkpt lat="50.69816" lon="1.77817">
        <ele>55.9</ele>
        <time>2016-05-06T11:34:44Z</time>
      </trkpt>
      <trkpt lat="50.69818" lon="1.77803">
        <ele>56.3</ele>
        <time>2016-05-06T11:34:46Z</time>
      </trkpt>
      <trkpt lat="50.6982" lon="1.77789">
        <ele>56.7</ele>
        <time>2016-05-06T11:34:48Z</time>
      </trkpt>
      <trkpt lat="50.6982" lon="1.77768">
        <ele>57.3</ele>
        <time>2016-05-06T11:34:51Z</time>
      </trkpt>
      <trkpt lat="50.69815" lon="1.77749">
        <ele>57.9</ele>
        <time>2016-05-06T11:34:54Z</time>
      </trkpt>
      <trkpt lat="50.69807" lon="1.77732">
        <ele>58.4</ele>
        <time>2016-05-06T11:34:57Z</time>
      </trkpt>
      <trkpt lat="50.698" lon="1.77723">
        <ele>58.8</ele>
        <time>2016-05-06T11:34:59Z</time>
      </trkpt>
      <trkpt lat="50.6979" lon="1.7771">
        <ele>59.5</ele>
        <time>2016-05-06T11:35:02Z</time>
      </trkpt>
      <trkpt lat="50.69782" lon="1.77701">
        <ele>59.9</ele>
        <time>2016-05-06T11:35:04Z</time>
      </trkpt>
      <trkpt lat="50.69775" lon="1.77692">
        <ele>60.3</ele>
        <time>2016-05-06T11:35:06Z</time>
      </trkpt>
      <trkpt lat="50.69767" lon="1.77683">
        <ele>60.8</ele>
        <time>2016-05-06T11:35:08Z</time>
      </trkpt>
      <trkpt lat="50.69759" lon="1.77674">
        <ele>61.2</ele>
        <time>2016-05-06T11:35:10Z</time>
      </trkpt>
      <trkpt lat="50.6975" lon="1.77664">
        <ele>61.6</ele>
        <time>2016-05-06T11:35:12Z</time>
      </trkpt>
      <trkpt lat="50.69741" lon="1.77654">
        <ele>61.9</ele>
        <time>2016-05-06T11:35:14Z</time>
      </trkpt>
      <trkpt lat="50.69732" lon="1.77643">
        <ele>62.2</ele>
        <time>2016-05-06T11:35:16Z</time>
      </trkpt>
      <trkpt lat="50.69722" lon="1.77632">
        <ele>62.5</ele>
        <time>2016-05-06T11:35:18Z</time>
      </trkpt>
      <trkpt lat="50.69712" lon="1.77621">
        <ele>62.7</ele>
        <time>2016-05-06T11:35:20Z</time>
      </trkpt>
      <trkpt lat="50.69701" lon="1.77608">
        <ele>63</ele>
        <time>2016-05-06T11:35:22Z</time>
      </trkpt>
      <trkpt lat="50.6969" lon="1.77595">
        <ele>63.2</ele>
        <time>2016-05-06T11:35:24Z</time>
      </trkpt>
      <trkpt lat="50.69677" lon="1.77581">
        <ele>63.4</ele>
        <time>2016-05-06T11:35:26Z</time>
      </trkpt>
      <trkpt lat="50.69664" lon="1.77566">
        <ele>63.4</ele>
        <time>2016-05-06T11:35:28Z</time>
      </trkpt>
      <trkpt lat="50.69648" lon="1.77551">
        <ele>63.4</ele>
        <time>2016-05-06T11:35:30Z</time>
      </trkpt>
      <trkpt lat="50.6964" lon="1.77545">
        <ele>63.3</ele>
        <time>2016-05-06T11:35:31Z</time>
      </trkpt>
      <trkpt lat="50.69631" lon="1.77541">
        <ele>63.2</ele>
        <time>2016-05-06T11:35:32Z</time>
      </trkpt>
      <trkpt lat="50.69622" lon="1.77537">
        <ele>63</ele>
        <time>2016-05-06T11:35:33Z</time>
      </trkpt>
      <trkpt lat="50.69612" lon="1.77535">
        <ele>62.9</ele>
        <time>2016-05-06T11:35:34Z</time>
      </trkpt>
      <trkpt lat="50.69602" lon="1.77533">
        <ele>62.6</ele>
        <time>2016-05-06T11:35:35Z</time>
      </trkpt>
      <trkpt lat="50.69592" lon="1.77531">
        <ele>62.4</ele>
        <time>2016-05-06T11:35:36Z</time>
      </trkpt>
      <trkpt lat="50.69582" lon="1.77529">
        <ele>62.1</ele>
        <time>2016-05-06T11:35:37Z</time>
      </trkpt>
      <trkpt lat="50.69572" lon="1.77527">
        <ele>61.9</ele>
        <time>2016-05-06T11:35:38Z</time>
      </trkpt>
      <trkpt lat="50.69562" lon="1.77524">
        <ele>61.5</ele>
        <time>2016-05-06T11:35:39Z</time>
      </trkpt>
      <trkpt lat="50.69552" lon="1.77521">
        <ele>61.1</ele>
        <time>2016-05-06T11:35:40Z</time>
      </trkpt>
      <trkpt lat="50.69542" lon="1.77517">
        <ele>60.7</ele>
        <time>2016-05-06T11:35:41Z</time>
      </trkpt>
      <trkpt lat="50.69533" lon="1.77513">
        <ele>60.3</ele>
        <time>2016-05-06T11:35:42Z</time>
      </trkpt>
      <trkpt lat="50.69524" lon="1.77509">
        <ele>60</ele>
        <time>2016-05-06T11:35:43Z</time>
      </trkpt>
      <trkpt lat="50.69507" lon="1.775">
        <ele>59.3</ele>
        <time>2016-05-06T11:35:45Z</time>
      </trkpt>
      <trkpt lat="50.69491" lon="1.77491">
        <ele>58.7</ele>
        <time>2016-05-06T11:35:47Z</time>
      </trkpt>
      <trkpt lat="50.69476" lon="1.77483">
        <ele>58.2</ele>
        <time>2016-05-06T11:35:49Z</time>
      </trkpt>
      <trkpt lat="50.69462" lon="1.77474">
        <ele>57.8</ele>
        <time>2016-05-06T11:35:51Z</time>
      </trkpt>
      <trkpt lat="50.69449" lon="1.77465">
        <ele>57.5</ele>
        <time>2016-05-06T11:35:53Z</time>
      </trkpt>
      <trkpt lat="50.69438" lon="1.77456">
        <ele>57.3</ele>
        <time>2016-05-06T11:35:55Z</time>
      </trkpt>
      <trkpt lat="50.69427" lon="1.77445">
        <ele>57.2</ele>
        <time>2016-05-06T11:35:57Z</time>
      </trkpt>
      <trkpt lat="50.69416" lon="1.77434">
        <ele>57.3</ele>
        <time>2016-05-06T11:35:59Z</time>
      </trkpt>
      <trkpt lat="50.69407" lon="1.77422">
        <ele>57.4</ele>
        <time>2016-05-06T11:36:01Z</time>
      </trkpt>
      <trkpt lat="50.69397" lon="1.7741">
        <ele>57.5</ele>
        <time>2016-05-06T11:36:03Z</time>
      </trkpt>
      <trkpt lat="50.69387" lon="1.77398">
        <ele>57.7</ele>
        <time>2016-05-06T11:36:05Z</time>
      </trkpt>
      <trkpt lat="50.69378" lon="1.77385">
        <ele>57.9</ele>
        <time>2016-05-06T11:36:07Z</time>
      </trkpt>
      <trkpt lat="50.69369" lon="1.77373">
        <ele>58.1</ele>
        <time>2016-05-06T11:36:09Z</time>
      </trkpt>
      <trkpt lat="50.6936" lon="1.77361">
        <ele>58.4</ele>
        <time>2016-05-06T11:36:11Z</time>
      </trkpt>
      <trkpt lat="50.6935" lon="1.7735">
        <ele>58.7</ele>
        <time>2016-05-06T11:36:13Z</time>
      </trkpt>
      <trkpt lat="50.69342" lon="1.77337">
        <ele>58.9</ele>
        <time>2016-05-06T11:36:15Z</time>
      </trkpt>
      <trkpt lat="50.69333" lon="1.77324">
        <ele>59.2</ele>
        <time>2016-05-06T11:36:17Z</time>
      </trkpt>
      <trkpt lat="50.69325" lon="1.77312">
        <ele>59.5</ele>
        <time>2016-05-06T11:36:19Z</time>
      </trkpt>
      <trkpt lat="50.69316" lon="1.77299">
        <ele>59.8</ele>
        <time>2016-05-06T11:36:21Z</time>
      </trkpt>
      <trkpt lat="50.69306" lon="1.77287">
        <ele>60.1</ele>
        <time>2016-05-06T11:36:23Z</time>
      </trkpt>
      <trkpt lat="50.69297" lon="1.77274">
        <ele>60.3</ele>
        <time>2016-05-06T11:36:25Z</time>
      </trkpt>
      <trkpt lat="50.69287" lon="1.77261">
        <ele>60.6</ele>
        <time>2016-05-06T11:36:27Z</time>
      </trkpt>
      <trkpt lat="50.69278" lon="1.77249">
        <ele>60.7</ele>
        <time>2016-05-06T11:36:29Z</time>
      </trkpt>
      <trkpt lat="50.69268" lon="1.77235">
        <ele>60.9</ele>
        <time>2016-05-06T11:36:31Z</time>
      </trkpt>
      <trkpt lat="50.69257" lon="1.77221">
        <ele>61</ele>
        <time>2016-05-06T11:36:33Z</time>
      </trkpt>
      <trkpt lat="50.69246" lon="1.77207">
        <ele>61.1</ele>
        <time>2016-05-06T11:36:35Z</time>
      </trkpt>
      <trkpt lat="50.69235" lon="1.77191">
        <ele>61.2</ele>
        <time>2016-05-06T11:36:37Z</time>
      </trkpt>
      <trkpt lat="50.69223" lon="1.77176">
        <ele>61.2</ele>
        <time>2016-05-06T11:36:39Z</time>
      </trkpt>
      <trkpt lat="50.69212" lon="1.7716">
        <ele>61.1</ele>
        <time>2016-05-06T11:36:41Z</time>
      </trkpt>
      <trkpt lat="50.692" lon="1.77145">
        <ele>61</ele>
        <time>2016-05-06T11:36:43Z</time>
      </trkpt>
      <trkpt lat="50.69187" lon="1.77129">
        <ele>60.8</ele>
        <time>2016-05-06T11:36:45Z</time>
      </trkpt>
      <trkpt lat="50.69175" lon="1.77115">
        <ele>60.5</ele>
        <time>2016-05-06T11:36:47Z</time>
      </trkpt>
      <trkpt lat="50.6916" lon="1.77104">
        <ele>60.3</ele>
        <time>2016-05-06T11:36:49Z</time>
      </trkpt>
      <trkpt lat="50.69146" lon="1.77095">
        <ele>60</ele>
        <time>2016-05-06T11:36:51Z</time>
      </trkpt>
      <trkpt lat="50.69131" lon="1.77087">
        <ele>59.8</ele>
        <time>2016-05-06T11:36:53Z</time>
      </trkpt>
      <trkpt lat="50.69117" lon="1.77079">
        <ele>59.7</ele>
        <time>2016-05-06T11:36:55Z</time>
      </trkpt>
      <trkpt lat="50.69103" lon="1.7707">
        <ele>59.6</ele>
        <time>2016-05-06T11:36:57Z</time>
      </trkpt>
      <trkpt lat="50.69089" lon="1.7706">
        <ele>59.6</ele>
        <time>2016-05-06T11:36:59Z</time>
      </trkpt>
      <trkpt lat="50.69075" lon="1.77046">
        <ele>59.6</ele>
        <time>2016-05-06T11:37:01Z</time>
      </trkpt>
      <trkpt lat="50.69061" lon="1.77029">
        <ele>59.5</ele>
        <time>2016-05-06T11:37:03Z</time>
      </trkpt>
      <trkpt lat="50.69054" lon="1.7702">
        <ele>59.4</ele>
        <time>2016-05-06T11:37:04Z</time>
      </trkpt>
      <trkpt lat="50.69047" lon="1.7701">
        <ele>59.3</ele>
        <time>2016-05-06T11:37:05Z</time>
      </trkpt>
      <trkpt lat="50.6904" lon="1.77001">
        <ele>59.2</ele>
        <time>2016-05-06T11:37:06Z</time>
      </trkpt>
      <trkpt lat="50.69032" lon="1.76992">
        <ele>59.1</ele>
        <time>2016-05-06T11:37:07Z</time>
      </trkpt>
      <trkpt lat="50.69025" lon="1.76983">
        <ele>58.8</ele>
        <time>2016-05-06T11:37:08Z</time>
      </trkpt>
      <trkpt lat="50.69017" lon="1.76974">
        <ele>58.6</ele>
        <time>2016-05-06T11:37:09Z</time>
      </trkpt>
      <trkpt lat="50.69009" lon="1.76966">
        <ele>58.4</ele>
        <time>2016-05-06T11:37:10Z</time>
      </trkpt>
      <trkpt lat="50.69001" lon="1.76959">
        <ele>58.2</ele>
        <time>2016-05-06T11:37:11Z</time>
      </trkpt>
      <trkpt lat="50.68993" lon="1.76952">
        <ele>58</ele>
        <time>2016-05-06T11:37:12Z</time>
      </trkpt>
      <trkpt lat="50.68978" lon="1.76939">
        <ele>57.6</ele>
        <time>2016-05-06T11:37:14Z</time>
      </trkpt>
      <trkpt lat="50.68965" lon="1.76926">
        <ele>57.2</ele>
        <time>2016-05-06T11:37:16Z</time>
      </trkpt>
      <trkpt lat="50.68953" lon="1.76913">
        <ele>56.9</ele>
        <time>2016-05-06T11:37:18Z</time>
      </trkpt>
      <trkpt lat="50.68941" lon="1.76899">
        <ele>56.6</ele>
        <time>2016-05-06T11:37:20Z</time>
      </trkpt>
      <trkpt lat="50.68931" lon="1.76884">
        <ele>56.4</ele>
        <time>2016-05-06T11:37:22Z</time>
      </trkpt>
      <trkpt lat="50.68922" lon="1.76867">
        <ele>56.3</ele>
        <time>2016-05-06T11:37:24Z</time>
      </trkpt>
      <trkpt lat="50.68913" lon="1.76849">
        <ele>56.3</ele>
        <time>2016-05-06T11:37:26Z</time>
      </trkpt>
      <trkpt lat="50.68905" lon="1.7683">
        <ele>56.3</ele>
        <time>2016-05-06T11:37:28Z</time>
      </trkpt>
      <trkpt lat="50.68896" lon="1.7681">
        <ele>56.5</ele>
        <time>2016-05-06T11:37:30Z</time>
      </trkpt>
      <trkpt lat="50.68888" lon="1.7679">
        <ele>56.7</ele>
        <time>2016-05-06T11:37:32Z</time>
      </trkpt>
      <trkpt lat="50.68879" lon="1.76771">
        <ele>56.9</ele>
        <time>2016-05-06T11:37:34Z</time>
      </trkpt>
      <trkpt lat="50.68871" lon="1.76751">
        <ele>57.1</ele>
        <time>2016-05-06T11:37:36Z</time>
      </trkpt>
      <trkpt lat="50.68862" lon="1.76732">
        <ele>57.3</ele>
        <time>2016-05-06T11:37:38Z</time>
      </trkpt>
      <trkpt lat="50.68854" lon="1.76713">
        <ele>57.4</ele>
        <time>2016-05-06T11:37:40Z</time>
      </trkpt>
      <trkpt lat="50.68845" lon="1.76694">
        <ele>57.5</ele>
        <time>2016-05-06T11:37:42Z</time>
      </trkpt>
      <trkpt lat="50.68836" lon="1.76673">
        <ele>57.6</ele>
        <time>2016-05-06T11:37:44Z</time>
      </trkpt>
      <trkpt lat="50.68827" lon="1.76652">
        <ele>57.7</ele>
        <time>2016-05-06T11:37:46Z</time>
      </trkpt>
      <trkpt lat="50.68818" lon="1.76631">
        <ele>57.8</ele>
        <time>2016-05-06T11:37:48Z</time>
      </trkpt>
      <trkpt lat="50.68808" lon="1.76609">
        <ele>57.7</ele>
        <time>2016-05-06T11:37:50Z</time>
      </trkpt>
      <trkpt lat="50.68799" lon="1.76588">
        <ele>57.6</ele>
        <time>2016-05-06T11:37:52Z</time>
      </trkpt>
      <trkpt lat="50.68789" lon="1.76566">
        <ele>57.4</ele>
        <time>2016-05-06T11:37:54Z</time>
      </trkpt>
      <trkpt lat="50.68779" lon="1.76545">
        <ele>57.1</ele>
        <time>2016-05-06T11:37:56Z</time>
      </trkpt>
      <trkpt lat="50.6877" lon="1.76524">
        <ele>56.9</ele>
        <time>2016-05-06T11:37:58Z</time>
      </trkpt>
      <trkpt lat="50.6876" lon="1.76503">
        <ele>56.7</ele>
        <time>2016-05-06T11:38:00Z</time>
      </trkpt>
      <trkpt lat="50.68751" lon="1.76482">
        <ele>56.4</ele>
        <time>2016-05-06T11:38:02Z</time>
      </trkpt>
      <trkpt lat="50.6874" lon="1.76463">
        <ele>56.1</ele>
        <time>2016-05-06T11:38:04Z</time>
      </trkpt>
      <trkpt lat="50.6873" lon="1.76445">
        <ele>55.8</ele>
        <time>2016-05-06T11:38:06Z</time>
      </trkpt>
      <trkpt lat="50.68718" lon="1.76428">
        <ele>55.5</ele>
        <time>2016-05-06T11:38:08Z</time>
      </trkpt>
      <trkpt lat="50.68706" lon="1.76411">
        <ele>55.1</ele>
        <time>2016-05-06T11:38:10Z</time>
      </trkpt>
      <trkpt lat="50.68694" lon="1.76393">
        <ele>54.5</ele>
        <time>2016-05-06T11:38:12Z</time>
      </trkpt>
      <trkpt lat="50.68681" lon="1.76374">
        <ele>54</ele>
        <time>2016-05-06T11:38:14Z</time>
      </trkpt>
      <trkpt lat="50.68674" lon="1.76364">
        <ele>53.7</ele>
        <time>2016-05-06T11:38:15Z</time>
      </trkpt>
      <trkpt lat="50.68667" lon="1.76354">
        <ele>53.4</ele>
        <time>2016-05-06T11:38:16Z</time>
      </trkpt>
      <trkpt lat="50.6866" lon="1.76344">
        <ele>53.1</ele>
        <time>2016-05-06T11:38:17Z</time>
      </trkpt>
      <trkpt lat="50.68653" lon="1.76334">
        <ele>52.7</ele>
        <time>2016-05-06T11:38:18Z</time>
      </trkpt>
      <trkpt lat="50.68646" lon="1.76323">
        <ele>52.4</ele>
        <time>2016-05-06T11:38:19Z</time>
      </trkpt>
      <trkpt lat="50.68639" lon="1.76312">
        <ele>52</ele>
        <time>2016-05-06T11:38:20Z</time>
      </trkpt>
      <trkpt lat="50.68631" lon="1.76301">
        <ele>51.7</ele>
        <time>2016-05-06T11:38:21Z</time>
      </trkpt>
      <trkpt lat="50.68623" lon="1.7629">
        <ele>51.3</ele>
        <time>2016-05-06T11:38:22Z</time>
      </trkpt>
      <trkpt lat="50.68614" lon="1.76278">
        <ele>50.8</ele>
        <time>2016-05-06T11:38:23Z</time>
      </trkpt>
      <trkpt lat="50.68606" lon="1.76266">
        <ele>50.4</ele>
        <time>2016-05-06T11:38:24Z</time>
      </trkpt>
      <trkpt lat="50.68597" lon="1.76253">
        <ele>50.1</ele>
        <time>2016-05-06T11:38:25Z</time>
      </trkpt>
      <trkpt lat="50.68588" lon="1.76241">
        <ele>49.5</ele>
        <time>2016-05-06T11:38:26Z</time>
      </trkpt>
      <trkpt lat="50.6858" lon="1.76228">
        <ele>48.9</ele>
        <time>2016-05-06T11:38:27Z</time>
      </trkpt>
      <trkpt lat="50.68571" lon="1.76215">
        <ele>48.4</ele>
        <time>2016-05-06T11:38:28Z</time>
      </trkpt>
      <trkpt lat="50.68562" lon="1.76202">
        <ele>47.8</ele>
        <time>2016-05-06T11:38:29Z</time>
      </trkpt>
      <trkpt lat="50.68552" lon="1.76188">
        <ele>47.3</ele>
        <time>2016-05-06T11:38:30Z</time>
      </trkpt>
      <trkpt lat="50.68543" lon="1.76174">
        <ele>46.6</ele>
        <time>2016-05-06T11:38:31Z</time>
      </trkpt>
      <trkpt lat="50.68534" lon="1.7616">
        <ele>45.9</ele>
        <time>2016-05-06T11:38:32Z</time>
      </trkpt>
      <trkpt lat="50.68524" lon="1.76147">
        <ele>45.2</ele>
        <time>2016-05-06T11:38:33Z</time>
      </trkpt>
      <trkpt lat="50.68515" lon="1.76133">
        <ele>44.5</ele>
        <time>2016-05-06T11:38:34Z</time>
      </trkpt>
      <trkpt lat="50.68507" lon="1.76121">
        <ele>43.8</ele>
        <time>2016-05-06T11:38:35Z</time>
      </trkpt>
      <trkpt lat="50.68499" lon="1.7611">
        <ele>43</ele>
        <time>2016-05-06T11:38:36Z</time>
      </trkpt>
      <trkpt lat="50.68491" lon="1.76099">
        <ele>42.3</ele>
        <time>2016-05-06T11:38:37Z</time>
      </trkpt>
      <trkpt lat="50.68483" lon="1.76088">
        <ele>41.5</ele>
        <time>2016-05-06T11:38:38Z</time>
      </trkpt>
      <trkpt lat="50.68476" lon="1.76079">
        <ele>40.8</ele>
        <time>2016-05-06T11:38:39Z</time>
      </trkpt>
      <trkpt lat="50.68468" lon="1.76071">
        <ele>40</ele>
        <time>2016-05-06T11:38:40Z</time>
      </trkpt>
      <trkpt lat="50.68452" lon="1.7606">
        <ele>38.7</ele>
        <time>2016-05-06T11:38:42Z</time>
      </trkpt>
      <trkpt lat="50.68435" lon="1.76058">
        <ele>37.4</ele>
        <time>2016-05-06T11:38:44Z</time>
      </trkpt>
      <trkpt lat="50.6842" lon="1.76062">
        <ele>36.3</ele>
        <time>2016-05-06T11:38:46Z</time>
      </trkpt>
      <trkpt lat="50.68404" lon="1.76071">
        <ele>35.4</ele>
        <time>2016-05-06T11:38:48Z</time>
      </trkpt>
      <trkpt lat="50.68389" lon="1.76082">
        <ele>34.4</ele>
        <time>2016-05-06T11:38:50Z</time>
      </trkpt>
      <trkpt lat="50.68375" lon="1.76088">
        <ele>33.6</ele>
        <time>2016-05-06T11:38:52Z</time>
      </trkpt>
      <trkpt lat="50.6836" lon="1.76086">
        <ele>32.8</ele>
        <time>2016-05-06T11:38:54Z</time>
      </trkpt>
      <trkpt lat="50.68347" lon="1.76081">
        <ele>32.2</ele>
        <time>2016-05-06T11:38:56Z</time>
      </trkpt>
      <trkpt lat="50.68335" lon="1.76074">
        <ele>31.6</ele>
        <time>2016-05-06T11:38:58Z</time>
      </trkpt>
      <trkpt lat="50.68323" lon="1.76069">
        <ele>31.2</ele>
        <time>2016-05-06T11:39:00Z</time>
      </trkpt>
      <trkpt lat="50.6831" lon="1.76069">
        <ele>31</ele>
        <time>2016-05-06T11:39:02Z</time>
      </trkpt>
      <trkpt lat="50.68297" lon="1.76071">
        <ele>30.9</ele>
        <time>2016-05-06T11:39:04Z</time>
      </trkpt>
      <trkpt lat="50.68285" lon="1.76072">
        <ele>30.8</ele>
        <time>2016-05-06T11:39:06Z</time>
      </trkpt>
      <trkpt lat="50.68273" lon="1.76074">
        <ele>30.8</ele>
        <time>2016-05-06T11:39:08Z</time>
      </trkpt>
      <trkpt lat="50.68261" lon="1.76074">
        <ele>30.8</ele>
        <time>2016-05-06T11:39:10Z</time>
      </trkpt>
      <trkpt lat="50.68249" lon="1.76072">
        <ele>30.9</ele>
        <time>2016-05-06T11:39:12Z</time>
      </trkpt>
      <trkpt lat="50.68239" lon="1.7607">
        <ele>31</ele>
        <time>2016-05-06T11:39:14Z</time>
      </trkpt>
      <trkpt lat="50.68229" lon="1.76065">
        <ele>31.3</ele>
        <time>2016-05-06T11:39:16Z</time>
      </trkpt>
      <trkpt lat="50.6822" lon="1.76059">
        <ele>31.8</ele>
        <time>2016-05-06T11:39:18Z</time>
      </trkpt>
      <trkpt lat="50.6821" lon="1.76049">
        <ele>32.5</ele>
        <time>2016-05-06T11:39:21Z</time>
      </trkpt>
      <trkpt lat="50.68198" lon="1.76041">
        <ele>33</ele>
        <time>2016-05-06T11:39:24Z</time>
      </trkpt>
      <trkpt lat="50.6819" lon="1.76032">
        <ele>33.5</ele>
        <time>2016-05-06T11:39:27Z</time>
      </trkpt>
      <trkpt lat="50.68181" lon="1.76028">
        <ele>36.9</ele>
        <time>2016-05-06T11:40:07Z</time>
      </trkpt>
      <trkpt lat="50.68171" lon="1.76021">
        <ele>37</ele>
        <time>2016-05-06T11:40:10Z</time>
      </trkpt>
      <trkpt lat="50.68163" lon="1.76012">
        <ele>37.1</ele>
        <time>2016-05-06T11:40:13Z</time>
      </trkpt>
      <trkpt lat="50.68153" lon="1.76004">
        <ele>37.4</ele>
        <time>2016-05-06T11:40:16Z</time>
      </trkpt>
      <trkpt lat="50.68145" lon="1.75997">
        <ele>37.6</ele>
        <time>2016-05-06T11:40:18Z</time>
      </trkpt>
      <trkpt lat="50.68137" lon="1.75989">
        <ele>37.8</ele>
        <time>2016-05-06T11:40:20Z</time>
      </trkpt>
      <trkpt lat="50.68129" lon="1.75981">
        <ele>38</ele>
        <time>2016-05-06T11:40:22Z</time>
      </trkpt>
      <trkpt lat="50.6812" lon="1.7597">
        <ele>38.2</ele>
        <time>2016-05-06T11:40:24Z</time>
      </trkpt>
      <trkpt lat="50.6811" lon="1.7596">
        <ele>38.4</ele>
        <time>2016-05-06T11:40:26Z</time>
      </trkpt>
      <trkpt lat="50.68101" lon="1.75948">
        <ele>38.6</ele>
        <time>2016-05-06T11:40:28Z</time>
      </trkpt>
      <trkpt lat="50.68091" lon="1.75936">
        <ele>38.8</ele>
        <time>2016-05-06T11:40:30Z</time>
      </trkpt>
      <trkpt lat="50.68081" lon="1.75924">
        <ele>39</ele>
        <time>2016-05-06T11:40:32Z</time>
      </trkpt>
      <trkpt lat="50.68072" lon="1.75911">
        <ele>39.2</ele>
        <time>2016-05-06T11:40:34Z</time>
      </trkpt>
      <trkpt lat="50.68061" lon="1.75899">
        <ele>39.4</ele>
        <time>2016-05-06T11:40:36Z</time>
      </trkpt>
      <trkpt lat="50.68051" lon="1.75885">
        <ele>39.7</ele>
        <time>2016-05-06T11:40:38Z</time>
      </trkpt>
      <trkpt lat="50.6804" lon="1.75872">
        <ele>39.9</ele>
        <time>2016-05-06T11:40:40Z</time>
      </trkpt>
      <trkpt lat="50.68029" lon="1.75859">
        <ele>40.1</ele>
        <time>2016-05-06T11:40:42Z</time>
      </trkpt>
      <trkpt lat="50.68018" lon="1.75846">
        <ele>40.3</ele>
        <time>2016-05-06T11:40:44Z</time>
      </trkpt>
      <trkpt lat="50.68007" lon="1.75833">
        <ele>40.5</ele>
        <time>2016-05-06T11:40:46Z</time>
      </trkpt>
      <trkpt lat="50.67997" lon="1.7582">
        <ele>40.7</ele>
        <time>2016-05-06T11:40:48Z</time>
      </trkpt>
      <trkpt lat="50.67986" lon="1.75807">
        <ele>40.8</ele>
        <time>2016-05-06T11:40:50Z</time>
      </trkpt>
      <trkpt lat="50.67976" lon="1.75793">
        <ele>41</ele>
        <time>2016-05-06T11:40:52Z</time>
      </trkpt>
      <trkpt lat="50.67965" lon="1.7578">
        <ele>41.2</ele>
        <time>2016-05-06T11:40:54Z</time>
      </trkpt>
      <trkpt lat="50.67954" lon="1.75768">
        <ele>41.5</ele>
        <time>2016-05-06T11:40:56Z</time>
      </trkpt>
      <trkpt lat="50.67944" lon="1.75755">
        <ele>41.6</ele>
        <time>2016-05-06T11:40:58Z</time>
      </trkpt>
      <trkpt lat="50.67933" lon="1.75743">
        <ele>41.8</ele>
        <time>2016-05-06T11:41:00Z</time>
      </trkpt>
      <trkpt lat="50.67922" lon="1.75732">
        <ele>42</ele>
        <time>2016-05-06T11:41:02Z</time>
      </trkpt>
      <trkpt lat="50.67911" lon="1.75721">
        <ele>42.1</ele>
        <time>2016-05-06T11:41:04Z</time>
      </trkpt>
      <trkpt lat="50.679" lon="1.7571">
        <ele>42.3</ele>
        <time>2016-05-06T11:41:06Z</time>
      </trkpt>
      <trkpt lat="50.67888" lon="1.75699">
        <ele>42.4</ele>
        <time>2016-05-06T11:41:08Z</time>
      </trkpt>
      <trkpt lat="50.67876" lon="1.75687">
        <ele>42.6</ele>
        <time>2016-05-06T11:41:10Z</time>
      </trkpt>
      <trkpt lat="50.67864" lon="1.75677">
        <ele>42.7</ele>
        <time>2016-05-06T11:41:12Z</time>
      </trkpt>
      <trkpt lat="50.67852" lon="1.75665">
        <ele>42.9</ele>
        <time>2016-05-06T11:41:14Z</time>
      </trkpt>
      <trkpt lat="50.67838" lon="1.75653">
        <ele>43</ele>
        <time>2016-05-06T11:41:16Z</time>
      </trkpt>
      <trkpt lat="50.67825" lon="1.75641">
        <ele>43.1</ele>
        <time>2016-05-06T11:41:18Z</time>
      </trkpt>
      <trkpt lat="50.67811" lon="1.75628">
        <ele>43.1</ele>
        <time>2016-05-06T11:41:20Z</time>
      </trkpt>
      <trkpt lat="50.67798" lon="1.75617">
        <ele>43.3</ele>
        <time>2016-05-06T11:41:22Z</time>
      </trkpt>
      <trkpt lat="50.67785" lon="1.75605">
        <ele>43.4</ele>
        <time>2016-05-06T11:41:24Z</time>
      </trkpt>
      <trkpt lat="50.67771" lon="1.75593">
        <ele>43.5</ele>
        <time>2016-05-06T11:41:26Z</time>
      </trkpt>
      <trkpt lat="50.67757" lon="1.75584">
        <ele>43.6</ele>
        <time>2016-05-06T11:41:28Z</time>
      </trkpt>
      <trkpt lat="50.67744" lon="1.75577">
        <ele>43.7</ele>
        <time>2016-05-06T11:41:30Z</time>
      </trkpt>
      <trkpt lat="50.6773" lon="1.75571">
        <ele>43.8</ele>
        <time>2016-05-06T11:41:32Z</time>
      </trkpt>
      <trkpt lat="50.67717" lon="1.75567">
        <ele>43.9</ele>
        <time>2016-05-06T11:41:34Z</time>
      </trkpt>
      <trkpt lat="50.67703" lon="1.75565">
        <ele>44.2</ele>
        <time>2016-05-06T11:41:36Z</time>
      </trkpt>
      <trkpt lat="50.67689" lon="1.75563">
        <ele>44.4</ele>
        <time>2016-05-06T11:41:38Z</time>
      </trkpt>
      <trkpt lat="50.67675" lon="1.75562">
        <ele>44.6</ele>
        <time>2016-05-06T11:41:40Z</time>
      </trkpt>
      <trkpt lat="50.6766" lon="1.75562">
        <ele>44.8</ele>
        <time>2016-05-06T11:41:42Z</time>
      </trkpt>
      <trkpt lat="50.67647" lon="1.75561">
        <ele>44.9</ele>
        <time>2016-05-06T11:41:44Z</time>
      </trkpt>
      <trkpt lat="50.67633" lon="1.7556">
        <ele>45.2</ele>
        <time>2016-05-06T11:41:46Z</time>
      </trkpt>
      <trkpt lat="50.6762" lon="1.75558">
        <ele>45.4</ele>
        <time>2016-05-06T11:41:48Z</time>
      </trkpt>
      <trkpt lat="50.67606" lon="1.75558">
        <ele>45.6</ele>
        <time>2016-05-06T11:41:50Z</time>
      </trkpt>
      <trkpt lat="50.67592" lon="1.75558">
        <ele>45.8</ele>
        <time>2016-05-06T11:41:52Z</time>
      </trkpt>
      <trkpt lat="50.67579" lon="1.75558">
        <ele>46</ele>
        <time>2016-05-06T11:41:54Z</time>
      </trkpt>
      <trkpt lat="50.67565" lon="1.75562">
        <ele>46.1</ele>
        <time>2016-05-06T11:41:56Z</time>
      </trkpt>
      <trkpt lat="50.67552" lon="1.75567">
        <ele>46.3</ele>
        <time>2016-05-06T11:41:58Z</time>
      </trkpt>
      <trkpt lat="50.6754" lon="1.75572">
        <ele>46.4</ele>
        <time>2016-05-06T11:42:00Z</time>
      </trkpt>
      <trkpt lat="50.67527" lon="1.7558">
        <ele>46.5</ele>
        <time>2016-05-06T11:42:02Z</time>
      </trkpt>
      <trkpt lat="50.67513" lon="1.75588">
        <ele>46.6</ele>
        <time>2016-05-06T11:42:04Z</time>
      </trkpt>
      <trkpt lat="50.67498" lon="1.75595">
        <ele>46.7</ele>
        <time>2016-05-06T11:42:06Z</time>
      </trkpt>
      <trkpt lat="50.67483" lon="1.75602">
        <ele>46.6</ele>
        <time>2016-05-06T11:42:08Z</time>
      </trkpt>
      <trkpt lat="50.67468" lon="1.75604">
        <ele>46.5</ele>
        <time>2016-05-06T11:42:10Z</time>
      </trkpt>
      <trkpt lat="50.67452" lon="1.75601">
        <ele>46.4</ele>
        <time>2016-05-06T11:42:12Z</time>
      </trkpt>
      <trkpt lat="50.67437" lon="1.75595">
        <ele>46.2</ele>
        <time>2016-05-06T11:42:14Z</time>
      </trkpt>
      <trkpt lat="50.67421" lon="1.75587">
        <ele>46.1</ele>
        <time>2016-05-06T11:42:16Z</time>
      </trkpt>
      <trkpt lat="50.67406" lon="1.75579">
        <ele>45.9</ele>
        <time>2016-05-06T11:42:18Z</time>
      </trkpt>
      <trkpt lat="50.6739" lon="1.7557">
        <ele>45.7</ele>
        <time>2016-05-06T11:42:20Z</time>
      </trkpt>
      <trkpt lat="50.67376" lon="1.75557">
        <ele>45.5</ele>
        <time>2016-05-06T11:42:22Z</time>
      </trkpt>
      <trkpt lat="50.67362" lon="1.75543">
        <ele>45.2</ele>
        <time>2016-05-06T11:42:24Z</time>
      </trkpt>
      <trkpt lat="50.67349" lon="1.75528">
        <ele>45</ele>
        <time>2016-05-06T11:42:26Z</time>
      </trkpt>
      <trkpt lat="50.67336" lon="1.75512">
        <ele>44.9</ele>
        <time>2016-05-06T11:42:28Z</time>
      </trkpt>
      <trkpt lat="50.67324" lon="1.75498">
        <ele>44.7</ele>
        <time>2016-05-06T11:42:30Z</time>
      </trkpt>
      <trkpt lat="50.67312" lon="1.75484">
        <ele>44.6</ele>
        <time>2016-05-06T11:42:32Z</time>
      </trkpt>
      <trkpt lat="50.673" lon="1.7547">
        <ele>44.5</ele>
        <time>2016-05-06T11:42:34Z</time>
      </trkpt>
      <trkpt lat="50.67289" lon="1.75457">
        <ele>44.4</ele>
        <time>2016-05-06T11:42:36Z</time>
      </trkpt>
      <trkpt lat="50.67276" lon="1.75446">
        <ele>44.3</ele>
        <time>2016-05-06T11:42:38Z</time>
      </trkpt>
      <trkpt lat="50.67263" lon="1.75438">
        <ele>44.2</ele>
        <time>2016-05-06T11:42:40Z</time>
      </trkpt>
      <trkpt lat="50.67248" lon="1.75435">
        <ele>44.1</ele>
        <time>2016-05-06T11:42:42Z</time>
      </trkpt>
      <trkpt lat="50.67231" lon="1.75435">
        <ele>44</ele>
        <time>2016-05-06T11:42:44Z</time>
      </trkpt>
      <trkpt lat="50.67213" lon="1.75438">
        <ele>43.7</ele>
        <time>2016-05-06T11:42:46Z</time>
      </trkpt>
      <trkpt lat="50.67204" lon="1.75439">
        <ele>43.4</ele>
        <time>2016-05-06T11:42:47Z</time>
      </trkpt>
      <trkpt lat="50.67195" lon="1.7544">
        <ele>43.2</ele>
        <time>2016-05-06T11:42:48Z</time>
      </trkpt>
      <trkpt lat="50.67185" lon="1.75441">
        <ele>43</ele>
        <time>2016-05-06T11:42:49Z</time>
      </trkpt>
      <trkpt lat="50.67176" lon="1.75441">
        <ele>42.7</ele>
        <time>2016-05-06T11:42:50Z</time>
      </trkpt>
      <trkpt lat="50.67166" lon="1.75441">
        <ele>42.4</ele>
        <time>2016-05-06T11:42:51Z</time>
      </trkpt>
      <trkpt lat="50.67156" lon="1.75441">
        <ele>42</ele>
        <time>2016-05-06T11:42:52Z</time>
      </trkpt>
      <trkpt lat="50.67146" lon="1.75439">
        <ele>41.7</ele>
        <time>2016-05-06T11:42:53Z</time>
      </trkpt>
      <trkpt lat="50.67136" lon="1.75436">
        <ele>41.4</ele>
        <time>2016-05-06T11:42:54Z</time>
      </trkpt>
      <trkpt lat="50.67126" lon="1.7543">
        <ele>40.9</ele>
        <time>2016-05-06T11:42:55Z</time>
      </trkpt>
      <trkpt lat="50.67116" lon="1.75421">
        <ele>40.5</ele>
        <time>2016-05-06T11:42:56Z</time>
      </trkpt>
      <trkpt lat="50.67107" lon="1.75412">
        <ele>40.1</ele>
        <time>2016-05-06T11:42:57Z</time>
      </trkpt>
      <trkpt lat="50.67098" lon="1.75403">
        <ele>39.6</ele>
        <time>2016-05-06T11:42:58Z</time>
      </trkpt>
      <trkpt lat="50.67088" lon="1.75394">
        <ele>39.2</ele>
        <time>2016-05-06T11:42:59Z</time>
      </trkpt>
      <trkpt lat="50.67078" lon="1.75387">
        <ele>38.7</ele>
        <time>2016-05-06T11:43:00Z</time>
      </trkpt>
      <trkpt lat="50.67067" lon="1.75382">
        <ele>38.2</ele>
        <time>2016-05-06T11:43:01Z</time>
      </trkpt>
      <trkpt lat="50.67056" lon="1.75377">
        <ele>37.6</ele>
        <time>2016-05-06T11:43:02Z</time>
      </trkpt>
      <trkpt lat="50.67045" lon="1.75373">
        <ele>37</ele>
        <time>2016-05-06T11:43:03Z</time>
      </trkpt>
      <trkpt lat="50.67033" lon="1.75369">
        <ele>36.4</ele>
        <time>2016-05-06T11:43:04Z</time>
      </trkpt>
      <trkpt lat="50.67022" lon="1.75365">
        <ele>35.9</ele>
        <time>2016-05-06T11:43:05Z</time>
      </trkpt>
      <trkpt lat="50.67012" lon="1.7536">
        <ele>35.3</ele>
        <time>2016-05-06T11:43:06Z</time>
      </trkpt>
      <trkpt lat="50.67002" lon="1.75355">
        <ele>34.8</ele>
        <time>2016-05-06T11:43:07Z</time>
      </trkpt>
      <trkpt lat="50.66993" lon="1.75349">
        <ele>34.3</ele>
        <time>2016-05-06T11:43:08Z</time>
      </trkpt>
      <trkpt lat="50.66984" lon="1.75342">
        <ele>33.9</ele>
        <time>2016-05-06T11:43:09Z</time>
      </trkpt>
      <trkpt lat="50.66976" lon="1.75335">
        <ele>33.5</ele>
        <time>2016-05-06T11:43:10Z</time>
      </trkpt>
      <trkpt lat="50.66961" lon="1.75322">
        <ele>32.7</ele>
        <time>2016-05-06T11:43:12Z</time>
      </trkpt>
      <trkpt lat="50.66949" lon="1.7531">
        <ele>32</ele>
        <time>2016-05-06T11:43:14Z</time>
      </trkpt>
      <trkpt lat="50.66938" lon="1.75299">
        <ele>31.5</ele>
        <time>2016-05-06T11:43:16Z</time>
      </trkpt>
      <trkpt lat="50.66927" lon="1.7529">
        <ele>31.2</ele>
        <time>2016-05-06T11:43:18Z</time>
      </trkpt>
      <trkpt lat="50.66916" lon="1.75281">
        <ele>30.9</ele>
        <time>2016-05-06T11:43:20Z</time>
      </trkpt>
      <trkpt lat="50.66906" lon="1.75273">
        <ele>30.7</ele>
        <time>2016-05-06T11:43:22Z</time>
      </trkpt>
      <trkpt lat="50.66897" lon="1.75264">
        <ele>30.7</ele>
        <time>2016-05-06T11:43:24Z</time>
      </trkpt>
      <trkpt lat="50.66887" lon="1.75256">
        <ele>30.7</ele>
        <time>2016-05-06T11:43:26Z</time>
      </trkpt>
      <trkpt lat="50.66878" lon="1.75249">
        <ele>30.8</ele>
        <time>2016-05-06T11:43:28Z</time>
      </trkpt>
      <trkpt lat="50.66869" lon="1.75241">
        <ele>31</ele>
        <time>2016-05-06T11:43:30Z</time>
      </trkpt>
      <trkpt lat="50.6686" lon="1.75234">
        <ele>31.3</ele>
        <time>2016-05-06T11:43:32Z</time>
      </trkpt>
      <trkpt lat="50.66851" lon="1.75225">
        <ele>31.6</ele>
        <time>2016-05-06T11:43:34Z</time>
      </trkpt>
      <trkpt lat="50.66842" lon="1.75214">
        <ele>31.8</ele>
        <time>2016-05-06T11:43:36Z</time>
      </trkpt>
      <trkpt lat="50.66833" lon="1.75204">
        <ele>32.1</ele>
        <time>2016-05-06T11:43:38Z</time>
      </trkpt>
      <trkpt lat="50.66824" lon="1.75193">
        <ele>32.4</ele>
        <time>2016-05-06T11:43:40Z</time>
      </trkpt>
      <trkpt lat="50.66815" lon="1.75182">
        <ele>32.8</ele>
        <time>2016-05-06T11:43:42Z</time>
      </trkpt>
      <trkpt lat="50.66806" lon="1.75171">
        <ele>33.1</ele>
        <time>2016-05-06T11:43:44Z</time>
      </trkpt>
      <trkpt lat="50.66797" lon="1.75159">
        <ele>33.4</ele>
        <time>2016-05-06T11:43:46Z</time>
      </trkpt>
      <trkpt lat="50.66787" lon="1.75149">
        <ele>33.7</ele>
        <time>2016-05-06T11:43:48Z</time>
      </trkpt>
      <trkpt lat="50.66779" lon="1.75137">
        <ele>34</ele>
        <time>2016-05-06T11:43:50Z</time>
      </trkpt>
      <trkpt lat="50.6677" lon="1.75126">
        <ele>34.2</ele>
        <time>2016-05-06T11:43:52Z</time>
      </trkpt>
      <trkpt lat="50.66761" lon="1.75116">
        <ele>34.4</ele>
        <time>2016-05-06T11:43:54Z</time>
      </trkpt>
      <trkpt lat="50.66752" lon="1.75106">
        <ele>34.6</ele>
        <time>2016-05-06T11:43:56Z</time>
      </trkpt>
      <trkpt lat="50.66743" lon="1.75096">
        <ele>34.7</ele>
        <time>2016-05-06T11:43:58Z</time>
      </trkpt>
      <trkpt lat="50.66734" lon="1.75085">
        <ele>34.9</ele>
        <time>2016-05-06T11:44:00Z</time>
      </trkpt>
      <trkpt lat="50.66726" lon="1.75073">
        <ele>35</ele>
        <time>2016-05-06T11:44:02Z</time>
      </trkpt>
      <trkpt lat="50.66716" lon="1.75062">
        <ele>35.1</ele>
        <time>2016-05-06T11:44:04Z</time>
      </trkpt>
      <trkpt lat="50.66707" lon="1.7505">
        <ele>35.2</ele>
        <time>2016-05-06T11:44:06Z</time>
      </trkpt>
      <trkpt lat="50.66699" lon="1.75038">
        <ele>35.4</ele>
        <time>2016-05-06T11:44:08Z</time>
      </trkpt>
      <trkpt lat="50.6669" lon="1.75025">
        <ele>35.5</ele>
        <time>2016-05-06T11:44:10Z</time>
      </trkpt>
      <trkpt lat="50.66681" lon="1.75012">
        <ele>35.6</ele>
        <time>2016-05-06T11:44:12Z</time>
      </trkpt>
      <trkpt lat="50.66672" lon="1.74997">
        <ele>35.8</ele>
        <time>2016-05-06T11:44:14Z</time>
      </trkpt>
      <trkpt lat="50.66663" lon="1.74982">
        <ele>35.9</ele>
        <time>2016-05-06T11:44:16Z</time>
      </trkpt>
      <trkpt lat="50.66653" lon="1.74967">
        <ele>36</ele>
        <time>2016-05-06T11:44:18Z</time>
      </trkpt>
      <trkpt lat="50.66643" lon="1.74953">
        <ele>35.7</ele>
        <time>2016-05-06T11:44:20Z</time>
      </trkpt>
      <trkpt lat="50.66634" lon="1.74938">
        <ele>35.9</ele>
        <time>2016-05-06T11:44:22Z</time>
      </trkpt>
      <trkpt lat="50.66625" lon="1.74924">
        <ele>36.1</ele>
        <time>2016-05-06T11:44:24Z</time>
      </trkpt>
      <trkpt lat="50.66615" lon="1.7491">
        <ele>36.3</ele>
        <time>2016-05-06T11:44:26Z</time>
      </trkpt>
      <trkpt lat="50.66604" lon="1.74896">
        <ele>36.4</ele>
        <time>2016-05-06T11:44:28Z</time>
      </trkpt>
      <trkpt lat="50.66593" lon="1.74884">
        <ele>36.5</ele>
        <time>2016-05-06T11:44:30Z</time>
      </trkpt>
      <trkpt lat="50.66582" lon="1.74877">
        <ele>36.6</ele>
        <time>2016-05-06T11:44:32Z</time>
      </trkpt>
      <trkpt lat="50.6657" lon="1.74876">
        <ele>36.8</ele>
        <time>2016-05-06T11:44:34Z</time>
      </trkpt>
      <trkpt lat="50.66558" lon="1.74877">
        <ele>36.9</ele>
        <time>2016-05-06T11:44:36Z</time>
      </trkpt>
      <trkpt lat="50.66546" lon="1.74883">
        <ele>37</ele>
        <time>2016-05-06T11:44:38Z</time>
      </trkpt>
      <trkpt lat="50.66534" lon="1.74892">
        <ele>37</ele>
        <time>2016-05-06T11:44:40Z</time>
      </trkpt>
      <trkpt lat="50.66522" lon="1.74904">
        <ele>37.1</ele>
        <time>2016-05-06T11:44:42Z</time>
      </trkpt>
      <trkpt lat="50.66508" lon="1.7492">
        <ele>36.9</ele>
        <time>2016-05-06T11:44:44Z</time>
      </trkpt>
      <trkpt lat="50.66495" lon="1.74935">
        <ele>36.6</ele>
        <time>2016-05-06T11:44:46Z</time>
      </trkpt>
      <trkpt lat="50.6648" lon="1.74953">
        <ele>36.1</ele>
        <time>2016-05-06T11:44:48Z</time>
      </trkpt>
      <trkpt lat="50.66472" lon="1.74963">
        <ele>35.8</ele>
        <time>2016-05-06T11:44:49Z</time>
      </trkpt>
      <trkpt lat="50.66465" lon="1.74974">
        <ele>35.5</ele>
        <time>2016-05-06T11:44:50Z</time>
      </trkpt>
      <trkpt lat="50.66457" lon="1.74985">
        <ele>35.1</ele>
        <time>2016-05-06T11:44:51Z</time>
      </trkpt>
      <trkpt lat="50.66449" lon="1.74996">
        <ele>34.8</ele>
        <time>2016-05-06T11:44:52Z</time>
      </trkpt>
      <trkpt lat="50.66441" lon="1.75007">
        <ele>34.3</ele>
        <time>2016-05-06T11:44:53Z</time>
      </trkpt>
      <trkpt lat="50.66432" lon="1.75018">
        <ele>33.9</ele>
        <time>2016-05-06T11:44:54Z</time>
      </trkpt>
      <trkpt lat="50.66423" lon="1.75027">
        <ele>33.5</ele>
        <time>2016-05-06T11:44:55Z</time>
      </trkpt>
      <trkpt lat="50.66413" lon="1.75036">
        <ele>32.9</ele>
        <time>2016-05-06T11:44:56Z</time>
      </trkpt>
      <trkpt lat="50.66402" lon="1.75045">
        <ele>32.4</ele>
        <time>2016-05-06T11:44:57Z</time>
      </trkpt>
      <trkpt lat="50.66393" lon="1.75054">
        <ele>31.9</ele>
        <time>2016-05-06T11:44:58Z</time>
      </trkpt>
      <trkpt lat="50.66384" lon="1.75065">
        <ele>31.3</ele>
        <time>2016-05-06T11:44:59Z</time>
      </trkpt>
      <trkpt lat="50.66375" lon="1.75075">
        <ele>30.8</ele>
        <time>2016-05-06T11:45:00Z</time>
      </trkpt>
      <trkpt lat="50.66368" lon="1.75085">
        <ele>30.3</ele>
        <time>2016-05-06T11:45:01Z</time>
      </trkpt>
      <trkpt lat="50.66361" lon="1.75095">
        <ele>29.8</ele>
        <time>2016-05-06T11:45:02Z</time>
      </trkpt>
      <trkpt lat="50.66348" lon="1.75114">
        <ele>29</ele>
        <time>2016-05-06T11:45:04Z</time>
      </trkpt>
      <trkpt lat="50.66333" lon="1.75125">
        <ele>28.2</ele>
        <time>2016-05-06T11:45:06Z</time>
      </trkpt>
      <trkpt lat="50.66317" lon="1.75124">
        <ele>27.4</ele>
        <time>2016-05-06T11:45:08Z</time>
      </trkpt>
      <trkpt lat="50.66301" lon="1.75115">
        <ele>26.7</ele>
        <time>2016-05-06T11:45:10Z</time>
      </trkpt>
      <trkpt lat="50.66286" lon="1.75106">
        <ele>26.1</ele>
        <time>2016-05-06T11:45:12Z</time>
      </trkpt>
      <trkpt lat="50.66272" lon="1.75097">
        <ele>25.5</ele>
        <time>2016-05-06T11:45:14Z</time>
      </trkpt>
      <trkpt lat="50.66257" lon="1.75088">
        <ele>25</ele>
        <time>2016-05-06T11:45:16Z</time>
      </trkpt>
      <trkpt lat="50.66242" lon="1.7508">
        <ele>24.6</ele>
        <time>2016-05-06T11:45:18Z</time>
      </trkpt>
      <trkpt lat="50.66226" lon="1.75073">
        <ele>24.2</ele>
        <time>2016-05-06T11:45:20Z</time>
      </trkpt>
      <trkpt lat="50.66209" lon="1.75071">
        <ele>23.8</ele>
        <time>2016-05-06T11:45:22Z</time>
      </trkpt>
      <trkpt lat="50.66193" lon="1.75078">
        <ele>23.5</ele>
        <time>2016-05-06T11:45:24Z</time>
      </trkpt>
      <trkpt lat="50.66179" lon="1.7509">
        <ele>23.3</ele>
        <time>2016-05-06T11:45:26Z</time>
      </trkpt>
      <trkpt lat="50.66166" lon="1.75104">
        <ele>23</ele>
        <time>2016-05-06T11:45:28Z</time>
      </trkpt>
      <trkpt lat="50.66153" lon="1.75117">
        <ele>22.8</ele>
        <time>2016-05-06T11:45:30Z</time>
      </trkpt>
      <trkpt lat="50.66142" lon="1.7513">
        <ele>22.6</ele>
        <time>2016-05-06T11:45:32Z</time>
      </trkpt>
      <trkpt lat="50.66131" lon="1.75143">
        <ele>22.5</ele>
        <time>2016-05-06T11:45:34Z</time>
      </trkpt>
      <trkpt lat="50.6612" lon="1.75154">
        <ele>22.5</ele>
        <time>2016-05-06T11:45:36Z</time>
      </trkpt>
      <trkpt lat="50.66108" lon="1.75162">
        <ele>22.6</ele>
        <time>2016-05-06T11:45:38Z</time>
      </trkpt>
      <trkpt lat="50.66097" lon="1.75168">
        <ele>22.7</ele>
        <time>2016-05-06T11:45:40Z</time>
      </trkpt>
      <trkpt lat="50.66085" lon="1.75174">
        <ele>22.9</ele>
        <time>2016-05-06T11:45:42Z</time>
      </trkpt>
      <trkpt lat="50.66075" lon="1.75178">
        <ele>23.2</ele>
        <time>2016-05-06T11:45:44Z</time>
      </trkpt>
      <trkpt lat="50.66065" lon="1.75183">
        <ele>23.5</ele>
        <time>2016-05-06T11:45:46Z</time>
      </trkpt>
      <trkpt lat="50.66055" lon="1.75187">
        <ele>23.9</ele>
        <time>2016-05-06T11:45:48Z</time>
      </trkpt>
      <trkpt lat="50.66046" lon="1.75193">
        <ele>24.4</ele>
        <time>2016-05-06T11:45:50Z</time>
      </trkpt>
      <trkpt lat="50.66037" lon="1.75199">
        <ele>24.9</ele>
        <time>2016-05-06T11:45:52Z</time>
      </trkpt>
      <trkpt lat="50.66028" lon="1.75205">
        <ele>25.3</ele>
        <time>2016-05-06T11:45:54Z</time>
      </trkpt>
      <trkpt lat="50.66019" lon="1.75212">
        <ele>25.8</ele>
        <time>2016-05-06T11:45:56Z</time>
      </trkpt>
      <trkpt lat="50.6601" lon="1.75217">
        <ele>26.2</ele>
        <time>2016-05-06T11:45:58Z</time>
      </trkpt>
      <trkpt lat="50.66001" lon="1.75221">
        <ele>26.6</ele>
        <time>2016-05-06T11:46:00Z</time>
      </trkpt>
      <trkpt lat="50.65989" lon="1.75226">
        <ele>27.3</ele>
        <time>2016-05-06T11:46:03Z</time>
      </trkpt>
      <trkpt lat="50.65976" lon="1.75228">
        <ele>28</ele>
        <time>2016-05-06T11:46:06Z</time>
      </trkpt>
      <trkpt lat="50.65963" lon="1.75228">
        <ele>28.8</ele>
        <time>2016-05-06T11:46:09Z</time>
      </trkpt>
      <trkpt lat="50.65954" lon="1.75227">
        <ele>29.3</ele>
        <time>2016-05-06T11:46:11Z</time>
      </trkpt>
      <trkpt lat="50.65944" lon="1.75226">
        <ele>29.8</ele>
        <time>2016-05-06T11:46:13Z</time>
      </trkpt>
      <trkpt lat="50.65931" lon="1.75225">
        <ele>30.6</ele>
        <time>2016-05-06T11:46:16Z</time>
      </trkpt>
      <trkpt lat="50.65919" lon="1.75224">
        <ele>31.2</ele>
        <time>2016-05-06T11:46:19Z</time>
      </trkpt>
      <trkpt lat="50.65907" lon="1.75223">
        <ele>31.8</ele>
        <time>2016-05-06T11:46:22Z</time>
      </trkpt>
      <trkpt lat="50.65894" lon="1.75223">
        <ele>32.5</ele>
        <time>2016-05-06T11:46:25Z</time>
      </trkpt>
      <trkpt lat="50.65882" lon="1.75223">
        <ele>33.1</ele>
        <time>2016-05-06T11:46:28Z</time>
      </trkpt>
      <trkpt lat="50.65869" lon="1.75223">
        <ele>33.7</ele>
        <time>2016-05-06T11:46:31Z</time>
      </trkpt>
      <trkpt lat="50.6586" lon="1.75223">
        <ele>34.1</ele>
        <time>2016-05-06T11:46:33Z</time>
      </trkpt>
      <trkpt lat="50.65851" lon="1.75224">
        <ele>34.6</ele>
        <time>2016-05-06T11:46:35Z</time>
      </trkpt>
      <trkpt lat="50.65842" lon="1.75225">
        <ele>34.9</ele>
        <time>2016-05-06T11:46:37Z</time>
      </trkpt>
      <trkpt lat="50.65833" lon="1.75225">
        <ele>35.3</ele>
        <time>2016-05-06T11:46:39Z</time>
      </trkpt>
      <trkpt lat="50.65824" lon="1.75226">
        <ele>35.7</ele>
        <time>2016-05-06T11:46:41Z</time>
      </trkpt>
      <trkpt lat="50.65815" lon="1.75227">
        <ele>36.1</ele>
        <time>2016-05-06T11:46:43Z</time>
      </trkpt>
      <trkpt lat="50.65806" lon="1.75227">
        <ele>36.5</ele>
        <time>2016-05-06T11:46:45Z</time>
      </trkpt>
      <trkpt lat="50.65797" lon="1.75227">
        <ele>36.9</ele>
        <time>2016-05-06T11:46:47Z</time>
      </trkpt>
      <trkpt lat="50.65788" lon="1.75225">
        <ele>37.3</ele>
        <time>2016-05-06T11:46:49Z</time>
      </trkpt>
      <trkpt lat="50.65778" lon="1.75222">
        <ele>37.7</ele>
        <time>2016-05-06T11:46:51Z</time>
      </trkpt>
      <trkpt lat="50.65769" lon="1.75218">
        <ele>38.1</ele>
        <time>2016-05-06T11:46:53Z</time>
      </trkpt>
      <trkpt lat="50.65759" lon="1.75214">
        <ele>38.5</ele>
        <time>2016-05-06T11:46:55Z</time>
      </trkpt>
      <trkpt lat="50.65749" lon="1.75209">
        <ele>38.8</ele>
        <time>2016-05-06T11:46:57Z</time>
      </trkpt>
      <trkpt lat="50.65739" lon="1.75205">
        <ele>39.1</ele>
        <time>2016-05-06T11:46:59Z</time>
      </trkpt>
      <trkpt lat="50.65729" lon="1.75201">
        <ele>39.4</ele>
        <time>2016-05-06T11:47:01Z</time>
      </trkpt>
      <trkpt lat="50.65718" lon="1.75196">
        <ele>39.7</ele>
        <time>2016-05-06T11:47:03Z</time>
      </trkpt>
      <trkpt lat="50.65707" lon="1.75192">
        <ele>40</ele>
        <time>2016-05-06T11:47:05Z</time>
      </trkpt>
      <trkpt lat="50.65697" lon="1.75187">
        <ele>40.3</ele>
        <time>2016-05-06T11:47:07Z</time>
      </trkpt>
      <trkpt lat="50.65686" lon="1.75183">
        <ele>40.6</ele>
        <time>2016-05-06T11:47:09Z</time>
      </trkpt>
      <trkpt lat="50.65674" lon="1.7518">
        <ele>40.8</ele>
        <time>2016-05-06T11:47:11Z</time>
      </trkpt>
      <trkpt lat="50.65662" lon="1.75179">
        <ele>41</ele>
        <time>2016-05-06T11:47:13Z</time>
      </trkpt>
      <trkpt lat="50.65651" lon="1.75176">
        <ele>41.2</ele>
        <time>2016-05-06T11:47:15Z</time>
      </trkpt>
      <trkpt lat="50.65638" lon="1.75175">
        <ele>41.5</ele>
        <time>2016-05-06T11:47:17Z</time>
      </trkpt>
      <trkpt lat="50.65626" lon="1.75173">
        <ele>41.7</ele>
        <time>2016-05-06T11:47:19Z</time>
      </trkpt>
      <trkpt lat="50.65615" lon="1.75173">
        <ele>41.9</ele>
        <time>2016-05-06T11:47:21Z</time>
      </trkpt>
      <trkpt lat="50.65603" lon="1.75174">
        <ele>42.1</ele>
        <time>2016-05-06T11:47:23Z</time>
      </trkpt>
      <trkpt lat="50.65591" lon="1.75176">
        <ele>42.3</ele>
        <time>2016-05-06T11:47:25Z</time>
      </trkpt>
      <trkpt lat="50.65579" lon="1.75178">
        <ele>42.5</ele>
        <time>2016-05-06T11:47:27Z</time>
      </trkpt>
      <trkpt lat="50.65567" lon="1.7518">
        <ele>42.8</ele>
        <time>2016-05-06T11:47:29Z</time>
      </trkpt>
      <trkpt lat="50.65556" lon="1.75183">
        <ele>43</ele>
        <time>2016-05-06T11:47:31Z</time>
      </trkpt>
      <trkpt lat="50.65544" lon="1.75186">
        <ele>43.3</ele>
        <time>2016-05-06T11:47:33Z</time>
      </trkpt>
      <trkpt lat="50.65532" lon="1.75189">
        <ele>43.5</ele>
        <time>2016-05-06T11:47:35Z</time>
      </trkpt>
      <trkpt lat="50.65521" lon="1.75192">
        <ele>43.7</ele>
        <time>2016-05-06T11:47:37Z</time>
      </trkpt>
      <trkpt lat="50.6551" lon="1.75195">
        <ele>43.9</ele>
        <time>2016-05-06T11:47:39Z</time>
      </trkpt>
      <trkpt lat="50.65499" lon="1.75198">
        <ele>44.1</ele>
        <time>2016-05-06T11:47:41Z</time>
      </trkpt>
      <trkpt lat="50.65489" lon="1.75201">
        <ele>44.4</ele>
        <time>2016-05-06T11:47:43Z</time>
      </trkpt>
      <trkpt lat="50.65478" lon="1.75204">
        <ele>44.6</ele>
        <time>2016-05-06T11:47:45Z</time>
      </trkpt>
      <trkpt lat="50.65467" lon="1.75206">
        <ele>44.8</ele>
        <time>2016-05-06T11:47:47Z</time>
      </trkpt>
      <trkpt lat="50.65456" lon="1.75209">
        <ele>45</ele>
        <time>2016-05-06T11:47:49Z</time>
      </trkpt>
      <trkpt lat="50.65445" lon="1.75212">
        <ele>45.2</ele>
        <time>2016-05-06T11:47:51Z</time>
      </trkpt>
      <trkpt lat="50.65434" lon="1.75215">
        <ele>45.5</ele>
        <time>2016-05-06T11:47:53Z</time>
      </trkpt>
      <trkpt lat="50.65423" lon="1.75218">
        <ele>45.7</ele>
        <time>2016-05-06T11:47:55Z</time>
      </trkpt>
      <trkpt lat="50.65411" lon="1.7522">
        <ele>45.9</ele>
        <time>2016-05-06T11:47:57Z</time>
      </trkpt>
      <trkpt lat="50.65401" lon="1.75223">
        <ele>46</ele>
        <time>2016-05-06T11:47:59Z</time>
      </trkpt>
      <trkpt lat="50.6539" lon="1.75225">
        <ele>46.3</ele>
        <time>2016-05-06T11:48:01Z</time>
      </trkpt>
      <trkpt lat="50.65379" lon="1.75226">
        <ele>46.5</ele>
        <time>2016-05-06T11:48:03Z</time>
      </trkpt>
      <trkpt lat="50.65368" lon="1.75228">
        <ele>46.8</ele>
        <time>2016-05-06T11:48:05Z</time>
      </trkpt>
      <trkpt lat="50.65356" lon="1.75228">
        <ele>47</ele>
        <time>2016-05-06T11:48:07Z</time>
      </trkpt>
      <trkpt lat="50.65344" lon="1.75229">
        <ele>47.2</ele>
        <time>2016-05-06T11:48:09Z</time>
      </trkpt>
      <trkpt lat="50.65332" lon="1.75229">
        <ele>47.3</ele>
        <time>2016-05-06T11:48:11Z</time>
      </trkpt>
      <trkpt lat="50.65319" lon="1.75229">
        <ele>47.5</ele>
        <time>2016-05-06T11:48:13Z</time>
      </trkpt>
      <trkpt lat="50.65305" lon="1.7523">
        <ele>47.5</ele>
        <time>2016-05-06T11:48:15Z</time>
      </trkpt>
      <trkpt lat="50.65289" lon="1.75231">
        <ele>47.5</ele>
        <time>2016-05-06T11:48:17Z</time>
      </trkpt>
      <trkpt lat="50.65272" lon="1.75232">
        <ele>47.1</ele>
        <time>2016-05-06T11:48:19Z</time>
      </trkpt>
      <trkpt lat="50.65255" lon="1.75233">
        <ele>46.7</ele>
        <time>2016-05-06T11:48:21Z</time>
      </trkpt>
      <trkpt lat="50.65246" lon="1.75233">
        <ele>46.5</ele>
        <time>2016-05-06T11:48:22Z</time>
      </trkpt>
      <trkpt lat="50.65237" lon="1.75233">
        <ele>46.3</ele>
        <time>2016-05-06T11:48:23Z</time>
      </trkpt>
      <trkpt lat="50.65227" lon="1.75233">
        <ele>46.2</ele>
        <time>2016-05-06T11:48:24Z</time>
      </trkpt>
      <trkpt lat="50.65218" lon="1.75233">
        <ele>46</ele>
        <time>2016-05-06T11:48:25Z</time>
      </trkpt>
      <trkpt lat="50.65209" lon="1.75231">
        <ele>45.7</ele>
        <time>2016-05-06T11:48:26Z</time>
      </trkpt>
      <trkpt lat="50.652" lon="1.7523">
        <ele>45.4</ele>
        <time>2016-05-06T11:48:27Z</time>
      </trkpt>
      <trkpt lat="50.6519" lon="1.75227">
        <ele>45.1</ele>
        <time>2016-05-06T11:48:28Z</time>
      </trkpt>
      <trkpt lat="50.6518" lon="1.75224">
        <ele>44.8</ele>
        <time>2016-05-06T11:48:29Z</time>
      </trkpt>
      <trkpt lat="50.6517" lon="1.7522">
        <ele>44.3</ele>
        <time>2016-05-06T11:48:30Z</time>
      </trkpt>
      <trkpt lat="50.6516" lon="1.75216">
        <ele>43.8</ele>
        <time>2016-05-06T11:48:31Z</time>
      </trkpt>
      <trkpt lat="50.6515" lon="1.75213">
        <ele>43.3</ele>
        <time>2016-05-06T11:48:32Z</time>
      </trkpt>
      <trkpt lat="50.65139" lon="1.75209">
        <ele>42.7</ele>
        <time>2016-05-06T11:48:33Z</time>
      </trkpt>
      <trkpt lat="50.65128" lon="1.75205">
        <ele>42.1</ele>
        <time>2016-05-06T11:48:34Z</time>
      </trkpt>
      <trkpt lat="50.65117" lon="1.752">
        <ele>41.5</ele>
        <time>2016-05-06T11:48:35Z</time>
      </trkpt>
      <trkpt lat="50.65106" lon="1.75196">
        <ele>41</ele>
        <time>2016-05-06T11:48:36Z</time>
      </trkpt>
      <trkpt lat="50.65095" lon="1.75191">
        <ele>40.5</ele>
        <time>2016-05-06T11:48:37Z</time>
      </trkpt>
      <trkpt lat="50.65084" lon="1.75187">
        <ele>40</ele>
        <time>2016-05-06T11:48:38Z</time>
      </trkpt>
      <trkpt lat="50.65073" lon="1.75185">
        <ele>39.5</ele>
        <time>2016-05-06T11:48:39Z</time>
      </trkpt>
      <trkpt lat="50.65063" lon="1.75183">
        <ele>39.1</ele>
        <time>2016-05-06T11:48:40Z</time>
      </trkpt>
      <trkpt lat="50.65053" lon="1.75182">
        <ele>38.7</ele>
        <time>2016-05-06T11:48:41Z</time>
      </trkpt>
      <trkpt lat="50.65044" lon="1.75182">
        <ele>38.3</ele>
        <time>2016-05-06T11:48:42Z</time>
      </trkpt>
      <trkpt lat="50.65028" lon="1.75184">
        <ele>37.6</ele>
        <time>2016-05-06T11:48:44Z</time>
      </trkpt>
      <trkpt lat="50.65014" lon="1.75186">
        <ele>37.1</ele>
        <time>2016-05-06T11:48:46Z</time>
      </trkpt>
      <trkpt lat="50.65002" lon="1.7519">
        <ele>36.9</ele>
        <time>2016-05-06T11:48:48Z</time>
      </trkpt>
      <trkpt lat="50.6499" lon="1.75193">
        <ele>36.7</ele>
        <time>2016-05-06T11:48:50Z</time>
      </trkpt>
      <trkpt lat="50.6498" lon="1.75195">
        <ele>36.7</ele>
        <time>2016-05-06T11:48:52Z</time>
      </trkpt>
      <trkpt lat="50.6497" lon="1.75197">
        <ele>36.7</ele>
        <time>2016-05-06T11:48:54Z</time>
      </trkpt>
      <trkpt lat="50.64957" lon="1.75199">
        <ele>36.9</ele>
        <time>2016-05-06T11:48:57Z</time>
      </trkpt>
      <trkpt lat="50.64945" lon="1.75202">
        <ele>37.3</ele>
        <time>2016-05-06T11:49:00Z</time>
      </trkpt>
      <trkpt lat="50.64933" lon="1.75204">
        <ele>37.7</ele>
        <time>2016-05-06T11:49:03Z</time>
      </trkpt>
      <trkpt lat="50.6492" lon="1.75204">
        <ele>38.3</ele>
        <time>2016-05-06T11:49:06Z</time>
      </trkpt>
      <trkpt lat="50.64908" lon="1.75204">
        <ele>39</ele>
        <time>2016-05-06T11:49:09Z</time>
      </trkpt>
      <trkpt lat="50.64896" lon="1.75204">
        <ele>39.6</ele>
        <time>2016-05-06T11:49:12Z</time>
      </trkpt>
      <trkpt lat="50.64885" lon="1.75204">
        <ele>40.3</ele>
        <time>2016-05-06T11:49:15Z</time>
      </trkpt>
      <trkpt lat="50.64874" lon="1.75203">
        <ele>41</ele>
        <time>2016-05-06T11:49:18Z</time>
      </trkpt>
      <trkpt lat="50.64862" lon="1.75202">
        <ele>41.8</ele>
        <time>2016-05-06T11:49:21Z</time>
      </trkpt>
      <trkpt lat="50.6485" lon="1.75201">
        <ele>42.5</ele>
        <time>2016-05-06T11:49:24Z</time>
      </trkpt>
      <trkpt lat="50.64837" lon="1.752">
        <ele>43.3</ele>
        <time>2016-05-06T11:49:27Z</time>
      </trkpt>
      <trkpt lat="50.64824" lon="1.75199">
        <ele>44</ele>
        <time>2016-05-06T11:49:30Z</time>
      </trkpt>
      <trkpt lat="50.64811" lon="1.75197">
        <ele>44.7</ele>
        <time>2016-05-06T11:49:33Z</time>
      </trkpt>
      <trkpt lat="50.64798" lon="1.75196">
        <ele>45.4</ele>
        <time>2016-05-06T11:49:36Z</time>
      </trkpt>
      <trkpt lat="50.64785" lon="1.75194">
        <ele>46.1</ele>
        <time>2016-05-06T11:49:39Z</time>
      </trkpt>
      <trkpt lat="50.64772" lon="1.75192">
        <ele>46.7</ele>
        <time>2016-05-06T11:49:42Z</time>
      </trkpt>
      <trkpt lat="50.64759" lon="1.7519">
        <ele>47.4</ele>
        <time>2016-05-06T11:49:45Z</time>
      </trkpt>
      <trkpt lat="50.6475" lon="1.75189">
        <ele>47.8</ele>
        <time>2016-05-06T11:49:47Z</time>
      </trkpt>
      <trkpt lat="50.64741" lon="1.75188">
        <ele>48.3</ele>
        <time>2016-05-06T11:49:49Z</time>
      </trkpt>
      <trkpt lat="50.64732" lon="1.75187">
        <ele>48.7</ele>
        <time>2016-05-06T11:49:51Z</time>
      </trkpt>
      <trkpt lat="50.64723" lon="1.75185">
        <ele>49.1</ele>
        <time>2016-05-06T11:49:53Z</time>
      </trkpt>
      <trkpt lat="50.64714" lon="1.75184">
        <ele>49.6</ele>
        <time>2016-05-06T11:49:55Z</time>
      </trkpt>
      <trkpt lat="50.64705" lon="1.75182">
        <ele>50</ele>
        <time>2016-05-06T11:49:57Z</time>
      </trkpt>
      <trkpt lat="50.64696" lon="1.75181">
        <ele>50.4</ele>
        <time>2016-05-06T11:49:59Z</time>
      </trkpt>
      <trkpt lat="50.64687" lon="1.75179">
        <ele>50.7</ele>
        <time>2016-05-06T11:50:01Z</time>
      </trkpt>
      <trkpt lat="50.64674" lon="1.75177">
        <ele>51.2</ele>
        <time>2016-05-06T11:50:04Z</time>
      </trkpt>
      <trkpt lat="50.6466" lon="1.75175">
        <ele>51.8</ele>
        <time>2016-05-06T11:50:07Z</time>
      </trkpt>
      <trkpt lat="50.64651" lon="1.75174">
        <ele>52.2</ele>
        <time>2016-05-06T11:50:09Z</time>
      </trkpt>
      <trkpt lat="50.64638" lon="1.75172">
        <ele>52.7</ele>
        <time>2016-05-06T11:50:12Z</time>
      </trkpt>
      <trkpt lat="50.64625" lon="1.7517">
        <ele>53.3</ele>
        <time>2016-05-06T11:50:15Z</time>
      </trkpt>
      <trkpt lat="50.64612" lon="1.75168">
        <ele>53.9</ele>
        <time>2016-05-06T11:50:18Z</time>
      </trkpt>
      <trkpt lat="50.64599" lon="1.75165">
        <ele>54.5</ele>
        <time>2016-05-06T11:50:21Z</time>
      </trkpt>
      <trkpt lat="50.64587" lon="1.75161">
        <ele>55.3</ele>
        <time>2016-05-06T11:50:24Z</time>
      </trkpt>
      <trkpt lat="50.64573" lon="1.75158">
        <ele>56</ele>
        <time>2016-05-06T11:50:27Z</time>
      </trkpt>
      <trkpt lat="50.64564" lon="1.75156">
        <ele>56.4</ele>
        <time>2016-05-06T11:50:29Z</time>
      </trkpt>
      <trkpt lat="50.64551" lon="1.75152">
        <ele>57</ele>
        <time>2016-05-06T11:50:32Z</time>
      </trkpt>
      <trkpt lat="50.64538" lon="1.75148">
        <ele>57.6</ele>
        <time>2016-05-06T11:50:35Z</time>
      </trkpt>
      <trkpt lat="50.64525" lon="1.75145">
        <ele>58.1</ele>
        <time>2016-05-06T11:50:38Z</time>
      </trkpt>
      <trkpt lat="50.64512" lon="1.75141">
        <ele>58.8</ele>
        <time>2016-05-06T11:50:41Z</time>
      </trkpt>
      <trkpt lat="50.645" lon="1.75138">
        <ele>59.5</ele>
        <time>2016-05-06T11:50:44Z</time>
      </trkpt>
      <trkpt lat="50.64488" lon="1.75135">
        <ele>60.3</ele>
        <time>2016-05-06T11:50:47Z</time>
      </trkpt>
      <trkpt lat="50.64476" lon="1.75131">
        <ele>60.9</ele>
        <time>2016-05-06T11:50:50Z</time>
      </trkpt>
      <trkpt lat="50.64464" lon="1.75128">
        <ele>61.6</ele>
        <time>2016-05-06T11:50:53Z</time>
      </trkpt>
      <trkpt lat="50.64453" lon="1.75125">
        <ele>62.3</ele>
        <time>2016-05-06T11:50:56Z</time>
      </trkpt>
      <trkpt lat="50.64442" lon="1.75121">
        <ele>62.9</ele>
        <time>2016-05-06T11:50:59Z</time>
      </trkpt>
      <trkpt lat="50.64431" lon="1.75118">
        <ele>63.6</ele>
        <time>2016-05-06T11:51:02Z</time>
      </trkpt>
      <trkpt lat="50.64419" lon="1.75113">
        <ele>64.3</ele>
        <time>2016-05-06T11:51:05Z</time>
      </trkpt>
      <trkpt lat="50.64408" lon="1.7511">
        <ele>65</ele>
        <time>2016-05-06T11:51:08Z</time>
      </trkpt>
      <trkpt lat="50.64397" lon="1.75106">
        <ele>65.6</ele>
        <time>2016-05-06T11:51:11Z</time>
      </trkpt>
      <trkpt lat="50.64387" lon="1.75101">
        <ele>66.2</ele>
        <time>2016-05-06T11:51:14Z</time>
      </trkpt>
      <trkpt lat="50.64376" lon="1.75095">
        <ele>66.9</ele>
        <time>2016-05-06T11:51:17Z</time>
      </trkpt>
      <trkpt lat="50.64365" lon="1.75089">
        <ele>67.6</ele>
        <time>2016-05-06T11:51:20Z</time>
      </trkpt>
      <trkpt lat="50.64355" lon="1.7508">
        <ele>68.2</ele>
        <time>2016-05-06T11:51:23Z</time>
      </trkpt>
      <trkpt lat="50.64346" lon="1.7507">
        <ele>68.9</ele>
        <time>2016-05-06T11:51:26Z</time>
      </trkpt>
      <trkpt lat="50.64336" lon="1.7506">
        <ele>69.6</ele>
        <time>2016-05-06T11:51:29Z</time>
      </trkpt>
      <trkpt lat="50.64326" lon="1.75051">
        <ele>70.2</ele>
        <time>2016-05-06T11:51:32Z</time>
      </trkpt>
      <trkpt lat="50.64316" lon="1.75041">
        <ele>70.8</ele>
        <time>2016-05-06T11:51:35Z</time>
      </trkpt>
      <trkpt lat="50.64307" lon="1.75031">
        <ele>71.5</ele>
        <time>2016-05-06T11:51:38Z</time>
      </trkpt>
      <trkpt lat="50.64297" lon="1.75021">
        <ele>72.3</ele>
        <time>2016-05-06T11:51:41Z</time>
      </trkpt>
      <trkpt lat="50.64288" lon="1.75011">
        <ele>73</ele>
        <time>2016-05-06T11:51:44Z</time>
      </trkpt>
      <trkpt lat="50.64279" lon="1.75">
        <ele>73.7</ele>
        <time>2016-05-06T11:51:47Z</time>
      </trkpt>
      <trkpt lat="50.64269" lon="1.74989">
        <ele>74.4</ele>
        <time>2016-05-06T11:51:50Z</time>
      </trkpt>
      <trkpt lat="50.6426" lon="1.74977">
        <ele>75</ele>
        <time>2016-05-06T11:51:53Z</time>
      </trkpt>
      <trkpt lat="50.64252" lon="1.74968">
        <ele>75.4</ele>
        <time>2016-05-06T11:51:55Z</time>
      </trkpt>
      <trkpt lat="50.64241" lon="1.74956">
        <ele>76</ele>
        <time>2016-05-06T11:51:58Z</time>
      </trkpt>
      <trkpt lat="50.64233" lon="1.74948">
        <ele>76.4</ele>
        <time>2016-05-06T11:52:00Z</time>
      </trkpt>
      <trkpt lat="50.64226" lon="1.74939">
        <ele>76.9</ele>
        <time>2016-05-06T11:52:02Z</time>
      </trkpt>
      <trkpt lat="50.64218" lon="1.7493">
        <ele>77.3</ele>
        <time>2016-05-06T11:52:04Z</time>
      </trkpt>
      <trkpt lat="50.6421" lon="1.74921">
        <ele>77.6</ele>
        <time>2016-05-06T11:52:06Z</time>
      </trkpt>
      <trkpt lat="50.64202" lon="1.74913">
        <ele>78</ele>
        <time>2016-05-06T11:52:08Z</time>
      </trkpt>
      <trkpt lat="50.64193" lon="1.74904">
        <ele>78.4</ele>
        <time>2016-05-06T11:52:10Z</time>
      </trkpt>
      <trkpt lat="50.64185" lon="1.74895">
        <ele>78.8</ele>
        <time>2016-05-06T11:52:12Z</time>
      </trkpt>
      <trkpt lat="50.64177" lon="1.74885">
        <ele>79.1</ele>
        <time>2016-05-06T11:52:14Z</time>
      </trkpt>
      <trkpt lat="50.64169" lon="1.74876">
        <ele>79.4</ele>
        <time>2016-05-06T11:52:16Z</time>
      </trkpt>
      <trkpt lat="50.64161" lon="1.74867">
        <ele>79.8</ele>
        <time>2016-05-06T11:52:18Z</time>
      </trkpt>
      <trkpt lat="50.64154" lon="1.74857">
        <ele>80.2</ele>
        <time>2016-05-06T11:52:20Z</time>
      </trkpt>
      <trkpt lat="50.64146" lon="1.74848">
        <ele>80.6</ele>
        <time>2016-05-06T11:52:22Z</time>
      </trkpt>
      <trkpt lat="50.64138" lon="1.74837">
        <ele>80.9</ele>
        <time>2016-05-06T11:52:24Z</time>
      </trkpt>
      <trkpt lat="50.64131" lon="1.74827">
        <ele>81.3</ele>
        <time>2016-05-06T11:52:26Z</time>
      </trkpt>
      <trkpt lat="50.64123" lon="1.74816">
        <ele>81.5</ele>
        <time>2016-05-06T11:52:28Z</time>
      </trkpt>
      <trkpt lat="50.64113" lon="1.74805">
        <ele>81.8</ele>
        <time>2016-05-06T11:52:30Z</time>
      </trkpt>
      <trkpt lat="50.64103" lon="1.74795">
        <ele>81.9</ele>
        <time>2016-05-06T11:52:32Z</time>
      </trkpt>
      <trkpt lat="50.64092" lon="1.74784">
        <ele>82</ele>
        <time>2016-05-06T11:52:34Z</time>
      </trkpt>
      <trkpt lat="50.6408" lon="1.74775">
        <ele>82.1</ele>
        <time>2016-05-06T11:52:36Z</time>
      </trkpt>
      <trkpt lat="50.64069" lon="1.74763">
        <ele>82.2</ele>
        <time>2016-05-06T11:52:38Z</time>
      </trkpt>
      <trkpt lat="50.64058" lon="1.74751">
        <ele>82.2</ele>
        <time>2016-05-06T11:52:40Z</time>
      </trkpt>
      <trkpt lat="50.64046" lon="1.74738">
        <ele>82.2</ele>
        <time>2016-05-06T11:52:42Z</time>
      </trkpt>
      <trkpt lat="50.64035" lon="1.74721">
        <ele>82.1</ele>
        <time>2016-05-06T11:52:44Z</time>
      </trkpt>
      <trkpt lat="50.64025" lon="1.74702">
        <ele>81.8</ele>
        <time>2016-05-06T11:52:46Z</time>
      </trkpt>
      <trkpt lat="50.64015" lon="1.74686">
        <ele>81.5</ele>
        <time>2016-05-06T11:52:48Z</time>
      </trkpt>
      <trkpt lat="50.64006" lon="1.74676">
        <ele>81.1</ele>
        <time>2016-05-06T11:52:50Z</time>
      </trkpt>
      <trkpt lat="50.63996" lon="1.74673">
        <ele>80.6</ele>
        <time>2016-05-06T11:52:52Z</time>
      </trkpt>
      <trkpt lat="50.63988" lon="1.74661">
        <ele>80.1</ele>
        <time>2016-05-06T11:52:54Z</time>
      </trkpt>
      <trkpt lat="50.63982" lon="1.74644">
        <ele>79.5</ele>
        <time>2016-05-06T11:52:56Z</time>
      </trkpt>
      <trkpt lat="50.63977" lon="1.74625">
        <ele>79</ele>
        <time>2016-05-06T11:52:58Z</time>
      </trkpt>
      <trkpt lat="50.6397" lon="1.74606">
        <ele>78.3</ele>
        <time>2016-05-06T11:53:00Z</time>
      </trkpt>
      <trkpt lat="50.63963" lon="1.74588">
        <ele>77.9</ele>
        <time>2016-05-06T11:53:02Z</time>
      </trkpt>
      <trkpt lat="50.63957" lon="1.74572">
        <ele>77.7</ele>
        <time>2016-05-06T11:53:04Z</time>
      </trkpt>
      <trkpt lat="50.63949" lon="1.74557">
        <ele>76.9</ele>
        <time>2016-05-06T11:53:06Z</time>
      </trkpt>
      <trkpt lat="50.63942" lon="1.7454">
        <ele>75.9</ele>
        <time>2016-05-06T11:53:09Z</time>
      </trkpt>
      <trkpt lat="50.63946" lon="1.74523">
        <ele>75.3</ele>
        <time>2016-05-06T11:53:12Z</time>
      </trkpt>
      <trkpt lat="50.63954" lon="1.74508">
        <ele>74.9</ele>
        <time>2016-05-06T11:53:15Z</time>
      </trkpt>
      <trkpt lat="50.63959" lon="1.74497">
        <ele>74.8</ele>
        <time>2016-05-06T11:53:17Z</time>
      </trkpt>
      <trkpt lat="50.63965" lon="1.74485">
        <ele>74.7</ele>
        <time>2016-05-06T11:53:19Z</time>
      </trkpt>
      <trkpt lat="50.6397" lon="1.74472">
        <ele>74.6</ele>
        <time>2016-05-06T11:53:21Z</time>
      </trkpt>
      <trkpt lat="50.63972" lon="1.74455">
        <ele>74.5</ele>
        <time>2016-05-06T11:53:23Z</time>
      </trkpt>
      <trkpt lat="50.63971" lon="1.74434">
        <ele>74.4</ele>
        <time>2016-05-06T11:53:25Z</time>
      </trkpt>
      <trkpt lat="50.6397" lon="1.74408">
        <ele>74.2</ele>
        <time>2016-05-06T11:53:27Z</time>
      </trkpt>
      <trkpt lat="50.63968" lon="1.7438">
        <ele>73.9</ele>
        <time>2016-05-06T11:53:29Z</time>
      </trkpt>
      <trkpt lat="50.63965" lon="1.74353">
        <ele>73.5</ele>
        <time>2016-05-06T11:53:31Z</time>
      </trkpt>
      <trkpt lat="50.63966" lon="1.74327">
        <ele>73</ele>
        <time>2016-05-06T11:53:33Z</time>
      </trkpt>
      <trkpt lat="50.63968" lon="1.74308">
        <ele>72.5</ele>
        <time>2016-05-06T11:53:35Z</time>
      </trkpt>
      <trkpt lat="50.63972" lon="1.74294">
        <ele>71.7</ele>
        <time>2016-05-06T11:53:38Z</time>
      </trkpt>
      <trkpt lat="50.63976" lon="1.74277">
        <ele>70.4</ele>
        <time>2016-05-06T11:53:44Z</time>
      </trkpt>
      <trkpt lat="50.63979" lon="1.74257">
        <ele>69.8</ele>
        <time>2016-05-06T11:53:47Z</time>
      </trkpt>
      <trkpt lat="50.6398" lon="1.7424">
        <ele>69.5</ele>
        <time>2016-05-06T11:53:49Z</time>
      </trkpt>
      <trkpt lat="50.63983" lon="1.74221">
        <ele>69.2</ele>
        <time>2016-05-06T11:53:51Z</time>
      </trkpt>
      <trkpt lat="50.63986" lon="1.742">
        <ele>68.9</ele>
        <time>2016-05-06T11:53:53Z</time>
      </trkpt>
      <trkpt lat="50.63989" lon="1.74178">
        <ele>68.4</ele>
        <time>2016-05-06T11:53:55Z</time>
      </trkpt>
      <trkpt lat="50.63993" lon="1.74156">
        <ele>68</ele>
        <time>2016-05-06T11:53:57Z</time>
      </trkpt>
      <trkpt lat="50.63998" lon="1.74133">
        <ele>67.7</ele>
        <time>2016-05-06T11:53:59Z</time>
      </trkpt>
      <trkpt lat="50.64003" lon="1.7411">
        <ele>67.3</ele>
        <time>2016-05-06T11:54:01Z</time>
      </trkpt>
      <trkpt lat="50.64011" lon="1.74088">
        <ele>66.9</ele>
        <time>2016-05-06T11:54:03Z</time>
      </trkpt>
      <trkpt lat="50.64019" lon="1.74065">
        <ele>66.4</ele>
        <time>2016-05-06T11:54:05Z</time>
      </trkpt>
      <trkpt lat="50.64028" lon="1.74043">
        <ele>66</ele>
        <time>2016-05-06T11:54:07Z</time>
      </trkpt>
      <trkpt lat="50.64038" lon="1.7402">
        <ele>65.5</ele>
        <time>2016-05-06T11:54:09Z</time>
      </trkpt>
      <trkpt lat="50.64048" lon="1.73997">
        <ele>65</ele>
        <time>2016-05-06T11:54:11Z</time>
      </trkpt>
      <trkpt lat="50.64053" lon="1.73985">
        <ele>64.7</ele>
        <time>2016-05-06T11:54:12Z</time>
      </trkpt>
      <trkpt lat="50.64058" lon="1.73974">
        <ele>64.4</ele>
        <time>2016-05-06T11:54:13Z</time>
      </trkpt>
      <trkpt lat="50.64063" lon="1.73962">
        <ele>64.2</ele>
        <time>2016-05-06T11:54:14Z</time>
      </trkpt>
      <trkpt lat="50.64068" lon="1.7395">
        <ele>63.9</ele>
        <time>2016-05-06T11:54:15Z</time>
      </trkpt>
      <trkpt lat="50.64073" lon="1.73937">
        <ele>63.7</ele>
        <time>2016-05-06T11:54:16Z</time>
      </trkpt>
      <trkpt lat="50.64078" lon="1.73925">
        <ele>63.4</ele>
        <time>2016-05-06T11:54:17Z</time>
      </trkpt>
      <trkpt lat="50.64083" lon="1.73912">
        <ele>63.1</ele>
        <time>2016-05-06T11:54:18Z</time>
      </trkpt>
      <trkpt lat="50.64087" lon="1.739">
        <ele>62.8</ele>
        <time>2016-05-06T11:54:19Z</time>
      </trkpt>
      <trkpt lat="50.64092" lon="1.73887">
        <ele>62.5</ele>
        <time>2016-05-06T11:54:20Z</time>
      </trkpt>
      <trkpt lat="50.64096" lon="1.73873">
        <ele>62.3</ele>
        <time>2016-05-06T11:54:21Z</time>
      </trkpt>
      <trkpt lat="50.641" lon="1.7386">
        <ele>62</ele>
        <time>2016-05-06T11:54:22Z</time>
      </trkpt>
      <trkpt lat="50.64104" lon="1.73847">
        <ele>61.7</ele>
        <time>2016-05-06T11:54:23Z</time>
      </trkpt>
      <trkpt lat="50.64109" lon="1.73835">
        <ele>61.5</ele>
        <time>2016-05-06T11:54:24Z</time>
      </trkpt>
      <trkpt lat="50.64113" lon="1.73822">
        <ele>61.2</ele>
        <time>2016-05-06T11:54:25Z</time>
      </trkpt>
      <trkpt lat="50.64117" lon="1.73808">
        <ele>61</ele>
        <time>2016-05-06T11:54:26Z</time>
      </trkpt>
      <trkpt lat="50.64122" lon="1.73794">
        <ele>60.7</ele>
        <time>2016-05-06T11:54:27Z</time>
      </trkpt>
      <trkpt lat="50.64126" lon="1.73781">
        <ele>60.5</ele>
        <time>2016-05-06T11:54:28Z</time>
      </trkpt>
      <trkpt lat="50.64131" lon="1.73767">
        <ele>60.2</ele>
        <time>2016-05-06T11:54:29Z</time>
      </trkpt>
      <trkpt lat="50.64136" lon="1.73753">
        <ele>60</ele>
        <time>2016-05-06T11:54:30Z</time>
      </trkpt>
      <trkpt lat="50.64141" lon="1.7374">
        <ele>59.8</ele>
        <time>2016-05-06T11:54:31Z</time>
      </trkpt>
      <trkpt lat="50.64147" lon="1.73726">
        <ele>59.5</ele>
        <time>2016-05-06T11:54:32Z</time>
      </trkpt>
      <trkpt lat="50.64154" lon="1.73714">
        <ele>59.2</ele>
        <time>2016-05-06T11:54:33Z</time>
      </trkpt>
      <trkpt lat="50.64162" lon="1.73703">
        <ele>58.9</ele>
        <time>2016-05-06T11:54:34Z</time>
      </trkpt>
      <trkpt lat="50.6417" lon="1.73693">
        <ele>58.6</ele>
        <time>2016-05-06T11:54:35Z</time>
      </trkpt>
      <trkpt lat="50.64178" lon="1.73684">
        <ele>58.4</ele>
        <time>2016-05-06T11:54:36Z</time>
      </trkpt>
      <trkpt lat="50.64186" lon="1.73674">
        <ele>58.1</ele>
        <time>2016-05-06T11:54:37Z</time>
      </trkpt>
      <trkpt lat="50.64195" lon="1.73664">
        <ele>57.8</ele>
        <time>2016-05-06T11:54:38Z</time>
      </trkpt>
      <trkpt lat="50.64203" lon="1.73655">
        <ele>57.5</ele>
        <time>2016-05-06T11:54:39Z</time>
      </trkpt>
      <trkpt lat="50.64211" lon="1.73646">
        <ele>57.3</ele>
        <time>2016-05-06T11:54:40Z</time>
      </trkpt>
      <trkpt lat="50.64219" lon="1.73636">
        <ele>57</ele>
        <time>2016-05-06T11:54:41Z</time>
      </trkpt>
      <trkpt lat="50.64228" lon="1.73627">
        <ele>56.7</ele>
        <time>2016-05-06T11:54:42Z</time>
      </trkpt>
      <trkpt lat="50.64236" lon="1.73618">
        <ele>56.4</ele>
        <time>2016-05-06T11:54:43Z</time>
      </trkpt>
      <trkpt lat="50.64244" lon="1.73609">
        <ele>56.2</ele>
        <time>2016-05-06T11:54:44Z</time>
      </trkpt>
      <trkpt lat="50.64253" lon="1.73601">
        <ele>55.9</ele>
        <time>2016-05-06T11:54:45Z</time>
      </trkpt>
      <trkpt lat="50.64262" lon="1.73593">
        <ele>55.6</ele>
        <time>2016-05-06T11:54:46Z</time>
      </trkpt>
      <trkpt lat="50.64271" lon="1.73586">
        <ele>55.4</ele>
        <time>2016-05-06T11:54:47Z</time>
      </trkpt>
      <trkpt lat="50.64281" lon="1.73579">
        <ele>55.2</ele>
        <time>2016-05-06T11:54:48Z</time>
      </trkpt>
      <trkpt lat="50.6429" lon="1.73573">
        <ele>54.9</ele>
        <time>2016-05-06T11:54:49Z</time>
      </trkpt>
      <trkpt lat="50.64299" lon="1.73566">
        <ele>54.7</ele>
        <time>2016-05-06T11:54:50Z</time>
      </trkpt>
      <trkpt lat="50.64308" lon="1.73559">
        <ele>54.4</ele>
        <time>2016-05-06T11:54:51Z</time>
      </trkpt>
      <trkpt lat="50.64317" lon="1.73551">
        <ele>54.1</ele>
        <time>2016-05-06T11:54:52Z</time>
      </trkpt>
      <trkpt lat="50.64326" lon="1.73543">
        <ele>53.8</ele>
        <time>2016-05-06T11:54:53Z</time>
      </trkpt>
      <trkpt lat="50.64335" lon="1.73534">
        <ele>53.5</ele>
        <time>2016-05-06T11:54:54Z</time>
      </trkpt>
      <trkpt lat="50.64343" lon="1.73524">
        <ele>53.2</ele>
        <time>2016-05-06T11:54:55Z</time>
      </trkpt>
      <trkpt lat="50.6435" lon="1.73513">
        <ele>52.9</ele>
        <time>2016-05-06T11:54:56Z</time>
      </trkpt>
      <trkpt lat="50.64357" lon="1.73501">
        <ele>52.6</ele>
        <time>2016-05-06T11:54:57Z</time>
      </trkpt>
      <trkpt lat="50.64364" lon="1.73488">
        <ele>52.2</ele>
        <time>2016-05-06T11:54:58Z</time>
      </trkpt>
      <trkpt lat="50.6437" lon="1.73474">
        <ele>51.9</ele>
        <time>2016-05-06T11:54:59Z</time>
      </trkpt>
      <trkpt lat="50.64376" lon="1.7346">
        <ele>51.6</ele>
        <time>2016-05-06T11:55:00Z</time>
      </trkpt>
      <trkpt lat="50.64382" lon="1.73446">
        <ele>51.2</ele>
        <time>2016-05-06T11:55:01Z</time>
      </trkpt>
      <trkpt lat="50.64387" lon="1.7343">
        <ele>50.8</ele>
        <time>2016-05-06T11:55:02Z</time>
      </trkpt>
      <trkpt lat="50.64392" lon="1.73415">
        <ele>50.4</ele>
        <time>2016-05-06T11:55:03Z</time>
      </trkpt>
      <trkpt lat="50.64396" lon="1.73398">
        <ele>49.9</ele>
        <time>2016-05-06T11:55:04Z</time>
      </trkpt>
      <trkpt lat="50.644" lon="1.73382">
        <ele>49.6</ele>
        <time>2016-05-06T11:55:05Z</time>
      </trkpt>
      <trkpt lat="50.64403" lon="1.73366">
        <ele>49.1</ele>
        <time>2016-05-06T11:55:06Z</time>
      </trkpt>
      <trkpt lat="50.64407" lon="1.73349">
        <ele>48.7</ele>
        <time>2016-05-06T11:55:07Z</time>
      </trkpt>
      <trkpt lat="50.6441" lon="1.73332">
        <ele>48.4</ele>
        <time>2016-05-06T11:55:08Z</time>
      </trkpt>
      <trkpt lat="50.64414" lon="1.73315">
        <ele>48</ele>
        <time>2016-05-06T11:55:09Z</time>
      </trkpt>
      <trkpt lat="50.64417" lon="1.73298">
        <ele>47.6</ele>
        <time>2016-05-06T11:55:10Z</time>
      </trkpt>
      <trkpt lat="50.6442" lon="1.73281">
        <ele>47.2</ele>
        <time>2016-05-06T11:55:11Z</time>
      </trkpt>
      <trkpt lat="50.64424" lon="1.73264">
        <ele>46.8</ele>
        <time>2016-05-06T11:55:12Z</time>
      </trkpt>
      <trkpt lat="50.64427" lon="1.73246">
        <ele>46.4</ele>
        <time>2016-05-06T11:55:13Z</time>
      </trkpt>
      <trkpt lat="50.6443" lon="1.73229">
        <ele>46</ele>
        <time>2016-05-06T11:55:14Z</time>
      </trkpt>
      <trkpt lat="50.64434" lon="1.73212">
        <ele>45.6</ele>
        <time>2016-05-06T11:55:15Z</time>
      </trkpt>
      <trkpt lat="50.64437" lon="1.73195">
        <ele>45.2</ele>
        <time>2016-05-06T11:55:16Z</time>
      </trkpt>
      <trkpt lat="50.6444" lon="1.73178">
        <ele>44.8</ele>
        <time>2016-05-06T11:55:17Z</time>
      </trkpt>
      <trkpt lat="50.64444" lon="1.73161">
        <ele>44.5</ele>
        <time>2016-05-06T11:55:18Z</time>
      </trkpt>
      <trkpt lat="50.64448" lon="1.73144">
        <ele>44.1</ele>
        <time>2016-05-06T11:55:19Z</time>
      </trkpt>
      <trkpt lat="50.64453" lon="1.73128">
        <ele>43.7</ele>
        <time>2016-05-06T11:55:20Z</time>
      </trkpt>
      <trkpt lat="50.64458" lon="1.73113">
        <ele>43.3</ele>
        <time>2016-05-06T11:55:21Z</time>
      </trkpt>
      <trkpt lat="50.64464" lon="1.73098">
        <ele>42.9</ele>
        <time>2016-05-06T11:55:22Z</time>
      </trkpt>
      <trkpt lat="50.6447" lon="1.73084">
        <ele>42.5</ele>
        <time>2016-05-06T11:55:23Z</time>
      </trkpt>
      <trkpt lat="50.64477" lon="1.7307">
        <ele>42</ele>
        <time>2016-05-06T11:55:24Z</time>
      </trkpt>
      <trkpt lat="50.64483" lon="1.73056">
        <ele>41.6</ele>
        <time>2016-05-06T11:55:25Z</time>
      </trkpt>
      <trkpt lat="50.64489" lon="1.73041">
        <ele>41.1</ele>
        <time>2016-05-06T11:55:26Z</time>
      </trkpt>
      <trkpt lat="50.64495" lon="1.73027">
        <ele>40.7</ele>
        <time>2016-05-06T11:55:27Z</time>
      </trkpt>
      <trkpt lat="50.645" lon="1.73012">
        <ele>40.3</ele>
        <time>2016-05-06T11:55:28Z</time>
      </trkpt>
      <trkpt lat="50.64505" lon="1.72997">
        <ele>39.9</ele>
        <time>2016-05-06T11:55:29Z</time>
      </trkpt>
      <trkpt lat="50.6451" lon="1.72982">
        <ele>39.5</ele>
        <time>2016-05-06T11:55:30Z</time>
      </trkpt>
      <trkpt lat="50.64514" lon="1.72966">
        <ele>39.2</ele>
        <time>2016-05-06T11:55:31Z</time>
      </trkpt>
      <trkpt lat="50.64518" lon="1.7295">
        <ele>38.8</ele>
        <time>2016-05-06T11:55:32Z</time>
      </trkpt>
      <trkpt lat="50.64522" lon="1.72933">
        <ele>38.3</ele>
        <time>2016-05-06T11:55:33Z</time>
      </trkpt>
      <trkpt lat="50.64525" lon="1.72917">
        <ele>37.9</ele>
        <time>2016-05-06T11:55:34Z</time>
      </trkpt>
      <trkpt lat="50.64529" lon="1.729">
        <ele>37.5</ele>
        <time>2016-05-06T11:55:35Z</time>
      </trkpt>
      <trkpt lat="50.64533" lon="1.72883">
        <ele>37.1</ele>
        <time>2016-05-06T11:55:36Z</time>
      </trkpt>
      <trkpt lat="50.64536" lon="1.72866">
        <ele>36.7</ele>
        <time>2016-05-06T11:55:37Z</time>
      </trkpt>
      <trkpt lat="50.6454" lon="1.72849">
        <ele>36.3</ele>
        <time>2016-05-06T11:55:38Z</time>
      </trkpt>
      <trkpt lat="50.64543" lon="1.72832">
        <ele>35.8</ele>
        <time>2016-05-06T11:55:39Z</time>
      </trkpt>
      <trkpt lat="50.64547" lon="1.72816">
        <ele>35.4</ele>
        <time>2016-05-06T11:55:40Z</time>
      </trkpt>
      <trkpt lat="50.6455" lon="1.728">
        <ele>35</ele>
        <time>2016-05-06T11:55:41Z</time>
      </trkpt>
      <trkpt lat="50.64554" lon="1.72783">
        <ele>34.6</ele>
        <time>2016-05-06T11:55:42Z</time>
      </trkpt>
      <trkpt lat="50.64557" lon="1.72767">
        <ele>34.3</ele>
        <time>2016-05-06T11:55:43Z</time>
      </trkpt>
      <trkpt lat="50.6456" lon="1.72751">
        <ele>33.9</ele>
        <time>2016-05-06T11:55:44Z</time>
      </trkpt>
      <trkpt lat="50.64564" lon="1.72735">
        <ele>33.5</ele>
        <time>2016-05-06T11:55:45Z</time>
      </trkpt>
      <trkpt lat="50.64567" lon="1.72719">
        <ele>33.1</ele>
        <time>2016-05-06T11:55:46Z</time>
      </trkpt>
      <trkpt lat="50.64571" lon="1.72703">
        <ele>32.8</ele>
        <time>2016-05-06T11:55:47Z</time>
      </trkpt>
      <trkpt lat="50.64574" lon="1.72687">
        <ele>32.4</ele>
        <time>2016-05-06T11:55:48Z</time>
      </trkpt>
      <trkpt lat="50.64577" lon="1.72672">
        <ele>32.1</ele>
        <time>2016-05-06T11:55:49Z</time>
      </trkpt>
      <trkpt lat="50.64581" lon="1.72656">
        <ele>31.8</ele>
        <time>2016-05-06T11:55:50Z</time>
      </trkpt>
      <trkpt lat="50.64584" lon="1.7264">
        <ele>31.5</ele>
        <time>2016-05-06T11:55:51Z</time>
      </trkpt>
      <trkpt lat="50.64587" lon="1.72625">
        <ele>31.1</ele>
        <time>2016-05-06T11:55:52Z</time>
      </trkpt>
      <trkpt lat="50.64591" lon="1.72609">
        <ele>30.9</ele>
        <time>2016-05-06T11:55:53Z</time>
      </trkpt>
      <trkpt lat="50.64594" lon="1.72594">
        <ele>30.5</ele>
        <time>2016-05-06T11:55:54Z</time>
      </trkpt>
      <trkpt lat="50.64597" lon="1.72579">
        <ele>30.2</ele>
        <time>2016-05-06T11:55:55Z</time>
      </trkpt>
      <trkpt lat="50.646" lon="1.72563">
        <ele>29.9</ele>
        <time>2016-05-06T11:55:56Z</time>
      </trkpt>
      <trkpt lat="50.64603" lon="1.72548">
        <ele>29.5</ele>
        <time>2016-05-06T11:55:57Z</time>
      </trkpt>
      <trkpt lat="50.64606" lon="1.72532">
        <ele>29.2</ele>
        <time>2016-05-06T11:55:58Z</time>
      </trkpt>
      <trkpt lat="50.64609" lon="1.72517">
        <ele>28.9</ele>
        <time>2016-05-06T11:55:59Z</time>
      </trkpt>
      <trkpt lat="50.64613" lon="1.72501">
        <ele>28.6</ele>
        <time>2016-05-06T11:56:00Z</time>
      </trkpt>
      <trkpt lat="50.64616" lon="1.72486">
        <ele>28.3</ele>
        <time>2016-05-06T11:56:01Z</time>
      </trkpt>
      <trkpt lat="50.64619" lon="1.72471">
        <ele>28</ele>
        <time>2016-05-06T11:56:02Z</time>
      </trkpt>
      <trkpt lat="50.64623" lon="1.72455">
        <ele>27.7</ele>
        <time>2016-05-06T11:56:03Z</time>
      </trkpt>
      <trkpt lat="50.64627" lon="1.7244">
        <ele>27.4</ele>
        <time>2016-05-06T11:56:04Z</time>
      </trkpt>
      <trkpt lat="50.64631" lon="1.72426">
        <ele>27.1</ele>
        <time>2016-05-06T11:56:05Z</time>
      </trkpt>
      <trkpt lat="50.64636" lon="1.72411">
        <ele>26.8</ele>
        <time>2016-05-06T11:56:06Z</time>
      </trkpt>
      <trkpt lat="50.64641" lon="1.72397">
        <ele>26.5</ele>
        <time>2016-05-06T11:56:07Z</time>
      </trkpt>
      <trkpt lat="50.64646" lon="1.72383">
        <ele>26.2</ele>
        <time>2016-05-06T11:56:08Z</time>
      </trkpt>
      <trkpt lat="50.64652" lon="1.7237">
        <ele>25.9</ele>
        <time>2016-05-06T11:56:09Z</time>
      </trkpt>
      <trkpt lat="50.64659" lon="1.72357">
        <ele>25.6</ele>
        <time>2016-05-06T11:56:10Z</time>
      </trkpt>
      <trkpt lat="50.64665" lon="1.72344">
        <ele>25.3</ele>
        <time>2016-05-06T11:56:11Z</time>
      </trkpt>
      <trkpt lat="50.64672" lon="1.72332">
        <ele>25</ele>
        <time>2016-05-06T11:56:12Z</time>
      </trkpt>
      <trkpt lat="50.64678" lon="1.72319">
        <ele>24.7</ele>
        <time>2016-05-06T11:56:13Z</time>
      </trkpt>
      <trkpt lat="50.64684" lon="1.72307">
        <ele>24.4</ele>
        <time>2016-05-06T11:56:14Z</time>
      </trkpt>
      <trkpt lat="50.6469" lon="1.72294">
        <ele>24.2</ele>
        <time>2016-05-06T11:56:15Z</time>
      </trkpt>
      <trkpt lat="50.64696" lon="1.72282">
        <ele>23.9</ele>
        <time>2016-05-06T11:56:16Z</time>
      </trkpt>
      <trkpt lat="50.64702" lon="1.72269">
        <ele>23.6</ele>
        <time>2016-05-06T11:56:17Z</time>
      </trkpt>
      <trkpt lat="50.64707" lon="1.72257">
        <ele>23.4</ele>
        <time>2016-05-06T11:56:18Z</time>
      </trkpt>
      <trkpt lat="50.64712" lon="1.72244">
        <ele>23.2</ele>
        <time>2016-05-06T11:56:19Z</time>
      </trkpt>
      <trkpt lat="50.64717" lon="1.72231">
        <ele>22.9</ele>
        <time>2016-05-06T11:56:20Z</time>
      </trkpt>
      <trkpt lat="50.64721" lon="1.72218">
        <ele>22.6</ele>
        <time>2016-05-06T11:56:21Z</time>
      </trkpt>
      <trkpt lat="50.64725" lon="1.72204">
        <ele>22.4</ele>
        <time>2016-05-06T11:56:22Z</time>
      </trkpt>
      <trkpt lat="50.64728" lon="1.7219">
        <ele>22.2</ele>
        <time>2016-05-06T11:56:23Z</time>
      </trkpt>
      <trkpt lat="50.64731" lon="1.72177">
        <ele>22</ele>
        <time>2016-05-06T11:56:24Z</time>
      </trkpt>
      <trkpt lat="50.64733" lon="1.72162">
        <ele>21.8</ele>
        <time>2016-05-06T11:56:25Z</time>
      </trkpt>
      <trkpt lat="50.64735" lon="1.72148">
        <ele>21.6</ele>
        <time>2016-05-06T11:56:26Z</time>
      </trkpt>
      <trkpt lat="50.64736" lon="1.72133">
        <ele>21.4</ele>
        <time>2016-05-06T11:56:27Z</time>
      </trkpt>
      <trkpt lat="50.64738" lon="1.72118">
        <ele>21.2</ele>
        <time>2016-05-06T11:56:28Z</time>
      </trkpt>
      <trkpt lat="50.6474" lon="1.72103">
        <ele>21</ele>
        <time>2016-05-06T11:56:29Z</time>
      </trkpt>
      <trkpt lat="50.64741" lon="1.72088">
        <ele>20.9</ele>
        <time>2016-05-06T11:56:30Z</time>
      </trkpt>
      <trkpt lat="50.64743" lon="1.72074">
        <ele>20.7</ele>
        <time>2016-05-06T11:56:31Z</time>
      </trkpt>
      <trkpt lat="50.64745" lon="1.7206">
        <ele>20.6</ele>
        <time>2016-05-06T11:56:32Z</time>
      </trkpt>
      <trkpt lat="50.64747" lon="1.72046">
        <ele>20.5</ele>
        <time>2016-05-06T11:56:33Z</time>
      </trkpt>
      <trkpt lat="50.64749" lon="1.72032">
        <ele>20.3</ele>
        <time>2016-05-06T11:56:34Z</time>
      </trkpt>
      <trkpt lat="50.64751" lon="1.72018">
        <ele>20.2</ele>
        <time>2016-05-06T11:56:35Z</time>
      </trkpt>
      <trkpt lat="50.64753" lon="1.72004">
        <ele>20.1</ele>
        <time>2016-05-06T11:56:36Z</time>
      </trkpt>
      <trkpt lat="50.64756" lon="1.7199">
        <ele>20</ele>
        <time>2016-05-06T11:56:37Z</time>
      </trkpt>
      <trkpt lat="50.64758" lon="1.71976">
        <ele>19.9</ele>
        <time>2016-05-06T11:56:38Z</time>
      </trkpt>
      <trkpt lat="50.64761" lon="1.71962">
        <ele>19.9</ele>
        <time>2016-05-06T11:56:39Z</time>
      </trkpt>
      <trkpt lat="50.64764" lon="1.71948">
        <ele>19.8</ele>
        <time>2016-05-06T11:56:40Z</time>
      </trkpt>
      <trkpt lat="50.64766" lon="1.71934">
        <ele>19.7</ele>
        <time>2016-05-06T11:56:41Z</time>
      </trkpt>
      <trkpt lat="50.64769" lon="1.7192">
        <ele>19.6</ele>
        <time>2016-05-06T11:56:42Z</time>
      </trkpt>
      <trkpt lat="50.64772" lon="1.71905">
        <ele>19.5</ele>
        <time>2016-05-06T11:56:43Z</time>
      </trkpt>
      <trkpt lat="50.64774" lon="1.71891">
        <ele>19.5</ele>
        <time>2016-05-06T11:56:44Z</time>
      </trkpt>
      <trkpt lat="50.64777" lon="1.71877">
        <ele>19.4</ele>
        <time>2016-05-06T11:56:45Z</time>
      </trkpt>
      <trkpt lat="50.64779" lon="1.71862">
        <ele>19.4</ele>
        <time>2016-05-06T11:56:46Z</time>
      </trkpt>
      <trkpt lat="50.64782" lon="1.71848">
        <ele>19.3</ele>
        <time>2016-05-06T11:56:47Z</time>
      </trkpt>
      <trkpt lat="50.64785" lon="1.71834">
        <ele>19.3</ele>
        <time>2016-05-06T11:56:48Z</time>
      </trkpt>
      <trkpt lat="50.64788" lon="1.71819">
        <ele>19.2</ele>
        <time>2016-05-06T11:56:49Z</time>
      </trkpt>
      <trkpt lat="50.64791" lon="1.71805">
        <ele>19.2</ele>
        <time>2016-05-06T11:56:50Z</time>
      </trkpt>
      <trkpt lat="50.64794" lon="1.7179">
        <ele>19.2</ele>
        <time>2016-05-06T11:56:51Z</time>
      </trkpt>
      <trkpt lat="50.64796" lon="1.71775">
        <ele>19.1</ele>
        <time>2016-05-06T11:56:52Z</time>
      </trkpt>
      <trkpt lat="50.64798" lon="1.7176">
        <ele>19.1</ele>
        <time>2016-05-06T11:56:53Z</time>
      </trkpt>
      <trkpt lat="50.64799" lon="1.71745">
        <ele>19.1</ele>
        <time>2016-05-06T11:56:54Z</time>
      </trkpt>
      <trkpt lat="50.648" lon="1.7173">
        <ele>19.1</ele>
        <time>2016-05-06T11:56:55Z</time>
      </trkpt>
      <trkpt lat="50.64801" lon="1.71716">
        <ele>19.1</ele>
        <time>2016-05-06T11:56:56Z</time>
      </trkpt>
      <trkpt lat="50.64802" lon="1.71701">
        <ele>19.1</ele>
        <time>2016-05-06T11:56:57Z</time>
      </trkpt>
      <trkpt lat="50.64803" lon="1.71686">
        <ele>19.1</ele>
        <time>2016-05-06T11:56:58Z</time>
      </trkpt>
      <trkpt lat="50.64803" lon="1.71672">
        <ele>19.2</ele>
        <time>2016-05-06T11:56:59Z</time>
      </trkpt>
      <trkpt lat="50.64804" lon="1.71657">
        <ele>19.2</ele>
        <time>2016-05-06T11:57:00Z</time>
      </trkpt>
      <trkpt lat="50.64804" lon="1.71643">
        <ele>19.2</ele>
        <time>2016-05-06T11:57:01Z</time>
      </trkpt>
      <trkpt lat="50.64804" lon="1.71629">
        <ele>19.2</ele>
        <time>2016-05-06T11:57:02Z</time>
      </trkpt>
      <trkpt lat="50.64804" lon="1.71601">
        <ele>19.2</ele>
        <time>2016-05-06T11:57:04Z</time>
      </trkpt>
      <trkpt lat="50.64803" lon="1.71573">
        <ele>19.1</ele>
        <time>2016-05-06T11:57:06Z</time>
      </trkpt>
      <trkpt lat="50.64802" lon="1.71545">
        <ele>19.1</ele>
        <time>2016-05-06T11:57:08Z</time>
      </trkpt>
      <trkpt lat="50.64801" lon="1.71518">
        <ele>19.1</ele>
        <time>2016-05-06T11:57:10Z</time>
      </trkpt>
      <trkpt lat="50.648" lon="1.71492">
        <ele>19.1</ele>
        <time>2016-05-06T11:57:12Z</time>
      </trkpt>
      <trkpt lat="50.64799" lon="1.71466">
        <ele>19</ele>
        <time>2016-05-06T11:57:14Z</time>
      </trkpt>
      <trkpt lat="50.64798" lon="1.7144">
        <ele>19</ele>
        <time>2016-05-06T11:57:16Z</time>
      </trkpt>
      <trkpt lat="50.64798" lon="1.71413">
        <ele>19</ele>
        <time>2016-05-06T11:57:18Z</time>
      </trkpt>
      <trkpt lat="50.64797" lon="1.71387">
        <ele>19</ele>
        <time>2016-05-06T11:57:20Z</time>
      </trkpt>
      <trkpt lat="50.64796" lon="1.71361">
        <ele>19</ele>
        <time>2016-05-06T11:57:22Z</time>
      </trkpt>
      <trkpt lat="50.64796" lon="1.71337">
        <ele>19</ele>
        <time>2016-05-06T11:57:24Z</time>
      </trkpt>
      <trkpt lat="50.64795" lon="1.71314">
        <ele>19</ele>
        <time>2016-05-06T11:57:26Z</time>
      </trkpt>
      <trkpt lat="50.64794" lon="1.7129">
        <ele>18.9</ele>
        <time>2016-05-06T11:57:28Z</time>
      </trkpt>
      <trkpt lat="50.64794" lon="1.71267">
        <ele>18.9</ele>
        <time>2016-05-06T11:57:30Z</time>
      </trkpt>
      <trkpt lat="50.64794" lon="1.71245">
        <ele>18.8</ele>
        <time>2016-05-06T11:57:32Z</time>
      </trkpt>
      <trkpt lat="50.64797" lon="1.71225">
        <ele>18.8</ele>
        <time>2016-05-06T11:57:34Z</time>
      </trkpt>
      <trkpt lat="50.64803" lon="1.71206">
        <ele>18.8</ele>
        <time>2016-05-06T11:57:36Z</time>
      </trkpt>
      <trkpt lat="50.64811" lon="1.71187">
        <ele>18.9</ele>
        <time>2016-05-06T11:57:38Z</time>
      </trkpt>
      <trkpt lat="50.64819" lon="1.71168">
        <ele>18.9</ele>
        <time>2016-05-06T11:57:40Z</time>
      </trkpt>
      <trkpt lat="50.64828" lon="1.71149">
        <ele>18.8</ele>
        <time>2016-05-06T11:57:42Z</time>
      </trkpt>
      <trkpt lat="50.64837" lon="1.71129">
        <ele>18.8</ele>
        <time>2016-05-06T11:57:44Z</time>
      </trkpt>
      <trkpt lat="50.64846" lon="1.71109">
        <ele>18.8</ele>
        <time>2016-05-06T11:57:46Z</time>
      </trkpt>
      <trkpt lat="50.64855" lon="1.71087">
        <ele>18.8</ele>
        <time>2016-05-06T11:57:48Z</time>
      </trkpt>
      <trkpt lat="50.64864" lon="1.71066">
        <ele>18.6</ele>
        <time>2016-05-06T11:57:50Z</time>
      </trkpt>
      <trkpt lat="50.64874" lon="1.71044">
        <ele>18.5</ele>
        <time>2016-05-06T11:57:52Z</time>
      </trkpt>
      <trkpt lat="50.64884" lon="1.71021">
        <ele>18.4</ele>
        <time>2016-05-06T11:57:54Z</time>
      </trkpt>
      <trkpt lat="50.64894" lon="1.70999">
        <ele>18.2</ele>
        <time>2016-05-06T11:57:56Z</time>
      </trkpt>
      <trkpt lat="50.64903" lon="1.70978">
        <ele>18.1</ele>
        <time>2016-05-06T11:57:58Z</time>
      </trkpt>
      <trkpt lat="50.64912" lon="1.70957">
        <ele>18</ele>
        <time>2016-05-06T11:58:00Z</time>
      </trkpt>
      <trkpt lat="50.64921" lon="1.70936">
        <ele>17.9</ele>
        <time>2016-05-06T11:58:02Z</time>
      </trkpt>
      <trkpt lat="50.64931" lon="1.70914">
        <ele>17.8</ele>
        <time>2016-05-06T11:58:04Z</time>
      </trkpt>
      <trkpt lat="50.64941" lon="1.70893">
        <ele>17.7</ele>
        <time>2016-05-06T11:58:06Z</time>
      </trkpt>
      <trkpt lat="50.6495" lon="1.70871">
        <ele>17.7</ele>
        <time>2016-05-06T11:58:08Z</time>
      </trkpt>
      <trkpt lat="50.64959" lon="1.70849">
        <ele>17.6</ele>
        <time>2016-05-06T11:58:10Z</time>
      </trkpt>
      <trkpt lat="50.64969" lon="1.70827">
        <ele>17.5</ele>
        <time>2016-05-06T11:58:12Z</time>
      </trkpt>
      <trkpt lat="50.64978" lon="1.70805">
        <ele>17.4</ele>
        <time>2016-05-06T11:58:14Z</time>
      </trkpt>
      <trkpt lat="50.64988" lon="1.70783">
        <ele>17.4</ele>
        <time>2016-05-06T11:58:16Z</time>
      </trkpt>
      <trkpt lat="50.64997" lon="1.7076">
        <ele>17.3</ele>
        <time>2016-05-06T11:58:18Z</time>
      </trkpt>
      <trkpt lat="50.65005" lon="1.70736">
        <ele>17.3</ele>
        <time>2016-05-06T11:58:20Z</time>
      </trkpt>
      <trkpt lat="50.6501" lon="1.7071">
        <ele>17.2</ele>
        <time>2016-05-06T11:58:22Z</time>
      </trkpt>
      <trkpt lat="50.65014" lon="1.70684">
        <ele>17.2</ele>
        <time>2016-05-06T11:58:24Z</time>
      </trkpt>
      <trkpt lat="50.65018" lon="1.70659">
        <ele>17.2</ele>
        <time>2016-05-06T11:58:26Z</time>
      </trkpt>
      <trkpt lat="50.65022" lon="1.70634">
        <ele>17.1</ele>
        <time>2016-05-06T11:58:28Z</time>
      </trkpt>
      <trkpt lat="50.65026" lon="1.7061">
        <ele>17.2</ele>
        <time>2016-05-06T11:58:30Z</time>
      </trkpt>
      <trkpt lat="50.65029" lon="1.70586">
        <ele>17.3</ele>
        <time>2016-05-06T11:58:32Z</time>
      </trkpt>
      <trkpt lat="50.65033" lon="1.70562">
        <ele>17.4</ele>
        <time>2016-05-06T11:58:34Z</time>
      </trkpt>
      <trkpt lat="50.65035" lon="1.70538">
        <ele>17.5</ele>
        <time>2016-05-06T11:58:36Z</time>
      </trkpt>
      <trkpt lat="50.65037" lon="1.70514">
        <ele>17.5</ele>
        <time>2016-05-06T11:58:38Z</time>
      </trkpt>
      <trkpt lat="50.65037" lon="1.70491">
        <ele>17.5</ele>
        <time>2016-05-06T11:58:40Z</time>
      </trkpt>
      <trkpt lat="50.65035" lon="1.70469">
        <ele>17.6</ele>
        <time>2016-05-06T11:58:42Z</time>
      </trkpt>
      <trkpt lat="50.65032" lon="1.70448">
        <ele>17.7</ele>
        <time>2016-05-06T11:58:44Z</time>
      </trkpt>
      <trkpt lat="50.65029" lon="1.70429">
        <ele>17.8</ele>
        <time>2016-05-06T11:58:46Z</time>
      </trkpt>
      <trkpt lat="50.65026" lon="1.70412">
        <ele>18</ele>
        <time>2016-05-06T11:58:48Z</time>
      </trkpt>
      <trkpt lat="50.65025" lon="1.70395">
        <ele>18.2</ele>
        <time>2016-05-06T11:58:50Z</time>
      </trkpt>
      <trkpt lat="50.65025" lon="1.70377">
        <ele>18.7</ele>
        <time>2016-05-06T11:58:53Z</time>
      </trkpt>
      <trkpt lat="50.6502" lon="1.70363">
        <ele>19.2</ele>
        <time>2016-05-06T11:58:56Z</time>
      </trkpt>
      <trkpt lat="50.65011" lon="1.70355">
        <ele>19.5</ele>
        <time>2016-05-06T11:58:59Z</time>
      </trkpt>
      <trkpt lat="50.65" lon="1.70347">
        <ele>19.8</ele>
        <time>2016-05-06T11:59:02Z</time>
      </trkpt>
      <trkpt lat="50.6499" lon="1.7034">
        <ele>20.2</ele>
        <time>2016-05-06T11:59:05Z</time>
      </trkpt>
      <trkpt lat="50.6498" lon="1.7033">
        <ele>20.6</ele>
        <time>2016-05-06T11:59:08Z</time>
      </trkpt>
      <trkpt lat="50.64971" lon="1.70319">
        <ele>21.1</ele>
        <time>2016-05-06T11:59:11Z</time>
      </trkpt>
      <trkpt lat="50.64964" lon="1.70305">
        <ele>21.7</ele>
        <time>2016-05-06T11:59:14Z</time>
      </trkpt>
      <trkpt lat="50.6496" lon="1.7029">
        <ele>22.4</ele>
        <time>2016-05-06T11:59:17Z</time>
      </trkpt>
      <trkpt lat="50.64955" lon="1.70275">
        <ele>23.1</ele>
        <time>2016-05-06T11:59:20Z</time>
      </trkpt>
      <trkpt lat="50.64949" lon="1.7026">
        <ele>23.8</ele>
        <time>2016-05-06T11:59:23Z</time>
      </trkpt>
      <trkpt lat="50.64944" lon="1.70241">
        <ele>24.6</ele>
        <time>2016-05-06T11:59:26Z</time>
      </trkpt>
      <trkpt lat="50.64939" lon="1.70223">
        <ele>25.2</ele>
        <time>2016-05-06T11:59:29Z</time>
      </trkpt>
      <trkpt lat="50.64929" lon="1.70208">
        <ele>25.7</ele>
        <time>2016-05-06T11:59:32Z</time>
      </trkpt>
      <trkpt lat="50.64922" lon="1.70199">
        <ele>26.1</ele>
        <time>2016-05-06T11:59:34Z</time>
      </trkpt>
      <trkpt lat="50.64912" lon="1.70193">
        <ele>26.5</ele>
        <time>2016-05-06T11:59:36Z</time>
      </trkpt>
      <trkpt lat="50.64903" lon="1.70189">
        <ele>26.9</ele>
        <time>2016-05-06T11:59:38Z</time>
      </trkpt>
      <trkpt lat="50.64894" lon="1.70184">
        <ele>27.3</ele>
        <time>2016-05-06T11:59:40Z</time>
      </trkpt>
      <trkpt lat="50.64885" lon="1.70179">
        <ele>27.6</ele>
        <time>2016-05-06T11:59:42Z</time>
      </trkpt>
      <trkpt lat="50.64875" lon="1.70173">
        <ele>27.9</ele>
        <time>2016-05-06T11:59:44Z</time>
      </trkpt>
      <trkpt lat="50.64865" lon="1.70167">
        <ele>28.2</ele>
        <time>2016-05-06T11:59:46Z</time>
      </trkpt>
      <trkpt lat="50.64855" lon="1.70162">
        <ele>28.5</ele>
        <time>2016-05-06T11:59:48Z</time>
      </trkpt>
      <trkpt lat="50.64845" lon="1.70155">
        <ele>28.8</ele>
        <time>2016-05-06T11:59:50Z</time>
      </trkpt>
      <trkpt lat="50.64833" lon="1.7015">
        <ele>29.2</ele>
        <time>2016-05-06T11:59:52Z</time>
      </trkpt>
      <trkpt lat="50.64823" lon="1.70144">
        <ele>29.5</ele>
        <time>2016-05-06T11:59:54Z</time>
      </trkpt>
      <trkpt lat="50.64812" lon="1.70138">
        <ele>29.9</ele>
        <time>2016-05-06T11:59:56Z</time>
      </trkpt>
      <trkpt lat="50.64801" lon="1.70131">
        <ele>30.3</ele>
        <time>2016-05-06T11:59:58Z</time>
      </trkpt>
      <trkpt lat="50.64791" lon="1.70125">
        <ele>30.7</ele>
        <time>2016-05-06T12:00:00Z</time>
      </trkpt>
      <trkpt lat="50.6478" lon="1.70118">
        <ele>31.1</ele>
        <time>2016-05-06T12:00:02Z</time>
      </trkpt>
      <trkpt lat="50.6477" lon="1.70112">
        <ele>31.4</ele>
        <time>2016-05-06T12:00:04Z</time>
      </trkpt>
      <trkpt lat="50.64759" lon="1.70106">
        <ele>31.8</ele>
        <time>2016-05-06T12:00:06Z</time>
      </trkpt>
      <trkpt lat="50.64748" lon="1.70099">
        <ele>32.2</ele>
        <time>2016-05-06T12:00:08Z</time>
      </trkpt>
      <trkpt lat="50.64737" lon="1.70093">
        <ele>32.5</ele>
        <time>2016-05-06T12:00:10Z</time>
      </trkpt>
      <trkpt lat="50.64726" lon="1.70086">
        <ele>32.9</ele>
        <time>2016-05-06T12:00:12Z</time>
      </trkpt>
      <trkpt lat="50.64717" lon="1.70076">
        <ele>33.2</ele>
        <time>2016-05-06T12:00:14Z</time>
      </trkpt>
      <trkpt lat="50.64708" lon="1.70065">
        <ele>33.6</ele>
        <time>2016-05-06T12:00:16Z</time>
      </trkpt>
      <trkpt lat="50.647" lon="1.70053">
        <ele>33.9</ele>
        <time>2016-05-06T12:00:18Z</time>
      </trkpt>
      <trkpt lat="50.64692" lon="1.70041">
        <ele>34.3</ele>
        <time>2016-05-06T12:00:20Z</time>
      </trkpt>
      <trkpt lat="50.64684" lon="1.70029">
        <ele>34.6</ele>
        <time>2016-05-06T12:00:22Z</time>
      </trkpt>
      <trkpt lat="50.64677" lon="1.70017">
        <ele>35</ele>
        <time>2016-05-06T12:00:24Z</time>
      </trkpt>
      <trkpt lat="50.6467" lon="1.70006">
        <ele>35.4</ele>
        <time>2016-05-06T12:00:26Z</time>
      </trkpt>
      <trkpt lat="50.64663" lon="1.69995">
        <ele>36</ele>
        <time>2016-05-06T12:00:28Z</time>
      </trkpt>
      <trkpt lat="50.64655" lon="1.69984">
        <ele>36.6</ele>
        <time>2016-05-06T12:00:30Z</time>
      </trkpt>
      <trkpt lat="50.64648" lon="1.69972">
        <ele>37</ele>
        <time>2016-05-06T12:00:32Z</time>
      </trkpt>
      <trkpt lat="50.6464" lon="1.69962">
        <ele>37.4</ele>
        <time>2016-05-06T12:00:34Z</time>
      </trkpt>
      <trkpt lat="50.64631" lon="1.69954">
        <ele>37.8</ele>
        <time>2016-05-06T12:00:36Z</time>
      </trkpt>
      <trkpt lat="50.64621" lon="1.69948">
        <ele>38.1</ele>
        <time>2016-05-06T12:00:38Z</time>
      </trkpt>
      <trkpt lat="50.64611" lon="1.69944">
        <ele>38.5</ele>
        <time>2016-05-06T12:00:40Z</time>
      </trkpt>
      <trkpt lat="50.64602" lon="1.69941">
        <ele>38.8</ele>
        <time>2016-05-06T12:00:42Z</time>
      </trkpt>
      <trkpt lat="50.64593" lon="1.69938">
        <ele>39.2</ele>
        <time>2016-05-06T12:00:44Z</time>
      </trkpt>
      <trkpt lat="50.64584" lon="1.69937">
        <ele>39.7</ele>
        <time>2016-05-06T12:00:46Z</time>
      </trkpt>
      <trkpt lat="50.64571" lon="1.69937">
        <ele>40.2</ele>
        <time>2016-05-06T12:00:49Z</time>
      </trkpt>
      <trkpt lat="50.64558" lon="1.69938">
        <ele>40.8</ele>
        <time>2016-05-06T12:00:52Z</time>
      </trkpt>
      <trkpt lat="50.64545" lon="1.69939">
        <ele>41.4</ele>
        <time>2016-05-06T12:00:55Z</time>
      </trkpt>
      <trkpt lat="50.64534" lon="1.69941">
        <ele>42</ele>
        <time>2016-05-06T12:00:58Z</time>
      </trkpt>
      <trkpt lat="50.64522" lon="1.69943">
        <ele>42.7</ele>
        <time>2016-05-06T12:01:01Z</time>
      </trkpt>
      <trkpt lat="50.64511" lon="1.69945">
        <ele>43.3</ele>
        <time>2016-05-06T12:01:04Z</time>
      </trkpt>
      <trkpt lat="50.645" lon="1.69945">
        <ele>44</ele>
        <time>2016-05-06T12:01:07Z</time>
      </trkpt>
      <trkpt lat="50.6449" lon="1.69944">
        <ele>44.7</ele>
        <time>2016-05-06T12:01:10Z</time>
      </trkpt>
      <trkpt lat="50.64479" lon="1.6994">
        <ele>45.3</ele>
        <time>2016-05-06T12:01:13Z</time>
      </trkpt>
      <trkpt lat="50.64469" lon="1.69934">
        <ele>46</ele>
        <time>2016-05-06T12:01:16Z</time>
      </trkpt>
      <trkpt lat="50.64458" lon="1.69927">
        <ele>46.7</ele>
        <time>2016-05-06T12:01:19Z</time>
      </trkpt>
      <trkpt lat="50.64447" lon="1.69918">
        <ele>47.4</ele>
        <time>2016-05-06T12:01:22Z</time>
      </trkpt>
      <trkpt lat="50.64435" lon="1.6991">
        <ele>48.1</ele>
        <time>2016-05-06T12:01:25Z</time>
      </trkpt>
      <trkpt lat="50.64423" lon="1.699">
        <ele>48.9</ele>
        <time>2016-05-06T12:01:28Z</time>
      </trkpt>
      <trkpt lat="50.64414" lon="1.69894">
        <ele>49.4</ele>
        <time>2016-05-06T12:01:30Z</time>
      </trkpt>
      <trkpt lat="50.64405" lon="1.69887">
        <ele>49.9</ele>
        <time>2016-05-06T12:01:32Z</time>
      </trkpt>
      <trkpt lat="50.64396" lon="1.69881">
        <ele>50.4</ele>
        <time>2016-05-06T12:01:34Z</time>
      </trkpt>
      <trkpt lat="50.64387" lon="1.69874">
        <ele>50.8</ele>
        <time>2016-05-06T12:01:36Z</time>
      </trkpt>
      <trkpt lat="50.64377" lon="1.69867">
        <ele>51.3</ele>
        <time>2016-05-06T12:01:38Z</time>
      </trkpt>
      <trkpt lat="50.64367" lon="1.69861">
        <ele>51.7</ele>
        <time>2016-05-06T12:01:40Z</time>
      </trkpt>
      <trkpt lat="50.64357" lon="1.69855">
        <ele>52</ele>
        <time>2016-05-06T12:01:42Z</time>
      </trkpt>
      <trkpt lat="50.64347" lon="1.69849">
        <ele>52.4</ele>
        <time>2016-05-06T12:01:44Z</time>
      </trkpt>
      <trkpt lat="50.64337" lon="1.69843">
        <ele>52.8</ele>
        <time>2016-05-06T12:01:46Z</time>
      </trkpt>
      <trkpt lat="50.64326" lon="1.69837">
        <ele>53.2</ele>
        <time>2016-05-06T12:01:48Z</time>
      </trkpt>
      <trkpt lat="50.64316" lon="1.69831">
        <ele>53.5</ele>
        <time>2016-05-06T12:01:50Z</time>
      </trkpt>
      <trkpt lat="50.64304" lon="1.69824">
        <ele>53.9</ele>
        <time>2016-05-06T12:01:52Z</time>
      </trkpt>
      <trkpt lat="50.64293" lon="1.69818">
        <ele>54.3</ele>
        <time>2016-05-06T12:01:54Z</time>
      </trkpt>
      <trkpt lat="50.64282" lon="1.69812">
        <ele>54.7</ele>
        <time>2016-05-06T12:01:56Z</time>
      </trkpt>
      <trkpt lat="50.64271" lon="1.69805">
        <ele>55</ele>
        <time>2016-05-06T12:01:58Z</time>
      </trkpt>
      <trkpt lat="50.6426" lon="1.69797">
        <ele>55.4</ele>
        <time>2016-05-06T12:02:00Z</time>
      </trkpt>
      <trkpt lat="50.64249" lon="1.69787">
        <ele>55.7</ele>
        <time>2016-05-06T12:02:02Z</time>
      </trkpt>
      <trkpt lat="50.6424" lon="1.69776">
        <ele>56.1</ele>
        <time>2016-05-06T12:02:04Z</time>
      </trkpt>
      <trkpt lat="50.6423" lon="1.69764">
        <ele>56.4</ele>
        <time>2016-05-06T12:02:06Z</time>
      </trkpt>
      <trkpt lat="50.6422" lon="1.69753">
        <ele>56.7</ele>
        <time>2016-05-06T12:02:08Z</time>
      </trkpt>
      <trkpt lat="50.64208" lon="1.69746">
        <ele>57</ele>
        <time>2016-05-06T12:02:10Z</time>
      </trkpt>
      <trkpt lat="50.64194" lon="1.69743">
        <ele>57.3</ele>
        <time>2016-05-06T12:02:12Z</time>
      </trkpt>
      <trkpt lat="50.64181" lon="1.69742">
        <ele>57.5</ele>
        <time>2016-05-06T12:02:14Z</time>
      </trkpt>
      <trkpt lat="50.64167" lon="1.69742">
        <ele>57.7</ele>
        <time>2016-05-06T12:02:16Z</time>
      </trkpt>
      <trkpt lat="50.64154" lon="1.6974">
        <ele>57.9</ele>
        <time>2016-05-06T12:02:18Z</time>
      </trkpt>
      <trkpt lat="50.6414" lon="1.69739">
        <ele>58.1</ele>
        <time>2016-05-06T12:02:20Z</time>
      </trkpt>
      <trkpt lat="50.64126" lon="1.69738">
        <ele>58.3</ele>
        <time>2016-05-06T12:02:22Z</time>
      </trkpt>
      <trkpt lat="50.64111" lon="1.69738">
        <ele>58.4</ele>
        <time>2016-05-06T12:02:24Z</time>
      </trkpt>
      <trkpt lat="50.64095" lon="1.69737">
        <ele>58.5</ele>
        <time>2016-05-06T12:02:26Z</time>
      </trkpt>
      <trkpt lat="50.6408" lon="1.69737">
        <ele>58.7</ele>
        <time>2016-05-06T12:02:28Z</time>
      </trkpt>
      <trkpt lat="50.64064" lon="1.69737">
        <ele>58.8</ele>
        <time>2016-05-06T12:02:30Z</time>
      </trkpt>
      <trkpt lat="50.64048" lon="1.69736">
        <ele>58.9</ele>
        <time>2016-05-06T12:02:32Z</time>
      </trkpt>
      <trkpt lat="50.64032" lon="1.69736">
        <ele>59</ele>
        <time>2016-05-06T12:02:34Z</time>
      </trkpt>
      <trkpt lat="50.64017" lon="1.69735">
        <ele>59.1</ele>
        <time>2016-05-06T12:02:36Z</time>
      </trkpt>
      <trkpt lat="50.64001" lon="1.69735">
        <ele>59.1</ele>
        <time>2016-05-06T12:02:38Z</time>
      </trkpt>
      <trkpt lat="50.63984" lon="1.69734">
        <ele>59.2</ele>
        <time>2016-05-06T12:02:40Z</time>
      </trkpt>
      <trkpt lat="50.63968" lon="1.69733">
        <ele>59.3</ele>
        <time>2016-05-06T12:02:42Z</time>
      </trkpt>
      <trkpt lat="50.63953" lon="1.69732">
        <ele>59.3</ele>
        <time>2016-05-06T12:02:44Z</time>
      </trkpt>
      <trkpt lat="50.63938" lon="1.69731">
        <ele>59.4</ele>
        <time>2016-05-06T12:02:46Z</time>
      </trkpt>
      <trkpt lat="50.63924" lon="1.6973">
        <ele>59.4</ele>
        <time>2016-05-06T12:02:48Z</time>
      </trkpt>
      <trkpt lat="50.63911" lon="1.69729">
        <ele>59.5</ele>
        <time>2016-05-06T12:02:50Z</time>
      </trkpt>
      <trkpt lat="50.63897" lon="1.69729">
        <ele>59.6</ele>
        <time>2016-05-06T12:02:52Z</time>
      </trkpt>
      <trkpt lat="50.63884" lon="1.69728">
        <ele>59.6</ele>
        <time>2016-05-06T12:02:54Z</time>
      </trkpt>
      <trkpt lat="50.63871" lon="1.69727">
        <ele>59.7</ele>
        <time>2016-05-06T12:02:56Z</time>
      </trkpt>
      <trkpt lat="50.63858" lon="1.69727">
        <ele>59.7</ele>
        <time>2016-05-06T12:02:58Z</time>
      </trkpt>
      <trkpt lat="50.63844" lon="1.69727">
        <ele>59.8</ele>
        <time>2016-05-06T12:03:00Z</time>
      </trkpt>
      <trkpt lat="50.63831" lon="1.69725">
        <ele>60</ele>
        <time>2016-05-06T12:03:02Z</time>
      </trkpt>
      <trkpt lat="50.63817" lon="1.69721">
        <ele>60.1</ele>
        <time>2016-05-06T12:03:04Z</time>
      </trkpt>
      <trkpt lat="50.63803" lon="1.69713">
        <ele>60.2</ele>
        <time>2016-05-06T12:03:06Z</time>
      </trkpt>
      <trkpt lat="50.63792" lon="1.69701">
        <ele>60.3</ele>
        <time>2016-05-06T12:03:08Z</time>
      </trkpt>
      <trkpt lat="50.63782" lon="1.69687">
        <ele>60.4</ele>
        <time>2016-05-06T12:03:10Z</time>
      </trkpt>
      <trkpt lat="50.63774" lon="1.6967">
        <ele>60.5</ele>
        <time>2016-05-06T12:03:12Z</time>
      </trkpt>
      <trkpt lat="50.63767" lon="1.69653">
        <ele>60.6</ele>
        <time>2016-05-06T12:03:14Z</time>
      </trkpt>
      <trkpt lat="50.63759" lon="1.69636">
        <ele>60.6</ele>
        <time>2016-05-06T12:03:16Z</time>
      </trkpt>
      <trkpt lat="50.63751" lon="1.69619">
        <ele>60.7</ele>
        <time>2016-05-06T12:03:18Z</time>
      </trkpt>
      <trkpt lat="50.63743" lon="1.69604">
        <ele>60.8</ele>
        <time>2016-05-06T12:03:20Z</time>
      </trkpt>
      <trkpt lat="50.63736" lon="1.69588">
        <ele>60.9</ele>
        <time>2016-05-06T12:03:22Z</time>
      </trkpt>
      <trkpt lat="50.63729" lon="1.69573">
        <ele>61</ele>
        <time>2016-05-06T12:03:24Z</time>
      </trkpt>
      <trkpt lat="50.63721" lon="1.69558">
        <ele>61.2</ele>
        <time>2016-05-06T12:03:26Z</time>
      </trkpt>
      <trkpt lat="50.63714" lon="1.69543">
        <ele>61.3</ele>
        <time>2016-05-06T12:03:28Z</time>
      </trkpt>
      <trkpt lat="50.63707" lon="1.69529">
        <ele>61.5</ele>
        <time>2016-05-06T12:03:30Z</time>
      </trkpt>
      <trkpt lat="50.637" lon="1.69515">
        <ele>61.8</ele>
        <time>2016-05-06T12:03:32Z</time>
      </trkpt>
      <trkpt lat="50.63693" lon="1.69501">
        <ele>62</ele>
        <time>2016-05-06T12:03:34Z</time>
      </trkpt>
      <trkpt lat="50.63687" lon="1.69487">
        <ele>62.3</ele>
        <time>2016-05-06T12:03:36Z</time>
      </trkpt>
      <trkpt lat="50.6368" lon="1.69473">
        <ele>62.5</ele>
        <time>2016-05-06T12:03:38Z</time>
      </trkpt>
      <trkpt lat="50.63674" lon="1.6946">
        <ele>62.7</ele>
        <time>2016-05-06T12:03:40Z</time>
      </trkpt>
      <trkpt lat="50.63667" lon="1.69447">
        <ele>63</ele>
        <time>2016-05-06T12:03:42Z</time>
      </trkpt>
      <trkpt lat="50.6366" lon="1.69433">
        <ele>63.3</ele>
        <time>2016-05-06T12:03:44Z</time>
      </trkpt>
      <trkpt lat="50.63654" lon="1.6942">
        <ele>63.7</ele>
        <time>2016-05-06T12:03:46Z</time>
      </trkpt>
      <trkpt lat="50.63647" lon="1.69406">
        <ele>64</ele>
        <time>2016-05-06T12:03:48Z</time>
      </trkpt>
      <trkpt lat="50.63641" lon="1.69393">
        <ele>64.4</ele>
        <time>2016-05-06T12:03:50Z</time>
      </trkpt>
      <trkpt lat="50.63634" lon="1.69379">
        <ele>64.7</ele>
        <time>2016-05-06T12:03:52Z</time>
      </trkpt>
      <trkpt lat="50.63628" lon="1.69367">
        <ele>65</ele>
        <time>2016-05-06T12:03:54Z</time>
      </trkpt>
      <trkpt lat="50.63621" lon="1.69354">
        <ele>65.3</ele>
        <time>2016-05-06T12:03:56Z</time>
      </trkpt>
      <trkpt lat="50.63615" lon="1.6934">
        <ele>65.6</ele>
        <time>2016-05-06T12:03:58Z</time>
      </trkpt>
      <trkpt lat="50.63608" lon="1.69327">
        <ele>65.8</ele>
        <time>2016-05-06T12:04:00Z</time>
      </trkpt>
      <trkpt lat="50.63601" lon="1.69312">
        <ele>66.1</ele>
        <time>2016-05-06T12:04:02Z</time>
      </trkpt>
      <trkpt lat="50.63594" lon="1.69298">
        <ele>66.3</ele>
        <time>2016-05-06T12:04:04Z</time>
      </trkpt>
      <trkpt lat="50.63587" lon="1.69283">
        <ele>66.5</ele>
        <time>2016-05-06T12:04:06Z</time>
      </trkpt>
      <trkpt lat="50.6358" lon="1.69269">
        <ele>66.7</ele>
        <time>2016-05-06T12:04:08Z</time>
      </trkpt>
      <trkpt lat="50.63572" lon="1.69253">
        <ele>66.8</ele>
        <time>2016-05-06T12:04:10Z</time>
      </trkpt>
      <trkpt lat="50.63565" lon="1.69238">
        <ele>66.9</ele>
        <time>2016-05-06T12:04:12Z</time>
      </trkpt>
      <trkpt lat="50.63557" lon="1.69222">
        <ele>67.1</ele>
        <time>2016-05-06T12:04:14Z</time>
      </trkpt>
      <trkpt lat="50.6355" lon="1.69206">
        <ele>67.2</ele>
        <time>2016-05-06T12:04:16Z</time>
      </trkpt>
      <trkpt lat="50.63542" lon="1.69191">
        <ele>67.3</ele>
        <time>2016-05-06T12:04:18Z</time>
      </trkpt>
      <trkpt lat="50.63534" lon="1.69174">
        <ele>67.3</ele>
        <time>2016-05-06T12:04:20Z</time>
      </trkpt>
      <trkpt lat="50.63527" lon="1.69159">
        <ele>67.4</ele>
        <time>2016-05-06T12:04:22Z</time>
      </trkpt>
      <trkpt lat="50.63519" lon="1.69143">
        <ele>67.5</ele>
        <time>2016-05-06T12:04:24Z</time>
      </trkpt>
      <trkpt lat="50.63511" lon="1.69127">
        <ele>67.5</ele>
        <time>2016-05-06T12:04:26Z</time>
      </trkpt>
      <trkpt lat="50.63504" lon="1.69111">
        <ele>67.6</ele>
        <time>2016-05-06T12:04:28Z</time>
      </trkpt>
      <trkpt lat="50.63497" lon="1.69094">
        <ele>67.6</ele>
        <time>2016-05-06T12:04:30Z</time>
      </trkpt>
      <trkpt lat="50.6349" lon="1.69077">
        <ele>67.7</ele>
        <time>2016-05-06T12:04:32Z</time>
      </trkpt>
      <trkpt lat="50.63484" lon="1.69061">
        <ele>67.7</ele>
        <time>2016-05-06T12:04:34Z</time>
      </trkpt>
      <trkpt lat="50.63476" lon="1.69045">
        <ele>67.7</ele>
        <time>2016-05-06T12:04:36Z</time>
      </trkpt>
      <trkpt lat="50.63467" lon="1.69033">
        <ele>67.8</ele>
        <time>2016-05-06T12:04:38Z</time>
      </trkpt>
      <trkpt lat="50.63456" lon="1.69023">
        <ele>67.8</ele>
        <time>2016-05-06T12:04:40Z</time>
      </trkpt>
      <trkpt lat="50.63445" lon="1.69016">
        <ele>67.8</ele>
        <time>2016-05-06T12:04:42Z</time>
      </trkpt>
      <trkpt lat="50.63432" lon="1.69012">
        <ele>68</ele>
        <time>2016-05-06T12:04:44Z</time>
      </trkpt>
      <trkpt lat="50.63417" lon="1.69011">
        <ele>68.2</ele>
        <time>2016-05-06T12:04:46Z</time>
      </trkpt>
      <trkpt lat="50.63402" lon="1.69013">
        <ele>68.3</ele>
        <time>2016-05-06T12:04:48Z</time>
      </trkpt>
      <trkpt lat="50.63386" lon="1.69016">
        <ele>68.3</ele>
        <time>2016-05-06T12:04:50Z</time>
      </trkpt>
      <trkpt lat="50.6337" lon="1.69016">
        <ele>68.1</ele>
        <time>2016-05-06T12:04:52Z</time>
      </trkpt>
      <trkpt lat="50.63353" lon="1.69015">
        <ele>67.9</ele>
        <time>2016-05-06T12:04:54Z</time>
      </trkpt>
      <trkpt lat="50.63335" lon="1.69011">
        <ele>67.5</ele>
        <time>2016-05-06T12:04:56Z</time>
      </trkpt>
      <trkpt lat="50.63318" lon="1.69007">
        <ele>67.1</ele>
        <time>2016-05-06T12:04:58Z</time>
      </trkpt>
      <trkpt lat="50.633" lon="1.69002">
        <ele>66.7</ele>
        <time>2016-05-06T12:05:00Z</time>
      </trkpt>
      <trkpt lat="50.63284" lon="1.68997">
        <ele>66.1</ele>
        <time>2016-05-06T12:05:02Z</time>
      </trkpt>
      <trkpt lat="50.63267" lon="1.68992">
        <ele>65.7</ele>
        <time>2016-05-06T12:05:04Z</time>
      </trkpt>
      <trkpt lat="50.63252" lon="1.68984">
        <ele>65.3</ele>
        <time>2016-05-06T12:05:06Z</time>
      </trkpt>
      <trkpt lat="50.63237" lon="1.68974">
        <ele>64.9</ele>
        <time>2016-05-06T12:05:08Z</time>
      </trkpt>
      <trkpt lat="50.63222" lon="1.68963">
        <ele>64.5</ele>
        <time>2016-05-06T12:05:10Z</time>
      </trkpt>
      <trkpt lat="50.63208" lon="1.68951">
        <ele>64.1</ele>
        <time>2016-05-06T12:05:12Z</time>
      </trkpt>
      <trkpt lat="50.63193" lon="1.68939">
        <ele>63.7</ele>
        <time>2016-05-06T12:05:14Z</time>
      </trkpt>
      <trkpt lat="50.63178" lon="1.68927">
        <ele>63.4</ele>
        <time>2016-05-06T12:05:16Z</time>
      </trkpt>
      <trkpt lat="50.63164" lon="1.68916">
        <ele>63</ele>
        <time>2016-05-06T12:05:18Z</time>
      </trkpt>
      <trkpt lat="50.63149" lon="1.68904">
        <ele>62.7</ele>
        <time>2016-05-06T12:05:20Z</time>
      </trkpt>
      <trkpt lat="50.63135" lon="1.68893">
        <ele>62.4</ele>
        <time>2016-05-06T12:05:22Z</time>
      </trkpt>
      <trkpt lat="50.63122" lon="1.68882">
        <ele>62</ele>
        <time>2016-05-06T12:05:24Z</time>
      </trkpt>
      <trkpt lat="50.63108" lon="1.68873">
        <ele>61.6</ele>
        <time>2016-05-06T12:05:26Z</time>
      </trkpt>
      <trkpt lat="50.63095" lon="1.68865">
        <ele>61.3</ele>
        <time>2016-05-06T12:05:28Z</time>
      </trkpt>
      <trkpt lat="50.63082" lon="1.68861">
        <ele>61</ele>
        <time>2016-05-06T12:05:30Z</time>
      </trkpt>
      <trkpt lat="50.63067" lon="1.68862">
        <ele>60.7</ele>
        <time>2016-05-06T12:05:32Z</time>
      </trkpt>
      <trkpt lat="50.63055" lon="1.68868">
        <ele>60.4</ele>
        <time>2016-05-06T12:05:34Z</time>
      </trkpt>
      <trkpt lat="50.63042" lon="1.68875">
        <ele>60.2</ele>
        <time>2016-05-06T12:05:36Z</time>
      </trkpt>
      <trkpt lat="50.63029" lon="1.68883">
        <ele>60</ele>
        <time>2016-05-06T12:05:38Z</time>
      </trkpt>
      <trkpt lat="50.63016" lon="1.68891">
        <ele>59.8</ele>
        <time>2016-05-06T12:05:40Z</time>
      </trkpt>
      <trkpt lat="50.63002" lon="1.68899">
        <ele>59.5</ele>
        <time>2016-05-06T12:05:42Z</time>
      </trkpt>
      <trkpt lat="50.62988" lon="1.68907">
        <ele>59.2</ele>
        <time>2016-05-06T12:05:44Z</time>
      </trkpt>
      <trkpt lat="50.62975" lon="1.68916">
        <ele>58.9</ele>
        <time>2016-05-06T12:05:46Z</time>
      </trkpt>
      <trkpt lat="50.62961" lon="1.68925">
        <ele>58.7</ele>
        <time>2016-05-06T12:05:48Z</time>
      </trkpt>
      <trkpt lat="50.62949" lon="1.68936">
        <ele>58.5</ele>
        <time>2016-05-06T12:05:50Z</time>
      </trkpt>
      <trkpt lat="50.62937" lon="1.68949">
        <ele>58.3</ele>
        <time>2016-05-06T12:05:52Z</time>
      </trkpt>
      <trkpt lat="50.62925" lon="1.68965">
        <ele>58.1</ele>
        <time>2016-05-06T12:05:54Z</time>
      </trkpt>
      <trkpt lat="50.62913" lon="1.6898">
        <ele>57.9</ele>
        <time>2016-05-06T12:05:56Z</time>
      </trkpt>
      <trkpt lat="50.62901" lon="1.68994">
        <ele>57.7</ele>
        <time>2016-05-06T12:05:58Z</time>
      </trkpt>
      <trkpt lat="50.62889" lon="1.69007">
        <ele>57.6</ele>
        <time>2016-05-06T12:06:00Z</time>
      </trkpt>
      <trkpt lat="50.62877" lon="1.69018">
        <ele>57.5</ele>
        <time>2016-05-06T12:06:02Z</time>
      </trkpt>
      <trkpt lat="50.62865" lon="1.69028">
        <ele>57.4</ele>
        <time>2016-05-06T12:06:04Z</time>
      </trkpt>
      <trkpt lat="50.62852" lon="1.69037">
        <ele>57.3</ele>
        <time>2016-05-06T12:06:06Z</time>
      </trkpt>
      <trkpt lat="50.62839" lon="1.69042">
        <ele>57.2</ele>
        <time>2016-05-06T12:06:08Z</time>
      </trkpt>
      <trkpt lat="50.62826" lon="1.69041">
        <ele>57.1</ele>
        <time>2016-05-06T12:06:10Z</time>
      </trkpt>
      <trkpt lat="50.62813" lon="1.69038">
        <ele>57.1</ele>
        <time>2016-05-06T12:06:12Z</time>
      </trkpt>
      <trkpt lat="50.62801" lon="1.69034">
        <ele>57</ele>
        <time>2016-05-06T12:06:14Z</time>
      </trkpt>
      <trkpt lat="50.62789" lon="1.6903">
        <ele>57</ele>
        <time>2016-05-06T12:06:16Z</time>
      </trkpt>
      <trkpt lat="50.62777" lon="1.69027">
        <ele>57.1</ele>
        <time>2016-05-06T12:06:18Z</time>
      </trkpt>
      <trkpt lat="50.62766" lon="1.69023">
        <ele>57.2</ele>
        <time>2016-05-06T12:06:20Z</time>
      </trkpt>
      <trkpt lat="50.62754" lon="1.6902">
        <ele>57.3</ele>
        <time>2016-05-06T12:06:22Z</time>
      </trkpt>
      <trkpt lat="50.62744" lon="1.69015">
        <ele>57.4</ele>
        <time>2016-05-06T12:06:24Z</time>
      </trkpt>
      <trkpt lat="50.62733" lon="1.69011">
        <ele>57.6</ele>
        <time>2016-05-06T12:06:26Z</time>
      </trkpt>
      <trkpt lat="50.62723" lon="1.69006">
        <ele>57.8</ele>
        <time>2016-05-06T12:06:28Z</time>
      </trkpt>
      <trkpt lat="50.62713" lon="1.69002">
        <ele>58</ele>
        <time>2016-05-06T12:06:30Z</time>
      </trkpt>
      <trkpt lat="50.62703" lon="1.68998">
        <ele>58.2</ele>
        <time>2016-05-06T12:06:32Z</time>
      </trkpt>
      <trkpt lat="50.62694" lon="1.68993">
        <ele>58.4</ele>
        <time>2016-05-06T12:06:34Z</time>
      </trkpt>
      <trkpt lat="50.62684" lon="1.68989">
        <ele>58.5</ele>
        <time>2016-05-06T12:06:36Z</time>
      </trkpt>
      <trkpt lat="50.62674" lon="1.68984">
        <ele>58.7</ele>
        <time>2016-05-06T12:06:38Z</time>
      </trkpt>
      <trkpt lat="50.62665" lon="1.6898">
        <ele>58.8</ele>
        <time>2016-05-06T12:06:40Z</time>
      </trkpt>
      <trkpt lat="50.62656" lon="1.68977">
        <ele>59</ele>
        <time>2016-05-06T12:06:42Z</time>
      </trkpt>
      <trkpt lat="50.62644" lon="1.68971">
        <ele>59.3</ele>
        <time>2016-05-06T12:06:45Z</time>
      </trkpt>
      <trkpt lat="50.62632" lon="1.68965">
        <ele>59.6</ele>
        <time>2016-05-06T12:06:48Z</time>
      </trkpt>
      <trkpt lat="50.62621" lon="1.68959">
        <ele>59.9</ele>
        <time>2016-05-06T12:06:51Z</time>
      </trkpt>
      <trkpt lat="50.6261" lon="1.68954">
        <ele>60.3</ele>
        <time>2016-05-06T12:06:54Z</time>
      </trkpt>
      <trkpt lat="50.62601" lon="1.6895">
        <ele>60.7</ele>
        <time>2016-05-06T12:06:57Z</time>
      </trkpt>
      <trkpt lat="50.62591" lon="1.68945">
        <ele>61.1</ele>
        <time>2016-05-06T12:07:00Z</time>
      </trkpt>
      <trkpt lat="50.62582" lon="1.68942">
        <ele>61.5</ele>
        <time>2016-05-06T12:07:03Z</time>
      </trkpt>
      <trkpt lat="50.62573" lon="1.68938">
        <ele>62</ele>
        <time>2016-05-06T12:07:06Z</time>
      </trkpt>
      <trkpt lat="50.62565" lon="1.68933">
        <ele>62.5</ele>
        <time>2016-05-06T12:07:09Z</time>
      </trkpt>
      <trkpt lat="50.62553" lon="1.68928">
        <ele>63.3</ele>
        <time>2016-05-06T12:07:13Z</time>
      </trkpt>
      <trkpt lat="50.62544" lon="1.68924">
        <ele>63.9</ele>
        <time>2016-05-06T12:07:16Z</time>
      </trkpt>
      <trkpt lat="50.62533" lon="1.68917">
        <ele>64.7</ele>
        <time>2016-05-06T12:07:20Z</time>
      </trkpt>
      <trkpt lat="50.62525" lon="1.68913">
        <ele>65.3</ele>
        <time>2016-05-06T12:07:23Z</time>
      </trkpt>
      <trkpt lat="50.62515" lon="1.68907">
        <ele>66.2</ele>
        <time>2016-05-06T12:07:27Z</time>
      </trkpt>
      <trkpt lat="50.62506" lon="1.68902">
        <ele>66.9</ele>
        <time>2016-05-06T12:07:30Z</time>
      </trkpt>
      <trkpt lat="50.62496" lon="1.68896">
        <ele>67.9</ele>
        <time>2016-05-06T12:07:34Z</time>
      </trkpt>
      <trkpt lat="50.62487" lon="1.68891">
        <ele>68.8</ele>
        <time>2016-05-06T12:07:38Z</time>
      </trkpt>
      <trkpt lat="50.62478" lon="1.68885">
        <ele>69.8</ele>
        <time>2016-05-06T12:07:42Z</time>
      </trkpt>
      <trkpt lat="50.62468" lon="1.68879">
        <ele>70.8</ele>
        <time>2016-05-06T12:07:46Z</time>
      </trkpt>
      <trkpt lat="50.62459" lon="1.68874">
        <ele>71.8</ele>
        <time>2016-05-06T12:07:50Z</time>
      </trkpt>
      <trkpt lat="50.6245" lon="1.68869">
        <ele>72.8</ele>
        <time>2016-05-06T12:07:54Z</time>
      </trkpt>
      <trkpt lat="50.62443" lon="1.6886">
        <ele>74</ele>
        <time>2016-05-06T12:07:58Z</time>
      </trkpt>
      <trkpt lat="50.62436" lon="1.6885">
        <ele>75</ele>
        <time>2016-05-06T12:08:02Z</time>
      </trkpt>
      <trkpt lat="50.62429" lon="1.68837">
        <ele>76.4</ele>
        <time>2016-05-06T12:08:07Z</time>
      </trkpt>
      <trkpt lat="50.6242" lon="1.68826">
        <ele>77.9</ele>
        <time>2016-05-06T12:08:12Z</time>
      </trkpt>
      <trkpt lat="50.62412" lon="1.68817">
        <ele>79.4</ele>
        <time>2016-05-06T12:08:17Z</time>
      </trkpt>
      <trkpt lat="50.62401" lon="1.68812">
        <ele>80.9</ele>
        <time>2016-05-06T12:08:22Z</time>
      </trkpt>
      <trkpt lat="50.62392" lon="1.68812">
        <ele>82</ele>
        <time>2016-05-06T12:08:26Z</time>
      </trkpt>
      <trkpt lat="50.62381" lon="1.68816">
        <ele>83.5</ele>
        <time>2016-05-06T12:08:31Z</time>
      </trkpt>
      <trkpt lat="50.62373" lon="1.68825">
        <ele>84.9</ele>
        <time>2016-05-06T12:08:36Z</time>
      </trkpt>
      <trkpt lat="50.62369" lon="1.68838">
        <ele>86.4</ele>
        <time>2016-05-06T12:08:41Z</time>
      </trkpt>
      <trkpt lat="50.62364" lon="1.68854">
        <ele>87.8</ele>
        <time>2016-05-06T12:08:46Z</time>
      </trkpt>
      <trkpt lat="50.62358" lon="1.68869">
        <ele>89.2</ele>
        <time>2016-05-06T12:08:51Z</time>
      </trkpt>
      <trkpt lat="50.62352" lon="1.68883">
        <ele>90.7</ele>
        <time>2016-05-06T12:08:56Z</time>
      </trkpt>
      <trkpt lat="50.62343" lon="1.68892">
        <ele>92.1</ele>
        <time>2016-05-06T12:09:01Z</time>
      </trkpt>
      <trkpt lat="50.62335" lon="1.68898">
        <ele>93.2</ele>
        <time>2016-05-06T12:09:05Z</time>
      </trkpt>
      <trkpt lat="50.62325" lon="1.689">
        <ele>94.6</ele>
        <time>2016-05-06T12:09:10Z</time>
      </trkpt>
      <trkpt lat="50.62315" lon="1.68897">
        <ele>96.1</ele>
        <time>2016-05-06T12:09:15Z</time>
      </trkpt>
      <trkpt lat="50.62306" lon="1.68895">
        <ele>97.3</ele>
        <time>2016-05-06T12:09:19Z</time>
      </trkpt>
      <trkpt lat="50.62295" lon="1.68893">
        <ele>98.8</ele>
        <time>2016-05-06T12:09:24Z</time>
      </trkpt>
      <trkpt lat="50.62285" lon="1.68889">
        <ele>100.3</ele>
        <time>2016-05-06T12:09:29Z</time>
      </trkpt>
      <trkpt lat="50.62275" lon="1.68885">
        <ele>101.5</ele>
        <time>2016-05-06T12:09:33Z</time>
      </trkpt>
      <trkpt lat="50.62264" lon="1.68882">
        <ele>102.6</ele>
        <time>2016-05-06T12:09:37Z</time>
      </trkpt>
      <trkpt lat="50.62254" lon="1.68876">
        <ele>104</ele>
        <time>2016-05-06T12:09:42Z</time>
      </trkpt>
      <trkpt lat="50.62245" lon="1.68869">
        <ele>105.6</ele>
        <time>2016-05-06T12:09:47Z</time>
      </trkpt>
      <trkpt lat="50.62236" lon="1.68861">
        <ele>107.1</ele>
        <time>2016-05-06T12:09:52Z</time>
      </trkpt>
      <trkpt lat="50.62228" lon="1.68854">
        <ele>108.4</ele>
        <time>2016-05-06T12:09:57Z</time>
      </trkpt>
      <trkpt lat="50.6222" lon="1.68843">
        <ele>109.9</ele>
        <time>2016-05-06T12:10:03Z</time>
      </trkpt>
      <trkpt lat="50.62211" lon="1.68833">
        <ele>111.1</ele>
        <time>2016-05-06T12:10:08Z</time>
      </trkpt>
      <trkpt lat="50.62202" lon="1.68826">
        <ele>112.6</ele>
        <time>2016-05-06T12:10:13Z</time>
      </trkpt>
      <trkpt lat="50.62194" lon="1.68816">
        <ele>113.9</ele>
        <time>2016-05-06T12:10:18Z</time>
      </trkpt>
      <trkpt lat="50.62185" lon="1.68805">
        <ele>115.2</ele>
        <time>2016-05-06T12:10:23Z</time>
      </trkpt>
      <trkpt lat="50.62176" lon="1.68796">
        <ele>116.7</ele>
        <time>2016-05-06T12:10:28Z</time>
      </trkpt>
      <trkpt lat="50.62168" lon="1.68787">
        <ele>118.1</ele>
        <time>2016-05-06T12:10:33Z</time>
      </trkpt>
      <trkpt lat="50.6216" lon="1.68778">
        <ele>119.5</ele>
        <time>2016-05-06T12:10:38Z</time>
      </trkpt>
      <trkpt lat="50.62151" lon="1.68769">
        <ele>120.8</ele>
        <time>2016-05-06T12:10:43Z</time>
      </trkpt>
      <trkpt lat="50.62143" lon="1.6876">
        <ele>122.2</ele>
        <time>2016-05-06T12:10:48Z</time>
      </trkpt>
      <trkpt lat="50.62134" lon="1.6875">
        <ele>123.5</ele>
        <time>2016-05-06T12:10:53Z</time>
      </trkpt>
      <trkpt lat="50.62125" lon="1.6874">
        <ele>124.9</ele>
        <time>2016-05-06T12:10:58Z</time>
      </trkpt>
      <trkpt lat="50.62116" lon="1.68731">
        <ele>126.3</ele>
        <time>2016-05-06T12:11:03Z</time>
      </trkpt>
      <trkpt lat="50.62108" lon="1.6872">
        <ele>127.5</ele>
        <time>2016-05-06T12:11:08Z</time>
      </trkpt>
      <trkpt lat="50.62099" lon="1.68712">
        <ele>128.8</ele>
        <time>2016-05-06T12:11:13Z</time>
      </trkpt>
      <trkpt lat="50.62091" lon="1.68703">
        <ele>130.2</ele>
        <time>2016-05-06T12:11:18Z</time>
      </trkpt>
      <trkpt lat="50.62082" lon="1.68695">
        <ele>131.6</ele>
        <time>2016-05-06T12:11:23Z</time>
      </trkpt>
      <trkpt lat="50.62074" lon="1.68686">
        <ele>132.8</ele>
        <time>2016-05-06T12:11:28Z</time>
      </trkpt>
      <trkpt lat="50.62065" lon="1.68676">
        <ele>134.1</ele>
        <time>2016-05-06T12:11:33Z</time>
      </trkpt>
      <trkpt lat="50.62057" lon="1.68665">
        <ele>135.5</ele>
        <time>2016-05-06T12:11:38Z</time>
      </trkpt>
      <trkpt lat="50.62048" lon="1.68656">
        <ele>136.7</ele>
        <time>2016-05-06T12:11:43Z</time>
      </trkpt>
      <trkpt lat="50.62039" lon="1.68645">
        <ele>138</ele>
        <time>2016-05-06T12:11:48Z</time>
      </trkpt>
      <trkpt lat="50.62031" lon="1.68635">
        <ele>139.3</ele>
        <time>2016-05-06T12:11:53Z</time>
      </trkpt>
      <trkpt lat="50.62022" lon="1.68623">
        <ele>140.7</ele>
        <time>2016-05-06T12:11:58Z</time>
      </trkpt>
      <trkpt lat="50.62016" lon="1.68614">
        <ele>141.7</ele>
        <time>2016-05-06T12:12:02Z</time>
      </trkpt>
      <trkpt lat="50.62007" lon="1.68603">
        <ele>143.1</ele>
        <time>2016-05-06T12:12:07Z</time>
      </trkpt>
      <trkpt lat="50.61999" lon="1.68593">
        <ele>144.4</ele>
        <time>2016-05-06T12:12:12Z</time>
      </trkpt>
      <trkpt lat="50.61991" lon="1.68583">
        <ele>145.7</ele>
        <time>2016-05-06T12:12:17Z</time>
      </trkpt>
      <trkpt lat="50.61984" lon="1.68571">
        <ele>147.1</ele>
        <time>2016-05-06T12:12:22Z</time>
      </trkpt>
      <trkpt lat="50.61976" lon="1.68561">
        <ele>148.3</ele>
        <time>2016-05-06T12:12:27Z</time>
      </trkpt>
      <trkpt lat="50.61969" lon="1.68549">
        <ele>149.5</ele>
        <time>2016-05-06T12:12:32Z</time>
      </trkpt>
      <trkpt lat="50.61962" lon="1.68538">
        <ele>150.5</ele>
        <time>2016-05-06T12:12:36Z</time>
      </trkpt>
      <trkpt lat="50.61956" lon="1.68528">
        <ele>151.6</ele>
        <time>2016-05-06T12:12:40Z</time>
      </trkpt>
      <trkpt lat="50.61949" lon="1.68518">
        <ele>152.6</ele>
        <time>2016-05-06T12:12:44Z</time>
      </trkpt>
      <trkpt lat="50.61941" lon="1.68507">
        <ele>153.6</ele>
        <time>2016-05-06T12:12:48Z</time>
      </trkpt>
      <trkpt lat="50.61932" lon="1.68496">
        <ele>154.6</ele>
        <time>2016-05-06T12:12:52Z</time>
      </trkpt>
      <trkpt lat="50.61922" lon="1.68487">
        <ele>155.7</ele>
        <time>2016-05-06T12:12:56Z</time>
      </trkpt>
      <trkpt lat="50.61912" lon="1.68479">
        <ele>156.7</ele>
        <time>2016-05-06T12:13:00Z</time>
      </trkpt>
      <trkpt lat="50.61902" lon="1.68472">
        <ele>157.7</ele>
        <time>2016-05-06T12:13:04Z</time>
      </trkpt>
      <trkpt lat="50.61891" lon="1.68465">
        <ele>158.7</ele>
        <time>2016-05-06T12:13:08Z</time>
      </trkpt>
      <trkpt lat="50.61881" lon="1.68458">
        <ele>159.8</ele>
        <time>2016-05-06T12:13:12Z</time>
      </trkpt>
      <trkpt lat="50.6187" lon="1.68451">
        <ele>160.9</ele>
        <time>2016-05-06T12:13:16Z</time>
      </trkpt>
      <trkpt lat="50.61859" lon="1.68444">
        <ele>162.1</ele>
        <time>2016-05-06T12:13:20Z</time>
      </trkpt>
      <trkpt lat="50.61851" lon="1.68439">
        <ele>162.8</ele>
        <time>2016-05-06T12:13:23Z</time>
      </trkpt>
      <trkpt lat="50.61842" lon="1.68433">
        <ele>163.6</ele>
        <time>2016-05-06T12:13:26Z</time>
      </trkpt>
      <trkpt lat="50.61833" lon="1.68426">
        <ele>164.4</ele>
        <time>2016-05-06T12:13:29Z</time>
      </trkpt>
      <trkpt lat="50.61824" lon="1.68419">
        <ele>165.2</ele>
        <time>2016-05-06T12:13:32Z</time>
      </trkpt>
      <trkpt lat="50.61816" lon="1.6841">
        <ele>165.9</ele>
        <time>2016-05-06T12:13:35Z</time>
      </trkpt>
      <trkpt lat="50.61808" lon="1.68402">
        <ele>166.6</ele>
        <time>2016-05-06T12:13:38Z</time>
      </trkpt>
      <trkpt lat="50.61799" lon="1.68393">
        <ele>167.3</ele>
        <time>2016-05-06T12:13:41Z</time>
      </trkpt>
      <trkpt lat="50.6179" lon="1.68384">
        <ele>168</ele>
        <time>2016-05-06T12:13:44Z</time>
      </trkpt>
      <trkpt lat="50.61781" lon="1.68377">
        <ele>168.6</ele>
        <time>2016-05-06T12:13:47Z</time>
      </trkpt>
      <trkpt lat="50.61772" lon="1.68369">
        <ele>169.2</ele>
        <time>2016-05-06T12:13:50Z</time>
      </trkpt>
      <trkpt lat="50.61763" lon="1.68361">
        <ele>169.9</ele>
        <time>2016-05-06T12:13:53Z</time>
      </trkpt>
      <trkpt lat="50.61755" lon="1.68353">
        <ele>170.5</ele>
        <time>2016-05-06T12:13:56Z</time>
      </trkpt>
      <trkpt lat="50.61746" lon="1.68345">
        <ele>171.1</ele>
        <time>2016-05-06T12:13:59Z</time>
      </trkpt>
      <trkpt lat="50.61738" lon="1.68335">
        <ele>171.8</ele>
        <time>2016-05-06T12:14:02Z</time>
      </trkpt>
      <trkpt lat="50.61729" lon="1.68325">
        <ele>172.4</ele>
        <time>2016-05-06T12:14:05Z</time>
      </trkpt>
      <trkpt lat="50.6172" lon="1.68313">
        <ele>173.1</ele>
        <time>2016-05-06T12:14:08Z</time>
      </trkpt>
      <trkpt lat="50.6171" lon="1.68302">
        <ele>173.6</ele>
        <time>2016-05-06T12:14:11Z</time>
      </trkpt>
      <trkpt lat="50.61699" lon="1.68292">
        <ele>174.1</ele>
        <time>2016-05-06T12:14:14Z</time>
      </trkpt>
      <trkpt lat="50.61691" lon="1.68285">
        <ele>174.3</ele>
        <time>2016-05-06T12:14:16Z</time>
      </trkpt>
      <trkpt lat="50.61682" lon="1.68279">
        <ele>174.5</ele>
        <time>2016-05-06T12:14:18Z</time>
      </trkpt>
      <trkpt lat="50.61672" lon="1.68274">
        <ele>174.7</ele>
        <time>2016-05-06T12:14:20Z</time>
      </trkpt>
      <trkpt lat="50.61662" lon="1.68271">
        <ele>174.9</ele>
        <time>2016-05-06T12:14:22Z</time>
      </trkpt>
      <trkpt lat="50.61651" lon="1.68268">
        <ele>175.1</ele>
        <time>2016-05-06T12:14:24Z</time>
      </trkpt>
      <trkpt lat="50.61638" lon="1.68267">
        <ele>175.2</ele>
        <time>2016-05-06T12:14:26Z</time>
      </trkpt>
      <trkpt lat="50.61625" lon="1.68269">
        <ele>175.4</ele>
        <time>2016-05-06T12:14:28Z</time>
      </trkpt>
      <trkpt lat="50.61612" lon="1.68271">
        <ele>175.5</ele>
        <time>2016-05-06T12:14:30Z</time>
      </trkpt>
      <trkpt lat="50.61598" lon="1.68274">
        <ele>175.4</ele>
        <time>2016-05-06T12:14:32Z</time>
      </trkpt>
      <trkpt lat="50.61583" lon="1.68277">
        <ele>175.3</ele>
        <time>2016-05-06T12:14:34Z</time>
      </trkpt>
      <trkpt lat="50.61567" lon="1.6828">
        <ele>175.2</ele>
        <time>2016-05-06T12:14:36Z</time>
      </trkpt>
      <trkpt lat="50.61551" lon="1.68283">
        <ele>175</ele>
        <time>2016-05-06T12:14:38Z</time>
      </trkpt>
      <trkpt lat="50.61535" lon="1.68286">
        <ele>174.7</ele>
        <time>2016-05-06T12:14:40Z</time>
      </trkpt>
      <trkpt lat="50.61518" lon="1.68289">
        <ele>174.2</ele>
        <time>2016-05-06T12:14:42Z</time>
      </trkpt>
      <trkpt lat="50.61501" lon="1.68292">
        <ele>173.8</ele>
        <time>2016-05-06T12:14:44Z</time>
      </trkpt>
      <trkpt lat="50.61484" lon="1.68296">
        <ele>173.3</ele>
        <time>2016-05-06T12:14:46Z</time>
      </trkpt>
      <trkpt lat="50.61467" lon="1.68298">
        <ele>172.9</ele>
        <time>2016-05-06T12:14:48Z</time>
      </trkpt>
      <trkpt lat="50.6145" lon="1.68301">
        <ele>172.4</ele>
        <time>2016-05-06T12:14:50Z</time>
      </trkpt>
      <trkpt lat="50.61435" lon="1.68304">
        <ele>171.8</ele>
        <time>2016-05-06T12:14:52Z</time>
      </trkpt>
      <trkpt lat="50.61419" lon="1.68308">
        <ele>171.3</ele>
        <time>2016-05-06T12:14:54Z</time>
      </trkpt>
      <trkpt lat="50.61405" lon="1.6831">
        <ele>170.9</ele>
        <time>2016-05-06T12:14:56Z</time>
      </trkpt>
      <trkpt lat="50.61391" lon="1.68314">
        <ele>170.5</ele>
        <time>2016-05-06T12:14:58Z</time>
      </trkpt>
      <trkpt lat="50.61379" lon="1.6832">
        <ele>170.2</ele>
        <time>2016-05-06T12:15:00Z</time>
      </trkpt>
      <trkpt lat="50.61368" lon="1.68328">
        <ele>170</ele>
        <time>2016-05-06T12:15:02Z</time>
      </trkpt>
      <trkpt lat="50.6136" lon="1.68338">
        <ele>169.8</ele>
        <time>2016-05-06T12:15:04Z</time>
      </trkpt>
      <trkpt lat="50.61352" lon="1.68349">
        <ele>169.7</ele>
        <time>2016-05-06T12:15:06Z</time>
      </trkpt>
      <trkpt lat="50.61344" lon="1.6836">
        <ele>169.8</ele>
        <time>2016-05-06T12:15:08Z</time>
      </trkpt>
      <trkpt lat="50.61338" lon="1.68371">
        <ele>169.9</ele>
        <time>2016-05-06T12:15:10Z</time>
      </trkpt>
      <trkpt lat="50.61334" lon="1.68384">
        <ele>170.1</ele>
        <time>2016-05-06T12:15:12Z</time>
      </trkpt>
      <trkpt lat="50.61329" lon="1.68399">
        <ele>170.3</ele>
        <time>2016-05-06T12:15:14Z</time>
      </trkpt>
      <trkpt lat="50.61323" lon="1.68416">
        <ele>170.5</ele>
        <time>2016-05-06T12:15:16Z</time>
      </trkpt>
      <trkpt lat="50.61318" lon="1.6843">
        <ele>170.7</ele>
        <time>2016-05-06T12:15:18Z</time>
      </trkpt>
      <trkpt lat="50.61312" lon="1.68445">
        <ele>170.9</ele>
        <time>2016-05-06T12:15:20Z</time>
      </trkpt>
      <trkpt lat="50.61305" lon="1.68458">
        <ele>171.1</ele>
        <time>2016-05-06T12:15:22Z</time>
      </trkpt>
      <trkpt lat="50.61298" lon="1.68473">
        <ele>171.3</ele>
        <time>2016-05-06T12:15:24Z</time>
      </trkpt>
      <trkpt lat="50.61289" lon="1.6849">
        <ele>171.4</ele>
        <time>2016-05-06T12:15:26Z</time>
      </trkpt>
      <trkpt lat="50.61279" lon="1.68508">
        <ele>171.3</ele>
        <time>2016-05-06T12:15:28Z</time>
      </trkpt>
      <trkpt lat="50.61269" lon="1.68527">
        <ele>171.2</ele>
        <time>2016-05-06T12:15:30Z</time>
      </trkpt>
      <trkpt lat="50.61263" lon="1.6855">
        <ele>171</ele>
        <time>2016-05-06T12:15:32Z</time>
      </trkpt>
      <trkpt lat="50.61259" lon="1.68576">
        <ele>170.6</ele>
        <time>2016-05-06T12:15:34Z</time>
      </trkpt>
      <trkpt lat="50.61256" lon="1.68603">
        <ele>169.9</ele>
        <time>2016-05-06T12:15:36Z</time>
      </trkpt>
      <trkpt lat="50.61254" lon="1.68629">
        <ele>169.2</ele>
        <time>2016-05-06T12:15:38Z</time>
      </trkpt>
      <trkpt lat="50.61252" lon="1.68655">
        <ele>168.5</ele>
        <time>2016-05-06T12:15:40Z</time>
      </trkpt>
      <trkpt lat="50.6125" lon="1.68681">
        <ele>167.9</ele>
        <time>2016-05-06T12:15:42Z</time>
      </trkpt>
      <trkpt lat="50.61249" lon="1.68705">
        <ele>167.3</ele>
        <time>2016-05-06T12:15:44Z</time>
      </trkpt>
      <trkpt lat="50.61247" lon="1.68729">
        <ele>166.8</ele>
        <time>2016-05-06T12:15:46Z</time>
      </trkpt>
      <trkpt lat="50.61245" lon="1.68753">
        <ele>166.2</ele>
        <time>2016-05-06T12:15:48Z</time>
      </trkpt>
      <trkpt lat="50.61243" lon="1.68778">
        <ele>165.8</ele>
        <time>2016-05-06T12:15:50Z</time>
      </trkpt>
      <trkpt lat="50.61241" lon="1.68802">
        <ele>165.4</ele>
        <time>2016-05-06T12:15:52Z</time>
      </trkpt>
      <trkpt lat="50.61238" lon="1.68827">
        <ele>164.9</ele>
        <time>2016-05-06T12:15:54Z</time>
      </trkpt>
      <trkpt lat="50.61235" lon="1.68852">
        <ele>164.5</ele>
        <time>2016-05-06T12:15:56Z</time>
      </trkpt>
      <trkpt lat="50.61231" lon="1.68876">
        <ele>164.1</ele>
        <time>2016-05-06T12:15:58Z</time>
      </trkpt>
      <trkpt lat="50.61228" lon="1.689">
        <ele>163.6</ele>
        <time>2016-05-06T12:16:00Z</time>
      </trkpt>
      <trkpt lat="50.61225" lon="1.68924">
        <ele>163.3</ele>
        <time>2016-05-06T12:16:02Z</time>
      </trkpt>
      <trkpt lat="50.61222" lon="1.68946">
        <ele>163</ele>
        <time>2016-05-06T12:16:04Z</time>
      </trkpt>
      <trkpt lat="50.6122" lon="1.68968">
        <ele>162.7</ele>
        <time>2016-05-06T12:16:06Z</time>
      </trkpt>
      <trkpt lat="50.61217" lon="1.6899">
        <ele>162.7</ele>
        <time>2016-05-06T12:16:08Z</time>
      </trkpt>
      <trkpt lat="50.61214" lon="1.6901">
        <ele>162.6</ele>
        <time>2016-05-06T12:16:10Z</time>
      </trkpt>
      <trkpt lat="50.61212" lon="1.6903">
        <ele>162.6</ele>
        <time>2016-05-06T12:16:12Z</time>
      </trkpt>
      <trkpt lat="50.61209" lon="1.69051">
        <ele>162.5</ele>
        <time>2016-05-06T12:16:14Z</time>
      </trkpt>
      <trkpt lat="50.61207" lon="1.69072">
        <ele>162.5</ele>
        <time>2016-05-06T12:16:16Z</time>
      </trkpt>
      <trkpt lat="50.61205" lon="1.69093">
        <ele>162.5</ele>
        <time>2016-05-06T12:16:18Z</time>
      </trkpt>
      <trkpt lat="50.61203" lon="1.69113">
        <ele>162.6</ele>
        <time>2016-05-06T12:16:20Z</time>
      </trkpt>
      <trkpt lat="50.61199" lon="1.69129">
        <ele>162.6</ele>
        <time>2016-05-06T12:16:22Z</time>
      </trkpt>
      <trkpt lat="50.61191" lon="1.69142">
        <ele>162.7</ele>
        <time>2016-05-06T12:16:24Z</time>
      </trkpt>
      <trkpt lat="50.61181" lon="1.69149">
        <ele>162.2</ele>
        <time>2016-05-06T12:16:26Z</time>
      </trkpt>
      <trkpt lat="50.61169" lon="1.69151">
        <ele>162.2</ele>
        <time>2016-05-06T12:16:28Z</time>
      </trkpt>
      <trkpt lat="50.61157" lon="1.69152">
        <ele>162.2</ele>
        <time>2016-05-06T12:16:30Z</time>
      </trkpt>
      <trkpt lat="50.61143" lon="1.69155">
        <ele>162.1</ele>
        <time>2016-05-06T12:16:32Z</time>
      </trkpt>
      <trkpt lat="50.61129" lon="1.69157">
        <ele>162</ele>
        <time>2016-05-06T12:16:34Z</time>
      </trkpt>
      <trkpt lat="50.61114" lon="1.69159">
        <ele>161.9</ele>
        <time>2016-05-06T12:16:36Z</time>
      </trkpt>
      <trkpt lat="50.611" lon="1.69161">
        <ele>161.8</ele>
        <time>2016-05-06T12:16:38Z</time>
      </trkpt>
      <trkpt lat="50.61085" lon="1.69163">
        <ele>161.6</ele>
        <time>2016-05-06T12:16:40Z</time>
      </trkpt>
      <trkpt lat="50.6107" lon="1.69165">
        <ele>161.5</ele>
        <time>2016-05-06T12:16:42Z</time>
      </trkpt>
      <trkpt lat="50.61056" lon="1.69166">
        <ele>161.3</ele>
        <time>2016-05-06T12:16:44Z</time>
      </trkpt>
      <trkpt lat="50.61042" lon="1.69166">
        <ele>161.1</ele>
        <time>2016-05-06T12:16:46Z</time>
      </trkpt>
      <trkpt lat="50.61027" lon="1.69165">
        <ele>160.8</ele>
        <time>2016-05-06T12:16:48Z</time>
      </trkpt>
      <trkpt lat="50.61013" lon="1.69163">
        <ele>160.6</ele>
        <time>2016-05-06T12:16:50Z</time>
      </trkpt>
      <trkpt lat="50.60998" lon="1.69161">
        <ele>160.3</ele>
        <time>2016-05-06T12:16:52Z</time>
      </trkpt>
      <trkpt lat="50.60983" lon="1.69159">
        <ele>160.1</ele>
        <time>2016-05-06T12:16:54Z</time>
      </trkpt>
      <trkpt lat="50.60967" lon="1.69156">
        <ele>159.8</ele>
        <time>2016-05-06T12:16:56Z</time>
      </trkpt>
      <trkpt lat="50.60951" lon="1.69153">
        <ele>159.5</ele>
        <time>2016-05-06T12:16:58Z</time>
      </trkpt>
      <trkpt lat="50.60936" lon="1.69151">
        <ele>159.2</ele>
        <time>2016-05-06T12:17:00Z</time>
      </trkpt>
      <trkpt lat="50.6092" lon="1.69149">
        <ele>158.9</ele>
        <time>2016-05-06T12:17:02Z</time>
      </trkpt>
      <trkpt lat="50.60904" lon="1.69147">
        <ele>158.5</ele>
        <time>2016-05-06T12:17:04Z</time>
      </trkpt>
      <trkpt lat="50.60888" lon="1.69144">
        <ele>158</ele>
        <time>2016-05-06T12:17:06Z</time>
      </trkpt>
      <trkpt lat="50.60871" lon="1.6914">
        <ele>157.5</ele>
        <time>2016-05-06T12:17:08Z</time>
      </trkpt>
      <trkpt lat="50.60854" lon="1.69136">
        <ele>157</ele>
        <time>2016-05-06T12:17:10Z</time>
      </trkpt>
      <trkpt lat="50.60837" lon="1.69131">
        <ele>156.4</ele>
        <time>2016-05-06T12:17:12Z</time>
      </trkpt>
      <trkpt lat="50.60828" lon="1.69129">
        <ele>156.1</ele>
        <time>2016-05-06T12:17:13Z</time>
      </trkpt>
      <trkpt lat="50.60811" lon="1.69122">
        <ele>155.3</ele>
        <time>2016-05-06T12:17:15Z</time>
      </trkpt>
      <trkpt lat="50.60802" lon="1.69119">
        <ele>155</ele>
        <time>2016-05-06T12:17:16Z</time>
      </trkpt>
      <trkpt lat="50.60793" lon="1.69115">
        <ele>154.6</ele>
        <time>2016-05-06T12:17:17Z</time>
      </trkpt>
      <trkpt lat="50.60784" lon="1.69112">
        <ele>154.3</ele>
        <time>2016-05-06T12:17:18Z</time>
      </trkpt>
      <trkpt lat="50.60775" lon="1.69108">
        <ele>153.9</ele>
        <time>2016-05-06T12:17:19Z</time>
      </trkpt>
      <trkpt lat="50.60767" lon="1.69104">
        <ele>153.6</ele>
        <time>2016-05-06T12:17:20Z</time>
      </trkpt>
      <trkpt lat="50.60758" lon="1.691">
        <ele>153.2</ele>
        <time>2016-05-06T12:17:21Z</time>
      </trkpt>
      <trkpt lat="50.60749" lon="1.69097">
        <ele>152.9</ele>
        <time>2016-05-06T12:17:22Z</time>
      </trkpt>
      <trkpt lat="50.6074" lon="1.69094">
        <ele>152.6</ele>
        <time>2016-05-06T12:17:23Z</time>
      </trkpt>
      <trkpt lat="50.6073" lon="1.69091">
        <ele>152.2</ele>
        <time>2016-05-06T12:17:24Z</time>
      </trkpt>
      <trkpt lat="50.60721" lon="1.69089">
        <ele>151.9</ele>
        <time>2016-05-06T12:17:25Z</time>
      </trkpt>
      <trkpt lat="50.60712" lon="1.69087">
        <ele>151.5</ele>
        <time>2016-05-06T12:17:26Z</time>
      </trkpt>
      <trkpt lat="50.60703" lon="1.69086">
        <ele>151.1</ele>
        <time>2016-05-06T12:17:27Z</time>
      </trkpt>
      <trkpt lat="50.60694" lon="1.69085">
        <ele>150.8</ele>
        <time>2016-05-06T12:17:28Z</time>
      </trkpt>
      <trkpt lat="50.60684" lon="1.69085">
        <ele>150.4</ele>
        <time>2016-05-06T12:17:29Z</time>
      </trkpt>
      <trkpt lat="50.60675" lon="1.69084">
        <ele>150.1</ele>
        <time>2016-05-06T12:17:30Z</time>
      </trkpt>
      <trkpt lat="50.60666" lon="1.69084">
        <ele>149.7</ele>
        <time>2016-05-06T12:17:31Z</time>
      </trkpt>
      <trkpt lat="50.60649" lon="1.69084">
        <ele>149</ele>
        <time>2016-05-06T12:17:33Z</time>
      </trkpt>
      <trkpt lat="50.60632" lon="1.69084">
        <ele>148.3</ele>
        <time>2016-05-06T12:17:35Z</time>
      </trkpt>
      <trkpt lat="50.60616" lon="1.69084">
        <ele>147.7</ele>
        <time>2016-05-06T12:17:37Z</time>
      </trkpt>
      <trkpt lat="50.60601" lon="1.69084">
        <ele>147.2</ele>
        <time>2016-05-06T12:17:39Z</time>
      </trkpt>
      <trkpt lat="50.60585" lon="1.69085">
        <ele>146.7</ele>
        <time>2016-05-06T12:17:41Z</time>
      </trkpt>
      <trkpt lat="50.60569" lon="1.69084">
        <ele>146.2</ele>
        <time>2016-05-06T12:17:43Z</time>
      </trkpt>
      <trkpt lat="50.60553" lon="1.69083">
        <ele>145.8</ele>
        <time>2016-05-06T12:17:45Z</time>
      </trkpt>
      <trkpt lat="50.60538" lon="1.6908">
        <ele>145.4</ele>
        <time>2016-05-06T12:17:47Z</time>
      </trkpt>
      <trkpt lat="50.60522" lon="1.69077">
        <ele>144.8</ele>
        <time>2016-05-06T12:17:49Z</time>
      </trkpt>
      <trkpt lat="50.60507" lon="1.69073">
        <ele>144.4</ele>
        <time>2016-05-06T12:17:51Z</time>
      </trkpt>
      <trkpt lat="50.60491" lon="1.69068">
        <ele>143.9</ele>
        <time>2016-05-06T12:17:53Z</time>
      </trkpt>
      <trkpt lat="50.60477" lon="1.69063">
        <ele>143.4</ele>
        <time>2016-05-06T12:17:55Z</time>
      </trkpt>
      <trkpt lat="50.60462" lon="1.69057">
        <ele>143</ele>
        <time>2016-05-06T12:17:57Z</time>
      </trkpt>
      <trkpt lat="50.60448" lon="1.69052">
        <ele>142.6</ele>
        <time>2016-05-06T12:17:59Z</time>
      </trkpt>
      <trkpt lat="50.60433" lon="1.69046">
        <ele>142.3</ele>
        <time>2016-05-06T12:18:01Z</time>
      </trkpt>
      <trkpt lat="50.60417" lon="1.69041">
        <ele>141.9</ele>
        <time>2016-05-06T12:18:03Z</time>
      </trkpt>
      <trkpt lat="50.60402" lon="1.69035">
        <ele>141.5</ele>
        <time>2016-05-06T12:18:05Z</time>
      </trkpt>
      <trkpt lat="50.60387" lon="1.69029">
        <ele>141.1</ele>
        <time>2016-05-06T12:18:07Z</time>
      </trkpt>
      <trkpt lat="50.60372" lon="1.69023">
        <ele>140.7</ele>
        <time>2016-05-06T12:18:09Z</time>
      </trkpt>
      <trkpt lat="50.60358" lon="1.69018">
        <ele>140.3</ele>
        <time>2016-05-06T12:18:11Z</time>
      </trkpt>
      <trkpt lat="50.60344" lon="1.69017">
        <ele>139.8</ele>
        <time>2016-05-06T12:18:13Z</time>
      </trkpt>
      <trkpt lat="50.60331" lon="1.69023">
        <ele>139.4</ele>
        <time>2016-05-06T12:18:15Z</time>
      </trkpt>
      <trkpt lat="50.60318" lon="1.69033">
        <ele>139</ele>
        <time>2016-05-06T12:18:17Z</time>
      </trkpt>
      <trkpt lat="50.60306" lon="1.69043">
        <ele>138.6</ele>
        <time>2016-05-06T12:18:19Z</time>
      </trkpt>
      <trkpt lat="50.60294" lon="1.69053">
        <ele>138.2</ele>
        <time>2016-05-06T12:18:21Z</time>
      </trkpt>
      <trkpt lat="50.60282" lon="1.69062">
        <ele>137.8</ele>
        <time>2016-05-06T12:18:23Z</time>
      </trkpt>
      <trkpt lat="50.60271" lon="1.69071">
        <ele>137.4</ele>
        <time>2016-05-06T12:18:25Z</time>
      </trkpt>
      <trkpt lat="50.60259" lon="1.69079">
        <ele>137</ele>
        <time>2016-05-06T12:18:27Z</time>
      </trkpt>
      <trkpt lat="50.6025" lon="1.69085">
        <ele>136.7</ele>
        <time>2016-05-06T12:18:29Z</time>
      </trkpt>
      <trkpt lat="50.60238" lon="1.69089">
        <ele>136.1</ele>
        <time>2016-05-06T12:18:32Z</time>
      </trkpt>
      <trkpt lat="50.60225" lon="1.69088">
        <ele>135.6</ele>
        <time>2016-05-06T12:18:35Z</time>
      </trkpt>
      <trkpt lat="50.60214" lon="1.69082">
        <ele>135.3</ele>
        <time>2016-05-06T12:18:37Z</time>
      </trkpt>
      <trkpt lat="50.60203" lon="1.69074">
        <ele>135</ele>
        <time>2016-05-06T12:18:39Z</time>
      </trkpt>
      <trkpt lat="50.60193" lon="1.69064">
        <ele>134.7</ele>
        <time>2016-05-06T12:18:41Z</time>
      </trkpt>
      <trkpt lat="50.60183" lon="1.69053">
        <ele>134.4</ele>
        <time>2016-05-06T12:18:43Z</time>
      </trkpt>
      <trkpt lat="50.60172" lon="1.69042">
        <ele>134.2</ele>
        <time>2016-05-06T12:18:45Z</time>
      </trkpt>
      <trkpt lat="50.60162" lon="1.69029">
        <ele>134</ele>
        <time>2016-05-06T12:18:47Z</time>
      </trkpt>
      <trkpt lat="50.60151" lon="1.69016">
        <ele>133.8</ele>
        <time>2016-05-06T12:18:49Z</time>
      </trkpt>
      <trkpt lat="50.60141" lon="1.69003">
        <ele>133.7</ele>
        <time>2016-05-06T12:18:51Z</time>
      </trkpt>
      <trkpt lat="50.60131" lon="1.68989">
        <ele>133.5</ele>
        <time>2016-05-06T12:18:53Z</time>
      </trkpt>
      <trkpt lat="50.6012" lon="1.68975">
        <ele>133.3</ele>
        <time>2016-05-06T12:18:55Z</time>
      </trkpt>
      <trkpt lat="50.6011" lon="1.6896">
        <ele>133.2</ele>
        <time>2016-05-06T12:18:57Z</time>
      </trkpt>
      <trkpt lat="50.601" lon="1.68946">
        <ele>133.1</ele>
        <time>2016-05-06T12:18:59Z</time>
      </trkpt>
      <trkpt lat="50.60089" lon="1.68932">
        <ele>132.9</ele>
        <time>2016-05-06T12:19:01Z</time>
      </trkpt>
      <trkpt lat="50.60078" lon="1.68917">
        <ele>132.8</ele>
        <time>2016-05-06T12:19:03Z</time>
      </trkpt>
      <trkpt lat="50.60067" lon="1.68902">
        <ele>132.6</ele>
        <time>2016-05-06T12:19:05Z</time>
      </trkpt>
      <trkpt lat="50.60055" lon="1.68887">
        <ele>132.5</ele>
        <time>2016-05-06T12:19:07Z</time>
      </trkpt>
      <trkpt lat="50.60043" lon="1.68874">
        <ele>132.4</ele>
        <time>2016-05-06T12:19:09Z</time>
      </trkpt>
      <trkpt lat="50.6003" lon="1.68861">
        <ele>132.2</ele>
        <time>2016-05-06T12:19:11Z</time>
      </trkpt>
      <trkpt lat="50.60018" lon="1.68848">
        <ele>132</ele>
        <time>2016-05-06T12:19:13Z</time>
      </trkpt>
      <trkpt lat="50.60006" lon="1.68833">
        <ele>131.8</ele>
        <time>2016-05-06T12:19:15Z</time>
      </trkpt>
      <trkpt lat="50.59995" lon="1.68818">
        <ele>131.5</ele>
        <time>2016-05-06T12:19:17Z</time>
      </trkpt>
      <trkpt lat="50.59983" lon="1.68802">
        <ele>131.3</ele>
        <time>2016-05-06T12:19:19Z</time>
      </trkpt>
      <trkpt lat="50.5997" lon="1.68787">
        <ele>130.9</ele>
        <time>2016-05-06T12:19:21Z</time>
      </trkpt>
      <trkpt lat="50.59957" lon="1.68772">
        <ele>130.5</ele>
        <time>2016-05-06T12:19:23Z</time>
      </trkpt>
      <trkpt lat="50.59943" lon="1.68757">
        <ele>130</ele>
        <time>2016-05-06T12:19:25Z</time>
      </trkpt>
      <trkpt lat="50.59929" lon="1.68742">
        <ele>129.4</ele>
        <time>2016-05-06T12:19:27Z</time>
      </trkpt>
      <trkpt lat="50.59914" lon="1.68726">
        <ele>128.7</ele>
        <time>2016-05-06T12:19:29Z</time>
      </trkpt>
      <trkpt lat="50.59906" lon="1.68718">
        <ele>128.3</ele>
        <time>2016-05-06T12:19:30Z</time>
      </trkpt>
      <trkpt lat="50.59898" lon="1.6871">
        <ele>127.9</ele>
        <time>2016-05-06T12:19:31Z</time>
      </trkpt>
      <trkpt lat="50.5989" lon="1.68701">
        <ele>127.6</ele>
        <time>2016-05-06T12:19:32Z</time>
      </trkpt>
      <trkpt lat="50.59882" lon="1.68693">
        <ele>127.2</ele>
        <time>2016-05-06T12:19:33Z</time>
      </trkpt>
      <trkpt lat="50.59873" lon="1.68684">
        <ele>126.6</ele>
        <time>2016-05-06T12:19:34Z</time>
      </trkpt>
      <trkpt lat="50.59865" lon="1.68676">
        <ele>126.1</ele>
        <time>2016-05-06T12:19:35Z</time>
      </trkpt>
      <trkpt lat="50.59856" lon="1.68667">
        <ele>125.6</ele>
        <time>2016-05-06T12:19:36Z</time>
      </trkpt>
      <trkpt lat="50.59847" lon="1.68657">
        <ele>125.1</ele>
        <time>2016-05-06T12:19:37Z</time>
      </trkpt>
      <trkpt lat="50.59839" lon="1.68647">
        <ele>124.6</ele>
        <time>2016-05-06T12:19:38Z</time>
      </trkpt>
      <trkpt lat="50.5983" lon="1.68637">
        <ele>124.1</ele>
        <time>2016-05-06T12:19:39Z</time>
      </trkpt>
      <trkpt lat="50.59822" lon="1.68627">
        <ele>123.5</ele>
        <time>2016-05-06T12:19:40Z</time>
      </trkpt>
      <trkpt lat="50.59814" lon="1.68616">
        <ele>123.1</ele>
        <time>2016-05-06T12:19:41Z</time>
      </trkpt>
      <trkpt lat="50.59806" lon="1.68603">
        <ele>122.4</ele>
        <time>2016-05-06T12:19:42Z</time>
      </trkpt>
      <trkpt lat="50.59799" lon="1.68589">
        <ele>121.9</ele>
        <time>2016-05-06T12:19:43Z</time>
      </trkpt>
      <trkpt lat="50.59791" lon="1.68574">
        <ele>121.4</ele>
        <time>2016-05-06T12:19:44Z</time>
      </trkpt>
      <trkpt lat="50.59784" lon="1.6856">
        <ele>120.7</ele>
        <time>2016-05-06T12:19:45Z</time>
      </trkpt>
      <trkpt lat="50.59776" lon="1.68545">
        <ele>119.9</ele>
        <time>2016-05-06T12:19:46Z</time>
      </trkpt>
      <trkpt lat="50.59768" lon="1.6853">
        <ele>119.1</ele>
        <time>2016-05-06T12:19:47Z</time>
      </trkpt>
      <trkpt lat="50.5976" lon="1.68515">
        <ele>118.3</ele>
        <time>2016-05-06T12:19:48Z</time>
      </trkpt>
      <trkpt lat="50.59751" lon="1.68499">
        <ele>117.4</ele>
        <time>2016-05-06T12:19:49Z</time>
      </trkpt>
      <trkpt lat="50.59743" lon="1.68483">
        <ele>116.3</ele>
        <time>2016-05-06T12:19:50Z</time>
      </trkpt>
      <trkpt lat="50.59734" lon="1.68468">
        <ele>115.2</ele>
        <time>2016-05-06T12:19:51Z</time>
      </trkpt>
      <trkpt lat="50.59725" lon="1.68451">
        <ele>114.1</ele>
        <time>2016-05-06T12:19:52Z</time>
      </trkpt>
      <trkpt lat="50.59716" lon="1.68435">
        <ele>112.9</ele>
        <time>2016-05-06T12:19:53Z</time>
      </trkpt>
      <trkpt lat="50.59707" lon="1.68419">
        <ele>111.9</ele>
        <time>2016-05-06T12:19:54Z</time>
      </trkpt>
      <trkpt lat="50.59697" lon="1.68404">
        <ele>110.8</ele>
        <time>2016-05-06T12:19:55Z</time>
      </trkpt>
      <trkpt lat="50.59686" lon="1.6839">
        <ele>109.7</ele>
        <time>2016-05-06T12:19:56Z</time>
      </trkpt>
      <trkpt lat="50.59675" lon="1.68376">
        <ele>108.6</ele>
        <time>2016-05-06T12:19:57Z</time>
      </trkpt>
      <trkpt lat="50.59664" lon="1.68363">
        <ele>107.5</ele>
        <time>2016-05-06T12:19:58Z</time>
      </trkpt>
      <trkpt lat="50.59653" lon="1.68351">
        <ele>106.5</ele>
        <time>2016-05-06T12:19:59Z</time>
      </trkpt>
      <trkpt lat="50.59643" lon="1.68339">
        <ele>105.5</ele>
        <time>2016-05-06T12:20:00Z</time>
      </trkpt>
      <trkpt lat="50.59633" lon="1.68328">
        <ele>104.4</ele>
        <time>2016-05-06T12:20:01Z</time>
      </trkpt>
      <trkpt lat="50.59624" lon="1.68317">
        <ele>103.4</ele>
        <time>2016-05-06T12:20:02Z</time>
      </trkpt>
      <trkpt lat="50.59615" lon="1.68308">
        <ele>102.5</ele>
        <time>2016-05-06T12:20:03Z</time>
      </trkpt>
      <trkpt lat="50.59607" lon="1.68299">
        <ele>101.5</ele>
        <time>2016-05-06T12:20:04Z</time>
      </trkpt>
      <trkpt lat="50.59593" lon="1.68284">
        <ele>99.7</ele>
        <time>2016-05-06T12:20:06Z</time>
      </trkpt>
      <trkpt lat="50.59582" lon="1.68271">
        <ele>98</ele>
        <time>2016-05-06T12:20:08Z</time>
      </trkpt>
      <trkpt lat="50.5957" lon="1.68259">
        <ele>96.5</ele>
        <time>2016-05-06T12:20:10Z</time>
      </trkpt>
      <trkpt lat="50.59561" lon="1.68246">
        <ele>95.1</ele>
        <time>2016-05-06T12:20:12Z</time>
      </trkpt>
      <trkpt lat="50.59555" lon="1.68231">
        <ele>93.8</ele>
        <time>2016-05-06T12:20:14Z</time>
      </trkpt>
      <trkpt lat="50.59557" lon="1.68216">
        <ele>92.7</ele>
        <time>2016-05-06T12:20:16Z</time>
      </trkpt>
      <trkpt lat="50.59563" lon="1.68203">
        <ele>91.8</ele>
        <time>2016-05-06T12:20:18Z</time>
      </trkpt>
      <trkpt lat="50.59569" lon="1.68189">
        <ele>91</ele>
        <time>2016-05-06T12:20:20Z</time>
      </trkpt>
      <trkpt lat="50.59575" lon="1.68176">
        <ele>90.3</ele>
        <time>2016-05-06T12:20:22Z</time>
      </trkpt>
      <trkpt lat="50.59582" lon="1.68162">
        <ele>89.6</ele>
        <time>2016-05-06T12:20:24Z</time>
      </trkpt>
      <trkpt lat="50.5959" lon="1.68148">
        <ele>89.1</ele>
        <time>2016-05-06T12:20:26Z</time>
      </trkpt>
      <trkpt lat="50.59597" lon="1.68131">
        <ele>88.7</ele>
        <time>2016-05-06T12:20:28Z</time>
      </trkpt>
      <trkpt lat="50.59605" lon="1.68114">
        <ele>88.4</ele>
        <time>2016-05-06T12:20:30Z</time>
      </trkpt>
      <trkpt lat="50.59613" lon="1.68098">
        <ele>88.1</ele>
        <time>2016-05-06T12:20:32Z</time>
      </trkpt>
      <trkpt lat="50.59621" lon="1.6808">
        <ele>87.9</ele>
        <time>2016-05-06T12:20:34Z</time>
      </trkpt>
      <trkpt lat="50.59629" lon="1.68063">
        <ele>87.8</ele>
        <time>2016-05-06T12:20:36Z</time>
      </trkpt>
      <trkpt lat="50.59636" lon="1.68046">
        <ele>87.7</ele>
        <time>2016-05-06T12:20:38Z</time>
      </trkpt>
      <trkpt lat="50.59644" lon="1.68029">
        <ele>87.6</ele>
        <time>2016-05-06T12:20:40Z</time>
      </trkpt>
      <trkpt lat="50.59651" lon="1.68013">
        <ele>87.5</ele>
        <time>2016-05-06T12:20:42Z</time>
      </trkpt>
      <trkpt lat="50.59659" lon="1.67996">
        <ele>87.5</ele>
        <time>2016-05-06T12:20:44Z</time>
      </trkpt>
      <trkpt lat="50.59667" lon="1.67979">
        <ele>87.5</ele>
        <time>2016-05-06T12:20:46Z</time>
      </trkpt>
      <trkpt lat="50.59675" lon="1.67963">
        <ele>87.5</ele>
        <time>2016-05-06T12:20:48Z</time>
      </trkpt>
      <trkpt lat="50.59683" lon="1.67946">
        <ele>87.6</ele>
        <time>2016-05-06T12:20:50Z</time>
      </trkpt>
      <trkpt lat="50.5969" lon="1.67929">
        <ele>87.7</ele>
        <time>2016-05-06T12:20:52Z</time>
      </trkpt>
      <trkpt lat="50.59697" lon="1.67913">
        <ele>87.8</ele>
        <time>2016-05-06T12:20:54Z</time>
      </trkpt>
      <trkpt lat="50.59705" lon="1.67896">
        <ele>87.9</ele>
        <time>2016-05-06T12:20:56Z</time>
      </trkpt>
      <trkpt lat="50.59712" lon="1.6788">
        <ele>88.1</ele>
        <time>2016-05-06T12:20:58Z</time>
      </trkpt>
      <trkpt lat="50.59719" lon="1.67864">
        <ele>88.2</ele>
        <time>2016-05-06T12:21:00Z</time>
      </trkpt>
      <trkpt lat="50.59726" lon="1.67848">
        <ele>88.5</ele>
        <time>2016-05-06T12:21:02Z</time>
      </trkpt>
      <trkpt lat="50.59733" lon="1.67834">
        <ele>88.7</ele>
        <time>2016-05-06T12:21:04Z</time>
      </trkpt>
      <trkpt lat="50.59739" lon="1.67821">
        <ele>89.1</ele>
        <time>2016-05-06T12:21:06Z</time>
      </trkpt>
      <trkpt lat="50.59745" lon="1.6781">
        <ele>89.6</ele>
        <time>2016-05-06T12:21:08Z</time>
      </trkpt>
      <trkpt lat="50.59752" lon="1.67793">
        <ele>90.2</ele>
        <time>2016-05-06T12:21:11Z</time>
      </trkpt>
      <trkpt lat="50.5976" lon="1.67779">
        <ele>90.9</ele>
        <time>2016-05-06T12:21:14Z</time>
      </trkpt>
      <trkpt lat="50.59766" lon="1.67763">
        <ele>91.6</ele>
        <time>2016-05-06T12:21:17Z</time>
      </trkpt>
      <trkpt lat="50.59773" lon="1.67747">
        <ele>92.4</ele>
        <time>2016-05-06T12:21:20Z</time>
      </trkpt>
      <trkpt lat="50.59777" lon="1.67734">
        <ele>92.9</ele>
        <time>2016-05-06T12:21:22Z</time>
      </trkpt>
      <trkpt lat="50.59782" lon="1.67722">
        <ele>93.3</ele>
        <time>2016-05-06T12:21:24Z</time>
      </trkpt>
      <trkpt lat="50.5979" lon="1.67705">
        <ele>94.1</ele>
        <time>2016-05-06T12:21:27Z</time>
      </trkpt>
      <trkpt lat="50.59795" lon="1.67693">
        <ele>94.6</ele>
        <time>2016-05-06T12:21:29Z</time>
      </trkpt>
      <trkpt lat="50.59801" lon="1.67682">
        <ele>95</ele>
        <time>2016-05-06T12:21:31Z</time>
      </trkpt>
      <trkpt lat="50.59809" lon="1.67666">
        <ele>95.8</ele>
        <time>2016-05-06T12:21:34Z</time>
      </trkpt>
      <trkpt lat="50.59817" lon="1.67649">
        <ele>96.6</ele>
        <time>2016-05-06T12:21:37Z</time>
      </trkpt>
      <trkpt lat="50.59823" lon="1.67637">
        <ele>97.1</ele>
        <time>2016-05-06T12:21:39Z</time>
      </trkpt>
      <trkpt lat="50.59829" lon="1.67625">
        <ele>97.6</ele>
        <time>2016-05-06T12:21:41Z</time>
      </trkpt>
      <trkpt lat="50.59835" lon="1.67612">
        <ele>98.1</ele>
        <time>2016-05-06T12:21:43Z</time>
      </trkpt>
      <trkpt lat="50.59843" lon="1.67597">
        <ele>98.5</ele>
        <time>2016-05-06T12:21:45Z</time>
      </trkpt>
      <trkpt lat="50.59852" lon="1.67579">
        <ele>98.8</ele>
        <time>2016-05-06T12:21:47Z</time>
      </trkpt>
      <trkpt lat="50.59863" lon="1.67559">
        <ele>99</ele>
        <time>2016-05-06T12:21:49Z</time>
      </trkpt>
      <trkpt lat="50.59874" lon="1.67538">
        <ele>98.9</ele>
        <time>2016-05-06T12:21:51Z</time>
      </trkpt>
      <trkpt lat="50.59886" lon="1.67518">
        <ele>98.8</ele>
        <time>2016-05-06T12:21:53Z</time>
      </trkpt>
      <trkpt lat="50.59896" lon="1.67498">
        <ele>98.6</ele>
        <time>2016-05-06T12:21:55Z</time>
      </trkpt>
      <trkpt lat="50.59906" lon="1.67479">
        <ele>98.4</ele>
        <time>2016-05-06T12:21:57Z</time>
      </trkpt>
      <trkpt lat="50.59916" lon="1.6746">
        <ele>98.3</ele>
        <time>2016-05-06T12:21:59Z</time>
      </trkpt>
      <trkpt lat="50.59926" lon="1.67441">
        <ele>98.1</ele>
        <time>2016-05-06T12:22:01Z</time>
      </trkpt>
      <trkpt lat="50.59936" lon="1.67422">
        <ele>98</ele>
        <time>2016-05-06T12:22:03Z</time>
      </trkpt>
      <trkpt lat="50.59946" lon="1.67404">
        <ele>97.9</ele>
        <time>2016-05-06T12:22:05Z</time>
      </trkpt>
      <trkpt lat="50.59956" lon="1.67386">
        <ele>97.7</ele>
        <time>2016-05-06T12:22:07Z</time>
      </trkpt>
      <trkpt lat="50.59966" lon="1.67368">
        <ele>97.7</ele>
        <time>2016-05-06T12:22:09Z</time>
      </trkpt>
      <trkpt lat="50.59975" lon="1.67351">
        <ele>97.7</ele>
        <time>2016-05-06T12:22:11Z</time>
      </trkpt>
      <trkpt lat="50.59984" lon="1.67333">
        <ele>97.7</ele>
        <time>2016-05-06T12:22:13Z</time>
      </trkpt>
      <trkpt lat="50.59993" lon="1.67314">
        <ele>97.8</ele>
        <time>2016-05-06T12:22:15Z</time>
      </trkpt>
      <trkpt lat="50.60002" lon="1.67295">
        <ele>97.8</ele>
        <time>2016-05-06T12:22:17Z</time>
      </trkpt>
      <trkpt lat="50.6001" lon="1.67276">
        <ele>97.9</ele>
        <time>2016-05-06T12:22:19Z</time>
      </trkpt>
      <trkpt lat="50.60017" lon="1.67255">
        <ele>98</ele>
        <time>2016-05-06T12:22:21Z</time>
      </trkpt>
      <trkpt lat="50.60025" lon="1.67233">
        <ele>98.3</ele>
        <time>2016-05-06T12:22:23Z</time>
      </trkpt>
      <trkpt lat="50.60032" lon="1.67211">
        <ele>98.5</ele>
        <time>2016-05-06T12:22:25Z</time>
      </trkpt>
      <trkpt lat="50.60038" lon="1.67189">
        <ele>98.7</ele>
        <time>2016-05-06T12:22:27Z</time>
      </trkpt>
      <trkpt lat="50.60045" lon="1.67168">
        <ele>98.9</ele>
        <time>2016-05-06T12:22:29Z</time>
      </trkpt>
      <trkpt lat="50.60051" lon="1.67147">
        <ele>99.2</ele>
        <time>2016-05-06T12:22:31Z</time>
      </trkpt>
      <trkpt lat="50.60058" lon="1.67127">
        <ele>99.4</ele>
        <time>2016-05-06T12:22:33Z</time>
      </trkpt>
      <trkpt lat="50.60064" lon="1.67107">
        <ele>99.7</ele>
        <time>2016-05-06T12:22:35Z</time>
      </trkpt>
      <trkpt lat="50.6007" lon="1.67086">
        <ele>99.9</ele>
        <time>2016-05-06T12:22:37Z</time>
      </trkpt>
      <trkpt lat="50.60076" lon="1.67066">
        <ele>100.2</ele>
        <time>2016-05-06T12:22:39Z</time>
      </trkpt>
      <trkpt lat="50.60084" lon="1.67047">
        <ele>100.5</ele>
        <time>2016-05-06T12:22:41Z</time>
      </trkpt>
      <trkpt lat="50.60091" lon="1.67029">
        <ele>100.8</ele>
        <time>2016-05-06T12:22:43Z</time>
      </trkpt>
      <trkpt lat="50.601" lon="1.67012">
        <ele>101.1</ele>
        <time>2016-05-06T12:22:45Z</time>
      </trkpt>
      <trkpt lat="50.60109" lon="1.66995">
        <ele>101.4</ele>
        <time>2016-05-06T12:22:47Z</time>
      </trkpt>
      <trkpt lat="50.60118" lon="1.66978">
        <ele>101.7</ele>
        <time>2016-05-06T12:22:49Z</time>
      </trkpt>
      <trkpt lat="50.60128" lon="1.66962">
        <ele>102</ele>
        <time>2016-05-06T12:22:51Z</time>
      </trkpt>
      <trkpt lat="50.60138" lon="1.66946">
        <ele>102.3</ele>
        <time>2016-05-06T12:22:53Z</time>
      </trkpt>
      <trkpt lat="50.60148" lon="1.66931">
        <ele>102.7</ele>
        <time>2016-05-06T12:22:55Z</time>
      </trkpt>
      <trkpt lat="50.60159" lon="1.66917">
        <ele>103.1</ele>
        <time>2016-05-06T12:22:57Z</time>
      </trkpt>
      <trkpt lat="50.6017" lon="1.66902">
        <ele>103.4</ele>
        <time>2016-05-06T12:22:59Z</time>
      </trkpt>
      <trkpt lat="50.6018" lon="1.66888">
        <ele>103.7</ele>
        <time>2016-05-06T12:23:01Z</time>
      </trkpt>
      <trkpt lat="50.6019" lon="1.66874">
        <ele>103.9</ele>
        <time>2016-05-06T12:23:03Z</time>
      </trkpt>
      <trkpt lat="50.60201" lon="1.6686">
        <ele>104.2</ele>
        <time>2016-05-06T12:23:05Z</time>
      </trkpt>
      <trkpt lat="50.60211" lon="1.66846">
        <ele>104.4</ele>
        <time>2016-05-06T12:23:07Z</time>
      </trkpt>
      <trkpt lat="50.60222" lon="1.66832">
        <ele>104.7</ele>
        <time>2016-05-06T12:23:09Z</time>
      </trkpt>
      <trkpt lat="50.60233" lon="1.66817">
        <ele>105</ele>
        <time>2016-05-06T12:23:11Z</time>
      </trkpt>
      <trkpt lat="50.60244" lon="1.66802">
        <ele>105.3</ele>
        <time>2016-05-06T12:23:13Z</time>
      </trkpt>
      <trkpt lat="50.60255" lon="1.66788">
        <ele>105.6</ele>
        <time>2016-05-06T12:23:15Z</time>
      </trkpt>
      <trkpt lat="50.60266" lon="1.66773">
        <ele>105.9</ele>
        <time>2016-05-06T12:23:17Z</time>
      </trkpt>
      <trkpt lat="50.60277" lon="1.66759">
        <ele>106.1</ele>
        <time>2016-05-06T12:23:19Z</time>
      </trkpt>
      <trkpt lat="50.60289" lon="1.66744">
        <ele>106.4</ele>
        <time>2016-05-06T12:23:21Z</time>
      </trkpt>
      <trkpt lat="50.60301" lon="1.66728">
        <ele>106.6</ele>
        <time>2016-05-06T12:23:23Z</time>
      </trkpt>
      <trkpt lat="50.60312" lon="1.66713">
        <ele>106.7</ele>
        <time>2016-05-06T12:23:25Z</time>
      </trkpt>
      <trkpt lat="50.60323" lon="1.66699">
        <ele>107</ele>
        <time>2016-05-06T12:23:27Z</time>
      </trkpt>
      <trkpt lat="50.60333" lon="1.66684">
        <ele>107.2</ele>
        <time>2016-05-06T12:23:29Z</time>
      </trkpt>
      <trkpt lat="50.60344" lon="1.6667">
        <ele>107.5</ele>
        <time>2016-05-06T12:23:31Z</time>
      </trkpt>
      <trkpt lat="50.60354" lon="1.66656">
        <ele>107.8</ele>
        <time>2016-05-06T12:23:33Z</time>
      </trkpt>
      <trkpt lat="50.60365" lon="1.66642">
        <ele>108.1</ele>
        <time>2016-05-06T12:23:35Z</time>
      </trkpt>
      <trkpt lat="50.60375" lon="1.66629">
        <ele>108.4</ele>
        <time>2016-05-06T12:23:37Z</time>
      </trkpt>
      <trkpt lat="50.60386" lon="1.66616">
        <ele>108.6</ele>
        <time>2016-05-06T12:23:39Z</time>
      </trkpt>
      <trkpt lat="50.60397" lon="1.66603">
        <ele>108.9</ele>
        <time>2016-05-06T12:23:41Z</time>
      </trkpt>
      <trkpt lat="50.60409" lon="1.6659">
        <ele>109.2</ele>
        <time>2016-05-06T12:23:43Z</time>
      </trkpt>
      <trkpt lat="50.6042" lon="1.66578">
        <ele>109.5</ele>
        <time>2016-05-06T12:23:45Z</time>
      </trkpt>
      <trkpt lat="50.60433" lon="1.66566">
        <ele>109.8</ele>
        <time>2016-05-06T12:23:47Z</time>
      </trkpt>
      <trkpt lat="50.60445" lon="1.66555">
        <ele>110.2</ele>
        <time>2016-05-06T12:23:49Z</time>
      </trkpt>
      <trkpt lat="50.60457" lon="1.66545">
        <ele>110.5</ele>
        <time>2016-05-06T12:23:51Z</time>
      </trkpt>
      <trkpt lat="50.60469" lon="1.66536">
        <ele>110.8</ele>
        <time>2016-05-06T12:23:53Z</time>
      </trkpt>
      <trkpt lat="50.60481" lon="1.66527">
        <ele>111.1</ele>
        <time>2016-05-06T12:23:55Z</time>
      </trkpt>
      <trkpt lat="50.60492" lon="1.66517">
        <ele>111.4</ele>
        <time>2016-05-06T12:23:57Z</time>
      </trkpt>
      <trkpt lat="50.60503" lon="1.66508">
        <ele>111.7</ele>
        <time>2016-05-06T12:23:59Z</time>
      </trkpt>
      <trkpt lat="50.60514" lon="1.66499">
        <ele>112.1</ele>
        <time>2016-05-06T12:24:01Z</time>
      </trkpt>
      <trkpt lat="50.60525" lon="1.66492">
        <ele>112.5</ele>
        <time>2016-05-06T12:24:03Z</time>
      </trkpt>
      <trkpt lat="50.60535" lon="1.66484">
        <ele>112.9</ele>
        <time>2016-05-06T12:24:05Z</time>
      </trkpt>
      <trkpt lat="50.60544" lon="1.66476">
        <ele>113.4</ele>
        <time>2016-05-06T12:24:07Z</time>
      </trkpt>
      <trkpt lat="50.60553" lon="1.66469">
        <ele>113.8</ele>
        <time>2016-05-06T12:24:09Z</time>
      </trkpt>
      <trkpt lat="50.60561" lon="1.66462">
        <ele>114.3</ele>
        <time>2016-05-06T12:24:11Z</time>
      </trkpt>
      <trkpt lat="50.60572" lon="1.66453">
        <ele>115</ele>
        <time>2016-05-06T12:24:14Z</time>
      </trkpt>
      <trkpt lat="50.60583" lon="1.66445">
        <ele>115.9</ele>
        <time>2016-05-06T12:24:17Z</time>
      </trkpt>
      <trkpt lat="50.60593" lon="1.66437">
        <ele>116.8</ele>
        <time>2016-05-06T12:24:20Z</time>
      </trkpt>
      <trkpt lat="50.60602" lon="1.66429">
        <ele>117.6</ele>
        <time>2016-05-06T12:24:23Z</time>
      </trkpt>
      <trkpt lat="50.60611" lon="1.6642">
        <ele>118.5</ele>
        <time>2016-05-06T12:24:26Z</time>
      </trkpt>
      <trkpt lat="50.6062" lon="1.66409">
        <ele>119.3</ele>
        <time>2016-05-06T12:24:29Z</time>
      </trkpt>
      <trkpt lat="50.60628" lon="1.66398">
        <ele>120.1</ele>
        <time>2016-05-06T12:24:32Z</time>
      </trkpt>
      <trkpt lat="50.60636" lon="1.66386">
        <ele>121.1</ele>
        <time>2016-05-06T12:24:35Z</time>
      </trkpt>
      <trkpt lat="50.60643" lon="1.66375">
        <ele>122</ele>
        <time>2016-05-06T12:24:38Z</time>
      </trkpt>
      <trkpt lat="50.6065" lon="1.66363">
        <ele>122.9</ele>
        <time>2016-05-06T12:24:41Z</time>
      </trkpt>
      <trkpt lat="50.60657" lon="1.6635">
        <ele>123.8</ele>
        <time>2016-05-06T12:24:44Z</time>
      </trkpt>
      <trkpt lat="50.60664" lon="1.66338">
        <ele>124.7</ele>
        <time>2016-05-06T12:24:47Z</time>
      </trkpt>
      <trkpt lat="50.60671" lon="1.66325">
        <ele>125.6</ele>
        <time>2016-05-06T12:24:50Z</time>
      </trkpt>
      <trkpt lat="50.60677" lon="1.66312">
        <ele>126.7</ele>
        <time>2016-05-06T12:24:53Z</time>
      </trkpt>
      <trkpt lat="50.60684" lon="1.66298">
        <ele>127.5</ele>
        <time>2016-05-06T12:24:56Z</time>
      </trkpt>
      <trkpt lat="50.60692" lon="1.66284">
        <ele>128.3</ele>
        <time>2016-05-06T12:24:59Z</time>
      </trkpt>
      <trkpt lat="50.607" lon="1.66268">
        <ele>128.9</ele>
        <time>2016-05-06T12:25:02Z</time>
      </trkpt>
      <trkpt lat="50.60707" lon="1.66255">
        <ele>129.3</ele>
        <time>2016-05-06T12:25:04Z</time>
      </trkpt>
      <trkpt lat="50.60715" lon="1.66238">
        <ele>129.6</ele>
        <time>2016-05-06T12:25:06Z</time>
      </trkpt>
      <trkpt lat="50.60726" lon="1.66219">
        <ele>129.8</ele>
        <time>2016-05-06T12:25:08Z</time>
      </trkpt>
      <trkpt lat="50.60731" lon="1.66208">
        <ele>129.8</ele>
        <time>2016-05-06T12:25:09Z</time>
      </trkpt>
      <trkpt lat="50.60738" lon="1.66196">
        <ele>129.8</ele>
        <time>2016-05-06T12:25:10Z</time>
      </trkpt>
      <trkpt lat="50.60744" lon="1.66182">
        <ele>129.7</ele>
        <time>2016-05-06T12:25:11Z</time>
      </trkpt>
      <trkpt lat="50.60752" lon="1.66168">
        <ele>129.5</ele>
        <time>2016-05-06T12:25:12Z</time>
      </trkpt>
      <trkpt lat="50.60759" lon="1.66154">
        <ele>129.3</ele>
        <time>2016-05-06T12:25:13Z</time>
      </trkpt>
      <trkpt lat="50.60767" lon="1.66139">
        <ele>129</ele>
        <time>2016-05-06T12:25:14Z</time>
      </trkpt>
      <trkpt lat="50.60775" lon="1.66123">
        <ele>128.6</ele>
        <time>2016-05-06T12:25:15Z</time>
      </trkpt>
      <trkpt lat="50.60783" lon="1.66107">
        <ele>128.3</ele>
        <time>2016-05-06T12:25:16Z</time>
      </trkpt>
      <trkpt lat="50.60792" lon="1.6609">
        <ele>127.7</ele>
        <time>2016-05-06T12:25:17Z</time>
      </trkpt>
      <trkpt lat="50.60801" lon="1.66072">
        <ele>127.2</ele>
        <time>2016-05-06T12:25:18Z</time>
      </trkpt>
      <trkpt lat="50.6081" lon="1.66054">
        <ele>126.6</ele>
        <time>2016-05-06T12:25:19Z</time>
      </trkpt>
      <trkpt lat="50.60819" lon="1.66035">
        <ele>125.9</ele>
        <time>2016-05-06T12:25:20Z</time>
      </trkpt>
      <trkpt lat="50.60829" lon="1.66017">
        <ele>125.2</ele>
        <time>2016-05-06T12:25:21Z</time>
      </trkpt>
      <trkpt lat="50.60839" lon="1.65998">
        <ele>124.4</ele>
        <time>2016-05-06T12:25:22Z</time>
      </trkpt>
      <trkpt lat="50.60849" lon="1.65979">
        <ele>123.6</ele>
        <time>2016-05-06T12:25:23Z</time>
      </trkpt>
      <trkpt lat="50.60858" lon="1.65959">
        <ele>122.5</ele>
        <time>2016-05-06T12:25:24Z</time>
      </trkpt>
      <trkpt lat="50.60868" lon="1.65939">
        <ele>121.6</ele>
        <time>2016-05-06T12:25:25Z</time>
      </trkpt>
      <trkpt lat="50.60878" lon="1.6592">
        <ele>120.7</ele>
        <time>2016-05-06T12:25:26Z</time>
      </trkpt>
      <trkpt lat="50.60889" lon="1.65901">
        <ele>119.7</ele>
        <time>2016-05-06T12:25:27Z</time>
      </trkpt>
      <trkpt lat="50.60902" lon="1.65883">
        <ele>118.7</ele>
        <time>2016-05-06T12:25:28Z</time>
      </trkpt>
      <trkpt lat="50.60915" lon="1.65868">
        <ele>117.7</ele>
        <time>2016-05-06T12:25:29Z</time>
      </trkpt>
      <trkpt lat="50.6093" lon="1.65854">
        <ele>116.5</ele>
        <time>2016-05-06T12:25:30Z</time>
      </trkpt>
      <trkpt lat="50.60946" lon="1.65844">
        <ele>115.4</ele>
        <time>2016-05-06T12:25:31Z</time>
      </trkpt>
      <trkpt lat="50.60963" lon="1.65836">
        <ele>114.2</ele>
        <time>2016-05-06T12:25:32Z</time>
      </trkpt>
      <trkpt lat="50.60979" lon="1.65831">
        <ele>113.1</ele>
        <time>2016-05-06T12:25:33Z</time>
      </trkpt>
      <trkpt lat="50.60997" lon="1.65827">
        <ele>111.8</ele>
        <time>2016-05-06T12:25:34Z</time>
      </trkpt>
      <trkpt lat="50.61014" lon="1.65824">
        <ele>110.6</ele>
        <time>2016-05-06T12:25:35Z</time>
      </trkpt>
      <trkpt lat="50.61031" lon="1.65822">
        <ele>109.4</ele>
        <time>2016-05-06T12:25:36Z</time>
      </trkpt>
      <trkpt lat="50.61048" lon="1.65819">
        <ele>108</ele>
        <time>2016-05-06T12:25:37Z</time>
      </trkpt>
      <trkpt lat="50.61065" lon="1.65817">
        <ele>106.7</ele>
        <time>2016-05-06T12:25:38Z</time>
      </trkpt>
      <trkpt lat="50.61082" lon="1.65815">
        <ele>105.4</ele>
        <time>2016-05-06T12:25:39Z</time>
      </trkpt>
      <trkpt lat="50.61098" lon="1.65812">
        <ele>104.1</ele>
        <time>2016-05-06T12:25:40Z</time>
      </trkpt>
      <trkpt lat="50.61114" lon="1.6581">
        <ele>102.9</ele>
        <time>2016-05-06T12:25:41Z</time>
      </trkpt>
      <trkpt lat="50.6113" lon="1.65807">
        <ele>101.7</ele>
        <time>2016-05-06T12:25:42Z</time>
      </trkpt>
      <trkpt lat="50.61145" lon="1.65805">
        <ele>100.6</ele>
        <time>2016-05-06T12:25:43Z</time>
      </trkpt>
      <trkpt lat="50.6116" lon="1.65803">
        <ele>99.5</ele>
        <time>2016-05-06T12:25:44Z</time>
      </trkpt>
      <trkpt lat="50.61174" lon="1.65801">
        <ele>98.4</ele>
        <time>2016-05-06T12:25:45Z</time>
      </trkpt>
      <trkpt lat="50.61187" lon="1.65799">
        <ele>97.3</ele>
        <time>2016-05-06T12:25:46Z</time>
      </trkpt>
      <trkpt lat="50.612" lon="1.65797">
        <ele>96.3</ele>
        <time>2016-05-06T12:25:47Z</time>
      </trkpt>
      <trkpt lat="50.61213" lon="1.65795">
        <ele>95.4</ele>
        <time>2016-05-06T12:25:48Z</time>
      </trkpt>
      <trkpt lat="50.61225" lon="1.65794">
        <ele>94.5</ele>
        <time>2016-05-06T12:25:49Z</time>
      </trkpt>
      <trkpt lat="50.61237" lon="1.65792">
        <ele>93.8</ele>
        <time>2016-05-06T12:25:50Z</time>
      </trkpt>
      <trkpt lat="50.61249" lon="1.65791">
        <ele>93.1</ele>
        <time>2016-05-06T12:25:51Z</time>
      </trkpt>
      <trkpt lat="50.61261" lon="1.6579">
        <ele>92.4</ele>
        <time>2016-05-06T12:25:52Z</time>
      </trkpt>
      <trkpt lat="50.61272" lon="1.65788">
        <ele>91.8</ele>
        <time>2016-05-06T12:25:53Z</time>
      </trkpt>
      <trkpt lat="50.61283" lon="1.65787">
        <ele>91.3</ele>
        <time>2016-05-06T12:25:54Z</time>
      </trkpt>
      <trkpt lat="50.61294" lon="1.65785">
        <ele>90.7</ele>
        <time>2016-05-06T12:25:55Z</time>
      </trkpt>
      <trkpt lat="50.61305" lon="1.65783">
        <ele>90.2</ele>
        <time>2016-05-06T12:25:56Z</time>
      </trkpt>
      <trkpt lat="50.61315" lon="1.65782">
        <ele>89.7</ele>
        <time>2016-05-06T12:25:57Z</time>
      </trkpt>
      <trkpt lat="50.61325" lon="1.65781">
        <ele>89.3</ele>
        <time>2016-05-06T12:25:58Z</time>
      </trkpt>
      <trkpt lat="50.61335" lon="1.6578">
        <ele>89</ele>
        <time>2016-05-06T12:25:59Z</time>
      </trkpt>
      <trkpt lat="50.61345" lon="1.65778">
        <ele>88.6</ele>
        <time>2016-05-06T12:26:00Z</time>
      </trkpt>
      <trkpt lat="50.61356" lon="1.65776">
        <ele>88.3</ele>
        <time>2016-05-06T12:26:01Z</time>
      </trkpt>
      <trkpt lat="50.61366" lon="1.65774">
        <ele>87.9</ele>
        <time>2016-05-06T12:26:02Z</time>
      </trkpt>
      <trkpt lat="50.61377" lon="1.6577">
        <ele>87.6</ele>
        <time>2016-05-06T12:26:03Z</time>
      </trkpt>
      <trkpt lat="50.61388" lon="1.65765">
        <ele>87.2</ele>
        <time>2016-05-06T12:26:04Z</time>
      </trkpt>
      <trkpt lat="50.614" lon="1.65758">
        <ele>86.8</ele>
        <time>2016-05-06T12:26:05Z</time>
      </trkpt>
      <trkpt lat="50.61411" lon="1.6575">
        <ele>86.4</ele>
        <time>2016-05-06T12:26:06Z</time>
      </trkpt>
      <trkpt lat="50.61423" lon="1.65741">
        <ele>86</ele>
        <time>2016-05-06T12:26:07Z</time>
      </trkpt>
      <trkpt lat="50.61434" lon="1.6573">
        <ele>85.6</ele>
        <time>2016-05-06T12:26:08Z</time>
      </trkpt>
      <trkpt lat="50.61445" lon="1.65719">
        <ele>85.2</ele>
        <time>2016-05-06T12:26:09Z</time>
      </trkpt>
      <trkpt lat="50.61457" lon="1.65708">
        <ele>84.6</ele>
        <time>2016-05-06T12:26:10Z</time>
      </trkpt>
      <trkpt lat="50.61468" lon="1.65695">
        <ele>84.2</ele>
        <time>2016-05-06T12:26:11Z</time>
      </trkpt>
      <trkpt lat="50.6148" lon="1.65683">
        <ele>83.6</ele>
        <time>2016-05-06T12:26:12Z</time>
      </trkpt>
      <trkpt lat="50.61491" lon="1.65671">
        <ele>83.1</ele>
        <time>2016-05-06T12:26:13Z</time>
      </trkpt>
      <trkpt lat="50.61502" lon="1.6566">
        <ele>82.6</ele>
        <time>2016-05-06T12:26:14Z</time>
      </trkpt>
      <trkpt lat="50.61513" lon="1.65649">
        <ele>82.1</ele>
        <time>2016-05-06T12:26:15Z</time>
      </trkpt>
      <trkpt lat="50.61523" lon="1.65638">
        <ele>81.5</ele>
        <time>2016-05-06T12:26:16Z</time>
      </trkpt>
      <trkpt lat="50.61533" lon="1.65628">
        <ele>81</ele>
        <time>2016-05-06T12:26:17Z</time>
      </trkpt>
      <trkpt lat="50.61544" lon="1.65618">
        <ele>80.5</ele>
        <time>2016-05-06T12:26:18Z</time>
      </trkpt>
      <trkpt lat="50.61554" lon="1.65609">
        <ele>80.1</ele>
        <time>2016-05-06T12:26:19Z</time>
      </trkpt>
      <trkpt lat="50.61565" lon="1.65599">
        <ele>79.6</ele>
        <time>2016-05-06T12:26:20Z</time>
      </trkpt>
      <trkpt lat="50.61575" lon="1.65588">
        <ele>79.3</ele>
        <time>2016-05-06T12:26:21Z</time>
      </trkpt>
      <trkpt lat="50.61585" lon="1.65578">
        <ele>78.8</ele>
        <time>2016-05-06T12:26:22Z</time>
      </trkpt>
      <trkpt lat="50.61595" lon="1.65568">
        <ele>78.4</ele>
        <time>2016-05-06T12:26:23Z</time>
      </trkpt>
      <trkpt lat="50.61605" lon="1.65558">
        <ele>78</ele>
        <time>2016-05-06T12:26:24Z</time>
      </trkpt>
      <trkpt lat="50.61616" lon="1.65548">
        <ele>77.6</ele>
        <time>2016-05-06T12:26:25Z</time>
      </trkpt>
      <trkpt lat="50.61626" lon="1.65538">
        <ele>77.2</ele>
        <time>2016-05-06T12:26:26Z</time>
      </trkpt>
      <trkpt lat="50.61637" lon="1.65527">
        <ele>76.8</ele>
        <time>2016-05-06T12:26:27Z</time>
      </trkpt>
      <trkpt lat="50.61647" lon="1.65517">
        <ele>76.3</ele>
        <time>2016-05-06T12:26:28Z</time>
      </trkpt>
      <trkpt lat="50.61657" lon="1.65507">
        <ele>75.9</ele>
        <time>2016-05-06T12:26:29Z</time>
      </trkpt>
      <trkpt lat="50.61667" lon="1.65497">
        <ele>75.5</ele>
        <time>2016-05-06T12:26:30Z</time>
      </trkpt>
      <trkpt lat="50.61677" lon="1.65487">
        <ele>75</ele>
        <time>2016-05-06T12:26:31Z</time>
      </trkpt>
      <trkpt lat="50.61687" lon="1.65477">
        <ele>74.6</ele>
        <time>2016-05-06T12:26:32Z</time>
      </trkpt>
      <trkpt lat="50.61697" lon="1.65467">
        <ele>74.1</ele>
        <time>2016-05-06T12:26:33Z</time>
      </trkpt>
      <trkpt lat="50.61707" lon="1.65457">
        <ele>73.7</ele>
        <time>2016-05-06T12:26:34Z</time>
      </trkpt>
      <trkpt lat="50.61717" lon="1.65447">
        <ele>73.2</ele>
        <time>2016-05-06T12:26:35Z</time>
      </trkpt>
      <trkpt lat="50.61727" lon="1.65438">
        <ele>72.8</ele>
        <time>2016-05-06T12:26:36Z</time>
      </trkpt>
      <trkpt lat="50.61736" lon="1.65428">
        <ele>72.4</ele>
        <time>2016-05-06T12:26:37Z</time>
      </trkpt>
      <trkpt lat="50.61745" lon="1.65419">
        <ele>72</ele>
        <time>2016-05-06T12:26:38Z</time>
      </trkpt>
      <trkpt lat="50.61754" lon="1.6541">
        <ele>71.6</ele>
        <time>2016-05-06T12:26:39Z</time>
      </trkpt>
      <trkpt lat="50.61763" lon="1.65401">
        <ele>71.2</ele>
        <time>2016-05-06T12:26:40Z</time>
      </trkpt>
      <trkpt lat="50.61772" lon="1.65392">
        <ele>70.9</ele>
        <time>2016-05-06T12:26:41Z</time>
      </trkpt>
      <trkpt lat="50.61781" lon="1.65384">
        <ele>70.5</ele>
        <time>2016-05-06T12:26:42Z</time>
      </trkpt>
      <trkpt lat="50.6179" lon="1.65375">
        <ele>70.2</ele>
        <time>2016-05-06T12:26:43Z</time>
      </trkpt>
      <trkpt lat="50.61798" lon="1.65366">
        <ele>69.9</ele>
        <time>2016-05-06T12:26:44Z</time>
      </trkpt>
      <trkpt lat="50.61807" lon="1.65358">
        <ele>69.5</ele>
        <time>2016-05-06T12:26:45Z</time>
      </trkpt>
      <trkpt lat="50.61816" lon="1.65349">
        <ele>69.2</ele>
        <time>2016-05-06T12:26:46Z</time>
      </trkpt>
      <trkpt lat="50.61824" lon="1.65341">
        <ele>68.8</ele>
        <time>2016-05-06T12:26:47Z</time>
      </trkpt>
      <trkpt lat="50.61832" lon="1.65333">
        <ele>68.5</ele>
        <time>2016-05-06T12:26:48Z</time>
      </trkpt>
      <trkpt lat="50.6184" lon="1.65325">
        <ele>68.1</ele>
        <time>2016-05-06T12:26:49Z</time>
      </trkpt>
      <trkpt lat="50.61848" lon="1.65319">
        <ele>67.8</ele>
        <time>2016-05-06T12:26:50Z</time>
      </trkpt>
      <trkpt lat="50.61857" lon="1.65315">
        <ele>67.6</ele>
        <time>2016-05-06T12:26:51Z</time>
      </trkpt>
      <trkpt lat="50.61872" lon="1.65299">
        <ele>67.3</ele>
        <time>2016-05-06T12:26:53Z</time>
      </trkpt>
      <trkpt lat="50.61886" lon="1.65284">
        <ele>66.9</ele>
        <time>2016-05-06T12:26:55Z</time>
      </trkpt>
      <trkpt lat="50.61899" lon="1.65268">
        <ele>66.6</ele>
        <time>2016-05-06T12:26:57Z</time>
      </trkpt>
      <trkpt lat="50.61911" lon="1.65252">
        <ele>66.3</ele>
        <time>2016-05-06T12:26:59Z</time>
      </trkpt>
      <trkpt lat="50.61922" lon="1.65236">
        <ele>66.2</ele>
        <time>2016-05-06T12:27:01Z</time>
      </trkpt>
      <trkpt lat="50.61932" lon="1.65219">
        <ele>66</ele>
        <time>2016-05-06T12:27:03Z</time>
      </trkpt>
      <trkpt lat="50.61942" lon="1.652">
        <ele>66</ele>
        <time>2016-05-06T12:27:05Z</time>
      </trkpt>
      <trkpt lat="50.61953" lon="1.65183">
        <ele>65.9</ele>
        <time>2016-05-06T12:27:07Z</time>
      </trkpt>
      <trkpt lat="50.61964" lon="1.65167">
        <ele>65.9</ele>
        <time>2016-05-06T12:27:09Z</time>
      </trkpt>
      <trkpt lat="50.61975" lon="1.65149">
        <ele>65.9</ele>
        <time>2016-05-06T12:27:11Z</time>
      </trkpt>
      <trkpt lat="50.61986" lon="1.6513">
        <ele>65.8</ele>
        <time>2016-05-06T12:27:13Z</time>
      </trkpt>
      <trkpt lat="50.61998" lon="1.65111">
        <ele>65.7</ele>
        <time>2016-05-06T12:27:15Z</time>
      </trkpt>
      <trkpt lat="50.62004" lon="1.65101">
        <ele>65.7</ele>
        <time>2016-05-06T12:27:16Z</time>
      </trkpt>
      <trkpt lat="50.62011" lon="1.65091">
        <ele>65.6</ele>
        <time>2016-05-06T12:27:17Z</time>
      </trkpt>
      <trkpt lat="50.62018" lon="1.65081">
        <ele>65.6</ele>
        <time>2016-05-06T12:27:18Z</time>
      </trkpt>
      <trkpt lat="50.62025" lon="1.65071">
        <ele>65.5</ele>
        <time>2016-05-06T12:27:19Z</time>
      </trkpt>
      <trkpt lat="50.62033" lon="1.65061">
        <ele>65.4</ele>
        <time>2016-05-06T12:27:20Z</time>
      </trkpt>
      <trkpt lat="50.6204" lon="1.65052">
        <ele>65.2</ele>
        <time>2016-05-06T12:27:21Z</time>
      </trkpt>
      <trkpt lat="50.62048" lon="1.65043">
        <ele>65.1</ele>
        <time>2016-05-06T12:27:22Z</time>
      </trkpt>
      <trkpt lat="50.62056" lon="1.65034">
        <ele>64.9</ele>
        <time>2016-05-06T12:27:23Z</time>
      </trkpt>
      <trkpt lat="50.62064" lon="1.65025">
        <ele>64.8</ele>
        <time>2016-05-06T12:27:24Z</time>
      </trkpt>
      <trkpt lat="50.62071" lon="1.65017">
        <ele>64.7</ele>
        <time>2016-05-06T12:27:25Z</time>
      </trkpt>
      <trkpt lat="50.62079" lon="1.65009">
        <ele>64.5</ele>
        <time>2016-05-06T12:27:26Z</time>
      </trkpt>
      <trkpt lat="50.62087" lon="1.65001">
        <ele>64.3</ele>
        <time>2016-05-06T12:27:27Z</time>
      </trkpt>
      <trkpt lat="50.62102" lon="1.64986">
        <ele>64</ele>
        <time>2016-05-06T12:27:29Z</time>
      </trkpt>
      <trkpt lat="50.62117" lon="1.64971">
        <ele>63.8</ele>
        <time>2016-05-06T12:27:31Z</time>
      </trkpt>
      <trkpt lat="50.62131" lon="1.64953">
        <ele>63.5</ele>
        <time>2016-05-06T12:27:33Z</time>
      </trkpt>
      <trkpt lat="50.62138" lon="1.64944">
        <ele>63.4</ele>
        <time>2016-05-06T12:27:34Z</time>
      </trkpt>
      <trkpt lat="50.6215" lon="1.64924">
        <ele>63.1</ele>
        <time>2016-05-06T12:27:36Z</time>
      </trkpt>
      <trkpt lat="50.62156" lon="1.64912">
        <ele>63</ele>
        <time>2016-05-06T12:27:37Z</time>
      </trkpt>
      <trkpt lat="50.62162" lon="1.64901">
        <ele>62.8</ele>
        <time>2016-05-06T12:27:38Z</time>
      </trkpt>
      <trkpt lat="50.62173" lon="1.64879">
        <ele>62.6</ele>
        <time>2016-05-06T12:27:40Z</time>
      </trkpt>
      <trkpt lat="50.62182" lon="1.64857">
        <ele>62.4</ele>
        <time>2016-05-06T12:27:42Z</time>
      </trkpt>
      <trkpt lat="50.62192" lon="1.64835">
        <ele>62.2</ele>
        <time>2016-05-06T12:27:44Z</time>
      </trkpt>
      <trkpt lat="50.62202" lon="1.64813">
        <ele>62</ele>
        <time>2016-05-06T12:27:46Z</time>
      </trkpt>
      <trkpt lat="50.62212" lon="1.64793">
        <ele>61.9</ele>
        <time>2016-05-06T12:27:48Z</time>
      </trkpt>
      <trkpt lat="50.62222" lon="1.64773">
        <ele>61.8</ele>
        <time>2016-05-06T12:27:50Z</time>
      </trkpt>
      <trkpt lat="50.62231" lon="1.64755">
        <ele>61.7</ele>
        <time>2016-05-06T12:27:52Z</time>
      </trkpt>
      <trkpt lat="50.62241" lon="1.64738">
        <ele>61.7</ele>
        <time>2016-05-06T12:27:54Z</time>
      </trkpt>
      <trkpt lat="50.62249" lon="1.64723">
        <ele>61.8</ele>
        <time>2016-05-06T12:27:56Z</time>
      </trkpt>
      <trkpt lat="50.62257" lon="1.64711">
        <ele>61.9</ele>
        <time>2016-05-06T12:27:58Z</time>
      </trkpt>
      <trkpt lat="50.62264" lon="1.647">
        <ele>62</ele>
        <time>2016-05-06T12:28:00Z</time>
      </trkpt>
      <trkpt lat="50.62273" lon="1.64689">
        <ele>62.1</ele>
        <time>2016-05-06T12:28:03Z</time>
      </trkpt>
      <trkpt lat="50.62279" lon="1.64678">
        <ele>62.4</ele>
        <time>2016-05-06T12:28:08Z</time>
      </trkpt>
      <trkpt lat="50.62274" lon="1.6466">
        <ele>62.5</ele>
        <time>2016-05-06T12:28:12Z</time>
      </trkpt>
      <trkpt lat="50.62266" lon="1.64649">
        <ele>62.6</ele>
        <time>2016-05-06T12:28:14Z</time>
      </trkpt>
      <trkpt lat="50.62254" lon="1.64637">
        <ele>62.5</ele>
        <time>2016-05-06T12:28:16Z</time>
      </trkpt>
      <trkpt lat="50.6224" lon="1.64623">
        <ele>62.3</ele>
        <time>2016-05-06T12:28:18Z</time>
      </trkpt>
      <trkpt lat="50.62232" lon="1.64615">
        <ele>62.1</ele>
        <time>2016-05-06T12:28:19Z</time>
      </trkpt>
      <trkpt lat="50.62224" lon="1.64607">
        <ele>61.4</ele>
        <time>2016-05-06T12:28:20Z</time>
      </trkpt>
      <trkpt lat="50.62216" lon="1.64598">
        <ele>61</ele>
        <time>2016-05-06T12:28:21Z</time>
      </trkpt>
      <trkpt lat="50.62208" lon="1.64589">
        <ele>60.7</ele>
        <time>2016-05-06T12:28:22Z</time>
      </trkpt>
      <trkpt lat="50.62199" lon="1.64581">
        <ele>60.3</ele>
        <time>2016-05-06T12:28:23Z</time>
      </trkpt>
      <trkpt lat="50.6219" lon="1.64572">
        <ele>60</ele>
        <time>2016-05-06T12:28:24Z</time>
      </trkpt>
      <trkpt lat="50.62181" lon="1.64562">
        <ele>59.7</ele>
        <time>2016-05-06T12:28:25Z</time>
      </trkpt>
      <trkpt lat="50.62172" lon="1.64552">
        <ele>59.4</ele>
        <time>2016-05-06T12:28:26Z</time>
      </trkpt>
      <trkpt lat="50.62163" lon="1.64543">
        <ele>59</ele>
        <time>2016-05-06T12:28:27Z</time>
      </trkpt>
      <trkpt lat="50.62155" lon="1.64534">
        <ele>58.7</ele>
        <time>2016-05-06T12:28:28Z</time>
      </trkpt>
      <trkpt lat="50.62146" lon="1.64526">
        <ele>58.3</ele>
        <time>2016-05-06T12:28:29Z</time>
      </trkpt>
      <trkpt lat="50.62138" lon="1.64518">
        <ele>58</ele>
        <time>2016-05-06T12:28:30Z</time>
      </trkpt>
      <trkpt lat="50.62124" lon="1.64502">
        <ele>57.3</ele>
        <time>2016-05-06T12:28:32Z</time>
      </trkpt>
      <trkpt lat="50.62111" lon="1.64488">
        <ele>56.8</ele>
        <time>2016-05-06T12:28:34Z</time>
      </trkpt>
      <trkpt lat="50.62097" lon="1.64473">
        <ele>56.3</ele>
        <time>2016-05-06T12:28:36Z</time>
      </trkpt>
      <trkpt lat="50.62085" lon="1.6446">
        <ele>55.8</ele>
        <time>2016-05-06T12:28:38Z</time>
      </trkpt>
      <trkpt lat="50.62073" lon="1.64447">
        <ele>55.5</ele>
        <time>2016-05-06T12:28:40Z</time>
      </trkpt>
      <trkpt lat="50.62061" lon="1.64435">
        <ele>55.2</ele>
        <time>2016-05-06T12:28:42Z</time>
      </trkpt>
      <trkpt lat="50.62049" lon="1.64423">
        <ele>54.9</ele>
        <time>2016-05-06T12:28:44Z</time>
      </trkpt>
      <trkpt lat="50.62038" lon="1.64411">
        <ele>54.8</ele>
        <time>2016-05-06T12:28:46Z</time>
      </trkpt>
      <trkpt lat="50.62027" lon="1.644">
        <ele>54.6</ele>
        <time>2016-05-06T12:28:48Z</time>
      </trkpt>
      <trkpt lat="50.62017" lon="1.64388">
        <ele>54.5</ele>
        <time>2016-05-06T12:28:50Z</time>
      </trkpt>
      <trkpt lat="50.62005" lon="1.64377">
        <ele>54.4</ele>
        <time>2016-05-06T12:28:52Z</time>
      </trkpt>
      <trkpt lat="50.61994" lon="1.64365">
        <ele>54.3</ele>
        <time>2016-05-06T12:28:54Z</time>
      </trkpt>
      <trkpt lat="50.61983" lon="1.64354">
        <ele>54.2</ele>
        <time>2016-05-06T12:28:56Z</time>
      </trkpt>
      <trkpt lat="50.61973" lon="1.64342">
        <ele>54.2</ele>
        <time>2016-05-06T12:28:58Z</time>
      </trkpt>
      <trkpt lat="50.61961" lon="1.64331">
        <ele>54.2</ele>
        <time>2016-05-06T12:29:00Z</time>
      </trkpt>
      <trkpt lat="50.61951" lon="1.64319">
        <ele>54.2</ele>
        <time>2016-05-06T12:29:02Z</time>
      </trkpt>
      <trkpt lat="50.6194" lon="1.64308">
        <ele>54.3</ele>
        <time>2016-05-06T12:29:04Z</time>
      </trkpt>
      <trkpt lat="50.61929" lon="1.64296">
        <ele>54.3</ele>
        <time>2016-05-06T12:29:06Z</time>
      </trkpt>
      <trkpt lat="50.61919" lon="1.64286">
        <ele>54.4</ele>
        <time>2016-05-06T12:29:08Z</time>
      </trkpt>
      <trkpt lat="50.61908" lon="1.64275">
        <ele>54.4</ele>
        <time>2016-05-06T12:29:10Z</time>
      </trkpt>
      <trkpt lat="50.61898" lon="1.64265">
        <ele>54.5</ele>
        <time>2016-05-06T12:29:12Z</time>
      </trkpt>
      <trkpt lat="50.61888" lon="1.64254">
        <ele>54.6</ele>
        <time>2016-05-06T12:29:14Z</time>
      </trkpt>
      <trkpt lat="50.61879" lon="1.64245">
        <ele>54.7</ele>
        <time>2016-05-06T12:29:16Z</time>
      </trkpt>
      <trkpt lat="50.6187" lon="1.64234">
        <ele>54.9</ele>
        <time>2016-05-06T12:29:18Z</time>
      </trkpt>
      <trkpt lat="50.61861" lon="1.64222">
        <ele>55</ele>
        <time>2016-05-06T12:29:20Z</time>
      </trkpt>
      <trkpt lat="50.61853" lon="1.64211">
        <ele>55.2</ele>
        <time>2016-05-06T12:29:22Z</time>
      </trkpt>
      <trkpt lat="50.61846" lon="1.64198">
        <ele>55.4</ele>
        <time>2016-05-06T12:29:24Z</time>
      </trkpt>
      <trkpt lat="50.61839" lon="1.64184">
        <ele>55.5</ele>
        <time>2016-05-06T12:29:26Z</time>
      </trkpt>
      <trkpt lat="50.61834" lon="1.64168">
        <ele>55.7</ele>
        <time>2016-05-06T12:29:28Z</time>
      </trkpt>
      <trkpt lat="50.61829" lon="1.64152">
        <ele>55.9</ele>
        <time>2016-05-06T12:29:30Z</time>
      </trkpt>
      <trkpt lat="50.61824" lon="1.64134">
        <ele>56</ele>
        <time>2016-05-06T12:29:32Z</time>
      </trkpt>
      <trkpt lat="50.61819" lon="1.64119">
        <ele>56.2</ele>
        <time>2016-05-06T12:29:34Z</time>
      </trkpt>
      <trkpt lat="50.61814" lon="1.64105">
        <ele>56.3</ele>
        <time>2016-05-06T12:29:36Z</time>
      </trkpt>
      <trkpt lat="50.61813" lon="1.6409">
        <ele>56.4</ele>
        <time>2016-05-06T12:29:38Z</time>
      </trkpt>
      <trkpt lat="50.61821" lon="1.64078">
        <ele>56.6</ele>
        <time>2016-05-06T12:29:40Z</time>
      </trkpt>
      <trkpt lat="50.61831" lon="1.64072">
        <ele>56.7</ele>
        <time>2016-05-06T12:29:42Z</time>
      </trkpt>
      <trkpt lat="50.61843" lon="1.64068">
        <ele>56.9</ele>
        <time>2016-05-06T12:29:44Z</time>
      </trkpt>
      <trkpt lat="50.61856" lon="1.64063">
        <ele>57</ele>
        <time>2016-05-06T12:29:46Z</time>
      </trkpt>
      <trkpt lat="50.6187" lon="1.6406">
        <ele>57.1</ele>
        <time>2016-05-06T12:29:48Z</time>
      </trkpt>
      <trkpt lat="50.61884" lon="1.64055">
        <ele>57.1</ele>
        <time>2016-05-06T12:29:50Z</time>
      </trkpt>
      <trkpt lat="50.619" lon="1.64049">
        <ele>57.2</ele>
        <time>2016-05-06T12:29:52Z</time>
      </trkpt>
      <trkpt lat="50.61915" lon="1.64047">
        <ele>57.1</ele>
        <time>2016-05-06T12:29:54Z</time>
      </trkpt>
      <trkpt lat="50.6193" lon="1.64043">
        <ele>57</ele>
        <time>2016-05-06T12:29:56Z</time>
      </trkpt>
      <trkpt lat="50.61946" lon="1.64038">
        <ele>56.9</ele>
        <time>2016-05-06T12:29:58Z</time>
      </trkpt>
      <trkpt lat="50.61961" lon="1.64027">
        <ele>56.7</ele>
        <time>2016-05-06T12:30:00Z</time>
      </trkpt>
      <trkpt lat="50.61973" lon="1.64007">
        <ele>56.4</ele>
        <time>2016-05-06T12:30:02Z</time>
      </trkpt>
      <trkpt lat="50.61985" lon="1.63987">
        <ele>56.1</ele>
        <time>2016-05-06T12:30:04Z</time>
      </trkpt>
      <trkpt lat="50.61997" lon="1.63967">
        <ele>55.8</ele>
        <time>2016-05-06T12:30:06Z</time>
      </trkpt>
      <trkpt lat="50.62009" lon="1.63947">
        <ele>55.5</ele>
        <time>2016-05-06T12:30:08Z</time>
      </trkpt>
      <trkpt lat="50.62021" lon="1.63926">
        <ele>55.1</ele>
        <time>2016-05-06T12:30:10Z</time>
      </trkpt>
      <trkpt lat="50.62032" lon="1.63905">
        <ele>54.8</ele>
        <time>2016-05-06T12:30:12Z</time>
      </trkpt>
      <trkpt lat="50.62042" lon="1.63883">
        <ele>54.4</ele>
        <time>2016-05-06T12:30:14Z</time>
      </trkpt>
      <trkpt lat="50.62052" lon="1.63861">
        <ele>53.9</ele>
        <time>2016-05-06T12:30:16Z</time>
      </trkpt>
      <trkpt lat="50.62062" lon="1.6384">
        <ele>53.5</ele>
        <time>2016-05-06T12:30:18Z</time>
      </trkpt>
      <trkpt lat="50.62071" lon="1.63818">
        <ele>53.1</ele>
        <time>2016-05-06T12:30:20Z</time>
      </trkpt>
      <trkpt lat="50.62081" lon="1.63798">
        <ele>52.8</ele>
        <time>2016-05-06T12:30:22Z</time>
      </trkpt>
      <trkpt lat="50.62095" lon="1.63782">
        <ele>52.4</ele>
        <time>2016-05-06T12:30:24Z</time>
      </trkpt>
      <trkpt lat="50.62108" lon="1.63767">
        <ele>52</ele>
        <time>2016-05-06T12:30:26Z</time>
      </trkpt>
      <trkpt lat="50.62118" lon="1.6375">
        <ele>51.6</ele>
        <time>2016-05-06T12:30:28Z</time>
      </trkpt>
      <trkpt lat="50.62126" lon="1.63737">
        <ele>51.2</ele>
        <time>2016-05-06T12:30:30Z</time>
      </trkpt>
      <trkpt lat="50.62133" lon="1.63728">
        <ele>50.9</ele>
        <time>2016-05-06T12:30:32Z</time>
      </trkpt>
      <trkpt lat="50.62141" lon="1.63721">
        <ele>50.5</ele>
        <time>2016-05-06T12:30:35Z</time>
      </trkpt>
      <trkpt lat="50.6215" lon="1.63719">
        <ele>49.9</ele>
        <time>2016-05-06T12:30:40Z</time>
      </trkpt>
      <trkpt lat="50.6216" lon="1.6372">
        <ele>49.4</ele>
        <time>2016-05-06T12:30:47Z</time>
      </trkpt>
      <trkpt lat="50.6217" lon="1.63716">
        <ele>49.1</ele>
        <time>2016-05-06T12:30:53Z</time>
      </trkpt>
      <trkpt lat="50.62179" lon="1.63708">
        <ele>49</ele>
        <time>2016-05-06T12:30:57Z</time>
      </trkpt>
      <trkpt lat="50.62188" lon="1.63699">
        <ele>48.9</ele>
        <time>2016-05-06T12:31:00Z</time>
      </trkpt>
      <trkpt lat="50.62193" lon="1.63682">
        <ele>48.8</ele>
        <time>2016-05-06T12:31:03Z</time>
      </trkpt>
      <trkpt lat="50.62199" lon="1.63669">
        <ele>48.7</ele>
        <time>2016-05-06T12:31:05Z</time>
      </trkpt>
      <trkpt lat="50.62205" lon="1.63655">
        <ele>48.6</ele>
        <time>2016-05-06T12:31:07Z</time>
      </trkpt>
      <trkpt lat="50.62211" lon="1.6364">
        <ele>48.5</ele>
        <time>2016-05-06T12:31:09Z</time>
      </trkpt>
      <trkpt lat="50.62217" lon="1.63625">
        <ele>48.5</ele>
        <time>2016-05-06T12:31:11Z</time>
      </trkpt>
      <trkpt lat="50.62223" lon="1.63611">
        <ele>48.4</ele>
        <time>2016-05-06T12:31:13Z</time>
      </trkpt>
      <trkpt lat="50.62229" lon="1.63597">
        <ele>48.4</ele>
        <time>2016-05-06T12:31:15Z</time>
      </trkpt>
      <trkpt lat="50.62235" lon="1.63583">
        <ele>48.4</ele>
        <time>2016-05-06T12:31:17Z</time>
      </trkpt>
      <trkpt lat="50.6224" lon="1.63569">
        <ele>48.4</ele>
        <time>2016-05-06T12:31:19Z</time>
      </trkpt>
      <trkpt lat="50.62246" lon="1.63555">
        <ele>48.4</ele>
        <time>2016-05-06T12:31:21Z</time>
      </trkpt>
      <trkpt lat="50.62251" lon="1.63543">
        <ele>48.5</ele>
        <time>2016-05-06T12:31:23Z</time>
      </trkpt>
      <trkpt lat="50.62256" lon="1.63525">
        <ele>48.5</ele>
        <time>2016-05-06T12:31:26Z</time>
      </trkpt>
      <trkpt lat="50.62249" lon="1.6351">
        <ele>48.6</ele>
        <time>2016-05-06T12:31:30Z</time>
      </trkpt>
      <trkpt lat="50.62243" lon="1.63495">
        <ele>48.7</ele>
        <time>2016-05-06T12:31:33Z</time>
      </trkpt>
      <trkpt lat="50.62233" lon="1.63483">
        <ele>48.7</ele>
        <time>2016-05-06T12:31:36Z</time>
      </trkpt>
      <trkpt lat="50.62224" lon="1.63477">
        <ele>48.8</ele>
        <time>2016-05-06T12:31:38Z</time>
      </trkpt>
      <trkpt lat="50.62214" lon="1.63468">
        <ele>49</ele>
        <time>2016-05-06T12:31:41Z</time>
      </trkpt>
      <trkpt lat="50.62223" lon="1.63481">
        <ele>49.3</ele>
        <time>2016-05-06T12:31:48Z</time>
      </trkpt>
      <trkpt lat="50.62235" lon="1.63489">
        <ele>49.5</ele>
        <time>2016-05-06T12:31:51Z</time>
      </trkpt>
      <trkpt lat="50.62244" lon="1.63494">
        <ele>49.5</ele>
        <time>2016-05-06T12:31:53Z</time>
      </trkpt>
      <trkpt lat="50.62256" lon="1.63499">
        <ele>49.7</ele>
        <time>2016-05-06T12:31:56Z</time>
      </trkpt>
      <trkpt lat="50.62263" lon="1.63488">
        <ele>49.8</ele>
        <time>2016-05-06T12:31:59Z</time>
      </trkpt>
      <trkpt lat="50.62266" lon="1.63469">
        <ele>49.9</ele>
        <time>2016-05-06T12:32:02Z</time>
      </trkpt>
      <trkpt lat="50.62271" lon="1.63455">
        <ele>50</ele>
        <time>2016-05-06T12:32:04Z</time>
      </trkpt>
      <trkpt lat="50.62277" lon="1.63439">
        <ele>50</ele>
        <time>2016-05-06T12:32:06Z</time>
      </trkpt>
      <trkpt lat="50.62284" lon="1.63423">
        <ele>50.1</ele>
        <time>2016-05-06T12:32:08Z</time>
      </trkpt>
      <trkpt lat="50.6229" lon="1.63407">
        <ele>50.1</ele>
        <time>2016-05-06T12:32:10Z</time>
      </trkpt>
      <trkpt lat="50.62297" lon="1.63392">
        <ele>50.1</ele>
        <time>2016-05-06T12:32:12Z</time>
      </trkpt>
      <trkpt lat="50.62303" lon="1.63378">
        <ele>50.2</ele>
        <time>2016-05-06T12:32:14Z</time>
      </trkpt>
      <trkpt lat="50.62308" lon="1.63364">
        <ele>50.2</ele>
        <time>2016-05-06T12:32:16Z</time>
      </trkpt>
      <trkpt lat="50.62315" lon="1.6335">
        <ele>50.2</ele>
        <time>2016-05-06T12:32:19Z</time>
      </trkpt>
      <trkpt lat="50.62309" lon="1.63362">
        <ele>50.3</ele>
        <time>2016-05-06T12:32:26Z</time>
      </trkpt>
      <trkpt lat="50.62303" lon="1.63379">
        <ele>50.3</ele>
        <time>2016-05-06T12:32:29Z</time>
      </trkpt>
      <trkpt lat="50.62297" lon="1.63391">
        <ele>50.3</ele>
        <time>2016-05-06T12:32:31Z</time>
      </trkpt>
      <trkpt lat="50.62291" lon="1.63405">
        <ele>50.3</ele>
        <time>2016-05-06T12:32:33Z</time>
      </trkpt>
      <trkpt lat="50.62285" lon="1.63418">
        <ele>50.3</ele>
        <time>2016-05-06T12:32:35Z</time>
      </trkpt>
      <trkpt lat="50.62279" lon="1.63432">
        <ele>50.3</ele>
        <time>2016-05-06T12:32:37Z</time>
      </trkpt>
      <trkpt lat="50.62274" lon="1.63445">
        <ele>50.3</ele>
        <time>2016-05-06T12:32:39Z</time>
      </trkpt>
      <trkpt lat="50.62269" lon="1.63458">
        <ele>50.3</ele>
        <time>2016-05-06T12:32:41Z</time>
      </trkpt>
      <trkpt lat="50.62265" lon="1.63471">
        <ele>50.4</ele>
        <time>2016-05-06T12:32:43Z</time>
      </trkpt>
      <trkpt lat="50.6226" lon="1.63491">
        <ele>50.4</ele>
        <time>2016-05-06T12:32:46Z</time>
      </trkpt>
      <trkpt lat="50.62249" lon="1.63494">
        <ele>50.4</ele>
        <time>2016-05-06T12:32:49Z</time>
      </trkpt>
      <trkpt lat="50.62236" lon="1.63486">
        <ele>50.4</ele>
        <time>2016-05-06T12:32:52Z</time>
      </trkpt>
      <trkpt lat="50.62227" lon="1.63481">
        <ele>50.4</ele>
        <time>2016-05-06T12:32:54Z</time>
      </trkpt>
      <trkpt lat="50.62217" lon="1.63475">
        <ele>50.4</ele>
        <time>2016-05-06T12:32:56Z</time>
      </trkpt>
      <trkpt lat="50.62207" lon="1.63466">
        <ele>50.4</ele>
        <time>2016-05-06T12:32:58Z</time>
      </trkpt>
      <trkpt lat="50.62196" lon="1.63457">
        <ele>50.4</ele>
        <time>2016-05-06T12:33:00Z</time>
      </trkpt>
      <trkpt lat="50.62186" lon="1.6345">
        <ele>50.4</ele>
        <time>2016-05-06T12:33:02Z</time>
      </trkpt>
      <trkpt lat="50.62175" lon="1.63443">
        <ele>50.4</ele>
        <time>2016-05-06T12:33:04Z</time>
      </trkpt>
      <trkpt lat="50.62164" lon="1.63437">
        <ele>50.4</ele>
        <time>2016-05-06T12:33:06Z</time>
      </trkpt>
      <trkpt lat="50.62153" lon="1.63432">
        <ele>50.5</ele>
        <time>2016-05-06T12:33:08Z</time>
      </trkpt>
      <trkpt lat="50.62142" lon="1.63428">
        <ele>50.5</ele>
        <time>2016-05-06T12:33:10Z</time>
      </trkpt>
      <trkpt lat="50.62131" lon="1.63425">
        <ele>50.6</ele>
        <time>2016-05-06T12:33:12Z</time>
      </trkpt>
      <trkpt lat="50.6212" lon="1.63422">
        <ele>50.7</ele>
        <time>2016-05-06T12:33:14Z</time>
      </trkpt>
      <trkpt lat="50.62109" lon="1.63419">
        <ele>50.8</ele>
        <time>2016-05-06T12:33:16Z</time>
      </trkpt>
      <trkpt lat="50.62097" lon="1.63415">
        <ele>50.9</ele>
        <time>2016-05-06T12:33:18Z</time>
      </trkpt>
      <trkpt lat="50.62086" lon="1.6341">
        <ele>51.1</ele>
        <time>2016-05-06T12:33:20Z</time>
      </trkpt>
      <trkpt lat="50.62075" lon="1.63404">
        <ele>51.2</ele>
        <time>2016-05-06T12:33:22Z</time>
      </trkpt>
      <trkpt lat="50.62064" lon="1.63398">
        <ele>51.3</ele>
        <time>2016-05-06T12:33:24Z</time>
      </trkpt>
      <trkpt lat="50.62053" lon="1.63391">
        <ele>51.4</ele>
        <time>2016-05-06T12:33:26Z</time>
      </trkpt>
      <trkpt lat="50.62043" lon="1.63384">
        <ele>51.5</ele>
        <time>2016-05-06T12:33:28Z</time>
      </trkpt>
      <trkpt lat="50.62033" lon="1.63377">
        <ele>51.6</ele>
        <time>2016-05-06T12:33:30Z</time>
      </trkpt>
      <trkpt lat="50.62024" lon="1.63369">
        <ele>51.7</ele>
        <time>2016-05-06T12:33:32Z</time>
      </trkpt>
      <trkpt lat="50.62016" lon="1.63359">
        <ele>51.9</ele>
        <time>2016-05-06T12:33:34Z</time>
      </trkpt>
      <trkpt lat="50.62009" lon="1.63348">
        <ele>52.1</ele>
        <time>2016-05-06T12:33:36Z</time>
      </trkpt>
      <trkpt lat="50.62003" lon="1.63338">
        <ele>52.3</ele>
        <time>2016-05-06T12:33:38Z</time>
      </trkpt>
      <trkpt lat="50.61996" lon="1.63326">
        <ele>52.4</ele>
        <time>2016-05-06T12:33:40Z</time>
      </trkpt>
      <trkpt lat="50.61989" lon="1.63314">
        <ele>52.6</ele>
        <time>2016-05-06T12:33:42Z</time>
      </trkpt>
      <trkpt lat="50.61982" lon="1.63301">
        <ele>52.8</ele>
        <time>2016-05-06T12:33:44Z</time>
      </trkpt>
      <trkpt lat="50.61975" lon="1.63288">
        <ele>53</ele>
        <time>2016-05-06T12:33:46Z</time>
      </trkpt>
      <trkpt lat="50.61967" lon="1.63275">
        <ele>53.2</ele>
        <time>2016-05-06T12:33:48Z</time>
      </trkpt>
      <trkpt lat="50.6196" lon="1.63261">
        <ele>53.5</ele>
        <time>2016-05-06T12:33:50Z</time>
      </trkpt>
      <trkpt lat="50.61953" lon="1.63248">
        <ele>53.7</ele>
        <time>2016-05-06T12:33:52Z</time>
      </trkpt>
      <trkpt lat="50.61946" lon="1.63235">
        <ele>53.8</ele>
        <time>2016-05-06T12:33:54Z</time>
      </trkpt>
      <trkpt lat="50.61941" lon="1.6322">
        <ele>54</ele>
        <time>2016-05-06T12:33:56Z</time>
      </trkpt>
      <trkpt lat="50.61936" lon="1.63204">
        <ele>54.2</ele>
        <time>2016-05-06T12:33:58Z</time>
      </trkpt>
      <trkpt lat="50.61932" lon="1.63188">
        <ele>54.3</ele>
        <time>2016-05-06T12:34:00Z</time>
      </trkpt>
      <trkpt lat="50.61928" lon="1.63174">
        <ele>54.5</ele>
        <time>2016-05-06T12:34:02Z</time>
      </trkpt>
      <trkpt lat="50.61925" lon="1.63158">
        <ele>54.7</ele>
        <time>2016-05-06T12:34:04Z</time>
      </trkpt>
      <trkpt lat="50.61923" lon="1.63141">
        <ele>54.9</ele>
        <time>2016-05-06T12:34:06Z</time>
      </trkpt>
      <trkpt lat="50.61922" lon="1.63123">
        <ele>51.6</ele>
        <time>2016-05-06T12:34:08Z</time>
      </trkpt>
      <trkpt lat="50.61921" lon="1.63107">
        <ele>51.9</ele>
        <time>2016-05-06T12:34:10Z</time>
      </trkpt>
      <trkpt lat="50.61918" lon="1.6309">
        <ele>53.2</ele>
        <time>2016-05-06T12:34:12Z</time>
      </trkpt>
      <trkpt lat="50.61917" lon="1.63075">
        <ele>54.1</ele>
        <time>2016-05-06T12:34:14Z</time>
      </trkpt>
      <trkpt lat="50.61916" lon="1.63054">
        <ele>55.2</ele>
        <time>2016-05-06T12:34:17Z</time>
      </trkpt>
      <trkpt lat="50.61912" lon="1.63033">
        <ele>55.9</ele>
        <time>2016-05-06T12:34:20Z</time>
      </trkpt>
      <trkpt lat="50.61908" lon="1.63019">
        <ele>56.3</ele>
        <time>2016-05-06T12:34:22Z</time>
      </trkpt>
      <trkpt lat="50.61902" lon="1.63004">
        <ele>56.6</ele>
        <time>2016-05-06T12:34:24Z</time>
      </trkpt>
      <trkpt lat="50.61897" lon="1.62989">
        <ele>56.9</ele>
        <time>2016-05-06T12:34:26Z</time>
      </trkpt>
      <trkpt lat="50.61892" lon="1.62974">
        <ele>57.1</ele>
        <time>2016-05-06T12:34:28Z</time>
      </trkpt>
      <trkpt lat="50.61888" lon="1.62958">
        <ele>57.3</ele>
        <time>2016-05-06T12:34:30Z</time>
      </trkpt>
      <trkpt lat="50.61885" lon="1.6294">
        <ele>57.5</ele>
        <time>2016-05-06T12:34:32Z</time>
      </trkpt>
      <trkpt lat="50.61882" lon="1.62922">
        <ele>57.7</ele>
        <time>2016-05-06T12:34:34Z</time>
      </trkpt>
      <trkpt lat="50.61879" lon="1.62904">
        <ele>57.9</ele>
        <time>2016-05-06T12:34:36Z</time>
      </trkpt>
      <trkpt lat="50.61876" lon="1.62886">
        <ele>58.1</ele>
        <time>2016-05-06T12:34:38Z</time>
      </trkpt>
      <trkpt lat="50.61874" lon="1.62868">
        <ele>58.2</ele>
        <time>2016-05-06T12:34:40Z</time>
      </trkpt>
      <trkpt lat="50.61871" lon="1.6285">
        <ele>58.4</ele>
        <time>2016-05-06T12:34:42Z</time>
      </trkpt>
      <trkpt lat="50.61868" lon="1.62831">
        <ele>58.6</ele>
        <time>2016-05-06T12:34:44Z</time>
      </trkpt>
      <trkpt lat="50.61866" lon="1.62811">
        <ele>58.8</ele>
        <time>2016-05-06T12:34:46Z</time>
      </trkpt>
      <trkpt lat="50.61863" lon="1.62793">
        <ele>59</ele>
        <time>2016-05-06T12:34:48Z</time>
      </trkpt>
      <trkpt lat="50.6186" lon="1.62775">
        <ele>59.2</ele>
        <time>2016-05-06T12:34:50Z</time>
      </trkpt>
      <trkpt lat="50.61856" lon="1.62758">
        <ele>59.3</ele>
        <time>2016-05-06T12:34:52Z</time>
      </trkpt>
      <trkpt lat="50.61852" lon="1.62742">
        <ele>59.4</ele>
        <time>2016-05-06T12:34:54Z</time>
      </trkpt>
      <trkpt lat="50.61848" lon="1.62728">
        <ele>59.6</ele>
        <time>2016-05-06T12:34:56Z</time>
      </trkpt>
      <trkpt lat="50.61844" lon="1.62716">
        <ele>59.8</ele>
        <time>2016-05-06T12:34:58Z</time>
      </trkpt>
      <trkpt lat="50.61841" lon="1.62699">
        <ele>60</ele>
        <time>2016-05-06T12:35:01Z</time>
      </trkpt>
      <trkpt lat="50.61846" lon="1.62686">
        <ele>60.2</ele>
        <time>2016-05-06T12:35:04Z</time>
      </trkpt>
      <trkpt lat="50.61857" lon="1.62673">
        <ele>60.4</ele>
        <time>2016-05-06T12:35:07Z</time>
      </trkpt>
      <trkpt lat="50.61866" lon="1.62665">
        <ele>60.5</ele>
        <time>2016-05-06T12:35:09Z</time>
      </trkpt>
      <trkpt lat="50.61875" lon="1.62654">
        <ele>60.6</ele>
        <time>2016-05-06T12:35:11Z</time>
      </trkpt>
      <trkpt lat="50.61883" lon="1.62644">
        <ele>60.9</ele>
        <time>2016-05-06T12:35:13Z</time>
      </trkpt>
      <trkpt lat="50.61892" lon="1.62634">
        <ele>61.1</ele>
        <time>2016-05-06T12:35:15Z</time>
      </trkpt>
      <trkpt lat="50.61901" lon="1.62624">
        <ele>61.2</ele>
        <time>2016-05-06T12:35:17Z</time>
      </trkpt>
      <trkpt lat="50.6191" lon="1.62615">
        <ele>61.4</ele>
        <time>2016-05-06T12:35:19Z</time>
      </trkpt>
      <trkpt lat="50.6192" lon="1.62604">
        <ele>61.5</ele>
        <time>2016-05-06T12:35:21Z</time>
      </trkpt>
      <trkpt lat="50.6193" lon="1.62594">
        <ele>61.7</ele>
        <time>2016-05-06T12:35:23Z</time>
      </trkpt>
      <trkpt lat="50.61939" lon="1.62583">
        <ele>61.8</ele>
        <time>2016-05-06T12:35:25Z</time>
      </trkpt>
      <trkpt lat="50.61949" lon="1.62573">
        <ele>61.8</ele>
        <time>2016-05-06T12:35:27Z</time>
      </trkpt>
      <trkpt lat="50.61959" lon="1.62561">
        <ele>62</ele>
        <time>2016-05-06T12:35:29Z</time>
      </trkpt>
      <trkpt lat="50.61969" lon="1.62551">
        <ele>62.2</ele>
        <time>2016-05-06T12:35:31Z</time>
      </trkpt>
      <trkpt lat="50.61979" lon="1.62541">
        <ele>62.4</ele>
        <time>2016-05-06T12:35:33Z</time>
      </trkpt>
      <trkpt lat="50.61989" lon="1.62532">
        <ele>62.6</ele>
        <time>2016-05-06T12:35:35Z</time>
      </trkpt>
      <trkpt lat="50.61998" lon="1.62522">
        <ele>62.8</ele>
        <time>2016-05-06T12:35:37Z</time>
      </trkpt>
      <trkpt lat="50.62007" lon="1.62513">
        <ele>63</ele>
        <time>2016-05-06T12:35:39Z</time>
      </trkpt>
      <trkpt lat="50.62016" lon="1.62504">
        <ele>63.3</ele>
        <time>2016-05-06T12:35:41Z</time>
      </trkpt>
      <trkpt lat="50.62024" lon="1.62493">
        <ele>63.5</ele>
        <time>2016-05-06T12:35:43Z</time>
      </trkpt>
      <trkpt lat="50.62032" lon="1.62483">
        <ele>63.8</ele>
        <time>2016-05-06T12:35:45Z</time>
      </trkpt>
      <trkpt lat="50.62039" lon="1.62473">
        <ele>64</ele>
        <time>2016-05-06T12:35:47Z</time>
      </trkpt>
      <trkpt lat="50.62046" lon="1.62464">
        <ele>64.4</ele>
        <time>2016-05-06T12:35:49Z</time>
      </trkpt>
      <trkpt lat="50.62053" lon="1.62455">
        <ele>64.8</ele>
        <time>2016-05-06T12:35:51Z</time>
      </trkpt>
      <trkpt lat="50.62065" lon="1.62444">
        <ele>65.3</ele>
        <time>2016-05-06T12:35:54Z</time>
      </trkpt>
      <trkpt lat="50.62077" lon="1.62435">
        <ele>66</ele>
        <time>2016-05-06T12:35:57Z</time>
      </trkpt>
      <trkpt lat="50.62089" lon="1.62427">
        <ele>66.8</ele>
        <time>2016-05-06T12:36:00Z</time>
      </trkpt>
      <trkpt lat="50.621" lon="1.62422">
        <ele>67.7</ele>
        <time>2016-05-06T12:36:03Z</time>
      </trkpt>
      <trkpt lat="50.6211" lon="1.62407">
        <ele>68.5</ele>
        <time>2016-05-06T12:36:06Z</time>
      </trkpt>
      <trkpt lat="50.62119" lon="1.62398">
        <ele>69.1</ele>
        <time>2016-05-06T12:36:08Z</time>
      </trkpt>
      <trkpt lat="50.62129" lon="1.62392">
        <ele>69.7</ele>
        <time>2016-05-06T12:36:10Z</time>
      </trkpt>
      <trkpt lat="50.62141" lon="1.62385">
        <ele>70.2</ele>
        <time>2016-05-06T12:36:12Z</time>
      </trkpt>
      <trkpt lat="50.62153" lon="1.62376">
        <ele>70.6</ele>
        <time>2016-05-06T12:36:14Z</time>
      </trkpt>
      <trkpt lat="50.62167" lon="1.62363">
        <ele>70.9</ele>
        <time>2016-05-06T12:36:16Z</time>
      </trkpt>
      <trkpt lat="50.62181" lon="1.62351">
        <ele>71.1</ele>
        <time>2016-05-06T12:36:18Z</time>
      </trkpt>
      <trkpt lat="50.62195" lon="1.62339">
        <ele>71.3</ele>
        <time>2016-05-06T12:36:20Z</time>
      </trkpt>
      <trkpt lat="50.62209" lon="1.62327">
        <ele>71.4</ele>
        <time>2016-05-06T12:36:22Z</time>
      </trkpt>
      <trkpt lat="50.62224" lon="1.62316">
        <ele>71.4</ele>
        <time>2016-05-06T12:36:24Z</time>
      </trkpt>
      <trkpt lat="50.6224" lon="1.6231">
        <ele>71.4</ele>
        <time>2016-05-06T12:36:26Z</time>
      </trkpt>
      <trkpt lat="50.62255" lon="1.62309">
        <ele>70.9</ele>
        <time>2016-05-06T12:36:28Z</time>
      </trkpt>
      <trkpt lat="50.6227" lon="1.62316">
        <ele>70.7</ele>
        <time>2016-05-06T12:36:30Z</time>
      </trkpt>
      <trkpt lat="50.62283" lon="1.62326">
        <ele>70.6</ele>
        <time>2016-05-06T12:36:32Z</time>
      </trkpt>
      <trkpt lat="50.62296" lon="1.62338">
        <ele>70.5</ele>
        <time>2016-05-06T12:36:34Z</time>
      </trkpt>
      <trkpt lat="50.62309" lon="1.62349">
        <ele>70.4</ele>
        <time>2016-05-06T12:36:36Z</time>
      </trkpt>
      <trkpt lat="50.62322" lon="1.6236">
        <ele>70.3</ele>
        <time>2016-05-06T12:36:38Z</time>
      </trkpt>
      <trkpt lat="50.62336" lon="1.62371">
        <ele>70.2</ele>
        <time>2016-05-06T12:36:40Z</time>
      </trkpt>
      <trkpt lat="50.62352" lon="1.6238">
        <ele>69.9</ele>
        <time>2016-05-06T12:36:42Z</time>
      </trkpt>
      <trkpt lat="50.62369" lon="1.62386">
        <ele>69.7</ele>
        <time>2016-05-06T12:36:44Z</time>
      </trkpt>
      <trkpt lat="50.62378" lon="1.6239">
        <ele>69.6</ele>
        <time>2016-05-06T12:36:45Z</time>
      </trkpt>
      <trkpt lat="50.62387" lon="1.62392">
        <ele>69.5</ele>
        <time>2016-05-06T12:36:46Z</time>
      </trkpt>
      <trkpt lat="50.62396" lon="1.62393">
        <ele>69.4</ele>
        <time>2016-05-06T12:36:47Z</time>
      </trkpt>
      <trkpt lat="50.62406" lon="1.62393">
        <ele>69.3</ele>
        <time>2016-05-06T12:36:48Z</time>
      </trkpt>
      <trkpt lat="50.62416" lon="1.62393">
        <ele>69.2</ele>
        <time>2016-05-06T12:36:49Z</time>
      </trkpt>
      <trkpt lat="50.62426" lon="1.62392">
        <ele>69</ele>
        <time>2016-05-06T12:36:50Z</time>
      </trkpt>
      <trkpt lat="50.62435" lon="1.6239">
        <ele>68.9</ele>
        <time>2016-05-06T12:36:51Z</time>
      </trkpt>
      <trkpt lat="50.62445" lon="1.62387">
        <ele>68.7</ele>
        <time>2016-05-06T12:36:52Z</time>
      </trkpt>
      <trkpt lat="50.62455" lon="1.62384">
        <ele>68.5</ele>
        <time>2016-05-06T12:36:53Z</time>
      </trkpt>
      <trkpt lat="50.62464" lon="1.62379">
        <ele>68.4</ele>
        <time>2016-05-06T12:36:54Z</time>
      </trkpt>
      <trkpt lat="50.62474" lon="1.62373">
        <ele>68.2</ele>
        <time>2016-05-06T12:36:55Z</time>
      </trkpt>
      <trkpt lat="50.62483" lon="1.62366">
        <ele>68</ele>
        <time>2016-05-06T12:36:56Z</time>
      </trkpt>
      <trkpt lat="50.62493" lon="1.62359">
        <ele>67.9</ele>
        <time>2016-05-06T12:36:57Z</time>
      </trkpt>
      <trkpt lat="50.62502" lon="1.62352">
        <ele>67.7</ele>
        <time>2016-05-06T12:36:58Z</time>
      </trkpt>
      <trkpt lat="50.62512" lon="1.62344">
        <ele>67.5</ele>
        <time>2016-05-06T12:36:59Z</time>
      </trkpt>
      <trkpt lat="50.62521" lon="1.62337">
        <ele>67.3</ele>
        <time>2016-05-06T12:37:00Z</time>
      </trkpt>
      <trkpt lat="50.62531" lon="1.6233">
        <ele>67.1</ele>
        <time>2016-05-06T12:37:01Z</time>
      </trkpt>
      <trkpt lat="50.6254" lon="1.62323">
        <ele>66.9</ele>
        <time>2016-05-06T12:37:02Z</time>
      </trkpt>
      <trkpt lat="50.62549" lon="1.62316">
        <ele>66.7</ele>
        <time>2016-05-06T12:37:03Z</time>
      </trkpt>
      <trkpt lat="50.62557" lon="1.6231">
        <ele>66.6</ele>
        <time>2016-05-06T12:37:04Z</time>
      </trkpt>
      <trkpt lat="50.62566" lon="1.62305">
        <ele>66.4</ele>
        <time>2016-05-06T12:37:05Z</time>
      </trkpt>
      <trkpt lat="50.6258" lon="1.62295">
        <ele>66.2</ele>
        <time>2016-05-06T12:37:07Z</time>
      </trkpt>
      <trkpt lat="50.62591" lon="1.62288">
        <ele>66.2</ele>
        <time>2016-05-06T12:37:09Z</time>
      </trkpt>
      <trkpt lat="50.62603" lon="1.62286">
        <ele>66.2</ele>
        <time>2016-05-06T12:37:11Z</time>
      </trkpt>
      <trkpt lat="50.62614" lon="1.62288">
        <ele>66.3</ele>
        <time>2016-05-06T12:37:13Z</time>
      </trkpt>
      <trkpt lat="50.62624" lon="1.62292">
        <ele>66.5</ele>
        <time>2016-05-06T12:37:15Z</time>
      </trkpt>
      <trkpt lat="50.62633" lon="1.62298">
        <ele>66.8</ele>
        <time>2016-05-06T12:37:17Z</time>
      </trkpt>
      <trkpt lat="50.62642" lon="1.62305">
        <ele>67.1</ele>
        <time>2016-05-06T12:37:19Z</time>
      </trkpt>
      <trkpt lat="50.62651" lon="1.62311">
        <ele>67.5</ele>
        <time>2016-05-06T12:37:21Z</time>
      </trkpt>
      <trkpt lat="50.6266" lon="1.62318">
        <ele>67.9</ele>
        <time>2016-05-06T12:37:23Z</time>
      </trkpt>
      <trkpt lat="50.62669" lon="1.62324">
        <ele>68.4</ele>
        <time>2016-05-06T12:37:25Z</time>
      </trkpt>
      <trkpt lat="50.62679" lon="1.6233">
        <ele>68.9</ele>
        <time>2016-05-06T12:37:27Z</time>
      </trkpt>
      <trkpt lat="50.6269" lon="1.62336">
        <ele>69.5</ele>
        <time>2016-05-06T12:37:29Z</time>
      </trkpt>
      <trkpt lat="50.62702" lon="1.6234">
        <ele>70</ele>
        <time>2016-05-06T12:37:31Z</time>
      </trkpt>
      <trkpt lat="50.62715" lon="1.62343">
        <ele>70.6</ele>
        <time>2016-05-06T12:37:33Z</time>
      </trkpt>
      <trkpt lat="50.62729" lon="1.62342">
        <ele>71</ele>
        <time>2016-05-06T12:37:35Z</time>
      </trkpt>
      <trkpt lat="50.62745" lon="1.62338">
        <ele>71.4</ele>
        <time>2016-05-06T12:37:37Z</time>
      </trkpt>
      <trkpt lat="50.6276" lon="1.62333">
        <ele>71.5</ele>
        <time>2016-05-06T12:37:39Z</time>
      </trkpt>
      <trkpt lat="50.62776" lon="1.62326">
        <ele>71.6</ele>
        <time>2016-05-06T12:37:41Z</time>
      </trkpt>
      <trkpt lat="50.62793" lon="1.62318">
        <ele>71.5</ele>
        <time>2016-05-06T12:37:43Z</time>
      </trkpt>
      <trkpt lat="50.62802" lon="1.62314">
        <ele>71.4</ele>
        <time>2016-05-06T12:37:44Z</time>
      </trkpt>
      <trkpt lat="50.62811" lon="1.6231">
        <ele>71.4</ele>
        <time>2016-05-06T12:37:45Z</time>
      </trkpt>
      <trkpt lat="50.62821" lon="1.62306">
        <ele>71.3</ele>
        <time>2016-05-06T12:37:46Z</time>
      </trkpt>
      <trkpt lat="50.6283" lon="1.62301">
        <ele>70.3</ele>
        <time>2016-05-06T12:37:47Z</time>
      </trkpt>
      <trkpt lat="50.6284" lon="1.62295">
        <ele>70.3</ele>
        <time>2016-05-06T12:37:48Z</time>
      </trkpt>
      <trkpt lat="50.6285" lon="1.6229">
        <ele>70.2</ele>
        <time>2016-05-06T12:37:49Z</time>
      </trkpt>
      <trkpt lat="50.6286" lon="1.62286">
        <ele>70.1</ele>
        <time>2016-05-06T12:37:50Z</time>
      </trkpt>
      <trkpt lat="50.6287" lon="1.62281">
        <ele>70</ele>
        <time>2016-05-06T12:37:51Z</time>
      </trkpt>
      <trkpt lat="50.62879" lon="1.62276">
        <ele>69.9</ele>
        <time>2016-05-06T12:37:52Z</time>
      </trkpt>
      <trkpt lat="50.62889" lon="1.62271">
        <ele>69.7</ele>
        <time>2016-05-06T12:37:53Z</time>
      </trkpt>
      <trkpt lat="50.62899" lon="1.62265">
        <ele>69.5</ele>
        <time>2016-05-06T12:37:54Z</time>
      </trkpt>
      <trkpt lat="50.6291" lon="1.6226">
        <ele>69.3</ele>
        <time>2016-05-06T12:37:55Z</time>
      </trkpt>
      <trkpt lat="50.6292" lon="1.62255">
        <ele>69</ele>
        <time>2016-05-06T12:37:56Z</time>
      </trkpt>
      <trkpt lat="50.6293" lon="1.6225">
        <ele>68.8</ele>
        <time>2016-05-06T12:37:57Z</time>
      </trkpt>
      <trkpt lat="50.62939" lon="1.62246">
        <ele>68.6</ele>
        <time>2016-05-06T12:37:58Z</time>
      </trkpt>
      <trkpt lat="50.62949" lon="1.62242">
        <ele>68.3</ele>
        <time>2016-05-06T12:37:59Z</time>
      </trkpt>
      <trkpt lat="50.62963" lon="1.62235">
        <ele>67.8</ele>
        <time>2016-05-06T12:38:01Z</time>
      </trkpt>
      <trkpt lat="50.6297" lon="1.62227">
        <ele>67.4</ele>
        <time>2016-05-06T12:38:03Z</time>
      </trkpt>
      <trkpt lat="50.62971" lon="1.62208">
        <ele>66.9</ele>
        <time>2016-05-06T12:38:05Z</time>
      </trkpt>
      <trkpt lat="50.6297" lon="1.62186">
        <ele>66.5</ele>
        <time>2016-05-06T12:38:07Z</time>
      </trkpt>
      <trkpt lat="50.62968" lon="1.62165">
        <ele>66.2</ele>
        <time>2016-05-06T12:38:09Z</time>
      </trkpt>
      <trkpt lat="50.62964" lon="1.62143">
        <ele>65.9</ele>
        <time>2016-05-06T12:38:11Z</time>
      </trkpt>
      <trkpt lat="50.6296" lon="1.62123">
        <ele>65.7</ele>
        <time>2016-05-06T12:38:13Z</time>
      </trkpt>
      <trkpt lat="50.62956" lon="1.62103">
        <ele>65.5</ele>
        <time>2016-05-06T12:38:15Z</time>
      </trkpt>
      <trkpt lat="50.62952" lon="1.62083">
        <ele>65.3</ele>
        <time>2016-05-06T12:38:17Z</time>
      </trkpt>
      <trkpt lat="50.62948" lon="1.62062">
        <ele>65.2</ele>
        <time>2016-05-06T12:38:19Z</time>
      </trkpt>
      <trkpt lat="50.62945" lon="1.62041">
        <ele>65.2</ele>
        <time>2016-05-06T12:38:21Z</time>
      </trkpt>
      <trkpt lat="50.62942" lon="1.62021">
        <ele>65.1</ele>
        <time>2016-05-06T12:38:23Z</time>
      </trkpt>
      <trkpt lat="50.62939" lon="1.62003">
        <ele>65.1</ele>
        <time>2016-05-06T12:38:25Z</time>
      </trkpt>
      <trkpt lat="50.62937" lon="1.61987">
        <ele>65.2</ele>
        <time>2016-05-06T12:38:27Z</time>
      </trkpt>
      <trkpt lat="50.62934" lon="1.61972">
        <ele>65.2</ele>
        <time>2016-05-06T12:38:30Z</time>
      </trkpt>
      <trkpt lat="50.62926" lon="1.61961">
        <ele>65.3</ele>
        <time>2016-05-06T12:38:34Z</time>
      </trkpt>
      <trkpt lat="50.6292" lon="1.61945">
        <ele>65.4</ele>
        <time>2016-05-06T12:38:37Z</time>
      </trkpt>
      <trkpt lat="50.62918" lon="1.61929">
        <ele>65.4</ele>
        <time>2016-05-06T12:38:39Z</time>
      </trkpt>
      <trkpt lat="50.62915" lon="1.6191">
        <ele>65.5</ele>
        <time>2016-05-06T12:38:41Z</time>
      </trkpt>
      <trkpt lat="50.62911" lon="1.61891">
        <ele>65.5</ele>
        <time>2016-05-06T12:38:43Z</time>
      </trkpt>
      <trkpt lat="50.62909" lon="1.61871">
        <ele>65.5</ele>
        <time>2016-05-06T12:38:45Z</time>
      </trkpt>
      <trkpt lat="50.62909" lon="1.61851">
        <ele>65.5</ele>
        <time>2016-05-06T12:38:47Z</time>
      </trkpt>
      <trkpt lat="50.62912" lon="1.61832">
        <ele>65.5</ele>
        <time>2016-05-06T12:38:49Z</time>
      </trkpt>
      <trkpt lat="50.62919" lon="1.61814">
        <ele>65.5</ele>
        <time>2016-05-06T12:38:51Z</time>
      </trkpt>
      <trkpt lat="50.6293" lon="1.61796">
        <ele>65.5</ele>
        <time>2016-05-06T12:38:53Z</time>
      </trkpt>
      <trkpt lat="50.62942" lon="1.61776">
        <ele>65.4</ele>
        <time>2016-05-06T12:38:55Z</time>
      </trkpt>
      <trkpt lat="50.62949" lon="1.61765">
        <ele>65.2</ele>
        <time>2016-05-06T12:38:56Z</time>
      </trkpt>
      <trkpt lat="50.62957" lon="1.61754">
        <ele>65.1</ele>
        <time>2016-05-06T12:38:57Z</time>
      </trkpt>
      <trkpt lat="50.62964" lon="1.61743">
        <ele>65</ele>
        <time>2016-05-06T12:38:58Z</time>
      </trkpt>
      <trkpt lat="50.62971" lon="1.61734">
        <ele>64.7</ele>
        <time>2016-05-06T12:38:59Z</time>
      </trkpt>
      <trkpt lat="50.62981" lon="1.61718">
        <ele>64.2</ele>
        <time>2016-05-06T12:39:01Z</time>
      </trkpt>
      <trkpt lat="50.62988" lon="1.61705">
        <ele>63.5</ele>
        <time>2016-05-06T12:39:03Z</time>
      </trkpt>
      <trkpt lat="50.62996" lon="1.61693">
        <ele>62.8</ele>
        <time>2016-05-06T12:39:05Z</time>
      </trkpt>
      <trkpt lat="50.63007" lon="1.6168">
        <ele>62</ele>
        <time>2016-05-06T12:39:07Z</time>
      </trkpt>
      <trkpt lat="50.6302" lon="1.61666">
        <ele>61.2</ele>
        <time>2016-05-06T12:39:09Z</time>
      </trkpt>
      <trkpt lat="50.63036" lon="1.61651">
        <ele>60.3</ele>
        <time>2016-05-06T12:39:11Z</time>
      </trkpt>
      <trkpt lat="50.63045" lon="1.61644">
        <ele>59.8</ele>
        <time>2016-05-06T12:39:12Z</time>
      </trkpt>
      <trkpt lat="50.63054" lon="1.61636">
        <ele>59.4</ele>
        <time>2016-05-06T12:39:13Z</time>
      </trkpt>
      <trkpt lat="50.63064" lon="1.61628">
        <ele>58.9</ele>
        <time>2016-05-06T12:39:14Z</time>
      </trkpt>
      <trkpt lat="50.63074" lon="1.61622">
        <ele>58.4</ele>
        <time>2016-05-06T12:39:15Z</time>
      </trkpt>
      <trkpt lat="50.63083" lon="1.61615">
        <ele>57.9</ele>
        <time>2016-05-06T12:39:16Z</time>
      </trkpt>
      <trkpt lat="50.63093" lon="1.61609">
        <ele>57.5</ele>
        <time>2016-05-06T12:39:17Z</time>
      </trkpt>
      <trkpt lat="50.63102" lon="1.61602">
        <ele>57.1</ele>
        <time>2016-05-06T12:39:18Z</time>
      </trkpt>
      <trkpt lat="50.6311" lon="1.61595">
        <ele>56.7</ele>
        <time>2016-05-06T12:39:19Z</time>
      </trkpt>
      <trkpt lat="50.63118" lon="1.61586">
        <ele>56.3</ele>
        <time>2016-05-06T12:39:20Z</time>
      </trkpt>
      <trkpt lat="50.63125" lon="1.61577">
        <ele>55.9</ele>
        <time>2016-05-06T12:39:21Z</time>
      </trkpt>
      <trkpt lat="50.63132" lon="1.61568">
        <ele>55.5</ele>
        <time>2016-05-06T12:39:22Z</time>
      </trkpt>
      <trkpt lat="50.63139" lon="1.61558">
        <ele>55.2</ele>
        <time>2016-05-06T12:39:23Z</time>
      </trkpt>
      <trkpt lat="50.63146" lon="1.61547">
        <ele>54.9</ele>
        <time>2016-05-06T12:39:24Z</time>
      </trkpt>
      <trkpt lat="50.63158" lon="1.61528">
        <ele>54.3</ele>
        <time>2016-05-06T12:39:26Z</time>
      </trkpt>
      <trkpt lat="50.6317" lon="1.61509">
        <ele>53.6</ele>
        <time>2016-05-06T12:39:28Z</time>
      </trkpt>
      <trkpt lat="50.63181" lon="1.61492">
        <ele>52.9</ele>
        <time>2016-05-06T12:39:30Z</time>
      </trkpt>
      <trkpt lat="50.63193" lon="1.61475">
        <ele>52.2</ele>
        <time>2016-05-06T12:39:32Z</time>
      </trkpt>
      <trkpt lat="50.63204" lon="1.61459">
        <ele>51.4</ele>
        <time>2016-05-06T12:39:34Z</time>
      </trkpt>
      <trkpt lat="50.63216" lon="1.6144">
        <ele>50.6</ele>
        <time>2016-05-06T12:39:36Z</time>
      </trkpt>
      <trkpt lat="50.63223" lon="1.61429">
        <ele>50.2</ele>
        <time>2016-05-06T12:39:37Z</time>
      </trkpt>
      <trkpt lat="50.63229" lon="1.61417">
        <ele>49.8</ele>
        <time>2016-05-06T12:39:38Z</time>
      </trkpt>
      <trkpt lat="50.63236" lon="1.61405">
        <ele>49.4</ele>
        <time>2016-05-06T12:39:39Z</time>
      </trkpt>
      <trkpt lat="50.63242" lon="1.6139">
        <ele>49</ele>
        <time>2016-05-06T12:39:40Z</time>
      </trkpt>
      <trkpt lat="50.63247" lon="1.61376">
        <ele>48.5</ele>
        <time>2016-05-06T12:39:41Z</time>
      </trkpt>
      <trkpt lat="50.63252" lon="1.61361">
        <ele>48.2</ele>
        <time>2016-05-06T12:39:42Z</time>
      </trkpt>
      <trkpt lat="50.63257" lon="1.61347">
        <ele>47.8</ele>
        <time>2016-05-06T12:39:43Z</time>
      </trkpt>
      <trkpt lat="50.63261" lon="1.61333">
        <ele>47.4</ele>
        <time>2016-05-06T12:39:44Z</time>
      </trkpt>
      <trkpt lat="50.63264" lon="1.61319">
        <ele>47</ele>
        <time>2016-05-06T12:39:45Z</time>
      </trkpt>
      <trkpt lat="50.63271" lon="1.61297">
        <ele>46.3</ele>
        <time>2016-05-06T12:39:47Z</time>
      </trkpt>
      <trkpt lat="50.63279" lon="1.61284">
        <ele>45.4</ele>
        <time>2016-05-06T12:39:50Z</time>
      </trkpt>
      <trkpt lat="50.63286" lon="1.61275">
        <ele>44.2</ele>
        <time>2016-05-06T12:39:55Z</time>
      </trkpt>
      <trkpt lat="50.63286" lon="1.61255">
        <ele>43.7</ele>
        <time>2016-05-06T12:39:58Z</time>
      </trkpt>
      <trkpt lat="50.63289" lon="1.61239">
        <ele>43.3</ele>
        <time>2016-05-06T12:40:00Z</time>
      </trkpt>
      <trkpt lat="50.63293" lon="1.61222">
        <ele>43</ele>
        <time>2016-05-06T12:40:02Z</time>
      </trkpt>
      <trkpt lat="50.63298" lon="1.61201">
        <ele>42.8</ele>
        <time>2016-05-06T12:40:04Z</time>
      </trkpt>
      <trkpt lat="50.63303" lon="1.61178">
        <ele>42.5</ele>
        <time>2016-05-06T12:40:06Z</time>
      </trkpt>
      <trkpt lat="50.63306" lon="1.61152">
        <ele>42.2</ele>
        <time>2016-05-06T12:40:08Z</time>
      </trkpt>
      <trkpt lat="50.63308" lon="1.61125">
        <ele>41.9</ele>
        <time>2016-05-06T12:40:10Z</time>
      </trkpt>
      <trkpt lat="50.6331" lon="1.61098">
        <ele>41.5</ele>
        <time>2016-05-06T12:40:12Z</time>
      </trkpt>
      <trkpt lat="50.63313" lon="1.61071">
        <ele>41.1</ele>
        <time>2016-05-06T12:40:14Z</time>
      </trkpt>
      <trkpt lat="50.63314" lon="1.61043">
        <ele>40.7</ele>
        <time>2016-05-06T12:40:16Z</time>
      </trkpt>
      <trkpt lat="50.63316" lon="1.61015">
        <ele>40.3</ele>
        <time>2016-05-06T12:40:18Z</time>
      </trkpt>
      <trkpt lat="50.63317" lon="1.60987">
        <ele>39.8</ele>
        <time>2016-05-06T12:40:20Z</time>
      </trkpt>
      <trkpt lat="50.63318" lon="1.60961">
        <ele>39.2</ele>
        <time>2016-05-06T12:40:22Z</time>
      </trkpt>
      <trkpt lat="50.63319" lon="1.60934">
        <ele>38.7</ele>
        <time>2016-05-06T12:40:24Z</time>
      </trkpt>
      <trkpt lat="50.6332" lon="1.60908">
        <ele>38.1</ele>
        <time>2016-05-06T12:40:26Z</time>
      </trkpt>
      <trkpt lat="50.63321" lon="1.60884">
        <ele>37.6</ele>
        <time>2016-05-06T12:40:28Z</time>
      </trkpt>
      <trkpt lat="50.63321" lon="1.60864">
        <ele>37.1</ele>
        <time>2016-05-06T12:40:30Z</time>
      </trkpt>
      <trkpt lat="50.63322" lon="1.60842">
        <ele>36.6</ele>
        <time>2016-05-06T12:40:32Z</time>
      </trkpt>
      <trkpt lat="50.63323" lon="1.6082">
        <ele>36.2</ele>
        <time>2016-05-06T12:40:34Z</time>
      </trkpt>
      <trkpt lat="50.63324" lon="1.60797">
        <ele>35.8</ele>
        <time>2016-05-06T12:40:36Z</time>
      </trkpt>
      <trkpt lat="50.63325" lon="1.60777">
        <ele>35.5</ele>
        <time>2016-05-06T12:40:38Z</time>
      </trkpt>
      <trkpt lat="50.63327" lon="1.60755">
        <ele>35.2</ele>
        <time>2016-05-06T12:40:40Z</time>
      </trkpt>
      <trkpt lat="50.63327" lon="1.60733">
        <ele>34.9</ele>
        <time>2016-05-06T12:40:42Z</time>
      </trkpt>
      <trkpt lat="50.63328" lon="1.60713">
        <ele>34.6</ele>
        <time>2016-05-06T12:40:44Z</time>
      </trkpt>
      <trkpt lat="50.63329" lon="1.60693">
        <ele>34.2</ele>
        <time>2016-05-06T12:40:46Z</time>
      </trkpt>
      <trkpt lat="50.63328" lon="1.60672">
        <ele>33.9</ele>
        <time>2016-05-06T12:40:48Z</time>
      </trkpt>
      <trkpt lat="50.63328" lon="1.60651">
        <ele>33.7</ele>
        <time>2016-05-06T12:40:50Z</time>
      </trkpt>
      <trkpt lat="50.63328" lon="1.60632">
        <ele>33.4</ele>
        <time>2016-05-06T12:40:52Z</time>
      </trkpt>
      <trkpt lat="50.63329" lon="1.60615">
        <ele>33.2</ele>
        <time>2016-05-06T12:40:54Z</time>
      </trkpt>
      <trkpt lat="50.63332" lon="1.60599">
        <ele>32.9</ele>
        <time>2016-05-06T12:40:57Z</time>
      </trkpt>
      <trkpt lat="50.6334" lon="1.60592">
        <ele>32.7</ele>
        <time>2016-05-06T12:41:01Z</time>
      </trkpt>
      <trkpt lat="50.63343" lon="1.60575">
        <ele>32</ele>
        <time>2016-05-06T12:41:07Z</time>
      </trkpt>
      <trkpt lat="50.6334" lon="1.60561">
        <ele>32</ele>
        <time>2016-05-06T12:41:10Z</time>
      </trkpt>
      <trkpt lat="50.63339" lon="1.60543">
        <ele>32</ele>
        <time>2016-05-06T12:41:13Z</time>
      </trkpt>
      <trkpt lat="50.63334" lon="1.60528">
        <ele>32</ele>
        <time>2016-05-06T12:41:16Z</time>
      </trkpt>
      <trkpt lat="50.63326" lon="1.60521">
        <ele>32</ele>
        <time>2016-05-06T12:41:18Z</time>
      </trkpt>
      <trkpt lat="50.63317" lon="1.60503">
        <ele>32</ele>
        <time>2016-05-06T12:41:21Z</time>
      </trkpt>
      <trkpt lat="50.63311" lon="1.60484">
        <ele>32</ele>
        <time>2016-05-06T12:41:24Z</time>
      </trkpt>
      <trkpt lat="50.63306" lon="1.60471">
        <ele>31.9</ele>
        <time>2016-05-06T12:41:26Z</time>
      </trkpt>
      <trkpt lat="50.63301" lon="1.60454">
        <ele>31.9</ele>
        <time>2016-05-06T12:41:28Z</time>
      </trkpt>
      <trkpt lat="50.63295" lon="1.60437">
        <ele>31.9</ele>
        <time>2016-05-06T12:41:30Z</time>
      </trkpt>
      <trkpt lat="50.6329" lon="1.60419">
        <ele>31.9</ele>
        <time>2016-05-06T12:41:32Z</time>
      </trkpt>
      <trkpt lat="50.63286" lon="1.60399">
        <ele>31.9</ele>
        <time>2016-05-06T12:41:34Z</time>
      </trkpt>
      <trkpt lat="50.63282" lon="1.60379">
        <ele>31.9</ele>
        <time>2016-05-06T12:41:36Z</time>
      </trkpt>
      <trkpt lat="50.63278" lon="1.60358">
        <ele>31.9</ele>
        <time>2016-05-06T12:41:38Z</time>
      </trkpt>
      <trkpt lat="50.63274" lon="1.60336">
        <ele>31.9</ele>
        <time>2016-05-06T12:41:40Z</time>
      </trkpt>
      <trkpt lat="50.6327" lon="1.60314">
        <ele>31.9</ele>
        <time>2016-05-06T12:41:42Z</time>
      </trkpt>
      <trkpt lat="50.63265" lon="1.60293">
        <ele>31.9</ele>
        <time>2016-05-06T12:41:44Z</time>
      </trkpt>
      <trkpt lat="50.63261" lon="1.60271">
        <ele>31.9</ele>
        <time>2016-05-06T12:41:46Z</time>
      </trkpt>
      <trkpt lat="50.63257" lon="1.60251">
        <ele>31.9</ele>
        <time>2016-05-06T12:41:48Z</time>
      </trkpt>
      <trkpt lat="50.63252" lon="1.60231">
        <ele>31.9</ele>
        <time>2016-05-06T12:41:50Z</time>
      </trkpt>
      <trkpt lat="50.63247" lon="1.6021">
        <ele>31.9</ele>
        <time>2016-05-06T12:41:52Z</time>
      </trkpt>
      <trkpt lat="50.63242" lon="1.60189">
        <ele>31.9</ele>
        <time>2016-05-06T12:41:54Z</time>
      </trkpt>
      <trkpt lat="50.63237" lon="1.60167">
        <ele>31.9</ele>
        <time>2016-05-06T12:41:56Z</time>
      </trkpt>
      <trkpt lat="50.63231" lon="1.60144">
        <ele>31.9</ele>
        <time>2016-05-06T12:41:58Z</time>
      </trkpt>
      <trkpt lat="50.63224" lon="1.60122">
        <ele>31.9</ele>
        <time>2016-05-06T12:42:00Z</time>
      </trkpt>
      <trkpt lat="50.63218" lon="1.601">
        <ele>31.9</ele>
        <time>2016-05-06T12:42:02Z</time>
      </trkpt>
      <trkpt lat="50.63211" lon="1.60078">
        <ele>31.9</ele>
        <time>2016-05-06T12:42:04Z</time>
      </trkpt>
      <trkpt lat="50.63204" lon="1.60055">
        <ele>31.9</ele>
        <time>2016-05-06T12:42:06Z</time>
      </trkpt>
      <trkpt lat="50.63197" lon="1.60034">
        <ele>31.9</ele>
        <time>2016-05-06T12:42:08Z</time>
      </trkpt>
      <trkpt lat="50.63191" lon="1.60012">
        <ele>31.9</ele>
        <time>2016-05-06T12:42:10Z</time>
      </trkpt>
      <trkpt lat="50.63185" lon="1.5999">
        <ele>31.9</ele>
        <time>2016-05-06T12:42:12Z</time>
      </trkpt>
      <trkpt lat="50.63177" lon="1.59969">
        <ele>31.9</ele>
        <time>2016-05-06T12:42:14Z</time>
      </trkpt>
      <trkpt lat="50.6317" lon="1.59947">
        <ele>31.9</ele>
        <time>2016-05-06T12:42:16Z</time>
      </trkpt>
      <trkpt lat="50.63163" lon="1.59926">
        <ele>31.9</ele>
        <time>2016-05-06T12:42:18Z</time>
      </trkpt>
      <trkpt lat="50.63156" lon="1.59906">
        <ele>31.9</ele>
        <time>2016-05-06T12:42:20Z</time>
      </trkpt>
      <trkpt lat="50.63147" lon="1.59885">
        <ele>31.9</ele>
        <time>2016-05-06T12:42:22Z</time>
      </trkpt>
      <trkpt lat="50.63139" lon="1.59864">
        <ele>31.9</ele>
        <time>2016-05-06T12:42:24Z</time>
      </trkpt>
      <trkpt lat="50.63131" lon="1.59843">
        <ele>31.9</ele>
        <time>2016-05-06T12:42:26Z</time>
      </trkpt>
      <trkpt lat="50.63126" lon="1.59821">
        <ele>31.9</ele>
        <time>2016-05-06T12:42:28Z</time>
      </trkpt>
      <trkpt lat="50.63122" lon="1.59798">
        <ele>31.9</ele>
        <time>2016-05-06T12:42:30Z</time>
      </trkpt>
      <trkpt lat="50.63118" lon="1.59774">
        <ele>31.9</ele>
        <time>2016-05-06T12:42:32Z</time>
      </trkpt>
      <trkpt lat="50.63114" lon="1.59753">
        <ele>31.9</ele>
        <time>2016-05-06T12:42:34Z</time>
      </trkpt>
      <trkpt lat="50.6311" lon="1.59731">
        <ele>31.9</ele>
        <time>2016-05-06T12:42:36Z</time>
      </trkpt>
      <trkpt lat="50.63107" lon="1.5971">
        <ele>31.9</ele>
        <time>2016-05-06T12:42:38Z</time>
      </trkpt>
      <trkpt lat="50.63103" lon="1.59688">
        <ele>31.9</ele>
        <time>2016-05-06T12:42:40Z</time>
      </trkpt>
      <trkpt lat="50.63099" lon="1.59666">
        <ele>32</ele>
        <time>2016-05-06T12:42:42Z</time>
      </trkpt>
      <trkpt lat="50.63095" lon="1.59645">
        <ele>32</ele>
        <time>2016-05-06T12:42:44Z</time>
      </trkpt>
      <trkpt lat="50.63092" lon="1.59626">
        <ele>32.1</ele>
        <time>2016-05-06T12:42:46Z</time>
      </trkpt>
      <trkpt lat="50.63087" lon="1.59607">
        <ele>32.2</ele>
        <time>2016-05-06T12:42:48Z</time>
      </trkpt>
      <trkpt lat="50.63083" lon="1.59586">
        <ele>32.4</ele>
        <time>2016-05-06T12:42:50Z</time>
      </trkpt>
      <trkpt lat="50.63079" lon="1.59565">
        <ele>32.5</ele>
        <time>2016-05-06T12:42:52Z</time>
      </trkpt>
      <trkpt lat="50.63076" lon="1.59544">
        <ele>32.7</ele>
        <time>2016-05-06T12:42:54Z</time>
      </trkpt>
      <trkpt lat="50.63072" lon="1.59522">
        <ele>32.8</ele>
        <time>2016-05-06T12:42:56Z</time>
      </trkpt>
      <trkpt lat="50.63067" lon="1.59497">
        <ele>32.9</ele>
        <time>2016-05-06T12:42:58Z</time>
      </trkpt>
      <trkpt lat="50.63065" lon="1.59472">
        <ele>33</ele>
        <time>2016-05-06T12:43:00Z</time>
      </trkpt>
      <trkpt lat="50.63063" lon="1.59447">
        <ele>32.9</ele>
        <time>2016-05-06T12:43:02Z</time>
      </trkpt>
      <trkpt lat="50.63063" lon="1.59422">
        <ele>32.8</ele>
        <time>2016-05-06T12:43:04Z</time>
      </trkpt>
      <trkpt lat="50.63064" lon="1.59396">
        <ele>32.5</ele>
        <time>2016-05-06T12:43:06Z</time>
      </trkpt>
      <trkpt lat="50.63066" lon="1.59369">
        <ele>32.3</ele>
        <time>2016-05-06T12:43:08Z</time>
      </trkpt>
      <trkpt lat="50.63068" lon="1.59355">
        <ele>32.1</ele>
        <time>2016-05-06T12:43:09Z</time>
      </trkpt>
      <trkpt lat="50.63071" lon="1.59341">
        <ele>32</ele>
        <time>2016-05-06T12:43:10Z</time>
      </trkpt>
      <trkpt lat="50.63073" lon="1.59327">
        <ele>31.8</ele>
        <time>2016-05-06T12:43:11Z</time>
      </trkpt>
      <trkpt lat="50.63076" lon="1.59314">
        <ele>31.6</ele>
        <time>2016-05-06T12:43:12Z</time>
      </trkpt>
      <trkpt lat="50.63084" lon="1.59289">
        <ele>31.2</ele>
        <time>2016-05-06T12:43:14Z</time>
      </trkpt>
      <trkpt lat="50.6309" lon="1.59267">
        <ele>30.8</ele>
        <time>2016-05-06T12:43:16Z</time>
      </trkpt>
      <trkpt lat="50.631" lon="1.59245">
        <ele>30.4</ele>
        <time>2016-05-06T12:43:18Z</time>
      </trkpt>
      <trkpt lat="50.6311" lon="1.59223">
        <ele>30</ele>
        <time>2016-05-06T12:43:20Z</time>
      </trkpt>
      <trkpt lat="50.63119" lon="1.59203">
        <ele>29.7</ele>
        <time>2016-05-06T12:43:22Z</time>
      </trkpt>
      <trkpt lat="50.63128" lon="1.59183">
        <ele>29.4</ele>
        <time>2016-05-06T12:43:24Z</time>
      </trkpt>
      <trkpt lat="50.63137" lon="1.59163">
        <ele>29</ele>
        <time>2016-05-06T12:43:26Z</time>
      </trkpt>
      <trkpt lat="50.63146" lon="1.59145">
        <ele>28.6</ele>
        <time>2016-05-06T12:43:28Z</time>
      </trkpt>
      <trkpt lat="50.63155" lon="1.59127">
        <ele>28.3</ele>
        <time>2016-05-06T12:43:30Z</time>
      </trkpt>
      <trkpt lat="50.63165" lon="1.59107">
        <ele>27.9</ele>
        <time>2016-05-06T12:43:32Z</time>
      </trkpt>
      <trkpt lat="50.63173" lon="1.59086">
        <ele>27.6</ele>
        <time>2016-05-06T12:43:34Z</time>
      </trkpt>
      <trkpt lat="50.63182" lon="1.59065">
        <ele>27.3</ele>
        <time>2016-05-06T12:43:36Z</time>
      </trkpt>
      <trkpt lat="50.63189" lon="1.59043">
        <ele>27</ele>
        <time>2016-05-06T12:43:38Z</time>
      </trkpt>
      <trkpt lat="50.63197" lon="1.59021">
        <ele>26.7</ele>
        <time>2016-05-06T12:43:40Z</time>
      </trkpt>
      <trkpt lat="50.63204" lon="1.58996">
        <ele>26.5</ele>
        <time>2016-05-06T12:43:42Z</time>
      </trkpt>
      <trkpt lat="50.6321" lon="1.58971">
        <ele>26.3</ele>
        <time>2016-05-06T12:43:44Z</time>
      </trkpt>
      <trkpt lat="50.63213" lon="1.58945">
        <ele>26.2</ele>
        <time>2016-05-06T12:43:46Z</time>
      </trkpt>
      <trkpt lat="50.63214" lon="1.58918">
        <ele>26</ele>
        <time>2016-05-06T12:43:48Z</time>
      </trkpt>
      <trkpt lat="50.63215" lon="1.58891">
        <ele>25.8</ele>
        <time>2016-05-06T12:43:50Z</time>
      </trkpt>
      <trkpt lat="50.63215" lon="1.58864">
        <ele>25.6</ele>
        <time>2016-05-06T12:43:52Z</time>
      </trkpt>
      <trkpt lat="50.63215" lon="1.58837">
        <ele>25.4</ele>
        <time>2016-05-06T12:43:54Z</time>
      </trkpt>
      <trkpt lat="50.63216" lon="1.58811">
        <ele>25.2</ele>
        <time>2016-05-06T12:43:56Z</time>
      </trkpt>
      <trkpt lat="50.63216" lon="1.58786">
        <ele>25.1</ele>
        <time>2016-05-06T12:43:58Z</time>
      </trkpt>
      <trkpt lat="50.63218" lon="1.58762">
        <ele>24.9</ele>
        <time>2016-05-06T12:44:00Z</time>
      </trkpt>
      <trkpt lat="50.6322" lon="1.58738">
        <ele>24.7</ele>
        <time>2016-05-06T12:44:02Z</time>
      </trkpt>
      <trkpt lat="50.63222" lon="1.58713">
        <ele>24.6</ele>
        <time>2016-05-06T12:44:04Z</time>
      </trkpt>
      <trkpt lat="50.63224" lon="1.5869">
        <ele>24.3</ele>
        <time>2016-05-06T12:44:06Z</time>
      </trkpt>
      <trkpt lat="50.63227" lon="1.58667">
        <ele>24.1</ele>
        <time>2016-05-06T12:44:08Z</time>
      </trkpt>
      <trkpt lat="50.63229" lon="1.58643">
        <ele>23.8</ele>
        <time>2016-05-06T12:44:10Z</time>
      </trkpt>
      <trkpt lat="50.63231" lon="1.5862">
        <ele>23.5</ele>
        <time>2016-05-06T12:44:12Z</time>
      </trkpt>
      <trkpt lat="50.63234" lon="1.58595">
        <ele>23.2</ele>
        <time>2016-05-06T12:44:14Z</time>
      </trkpt>
      <trkpt lat="50.63236" lon="1.58573">
        <ele>22.9</ele>
        <time>2016-05-06T12:44:16Z</time>
      </trkpt>
      <trkpt lat="50.63238" lon="1.58552">
        <ele>22.6</ele>
        <time>2016-05-06T12:44:18Z</time>
      </trkpt>
      <trkpt lat="50.63239" lon="1.58531">
        <ele>22.4</ele>
        <time>2016-05-06T12:44:20Z</time>
      </trkpt>
      <trkpt lat="50.63239" lon="1.5851">
        <ele>22.2</ele>
        <time>2016-05-06T12:44:22Z</time>
      </trkpt>
      <trkpt lat="50.6324" lon="1.5849">
        <ele>22.1</ele>
        <time>2016-05-06T12:44:24Z</time>
      </trkpt>
      <trkpt lat="50.63242" lon="1.5847">
        <ele>21.9</ele>
        <time>2016-05-06T12:44:26Z</time>
      </trkpt>
      <trkpt lat="50.63243" lon="1.58452">
        <ele>21.8</ele>
        <time>2016-05-06T12:44:28Z</time>
      </trkpt>
      <trkpt lat="50.63244" lon="1.58435">
        <ele>21.7</ele>
        <time>2016-05-06T12:44:30Z</time>
      </trkpt>
      <trkpt lat="50.63246" lon="1.58419">
        <ele>21.5</ele>
        <time>2016-05-06T12:44:32Z</time>
      </trkpt>
      <trkpt lat="50.63247" lon="1.58404">
        <ele>21.4</ele>
        <time>2016-05-06T12:44:34Z</time>
      </trkpt>
      <trkpt lat="50.63246" lon="1.58389">
        <ele>21.4</ele>
        <time>2016-05-06T12:44:36Z</time>
      </trkpt>
      <trkpt lat="50.63246" lon="1.58374">
        <ele>21.3</ele>
        <time>2016-05-06T12:44:38Z</time>
      </trkpt>
      <trkpt lat="50.63247" lon="1.58358">
        <ele>21.2</ele>
        <time>2016-05-06T12:44:40Z</time>
      </trkpt>
      <trkpt lat="50.63248" lon="1.58341">
        <ele>21.1</ele>
        <time>2016-05-06T12:44:42Z</time>
      </trkpt>
      <trkpt lat="50.6325" lon="1.58325">
        <ele>21</ele>
        <time>2016-05-06T12:44:44Z</time>
      </trkpt>
      <trkpt lat="50.63251" lon="1.58307">
        <ele>21</ele>
        <time>2016-05-06T12:44:46Z</time>
      </trkpt>
      <trkpt lat="50.63253" lon="1.58291">
        <ele>20.9</ele>
        <time>2016-05-06T12:44:48Z</time>
      </trkpt>
      <trkpt lat="50.63254" lon="1.58274">
        <ele>20.8</ele>
        <time>2016-05-06T12:44:50Z</time>
      </trkpt>
      <trkpt lat="50.63255" lon="1.5826">
        <ele>20.7</ele>
        <time>2016-05-06T12:44:52Z</time>
      </trkpt>
      <trkpt lat="50.63257" lon="1.58244">
        <ele>20.5</ele>
        <time>2016-05-06T12:44:55Z</time>
      </trkpt>
      <trkpt lat="50.63259" lon="1.58231">
        <ele>20.3</ele>
        <time>2016-05-06T12:44:59Z</time>
      </trkpt>
      <trkpt lat="50.63259" lon="1.58212">
        <ele>20.1</ele>
        <time>2016-05-06T12:45:04Z</time>
      </trkpt>
      <trkpt lat="50.6326" lon="1.58192">
        <ele>20</ele>
        <time>2016-05-06T12:45:07Z</time>
      </trkpt>
      <trkpt lat="50.63261" lon="1.58178">
        <ele>19.8</ele>
        <time>2016-05-06T12:45:09Z</time>
      </trkpt>
      <trkpt lat="50.63263" lon="1.58163">
        <ele>19.7</ele>
        <time>2016-05-06T12:45:11Z</time>
      </trkpt>
      <trkpt lat="50.63265" lon="1.58149">
        <ele>19.6</ele>
        <time>2016-05-06T12:45:13Z</time>
      </trkpt>
      <trkpt lat="50.63267" lon="1.58131">
        <ele>19.5</ele>
        <time>2016-05-06T12:45:16Z</time>
      </trkpt>
      <trkpt lat="50.63269" lon="1.58115">
        <ele>19.3</ele>
        <time>2016-05-06T12:45:19Z</time>
      </trkpt>
      <trkpt lat="50.6327" lon="1.581">
        <ele>19.2</ele>
        <time>2016-05-06T12:45:22Z</time>
      </trkpt>
      <trkpt lat="50.63271" lon="1.58084">
        <ele>18.9</ele>
        <time>2016-05-06T12:45:30Z</time>
      </trkpt>
      <trkpt lat="50.63271" lon="1.58067">
        <ele>18.7</ele>
        <time>2016-05-06T12:45:34Z</time>
      </trkpt>
      <trkpt lat="50.6327" lon="1.58047">
        <ele>18.7</ele>
        <time>2016-05-06T12:45:37Z</time>
      </trkpt>
      <trkpt lat="50.6327" lon="1.58032">
        <ele>18.7</ele>
        <time>2016-05-06T12:45:39Z</time>
      </trkpt>
      <trkpt lat="50.63269" lon="1.58017">
        <ele>18.6</ele>
        <time>2016-05-06T12:45:41Z</time>
      </trkpt>
      <trkpt lat="50.63269" lon="1.58003">
        <ele>18.6</ele>
        <time>2016-05-06T12:45:43Z</time>
      </trkpt>
      <trkpt lat="50.63269" lon="1.57988">
        <ele>18.6</ele>
        <time>2016-05-06T12:45:45Z</time>
      </trkpt>
      <trkpt lat="50.63269" lon="1.57968">
        <ele>18.4</ele>
        <time>2016-05-06T12:45:48Z</time>
      </trkpt>
      <trkpt lat="50.63269" lon="1.57949">
        <ele>18.4</ele>
        <time>2016-05-06T12:45:51Z</time>
      </trkpt>
      <trkpt lat="50.63269" lon="1.57929">
        <ele>17.8</ele>
        <time>2016-05-06T12:45:54Z</time>
      </trkpt>
      <trkpt lat="50.63268" lon="1.5791">
        <ele>17.9</ele>
        <time>2016-05-06T12:45:57Z</time>
      </trkpt>
      <trkpt lat="50.63267" lon="1.57891">
        <ele>18.5</ele>
        <time>2016-05-06T12:46:00Z</time>
      </trkpt>
      <trkpt lat="50.63267" lon="1.57871">
        <ele>18.5</ele>
        <time>2016-05-06T12:46:03Z</time>
      </trkpt>
      <trkpt lat="50.63266" lon="1.57855">
        <ele>18.4</ele>
        <time>2016-05-06T12:46:06Z</time>
      </trkpt>
      <trkpt lat="50.63266" lon="1.57841">
        <ele>18.3</ele>
        <time>2016-05-06T12:46:09Z</time>
      </trkpt>
      <trkpt lat="50.63276" lon="1.57834">
        <ele>18.2</ele>
        <time>2016-05-06T12:46:14Z</time>
      </trkpt>
      <trkpt lat="50.63286" lon="1.5783">
        <ele>18</ele>
        <time>2016-05-06T12:46:20Z</time>
      </trkpt>
      <trkpt lat="50.63285" lon="1.57829">
        <ele>18</ele>
        <time>2016-05-06T12:46:23Z</time>
      </trkpt>
    </trkseg>
  </trk>
</gpx>